<?xml version="1.0" encoding="UTF-8"?><gpx version="1.1" creator="Exported from Strava via extension e-ivanov.ru"  xsi:schemaLocation="http://www.topografix.com/GPX/1/1 http://www.topografix.com/GPX/1/1/gpx.xsd http://www.garmin.com/xmlschemas/GpxExtensions/v3 http://www.garmin.com/xmlschemas/GpxExtensionsv3.xsd http://www.garmin.com/xmlschemas/TrackPointExtension/v1 http://www.garmin.com/xmlschemas/TrackPointExtensionv1.xsd"  xmlns="http://www.topografix.com/GPX/1/1"  xmlns:gpxtpx="http://www.garmin.com/xmlschemas/TrackPointExtension/v1"  xmlns:gpxx="http://www.garmin.com/xmlschemas/GpxExtensions/v3" xmlns:xsi="http://www.w3.org/2001/XMLSchema-instance"><metadata><link href="http://e-ivanov.ru/projects/strava-export-gpx/"><text>Strava gpx export</text></link><time>2022-06-05T10:30:10.098Z</time></metadata><trk><name>RR 22/16 - Someren | Fietsrit | Strava</name><trkseg><trkpt lon="5.742078" lat="51.145424"><ele>24</ele><time>2022-06-05T06:01:00.000Z</time></trkpt><trkpt lon="5.742088" lat="51.145442"><ele>24</ele><time>2022-06-05T06:01:01.000Z</time></trkpt><trkpt lon="5.74209" lat="51.145458"><ele>24</ele><time>2022-06-05T06:01:02.000Z</time></trkpt><trkpt lon="5.742093" lat="51.145466"><ele>24</ele><time>2022-06-05T06:01:03.000Z</time></trkpt><trkpt lon="5.742095" lat="51.145477"><ele>24</ele><time>2022-06-05T06:01:04.000Z</time></trkpt><trkpt lon="5.7421" lat="51.145495"><ele>24</ele><time>2022-06-05T06:01:05.000Z</time></trkpt><trkpt lon="5.742105" lat="51.145511"><ele>24</ele><time>2022-06-05T06:01:06.000Z</time></trkpt><trkpt lon="5.742108" lat="51.145537"><ele>24</ele><time>2022-06-05T06:01:07.000Z</time></trkpt><trkpt lon="5.742096" lat="51.145567"><ele>24</ele><time>2022-06-05T06:01:08.000Z</time></trkpt><trkpt lon="5.742066" lat="51.145595"><ele>24</ele><time>2022-06-05T06:01:09.000Z</time></trkpt><trkpt lon="5.742029" lat="51.14561"><ele>24</ele><time>2022-06-05T06:01:10.000Z</time></trkpt><trkpt lon="5.741985" lat="51.145629"><ele>24</ele><time>2022-06-05T06:01:11.000Z</time></trkpt><trkpt lon="5.741954" lat="51.145659"><ele>24</ele><time>2022-06-05T06:01:12.000Z</time></trkpt><trkpt lon="5.741923" lat="51.145689"><ele>24</ele><time>2022-06-05T06:01:13.000Z</time></trkpt><trkpt lon="5.741909" lat="51.145731"><ele>24</ele><time>2022-06-05T06:01:14.000Z</time></trkpt><trkpt lon="5.7419" lat="51.145781"><ele>24</ele><time>2022-06-05T06:01:15.000Z</time></trkpt><trkpt lon="5.741895" lat="51.145827"><ele>23.8</ele><time>2022-06-05T06:01:16.000Z</time></trkpt><trkpt lon="5.741892" lat="51.14588"><ele>23.8</ele><time>2022-06-05T06:01:17.000Z</time></trkpt><trkpt lon="5.741893" lat="51.145926"><ele>23.8</ele><time>2022-06-05T06:01:18.000Z</time></trkpt><trkpt lon="5.741893" lat="51.145976"><ele>23.8</ele><time>2022-06-05T06:01:19.000Z</time></trkpt><trkpt lon="5.741895" lat="51.146025"><ele>24</ele><time>2022-06-05T06:01:20.000Z</time></trkpt><trkpt lon="5.741897" lat="51.14607"><ele>23.8</ele><time>2022-06-05T06:01:21.000Z</time></trkpt><trkpt lon="5.7419" lat="51.14612"><ele>23.8</ele><time>2022-06-05T06:01:22.000Z</time></trkpt><trkpt lon="5.741903" lat="51.146173"><ele>24</ele><time>2022-06-05T06:01:23.000Z</time></trkpt><trkpt lon="5.741905" lat="51.146226"><ele>24</ele><time>2022-06-05T06:01:24.000Z</time></trkpt><trkpt lon="5.741905" lat="51.146277"><ele>24</ele><time>2022-06-05T06:01:25.000Z</time></trkpt><trkpt lon="5.741905" lat="51.14633"><ele>24</ele><time>2022-06-05T06:01:26.000Z</time></trkpt><trkpt lon="5.741903" lat="51.146382"><ele>24</ele><time>2022-06-05T06:01:27.000Z</time></trkpt><trkpt lon="5.741905" lat="51.146437"><ele>23.8</ele><time>2022-06-05T06:01:28.000Z</time></trkpt><trkpt lon="5.741908" lat="51.14649"><ele>23.8</ele><time>2022-06-05T06:01:29.000Z</time></trkpt><trkpt lon="5.741912" lat="51.146543"><ele>23.8</ele><time>2022-06-05T06:01:30.000Z</time></trkpt><trkpt lon="5.741915" lat="51.146597"><ele>23.8</ele><time>2022-06-05T06:01:31.000Z</time></trkpt><trkpt lon="5.741918" lat="51.146651"><ele>23.8</ele><time>2022-06-05T06:01:32.000Z</time></trkpt><trkpt lon="5.741919" lat="51.146708"><ele>23.6</ele><time>2022-06-05T06:01:33.000Z</time></trkpt><trkpt lon="5.74192" lat="51.146761"><ele>23.6</ele><time>2022-06-05T06:01:34.000Z</time></trkpt><trkpt lon="5.741922" lat="51.146818"><ele>23.6</ele><time>2022-06-05T06:01:35.000Z</time></trkpt><trkpt lon="5.741923" lat="51.146871"><ele>23.6</ele><time>2022-06-05T06:01:36.000Z</time></trkpt><trkpt lon="5.741925" lat="51.146928"><ele>23.6</ele><time>2022-06-05T06:01:37.000Z</time></trkpt><trkpt lon="5.741925" lat="51.146982"><ele>23.6</ele><time>2022-06-05T06:01:38.000Z</time></trkpt><trkpt lon="5.741927" lat="51.14704"><ele>23.6</ele><time>2022-06-05T06:01:39.000Z</time></trkpt><trkpt lon="5.741928" lat="51.147097"><ele>23.6</ele><time>2022-06-05T06:01:40.000Z</time></trkpt><trkpt lon="5.741928" lat="51.147157"><ele>23.6</ele><time>2022-06-05T06:01:41.000Z</time></trkpt><trkpt lon="5.741928" lat="51.147215"><ele>23.8</ele><time>2022-06-05T06:01:42.000Z</time></trkpt><trkpt lon="5.74193" lat="51.147276"><ele>23.8</ele><time>2022-06-05T06:01:43.000Z</time></trkpt><trkpt lon="5.741931" lat="51.147333"><ele>23.8</ele><time>2022-06-05T06:01:44.000Z</time></trkpt><trkpt lon="5.741931" lat="51.14739"><ele>24</ele><time>2022-06-05T06:01:45.000Z</time></trkpt><trkpt lon="5.74193" lat="51.147452"><ele>24</ele><time>2022-06-05T06:01:46.000Z</time></trkpt><trkpt lon="5.741928" lat="51.147505"><ele>24</ele><time>2022-06-05T06:01:47.000Z</time></trkpt><trkpt lon="5.741928" lat="51.147566"><ele>23.8</ele><time>2022-06-05T06:01:48.000Z</time></trkpt><trkpt lon="5.741931" lat="51.147622"><ele>23.8</ele><time>2022-06-05T06:01:49.000Z</time></trkpt><trkpt lon="5.741931" lat="51.14768"><ele>23.8</ele><time>2022-06-05T06:01:50.000Z</time></trkpt><trkpt lon="5.741931" lat="51.147736"><ele>23.8</ele><time>2022-06-05T06:01:51.000Z</time></trkpt><trkpt lon="5.741931" lat="51.147796"><ele>24</ele><time>2022-06-05T06:01:52.000Z</time></trkpt><trkpt lon="5.741931" lat="51.147856"><ele>24</ele><time>2022-06-05T06:01:53.000Z</time></trkpt><trkpt lon="5.741931" lat="51.147917"><ele>23.8</ele><time>2022-06-05T06:01:54.000Z</time></trkpt><trkpt lon="5.741933" lat="51.147974"><ele>23.8</ele><time>2022-06-05T06:01:55.000Z</time></trkpt><trkpt lon="5.741933" lat="51.148032"><ele>24</ele><time>2022-06-05T06:01:56.000Z</time></trkpt><trkpt lon="5.741931" lat="51.148089"><ele>24</ele><time>2022-06-05T06:01:57.000Z</time></trkpt><trkpt lon="5.741931" lat="51.148146"><ele>24.2</ele><time>2022-06-05T06:01:58.000Z</time></trkpt><trkpt lon="5.741931" lat="51.1482"><ele>24.4</ele><time>2022-06-05T06:01:59.000Z</time></trkpt><trkpt lon="5.741933" lat="51.14826"><ele>24.4</ele><time>2022-06-05T06:02:00.000Z</time></trkpt><trkpt lon="5.741936" lat="51.148316"><ele>24.4</ele><time>2022-06-05T06:02:01.000Z</time></trkpt><trkpt lon="5.741938" lat="51.14837"><ele>24.4</ele><time>2022-06-05T06:02:02.000Z</time></trkpt><trkpt lon="5.741938" lat="51.148423"><ele>24.6</ele><time>2022-06-05T06:02:03.000Z</time></trkpt><trkpt lon="5.74194" lat="51.148477"><ele>24.6</ele><time>2022-06-05T06:02:04.000Z</time></trkpt><trkpt lon="5.74194" lat="51.148527"><ele>24.6</ele><time>2022-06-05T06:02:05.000Z</time></trkpt><trkpt lon="5.741951" lat="51.148572"><ele>24.8</ele><time>2022-06-05T06:02:06.000Z</time></trkpt><trkpt lon="5.741982" lat="51.148615"><ele>24.6</ele><time>2022-06-05T06:02:07.000Z</time></trkpt><trkpt lon="5.742037" lat="51.14865"><ele>24.6</ele><time>2022-06-05T06:02:08.000Z</time></trkpt><trkpt lon="5.742103" lat="51.148681"><ele>24.8</ele><time>2022-06-05T06:02:09.000Z</time></trkpt><trkpt lon="5.742171" lat="51.148719"><ele>24.8</ele><time>2022-06-05T06:02:10.000Z</time></trkpt><trkpt lon="5.742235" lat="51.148757"><ele>24.8</ele><time>2022-06-05T06:02:11.000Z</time></trkpt><trkpt lon="5.742292" lat="51.148802"><ele>25</ele><time>2022-06-05T06:02:12.000Z</time></trkpt><trkpt lon="5.742346" lat="51.148852"><ele>25</ele><time>2022-06-05T06:02:13.000Z</time></trkpt><trkpt lon="5.742397" lat="51.1489"><ele>25</ele><time>2022-06-05T06:02:14.000Z</time></trkpt><trkpt lon="5.742447" lat="51.148951"><ele>25</ele><time>2022-06-05T06:02:15.000Z</time></trkpt><trkpt lon="5.742498" lat="51.149"><ele>24.8</ele><time>2022-06-05T06:02:16.000Z</time></trkpt><trkpt lon="5.742554" lat="51.149051"><ele>24.8</ele><time>2022-06-05T06:02:17.000Z</time></trkpt><trkpt lon="5.742609" lat="51.1491"><ele>24.8</ele><time>2022-06-05T06:02:18.000Z</time></trkpt><trkpt lon="5.742666" lat="51.149153"><ele>24.8</ele><time>2022-06-05T06:02:19.000Z</time></trkpt><trkpt lon="5.742726" lat="51.149202"><ele>24.8</ele><time>2022-06-05T06:02:20.000Z</time></trkpt><trkpt lon="5.742789" lat="51.149252"><ele>24.6</ele><time>2022-06-05T06:02:21.000Z</time></trkpt><trkpt lon="5.742851" lat="51.149301"><ele>24.6</ele><time>2022-06-05T06:02:22.000Z</time></trkpt><trkpt lon="5.742915" lat="51.149356"><ele>24.6</ele><time>2022-06-05T06:02:23.000Z</time></trkpt><trkpt lon="5.742978" lat="51.149404"><ele>24.6</ele><time>2022-06-05T06:02:24.000Z</time></trkpt><trkpt lon="5.743043" lat="51.149452"><ele>24.6</ele><time>2022-06-05T06:02:25.000Z</time></trkpt><trkpt lon="5.743116" lat="51.149504"><ele>24.4</ele><time>2022-06-05T06:02:26.000Z</time></trkpt><trkpt lon="5.743187" lat="51.149549"><ele>24.2</ele><time>2022-06-05T06:02:27.000Z</time></trkpt><trkpt lon="5.743261" lat="51.149596"><ele>24.2</ele><time>2022-06-05T06:02:28.000Z</time></trkpt><trkpt lon="5.743332" lat="51.149645"><ele>24</ele><time>2022-06-05T06:02:29.000Z</time></trkpt><trkpt lon="5.743406" lat="51.149691"><ele>24</ele><time>2022-06-05T06:02:30.000Z</time></trkpt><trkpt lon="5.743478" lat="51.149737"><ele>24</ele><time>2022-06-05T06:02:31.000Z</time></trkpt><trkpt lon="5.743551" lat="51.149783"><ele>24</ele><time>2022-06-05T06:02:32.000Z</time></trkpt><trkpt lon="5.743623" lat="51.149829"><ele>24</ele><time>2022-06-05T06:02:33.000Z</time></trkpt><trkpt lon="5.743693" lat="51.149872"><ele>24</ele><time>2022-06-05T06:02:34.000Z</time></trkpt><trkpt lon="5.743771" lat="51.14992"><ele>24</ele><time>2022-06-05T06:02:35.000Z</time></trkpt><trkpt lon="5.743839" lat="51.149961"><ele>23.8</ele><time>2022-06-05T06:02:36.000Z</time></trkpt><trkpt lon="5.743911" lat="51.150011"><ele>23.8</ele><time>2022-06-05T06:02:37.000Z</time></trkpt><trkpt lon="5.743978" lat="51.150053"><ele>24</ele><time>2022-06-05T06:02:38.000Z</time></trkpt><trkpt lon="5.744044" lat="51.150099"><ele>24</ele><time>2022-06-05T06:02:39.000Z</time></trkpt><trkpt lon="5.744111" lat="51.150141"><ele>24.2</ele><time>2022-06-05T06:02:40.000Z</time></trkpt><trkpt lon="5.744176" lat="51.150187"><ele>24.2</ele><time>2022-06-05T06:02:41.000Z</time></trkpt><trkpt lon="5.744243" lat="51.150225"><ele>24.2</ele><time>2022-06-05T06:02:42.000Z</time></trkpt><trkpt lon="5.744311" lat="51.150271"><ele>24.2</ele><time>2022-06-05T06:02:43.000Z</time></trkpt><trkpt lon="5.744381" lat="51.150313"><ele>24.4</ele><time>2022-06-05T06:02:44.000Z</time></trkpt><trkpt lon="5.744451" lat="51.150359"><ele>24.4</ele><time>2022-06-05T06:02:45.000Z</time></trkpt><trkpt lon="5.744521" lat="51.150401"><ele>24.2</ele><time>2022-06-05T06:02:46.000Z</time></trkpt><trkpt lon="5.744588" lat="51.150444"><ele>24.2</ele><time>2022-06-05T06:02:47.000Z</time></trkpt><trkpt lon="5.744661" lat="51.150492"><ele>24.2</ele><time>2022-06-05T06:02:48.000Z</time></trkpt><trkpt lon="5.744731" lat="51.150535"><ele>24.2</ele><time>2022-06-05T06:02:49.000Z</time></trkpt><trkpt lon="5.744801" lat="51.150584"><ele>24.2</ele><time>2022-06-05T06:02:50.000Z</time></trkpt><trkpt lon="5.744871" lat="51.150626"><ele>24.2</ele><time>2022-06-05T06:02:51.000Z</time></trkpt><trkpt lon="5.744937" lat="51.150671"><ele>24.4</ele><time>2022-06-05T06:02:52.000Z</time></trkpt><trkpt lon="5.745015" lat="51.150721"><ele>24.4</ele><time>2022-06-05T06:02:53.000Z</time></trkpt><trkpt lon="5.745088" lat="51.150767"><ele>24.4</ele><time>2022-06-05T06:02:54.000Z</time></trkpt><trkpt lon="5.745162" lat="51.150812"><ele>24.2</ele><time>2022-06-05T06:02:55.000Z</time></trkpt><trkpt lon="5.745236" lat="51.150858"><ele>24.2</ele><time>2022-06-05T06:02:56.000Z</time></trkpt><trkpt lon="5.745297" lat="51.1509"><ele>24.2</ele><time>2022-06-05T06:02:57.000Z</time></trkpt><trkpt lon="5.745378" lat="51.150953"><ele>24.2</ele><time>2022-06-05T06:02:58.000Z</time></trkpt><trkpt lon="5.74545" lat="51.150999"><ele>24.2</ele><time>2022-06-05T06:02:59.000Z</time></trkpt><trkpt lon="5.745526" lat="51.151042"><ele>24.2</ele><time>2022-06-05T06:03:00.000Z</time></trkpt><trkpt lon="5.745602" lat="51.151083"><ele>24.2</ele><time>2022-06-05T06:03:01.000Z</time></trkpt><trkpt lon="5.745681" lat="51.151126"><ele>24</ele><time>2022-06-05T06:03:02.000Z</time></trkpt><trkpt lon="5.74576" lat="51.151168"><ele>24</ele><time>2022-06-05T06:03:03.000Z</time></trkpt><trkpt lon="5.745836" lat="51.15121"><ele>24</ele><time>2022-06-05T06:03:04.000Z</time></trkpt><trkpt lon="5.745912" lat="51.151248"><ele>24</ele><time>2022-06-05T06:03:05.000Z</time></trkpt><trkpt lon="5.745991" lat="51.15129"><ele>24</ele><time>2022-06-05T06:03:06.000Z</time></trkpt><trkpt lon="5.746069" lat="51.151328"><ele>24</ele><time>2022-06-05T06:03:07.000Z</time></trkpt><trkpt lon="5.746145" lat="51.151366"><ele>24.2</ele><time>2022-06-05T06:03:08.000Z</time></trkpt><trkpt lon="5.746224" lat="51.151404"><ele>24.2</ele><time>2022-06-05T06:03:09.000Z</time></trkpt><trkpt lon="5.746303" lat="51.151442"><ele>24.2</ele><time>2022-06-05T06:03:10.000Z</time></trkpt><trkpt lon="5.74638" lat="51.151484"><ele>24.2</ele><time>2022-06-05T06:03:11.000Z</time></trkpt><trkpt lon="5.746454" lat="51.151526"><ele>24.2</ele><time>2022-06-05T06:03:12.000Z</time></trkpt><trkpt lon="5.746533" lat="51.151565"><ele>24.4</ele><time>2022-06-05T06:03:13.000Z</time></trkpt><trkpt lon="5.746611" lat="51.151603"><ele>24.4</ele><time>2022-06-05T06:03:14.000Z</time></trkpt><trkpt lon="5.746689" lat="51.15164"><ele>24.6</ele><time>2022-06-05T06:03:15.000Z</time></trkpt><trkpt lon="5.746769" lat="51.151682"><ele>24.6</ele><time>2022-06-05T06:03:16.000Z</time></trkpt><trkpt lon="5.746849" lat="51.151721"><ele>24.6</ele><time>2022-06-05T06:03:17.000Z</time></trkpt><trkpt lon="5.746926" lat="51.151759"><ele>24.4</ele><time>2022-06-05T06:03:18.000Z</time></trkpt><trkpt lon="5.747004" lat="51.151797"><ele>24.6</ele><time>2022-06-05T06:03:19.000Z</time></trkpt><trkpt lon="5.74708" lat="51.151839"><ele>24.6</ele><time>2022-06-05T06:03:20.000Z</time></trkpt><trkpt lon="5.747158" lat="51.151877"><ele>24.8</ele><time>2022-06-05T06:03:21.000Z</time></trkpt><trkpt lon="5.747238" lat="51.151915"><ele>24.6</ele><time>2022-06-05T06:03:22.000Z</time></trkpt><trkpt lon="5.747317" lat="51.151953"><ele>24.6</ele><time>2022-06-05T06:03:23.000Z</time></trkpt><trkpt lon="5.747401" lat="51.151992"><ele>24.6</ele><time>2022-06-05T06:03:24.000Z</time></trkpt><trkpt lon="5.747484" lat="51.15203"><ele>24.6</ele><time>2022-06-05T06:03:25.000Z</time></trkpt><trkpt lon="5.747566" lat="51.152067"><ele>24.6</ele><time>2022-06-05T06:03:26.000Z</time></trkpt><trkpt lon="5.747653" lat="51.152102"><ele>24.4</ele><time>2022-06-05T06:03:27.000Z</time></trkpt><trkpt lon="5.747741" lat="51.152137"><ele>24.4</ele><time>2022-06-05T06:03:28.000Z</time></trkpt><trkpt lon="5.747825" lat="51.152171"><ele>24.4</ele><time>2022-06-05T06:03:29.000Z</time></trkpt><trkpt lon="5.747912" lat="51.152205"><ele>24.4</ele><time>2022-06-05T06:03:30.000Z</time></trkpt><trkpt lon="5.748" lat="51.152236"><ele>24.4</ele><time>2022-06-05T06:03:31.000Z</time></trkpt><trkpt lon="5.748089" lat="51.15227"><ele>24.4</ele><time>2022-06-05T06:03:32.000Z</time></trkpt><trkpt lon="5.748177" lat="51.152301"><ele>24.4</ele><time>2022-06-05T06:03:33.000Z</time></trkpt><trkpt lon="5.748267" lat="51.152331"><ele>24.4</ele><time>2022-06-05T06:03:34.000Z</time></trkpt><trkpt lon="5.748359" lat="51.152366"><ele>24.4</ele><time>2022-06-05T06:03:35.000Z</time></trkpt><trkpt lon="5.748451" lat="51.152393"><ele>24.4</ele><time>2022-06-05T06:03:36.000Z</time></trkpt><trkpt lon="5.748545" lat="51.152419"><ele>24.4</ele><time>2022-06-05T06:03:37.000Z</time></trkpt><trkpt lon="5.74864" lat="51.152446"><ele>24.4</ele><time>2022-06-05T06:03:38.000Z</time></trkpt><trkpt lon="5.748735" lat="51.152476"><ele>24.4</ele><time>2022-06-05T06:03:39.000Z</time></trkpt><trkpt lon="5.748828" lat="51.15251"><ele>24.4</ele><time>2022-06-05T06:03:40.000Z</time></trkpt><trkpt lon="5.748924" lat="51.152541"><ele>24.2</ele><time>2022-06-05T06:03:41.000Z</time></trkpt><trkpt lon="5.749017" lat="51.152575"><ele>24</ele><time>2022-06-05T06:03:42.000Z</time></trkpt><trkpt lon="5.749109" lat="51.152606"><ele>23.8</ele><time>2022-06-05T06:03:43.000Z</time></trkpt><trkpt lon="5.7492" lat="51.152644"><ele>23.8</ele><time>2022-06-05T06:03:44.000Z</time></trkpt><trkpt lon="5.749289" lat="51.152682"><ele>23.8</ele><time>2022-06-05T06:03:45.000Z</time></trkpt><trkpt lon="5.749377" lat="51.152723"><ele>23.6</ele><time>2022-06-05T06:03:46.000Z</time></trkpt><trkpt lon="5.749467" lat="51.152762"><ele>23.6</ele><time>2022-06-05T06:03:47.000Z</time></trkpt><trkpt lon="5.749561" lat="51.152796"><ele>23.4</ele><time>2022-06-05T06:03:48.000Z</time></trkpt><trkpt lon="5.749663" lat="51.152816"><ele>23</ele><time>2022-06-05T06:03:49.000Z</time></trkpt><trkpt lon="5.749771" lat="51.152824"><ele>23</ele><time>2022-06-05T06:03:50.000Z</time></trkpt><trkpt lon="5.749878" lat="51.152817"><ele>22.8</ele><time>2022-06-05T06:03:51.000Z</time></trkpt><trkpt lon="5.74998" lat="51.152806"><ele>22.8</ele><time>2022-06-05T06:03:52.000Z</time></trkpt><trkpt lon="5.750081" lat="51.152791"><ele>22.8</ele><time>2022-06-05T06:03:53.000Z</time></trkpt><trkpt lon="5.750169" lat="51.152779"><ele>22.8</ele><time>2022-06-05T06:03:54.000Z</time></trkpt><trkpt lon="5.750257" lat="51.152764"><ele>22.8</ele><time>2022-06-05T06:03:55.000Z</time></trkpt><trkpt lon="5.750336" lat="51.152749"><ele>22.8</ele><time>2022-06-05T06:03:56.000Z</time></trkpt><trkpt lon="5.750421" lat="51.15273"><ele>22.8</ele><time>2022-06-05T06:03:57.000Z</time></trkpt><trkpt lon="5.75051" lat="51.152703"><ele>22.8</ele><time>2022-06-05T06:03:58.000Z</time></trkpt><trkpt lon="5.750609" lat="51.152676"><ele>22.8</ele><time>2022-06-05T06:03:59.000Z</time></trkpt><trkpt lon="5.750707" lat="51.152646"><ele>22.8</ele><time>2022-06-05T06:04:00.000Z</time></trkpt><trkpt lon="5.750805" lat="51.152612"><ele>22.8</ele><time>2022-06-05T06:04:01.000Z</time></trkpt><trkpt lon="5.750906" lat="51.152577"><ele>22.8</ele><time>2022-06-05T06:04:02.000Z</time></trkpt><trkpt lon="5.751005" lat="51.152547"><ele>22.8</ele><time>2022-06-05T06:04:03.000Z</time></trkpt><trkpt lon="5.751104" lat="51.152516"><ele>22.8</ele><time>2022-06-05T06:04:04.000Z</time></trkpt><trkpt lon="5.751201" lat="51.152486"><ele>22.8</ele><time>2022-06-05T06:04:05.000Z</time></trkpt><trkpt lon="5.751299" lat="51.152455"><ele>22.8</ele><time>2022-06-05T06:04:06.000Z</time></trkpt><trkpt lon="5.751393" lat="51.152425"><ele>22.8</ele><time>2022-06-05T06:04:07.000Z</time></trkpt><trkpt lon="5.751488" lat="51.152394"><ele>22.6</ele><time>2022-06-05T06:04:08.000Z</time></trkpt><trkpt lon="5.751585" lat="51.152368"><ele>22.6</ele><time>2022-06-05T06:04:09.000Z</time></trkpt><trkpt lon="5.751683" lat="51.152341"><ele>22.6</ele><time>2022-06-05T06:04:10.000Z</time></trkpt><trkpt lon="5.751783" lat="51.152314"><ele>22.6</ele><time>2022-06-05T06:04:11.000Z</time></trkpt><trkpt lon="5.751887" lat="51.152295"><ele>22.6</ele><time>2022-06-05T06:04:12.000Z</time></trkpt><trkpt lon="5.75199" lat="51.152276"><ele>22.4</ele><time>2022-06-05T06:04:13.000Z</time></trkpt><trkpt lon="5.752095" lat="51.15226"><ele>22.4</ele><time>2022-06-05T06:04:14.000Z</time></trkpt><trkpt lon="5.752201" lat="51.152249"><ele>22.4</ele><time>2022-06-05T06:04:15.000Z</time></trkpt><trkpt lon="5.752306" lat="51.152237"><ele>22.6</ele><time>2022-06-05T06:04:16.000Z</time></trkpt><trkpt lon="5.752412" lat="51.152233"><ele>22.6</ele><time>2022-06-05T06:04:17.000Z</time></trkpt><trkpt lon="5.75252" lat="51.152226"><ele>22.6</ele><time>2022-06-05T06:04:18.000Z</time></trkpt><trkpt lon="5.752628" lat="51.152222"><ele>22.6</ele><time>2022-06-05T06:04:19.000Z</time></trkpt><trkpt lon="5.752733" lat="51.152222"><ele>22.6</ele><time>2022-06-05T06:04:20.000Z</time></trkpt><trkpt lon="5.752834" lat="51.152225"><ele>22.8</ele><time>2022-06-05T06:04:21.000Z</time></trkpt><trkpt lon="5.752935" lat="51.152237"><ele>22.8</ele><time>2022-06-05T06:04:22.000Z</time></trkpt><trkpt lon="5.753034" lat="51.152255"><ele>22.8</ele><time>2022-06-05T06:04:23.000Z</time></trkpt><trkpt lon="5.753128" lat="51.152278"><ele>22.6</ele><time>2022-06-05T06:04:24.000Z</time></trkpt><trkpt lon="5.753216" lat="51.152304"><ele>22.8</ele><time>2022-06-05T06:04:25.000Z</time></trkpt><trkpt lon="5.753305" lat="51.152339"><ele>22.8</ele><time>2022-06-05T06:04:26.000Z</time></trkpt><trkpt lon="5.753393" lat="51.152374"><ele>22.8</ele><time>2022-06-05T06:04:27.000Z</time></trkpt><trkpt lon="5.753475" lat="51.152407"><ele>22.8</ele><time>2022-06-05T06:04:28.000Z</time></trkpt><trkpt lon="5.753561" lat="51.152445"><ele>22.8</ele><time>2022-06-05T06:04:29.000Z</time></trkpt><trkpt lon="5.753648" lat="51.15248"><ele>22.8</ele><time>2022-06-05T06:04:30.000Z</time></trkpt><trkpt lon="5.753734" lat="51.152514"><ele>22.8</ele><time>2022-06-05T06:04:31.000Z</time></trkpt><trkpt lon="5.753821" lat="51.152545"><ele>22.8</ele><time>2022-06-05T06:04:32.000Z</time></trkpt><trkpt lon="5.753914" lat="51.152575"><ele>22.8</ele><time>2022-06-05T06:04:33.000Z</time></trkpt><trkpt lon="5.754007" lat="51.152599"><ele>22.8</ele><time>2022-06-05T06:04:34.000Z</time></trkpt><trkpt lon="5.754098" lat="51.152617"><ele>22.6</ele><time>2022-06-05T06:04:35.000Z</time></trkpt><trkpt lon="5.754199" lat="51.152633"><ele>22.6</ele><time>2022-06-05T06:04:36.000Z</time></trkpt><trkpt lon="5.754297" lat="51.152641"><ele>22.6</ele><time>2022-06-05T06:04:37.000Z</time></trkpt><trkpt lon="5.754396" lat="51.152645"><ele>22.8</ele><time>2022-06-05T06:04:38.000Z</time></trkpt><trkpt lon="5.754495" lat="51.152649"><ele>22.8</ele><time>2022-06-05T06:04:39.000Z</time></trkpt><trkpt lon="5.754593" lat="51.152653"><ele>23</ele><time>2022-06-05T06:04:40.000Z</time></trkpt><trkpt lon="5.754693" lat="51.152653"><ele>23</ele><time>2022-06-05T06:04:41.000Z</time></trkpt><trkpt lon="5.754793" lat="51.152653"><ele>23.2</ele><time>2022-06-05T06:04:42.000Z</time></trkpt><trkpt lon="5.754894" lat="51.152653"><ele>23.2</ele><time>2022-06-05T06:04:43.000Z</time></trkpt><trkpt lon="5.754992" lat="51.152649"><ele>23.2</ele><time>2022-06-05T06:04:44.000Z</time></trkpt><trkpt lon="5.755088" lat="51.152649"><ele>23.2</ele><time>2022-06-05T06:04:45.000Z</time></trkpt><trkpt lon="5.755177" lat="51.152656"><ele>23.4</ele><time>2022-06-05T06:04:46.000Z</time></trkpt><trkpt lon="5.755251" lat="51.152683"><ele>23.2</ele><time>2022-06-05T06:04:47.000Z</time></trkpt><trkpt lon="5.755303" lat="51.152731"><ele>23</ele><time>2022-06-05T06:04:48.000Z</time></trkpt><trkpt lon="5.755327" lat="51.152788"><ele>22.8</ele><time>2022-06-05T06:04:49.000Z</time></trkpt><trkpt lon="5.75534" lat="51.152853"><ele>22.6</ele><time>2022-06-05T06:04:50.000Z</time></trkpt><trkpt lon="5.755351" lat="51.152914"><ele>22.6</ele><time>2022-06-05T06:04:51.000Z</time></trkpt><trkpt lon="5.755364" lat="51.152974"><ele>22.6</ele><time>2022-06-05T06:04:52.000Z</time></trkpt><trkpt lon="5.755376" lat="51.153044"><ele>22.4</ele><time>2022-06-05T06:04:53.000Z</time></trkpt><trkpt lon="5.75539" lat="51.153108"><ele>22.4</ele><time>2022-06-05T06:04:54.000Z</time></trkpt><trkpt lon="5.755404" lat="51.153173"><ele>22.4</ele><time>2022-06-05T06:04:55.000Z</time></trkpt><trkpt lon="5.75543" lat="51.15323"><ele>22.4</ele><time>2022-06-05T06:04:56.000Z</time></trkpt><trkpt lon="5.755472" lat="51.153285"><ele>22.4</ele><time>2022-06-05T06:04:57.000Z</time></trkpt><trkpt lon="5.755533" lat="51.153331"><ele>22.6</ele><time>2022-06-05T06:04:58.000Z</time></trkpt><trkpt lon="5.755605" lat="51.153358"><ele>22.8</ele><time>2022-06-05T06:04:59.000Z</time></trkpt><trkpt lon="5.755679" lat="51.153377"><ele>22.8</ele><time>2022-06-05T06:05:00.000Z</time></trkpt><trkpt lon="5.755761" lat="51.1534"><ele>23</ele><time>2022-06-05T06:05:01.000Z</time></trkpt><trkpt lon="5.755849" lat="51.153419"><ele>23</ele><time>2022-06-05T06:05:02.000Z</time></trkpt><trkpt lon="5.755945" lat="51.153434"><ele>23</ele><time>2022-06-05T06:05:03.000Z</time></trkpt><trkpt lon="5.756047" lat="51.153446"><ele>23</ele><time>2022-06-05T06:05:04.000Z</time></trkpt><trkpt lon="5.756149" lat="51.153461"><ele>23</ele><time>2022-06-05T06:05:05.000Z</time></trkpt><trkpt lon="5.756253" lat="51.153476"><ele>22.8</ele><time>2022-06-05T06:05:06.000Z</time></trkpt><trkpt lon="5.756353" lat="51.153487"><ele>22.8</ele><time>2022-06-05T06:05:07.000Z</time></trkpt><trkpt lon="5.75646" lat="51.153507"><ele>22.8</ele><time>2022-06-05T06:05:08.000Z</time></trkpt><trkpt lon="5.75656" lat="51.153529"><ele>22.8</ele><time>2022-06-05T06:05:09.000Z</time></trkpt><trkpt lon="5.75665" lat="51.153556"><ele>22.8</ele><time>2022-06-05T06:05:10.000Z</time></trkpt><trkpt lon="5.756734" lat="51.15359"><ele>22.8</ele><time>2022-06-05T06:05:11.000Z</time></trkpt><trkpt lon="5.756811" lat="51.153628"><ele>23</ele><time>2022-06-05T06:05:12.000Z</time></trkpt><trkpt lon="5.75688" lat="51.153673"><ele>22.8</ele><time>2022-06-05T06:05:13.000Z</time></trkpt><trkpt lon="5.756949" lat="51.153726"><ele>22.8</ele><time>2022-06-05T06:05:14.000Z</time></trkpt><trkpt lon="5.757019" lat="51.15378"><ele>22.8</ele><time>2022-06-05T06:05:15.000Z</time></trkpt><trkpt lon="5.757086" lat="51.153833"><ele>22.8</ele><time>2022-06-05T06:05:16.000Z</time></trkpt><trkpt lon="5.757155" lat="51.153882"><ele>22.8</ele><time>2022-06-05T06:05:17.000Z</time></trkpt><trkpt lon="5.757224" lat="51.153936"><ele>22.8</ele><time>2022-06-05T06:05:18.000Z</time></trkpt><trkpt lon="5.757288" lat="51.15399"><ele>22.8</ele><time>2022-06-05T06:05:19.000Z</time></trkpt><trkpt lon="5.75735" lat="51.154044"><ele>22.8</ele><time>2022-06-05T06:05:20.000Z</time></trkpt><trkpt lon="5.75741" lat="51.1541"><ele>22.6</ele><time>2022-06-05T06:05:21.000Z</time></trkpt><trkpt lon="5.75746" lat="51.154154"><ele>22.6</ele><time>2022-06-05T06:05:22.000Z</time></trkpt><trkpt lon="5.757491" lat="51.154215"><ele>22.6</ele><time>2022-06-05T06:05:23.000Z</time></trkpt><trkpt lon="5.757501" lat="51.154278"><ele>22.6</ele><time>2022-06-05T06:05:24.000Z</time></trkpt><trkpt lon="5.757498" lat="51.154344"><ele>22.6</ele><time>2022-06-05T06:05:25.000Z</time></trkpt><trkpt lon="5.757481" lat="51.154409"><ele>22.4</ele><time>2022-06-05T06:05:26.000Z</time></trkpt><trkpt lon="5.757459" lat="51.154475"><ele>22.4</ele><time>2022-06-05T06:05:27.000Z</time></trkpt><trkpt lon="5.757439" lat="51.154539"><ele>22.4</ele><time>2022-06-05T06:05:28.000Z</time></trkpt><trkpt lon="5.757416" lat="51.154604"><ele>22.2</ele><time>2022-06-05T06:05:29.000Z</time></trkpt><trkpt lon="5.757394" lat="51.154669"><ele>22</ele><time>2022-06-05T06:05:30.000Z</time></trkpt><trkpt lon="5.757371" lat="51.154737"><ele>22</ele><time>2022-06-05T06:05:31.000Z</time></trkpt><trkpt lon="5.757347" lat="51.154799"><ele>22</ele><time>2022-06-05T06:05:32.000Z</time></trkpt><trkpt lon="5.757322" lat="51.154864"><ele>22</ele><time>2022-06-05T06:05:33.000Z</time></trkpt><trkpt lon="5.757301" lat="51.154931"><ele>22</ele><time>2022-06-05T06:05:34.000Z</time></trkpt><trkpt lon="5.757279" lat="51.154997"><ele>22</ele><time>2022-06-05T06:05:35.000Z</time></trkpt><trkpt lon="5.757256" lat="51.15506"><ele>22</ele><time>2022-06-05T06:05:36.000Z</time></trkpt><trkpt lon="5.757232" lat="51.155126"><ele>22</ele><time>2022-06-05T06:05:37.000Z</time></trkpt><trkpt lon="5.75721" lat="51.155191"><ele>21.8</ele><time>2022-06-05T06:05:38.000Z</time></trkpt><trkpt lon="5.757191" lat="51.155253"><ele>22</ele><time>2022-06-05T06:05:39.000Z</time></trkpt><trkpt lon="5.757169" lat="51.155317"><ele>21.8</ele><time>2022-06-05T06:05:40.000Z</time></trkpt><trkpt lon="5.757146" lat="51.155378"><ele>21.8</ele><time>2022-06-05T06:05:41.000Z</time></trkpt><trkpt lon="5.757124" lat="51.155443"><ele>22</ele><time>2022-06-05T06:05:42.000Z</time></trkpt><trkpt lon="5.757102" lat="51.155508"><ele>22</ele><time>2022-06-05T06:05:43.000Z</time></trkpt><trkpt lon="5.757081" lat="51.155573"><ele>22</ele><time>2022-06-05T06:05:44.000Z</time></trkpt><trkpt lon="5.757056" lat="51.155634"><ele>22.2</ele><time>2022-06-05T06:05:45.000Z</time></trkpt><trkpt lon="5.757032" lat="51.155699"><ele>22.2</ele><time>2022-06-05T06:05:46.000Z</time></trkpt><trkpt lon="5.757011" lat="51.15576"><ele>22.2</ele><time>2022-06-05T06:05:47.000Z</time></trkpt><trkpt lon="5.756987" lat="51.155828"><ele>22.2</ele><time>2022-06-05T06:05:48.000Z</time></trkpt><trkpt lon="5.756964" lat="51.155893"><ele>22.2</ele><time>2022-06-05T06:05:49.000Z</time></trkpt><trkpt lon="5.756943" lat="51.155961"><ele>22.2</ele><time>2022-06-05T06:05:50.000Z</time></trkpt><trkpt lon="5.756919" lat="51.156027"><ele>22.2</ele><time>2022-06-05T06:05:51.000Z</time></trkpt><trkpt lon="5.756897" lat="51.156092"><ele>22.2</ele><time>2022-06-05T06:05:52.000Z</time></trkpt><trkpt lon="5.756876" lat="51.156157"><ele>22.2</ele><time>2022-06-05T06:05:53.000Z</time></trkpt><trkpt lon="5.756851" lat="51.156221"><ele>22.2</ele><time>2022-06-05T06:05:54.000Z</time></trkpt><trkpt lon="5.756826" lat="51.156286"><ele>22.2</ele><time>2022-06-05T06:05:55.000Z</time></trkpt><trkpt lon="5.756801" lat="51.15635"><ele>22.2</ele><time>2022-06-05T06:05:56.000Z</time></trkpt><trkpt lon="5.756778" lat="51.156411"><ele>22.2</ele><time>2022-06-05T06:05:57.000Z</time></trkpt><trkpt lon="5.756756" lat="51.156477"><ele>22.2</ele><time>2022-06-05T06:05:58.000Z</time></trkpt><trkpt lon="5.756732" lat="51.156542"><ele>22.2</ele><time>2022-06-05T06:05:59.000Z</time></trkpt><trkpt lon="5.756707" lat="51.156607"><ele>22.2</ele><time>2022-06-05T06:06:00.000Z</time></trkpt><trkpt lon="5.756684" lat="51.156672"><ele>22.2</ele><time>2022-06-05T06:06:01.000Z</time></trkpt><trkpt lon="5.756659" lat="51.156736"><ele>22.2</ele><time>2022-06-05T06:06:02.000Z</time></trkpt><trkpt lon="5.756636" lat="51.156797"><ele>22.2</ele><time>2022-06-05T06:06:03.000Z</time></trkpt><trkpt lon="5.756614" lat="51.156862"><ele>22.2</ele><time>2022-06-05T06:06:04.000Z</time></trkpt><trkpt lon="5.756591" lat="51.156927"><ele>22.2</ele><time>2022-06-05T06:06:05.000Z</time></trkpt><trkpt lon="5.756567" lat="51.156988"><ele>22.2</ele><time>2022-06-05T06:06:06.000Z</time></trkpt><trkpt lon="5.756544" lat="51.157052"><ele>22.4</ele><time>2022-06-05T06:06:07.000Z</time></trkpt><trkpt lon="5.756522" lat="51.157114"><ele>22.4</ele><time>2022-06-05T06:06:08.000Z</time></trkpt><trkpt lon="5.756501" lat="51.157175"><ele>22.6</ele><time>2022-06-05T06:06:09.000Z</time></trkpt><trkpt lon="5.756478" lat="51.157239"><ele>22.6</ele><time>2022-06-05T06:06:10.000Z</time></trkpt><trkpt lon="5.756454" lat="51.157301"><ele>22.8</ele><time>2022-06-05T06:06:11.000Z</time></trkpt><trkpt lon="5.756429" lat="51.157362"><ele>22.8</ele><time>2022-06-05T06:06:12.000Z</time></trkpt><trkpt lon="5.756408" lat="51.157423"><ele>22.8</ele><time>2022-06-05T06:06:13.000Z</time></trkpt><trkpt lon="5.756385" lat="51.157488"><ele>22.8</ele><time>2022-06-05T06:06:14.000Z</time></trkpt><trkpt lon="5.756364" lat="51.157552"><ele>22.8</ele><time>2022-06-05T06:06:15.000Z</time></trkpt><trkpt lon="5.756341" lat="51.157613"><ele>22.8</ele><time>2022-06-05T06:06:16.000Z</time></trkpt><trkpt lon="5.756319" lat="51.157678"><ele>23</ele><time>2022-06-05T06:06:17.000Z</time></trkpt><trkpt lon="5.756294" lat="51.157739"><ele>23</ele><time>2022-06-05T06:06:18.000Z</time></trkpt><trkpt lon="5.75627" lat="51.157804"><ele>23.2</ele><time>2022-06-05T06:06:19.000Z</time></trkpt><trkpt lon="5.756246" lat="51.157869"><ele>23.2</ele><time>2022-06-05T06:06:20.000Z</time></trkpt><trkpt lon="5.756222" lat="51.157934"><ele>23.2</ele><time>2022-06-05T06:06:21.000Z</time></trkpt><trkpt lon="5.756198" lat="51.157998"><ele>23.2</ele><time>2022-06-05T06:06:22.000Z</time></trkpt><trkpt lon="5.756174" lat="51.15806"><ele>23</ele><time>2022-06-05T06:06:23.000Z</time></trkpt><trkpt lon="5.756152" lat="51.158125"><ele>23</ele><time>2022-06-05T06:06:24.000Z</time></trkpt><trkpt lon="5.756129" lat="51.158189"><ele>23</ele><time>2022-06-05T06:06:25.000Z</time></trkpt><trkpt lon="5.756105" lat="51.158254"><ele>23</ele><time>2022-06-05T06:06:26.000Z</time></trkpt><trkpt lon="5.756081" lat="51.158319"><ele>23</ele><time>2022-06-05T06:06:27.000Z</time></trkpt><trkpt lon="5.756059" lat="51.15838"><ele>23</ele><time>2022-06-05T06:06:28.000Z</time></trkpt><trkpt lon="5.756036" lat="51.158441"><ele>23</ele><time>2022-06-05T06:06:29.000Z</time></trkpt><trkpt lon="5.756014" lat="51.158506"><ele>23</ele><time>2022-06-05T06:06:30.000Z</time></trkpt><trkpt lon="5.755992" lat="51.158571"><ele>23</ele><time>2022-06-05T06:06:31.000Z</time></trkpt><trkpt lon="5.755971" lat="51.158636"><ele>23</ele><time>2022-06-05T06:06:32.000Z</time></trkpt><trkpt lon="5.755951" lat="51.158697"><ele>23</ele><time>2022-06-05T06:06:33.000Z</time></trkpt><trkpt lon="5.755934" lat="51.158762"><ele>23</ele><time>2022-06-05T06:06:34.000Z</time></trkpt><trkpt lon="5.755924" lat="51.158827"><ele>23</ele><time>2022-06-05T06:06:35.000Z</time></trkpt><trkpt lon="5.755927" lat="51.158895"><ele>23</ele><time>2022-06-05T06:06:36.000Z</time></trkpt><trkpt lon="5.755941" lat="51.158962"><ele>22.8</ele><time>2022-06-05T06:06:37.000Z</time></trkpt><trkpt lon="5.755964" lat="51.159029"><ele>22.8</ele><time>2022-06-05T06:06:38.000Z</time></trkpt><trkpt lon="5.755992" lat="51.159094"><ele>22.8</ele><time>2022-06-05T06:06:39.000Z</time></trkpt><trkpt lon="5.756024" lat="51.159158"><ele>22.8</ele><time>2022-06-05T06:06:40.000Z</time></trkpt><trkpt lon="5.756056" lat="51.159224"><ele>22.8</ele><time>2022-06-05T06:06:41.000Z</time></trkpt><trkpt lon="5.756089" lat="51.159288"><ele>22.8</ele><time>2022-06-05T06:06:42.000Z</time></trkpt><trkpt lon="5.756122" lat="51.159353"><ele>23</ele><time>2022-06-05T06:06:43.000Z</time></trkpt><trkpt lon="5.756155" lat="51.159418"><ele>23</ele><time>2022-06-05T06:06:44.000Z</time></trkpt><trkpt lon="5.756185" lat="51.159482"><ele>23.2</ele><time>2022-06-05T06:06:45.000Z</time></trkpt><trkpt lon="5.756217" lat="51.159548"><ele>23.4</ele><time>2022-06-05T06:06:46.000Z</time></trkpt><trkpt lon="5.756249" lat="51.159613"><ele>23.4</ele><time>2022-06-05T06:06:47.000Z</time></trkpt><trkpt lon="5.756279" lat="51.159678"><ele>23.4</ele><time>2022-06-05T06:06:48.000Z</time></trkpt><trkpt lon="5.756309" lat="51.159742"><ele>23.4</ele><time>2022-06-05T06:06:49.000Z</time></trkpt><trkpt lon="5.75634" lat="51.159807"><ele>23.2</ele><time>2022-06-05T06:06:50.000Z</time></trkpt><trkpt lon="5.756372" lat="51.159876"><ele>23.2</ele><time>2022-06-05T06:06:51.000Z</time></trkpt><trkpt lon="5.756403" lat="51.159934"><ele>23.2</ele><time>2022-06-05T06:06:52.000Z</time></trkpt><trkpt lon="5.756436" lat="51.160005"><ele>23.4</ele><time>2022-06-05T06:06:53.000Z</time></trkpt><trkpt lon="5.756466" lat="51.160071"><ele>23.4</ele><time>2022-06-05T06:06:54.000Z</time></trkpt><trkpt lon="5.756497" lat="51.160135"><ele>23.6</ele><time>2022-06-05T06:06:55.000Z</time></trkpt><trkpt lon="5.756529" lat="51.160203"><ele>23.6</ele><time>2022-06-05T06:06:56.000Z</time></trkpt><trkpt lon="5.756561" lat="51.160268"><ele>23.6</ele><time>2022-06-05T06:06:57.000Z</time></trkpt><trkpt lon="5.756591" lat="51.160334"><ele>23.4</ele><time>2022-06-05T06:06:58.000Z</time></trkpt><trkpt lon="5.756619" lat="51.160398"><ele>23.4</ele><time>2022-06-05T06:06:59.000Z</time></trkpt><trkpt lon="5.756651" lat="51.160463"><ele>23.4</ele><time>2022-06-05T06:07:00.000Z</time></trkpt><trkpt lon="5.756682" lat="51.160523"><ele>23.4</ele><time>2022-06-05T06:07:01.000Z</time></trkpt><trkpt lon="5.756714" lat="51.160585"><ele>23.4</ele><time>2022-06-05T06:07:02.000Z</time></trkpt><trkpt lon="5.756747" lat="51.160646"><ele>23.6</ele><time>2022-06-05T06:07:03.000Z</time></trkpt><trkpt lon="5.756777" lat="51.160707"><ele>23.8</ele><time>2022-06-05T06:07:04.000Z</time></trkpt><trkpt lon="5.756806" lat="51.160765"><ele>23.8</ele><time>2022-06-05T06:07:05.000Z</time></trkpt><trkpt lon="5.756831" lat="51.160818"><ele>23.8</ele><time>2022-06-05T06:07:06.000Z</time></trkpt><trkpt lon="5.756854" lat="51.160867"><ele>23.6</ele><time>2022-06-05T06:07:07.000Z</time></trkpt><trkpt lon="5.756868" lat="51.16091"><ele>23.4</ele><time>2022-06-05T06:07:08.000Z</time></trkpt><trkpt lon="5.75686" lat="51.160945"><ele>23.2</ele><time>2022-06-05T06:07:09.000Z</time></trkpt><trkpt lon="5.756821" lat="51.160978"><ele>23.2</ele><time>2022-06-05T06:07:10.000Z</time></trkpt><trkpt lon="5.756748" lat="51.161002"><ele>23</ele><time>2022-06-05T06:07:11.000Z</time></trkpt><trkpt lon="5.756658" lat="51.161022"><ele>23</ele><time>2022-06-05T06:07:12.000Z</time></trkpt><trkpt lon="5.756561" lat="51.161045"><ele>23</ele><time>2022-06-05T06:07:13.000Z</time></trkpt><trkpt lon="5.756463" lat="51.161067"><ele>23</ele><time>2022-06-05T06:07:14.000Z</time></trkpt><trkpt lon="5.756362" lat="51.161086"><ele>23</ele><time>2022-06-05T06:07:15.000Z</time></trkpt><trkpt lon="5.756262" lat="51.161105"><ele>23</ele><time>2022-06-05T06:07:16.000Z</time></trkpt><trkpt lon="5.756162" lat="51.161124"><ele>22.8</ele><time>2022-06-05T06:07:17.000Z</time></trkpt><trkpt lon="5.756057" lat="51.161144"><ele>22.6</ele><time>2022-06-05T06:07:18.000Z</time></trkpt><trkpt lon="5.755949" lat="51.161159"><ele>22.4</ele><time>2022-06-05T06:07:19.000Z</time></trkpt><trkpt lon="5.755845" lat="51.161174"><ele>22.2</ele><time>2022-06-05T06:07:20.000Z</time></trkpt><trkpt lon="5.755738" lat="51.161182"><ele>22.2</ele><time>2022-06-05T06:07:21.000Z</time></trkpt><trkpt lon="5.75563" lat="51.16119"><ele>22.2</ele><time>2022-06-05T06:07:22.000Z</time></trkpt><trkpt lon="5.755522" lat="51.161194"><ele>22.2</ele><time>2022-06-05T06:07:23.000Z</time></trkpt><trkpt lon="5.755417" lat="51.16119"><ele>22</ele><time>2022-06-05T06:07:24.000Z</time></trkpt><trkpt lon="5.755314" lat="51.16119"><ele>22</ele><time>2022-06-05T06:07:25.000Z</time></trkpt><trkpt lon="5.755217" lat="51.161183"><ele>22</ele><time>2022-06-05T06:07:26.000Z</time></trkpt><trkpt lon="5.755147" lat="51.161177"><ele>22</ele><time>2022-06-05T06:07:27.000Z</time></trkpt><trkpt lon="5.755058" lat="51.161178"><ele>22.2</ele><time>2022-06-05T06:07:28.000Z</time></trkpt><trkpt lon="5.755002" lat="51.161189"><ele>22.2</ele><time>2022-06-05T06:07:29.000Z</time></trkpt><trkpt lon="5.754978" lat="51.161216"><ele>22.2</ele><time>2022-06-05T06:07:30.000Z</time></trkpt><trkpt lon="5.754986" lat="51.161239"><ele>22.2</ele><time>2022-06-05T06:07:31.000Z</time></trkpt><trkpt lon="5.755019" lat="51.161269"><ele>22.2</ele><time>2022-06-05T06:07:32.000Z</time></trkpt><trkpt lon="5.75507" lat="51.1613"><ele>22.2</ele><time>2022-06-05T06:07:33.000Z</time></trkpt><trkpt lon="5.755133" lat="51.16133"><ele>22.2</ele><time>2022-06-05T06:07:34.000Z</time></trkpt><trkpt lon="5.7552" lat="51.161372"><ele>22.2</ele><time>2022-06-05T06:07:35.000Z</time></trkpt><trkpt lon="5.755268" lat="51.161414"><ele>22</ele><time>2022-06-05T06:07:36.000Z</time></trkpt><trkpt lon="5.755335" lat="51.161452"><ele>22</ele><time>2022-06-05T06:07:37.000Z</time></trkpt><trkpt lon="5.755406" lat="51.161498"><ele>22</ele><time>2022-06-05T06:07:38.000Z</time></trkpt><trkpt lon="5.755477" lat="51.16154"><ele>22</ele><time>2022-06-05T06:07:39.000Z</time></trkpt><trkpt lon="5.755549" lat="51.161585"><ele>22</ele><time>2022-06-05T06:07:40.000Z</time></trkpt><trkpt lon="5.755624" lat="51.161631"><ele>22.2</ele><time>2022-06-05T06:07:41.000Z</time></trkpt><trkpt lon="5.755703" lat="51.161677"><ele>22.2</ele><time>2022-06-05T06:07:42.000Z</time></trkpt><trkpt lon="5.755779" lat="51.161719"><ele>22.2</ele><time>2022-06-05T06:07:43.000Z</time></trkpt><trkpt lon="5.755859" lat="51.161765"><ele>22.2</ele><time>2022-06-05T06:07:44.000Z</time></trkpt><trkpt lon="5.75594" lat="51.161806"><ele>22</ele><time>2022-06-05T06:07:45.000Z</time></trkpt><trkpt lon="5.756029" lat="51.161849"><ele>22</ele><time>2022-06-05T06:07:46.000Z</time></trkpt><trkpt lon="5.756116" lat="51.161882"><ele>21.8</ele><time>2022-06-05T06:07:47.000Z</time></trkpt><trkpt lon="5.756209" lat="51.161918"><ele>21.8</ele><time>2022-06-05T06:07:48.000Z</time></trkpt><trkpt lon="5.756302" lat="51.161952"><ele>21.8</ele><time>2022-06-05T06:07:49.000Z</time></trkpt><trkpt lon="5.756397" lat="51.161986"><ele>22</ele><time>2022-06-05T06:07:50.000Z</time></trkpt><trkpt lon="5.756487" lat="51.162019"><ele>22</ele><time>2022-06-05T06:07:51.000Z</time></trkpt><trkpt lon="5.756584" lat="51.162055"><ele>22</ele><time>2022-06-05T06:07:52.000Z</time></trkpt><trkpt lon="5.756679" lat="51.162089"><ele>22.2</ele><time>2022-06-05T06:07:53.000Z</time></trkpt><trkpt lon="5.756772" lat="51.162124"><ele>22.2</ele><time>2022-06-05T06:07:54.000Z</time></trkpt><trkpt lon="5.756865" lat="51.162158"><ele>22.2</ele><time>2022-06-05T06:07:55.000Z</time></trkpt><trkpt lon="5.756957" lat="51.162192"><ele>22.2</ele><time>2022-06-05T06:07:56.000Z</time></trkpt><trkpt lon="5.757048" lat="51.162226"><ele>22.2</ele><time>2022-06-05T06:07:57.000Z</time></trkpt><trkpt lon="5.757139" lat="51.162257"><ele>22.2</ele><time>2022-06-05T06:07:58.000Z</time></trkpt><trkpt lon="5.757229" lat="51.162295"><ele>22.2</ele><time>2022-06-05T06:07:59.000Z</time></trkpt><trkpt lon="5.757315" lat="51.162326"><ele>22.4</ele><time>2022-06-05T06:08:00.000Z</time></trkpt><trkpt lon="5.7574" lat="51.16236"><ele>22.4</ele><time>2022-06-05T06:08:01.000Z</time></trkpt><trkpt lon="5.757484" lat="51.162394"><ele>22.4</ele><time>2022-06-05T06:08:02.000Z</time></trkpt><trkpt lon="5.757569" lat="51.162429"><ele>22.6</ele><time>2022-06-05T06:08:03.000Z</time></trkpt><trkpt lon="5.757653" lat="51.16246"><ele>22.8</ele><time>2022-06-05T06:08:04.000Z</time></trkpt><trkpt lon="5.75774" lat="51.162493"><ele>22.8</ele><time>2022-06-05T06:08:05.000Z</time></trkpt><trkpt lon="5.757829" lat="51.162528"><ele>22.8</ele><time>2022-06-05T06:08:06.000Z</time></trkpt><trkpt lon="5.757913" lat="51.162562"><ele>22.8</ele><time>2022-06-05T06:08:07.000Z</time></trkpt><trkpt lon="5.758001" lat="51.162593"><ele>22.8</ele><time>2022-06-05T06:08:08.000Z</time></trkpt><trkpt lon="5.758087" lat="51.162623"><ele>23</ele><time>2022-06-05T06:08:09.000Z</time></trkpt><trkpt lon="5.758176" lat="51.162658"><ele>23</ele><time>2022-06-05T06:08:10.000Z</time></trkpt><trkpt lon="5.758265" lat="51.162691"><ele>23</ele><time>2022-06-05T06:08:11.000Z</time></trkpt><trkpt lon="5.758359" lat="51.162726"><ele>22.8</ele><time>2022-06-05T06:08:12.000Z</time></trkpt><trkpt lon="5.758454" lat="51.16276"><ele>23</ele><time>2022-06-05T06:08:13.000Z</time></trkpt><trkpt lon="5.758551" lat="51.162791"><ele>22.8</ele><time>2022-06-05T06:08:14.000Z</time></trkpt><trkpt lon="5.758645" lat="51.162825"><ele>22.8</ele><time>2022-06-05T06:08:15.000Z</time></trkpt><trkpt lon="5.758735" lat="51.162856"><ele>22.8</ele><time>2022-06-05T06:08:16.000Z</time></trkpt><trkpt lon="5.758817" lat="51.162894"><ele>22.6</ele><time>2022-06-05T06:08:17.000Z</time></trkpt><trkpt lon="5.7589" lat="51.162932"><ele>22.6</ele><time>2022-06-05T06:08:18.000Z</time></trkpt><trkpt lon="5.758984" lat="51.16297"><ele>22.8</ele><time>2022-06-05T06:08:19.000Z</time></trkpt><trkpt lon="5.759064" lat="51.163016"><ele>22.8</ele><time>2022-06-05T06:08:20.000Z</time></trkpt><trkpt lon="5.759137" lat="51.163064"><ele>22.8</ele><time>2022-06-05T06:08:21.000Z</time></trkpt><trkpt lon="5.759215" lat="51.163111"><ele>22.8</ele><time>2022-06-05T06:08:22.000Z</time></trkpt><trkpt lon="5.759292" lat="51.163157"><ele>22.6</ele><time>2022-06-05T06:08:23.000Z</time></trkpt><trkpt lon="5.75937" lat="51.163203"><ele>22.4</ele><time>2022-06-05T06:08:24.000Z</time></trkpt><trkpt lon="5.759449" lat="51.163248"><ele>22.2</ele><time>2022-06-05T06:08:25.000Z</time></trkpt><trkpt lon="5.759526" lat="51.163294"><ele>22.2</ele><time>2022-06-05T06:08:26.000Z</time></trkpt><trkpt lon="5.759604" lat="51.16334"><ele>22.2</ele><time>2022-06-05T06:08:27.000Z</time></trkpt><trkpt lon="5.759681" lat="51.163386"><ele>22.2</ele><time>2022-06-05T06:08:28.000Z</time></trkpt><trkpt lon="5.759756" lat="51.163435"><ele>22</ele><time>2022-06-05T06:08:29.000Z</time></trkpt><trkpt lon="5.759832" lat="51.163481"><ele>22</ele><time>2022-06-05T06:08:30.000Z</time></trkpt><trkpt lon="5.759907" lat="51.163527"><ele>22</ele><time>2022-06-05T06:08:31.000Z</time></trkpt><trkpt lon="5.759983" lat="51.163576"><ele>22</ele><time>2022-06-05T06:08:32.000Z</time></trkpt><trkpt lon="5.760058" lat="51.163622"><ele>21.8</ele><time>2022-06-05T06:08:33.000Z</time></trkpt><trkpt lon="5.760132" lat="51.163671"><ele>21.6</ele><time>2022-06-05T06:08:34.000Z</time></trkpt><trkpt lon="5.760204" lat="51.163718"><ele>21.8</ele><time>2022-06-05T06:08:35.000Z</time></trkpt><trkpt lon="5.760278" lat="51.163764"><ele>21.8</ele><time>2022-06-05T06:08:36.000Z</time></trkpt><trkpt lon="5.760349" lat="51.163813"><ele>21.8</ele><time>2022-06-05T06:08:37.000Z</time></trkpt><trkpt lon="5.76042" lat="51.163859"><ele>21.8</ele><time>2022-06-05T06:08:38.000Z</time></trkpt><trkpt lon="5.760493" lat="51.163909"><ele>21.6</ele><time>2022-06-05T06:08:39.000Z</time></trkpt><trkpt lon="5.760563" lat="51.16395"><ele>21.8</ele><time>2022-06-05T06:08:40.000Z</time></trkpt><trkpt lon="5.760631" lat="51.163995"><ele>22</ele><time>2022-06-05T06:08:41.000Z</time></trkpt><trkpt lon="5.760699" lat="51.164042"><ele>22</ele><time>2022-06-05T06:08:42.000Z</time></trkpt><trkpt lon="5.760767" lat="51.164084"><ele>22</ele><time>2022-06-05T06:08:43.000Z</time></trkpt><trkpt lon="5.760833" lat="51.16413"><ele>22</ele><time>2022-06-05T06:08:44.000Z</time></trkpt><trkpt lon="5.760898" lat="51.164172"><ele>22</ele><time>2022-06-05T06:08:45.000Z</time></trkpt><trkpt lon="5.760966" lat="51.164221"><ele>22</ele><time>2022-06-05T06:08:46.000Z</time></trkpt><trkpt lon="5.761032" lat="51.164265"><ele>22.2</ele><time>2022-06-05T06:08:47.000Z</time></trkpt><trkpt lon="5.761106" lat="51.164316"><ele>22.4</ele><time>2022-06-05T06:08:48.000Z</time></trkpt><trkpt lon="5.761175" lat="51.164366"><ele>22.4</ele><time>2022-06-05T06:08:49.000Z</time></trkpt><trkpt lon="5.761245" lat="51.164416"><ele>22.4</ele><time>2022-06-05T06:08:50.000Z</time></trkpt><trkpt lon="5.761312" lat="51.164465"><ele>22.4</ele><time>2022-06-05T06:08:51.000Z</time></trkpt><trkpt lon="5.761379" lat="51.164513"><ele>22.4</ele><time>2022-06-05T06:08:52.000Z</time></trkpt><trkpt lon="5.761453" lat="51.164565"><ele>22.6</ele><time>2022-06-05T06:08:53.000Z</time></trkpt><trkpt lon="5.761525" lat="51.164611"><ele>22.6</ele><time>2022-06-05T06:08:54.000Z</time></trkpt><trkpt lon="5.761595" lat="51.16466"><ele>22.6</ele><time>2022-06-05T06:08:55.000Z</time></trkpt><trkpt lon="5.761664" lat="51.164709"><ele>22.6</ele><time>2022-06-05T06:08:56.000Z</time></trkpt><trkpt lon="5.761734" lat="51.164759"><ele>22.6</ele><time>2022-06-05T06:08:57.000Z</time></trkpt><trkpt lon="5.761805" lat="51.164808"><ele>22.6</ele><time>2022-06-05T06:08:58.000Z</time></trkpt><trkpt lon="5.761876" lat="51.164858"><ele>22.8</ele><time>2022-06-05T06:08:59.000Z</time></trkpt><trkpt lon="5.761947" lat="51.164904"><ele>22.8</ele><time>2022-06-05T06:09:00.000Z</time></trkpt><trkpt lon="5.762019" lat="51.164953"><ele>22.6</ele><time>2022-06-05T06:09:01.000Z</time></trkpt><trkpt lon="5.762092" lat="51.165007"><ele>22.8</ele><time>2022-06-05T06:09:02.000Z</time></trkpt><trkpt lon="5.762166" lat="51.165056"><ele>22.8</ele><time>2022-06-05T06:09:03.000Z</time></trkpt><trkpt lon="5.762239" lat="51.165106"><ele>22.8</ele><time>2022-06-05T06:09:04.000Z</time></trkpt><trkpt lon="5.762309" lat="51.165152"><ele>22.8</ele><time>2022-06-05T06:09:05.000Z</time></trkpt><trkpt lon="5.762383" lat="51.165202"><ele>22.8</ele><time>2022-06-05T06:09:06.000Z</time></trkpt><trkpt lon="5.762456" lat="51.165254"><ele>22.6</ele><time>2022-06-05T06:09:07.000Z</time></trkpt><trkpt lon="5.762531" lat="51.165304"><ele>22.6</ele><time>2022-06-05T06:09:08.000Z</time></trkpt><trkpt lon="5.762606" lat="51.165354"><ele>22.4</ele><time>2022-06-05T06:09:09.000Z</time></trkpt><trkpt lon="5.762681" lat="51.165404"><ele>22.4</ele><time>2022-06-05T06:09:10.000Z</time></trkpt><trkpt lon="5.762754" lat="51.165453"><ele>22.4</ele><time>2022-06-05T06:09:11.000Z</time></trkpt><trkpt lon="5.76283" lat="51.165503"><ele>22.4</ele><time>2022-06-05T06:09:12.000Z</time></trkpt><trkpt lon="5.762904" lat="51.165552"><ele>22.6</ele><time>2022-06-05T06:09:13.000Z</time></trkpt><trkpt lon="5.762979" lat="51.165606"><ele>22.6</ele><time>2022-06-05T06:09:14.000Z</time></trkpt><trkpt lon="5.763053" lat="51.165655"><ele>22.6</ele><time>2022-06-05T06:09:15.000Z</time></trkpt><trkpt lon="5.763126" lat="51.165709"><ele>22.2</ele><time>2022-06-05T06:09:16.000Z</time></trkpt><trkpt lon="5.763197" lat="51.16576"><ele>22</ele><time>2022-06-05T06:09:17.000Z</time></trkpt><trkpt lon="5.76327" lat="51.165815"><ele>22</ele><time>2022-06-05T06:09:18.000Z</time></trkpt><trkpt lon="5.763338" lat="51.165873"><ele>21.8</ele><time>2022-06-05T06:09:19.000Z</time></trkpt><trkpt lon="5.763403" lat="51.16593"><ele>21.8</ele><time>2022-06-05T06:09:20.000Z</time></trkpt><trkpt lon="5.763466" lat="51.165987"><ele>21.8</ele><time>2022-06-05T06:09:21.000Z</time></trkpt><trkpt lon="5.76353" lat="51.166048"><ele>21.8</ele><time>2022-06-05T06:09:22.000Z</time></trkpt><trkpt lon="5.763593" lat="51.166105"><ele>21.6</ele><time>2022-06-05T06:09:23.000Z</time></trkpt><trkpt lon="5.763655" lat="51.166163"><ele>21.4</ele><time>2022-06-05T06:09:24.000Z</time></trkpt><trkpt lon="5.763718" lat="51.166219"><ele>21.4</ele><time>2022-06-05T06:09:25.000Z</time></trkpt><trkpt lon="5.763788" lat="51.166273"><ele>21.2</ele><time>2022-06-05T06:09:26.000Z</time></trkpt><trkpt lon="5.763861" lat="51.166326"><ele>21</ele><time>2022-06-05T06:09:27.000Z</time></trkpt><trkpt lon="5.763945" lat="51.166373"><ele>21</ele><time>2022-06-05T06:09:28.000Z</time></trkpt><trkpt lon="5.764036" lat="51.166414"><ele>21</ele><time>2022-06-05T06:09:29.000Z</time></trkpt><trkpt lon="5.764136" lat="51.166449"><ele>21</ele><time>2022-06-05T06:09:30.000Z</time></trkpt><trkpt lon="5.764241" lat="51.166484"><ele>21</ele><time>2022-06-05T06:09:31.000Z</time></trkpt><trkpt lon="5.764347" lat="51.166515"><ele>21</ele><time>2022-06-05T06:09:32.000Z</time></trkpt><trkpt lon="5.764452" lat="51.166545"><ele>20.8</ele><time>2022-06-05T06:09:33.000Z</time></trkpt><trkpt lon="5.764555" lat="51.166575"><ele>20.8</ele><time>2022-06-05T06:09:34.000Z</time></trkpt><trkpt lon="5.764656" lat="51.166606"><ele>20.8</ele><time>2022-06-05T06:09:35.000Z</time></trkpt><trkpt lon="5.764756" lat="51.166636"><ele>20.6</ele><time>2022-06-05T06:09:36.000Z</time></trkpt><trkpt lon="5.764854" lat="51.166666"><ele>20.6</ele><time>2022-06-05T06:09:37.000Z</time></trkpt><trkpt lon="5.764955" lat="51.166698"><ele>20.6</ele><time>2022-06-05T06:09:38.000Z</time></trkpt><trkpt lon="5.765053" lat="51.166728"><ele>20.8</ele><time>2022-06-05T06:09:39.000Z</time></trkpt><trkpt lon="5.765148" lat="51.166758"><ele>20.8</ele><time>2022-06-05T06:09:40.000Z</time></trkpt><trkpt lon="5.76524" lat="51.166789"><ele>21</ele><time>2022-06-05T06:09:41.000Z</time></trkpt><trkpt lon="5.76533" lat="51.166816"><ele>21.2</ele><time>2022-06-05T06:09:42.000Z</time></trkpt><trkpt lon="5.765422" lat="51.166846"><ele>21.4</ele><time>2022-06-05T06:09:43.000Z</time></trkpt><trkpt lon="5.765512" lat="51.166873"><ele>21.4</ele><time>2022-06-05T06:09:44.000Z</time></trkpt><trkpt lon="5.765605" lat="51.1669"><ele>21.6</ele><time>2022-06-05T06:09:45.000Z</time></trkpt><trkpt lon="5.765695" lat="51.16693"><ele>21.6</ele><time>2022-06-05T06:09:46.000Z</time></trkpt><trkpt lon="5.765785" lat="51.166961"><ele>21.6</ele><time>2022-06-05T06:09:47.000Z</time></trkpt><trkpt lon="5.765875" lat="51.166984"><ele>21.6</ele><time>2022-06-05T06:09:48.000Z</time></trkpt><trkpt lon="5.765966" lat="51.16701"><ele>21.8</ele><time>2022-06-05T06:09:49.000Z</time></trkpt><trkpt lon="5.766052" lat="51.16704"><ele>21.8</ele><time>2022-06-05T06:09:50.000Z</time></trkpt><trkpt lon="5.766143" lat="51.167071"><ele>21.6</ele><time>2022-06-05T06:09:51.000Z</time></trkpt><trkpt lon="5.766234" lat="51.167105"><ele>21.6</ele><time>2022-06-05T06:09:52.000Z</time></trkpt><trkpt lon="5.766328" lat="51.167143"><ele>21.8</ele><time>2022-06-05T06:09:53.000Z</time></trkpt><trkpt lon="5.766417" lat="51.167174"><ele>21.8</ele><time>2022-06-05T06:09:54.000Z</time></trkpt><trkpt lon="5.766507" lat="51.167205"><ele>22</ele><time>2022-06-05T06:09:55.000Z</time></trkpt><trkpt lon="5.766598" lat="51.167239"><ele>22</ele><time>2022-06-05T06:09:56.000Z</time></trkpt><trkpt lon="5.766693" lat="51.16727"><ele>22</ele><time>2022-06-05T06:09:57.000Z</time></trkpt><trkpt lon="5.76679" lat="51.1673"><ele>22.2</ele><time>2022-06-05T06:09:58.000Z</time></trkpt><trkpt lon="5.766884" lat="51.167331"><ele>22.2</ele><time>2022-06-05T06:09:59.000Z</time></trkpt><trkpt lon="5.766977" lat="51.167357"><ele>22.4</ele><time>2022-06-05T06:10:00.000Z</time></trkpt><trkpt lon="5.76707" lat="51.167388"><ele>22.4</ele><time>2022-06-05T06:10:01.000Z</time></trkpt><trkpt lon="5.76716" lat="51.167415"><ele>22.4</ele><time>2022-06-05T06:10:02.000Z</time></trkpt><trkpt lon="5.767252" lat="51.167441"><ele>22.4</ele><time>2022-06-05T06:10:03.000Z</time></trkpt><trkpt lon="5.767341" lat="51.167476"><ele>22.4</ele><time>2022-06-05T06:10:04.000Z</time></trkpt><trkpt lon="5.767432" lat="51.167506"><ele>22.4</ele><time>2022-06-05T06:10:05.000Z</time></trkpt><trkpt lon="5.767525" lat="51.16754"><ele>22.4</ele><time>2022-06-05T06:10:06.000Z</time></trkpt><trkpt lon="5.767622" lat="51.167574"><ele>22.4</ele><time>2022-06-05T06:10:07.000Z</time></trkpt><trkpt lon="5.76772" lat="51.167612"><ele>22.4</ele><time>2022-06-05T06:10:08.000Z</time></trkpt><trkpt lon="5.767815" lat="51.167647"><ele>22.2</ele><time>2022-06-05T06:10:09.000Z</time></trkpt><trkpt lon="5.767905" lat="51.167685"><ele>22.2</ele><time>2022-06-05T06:10:10.000Z</time></trkpt><trkpt lon="5.767999" lat="51.167716"><ele>22.2</ele><time>2022-06-05T06:10:11.000Z</time></trkpt><trkpt lon="5.768092" lat="51.16775"><ele>22.2</ele><time>2022-06-05T06:10:12.000Z</time></trkpt><trkpt lon="5.768186" lat="51.167781"><ele>22.2</ele><time>2022-06-05T06:10:13.000Z</time></trkpt><trkpt lon="5.768282" lat="51.167811"><ele>22</ele><time>2022-06-05T06:10:14.000Z</time></trkpt><trkpt lon="5.76838" lat="51.167835"><ele>22</ele><time>2022-06-05T06:10:15.000Z</time></trkpt><trkpt lon="5.768481" lat="51.167857"><ele>21.8</ele><time>2022-06-05T06:10:16.000Z</time></trkpt><trkpt lon="5.768584" lat="51.16788"><ele>21.6</ele><time>2022-06-05T06:10:17.000Z</time></trkpt><trkpt lon="5.768687" lat="51.167899"><ele>21.4</ele><time>2022-06-05T06:10:18.000Z</time></trkpt><trkpt lon="5.76879" lat="51.167918"><ele>21.4</ele><time>2022-06-05T06:10:19.000Z</time></trkpt><trkpt lon="5.768892" lat="51.16793"><ele>21.4</ele><time>2022-06-05T06:10:20.000Z</time></trkpt><trkpt lon="5.768995" lat="51.167942"><ele>21.4</ele><time>2022-06-05T06:10:21.000Z</time></trkpt><trkpt lon="5.769098" lat="51.167953"><ele>21.4</ele><time>2022-06-05T06:10:22.000Z</time></trkpt><trkpt lon="5.769199" lat="51.167961"><ele>21.4</ele><time>2022-06-05T06:10:23.000Z</time></trkpt><trkpt lon="5.769299" lat="51.167965"><ele>21.6</ele><time>2022-06-05T06:10:24.000Z</time></trkpt><trkpt lon="5.76939" lat="51.167969"><ele>21.6</ele><time>2022-06-05T06:10:25.000Z</time></trkpt><trkpt lon="5.769472" lat="51.167972"><ele>21.6</ele><time>2022-06-05T06:10:26.000Z</time></trkpt><trkpt lon="5.769545" lat="51.167976"><ele>21.8</ele><time>2022-06-05T06:10:27.000Z</time></trkpt><trkpt lon="5.76961" lat="51.167987"><ele>21.8</ele><time>2022-06-05T06:10:28.000Z</time></trkpt><trkpt lon="5.769663" lat="51.168013"><ele>21.8</ele><time>2022-06-05T06:10:29.000Z</time></trkpt><trkpt lon="5.769694" lat="51.168055"><ele>21.8</ele><time>2022-06-05T06:10:30.000Z</time></trkpt><trkpt lon="5.769697" lat="51.168104"><ele>21.8</ele><time>2022-06-05T06:10:31.000Z</time></trkpt><trkpt lon="5.769688" lat="51.168161"><ele>21.8</ele><time>2022-06-05T06:10:32.000Z</time></trkpt><trkpt lon="5.76968" lat="51.168221"><ele>21.6</ele><time>2022-06-05T06:10:33.000Z</time></trkpt><trkpt lon="5.769672" lat="51.168283"><ele>21.6</ele><time>2022-06-05T06:10:34.000Z</time></trkpt><trkpt lon="5.769665" lat="51.168348"><ele>21.4</ele><time>2022-06-05T06:10:35.000Z</time></trkpt><trkpt lon="5.769657" lat="51.168413"><ele>21.4</ele><time>2022-06-05T06:10:36.000Z</time></trkpt><trkpt lon="5.769649" lat="51.168477"><ele>21.4</ele><time>2022-06-05T06:10:37.000Z</time></trkpt><trkpt lon="5.769642" lat="51.168547"><ele>21.6</ele><time>2022-06-05T06:10:38.000Z</time></trkpt><trkpt lon="5.769634" lat="51.168612"><ele>21.4</ele><time>2022-06-05T06:10:39.000Z</time></trkpt><trkpt lon="5.769625" lat="51.16868"><ele>21.4</ele><time>2022-06-05T06:10:40.000Z</time></trkpt><trkpt lon="5.769617" lat="51.168745"><ele>21.4</ele><time>2022-06-05T06:10:41.000Z</time></trkpt><trkpt lon="5.769612" lat="51.16881"><ele>21.4</ele><time>2022-06-05T06:10:42.000Z</time></trkpt><trkpt lon="5.769605" lat="51.168875"><ele>21.4</ele><time>2022-06-05T06:10:43.000Z</time></trkpt><trkpt lon="5.769599" lat="51.168943"><ele>21.4</ele><time>2022-06-05T06:10:44.000Z</time></trkpt><trkpt lon="5.769597" lat="51.169011"><ele>21.4</ele><time>2022-06-05T06:10:45.000Z</time></trkpt><trkpt lon="5.769598" lat="51.16908"><ele>21.2</ele><time>2022-06-05T06:10:46.000Z</time></trkpt><trkpt lon="5.76961" lat="51.169149"><ele>21.2</ele><time>2022-06-05T06:10:47.000Z</time></trkpt><trkpt lon="5.769635" lat="51.169218"><ele>21.2</ele><time>2022-06-05T06:10:48.000Z</time></trkpt><trkpt lon="5.769664" lat="51.169287"><ele>21.2</ele><time>2022-06-05T06:10:49.000Z</time></trkpt><trkpt lon="5.7697" lat="51.169351"><ele>21</ele><time>2022-06-05T06:10:50.000Z</time></trkpt><trkpt lon="5.769742" lat="51.169414"><ele>21</ele><time>2022-06-05T06:10:51.000Z</time></trkpt><trkpt lon="5.769782" lat="51.169483"><ele>21</ele><time>2022-06-05T06:10:52.000Z</time></trkpt><trkpt lon="5.769828" lat="51.169556"><ele>20.8</ele><time>2022-06-05T06:10:53.000Z</time></trkpt><trkpt lon="5.769872" lat="51.169626"><ele>21</ele><time>2022-06-05T06:10:54.000Z</time></trkpt><trkpt lon="5.769917" lat="51.169691"><ele>21.2</ele><time>2022-06-05T06:10:55.000Z</time></trkpt><trkpt lon="5.769962" lat="51.169752"><ele>21.2</ele><time>2022-06-05T06:10:56.000Z</time></trkpt><trkpt lon="5.770007" lat="51.169813"><ele>21.4</ele><time>2022-06-05T06:10:57.000Z</time></trkpt><trkpt lon="5.770052" lat="51.169878"><ele>21.4</ele><time>2022-06-05T06:10:58.000Z</time></trkpt><trkpt lon="5.770097" lat="51.169939"><ele>21.4</ele><time>2022-06-05T06:10:59.000Z</time></trkpt><trkpt lon="5.770141" lat="51.169999"><ele>21.4</ele><time>2022-06-05T06:11:00.000Z</time></trkpt><trkpt lon="5.77018" lat="51.170064"><ele>21.4</ele><time>2022-06-05T06:11:01.000Z</time></trkpt><trkpt lon="5.770201" lat="51.170129"><ele>21.4</ele><time>2022-06-05T06:11:02.000Z</time></trkpt><trkpt lon="5.770195" lat="51.170201"><ele>21.4</ele><time>2022-06-05T06:11:03.000Z</time></trkpt><trkpt lon="5.770163" lat="51.170267"><ele>21.4</ele><time>2022-06-05T06:11:04.000Z</time></trkpt><trkpt lon="5.770109" lat="51.170328"><ele>21.6</ele><time>2022-06-05T06:11:05.000Z</time></trkpt><trkpt lon="5.77004" lat="51.170386"><ele>21.6</ele><time>2022-06-05T06:11:06.000Z</time></trkpt><trkpt lon="5.769969" lat="51.170438"><ele>21.6</ele><time>2022-06-05T06:11:07.000Z</time></trkpt><trkpt lon="5.769892" lat="51.170492"><ele>21.6</ele><time>2022-06-05T06:11:08.000Z</time></trkpt><trkpt lon="5.769818" lat="51.170542"><ele>21.6</ele><time>2022-06-05T06:11:09.000Z</time></trkpt><trkpt lon="5.769739" lat="51.170592"><ele>21.6</ele><time>2022-06-05T06:11:10.000Z</time></trkpt><trkpt lon="5.769663" lat="51.170645"><ele>21.6</ele><time>2022-06-05T06:11:11.000Z</time></trkpt><trkpt lon="5.769586" lat="51.170694"><ele>21.6</ele><time>2022-06-05T06:11:12.000Z</time></trkpt><trkpt lon="5.769509" lat="51.17074"><ele>21.6</ele><time>2022-06-05T06:11:13.000Z</time></trkpt><trkpt lon="5.76943" lat="51.17079"><ele>21.6</ele><time>2022-06-05T06:11:14.000Z</time></trkpt><trkpt lon="5.76935" lat="51.170839"><ele>21.6</ele><time>2022-06-05T06:11:15.000Z</time></trkpt><trkpt lon="5.769271" lat="51.170885"><ele>21.6</ele><time>2022-06-05T06:11:16.000Z</time></trkpt><trkpt lon="5.769198" lat="51.170933"><ele>21.6</ele><time>2022-06-05T06:11:17.000Z</time></trkpt><trkpt lon="5.769119" lat="51.170981"><ele>21.6</ele><time>2022-06-05T06:11:18.000Z</time></trkpt><trkpt lon="5.769046" lat="51.171023"><ele>21.6</ele><time>2022-06-05T06:11:19.000Z</time></trkpt><trkpt lon="5.768975" lat="51.171065"><ele>21.6</ele><time>2022-06-05T06:11:20.000Z</time></trkpt><trkpt lon="5.768914" lat="51.1711"><ele>21.6</ele><time>2022-06-05T06:11:21.000Z</time></trkpt><trkpt lon="5.768855" lat="51.171134"><ele>21.6</ele><time>2022-06-05T06:11:22.000Z</time></trkpt><trkpt lon="5.768797" lat="51.171168"><ele>21.6</ele><time>2022-06-05T06:11:23.000Z</time></trkpt><trkpt lon="5.768736" lat="51.171203"><ele>21.6</ele><time>2022-06-05T06:11:24.000Z</time></trkpt><trkpt lon="5.768687" lat="51.171248"><ele>21.4</ele><time>2022-06-05T06:11:25.000Z</time></trkpt><trkpt lon="5.768655" lat="51.171304"><ele>21.4</ele><time>2022-06-05T06:11:26.000Z</time></trkpt><trkpt lon="5.76864" lat="51.171362"><ele>21.4</ele><time>2022-06-05T06:11:27.000Z</time></trkpt><trkpt lon="5.768634" lat="51.171426"><ele>21.2</ele><time>2022-06-05T06:11:28.000Z</time></trkpt><trkpt lon="5.768627" lat="51.171495"><ele>21.2</ele><time>2022-06-05T06:11:29.000Z</time></trkpt><trkpt lon="5.768622" lat="51.171564"><ele>21.4</ele><time>2022-06-05T06:11:30.000Z</time></trkpt><trkpt lon="5.768617" lat="51.171633"><ele>21.4</ele><time>2022-06-05T06:11:31.000Z</time></trkpt><trkpt lon="5.76861" lat="51.171701"><ele>21.4</ele><time>2022-06-05T06:11:32.000Z</time></trkpt><trkpt lon="5.7686" lat="51.17177"><ele>21.4</ele><time>2022-06-05T06:11:33.000Z</time></trkpt><trkpt lon="5.76859" lat="51.171838"><ele>21.4</ele><time>2022-06-05T06:11:34.000Z</time></trkpt><trkpt lon="5.768579" lat="51.171907"><ele>21.4</ele><time>2022-06-05T06:11:35.000Z</time></trkpt><trkpt lon="5.768567" lat="51.171979"><ele>21.2</ele><time>2022-06-05T06:11:36.000Z</time></trkpt><trkpt lon="5.768559" lat="51.172045"><ele>21.2</ele><time>2022-06-05T06:11:37.000Z</time></trkpt><trkpt lon="5.768552" lat="51.17211"><ele>21.2</ele><time>2022-06-05T06:11:38.000Z</time></trkpt><trkpt lon="5.768547" lat="51.172178"><ele>21.2</ele><time>2022-06-05T06:11:39.000Z</time></trkpt><trkpt lon="5.768543" lat="51.172247"><ele>21.2</ele><time>2022-06-05T06:11:40.000Z</time></trkpt><trkpt lon="5.76854" lat="51.172315"><ele>21.2</ele><time>2022-06-05T06:11:41.000Z</time></trkpt><trkpt lon="5.76854" lat="51.172386"><ele>21.2</ele><time>2022-06-05T06:11:42.000Z</time></trkpt><trkpt lon="5.76854" lat="51.172453"><ele>21.2</ele><time>2022-06-05T06:11:43.000Z</time></trkpt><trkpt lon="5.768542" lat="51.172521"><ele>21.2</ele><time>2022-06-05T06:11:44.000Z</time></trkpt><trkpt lon="5.768542" lat="51.172593"><ele>21</ele><time>2022-06-05T06:11:45.000Z</time></trkpt><trkpt lon="5.768537" lat="51.172662"><ele>21.2</ele><time>2022-06-05T06:11:46.000Z</time></trkpt><trkpt lon="5.768529" lat="51.172727"><ele>21.2</ele><time>2022-06-05T06:11:47.000Z</time></trkpt><trkpt lon="5.768514" lat="51.172796"><ele>21.2</ele><time>2022-06-05T06:11:48.000Z</time></trkpt><trkpt lon="5.768492" lat="51.172861"><ele>21.4</ele><time>2022-06-05T06:11:49.000Z</time></trkpt><trkpt lon="5.768464" lat="51.172926"><ele>21.4</ele><time>2022-06-05T06:11:50.000Z</time></trkpt><trkpt lon="5.768422" lat="51.172987"><ele>21.6</ele><time>2022-06-05T06:11:51.000Z</time></trkpt><trkpt lon="5.768365" lat="51.173039"><ele>21.6</ele><time>2022-06-05T06:11:52.000Z</time></trkpt><trkpt lon="5.768297" lat="51.173087"><ele>21.8</ele><time>2022-06-05T06:11:53.000Z</time></trkpt><trkpt lon="5.768205" lat="51.173132"><ele>21.8</ele><time>2022-06-05T06:11:54.000Z</time></trkpt><trkpt lon="5.768105" lat="51.173163"><ele>22</ele><time>2022-06-05T06:11:55.000Z</time></trkpt><trkpt lon="5.768" lat="51.173183"><ele>22.2</ele><time>2022-06-05T06:11:56.000Z</time></trkpt><trkpt lon="5.767897" lat="51.173201"><ele>22.4</ele><time>2022-06-05T06:11:57.000Z</time></trkpt><trkpt lon="5.767786" lat="51.173217"><ele>22.4</ele><time>2022-06-05T06:11:58.000Z</time></trkpt><trkpt lon="5.767679" lat="51.173236"><ele>22.6</ele><time>2022-06-05T06:11:59.000Z</time></trkpt><trkpt lon="5.767574" lat="51.173255"><ele>22.6</ele><time>2022-06-05T06:12:00.000Z</time></trkpt><trkpt lon="5.767472" lat="51.173274"><ele>22.8</ele><time>2022-06-05T06:12:01.000Z</time></trkpt><trkpt lon="5.76737" lat="51.173297"><ele>22.8</ele><time>2022-06-05T06:12:02.000Z</time></trkpt><trkpt lon="5.767269" lat="51.173313"><ele>23</ele><time>2022-06-05T06:12:03.000Z</time></trkpt><trkpt lon="5.767165" lat="51.173335"><ele>23</ele><time>2022-06-05T06:12:04.000Z</time></trkpt><trkpt lon="5.767065" lat="51.173358"><ele>23.2</ele><time>2022-06-05T06:12:05.000Z</time></trkpt><trkpt lon="5.766964" lat="51.173381"><ele>23.2</ele><time>2022-06-05T06:12:06.000Z</time></trkpt><trkpt lon="5.766862" lat="51.173404"><ele>23.2</ele><time>2022-06-05T06:12:07.000Z</time></trkpt><trkpt lon="5.76676" lat="51.173427"><ele>23.4</ele><time>2022-06-05T06:12:08.000Z</time></trkpt><trkpt lon="5.766659" lat="51.17345"><ele>23.4</ele><time>2022-06-05T06:12:09.000Z</time></trkpt><trkpt lon="5.766556" lat="51.173472"><ele>23.4</ele><time>2022-06-05T06:12:10.000Z</time></trkpt><trkpt lon="5.766452" lat="51.173499"><ele>23.4</ele><time>2022-06-05T06:12:11.000Z</time></trkpt><trkpt lon="5.766346" lat="51.173522"><ele>23.4</ele><time>2022-06-05T06:12:12.000Z</time></trkpt><trkpt lon="5.766244" lat="51.173549"><ele>23.4</ele><time>2022-06-05T06:12:13.000Z</time></trkpt><trkpt lon="5.766137" lat="51.173572"><ele>23.4</ele><time>2022-06-05T06:12:14.000Z</time></trkpt><trkpt lon="5.76603" lat="51.173595"><ele>23.4</ele><time>2022-06-05T06:12:15.000Z</time></trkpt><trkpt lon="5.765922" lat="51.173617"><ele>23.4</ele><time>2022-06-05T06:12:16.000Z</time></trkpt><trkpt lon="5.765813" lat="51.173637"><ele>23.4</ele><time>2022-06-05T06:12:17.000Z</time></trkpt><trkpt lon="5.765706" lat="51.173656"><ele>23.4</ele><time>2022-06-05T06:12:18.000Z</time></trkpt><trkpt lon="5.765595" lat="51.173671"><ele>23.4</ele><time>2022-06-05T06:12:19.000Z</time></trkpt><trkpt lon="5.765484" lat="51.173687"><ele>23.4</ele><time>2022-06-05T06:12:20.000Z</time></trkpt><trkpt lon="5.765376" lat="51.173698"><ele>23.4</ele><time>2022-06-05T06:12:21.000Z</time></trkpt><trkpt lon="5.765263" lat="51.173709"><ele>23.4</ele><time>2022-06-05T06:12:22.000Z</time></trkpt><trkpt lon="5.765148" lat="51.173721"><ele>23.4</ele><time>2022-06-05T06:12:23.000Z</time></trkpt><trkpt lon="5.765035" lat="51.173729"><ele>23.2</ele><time>2022-06-05T06:12:24.000Z</time></trkpt><trkpt lon="5.764924" lat="51.17374"><ele>23.2</ele><time>2022-06-05T06:12:25.000Z</time></trkpt><trkpt lon="5.764809" lat="51.173751"><ele>23.2</ele><time>2022-06-05T06:12:26.000Z</time></trkpt><trkpt lon="5.764697" lat="51.173763"><ele>23.2</ele><time>2022-06-05T06:12:27.000Z</time></trkpt><trkpt lon="5.764585" lat="51.173771"><ele>23.2</ele><time>2022-06-05T06:12:28.000Z</time></trkpt><trkpt lon="5.764472" lat="51.173782"><ele>23.2</ele><time>2022-06-05T06:12:29.000Z</time></trkpt><trkpt lon="5.764359" lat="51.173793"><ele>23.2</ele><time>2022-06-05T06:12:30.000Z</time></trkpt><trkpt lon="5.764246" lat="51.173809"><ele>23.2</ele><time>2022-06-05T06:12:31.000Z</time></trkpt><trkpt lon="5.764138" lat="51.173824"><ele>23.2</ele><time>2022-06-05T06:12:32.000Z</time></trkpt><trkpt lon="5.764031" lat="51.173843"><ele>23.2</ele><time>2022-06-05T06:12:33.000Z</time></trkpt><trkpt lon="5.763924" lat="51.173862"><ele>23.2</ele><time>2022-06-05T06:12:34.000Z</time></trkpt><trkpt lon="5.763818" lat="51.173888"><ele>23.2</ele><time>2022-06-05T06:12:35.000Z</time></trkpt><trkpt lon="5.763714" lat="51.173915"><ele>23</ele><time>2022-06-05T06:12:36.000Z</time></trkpt><trkpt lon="5.763615" lat="51.173946"><ele>23</ele><time>2022-06-05T06:12:37.000Z</time></trkpt><trkpt lon="5.763517" lat="51.173976"><ele>23</ele><time>2022-06-05T06:12:38.000Z</time></trkpt><trkpt lon="5.763421" lat="51.174007"><ele>23</ele><time>2022-06-05T06:12:39.000Z</time></trkpt><trkpt lon="5.763325" lat="51.174037"><ele>23</ele><time>2022-06-05T06:12:40.000Z</time></trkpt><trkpt lon="5.763228" lat="51.174071"><ele>23</ele><time>2022-06-05T06:12:41.000Z</time></trkpt><trkpt lon="5.76313" lat="51.174102"><ele>23.2</ele><time>2022-06-05T06:12:42.000Z</time></trkpt><trkpt lon="5.763034" lat="51.174136"><ele>23.2</ele><time>2022-06-05T06:12:43.000Z</time></trkpt><trkpt lon="5.762936" lat="51.174167"><ele>23.4</ele><time>2022-06-05T06:12:44.000Z</time></trkpt><trkpt lon="5.762839" lat="51.174197"><ele>23.4</ele><time>2022-06-05T06:12:45.000Z</time></trkpt><trkpt lon="5.762737" lat="51.174228"><ele>23.4</ele><time>2022-06-05T06:12:46.000Z</time></trkpt><trkpt lon="5.762638" lat="51.174262"><ele>23.6</ele><time>2022-06-05T06:12:47.000Z</time></trkpt><trkpt lon="5.762535" lat="51.174293"><ele>23.6</ele><time>2022-06-05T06:12:48.000Z</time></trkpt><trkpt lon="5.76243" lat="51.17432"><ele>23.6</ele><time>2022-06-05T06:12:49.000Z</time></trkpt><trkpt lon="5.76233" lat="51.174342"><ele>23.6</ele><time>2022-06-05T06:12:50.000Z</time></trkpt><trkpt lon="5.762223" lat="51.174369"><ele>23.8</ele><time>2022-06-05T06:12:51.000Z</time></trkpt><trkpt lon="5.762131" lat="51.174386"><ele>23.8</ele><time>2022-06-05T06:12:52.000Z</time></trkpt><trkpt lon="5.762018" lat="51.174404"><ele>23.8</ele><time>2022-06-05T06:12:53.000Z</time></trkpt><trkpt lon="5.761919" lat="51.174415"><ele>24</ele><time>2022-06-05T06:12:54.000Z</time></trkpt><trkpt lon="5.761824" lat="51.174423"><ele>24</ele><time>2022-06-05T06:12:55.000Z</time></trkpt><trkpt lon="5.761728" lat="51.174427"><ele>24.2</ele><time>2022-06-05T06:12:56.000Z</time></trkpt><trkpt lon="5.761637" lat="51.174434"><ele>24.2</ele><time>2022-06-05T06:12:57.000Z</time></trkpt><trkpt lon="5.761549" lat="51.174435"><ele>24.2</ele><time>2022-06-05T06:12:58.000Z</time></trkpt><trkpt lon="5.761465" lat="51.174438"><ele>24.2</ele><time>2022-06-05T06:12:59.000Z</time></trkpt><trkpt lon="5.761386" lat="51.174438"><ele>24.2</ele><time>2022-06-05T06:13:00.000Z</time></trkpt><trkpt lon="5.761308" lat="51.174438"><ele>24.2</ele><time>2022-06-05T06:13:01.000Z</time></trkpt><trkpt lon="5.761235" lat="51.174438"><ele>24.2</ele><time>2022-06-05T06:13:02.000Z</time></trkpt><trkpt lon="5.761168" lat="51.174438"><ele>24.2</ele><time>2022-06-05T06:13:03.000Z</time></trkpt><trkpt lon="5.761105" lat="51.174438"><ele>24.2</ele><time>2022-06-05T06:13:04.000Z</time></trkpt><trkpt lon="5.761048" lat="51.174438"><ele>24.2</ele><time>2022-06-05T06:13:05.000Z</time></trkpt><trkpt lon="5.761001" lat="51.174442"><ele>24.2</ele><time>2022-06-05T06:13:06.000Z</time></trkpt><trkpt lon="5.760951" lat="51.174439"><ele>24.2</ele><time>2022-06-05T06:13:07.000Z</time></trkpt><trkpt lon="5.760892" lat="51.174442"><ele>24</ele><time>2022-06-05T06:13:08.000Z</time></trkpt><trkpt lon="5.760822" lat="51.174453"><ele>24</ele><time>2022-06-05T06:13:09.000Z</time></trkpt><trkpt lon="5.76074" lat="51.174465"><ele>24</ele><time>2022-06-05T06:13:10.000Z</time></trkpt><trkpt lon="5.760643" lat="51.174476"><ele>23.8</ele><time>2022-06-05T06:13:11.000Z</time></trkpt><trkpt lon="5.76054" lat="51.174491"><ele>23.6</ele><time>2022-06-05T06:13:12.000Z</time></trkpt><trkpt lon="5.760432" lat="51.174506"><ele>23.6</ele><time>2022-06-05T06:13:13.000Z</time></trkpt><trkpt lon="5.760321" lat="51.174526"><ele>23.6</ele><time>2022-06-05T06:13:14.000Z</time></trkpt><trkpt lon="5.760212" lat="51.174545"><ele>23.6</ele><time>2022-06-05T06:13:15.000Z</time></trkpt><trkpt lon="5.760107" lat="51.174567"><ele>23.6</ele><time>2022-06-05T06:13:16.000Z</time></trkpt><trkpt lon="5.760003" lat="51.174594"><ele>23.4</ele><time>2022-06-05T06:13:17.000Z</time></trkpt><trkpt lon="5.759903" lat="51.174624"><ele>23.4</ele><time>2022-06-05T06:13:18.000Z</time></trkpt><trkpt lon="5.75981" lat="51.174655"><ele>23.4</ele><time>2022-06-05T06:13:19.000Z</time></trkpt><trkpt lon="5.759718" lat="51.174686"><ele>23.4</ele><time>2022-06-05T06:13:20.000Z</time></trkpt><trkpt lon="5.759629" lat="51.174719"><ele>23.2</ele><time>2022-06-05T06:13:21.000Z</time></trkpt><trkpt lon="5.759541" lat="51.174754"><ele>23.2</ele><time>2022-06-05T06:13:22.000Z</time></trkpt><trkpt lon="5.759458" lat="51.174788"><ele>23.2</ele><time>2022-06-05T06:13:23.000Z</time></trkpt><trkpt lon="5.759373" lat="51.174822"><ele>23.2</ele><time>2022-06-05T06:13:24.000Z</time></trkpt><trkpt lon="5.759288" lat="51.174857"><ele>23.2</ele><time>2022-06-05T06:13:25.000Z</time></trkpt><trkpt lon="5.759203" lat="51.174899"><ele>23</ele><time>2022-06-05T06:13:26.000Z</time></trkpt><trkpt lon="5.759119" lat="51.174937"><ele>23.2</ele><time>2022-06-05T06:13:27.000Z</time></trkpt><trkpt lon="5.759036" lat="51.174979"><ele>23.2</ele><time>2022-06-05T06:13:28.000Z</time></trkpt><trkpt lon="5.758953" lat="51.175017"><ele>23.2</ele><time>2022-06-05T06:13:29.000Z</time></trkpt><trkpt lon="5.75887" lat="51.175058"><ele>23.2</ele><time>2022-06-05T06:13:30.000Z</time></trkpt><trkpt lon="5.758785" lat="51.1751"><ele>23.2</ele><time>2022-06-05T06:13:31.000Z</time></trkpt><trkpt lon="5.758703" lat="51.175143"><ele>23.4</ele><time>2022-06-05T06:13:32.000Z</time></trkpt><trkpt lon="5.758619" lat="51.175181"><ele>23.4</ele><time>2022-06-05T06:13:33.000Z</time></trkpt><trkpt lon="5.758533" lat="51.175219"><ele>23.2</ele><time>2022-06-05T06:13:34.000Z</time></trkpt><trkpt lon="5.758449" lat="51.175254"><ele>23.2</ele><time>2022-06-05T06:13:35.000Z</time></trkpt><trkpt lon="5.758368" lat="51.175292"><ele>23.2</ele><time>2022-06-05T06:13:36.000Z</time></trkpt><trkpt lon="5.758289" lat="51.17533"><ele>23.2</ele><time>2022-06-05T06:13:37.000Z</time></trkpt><trkpt lon="5.758214" lat="51.175372"><ele>23.2</ele><time>2022-06-05T06:13:38.000Z</time></trkpt><trkpt lon="5.758143" lat="51.175414"><ele>23</ele><time>2022-06-05T06:13:39.000Z</time></trkpt><trkpt lon="5.75808" lat="51.175459"><ele>22.8</ele><time>2022-06-05T06:13:40.000Z</time></trkpt><trkpt lon="5.758023" lat="51.175505"><ele>23</ele><time>2022-06-05T06:13:41.000Z</time></trkpt><trkpt lon="5.75797" lat="51.175551"><ele>23</ele><time>2022-06-05T06:13:42.000Z</time></trkpt><trkpt lon="5.757917" lat="51.175596"><ele>23</ele><time>2022-06-05T06:13:43.000Z</time></trkpt><trkpt lon="5.75787" lat="51.175639"><ele>23</ele><time>2022-06-05T06:13:44.000Z</time></trkpt><trkpt lon="5.757843" lat="51.175688"><ele>22.8</ele><time>2022-06-05T06:13:45.000Z</time></trkpt><trkpt lon="5.757847" lat="51.175737"><ele>22.8</ele><time>2022-06-05T06:13:46.000Z</time></trkpt><trkpt lon="5.757884" lat="51.175784"><ele>22.8</ele><time>2022-06-05T06:13:47.000Z</time></trkpt><trkpt lon="5.757948" lat="51.175826"><ele>22.8</ele><time>2022-06-05T06:13:48.000Z</time></trkpt><trkpt lon="5.758023" lat="51.175875"><ele>23</ele><time>2022-06-05T06:13:49.000Z</time></trkpt><trkpt lon="5.758095" lat="51.175925"><ele>23</ele><time>2022-06-05T06:13:50.000Z</time></trkpt><trkpt lon="5.758159" lat="51.175981"><ele>22.8</ele><time>2022-06-05T06:13:51.000Z</time></trkpt><trkpt lon="5.758216" lat="51.176042"><ele>22.8</ele><time>2022-06-05T06:13:52.000Z</time></trkpt><trkpt lon="5.758268" lat="51.176103"><ele>22.8</ele><time>2022-06-05T06:13:53.000Z</time></trkpt><trkpt lon="5.758317" lat="51.176168"><ele>22.8</ele><time>2022-06-05T06:13:54.000Z</time></trkpt><trkpt lon="5.758362" lat="51.176233"><ele>22.6</ele><time>2022-06-05T06:13:55.000Z</time></trkpt><trkpt lon="5.758402" lat="51.176301"><ele>22.6</ele><time>2022-06-05T06:13:56.000Z</time></trkpt><trkpt lon="5.758437" lat="51.17637"><ele>22.4</ele><time>2022-06-05T06:13:57.000Z</time></trkpt><trkpt lon="5.75847" lat="51.176439"><ele>22.4</ele><time>2022-06-05T06:13:58.000Z</time></trkpt><trkpt lon="5.758503" lat="51.176507"><ele>22.4</ele><time>2022-06-05T06:13:59.000Z</time></trkpt><trkpt lon="5.75854" lat="51.176576"><ele>22.2</ele><time>2022-06-05T06:14:00.000Z</time></trkpt><trkpt lon="5.758583" lat="51.176645"><ele>22</ele><time>2022-06-05T06:14:01.000Z</time></trkpt><trkpt lon="5.758631" lat="51.176706"><ele>22</ele><time>2022-06-05T06:14:02.000Z</time></trkpt><trkpt lon="5.758683" lat="51.176766"><ele>22</ele><time>2022-06-05T06:14:03.000Z</time></trkpt><trkpt lon="5.758736" lat="51.176827"><ele>21.8</ele><time>2022-06-05T06:14:04.000Z</time></trkpt><trkpt lon="5.758793" lat="51.176886"><ele>21.8</ele><time>2022-06-05T06:14:05.000Z</time></trkpt><trkpt lon="5.75885" lat="51.176947"><ele>21.8</ele><time>2022-06-05T06:14:06.000Z</time></trkpt><trkpt lon="5.758909" lat="51.177004"><ele>21.8</ele><time>2022-06-05T06:14:07.000Z</time></trkpt><trkpt lon="5.758968" lat="51.177065"><ele>21.6</ele><time>2022-06-05T06:14:08.000Z</time></trkpt><trkpt lon="5.759033" lat="51.177122"><ele>21.6</ele><time>2022-06-05T06:14:09.000Z</time></trkpt><trkpt lon="5.759111" lat="51.177172"><ele>21.6</ele><time>2022-06-05T06:14:10.000Z</time></trkpt><trkpt lon="5.759201" lat="51.177214"><ele>21.6</ele><time>2022-06-05T06:14:11.000Z</time></trkpt><trkpt lon="5.759295" lat="51.177253"><ele>21.8</ele><time>2022-06-05T06:14:12.000Z</time></trkpt><trkpt lon="5.759393" lat="51.177287"><ele>21.6</ele><time>2022-06-05T06:14:13.000Z</time></trkpt><trkpt lon="5.759491" lat="51.177317"><ele>21.8</ele><time>2022-06-05T06:14:14.000Z</time></trkpt><trkpt lon="5.759589" lat="51.177356"><ele>21.8</ele><time>2022-06-05T06:14:15.000Z</time></trkpt><trkpt lon="5.759684" lat="51.177386"><ele>21.8</ele><time>2022-06-05T06:14:16.000Z</time></trkpt><trkpt lon="5.759782" lat="51.177424"><ele>21.8</ele><time>2022-06-05T06:14:17.000Z</time></trkpt><trkpt lon="5.759878" lat="51.177459"><ele>21.8</ele><time>2022-06-05T06:14:18.000Z</time></trkpt><trkpt lon="5.759976" lat="51.177493"><ele>21.8</ele><time>2022-06-05T06:14:19.000Z</time></trkpt><trkpt lon="5.76007" lat="51.177531"><ele>21.8</ele><time>2022-06-05T06:14:20.000Z</time></trkpt><trkpt lon="5.760165" lat="51.177568"><ele>21.6</ele><time>2022-06-05T06:14:21.000Z</time></trkpt><trkpt lon="5.760264" lat="51.177603"><ele>21.6</ele><time>2022-06-05T06:14:22.000Z</time></trkpt><trkpt lon="5.760363" lat="51.177634"><ele>21.6</ele><time>2022-06-05T06:14:23.000Z</time></trkpt><trkpt lon="5.760464" lat="51.177665"><ele>21.6</ele><time>2022-06-05T06:14:24.000Z</time></trkpt><trkpt lon="5.760566" lat="51.177691"><ele>21.6</ele><time>2022-06-05T06:14:25.000Z</time></trkpt><trkpt lon="5.760671" lat="51.177714"><ele>21.6</ele><time>2022-06-05T06:14:26.000Z</time></trkpt><trkpt lon="5.760774" lat="51.177737"><ele>21.8</ele><time>2022-06-05T06:14:27.000Z</time></trkpt><trkpt lon="5.760882" lat="51.177757"><ele>21.8</ele><time>2022-06-05T06:14:28.000Z</time></trkpt><trkpt lon="5.760986" lat="51.177779"><ele>21.8</ele><time>2022-06-05T06:14:29.000Z</time></trkpt><trkpt lon="5.761091" lat="51.177799"><ele>21.8</ele><time>2022-06-05T06:14:30.000Z</time></trkpt><trkpt lon="5.761196" lat="51.177818"><ele>21.8</ele><time>2022-06-05T06:14:31.000Z</time></trkpt><trkpt lon="5.761301" lat="51.17784"><ele>21.8</ele><time>2022-06-05T06:14:32.000Z</time></trkpt><trkpt lon="5.761404" lat="51.17786"><ele>21.8</ele><time>2022-06-05T06:14:33.000Z</time></trkpt><trkpt lon="5.761509" lat="51.177883"><ele>21.8</ele><time>2022-06-05T06:14:34.000Z</time></trkpt><trkpt lon="5.761611" lat="51.177905"><ele>21.8</ele><time>2022-06-05T06:14:35.000Z</time></trkpt><trkpt lon="5.761713" lat="51.177932"><ele>21.8</ele><time>2022-06-05T06:14:36.000Z</time></trkpt><trkpt lon="5.761812" lat="51.177958"><ele>21.8</ele><time>2022-06-05T06:14:37.000Z</time></trkpt><trkpt lon="5.761912" lat="51.177985"><ele>21.8</ele><time>2022-06-05T06:14:38.000Z</time></trkpt><trkpt lon="5.762018" lat="51.178009"><ele>21.8</ele><time>2022-06-05T06:14:39.000Z</time></trkpt><trkpt lon="5.762122" lat="51.178031"><ele>21.8</ele><time>2022-06-05T06:14:40.000Z</time></trkpt><trkpt lon="5.762227" lat="51.178054"><ele>21.6</ele><time>2022-06-05T06:14:41.000Z</time></trkpt><trkpt lon="5.762332" lat="51.178077"><ele>21.6</ele><time>2022-06-05T06:14:42.000Z</time></trkpt><trkpt lon="5.762439" lat="51.178096"><ele>21.6</ele><time>2022-06-05T06:14:43.000Z</time></trkpt><trkpt lon="5.762549" lat="51.178108"><ele>21.6</ele><time>2022-06-05T06:14:44.000Z</time></trkpt><trkpt lon="5.762659" lat="51.178123"><ele>21.6</ele><time>2022-06-05T06:14:45.000Z</time></trkpt><trkpt lon="5.762766" lat="51.178131"><ele>21.6</ele><time>2022-06-05T06:14:46.000Z</time></trkpt><trkpt lon="5.762875" lat="51.178138"><ele>21.6</ele><time>2022-06-05T06:14:47.000Z</time></trkpt><trkpt lon="5.762985" lat="51.178146"><ele>21.6</ele><time>2022-06-05T06:14:48.000Z</time></trkpt><trkpt lon="5.763095" lat="51.178154"><ele>21.8</ele><time>2022-06-05T06:14:49.000Z</time></trkpt><trkpt lon="5.763203" lat="51.178161"><ele>21.8</ele><time>2022-06-05T06:14:50.000Z</time></trkpt><trkpt lon="5.763312" lat="51.178173"><ele>21.8</ele><time>2022-06-05T06:14:51.000Z</time></trkpt><trkpt lon="5.763407" lat="51.178183"><ele>21.6</ele><time>2022-06-05T06:14:52.000Z</time></trkpt><trkpt lon="5.763523" lat="51.178199"><ele>21.8</ele><time>2022-06-05T06:14:53.000Z</time></trkpt><trkpt lon="5.763628" lat="51.178222"><ele>21.8</ele><time>2022-06-05T06:14:54.000Z</time></trkpt><trkpt lon="5.763731" lat="51.178245"><ele>21.8</ele><time>2022-06-05T06:14:55.000Z</time></trkpt><trkpt lon="5.763833" lat="51.178267"><ele>21.6</ele><time>2022-06-05T06:14:56.000Z</time></trkpt><trkpt lon="5.763934" lat="51.178294"><ele>21.6</ele><time>2022-06-05T06:14:57.000Z</time></trkpt><trkpt lon="5.764033" lat="51.178321"><ele>21.6</ele><time>2022-06-05T06:14:58.000Z</time></trkpt><trkpt lon="5.764134" lat="51.178348"><ele>21.4</ele><time>2022-06-05T06:14:59.000Z</time></trkpt><trkpt lon="5.764236" lat="51.17837"><ele>21.4</ele><time>2022-06-05T06:15:00.000Z</time></trkpt><trkpt lon="5.764339" lat="51.17839"><ele>21.4</ele><time>2022-06-05T06:15:01.000Z</time></trkpt><trkpt lon="5.764445" lat="51.178402"><ele>21.4</ele><time>2022-06-05T06:15:02.000Z</time></trkpt><trkpt lon="5.764551" lat="51.178406"><ele>21.4</ele><time>2022-06-05T06:15:03.000Z</time></trkpt><trkpt lon="5.764655" lat="51.178395"><ele>21.4</ele><time>2022-06-05T06:15:04.000Z</time></trkpt><trkpt lon="5.764753" lat="51.178372"><ele>21.4</ele><time>2022-06-05T06:15:05.000Z</time></trkpt><trkpt lon="5.764844" lat="51.178335"><ele>21.6</ele><time>2022-06-05T06:15:06.000Z</time></trkpt><trkpt lon="5.764925" lat="51.178293"><ele>21.6</ele><time>2022-06-05T06:15:07.000Z</time></trkpt><trkpt lon="5.764997" lat="51.178239"><ele>21.8</ele><time>2022-06-05T06:15:08.000Z</time></trkpt><trkpt lon="5.765064" lat="51.17819"><ele>21.8</ele><time>2022-06-05T06:15:09.000Z</time></trkpt><trkpt lon="5.765127" lat="51.178136"><ele>21.8</ele><time>2022-06-05T06:15:10.000Z</time></trkpt><trkpt lon="5.765192" lat="51.178087"><ele>21.8</ele><time>2022-06-05T06:15:11.000Z</time></trkpt><trkpt lon="5.765256" lat="51.178037"><ele>21.8</ele><time>2022-06-05T06:15:12.000Z</time></trkpt><trkpt lon="5.765323" lat="51.177984"><ele>22</ele><time>2022-06-05T06:15:13.000Z</time></trkpt><trkpt lon="5.76539" lat="51.177931"><ele>22</ele><time>2022-06-05T06:15:14.000Z</time></trkpt><trkpt lon="5.765459" lat="51.177884"><ele>22</ele><time>2022-06-05T06:15:15.000Z</time></trkpt><trkpt lon="5.765531" lat="51.177836"><ele>22</ele><time>2022-06-05T06:15:16.000Z</time></trkpt><trkpt lon="5.765609" lat="51.177786"><ele>22</ele><time>2022-06-05T06:15:17.000Z</time></trkpt><trkpt lon="5.765688" lat="51.177739"><ele>22</ele><time>2022-06-05T06:15:18.000Z</time></trkpt><trkpt lon="5.765768" lat="51.177693"><ele>22</ele><time>2022-06-05T06:15:19.000Z</time></trkpt><trkpt lon="5.765851" lat="51.177652"><ele>22</ele><time>2022-06-05T06:15:20.000Z</time></trkpt><trkpt lon="5.765937" lat="51.177614"><ele>22</ele><time>2022-06-05T06:15:21.000Z</time></trkpt><trkpt lon="5.766033" lat="51.177587"><ele>21.8</ele><time>2022-06-05T06:15:22.000Z</time></trkpt><trkpt lon="5.766138" lat="51.177567"><ele>21.8</ele><time>2022-06-05T06:15:23.000Z</time></trkpt><trkpt lon="5.766245" lat="51.177563"><ele>21.8</ele><time>2022-06-05T06:15:24.000Z</time></trkpt><trkpt lon="5.76635" lat="51.177577"><ele>21.8</ele><time>2022-06-05T06:15:25.000Z</time></trkpt><trkpt lon="5.766454" lat="51.177604"><ele>21.8</ele><time>2022-06-05T06:15:26.000Z</time></trkpt><trkpt lon="5.76656" lat="51.177634"><ele>21.8</ele><time>2022-06-05T06:15:27.000Z</time></trkpt><trkpt lon="5.766662" lat="51.177665"><ele>21.8</ele><time>2022-06-05T06:15:28.000Z</time></trkpt><trkpt lon="5.766763" lat="51.177699"><ele>21.8</ele><time>2022-06-05T06:15:29.000Z</time></trkpt><trkpt lon="5.766864" lat="51.177729"><ele>21.6</ele><time>2022-06-05T06:15:30.000Z</time></trkpt><trkpt lon="5.766962" lat="51.177764"><ele>21.6</ele><time>2022-06-05T06:15:31.000Z</time></trkpt><trkpt lon="5.767058" lat="51.177795"><ele>21.8</ele><time>2022-06-05T06:15:32.000Z</time></trkpt><trkpt lon="5.767152" lat="51.177828"><ele>21.8</ele><time>2022-06-05T06:15:33.000Z</time></trkpt><trkpt lon="5.767248" lat="51.177856"><ele>21.8</ele><time>2022-06-05T06:15:34.000Z</time></trkpt><trkpt lon="5.76734" lat="51.17789"><ele>22</ele><time>2022-06-05T06:15:35.000Z</time></trkpt><trkpt lon="5.767432" lat="51.177917"><ele>22</ele><time>2022-06-05T06:15:36.000Z</time></trkpt><trkpt lon="5.767525" lat="51.177947"><ele>22</ele><time>2022-06-05T06:15:37.000Z</time></trkpt><trkpt lon="5.767619" lat="51.177978"><ele>22</ele><time>2022-06-05T06:15:38.000Z</time></trkpt><trkpt lon="5.767712" lat="51.178004"><ele>22</ele><time>2022-06-05T06:15:39.000Z</time></trkpt><trkpt lon="5.767808" lat="51.178035"><ele>22</ele><time>2022-06-05T06:15:40.000Z</time></trkpt><trkpt lon="5.767897" lat="51.178065"><ele>21.8</ele><time>2022-06-05T06:15:41.000Z</time></trkpt><trkpt lon="5.767991" lat="51.178096"><ele>21.8</ele><time>2022-06-05T06:15:42.000Z</time></trkpt><trkpt lon="5.768082" lat="51.178123"><ele>21.8</ele><time>2022-06-05T06:15:43.000Z</time></trkpt><trkpt lon="5.768173" lat="51.178153"><ele>21.8</ele><time>2022-06-05T06:15:44.000Z</time></trkpt><trkpt lon="5.768265" lat="51.178183"><ele>21.6</ele><time>2022-06-05T06:15:45.000Z</time></trkpt><trkpt lon="5.768354" lat="51.178218"><ele>21.6</ele><time>2022-06-05T06:15:46.000Z</time></trkpt><trkpt lon="5.768434" lat="51.178259"><ele>21.6</ele><time>2022-06-05T06:15:47.000Z</time></trkpt><trkpt lon="5.768509" lat="51.178305"><ele>21.8</ele><time>2022-06-05T06:15:48.000Z</time></trkpt><trkpt lon="5.768578" lat="51.178355"><ele>21.8</ele><time>2022-06-05T06:15:49.000Z</time></trkpt><trkpt lon="5.768644" lat="51.178404"><ele>21.6</ele><time>2022-06-05T06:15:50.000Z</time></trkpt><trkpt lon="5.768711" lat="51.178454"><ele>21.6</ele><time>2022-06-05T06:15:51.000Z</time></trkpt><trkpt lon="5.768777" lat="51.178508"><ele>21.6</ele><time>2022-06-05T06:15:52.000Z</time></trkpt><trkpt lon="5.768843" lat="51.178561"><ele>21.4</ele><time>2022-06-05T06:15:53.000Z</time></trkpt><trkpt lon="5.768908" lat="51.178614"><ele>21.4</ele><time>2022-06-05T06:15:54.000Z</time></trkpt><trkpt lon="5.768976" lat="51.178671"><ele>21.4</ele><time>2022-06-05T06:15:55.000Z</time></trkpt><trkpt lon="5.769043" lat="51.178725"><ele>21.4</ele><time>2022-06-05T06:15:56.000Z</time></trkpt><trkpt lon="5.769109" lat="51.178778"><ele>21.4</ele><time>2022-06-05T06:15:57.000Z</time></trkpt><trkpt lon="5.769176" lat="51.178831"><ele>21.6</ele><time>2022-06-05T06:15:58.000Z</time></trkpt><trkpt lon="5.769244" lat="51.178885"><ele>21.6</ele><time>2022-06-05T06:15:59.000Z</time></trkpt><trkpt lon="5.769309" lat="51.178934"><ele>21.4</ele><time>2022-06-05T06:16:00.000Z</time></trkpt><trkpt lon="5.769376" lat="51.178987"><ele>21.4</ele><time>2022-06-05T06:16:01.000Z</time></trkpt><trkpt lon="5.769445" lat="51.179041"><ele>21.4</ele><time>2022-06-05T06:16:02.000Z</time></trkpt><trkpt lon="5.769511" lat="51.179094"><ele>21.4</ele><time>2022-06-05T06:16:03.000Z</time></trkpt><trkpt lon="5.769577" lat="51.179144"><ele>21.4</ele><time>2022-06-05T06:16:04.000Z</time></trkpt><trkpt lon="5.76964" lat="51.179193"><ele>21.2</ele><time>2022-06-05T06:16:05.000Z</time></trkpt><trkpt lon="5.769706" lat="51.179243"><ele>21</ele><time>2022-06-05T06:16:06.000Z</time></trkpt><trkpt lon="5.769774" lat="51.179293"><ele>21</ele><time>2022-06-05T06:16:07.000Z</time></trkpt><trkpt lon="5.76984" lat="51.179343"><ele>21</ele><time>2022-06-05T06:16:08.000Z</time></trkpt><trkpt lon="5.769905" lat="51.179389"><ele>21</ele><time>2022-06-05T06:16:09.000Z</time></trkpt><trkpt lon="5.76997" lat="51.179442"><ele>21</ele><time>2022-06-05T06:16:10.000Z</time></trkpt><trkpt lon="5.770035" lat="51.179491"><ele>21</ele><time>2022-06-05T06:16:11.000Z</time></trkpt><trkpt lon="5.770101" lat="51.179541"><ele>21</ele><time>2022-06-05T06:16:12.000Z</time></trkpt><trkpt lon="5.770169" lat="51.17959"><ele>21</ele><time>2022-06-05T06:16:13.000Z</time></trkpt><trkpt lon="5.770238" lat="51.17964"><ele>21</ele><time>2022-06-05T06:16:14.000Z</time></trkpt><trkpt lon="5.770304" lat="51.179693"><ele>21</ele><time>2022-06-05T06:16:15.000Z</time></trkpt><trkpt lon="5.770374" lat="51.179747"><ele>21</ele><time>2022-06-05T06:16:16.000Z</time></trkpt><trkpt lon="5.770443" lat="51.179801"><ele>20.8</ele><time>2022-06-05T06:16:17.000Z</time></trkpt><trkpt lon="5.770511" lat="51.179853"><ele>20.8</ele><time>2022-06-05T06:16:18.000Z</time></trkpt><trkpt lon="5.770579" lat="51.179907"><ele>20.8</ele><time>2022-06-05T06:16:19.000Z</time></trkpt><trkpt lon="5.770649" lat="51.17996"><ele>20.6</ele><time>2022-06-05T06:16:20.000Z</time></trkpt><trkpt lon="5.770718" lat="51.18001"><ele>20.6</ele><time>2022-06-05T06:16:21.000Z</time></trkpt><trkpt lon="5.770786" lat="51.180063"><ele>20.6</ele><time>2022-06-05T06:16:22.000Z</time></trkpt><trkpt lon="5.770852" lat="51.180111"><ele>20.6</ele><time>2022-06-05T06:16:23.000Z</time></trkpt><trkpt lon="5.77092" lat="51.180166"><ele>20.6</ele><time>2022-06-05T06:16:24.000Z</time></trkpt><trkpt lon="5.770986" lat="51.180216"><ele>20.6</ele><time>2022-06-05T06:16:25.000Z</time></trkpt><trkpt lon="5.771051" lat="51.180266"><ele>20.6</ele><time>2022-06-05T06:16:26.000Z</time></trkpt><trkpt lon="5.771116" lat="51.180314"><ele>20.8</ele><time>2022-06-05T06:16:27.000Z</time></trkpt><trkpt lon="5.771183" lat="51.180365"><ele>20.8</ele><time>2022-06-05T06:16:28.000Z</time></trkpt><trkpt lon="5.771248" lat="51.180414"><ele>21</ele><time>2022-06-05T06:16:29.000Z</time></trkpt><trkpt lon="5.771315" lat="51.180468"><ele>21.2</ele><time>2022-06-05T06:16:30.000Z</time></trkpt><trkpt lon="5.771378" lat="51.180516"><ele>21.4</ele><time>2022-06-05T06:16:31.000Z</time></trkpt><trkpt lon="5.771444" lat="51.180567"><ele>21.4</ele><time>2022-06-05T06:16:32.000Z</time></trkpt><trkpt lon="5.771511" lat="51.180617"><ele>21.6</ele><time>2022-06-05T06:16:33.000Z</time></trkpt><trkpt lon="5.771577" lat="51.18067"><ele>21.6</ele><time>2022-06-05T06:16:34.000Z</time></trkpt><trkpt lon="5.771643" lat="51.180723"><ele>21.6</ele><time>2022-06-05T06:16:35.000Z</time></trkpt><trkpt lon="5.771708" lat="51.180773"><ele>21.6</ele><time>2022-06-05T06:16:36.000Z</time></trkpt><trkpt lon="5.771773" lat="51.180827"><ele>21.6</ele><time>2022-06-05T06:16:37.000Z</time></trkpt><trkpt lon="5.771839" lat="51.180876"><ele>21.6</ele><time>2022-06-05T06:16:38.000Z</time></trkpt><trkpt lon="5.771907" lat="51.18093"><ele>21.4</ele><time>2022-06-05T06:16:39.000Z</time></trkpt><trkpt lon="5.771977" lat="51.180979"><ele>21.6</ele><time>2022-06-05T06:16:40.000Z</time></trkpt><trkpt lon="5.772048" lat="51.181025"><ele>21.6</ele><time>2022-06-05T06:16:41.000Z</time></trkpt><trkpt lon="5.772123" lat="51.181075"><ele>21.8</ele><time>2022-06-05T06:16:42.000Z</time></trkpt><trkpt lon="5.772199" lat="51.18112"><ele>21.6</ele><time>2022-06-05T06:16:43.000Z</time></trkpt><trkpt lon="5.772281" lat="51.181162"><ele>21.8</ele><time>2022-06-05T06:16:44.000Z</time></trkpt><trkpt lon="5.772364" lat="51.181204"><ele>21.8</ele><time>2022-06-05T06:16:45.000Z</time></trkpt><trkpt lon="5.772451" lat="51.181246"><ele>21.8</ele><time>2022-06-05T06:16:46.000Z</time></trkpt><trkpt lon="5.772543" lat="51.181292"><ele>21.8</ele><time>2022-06-05T06:16:47.000Z</time></trkpt><trkpt lon="5.772639" lat="51.181334"><ele>21.8</ele><time>2022-06-05T06:16:48.000Z</time></trkpt><trkpt lon="5.772737" lat="51.18138"><ele>21.8</ele><time>2022-06-05T06:16:49.000Z</time></trkpt><trkpt lon="5.772834" lat="51.181425"><ele>21.8</ele><time>2022-06-05T06:16:50.000Z</time></trkpt><trkpt lon="5.772942" lat="51.181471"><ele>21.8</ele><time>2022-06-05T06:16:51.000Z</time></trkpt><trkpt lon="5.773051" lat="51.181521"><ele>21.8</ele><time>2022-06-05T06:16:52.000Z</time></trkpt><trkpt lon="5.773165" lat="51.181574"><ele>21.8</ele><time>2022-06-05T06:16:53.000Z</time></trkpt><trkpt lon="5.773291" lat="51.18163"><ele>21.6</ele><time>2022-06-05T06:16:54.000Z</time></trkpt><trkpt lon="5.773415" lat="51.181688"><ele>21.2</ele><time>2022-06-05T06:16:55.000Z</time></trkpt><trkpt lon="5.77353" lat="51.181749"><ele>21</ele><time>2022-06-05T06:16:56.000Z</time></trkpt><trkpt lon="5.773651" lat="51.18181"><ele>21</ele><time>2022-06-05T06:16:57.000Z</time></trkpt><trkpt lon="5.773763" lat="51.181864"><ele>21.2</ele><time>2022-06-05T06:16:58.000Z</time></trkpt><trkpt lon="5.773872" lat="51.181914"><ele>21.4</ele><time>2022-06-05T06:16:59.000Z</time></trkpt><trkpt lon="5.773978" lat="51.181963"><ele>21.2</ele><time>2022-06-05T06:17:00.000Z</time></trkpt><trkpt lon="5.77408" lat="51.182013"><ele>21</ele><time>2022-06-05T06:17:01.000Z</time></trkpt><trkpt lon="5.774176" lat="51.182059"><ele>20.8</ele><time>2022-06-05T06:17:02.000Z</time></trkpt><trkpt lon="5.774267" lat="51.182105"><ele>20.8</ele><time>2022-06-05T06:17:03.000Z</time></trkpt><trkpt lon="5.774358" lat="51.182147"><ele>20.6</ele><time>2022-06-05T06:17:04.000Z</time></trkpt><trkpt lon="5.774449" lat="51.182189"><ele>20.6</ele><time>2022-06-05T06:17:05.000Z</time></trkpt><trkpt lon="5.774536" lat="51.182231"><ele>20.6</ele><time>2022-06-05T06:17:06.000Z</time></trkpt><trkpt lon="5.774619" lat="51.182269"><ele>20.6</ele><time>2022-06-05T06:17:07.000Z</time></trkpt><trkpt lon="5.774701" lat="51.182307"><ele>20.6</ele><time>2022-06-05T06:17:08.000Z</time></trkpt><trkpt lon="5.77478" lat="51.182349"><ele>20.8</ele><time>2022-06-05T06:17:09.000Z</time></trkpt><trkpt lon="5.774864" lat="51.182387"><ele>20.8</ele><time>2022-06-05T06:17:10.000Z</time></trkpt><trkpt lon="5.774942" lat="51.182421"><ele>21</ele><time>2022-06-05T06:17:11.000Z</time></trkpt><trkpt lon="5.77502" lat="51.182458"><ele>21</ele><time>2022-06-05T06:17:12.000Z</time></trkpt><trkpt lon="5.775102" lat="51.182494"><ele>21.2</ele><time>2022-06-05T06:17:13.000Z</time></trkpt><trkpt lon="5.775182" lat="51.182531"><ele>21.2</ele><time>2022-06-05T06:17:14.000Z</time></trkpt><trkpt lon="5.775269" lat="51.182574"><ele>21.4</ele><time>2022-06-05T06:17:15.000Z</time></trkpt><trkpt lon="5.775351" lat="51.182616"><ele>21.2</ele><time>2022-06-05T06:17:16.000Z</time></trkpt><trkpt lon="5.775432" lat="51.182654"><ele>21.4</ele><time>2022-06-05T06:17:17.000Z</time></trkpt><trkpt lon="5.775519" lat="51.182696"><ele>21.4</ele><time>2022-06-05T06:17:18.000Z</time></trkpt><trkpt lon="5.775607" lat="51.182734"><ele>21.4</ele><time>2022-06-05T06:17:19.000Z</time></trkpt><trkpt lon="5.775691" lat="51.182772"><ele>21.4</ele><time>2022-06-05T06:17:20.000Z</time></trkpt><trkpt lon="5.775779" lat="51.18281"><ele>21.2</ele><time>2022-06-05T06:17:21.000Z</time></trkpt><trkpt lon="5.775864" lat="51.182852"><ele>21.2</ele><time>2022-06-05T06:17:22.000Z</time></trkpt><trkpt lon="5.775947" lat="51.182891"><ele>21</ele><time>2022-06-05T06:17:23.000Z</time></trkpt><trkpt lon="5.776031" lat="51.182929"><ele>21</ele><time>2022-06-05T06:17:24.000Z</time></trkpt><trkpt lon="5.776109" lat="51.182967"><ele>21</ele><time>2022-06-05T06:17:25.000Z</time></trkpt><trkpt lon="5.776187" lat="51.183005"><ele>20.8</ele><time>2022-06-05T06:17:26.000Z</time></trkpt><trkpt lon="5.776264" lat="51.183043"><ele>20.8</ele><time>2022-06-05T06:17:27.000Z</time></trkpt><trkpt lon="5.776341" lat="51.183078"><ele>20.8</ele><time>2022-06-05T06:17:28.000Z</time></trkpt><trkpt lon="5.776421" lat="51.183116"><ele>20.6</ele><time>2022-06-05T06:17:29.000Z</time></trkpt><trkpt lon="5.776501" lat="51.183154"><ele>20.6</ele><time>2022-06-05T06:17:30.000Z</time></trkpt><trkpt lon="5.77658" lat="51.183192"><ele>20.6</ele><time>2022-06-05T06:17:31.000Z</time></trkpt><trkpt lon="5.776664" lat="51.18323"><ele>20.8</ele><time>2022-06-05T06:17:32.000Z</time></trkpt><trkpt lon="5.776745" lat="51.183268"><ele>20.6</ele><time>2022-06-05T06:17:33.000Z</time></trkpt><trkpt lon="5.776829" lat="51.183307"><ele>20.6</ele><time>2022-06-05T06:17:34.000Z</time></trkpt><trkpt lon="5.776914" lat="51.183345"><ele>20.6</ele><time>2022-06-05T06:17:35.000Z</time></trkpt><trkpt lon="5.776995" lat="51.183383"><ele>20.4</ele><time>2022-06-05T06:17:36.000Z</time></trkpt><trkpt lon="5.777076" lat="51.18342"><ele>20.4</ele><time>2022-06-05T06:17:37.000Z</time></trkpt><trkpt lon="5.777159" lat="51.183459"><ele>20.2</ele><time>2022-06-05T06:17:38.000Z</time></trkpt><trkpt lon="5.777242" lat="51.183494"><ele>20.2</ele><time>2022-06-05T06:17:39.000Z</time></trkpt><trkpt lon="5.777321" lat="51.183531"><ele>20.2</ele><time>2022-06-05T06:17:40.000Z</time></trkpt><trkpt lon="5.777402" lat="51.18357"><ele>20.2</ele><time>2022-06-05T06:17:41.000Z</time></trkpt><trkpt lon="5.777482" lat="51.183604"><ele>20.4</ele><time>2022-06-05T06:17:42.000Z</time></trkpt><trkpt lon="5.777561" lat="51.183642"><ele>20.4</ele><time>2022-06-05T06:17:43.000Z</time></trkpt><trkpt lon="5.777639" lat="51.18368"><ele>20.4</ele><time>2022-06-05T06:17:44.000Z</time></trkpt><trkpt lon="5.777716" lat="51.183715"><ele>20.4</ele><time>2022-06-05T06:17:45.000Z</time></trkpt><trkpt lon="5.777788" lat="51.183745"><ele>20.6</ele><time>2022-06-05T06:17:46.000Z</time></trkpt><trkpt lon="5.777852" lat="51.183776"><ele>20.6</ele><time>2022-06-05T06:17:47.000Z</time></trkpt><trkpt lon="5.77791" lat="51.183807"><ele>20.6</ele><time>2022-06-05T06:17:48.000Z</time></trkpt><trkpt lon="5.777963" lat="51.183833"><ele>20.6</ele><time>2022-06-05T06:17:49.000Z</time></trkpt><trkpt lon="5.778011" lat="51.183856"><ele>20.6</ele><time>2022-06-05T06:17:50.000Z</time></trkpt><trkpt lon="5.77805" lat="51.183878"><ele>20.6</ele><time>2022-06-05T06:17:51.000Z</time></trkpt><trkpt lon="5.778078" lat="51.183905"><ele>20.6</ele><time>2022-06-05T06:17:52.000Z</time></trkpt><trkpt lon="5.77808" lat="51.183929"><ele>20.4</ele><time>2022-06-05T06:17:53.000Z</time></trkpt><trkpt lon="5.778049" lat="51.183958"><ele>20.4</ele><time>2022-06-05T06:17:54.000Z</time></trkpt><trkpt lon="5.777992" lat="51.183997"><ele>20.4</ele><time>2022-06-05T06:17:55.000Z</time></trkpt><trkpt lon="5.777927" lat="51.184039"><ele>20.2</ele><time>2022-06-05T06:17:56.000Z</time></trkpt><trkpt lon="5.777861" lat="51.184076"><ele>20.2</ele><time>2022-06-05T06:17:57.000Z</time></trkpt><trkpt lon="5.77779" lat="51.184122"><ele>20</ele><time>2022-06-05T06:17:58.000Z</time></trkpt><trkpt lon="5.777718" lat="51.184168"><ele>20</ele><time>2022-06-05T06:17:59.000Z</time></trkpt><trkpt lon="5.777643" lat="51.184218"><ele>20</ele><time>2022-06-05T06:18:00.000Z</time></trkpt><trkpt lon="5.777569" lat="51.184263"><ele>19.8</ele><time>2022-06-05T06:18:01.000Z</time></trkpt><trkpt lon="5.777493" lat="51.184313"><ele>19.8</ele><time>2022-06-05T06:18:02.000Z</time></trkpt><trkpt lon="5.777416" lat="51.184366"><ele>19.8</ele><time>2022-06-05T06:18:03.000Z</time></trkpt><trkpt lon="5.777342" lat="51.184416"><ele>19.8</ele><time>2022-06-05T06:18:04.000Z</time></trkpt><trkpt lon="5.777267" lat="51.184469"><ele>19.6</ele><time>2022-06-05T06:18:05.000Z</time></trkpt><trkpt lon="5.777191" lat="51.184519"><ele>19.6</ele><time>2022-06-05T06:18:06.000Z</time></trkpt><trkpt lon="5.777114" lat="51.184572"><ele>19.6</ele><time>2022-06-05T06:18:07.000Z</time></trkpt><trkpt lon="5.777036" lat="51.184626"><ele>19.6</ele><time>2022-06-05T06:18:08.000Z</time></trkpt><trkpt lon="5.776959" lat="51.184676"><ele>19.6</ele><time>2022-06-05T06:18:09.000Z</time></trkpt><trkpt lon="5.776881" lat="51.184725"><ele>19.6</ele><time>2022-06-05T06:18:10.000Z</time></trkpt><trkpt lon="5.776806" lat="51.184779"><ele>19.6</ele><time>2022-06-05T06:18:11.000Z</time></trkpt><trkpt lon="5.776733" lat="51.184828"><ele>19.8</ele><time>2022-06-05T06:18:12.000Z</time></trkpt><trkpt lon="5.776661" lat="51.184874"><ele>19.8</ele><time>2022-06-05T06:18:13.000Z</time></trkpt><trkpt lon="5.776593" lat="51.18492"><ele>19.8</ele><time>2022-06-05T06:18:14.000Z</time></trkpt><trkpt lon="5.776527" lat="51.184966"><ele>19.8</ele><time>2022-06-05T06:18:15.000Z</time></trkpt><trkpt lon="5.776464" lat="51.185011"><ele>20</ele><time>2022-06-05T06:18:16.000Z</time></trkpt><trkpt lon="5.776403" lat="51.185052"><ele>20</ele><time>2022-06-05T06:18:17.000Z</time></trkpt><trkpt lon="5.776342" lat="51.185099"><ele>20</ele><time>2022-06-05T06:18:18.000Z</time></trkpt><trkpt lon="5.77629" lat="51.185141"><ele>20.2</ele><time>2022-06-05T06:18:19.000Z</time></trkpt><trkpt lon="5.776243" lat="51.185182"><ele>20.4</ele><time>2022-06-05T06:18:20.000Z</time></trkpt><trkpt lon="5.776201" lat="51.185221"><ele>20.4</ele><time>2022-06-05T06:18:21.000Z</time></trkpt><trkpt lon="5.776182" lat="51.185263"><ele>20.6</ele><time>2022-06-05T06:18:22.000Z</time></trkpt><trkpt lon="5.776193" lat="51.185305"><ele>20.6</ele><time>2022-06-05T06:18:23.000Z</time></trkpt><trkpt lon="5.776221" lat="51.185347"><ele>20.6</ele><time>2022-06-05T06:18:24.000Z</time></trkpt><trkpt lon="5.776257" lat="51.185393"><ele>20.8</ele><time>2022-06-05T06:18:25.000Z</time></trkpt><trkpt lon="5.776295" lat="51.185438"><ele>20.8</ele><time>2022-06-05T06:18:26.000Z</time></trkpt><trkpt lon="5.776335" lat="51.185488"><ele>20.8</ele><time>2022-06-05T06:18:27.000Z</time></trkpt><trkpt lon="5.776379" lat="51.185541"><ele>20.8</ele><time>2022-06-05T06:18:28.000Z</time></trkpt><trkpt lon="5.776423" lat="51.185595"><ele>20.8</ele><time>2022-06-05T06:18:29.000Z</time></trkpt><trkpt lon="5.776472" lat="51.185651"><ele>20.8</ele><time>2022-06-05T06:18:30.000Z</time></trkpt><trkpt lon="5.776521" lat="51.185705"><ele>20.8</ele><time>2022-06-05T06:18:31.000Z</time></trkpt><trkpt lon="5.776568" lat="51.185762"><ele>20.8</ele><time>2022-06-05T06:18:32.000Z</time></trkpt><trkpt lon="5.776617" lat="51.18582"><ele>20.8</ele><time>2022-06-05T06:18:33.000Z</time></trkpt><trkpt lon="5.776667" lat="51.185873"><ele>20.8</ele><time>2022-06-05T06:18:34.000Z</time></trkpt><trkpt lon="5.776715" lat="51.185927"><ele>20.8</ele><time>2022-06-05T06:18:35.000Z</time></trkpt><trkpt lon="5.77676" lat="51.185984"><ele>20.8</ele><time>2022-06-05T06:18:36.000Z</time></trkpt><trkpt lon="5.776802" lat="51.18604"><ele>20.8</ele><time>2022-06-05T06:18:37.000Z</time></trkpt><trkpt lon="5.776845" lat="51.186098"><ele>21</ele><time>2022-06-05T06:18:38.000Z</time></trkpt><trkpt lon="5.776889" lat="51.186152"><ele>20.8</ele><time>2022-06-05T06:18:39.000Z</time></trkpt><trkpt lon="5.776932" lat="51.186205"><ele>20.8</ele><time>2022-06-05T06:18:40.000Z</time></trkpt><trkpt lon="5.776972" lat="51.186258"><ele>20.8</ele><time>2022-06-05T06:18:41.000Z</time></trkpt><trkpt lon="5.777007" lat="51.186306"><ele>20.8</ele><time>2022-06-05T06:18:42.000Z</time></trkpt><trkpt lon="5.777048" lat="51.186364"><ele>20.8</ele><time>2022-06-05T06:18:43.000Z</time></trkpt><trkpt lon="5.77709" lat="51.186422"><ele>20.8</ele><time>2022-06-05T06:18:44.000Z</time></trkpt><trkpt lon="5.777136" lat="51.186476"><ele>20.6</ele><time>2022-06-05T06:18:45.000Z</time></trkpt><trkpt lon="5.777182" lat="51.186533"><ele>20.6</ele><time>2022-06-05T06:18:46.000Z</time></trkpt><trkpt lon="5.777227" lat="51.186586"><ele>20.6</ele><time>2022-06-05T06:18:47.000Z</time></trkpt><trkpt lon="5.777274" lat="51.186644"><ele>20.4</ele><time>2022-06-05T06:18:48.000Z</time></trkpt><trkpt lon="5.777317" lat="51.186701"><ele>20.4</ele><time>2022-06-05T06:18:49.000Z</time></trkpt><trkpt lon="5.77736" lat="51.186754"><ele>20.6</ele><time>2022-06-05T06:18:50.000Z</time></trkpt><trkpt lon="5.777405" lat="51.186811"><ele>20.6</ele><time>2022-06-05T06:18:51.000Z</time></trkpt><trkpt lon="5.777452" lat="51.186863"><ele>20.6</ele><time>2022-06-05T06:18:52.000Z</time></trkpt><trkpt lon="5.777503" lat="51.186921"><ele>20.8</ele><time>2022-06-05T06:18:53.000Z</time></trkpt><trkpt lon="5.777553" lat="51.186979"><ele>20.8</ele><time>2022-06-05T06:18:54.000Z</time></trkpt><trkpt lon="5.777602" lat="51.187037"><ele>20.8</ele><time>2022-06-05T06:18:55.000Z</time></trkpt><trkpt lon="5.777652" lat="51.18709"><ele>20.6</ele><time>2022-06-05T06:18:56.000Z</time></trkpt><trkpt lon="5.777698" lat="51.187146"><ele>20.6</ele><time>2022-06-05T06:18:57.000Z</time></trkpt><trkpt lon="5.777745" lat="51.187204"><ele>20.8</ele><time>2022-06-05T06:18:58.000Z</time></trkpt><trkpt lon="5.77779" lat="51.187262"><ele>20.8</ele><time>2022-06-05T06:18:59.000Z</time></trkpt><trkpt lon="5.777835" lat="51.187319"><ele>20.8</ele><time>2022-06-05T06:19:00.000Z</time></trkpt><trkpt lon="5.777882" lat="51.187376"><ele>20.8</ele><time>2022-06-05T06:19:01.000Z</time></trkpt><trkpt lon="5.77793" lat="51.18743"><ele>20.8</ele><time>2022-06-05T06:19:02.000Z</time></trkpt><trkpt lon="5.777975" lat="51.187486"><ele>21</ele><time>2022-06-05T06:19:03.000Z</time></trkpt><trkpt lon="5.778021" lat="51.187537"><ele>21</ele><time>2022-06-05T06:19:04.000Z</time></trkpt><trkpt lon="5.778066" lat="51.18759"><ele>21</ele><time>2022-06-05T06:19:05.000Z</time></trkpt><trkpt lon="5.77811" lat="51.187647"><ele>21</ele><time>2022-06-05T06:19:06.000Z</time></trkpt><trkpt lon="5.778156" lat="51.187703"><ele>21</ele><time>2022-06-05T06:19:07.000Z</time></trkpt><trkpt lon="5.778204" lat="51.187758"><ele>21.2</ele><time>2022-06-05T06:19:08.000Z</time></trkpt><trkpt lon="5.778251" lat="51.187812"><ele>21.2</ele><time>2022-06-05T06:19:09.000Z</time></trkpt><trkpt lon="5.7783" lat="51.187864"><ele>21.2</ele><time>2022-06-05T06:19:10.000Z</time></trkpt><trkpt lon="5.778351" lat="51.187921"><ele>21.4</ele><time>2022-06-05T06:19:11.000Z</time></trkpt><trkpt lon="5.778404" lat="51.187975"><ele>21.6</ele><time>2022-06-05T06:19:12.000Z</time></trkpt><trkpt lon="5.778455" lat="51.188035"><ele>21.6</ele><time>2022-06-05T06:19:13.000Z</time></trkpt><trkpt lon="5.778508" lat="51.188092"><ele>21.6</ele><time>2022-06-05T06:19:14.000Z</time></trkpt><trkpt lon="5.778562" lat="51.188149"><ele>21.6</ele><time>2022-06-05T06:19:15.000Z</time></trkpt><trkpt lon="5.778616" lat="51.188211"><ele>21.6</ele><time>2022-06-05T06:19:16.000Z</time></trkpt><trkpt lon="5.778668" lat="51.188276"><ele>21.8</ele><time>2022-06-05T06:19:17.000Z</time></trkpt><trkpt lon="5.778717" lat="51.188333"><ele>21.8</ele><time>2022-06-05T06:19:18.000Z</time></trkpt><trkpt lon="5.77876" lat="51.188394"><ele>21.8</ele><time>2022-06-05T06:19:19.000Z</time></trkpt><trkpt lon="5.778805" lat="51.188448"><ele>21.8</ele><time>2022-06-05T06:19:20.000Z</time></trkpt><trkpt lon="5.778849" lat="51.188505"><ele>21.8</ele><time>2022-06-05T06:19:21.000Z</time></trkpt><trkpt lon="5.778887" lat="51.188566"><ele>21.8</ele><time>2022-06-05T06:19:22.000Z</time></trkpt><trkpt lon="5.778921" lat="51.188631"><ele>21.6</ele><time>2022-06-05T06:19:23.000Z</time></trkpt><trkpt lon="5.778947" lat="51.188696"><ele>21.4</ele><time>2022-06-05T06:19:24.000Z</time></trkpt><trkpt lon="5.778969" lat="51.188764"><ele>21.2</ele><time>2022-06-05T06:19:25.000Z</time></trkpt><trkpt lon="5.778985" lat="51.18883"><ele>21</ele><time>2022-06-05T06:19:26.000Z</time></trkpt><trkpt lon="5.778995" lat="51.188899"><ele>21</ele><time>2022-06-05T06:19:27.000Z</time></trkpt><trkpt lon="5.779003" lat="51.188963"><ele>21</ele><time>2022-06-05T06:19:28.000Z</time></trkpt><trkpt lon="5.779011" lat="51.189027"><ele>21</ele><time>2022-06-05T06:19:29.000Z</time></trkpt><trkpt lon="5.779015" lat="51.189088"><ele>21</ele><time>2022-06-05T06:19:30.000Z</time></trkpt><trkpt lon="5.779018" lat="51.189146"><ele>21</ele><time>2022-06-05T06:19:31.000Z</time></trkpt><trkpt lon="5.779023" lat="51.189202"><ele>21</ele><time>2022-06-05T06:19:32.000Z</time></trkpt><trkpt lon="5.779028" lat="51.189261"><ele>21</ele><time>2022-06-05T06:19:33.000Z</time></trkpt><trkpt lon="5.779033" lat="51.189322"><ele>21</ele><time>2022-06-05T06:19:34.000Z</time></trkpt><trkpt lon="5.779043" lat="51.189386"><ele>21</ele><time>2022-06-05T06:19:35.000Z</time></trkpt><trkpt lon="5.779055" lat="51.18945"><ele>21</ele><time>2022-06-05T06:19:36.000Z</time></trkpt><trkpt lon="5.779063" lat="51.189519"><ele>21</ele><time>2022-06-05T06:19:37.000Z</time></trkpt><trkpt lon="5.779071" lat="51.189592"><ele>21</ele><time>2022-06-05T06:19:38.000Z</time></trkpt><trkpt lon="5.77908" lat="51.189661"><ele>21</ele><time>2022-06-05T06:19:39.000Z</time></trkpt><trkpt lon="5.779086" lat="51.189733"><ele>21</ele><time>2022-06-05T06:19:40.000Z</time></trkpt><trkpt lon="5.77909" lat="51.189802"><ele>21</ele><time>2022-06-05T06:19:41.000Z</time></trkpt><trkpt lon="5.779087" lat="51.189869"><ele>21</ele><time>2022-06-05T06:19:42.000Z</time></trkpt><trkpt lon="5.779079" lat="51.189939"><ele>21</ele><time>2022-06-05T06:19:43.000Z</time></trkpt><trkpt lon="5.779064" lat="51.190004"><ele>20.8</ele><time>2022-06-05T06:19:44.000Z</time></trkpt><trkpt lon="5.779042" lat="51.190069"><ele>20.8</ele><time>2022-06-05T06:19:45.000Z</time></trkpt><trkpt lon="5.779013" lat="51.190134"><ele>20.8</ele><time>2022-06-05T06:19:46.000Z</time></trkpt><trkpt lon="5.778973" lat="51.190195"><ele>20.8</ele><time>2022-06-05T06:19:47.000Z</time></trkpt><trkpt lon="5.778929" lat="51.19026"><ele>20.8</ele><time>2022-06-05T06:19:48.000Z</time></trkpt><trkpt lon="5.778878" lat="51.190317"><ele>21</ele><time>2022-06-05T06:19:49.000Z</time></trkpt><trkpt lon="5.778823" lat="51.190374"><ele>20.8</ele><time>2022-06-05T06:19:50.000Z</time></trkpt><trkpt lon="5.778762" lat="51.19043"><ele>20.8</ele><time>2022-06-05T06:19:51.000Z</time></trkpt><trkpt lon="5.778694" lat="51.190481"><ele>20.8</ele><time>2022-06-05T06:19:52.000Z</time></trkpt><trkpt lon="5.778628" lat="51.190534"><ele>21</ele><time>2022-06-05T06:19:53.000Z</time></trkpt><trkpt lon="5.778559" lat="51.190584"><ele>21</ele><time>2022-06-05T06:19:54.000Z</time></trkpt><trkpt lon="5.778486" lat="51.190634"><ele>20.8</ele><time>2022-06-05T06:19:55.000Z</time></trkpt><trkpt lon="5.778412" lat="51.190679"><ele>20.8</ele><time>2022-06-05T06:19:56.000Z</time></trkpt><trkpt lon="5.778334" lat="51.190726"><ele>20.8</ele><time>2022-06-05T06:19:57.000Z</time></trkpt><trkpt lon="5.778258" lat="51.190771"><ele>20.6</ele><time>2022-06-05T06:19:58.000Z</time></trkpt><trkpt lon="5.778171" lat="51.190814"><ele>20.6</ele><time>2022-06-05T06:19:59.000Z</time></trkpt><trkpt lon="5.778082" lat="51.190852"><ele>20.6</ele><time>2022-06-05T06:20:00.000Z</time></trkpt><trkpt lon="5.777987" lat="51.190893"><ele>20.8</ele><time>2022-06-05T06:20:01.000Z</time></trkpt><trkpt lon="5.777894" lat="51.190932"><ele>20.8</ele><time>2022-06-05T06:20:02.000Z</time></trkpt><trkpt lon="5.7778" lat="51.190966"><ele>20.8</ele><time>2022-06-05T06:20:03.000Z</time></trkpt><trkpt lon="5.777705" lat="51.191001"><ele>20.8</ele><time>2022-06-05T06:20:04.000Z</time></trkpt><trkpt lon="5.777612" lat="51.191038"><ele>20.8</ele><time>2022-06-05T06:20:05.000Z</time></trkpt><trkpt lon="5.777518" lat="51.191077"><ele>20.8</ele><time>2022-06-05T06:20:06.000Z</time></trkpt><trkpt lon="5.777427" lat="51.191119"><ele>21</ele><time>2022-06-05T06:20:07.000Z</time></trkpt><trkpt lon="5.777334" lat="51.191157"><ele>21</ele><time>2022-06-05T06:20:08.000Z</time></trkpt><trkpt lon="5.777245" lat="51.191199"><ele>21.2</ele><time>2022-06-05T06:20:09.000Z</time></trkpt><trkpt lon="5.777158" lat="51.191241"><ele>21.2</ele><time>2022-06-05T06:20:10.000Z</time></trkpt><trkpt lon="5.777073" lat="51.191283"><ele>21.2</ele><time>2022-06-05T06:20:11.000Z</time></trkpt><trkpt lon="5.776988" lat="51.191325"><ele>21.4</ele><time>2022-06-05T06:20:12.000Z</time></trkpt><trkpt lon="5.776906" lat="51.19137"><ele>21.4</ele><time>2022-06-05T06:20:13.000Z</time></trkpt><trkpt lon="5.776825" lat="51.191416"><ele>21.2</ele><time>2022-06-05T06:20:14.000Z</time></trkpt><trkpt lon="5.776741" lat="51.191462"><ele>21.2</ele><time>2022-06-05T06:20:15.000Z</time></trkpt><trkpt lon="5.776658" lat="51.191504"><ele>21.2</ele><time>2022-06-05T06:20:16.000Z</time></trkpt><trkpt lon="5.776575" lat="51.191548"><ele>21.2</ele><time>2022-06-05T06:20:17.000Z</time></trkpt><trkpt lon="5.776488" lat="51.191596"><ele>21.2</ele><time>2022-06-05T06:20:18.000Z</time></trkpt><trkpt lon="5.7764" lat="51.191638"><ele>21.4</ele><time>2022-06-05T06:20:19.000Z</time></trkpt><trkpt lon="5.776312" lat="51.191687"><ele>21.4</ele><time>2022-06-05T06:20:20.000Z</time></trkpt><trkpt lon="5.776224" lat="51.191729"><ele>21.6</ele><time>2022-06-05T06:20:21.000Z</time></trkpt><trkpt lon="5.776137" lat="51.191778"><ele>21.6</ele><time>2022-06-05T06:20:22.000Z</time></trkpt><trkpt lon="5.776047" lat="51.191821"><ele>21.6</ele><time>2022-06-05T06:20:23.000Z</time></trkpt><trkpt lon="5.775959" lat="51.191862"><ele>21.6</ele><time>2022-06-05T06:20:24.000Z</time></trkpt><trkpt lon="5.775873" lat="51.191908"><ele>21.6</ele><time>2022-06-05T06:20:25.000Z</time></trkpt><trkpt lon="5.775788" lat="51.19195"><ele>21.6</ele><time>2022-06-05T06:20:26.000Z</time></trkpt><trkpt lon="5.775707" lat="51.191994"><ele>21.6</ele><time>2022-06-05T06:20:27.000Z</time></trkpt><trkpt lon="5.775619" lat="51.192042"><ele>21.6</ele><time>2022-06-05T06:20:28.000Z</time></trkpt><trkpt lon="5.775536" lat="51.192084"><ele>21.6</ele><time>2022-06-05T06:20:29.000Z</time></trkpt><trkpt lon="5.775451" lat="51.192133"><ele>21.4</ele><time>2022-06-05T06:20:30.000Z</time></trkpt><trkpt lon="5.775371" lat="51.192179"><ele>21.4</ele><time>2022-06-05T06:20:31.000Z</time></trkpt><trkpt lon="5.775295" lat="51.192222"><ele>21.4</ele><time>2022-06-05T06:20:32.000Z</time></trkpt><trkpt lon="5.775212" lat="51.192271"><ele>21.4</ele><time>2022-06-05T06:20:33.000Z</time></trkpt><trkpt lon="5.775136" lat="51.19232"><ele>21.2</ele><time>2022-06-05T06:20:34.000Z</time></trkpt><trkpt lon="5.775061" lat="51.192373"><ele>21.2</ele><time>2022-06-05T06:20:35.000Z</time></trkpt><trkpt lon="5.774987" lat="51.192423"><ele>21.2</ele><time>2022-06-05T06:20:36.000Z</time></trkpt><trkpt lon="5.774917" lat="51.192472"><ele>21.4</ele><time>2022-06-05T06:20:37.000Z</time></trkpt><trkpt lon="5.774846" lat="51.192522"><ele>21.4</ele><time>2022-06-05T06:20:38.000Z</time></trkpt><trkpt lon="5.774777" lat="51.192572"><ele>21.4</ele><time>2022-06-05T06:20:39.000Z</time></trkpt><trkpt lon="5.774709" lat="51.192625"><ele>21.4</ele><time>2022-06-05T06:20:40.000Z</time></trkpt><trkpt lon="5.77464" lat="51.192679"><ele>21.4</ele><time>2022-06-05T06:20:41.000Z</time></trkpt><trkpt lon="5.774578" lat="51.192735"><ele>21.2</ele><time>2022-06-05T06:20:42.000Z</time></trkpt><trkpt lon="5.774517" lat="51.192793"><ele>21.4</ele><time>2022-06-05T06:20:43.000Z</time></trkpt><trkpt lon="5.774464" lat="51.192854"><ele>21.4</ele><time>2022-06-05T06:20:44.000Z</time></trkpt><trkpt lon="5.774418" lat="51.192919"><ele>21.4</ele><time>2022-06-05T06:20:45.000Z</time></trkpt><trkpt lon="5.774376" lat="51.192987"><ele>21.4</ele><time>2022-06-05T06:20:46.000Z</time></trkpt><trkpt lon="5.774341" lat="51.193056"><ele>21.4</ele><time>2022-06-05T06:20:47.000Z</time></trkpt><trkpt lon="5.774316" lat="51.193125"><ele>21.4</ele><time>2022-06-05T06:20:48.000Z</time></trkpt><trkpt lon="5.774295" lat="51.193193"><ele>21.4</ele><time>2022-06-05T06:20:49.000Z</time></trkpt><trkpt lon="5.774281" lat="51.193261"><ele>21.4</ele><time>2022-06-05T06:20:50.000Z</time></trkpt><trkpt lon="5.774267" lat="51.193331"><ele>21.4</ele><time>2022-06-05T06:20:51.000Z</time></trkpt><trkpt lon="5.774258" lat="51.193395"><ele>21.4</ele><time>2022-06-05T06:20:52.000Z</time></trkpt><trkpt lon="5.774248" lat="51.193475"><ele>21.4</ele><time>2022-06-05T06:20:53.000Z</time></trkpt><trkpt lon="5.774238" lat="51.193544"><ele>21.4</ele><time>2022-06-05T06:20:54.000Z</time></trkpt><trkpt lon="5.774232" lat="51.193616"><ele>21.4</ele><time>2022-06-05T06:20:55.000Z</time></trkpt><trkpt lon="5.774227" lat="51.193688"><ele>21.2</ele><time>2022-06-05T06:20:56.000Z</time></trkpt><trkpt lon="5.774224" lat="51.193757"><ele>21.4</ele><time>2022-06-05T06:20:57.000Z</time></trkpt><trkpt lon="5.77422" lat="51.19383"><ele>21.4</ele><time>2022-06-05T06:20:58.000Z</time></trkpt><trkpt lon="5.77422" lat="51.193902"><ele>21.4</ele><time>2022-06-05T06:20:59.000Z</time></trkpt><trkpt lon="5.774223" lat="51.193971"><ele>21.2</ele><time>2022-06-05T06:21:00.000Z</time></trkpt><trkpt lon="5.774225" lat="51.19404"><ele>21.2</ele><time>2022-06-05T06:21:01.000Z</time></trkpt><trkpt lon="5.774228" lat="51.194109"><ele>21.2</ele><time>2022-06-05T06:21:02.000Z</time></trkpt><trkpt lon="5.77423" lat="51.194181"><ele>21.2</ele><time>2022-06-05T06:21:03.000Z</time></trkpt><trkpt lon="5.774235" lat="51.194246"><ele>21.2</ele><time>2022-06-05T06:21:04.000Z</time></trkpt><trkpt lon="5.77424" lat="51.194314"><ele>21</ele><time>2022-06-05T06:21:05.000Z</time></trkpt><trkpt lon="5.774245" lat="51.194379"><ele>21.2</ele><time>2022-06-05T06:21:06.000Z</time></trkpt><trkpt lon="5.774256" lat="51.194444"><ele>21.2</ele><time>2022-06-05T06:21:07.000Z</time></trkpt><trkpt lon="5.774274" lat="51.194513"><ele>21.2</ele><time>2022-06-05T06:21:08.000Z</time></trkpt><trkpt lon="5.774297" lat="51.194577"><ele>21.4</ele><time>2022-06-05T06:21:09.000Z</time></trkpt><trkpt lon="5.774332" lat="51.194642"><ele>21.4</ele><time>2022-06-05T06:21:10.000Z</time></trkpt><trkpt lon="5.774372" lat="51.194707"><ele>21.6</ele><time>2022-06-05T06:21:11.000Z</time></trkpt><trkpt lon="5.774422" lat="51.194769"><ele>21.8</ele><time>2022-06-05T06:21:12.000Z</time></trkpt><trkpt lon="5.774478" lat="51.19483"><ele>21.8</ele><time>2022-06-05T06:21:13.000Z</time></trkpt><trkpt lon="5.774539" lat="51.194883"><ele>21.8</ele><time>2022-06-05T06:21:14.000Z</time></trkpt><trkpt lon="5.774604" lat="51.194937"><ele>22</ele><time>2022-06-05T06:21:15.000Z</time></trkpt><trkpt lon="5.774675" lat="51.194986"><ele>22</ele><time>2022-06-05T06:21:16.000Z</time></trkpt><trkpt lon="5.774745" lat="51.195039"><ele>22</ele><time>2022-06-05T06:21:17.000Z</time></trkpt><trkpt lon="5.774821" lat="51.19509"><ele>21.8</ele><time>2022-06-05T06:21:18.000Z</time></trkpt><trkpt lon="5.774896" lat="51.195135"><ele>21.8</ele><time>2022-06-05T06:21:19.000Z</time></trkpt><trkpt lon="5.774975" lat="51.195181"><ele>21.8</ele><time>2022-06-05T06:21:20.000Z</time></trkpt><trkpt lon="5.775058" lat="51.195223"><ele>21.8</ele><time>2022-06-05T06:21:21.000Z</time></trkpt><trkpt lon="5.775145" lat="51.195265"><ele>21.8</ele><time>2022-06-05T06:21:22.000Z</time></trkpt><trkpt lon="5.775233" lat="51.195304"><ele>21.8</ele><time>2022-06-05T06:21:23.000Z</time></trkpt><trkpt lon="5.775323" lat="51.195342"><ele>21.8</ele><time>2022-06-05T06:21:24.000Z</time></trkpt><trkpt lon="5.775408" lat="51.19538"><ele>21.8</ele><time>2022-06-05T06:21:25.000Z</time></trkpt><trkpt lon="5.775492" lat="51.195418"><ele>21.6</ele><time>2022-06-05T06:21:26.000Z</time></trkpt><trkpt lon="5.775573" lat="51.19546"><ele>21.6</ele><time>2022-06-05T06:21:27.000Z</time></trkpt><trkpt lon="5.775649" lat="51.195505"><ele>21.6</ele><time>2022-06-05T06:21:28.000Z</time></trkpt><trkpt lon="5.775722" lat="51.195555"><ele>21.6</ele><time>2022-06-05T06:21:29.000Z</time></trkpt><trkpt lon="5.775794" lat="51.195608"><ele>21.6</ele><time>2022-06-05T06:21:30.000Z</time></trkpt><trkpt lon="5.77586" lat="51.195656"><ele>21.6</ele><time>2022-06-05T06:21:31.000Z</time></trkpt><trkpt lon="5.775926" lat="51.195711"><ele>21.4</ele><time>2022-06-05T06:21:32.000Z</time></trkpt><trkpt lon="5.775986" lat="51.195764"><ele>21.4</ele><time>2022-06-05T06:21:33.000Z</time></trkpt><trkpt lon="5.776048" lat="51.195822"><ele>21.2</ele><time>2022-06-05T06:21:34.000Z</time></trkpt><trkpt lon="5.776109" lat="51.195879"><ele>21.2</ele><time>2022-06-05T06:21:35.000Z</time></trkpt><trkpt lon="5.77617" lat="51.195936"><ele>21.2</ele><time>2022-06-05T06:21:36.000Z</time></trkpt><trkpt lon="5.776227" lat="51.195989"><ele>21</ele><time>2022-06-05T06:21:37.000Z</time></trkpt><trkpt lon="5.776289" lat="51.196046"><ele>21</ele><time>2022-06-05T06:21:38.000Z</time></trkpt><trkpt lon="5.776347" lat="51.196101"><ele>21</ele><time>2022-06-05T06:21:39.000Z</time></trkpt><trkpt lon="5.776408" lat="51.196158"><ele>21</ele><time>2022-06-05T06:21:40.000Z</time></trkpt><trkpt lon="5.776462" lat="51.196215"><ele>21.2</ele><time>2022-06-05T06:21:41.000Z</time></trkpt><trkpt lon="5.77652" lat="51.196268"><ele>21.2</ele><time>2022-06-05T06:21:42.000Z</time></trkpt><trkpt lon="5.776582" lat="51.196314"><ele>21.4</ele><time>2022-06-05T06:21:43.000Z</time></trkpt><trkpt lon="5.776647" lat="51.196362"><ele>21.4</ele><time>2022-06-05T06:21:44.000Z</time></trkpt><trkpt lon="5.776725" lat="51.196413"><ele>21.4</ele><time>2022-06-05T06:21:45.000Z</time></trkpt><trkpt lon="5.776803" lat="51.196459"><ele>21.4</ele><time>2022-06-05T06:21:46.000Z</time></trkpt><trkpt lon="5.776879" lat="51.196505"><ele>21.4</ele><time>2022-06-05T06:21:47.000Z</time></trkpt><trkpt lon="5.776956" lat="51.196551"><ele>21.4</ele><time>2022-06-05T06:21:48.000Z</time></trkpt><trkpt lon="5.777031" lat="51.196596"><ele>21.4</ele><time>2022-06-05T06:21:49.000Z</time></trkpt><trkpt lon="5.777114" lat="51.196642"><ele>21.6</ele><time>2022-06-05T06:21:50.000Z</time></trkpt><trkpt lon="5.7772" lat="51.196688"><ele>21.8</ele><time>2022-06-05T06:21:51.000Z</time></trkpt><trkpt lon="5.777282" lat="51.196738"><ele>21.6</ele><time>2022-06-05T06:21:52.000Z</time></trkpt><trkpt lon="5.777369" lat="51.196787"><ele>21.6</ele><time>2022-06-05T06:21:53.000Z</time></trkpt><trkpt lon="5.777455" lat="51.196837"><ele>21.6</ele><time>2022-06-05T06:21:54.000Z</time></trkpt><trkpt lon="5.777542" lat="51.196886"><ele>21.4</ele><time>2022-06-05T06:21:55.000Z</time></trkpt><trkpt lon="5.777624" lat="51.196936"><ele>21.4</ele><time>2022-06-05T06:21:56.000Z</time></trkpt><trkpt lon="5.777713" lat="51.196982"><ele>21.6</ele><time>2022-06-05T06:21:57.000Z</time></trkpt><trkpt lon="5.777801" lat="51.197028"><ele>21.4</ele><time>2022-06-05T06:21:58.000Z</time></trkpt><trkpt lon="5.777888" lat="51.19707"><ele>21.4</ele><time>2022-06-05T06:21:59.000Z</time></trkpt><trkpt lon="5.777971" lat="51.197115"><ele>21.2</ele><time>2022-06-05T06:22:00.000Z</time></trkpt><trkpt lon="5.778051" lat="51.197165"><ele>21</ele><time>2022-06-05T06:22:01.000Z</time></trkpt><trkpt lon="5.778129" lat="51.197207"><ele>21</ele><time>2022-06-05T06:22:02.000Z</time></trkpt><trkpt lon="5.778208" lat="51.197253"><ele>21</ele><time>2022-06-05T06:22:03.000Z</time></trkpt><trkpt lon="5.77829" lat="51.197294"><ele>20.8</ele><time>2022-06-05T06:22:04.000Z</time></trkpt><trkpt lon="5.778376" lat="51.197337"><ele>20.8</ele><time>2022-06-05T06:22:05.000Z</time></trkpt><trkpt lon="5.778459" lat="51.197379"><ele>20.6</ele><time>2022-06-05T06:22:06.000Z</time></trkpt><trkpt lon="5.778539" lat="51.19742"><ele>20.6</ele><time>2022-06-05T06:22:07.000Z</time></trkpt><trkpt lon="5.778619" lat="51.197465"><ele>20.6</ele><time>2022-06-05T06:22:08.000Z</time></trkpt><trkpt lon="5.778701" lat="51.197507"><ele>20.6</ele><time>2022-06-05T06:22:09.000Z</time></trkpt><trkpt lon="5.778784" lat="51.197554"><ele>20.6</ele><time>2022-06-05T06:22:10.000Z</time></trkpt><trkpt lon="5.778864" lat="51.197592"><ele>20.6</ele><time>2022-06-05T06:22:11.000Z</time></trkpt><trkpt lon="5.778947" lat="51.197634"><ele>20.4</ele><time>2022-06-05T06:22:12.000Z</time></trkpt><trkpt lon="5.779031" lat="51.197676"><ele>20.4</ele><time>2022-06-05T06:22:13.000Z</time></trkpt><trkpt lon="5.779119" lat="51.197714"><ele>20.4</ele><time>2022-06-05T06:22:14.000Z</time></trkpt><trkpt lon="5.779213" lat="51.197757"><ele>20.4</ele><time>2022-06-05T06:22:15.000Z</time></trkpt><trkpt lon="5.779309" lat="51.197795"><ele>20.4</ele><time>2022-06-05T06:22:16.000Z</time></trkpt><trkpt lon="5.779405" lat="51.197829"><ele>20.4</ele><time>2022-06-05T06:22:17.000Z</time></trkpt><trkpt lon="5.779504" lat="51.197864"><ele>20.4</ele><time>2022-06-05T06:22:18.000Z</time></trkpt><trkpt lon="5.779605" lat="51.197894"><ele>20.4</ele><time>2022-06-05T06:22:19.000Z</time></trkpt><trkpt lon="5.779706" lat="51.197924"><ele>20.2</ele><time>2022-06-05T06:22:20.000Z</time></trkpt><trkpt lon="5.779809" lat="51.197951"><ele>20.2</ele><time>2022-06-05T06:22:21.000Z</time></trkpt><trkpt lon="5.779911" lat="51.197974"><ele>20.2</ele><time>2022-06-05T06:22:22.000Z</time></trkpt><trkpt lon="5.780014" lat="51.19799"><ele>20</ele><time>2022-06-05T06:22:23.000Z</time></trkpt><trkpt lon="5.780116" lat="51.198009"><ele>20</ele><time>2022-06-05T06:22:24.000Z</time></trkpt><trkpt lon="5.780221" lat="51.198024"><ele>20</ele><time>2022-06-05T06:22:25.000Z</time></trkpt><trkpt lon="5.780325" lat="51.198036"><ele>20</ele><time>2022-06-05T06:22:26.000Z</time></trkpt><trkpt lon="5.780423" lat="51.198047"><ele>20.2</ele><time>2022-06-05T06:22:27.000Z</time></trkpt><trkpt lon="5.780516" lat="51.198059"><ele>20.4</ele><time>2022-06-05T06:22:28.000Z</time></trkpt><trkpt lon="5.780602" lat="51.198066"><ele>20.4</ele><time>2022-06-05T06:22:29.000Z</time></trkpt><trkpt lon="5.78069" lat="51.19807"><ele>20.6</ele><time>2022-06-05T06:22:30.000Z</time></trkpt><trkpt lon="5.780786" lat="51.198071"><ele>20.8</ele><time>2022-06-05T06:22:31.000Z</time></trkpt><trkpt lon="5.780885" lat="51.198071"><ele>20.8</ele><time>2022-06-05T06:22:32.000Z</time></trkpt><trkpt lon="5.780981" lat="51.198071"><ele>20.8</ele><time>2022-06-05T06:22:33.000Z</time></trkpt><trkpt lon="5.781082" lat="51.198067"><ele>20.8</ele><time>2022-06-05T06:22:34.000Z</time></trkpt><trkpt lon="5.781186" lat="51.198067"><ele>21</ele><time>2022-06-05T06:22:35.000Z</time></trkpt><trkpt lon="5.781296" lat="51.198059"><ele>21</ele><time>2022-06-05T06:22:36.000Z</time></trkpt><trkpt lon="5.7814" lat="51.198055"><ele>21</ele><time>2022-06-05T06:22:37.000Z</time></trkpt><trkpt lon="5.781506" lat="51.198048"><ele>20.8</ele><time>2022-06-05T06:22:38.000Z</time></trkpt><trkpt lon="5.781612" lat="51.198044"><ele>21</ele><time>2022-06-05T06:22:39.000Z</time></trkpt><trkpt lon="5.78172" lat="51.198036"><ele>21</ele><time>2022-06-05T06:22:40.000Z</time></trkpt><trkpt lon="5.781831" lat="51.198029"><ele>21</ele><time>2022-06-05T06:22:41.000Z</time></trkpt><trkpt lon="5.781943" lat="51.198025"><ele>21</ele><time>2022-06-05T06:22:42.000Z</time></trkpt><trkpt lon="5.782057" lat="51.198017"><ele>21.2</ele><time>2022-06-05T06:22:43.000Z</time></trkpt><trkpt lon="5.782173" lat="51.198013"><ele>21.2</ele><time>2022-06-05T06:22:44.000Z</time></trkpt><trkpt lon="5.782283" lat="51.19801"><ele>21.2</ele><time>2022-06-05T06:22:45.000Z</time></trkpt><trkpt lon="5.782401" lat="51.198002"><ele>21.2</ele><time>2022-06-05T06:22:46.000Z</time></trkpt><trkpt lon="5.782519" lat="51.198002"><ele>21.2</ele><time>2022-06-05T06:22:47.000Z</time></trkpt><trkpt lon="5.782631" lat="51.198002"><ele>21.2</ele><time>2022-06-05T06:22:48.000Z</time></trkpt><trkpt lon="5.782738" lat="51.198002"><ele>21.2</ele><time>2022-06-05T06:22:49.000Z</time></trkpt><trkpt lon="5.782848" lat="51.198006"><ele>21.2</ele><time>2022-06-05T06:22:50.000Z</time></trkpt><trkpt lon="5.782959" lat="51.198006"><ele>21</ele><time>2022-06-05T06:22:51.000Z</time></trkpt><trkpt lon="5.783057" lat="51.198006"><ele>21</ele><time>2022-06-05T06:22:52.000Z</time></trkpt><trkpt lon="5.783176" lat="51.198009"><ele>20.8</ele><time>2022-06-05T06:22:53.000Z</time></trkpt><trkpt lon="5.783277" lat="51.198013"><ele>20.6</ele><time>2022-06-05T06:22:54.000Z</time></trkpt><trkpt lon="5.78338" lat="51.198013"><ele>20.6</ele><time>2022-06-05T06:22:55.000Z</time></trkpt><trkpt lon="5.783483" lat="51.198013"><ele>20.6</ele><time>2022-06-05T06:22:56.000Z</time></trkpt><trkpt lon="5.78359" lat="51.198017"><ele>20.8</ele><time>2022-06-05T06:22:57.000Z</time></trkpt><trkpt lon="5.783695" lat="51.198017"><ele>20.8</ele><time>2022-06-05T06:22:58.000Z</time></trkpt><trkpt lon="5.783793" lat="51.198021"><ele>20.6</ele><time>2022-06-05T06:22:59.000Z</time></trkpt><trkpt lon="5.78389" lat="51.198021"><ele>20.6</ele><time>2022-06-05T06:23:00.000Z</time></trkpt><trkpt lon="5.783992" lat="51.198025"><ele>20.6</ele><time>2022-06-05T06:23:01.000Z</time></trkpt><trkpt lon="5.784094" lat="51.198028"><ele>20.6</ele><time>2022-06-05T06:23:02.000Z</time></trkpt><trkpt lon="5.784199" lat="51.19804"><ele>20.8</ele><time>2022-06-05T06:23:03.000Z</time></trkpt><trkpt lon="5.784304" lat="51.198051"><ele>20.8</ele><time>2022-06-05T06:23:04.000Z</time></trkpt><trkpt lon="5.784404" lat="51.198074"><ele>20.8</ele><time>2022-06-05T06:23:05.000Z</time></trkpt><trkpt lon="5.7845" lat="51.1981"><ele>20.8</ele><time>2022-06-05T06:23:06.000Z</time></trkpt><trkpt lon="5.784591" lat="51.19813"><ele>20.8</ele><time>2022-06-05T06:23:07.000Z</time></trkpt><trkpt lon="5.784686" lat="51.198165"><ele>21</ele><time>2022-06-05T06:23:08.000Z</time></trkpt><trkpt lon="5.784779" lat="51.198203"><ele>21</ele><time>2022-06-05T06:23:09.000Z</time></trkpt><trkpt lon="5.784872" lat="51.198245"><ele>20.8</ele><time>2022-06-05T06:23:10.000Z</time></trkpt><trkpt lon="5.784963" lat="51.198283"><ele>20.8</ele><time>2022-06-05T06:23:11.000Z</time></trkpt><trkpt lon="5.785058" lat="51.198325"><ele>20.6</ele><time>2022-06-05T06:23:12.000Z</time></trkpt><trkpt lon="5.785148" lat="51.198366"><ele>20.6</ele><time>2022-06-05T06:23:13.000Z</time></trkpt><trkpt lon="5.785236" lat="51.198403"><ele>20.8</ele><time>2022-06-05T06:23:14.000Z</time></trkpt><trkpt lon="5.785328" lat="51.198443"><ele>20.8</ele><time>2022-06-05T06:23:15.000Z</time></trkpt><trkpt lon="5.785416" lat="51.198481"><ele>20.8</ele><time>2022-06-05T06:23:16.000Z</time></trkpt><trkpt lon="5.785504" lat="51.198523"><ele>20.6</ele><time>2022-06-05T06:23:17.000Z</time></trkpt><trkpt lon="5.785589" lat="51.198565"><ele>20.4</ele><time>2022-06-05T06:23:18.000Z</time></trkpt><trkpt lon="5.785674" lat="51.198604"><ele>20.2</ele><time>2022-06-05T06:23:19.000Z</time></trkpt><trkpt lon="5.785759" lat="51.198645"><ele>20.2</ele><time>2022-06-05T06:23:20.000Z</time></trkpt><trkpt lon="5.785843" lat="51.198683"><ele>20</ele><time>2022-06-05T06:23:21.000Z</time></trkpt><trkpt lon="5.785929" lat="51.198725"><ele>20</ele><time>2022-06-05T06:23:22.000Z</time></trkpt><trkpt lon="5.786013" lat="51.198764"><ele>20</ele><time>2022-06-05T06:23:23.000Z</time></trkpt><trkpt lon="5.786093" lat="51.198809"><ele>20</ele><time>2022-06-05T06:23:24.000Z</time></trkpt><trkpt lon="5.786177" lat="51.198851"><ele>20</ele><time>2022-06-05T06:23:25.000Z</time></trkpt><trkpt lon="5.786257" lat="51.198897"><ele>19.8</ele><time>2022-06-05T06:23:26.000Z</time></trkpt><trkpt lon="5.78634" lat="51.198939"><ele>20</ele><time>2022-06-05T06:23:27.000Z</time></trkpt><trkpt lon="5.786416" lat="51.198988"><ele>19.8</ele><time>2022-06-05T06:23:28.000Z</time></trkpt><trkpt lon="5.786487" lat="51.199042"><ele>19.8</ele><time>2022-06-05T06:23:29.000Z</time></trkpt><trkpt lon="5.786545" lat="51.199095"><ele>19.8</ele><time>2022-06-05T06:23:30.000Z</time></trkpt><trkpt lon="5.786596" lat="51.199156"><ele>19.8</ele><time>2022-06-05T06:23:31.000Z</time></trkpt><trkpt lon="5.786646" lat="51.199217"><ele>19.8</ele><time>2022-06-05T06:23:32.000Z</time></trkpt><trkpt lon="5.786695" lat="51.199278"><ele>19.8</ele><time>2022-06-05T06:23:33.000Z</time></trkpt><trkpt lon="5.786745" lat="51.199342"><ele>19.8</ele><time>2022-06-05T06:23:34.000Z</time></trkpt><trkpt lon="5.786792" lat="51.199404"><ele>19.8</ele><time>2022-06-05T06:23:35.000Z</time></trkpt><trkpt lon="5.786838" lat="51.199465"><ele>19.8</ele><time>2022-06-05T06:23:36.000Z</time></trkpt><trkpt lon="5.786885" lat="51.199525"><ele>19.6</ele><time>2022-06-05T06:23:37.000Z</time></trkpt><trkpt lon="5.78693" lat="51.19959"><ele>19.6</ele><time>2022-06-05T06:23:38.000Z</time></trkpt><trkpt lon="5.786977" lat="51.199652"><ele>19.6</ele><time>2022-06-05T06:23:39.000Z</time></trkpt><trkpt lon="5.787022" lat="51.199717"><ele>19.6</ele><time>2022-06-05T06:23:40.000Z</time></trkpt><trkpt lon="5.787068" lat="51.199781"><ele>19.6</ele><time>2022-06-05T06:23:41.000Z</time></trkpt><trkpt lon="5.787113" lat="51.199842"><ele>19.6</ele><time>2022-06-05T06:23:42.000Z</time></trkpt><trkpt lon="5.787157" lat="51.199907"><ele>19.6</ele><time>2022-06-05T06:23:43.000Z</time></trkpt><trkpt lon="5.787201" lat="51.199967"><ele>19.6</ele><time>2022-06-05T06:23:44.000Z</time></trkpt><trkpt lon="5.787244" lat="51.20003"><ele>19.6</ele><time>2022-06-05T06:23:45.000Z</time></trkpt><trkpt lon="5.787292" lat="51.200091"><ele>19.6</ele><time>2022-06-05T06:23:46.000Z</time></trkpt><trkpt lon="5.787339" lat="51.200152"><ele>19.6</ele><time>2022-06-05T06:23:47.000Z</time></trkpt><trkpt lon="5.787384" lat="51.200213"><ele>19.6</ele><time>2022-06-05T06:23:48.000Z</time></trkpt><trkpt lon="5.787429" lat="51.200274"><ele>19.6</ele><time>2022-06-05T06:23:49.000Z</time></trkpt><trkpt lon="5.787474" lat="51.200334"><ele>19.8</ele><time>2022-06-05T06:23:50.000Z</time></trkpt><trkpt lon="5.787518" lat="51.200396"><ele>19.8</ele><time>2022-06-05T06:23:51.000Z</time></trkpt><trkpt lon="5.787552" lat="51.200441"><ele>19.8</ele><time>2022-06-05T06:23:52.000Z</time></trkpt><trkpt lon="5.787605" lat="51.200519"><ele>19.8</ele><time>2022-06-05T06:23:53.000Z</time></trkpt><trkpt lon="5.787652" lat="51.200579"><ele>19.8</ele><time>2022-06-05T06:23:54.000Z</time></trkpt><trkpt lon="5.787698" lat="51.200639"><ele>19.8</ele><time>2022-06-05T06:23:55.000Z</time></trkpt><trkpt lon="5.787745" lat="51.200705"><ele>19.8</ele><time>2022-06-05T06:23:56.000Z</time></trkpt><trkpt lon="5.787792" lat="51.200762"><ele>20</ele><time>2022-06-05T06:23:57.000Z</time></trkpt><trkpt lon="5.787837" lat="51.200826"><ele>20</ele><time>2022-06-05T06:23:58.000Z</time></trkpt><trkpt lon="5.787883" lat="51.200887"><ele>19.8</ele><time>2022-06-05T06:23:59.000Z</time></trkpt><trkpt lon="5.787928" lat="51.200948"><ele>20</ele><time>2022-06-05T06:24:00.000Z</time></trkpt><trkpt lon="5.787977" lat="51.20101"><ele>19.8</ele><time>2022-06-05T06:24:01.000Z</time></trkpt><trkpt lon="5.788022" lat="51.201075"><ele>19.8</ele><time>2022-06-05T06:24:02.000Z</time></trkpt><trkpt lon="5.788067" lat="51.201136"><ele>19.8</ele><time>2022-06-05T06:24:03.000Z</time></trkpt><trkpt lon="5.78811" lat="51.201196"><ele>19.8</ele><time>2022-06-05T06:24:04.000Z</time></trkpt><trkpt lon="5.788147" lat="51.201261"><ele>19.8</ele><time>2022-06-05T06:24:05.000Z</time></trkpt><trkpt lon="5.788177" lat="51.20133"><ele>19.8</ele><time>2022-06-05T06:24:06.000Z</time></trkpt><trkpt lon="5.788198" lat="51.201394"><ele>20</ele><time>2022-06-05T06:24:07.000Z</time></trkpt><trkpt lon="5.788209" lat="51.201462"><ele>20</ele><time>2022-06-05T06:24:08.000Z</time></trkpt><trkpt lon="5.788216" lat="51.201531"><ele>20.2</ele><time>2022-06-05T06:24:09.000Z</time></trkpt><trkpt lon="5.788218" lat="51.201599"><ele>20.2</ele><time>2022-06-05T06:24:10.000Z</time></trkpt><trkpt lon="5.788217" lat="51.201665"><ele>20.4</ele><time>2022-06-05T06:24:11.000Z</time></trkpt><trkpt lon="5.788212" lat="51.201734"><ele>20.4</ele><time>2022-06-05T06:24:12.000Z</time></trkpt><trkpt lon="5.788209" lat="51.201802"><ele>20.2</ele><time>2022-06-05T06:24:13.000Z</time></trkpt><trkpt lon="5.788203" lat="51.201868"><ele>20.2</ele><time>2022-06-05T06:24:14.000Z</time></trkpt><trkpt lon="5.7882" lat="51.201936"><ele>20.2</ele><time>2022-06-05T06:24:15.000Z</time></trkpt><trkpt lon="5.788195" lat="51.202005"><ele>20.2</ele><time>2022-06-05T06:24:16.000Z</time></trkpt><trkpt lon="5.78819" lat="51.202074"><ele>20</ele><time>2022-06-05T06:24:17.000Z</time></trkpt><trkpt lon="5.788182" lat="51.202143"><ele>20</ele><time>2022-06-05T06:24:18.000Z</time></trkpt><trkpt lon="5.788175" lat="51.202211"><ele>20</ele><time>2022-06-05T06:24:19.000Z</time></trkpt><trkpt lon="5.788169" lat="51.202275"><ele>20</ele><time>2022-06-05T06:24:20.000Z</time></trkpt><trkpt lon="5.788164" lat="51.202342"><ele>20</ele><time>2022-06-05T06:24:21.000Z</time></trkpt><trkpt lon="5.788159" lat="51.202413"><ele>20</ele><time>2022-06-05T06:24:22.000Z</time></trkpt><trkpt lon="5.788152" lat="51.202478"><ele>20</ele><time>2022-06-05T06:24:23.000Z</time></trkpt><trkpt lon="5.788145" lat="51.202546"><ele>20</ele><time>2022-06-05T06:24:24.000Z</time></trkpt><trkpt lon="5.788139" lat="51.202615"><ele>20</ele><time>2022-06-05T06:24:25.000Z</time></trkpt><trkpt lon="5.788135" lat="51.202684"><ele>20</ele><time>2022-06-05T06:24:26.000Z</time></trkpt><trkpt lon="5.78813" lat="51.202753"><ele>20</ele><time>2022-06-05T06:24:27.000Z</time></trkpt><trkpt lon="5.788125" lat="51.202818"><ele>20</ele><time>2022-06-05T06:24:28.000Z</time></trkpt><trkpt lon="5.788119" lat="51.202884"><ele>20</ele><time>2022-06-05T06:24:29.000Z</time></trkpt><trkpt lon="5.788112" lat="51.202949"><ele>20</ele><time>2022-06-05T06:24:30.000Z</time></trkpt><trkpt lon="5.788107" lat="51.203015"><ele>20.2</ele><time>2022-06-05T06:24:31.000Z</time></trkpt><trkpt lon="5.788102" lat="51.203084"><ele>20.2</ele><time>2022-06-05T06:24:32.000Z</time></trkpt><trkpt lon="5.788094" lat="51.203154"><ele>20.2</ele><time>2022-06-05T06:24:33.000Z</time></trkpt><trkpt lon="5.788085" lat="51.20322"><ele>20.2</ele><time>2022-06-05T06:24:34.000Z</time></trkpt><trkpt lon="5.788079" lat="51.203286"><ele>20.2</ele><time>2022-06-05T06:24:35.000Z</time></trkpt><trkpt lon="5.788074" lat="51.203355"><ele>20.2</ele><time>2022-06-05T06:24:36.000Z</time></trkpt><trkpt lon="5.788072" lat="51.203424"><ele>20</ele><time>2022-06-05T06:24:37.000Z</time></trkpt><trkpt lon="5.788068" lat="51.203489"><ele>20</ele><time>2022-06-05T06:24:38.000Z</time></trkpt><trkpt lon="5.788062" lat="51.203558"><ele>20</ele><time>2022-06-05T06:24:39.000Z</time></trkpt><trkpt lon="5.788058" lat="51.203626"><ele>20</ele><time>2022-06-05T06:24:40.000Z</time></trkpt><trkpt lon="5.788054" lat="51.203692"><ele>20.2</ele><time>2022-06-05T06:24:41.000Z</time></trkpt><trkpt lon="5.788052" lat="51.203759"><ele>20.2</ele><time>2022-06-05T06:24:42.000Z</time></trkpt><trkpt lon="5.78805" lat="51.203827"><ele>20.2</ele><time>2022-06-05T06:24:43.000Z</time></trkpt><trkpt lon="5.788047" lat="51.203896"><ele>20.2</ele><time>2022-06-05T06:24:44.000Z</time></trkpt><trkpt lon="5.788044" lat="51.203965"><ele>20.2</ele><time>2022-06-05T06:24:45.000Z</time></trkpt><trkpt lon="5.788039" lat="51.204032"><ele>20.2</ele><time>2022-06-05T06:24:46.000Z</time></trkpt><trkpt lon="5.788034" lat="51.204103"><ele>20</ele><time>2022-06-05T06:24:47.000Z</time></trkpt><trkpt lon="5.788028" lat="51.204172"><ele>19.8</ele><time>2022-06-05T06:24:48.000Z</time></trkpt><trkpt lon="5.788022" lat="51.20424"><ele>19.8</ele><time>2022-06-05T06:24:49.000Z</time></trkpt><trkpt lon="5.788017" lat="51.204309"><ele>20</ele><time>2022-06-05T06:24:50.000Z</time></trkpt><trkpt lon="5.788014" lat="51.204374"><ele>20</ele><time>2022-06-05T06:24:51.000Z</time></trkpt><trkpt lon="5.788008" lat="51.204441"><ele>20</ele><time>2022-06-05T06:24:52.000Z</time></trkpt><trkpt lon="5.788004" lat="51.204505"><ele>20</ele><time>2022-06-05T06:24:53.000Z</time></trkpt><trkpt lon="5.788" lat="51.204576"><ele>20</ele><time>2022-06-05T06:24:54.000Z</time></trkpt><trkpt lon="5.787995" lat="51.204645"><ele>20</ele><time>2022-06-05T06:24:55.000Z</time></trkpt><trkpt lon="5.787985" lat="51.204709"><ele>20</ele><time>2022-06-05T06:24:56.000Z</time></trkpt><trkpt lon="5.787978" lat="51.204778"><ele>20.2</ele><time>2022-06-05T06:24:57.000Z</time></trkpt><trkpt lon="5.787972" lat="51.204843"><ele>20.2</ele><time>2022-06-05T06:24:58.000Z</time></trkpt><trkpt lon="5.787968" lat="51.204909"><ele>20.2</ele><time>2022-06-05T06:24:59.000Z</time></trkpt><trkpt lon="5.787965" lat="51.204975"><ele>20.2</ele><time>2022-06-05T06:25:00.000Z</time></trkpt><trkpt lon="5.787962" lat="51.205043"><ele>20.2</ele><time>2022-06-05T06:25:01.000Z</time></trkpt><trkpt lon="5.787958" lat="51.205111"><ele>20.2</ele><time>2022-06-05T06:25:02.000Z</time></trkpt><trkpt lon="5.787955" lat="51.205175"><ele>20.2</ele><time>2022-06-05T06:25:03.000Z</time></trkpt><trkpt lon="5.787952" lat="51.205243"><ele>20.2</ele><time>2022-06-05T06:25:04.000Z</time></trkpt><trkpt lon="5.78795" lat="51.205305"><ele>20.2</ele><time>2022-06-05T06:25:05.000Z</time></trkpt><trkpt lon="5.787947" lat="51.205377"><ele>20.2</ele><time>2022-06-05T06:25:06.000Z</time></trkpt><trkpt lon="5.787942" lat="51.205442"><ele>20.2</ele><time>2022-06-05T06:25:07.000Z</time></trkpt><trkpt lon="5.787938" lat="51.205507"><ele>20.2</ele><time>2022-06-05T06:25:08.000Z</time></trkpt><trkpt lon="5.787934" lat="51.205574"><ele>20.2</ele><time>2022-06-05T06:25:09.000Z</time></trkpt><trkpt lon="5.78793" lat="51.205644"><ele>20.4</ele><time>2022-06-05T06:25:10.000Z</time></trkpt><trkpt lon="5.787927" lat="51.205709"><ele>20.4</ele><time>2022-06-05T06:25:11.000Z</time></trkpt><trkpt lon="5.787923" lat="51.205777"><ele>20.4</ele><time>2022-06-05T06:25:12.000Z</time></trkpt><trkpt lon="5.787921" lat="51.205843"><ele>20.4</ele><time>2022-06-05T06:25:13.000Z</time></trkpt><trkpt lon="5.787917" lat="51.205911"><ele>20.6</ele><time>2022-06-05T06:25:14.000Z</time></trkpt><trkpt lon="5.787912" lat="51.20598"><ele>20.6</ele><time>2022-06-05T06:25:15.000Z</time></trkpt><trkpt lon="5.787909" lat="51.206048"><ele>20.6</ele><time>2022-06-05T06:25:16.000Z</time></trkpt><trkpt lon="5.787905" lat="51.206114"><ele>20.6</ele><time>2022-06-05T06:25:17.000Z</time></trkpt><trkpt lon="5.7879" lat="51.206182"><ele>20.6</ele><time>2022-06-05T06:25:18.000Z</time></trkpt><trkpt lon="5.787895" lat="51.20625"><ele>20.8</ele><time>2022-06-05T06:25:19.000Z</time></trkpt><trkpt lon="5.787892" lat="51.20632"><ele>20.8</ele><time>2022-06-05T06:25:20.000Z</time></trkpt><trkpt lon="5.787889" lat="51.206388"><ele>20.8</ele><time>2022-06-05T06:25:21.000Z</time></trkpt><trkpt lon="5.787882" lat="51.206456"><ele>20.8</ele><time>2022-06-05T06:25:22.000Z</time></trkpt><trkpt lon="5.787879" lat="51.206524"><ele>20.8</ele><time>2022-06-05T06:25:23.000Z</time></trkpt><trkpt lon="5.787875" lat="51.206595"><ele>20.6</ele><time>2022-06-05T06:25:24.000Z</time></trkpt><trkpt lon="5.787872" lat="51.206663"><ele>20.6</ele><time>2022-06-05T06:25:25.000Z</time></trkpt><trkpt lon="5.787867" lat="51.206735"><ele>20.6</ele><time>2022-06-05T06:25:26.000Z</time></trkpt><trkpt lon="5.787863" lat="51.206799"><ele>20.6</ele><time>2022-06-05T06:25:27.000Z</time></trkpt><trkpt lon="5.787859" lat="51.206865"><ele>20.4</ele><time>2022-06-05T06:25:28.000Z</time></trkpt><trkpt lon="5.787854" lat="51.206932"><ele>20.4</ele><time>2022-06-05T06:25:29.000Z</time></trkpt><trkpt lon="5.787849" lat="51.207001"><ele>20.4</ele><time>2022-06-05T06:25:30.000Z</time></trkpt><trkpt lon="5.787845" lat="51.207066"><ele>20.4</ele><time>2022-06-05T06:25:31.000Z</time></trkpt><trkpt lon="5.787839" lat="51.207135"><ele>20.4</ele><time>2022-06-05T06:25:32.000Z</time></trkpt><trkpt lon="5.787833" lat="51.207204"><ele>20.4</ele><time>2022-06-05T06:25:33.000Z</time></trkpt><trkpt lon="5.787827" lat="51.207272"><ele>20.4</ele><time>2022-06-05T06:25:34.000Z</time></trkpt><trkpt lon="5.787822" lat="51.207341"><ele>20.4</ele><time>2022-06-05T06:25:35.000Z</time></trkpt><trkpt lon="5.787817" lat="51.207414"><ele>20.2</ele><time>2022-06-05T06:25:36.000Z</time></trkpt><trkpt lon="5.787813" lat="51.207482"><ele>20.2</ele><time>2022-06-05T06:25:37.000Z</time></trkpt><trkpt lon="5.787807" lat="51.207552"><ele>20.2</ele><time>2022-06-05T06:25:38.000Z</time></trkpt><trkpt lon="5.7878" lat="51.20762"><ele>20.4</ele><time>2022-06-05T06:25:39.000Z</time></trkpt><trkpt lon="5.787792" lat="51.207692"><ele>20.4</ele><time>2022-06-05T06:25:40.000Z</time></trkpt><trkpt lon="5.787787" lat="51.207761"><ele>20.4</ele><time>2022-06-05T06:25:41.000Z</time></trkpt><trkpt lon="5.787782" lat="51.20783"><ele>20.4</ele><time>2022-06-05T06:25:42.000Z</time></trkpt><trkpt lon="5.787777" lat="51.207902"><ele>20.2</ele><time>2022-06-05T06:25:43.000Z</time></trkpt><trkpt lon="5.787775" lat="51.207971"><ele>20.2</ele><time>2022-06-05T06:25:44.000Z</time></trkpt><trkpt lon="5.787773" lat="51.208042"><ele>20.2</ele><time>2022-06-05T06:25:45.000Z</time></trkpt><trkpt lon="5.787772" lat="51.208112"><ele>20.2</ele><time>2022-06-05T06:25:46.000Z</time></trkpt><trkpt lon="5.787769" lat="51.208181"><ele>20.2</ele><time>2022-06-05T06:25:47.000Z</time></trkpt><trkpt lon="5.787763" lat="51.208254"><ele>20.2</ele><time>2022-06-05T06:25:48.000Z</time></trkpt><trkpt lon="5.787757" lat="51.208322"><ele>20.2</ele><time>2022-06-05T06:25:49.000Z</time></trkpt><trkpt lon="5.787752" lat="51.20839"><ele>20</ele><time>2022-06-05T06:25:50.000Z</time></trkpt><trkpt lon="5.787747" lat="51.208457"><ele>20</ele><time>2022-06-05T06:25:51.000Z</time></trkpt><trkpt lon="5.787742" lat="51.208525"><ele>20</ele><time>2022-06-05T06:25:52.000Z</time></trkpt><trkpt lon="5.787737" lat="51.2086"><ele>20</ele><time>2022-06-05T06:25:53.000Z</time></trkpt><trkpt lon="5.787732" lat="51.208669"><ele>20</ele><time>2022-06-05T06:25:54.000Z</time></trkpt><trkpt lon="5.787727" lat="51.208738"><ele>20</ele><time>2022-06-05T06:25:55.000Z</time></trkpt><trkpt lon="5.787724" lat="51.208807"><ele>20</ele><time>2022-06-05T06:25:56.000Z</time></trkpt><trkpt lon="5.787724" lat="51.208877"><ele>20</ele><time>2022-06-05T06:25:57.000Z</time></trkpt><trkpt lon="5.787724" lat="51.208947"><ele>20</ele><time>2022-06-05T06:25:58.000Z</time></trkpt><trkpt lon="5.787722" lat="51.209011"><ele>20</ele><time>2022-06-05T06:25:59.000Z</time></trkpt><trkpt lon="5.787723" lat="51.209081"><ele>20</ele><time>2022-06-05T06:26:00.000Z</time></trkpt><trkpt lon="5.787724" lat="51.209148"><ele>20</ele><time>2022-06-05T06:26:01.000Z</time></trkpt><trkpt lon="5.787725" lat="51.209218"><ele>20</ele><time>2022-06-05T06:26:02.000Z</time></trkpt><trkpt lon="5.787725" lat="51.209287"><ele>20.2</ele><time>2022-06-05T06:26:03.000Z</time></trkpt><trkpt lon="5.787727" lat="51.209356"><ele>20.2</ele><time>2022-06-05T06:26:04.000Z</time></trkpt><trkpt lon="5.787728" lat="51.209424"><ele>20.2</ele><time>2022-06-05T06:26:05.000Z</time></trkpt><trkpt lon="5.787732" lat="51.209497"><ele>20.4</ele><time>2022-06-05T06:26:06.000Z</time></trkpt><trkpt lon="5.787735" lat="51.209566"><ele>20.4</ele><time>2022-06-05T06:26:07.000Z</time></trkpt><trkpt lon="5.787737" lat="51.209635"><ele>20.4</ele><time>2022-06-05T06:26:08.000Z</time></trkpt><trkpt lon="5.787738" lat="51.209706"><ele>20.4</ele><time>2022-06-05T06:26:09.000Z</time></trkpt><trkpt lon="5.78774" lat="51.209774"><ele>20.4</ele><time>2022-06-05T06:26:10.000Z</time></trkpt><trkpt lon="5.78774" lat="51.20984"><ele>20.6</ele><time>2022-06-05T06:26:11.000Z</time></trkpt><trkpt lon="5.787742" lat="51.20991"><ele>20.4</ele><time>2022-06-05T06:26:12.000Z</time></trkpt><trkpt lon="5.787745" lat="51.209981"><ele>20.4</ele><time>2022-06-05T06:26:13.000Z</time></trkpt><trkpt lon="5.787749" lat="51.210051"><ele>20.4</ele><time>2022-06-05T06:26:14.000Z</time></trkpt><trkpt lon="5.787752" lat="51.21012"><ele>20.4</ele><time>2022-06-05T06:26:15.000Z</time></trkpt><trkpt lon="5.787753" lat="51.210193"><ele>20.6</ele><time>2022-06-05T06:26:16.000Z</time></trkpt><trkpt lon="5.787755" lat="51.210266"><ele>20.4</ele><time>2022-06-05T06:26:17.000Z</time></trkpt><trkpt lon="5.787756" lat="51.210336"><ele>20.4</ele><time>2022-06-05T06:26:18.000Z</time></trkpt><trkpt lon="5.787758" lat="51.210408"><ele>20.4</ele><time>2022-06-05T06:26:19.000Z</time></trkpt><trkpt lon="5.78776" lat="51.210481"><ele>20.4</ele><time>2022-06-05T06:26:20.000Z</time></trkpt><trkpt lon="5.787762" lat="51.210549"><ele>20.6</ele><time>2022-06-05T06:26:21.000Z</time></trkpt><trkpt lon="5.787765" lat="51.210622"><ele>20.6</ele><time>2022-06-05T06:26:22.000Z</time></trkpt><trkpt lon="5.787768" lat="51.210691"><ele>20.6</ele><time>2022-06-05T06:26:23.000Z</time></trkpt><trkpt lon="5.787773" lat="51.210761"><ele>20.6</ele><time>2022-06-05T06:26:24.000Z</time></trkpt><trkpt lon="5.787781" lat="51.210833"><ele>20.4</ele><time>2022-06-05T06:26:25.000Z</time></trkpt><trkpt lon="5.787793" lat="51.210904"><ele>20.4</ele><time>2022-06-05T06:26:26.000Z</time></trkpt><trkpt lon="5.787803" lat="51.210965"><ele>20.4</ele><time>2022-06-05T06:26:27.000Z</time></trkpt><trkpt lon="5.787818" lat="51.211041"><ele>20.6</ele><time>2022-06-05T06:26:28.000Z</time></trkpt><trkpt lon="5.787829" lat="51.211109"><ele>20.4</ele><time>2022-06-05T06:26:29.000Z</time></trkpt><trkpt lon="5.787843" lat="51.211179"><ele>20.4</ele><time>2022-06-05T06:26:30.000Z</time></trkpt><trkpt lon="5.787856" lat="51.211246"><ele>20.4</ele><time>2022-06-05T06:26:31.000Z</time></trkpt><trkpt lon="5.787869" lat="51.211315"><ele>20.4</ele><time>2022-06-05T06:26:32.000Z</time></trkpt><trkpt lon="5.787882" lat="51.21138"><ele>20.4</ele><time>2022-06-05T06:26:33.000Z</time></trkpt><trkpt lon="5.787896" lat="51.211448"><ele>20.4</ele><time>2022-06-05T06:26:34.000Z</time></trkpt><trkpt lon="5.787908" lat="51.211513"><ele>20.4</ele><time>2022-06-05T06:26:35.000Z</time></trkpt><trkpt lon="5.787919" lat="51.211586"><ele>20.2</ele><time>2022-06-05T06:26:36.000Z</time></trkpt><trkpt lon="5.78793" lat="51.211649"><ele>20.2</ele><time>2022-06-05T06:26:37.000Z</time></trkpt><trkpt lon="5.787943" lat="51.211719"><ele>20.4</ele><time>2022-06-05T06:26:38.000Z</time></trkpt><trkpt lon="5.787956" lat="51.21179"><ele>20.4</ele><time>2022-06-05T06:26:39.000Z</time></trkpt><trkpt lon="5.78797" lat="51.211858"><ele>20.4</ele><time>2022-06-05T06:26:40.000Z</time></trkpt><trkpt lon="5.787984" lat="51.211927"><ele>20.4</ele><time>2022-06-05T06:26:41.000Z</time></trkpt><trkpt lon="5.787999" lat="51.211996"><ele>20.4</ele><time>2022-06-05T06:26:42.000Z</time></trkpt><trkpt lon="5.788013" lat="51.212065"><ele>20.2</ele><time>2022-06-05T06:26:43.000Z</time></trkpt><trkpt lon="5.788026" lat="51.212133"><ele>20.2</ele><time>2022-06-05T06:26:44.000Z</time></trkpt><trkpt lon="5.788038" lat="51.212202"><ele>20.2</ele><time>2022-06-05T06:26:45.000Z</time></trkpt><trkpt lon="5.788055" lat="51.212275"><ele>20.4</ele><time>2022-06-05T06:26:46.000Z</time></trkpt><trkpt lon="5.78807" lat="51.212343"><ele>20.2</ele><time>2022-06-05T06:26:47.000Z</time></trkpt><trkpt lon="5.78809" lat="51.212412"><ele>20.2</ele><time>2022-06-05T06:26:48.000Z</time></trkpt><trkpt lon="5.788111" lat="51.21248"><ele>20</ele><time>2022-06-05T06:26:49.000Z</time></trkpt><trkpt lon="5.788136" lat="51.212549"><ele>20</ele><time>2022-06-05T06:26:50.000Z</time></trkpt><trkpt lon="5.788164" lat="51.212614"><ele>20</ele><time>2022-06-05T06:26:51.000Z</time></trkpt><trkpt lon="5.788203" lat="51.212679"><ele>20</ele><time>2022-06-05T06:26:52.000Z</time></trkpt><trkpt lon="5.788242" lat="51.212743"><ele>20</ele><time>2022-06-05T06:26:53.000Z</time></trkpt><trkpt lon="5.788285" lat="51.212805"><ele>20</ele><time>2022-06-05T06:26:54.000Z</time></trkpt><trkpt lon="5.788335" lat="51.212869"><ele>20</ele><time>2022-06-05T06:26:55.000Z</time></trkpt><trkpt lon="5.788387" lat="51.212927"><ele>20</ele><time>2022-06-05T06:26:56.000Z</time></trkpt><trkpt lon="5.788439" lat="51.212984"><ele>20</ele><time>2022-06-05T06:26:57.000Z</time></trkpt><trkpt lon="5.788491" lat="51.213042"><ele>20</ele><time>2022-06-05T06:26:58.000Z</time></trkpt><trkpt lon="5.78854" lat="51.213102"><ele>20</ele><time>2022-06-05T06:26:59.000Z</time></trkpt><trkpt lon="5.788592" lat="51.213161"><ele>19.8</ele><time>2022-06-05T06:27:00.000Z</time></trkpt><trkpt lon="5.788643" lat="51.213221"><ele>19.8</ele><time>2022-06-05T06:27:01.000Z</time></trkpt><trkpt lon="5.788695" lat="51.213278"><ele>20</ele><time>2022-06-05T06:27:02.000Z</time></trkpt><trkpt lon="5.788746" lat="51.213335"><ele>20</ele><time>2022-06-05T06:27:03.000Z</time></trkpt><trkpt lon="5.788798" lat="51.213393"><ele>20</ele><time>2022-06-05T06:27:04.000Z</time></trkpt><trkpt lon="5.788848" lat="51.21345"><ele>19.8</ele><time>2022-06-05T06:27:05.000Z</time></trkpt><trkpt lon="5.7889" lat="51.213507"><ele>19.8</ele><time>2022-06-05T06:27:06.000Z</time></trkpt><trkpt lon="5.78895" lat="51.213568"><ele>19.8</ele><time>2022-06-05T06:27:07.000Z</time></trkpt><trkpt lon="5.789" lat="51.213625"><ele>19.8</ele><time>2022-06-05T06:27:08.000Z</time></trkpt><trkpt lon="5.78905" lat="51.213683"><ele>19.8</ele><time>2022-06-05T06:27:09.000Z</time></trkpt><trkpt lon="5.789102" lat="51.213744"><ele>19.8</ele><time>2022-06-05T06:27:10.000Z</time></trkpt><trkpt lon="5.78915" lat="51.213801"><ele>19.8</ele><time>2022-06-05T06:27:11.000Z</time></trkpt><trkpt lon="5.789201" lat="51.213861"><ele>20</ele><time>2022-06-05T06:27:12.000Z</time></trkpt><trkpt lon="5.789252" lat="51.213919"><ele>20</ele><time>2022-06-05T06:27:13.000Z</time></trkpt><trkpt lon="5.789304" lat="51.21398"><ele>20.2</ele><time>2022-06-05T06:27:14.000Z</time></trkpt><trkpt lon="5.789354" lat="51.214035"><ele>20</ele><time>2022-06-05T06:27:15.000Z</time></trkpt><trkpt lon="5.789409" lat="51.214095"><ele>20</ele><time>2022-06-05T06:27:16.000Z</time></trkpt><trkpt lon="5.789465" lat="51.214155"><ele>20.2</ele><time>2022-06-05T06:27:17.000Z</time></trkpt><trkpt lon="5.789521" lat="51.214216"><ele>20</ele><time>2022-06-05T06:27:18.000Z</time></trkpt><trkpt lon="5.789578" lat="51.214274"><ele>20</ele><time>2022-06-05T06:27:19.000Z</time></trkpt><trkpt lon="5.789633" lat="51.21433"><ele>20</ele><time>2022-06-05T06:27:20.000Z</time></trkpt><trkpt lon="5.78969" lat="51.214388"><ele>20</ele><time>2022-06-05T06:27:21.000Z</time></trkpt><trkpt lon="5.789746" lat="51.214445"><ele>20.2</ele><time>2022-06-05T06:27:22.000Z</time></trkpt><trkpt lon="5.789803" lat="51.214506"><ele>20.2</ele><time>2022-06-05T06:27:23.000Z</time></trkpt><trkpt lon="5.78986" lat="51.214563"><ele>20.2</ele><time>2022-06-05T06:27:24.000Z</time></trkpt><trkpt lon="5.789917" lat="51.214621"><ele>20.2</ele><time>2022-06-05T06:27:25.000Z</time></trkpt><trkpt lon="5.789972" lat="51.214682"><ele>20.2</ele><time>2022-06-05T06:27:26.000Z</time></trkpt><trkpt lon="5.790026" lat="51.214739"><ele>20.2</ele><time>2022-06-05T06:27:27.000Z</time></trkpt><trkpt lon="5.790081" lat="51.214796"><ele>20.2</ele><time>2022-06-05T06:27:28.000Z</time></trkpt><trkpt lon="5.790136" lat="51.214853"><ele>20.4</ele><time>2022-06-05T06:27:29.000Z</time></trkpt><trkpt lon="5.790192" lat="51.214914"><ele>20.2</ele><time>2022-06-05T06:27:30.000Z</time></trkpt><trkpt lon="5.790244" lat="51.214971"><ele>20.2</ele><time>2022-06-05T06:27:31.000Z</time></trkpt><trkpt lon="5.790294" lat="51.215028"><ele>20.2</ele><time>2022-06-05T06:27:32.000Z</time></trkpt><trkpt lon="5.790342" lat="51.215094"><ele>20.2</ele><time>2022-06-05T06:27:33.000Z</time></trkpt><trkpt lon="5.790382" lat="51.215154"><ele>20.2</ele><time>2022-06-05T06:27:34.000Z</time></trkpt><trkpt lon="5.790419" lat="51.215223"><ele>20.2</ele><time>2022-06-05T06:27:35.000Z</time></trkpt><trkpt lon="5.79045" lat="51.215288"><ele>20.2</ele><time>2022-06-05T06:27:36.000Z</time></trkpt><trkpt lon="5.790479" lat="51.215353"><ele>20.2</ele><time>2022-06-05T06:27:37.000Z</time></trkpt><trkpt lon="5.790506" lat="51.215418"><ele>20.2</ele><time>2022-06-05T06:27:38.000Z</time></trkpt><trkpt lon="5.79053" lat="51.215483"><ele>20.2</ele><time>2022-06-05T06:27:39.000Z</time></trkpt><trkpt lon="5.790556" lat="51.215548"><ele>20.2</ele><time>2022-06-05T06:27:40.000Z</time></trkpt><trkpt lon="5.790582" lat="51.215612"><ele>20.4</ele><time>2022-06-05T06:27:41.000Z</time></trkpt><trkpt lon="5.790608" lat="51.215681"><ele>20.4</ele><time>2022-06-05T06:27:42.000Z</time></trkpt><trkpt lon="5.790635" lat="51.215744"><ele>20.4</ele><time>2022-06-05T06:27:43.000Z</time></trkpt><trkpt lon="5.790663" lat="51.21581"><ele>20.4</ele><time>2022-06-05T06:27:44.000Z</time></trkpt><trkpt lon="5.790691" lat="51.215876"><ele>20.4</ele><time>2022-06-05T06:27:45.000Z</time></trkpt><trkpt lon="5.790716" lat="51.215944"><ele>20.2</ele><time>2022-06-05T06:27:46.000Z</time></trkpt><trkpt lon="5.790741" lat="51.21601"><ele>20.2</ele><time>2022-06-05T06:27:47.000Z</time></trkpt><trkpt lon="5.790767" lat="51.216077"><ele>20.2</ele><time>2022-06-05T06:27:48.000Z</time></trkpt><trkpt lon="5.790794" lat="51.216138"><ele>20.4</ele><time>2022-06-05T06:27:49.000Z</time></trkpt><trkpt lon="5.790822" lat="51.216203"><ele>20.4</ele><time>2022-06-05T06:27:50.000Z</time></trkpt><trkpt lon="5.790854" lat="51.216269"><ele>20.4</ele><time>2022-06-05T06:27:51.000Z</time></trkpt><trkpt lon="5.790888" lat="51.216331"><ele>20.2</ele><time>2022-06-05T06:27:52.000Z</time></trkpt><trkpt lon="5.790922" lat="51.216394"><ele>20.2</ele><time>2022-06-05T06:27:53.000Z</time></trkpt><trkpt lon="5.790959" lat="51.216456"><ele>20.2</ele><time>2022-06-05T06:27:54.000Z</time></trkpt><trkpt lon="5.791002" lat="51.216517"><ele>20.2</ele><time>2022-06-05T06:27:55.000Z</time></trkpt><trkpt lon="5.791045" lat="51.216574"><ele>20</ele><time>2022-06-05T06:27:56.000Z</time></trkpt><trkpt lon="5.791092" lat="51.216635"><ele>20</ele><time>2022-06-05T06:27:57.000Z</time></trkpt><trkpt lon="5.791142" lat="51.216692"><ele>20.2</ele><time>2022-06-05T06:27:58.000Z</time></trkpt><trkpt lon="5.791192" lat="51.216749"><ele>20.2</ele><time>2022-06-05T06:27:59.000Z</time></trkpt><trkpt lon="5.791244" lat="51.216807"><ele>20.2</ele><time>2022-06-05T06:28:00.000Z</time></trkpt><trkpt lon="5.791296" lat="51.216867"><ele>20.2</ele><time>2022-06-05T06:28:01.000Z</time></trkpt><trkpt lon="5.79135" lat="51.216925"><ele>20.2</ele><time>2022-06-05T06:28:02.000Z</time></trkpt><trkpt lon="5.791405" lat="51.216982"><ele>20.2</ele><time>2022-06-05T06:28:03.000Z</time></trkpt><trkpt lon="5.791458" lat="51.217039"><ele>20.4</ele><time>2022-06-05T06:28:04.000Z</time></trkpt><trkpt lon="5.791511" lat="51.217098"><ele>20.6</ele><time>2022-06-05T06:28:05.000Z</time></trkpt><trkpt lon="5.791569" lat="51.217157"><ele>20.6</ele><time>2022-06-05T06:28:06.000Z</time></trkpt><trkpt lon="5.791628" lat="51.217215"><ele>20.8</ele><time>2022-06-05T06:28:07.000Z</time></trkpt><trkpt lon="5.791688" lat="51.217272"><ele>20.8</ele><time>2022-06-05T06:28:08.000Z</time></trkpt><trkpt lon="5.791745" lat="51.217333"><ele>20.8</ele><time>2022-06-05T06:28:09.000Z</time></trkpt><trkpt lon="5.791803" lat="51.21739"><ele>20.6</ele><time>2022-06-05T06:28:10.000Z</time></trkpt><trkpt lon="5.791862" lat="51.217447"><ele>20.6</ele><time>2022-06-05T06:28:11.000Z</time></trkpt><trkpt lon="5.791924" lat="51.217508"><ele>20.6</ele><time>2022-06-05T06:28:12.000Z</time></trkpt><trkpt lon="5.79199" lat="51.217562"><ele>20.6</ele><time>2022-06-05T06:28:13.000Z</time></trkpt><trkpt lon="5.792056" lat="51.217617"><ele>20.6</ele><time>2022-06-05T06:28:14.000Z</time></trkpt><trkpt lon="5.792127" lat="51.217677"><ele>20.8</ele><time>2022-06-05T06:28:15.000Z</time></trkpt><trkpt lon="5.792198" lat="51.21773"><ele>21</ele><time>2022-06-05T06:28:16.000Z</time></trkpt><trkpt lon="5.792268" lat="51.217783"><ele>21</ele><time>2022-06-05T06:28:17.000Z</time></trkpt><trkpt lon="5.792338" lat="51.217837"><ele>21</ele><time>2022-06-05T06:28:18.000Z</time></trkpt><trkpt lon="5.79241" lat="51.21789"><ele>21</ele><time>2022-06-05T06:28:19.000Z</time></trkpt><trkpt lon="5.792483" lat="51.217943"><ele>20.8</ele><time>2022-06-05T06:28:20.000Z</time></trkpt><trkpt lon="5.792558" lat="51.217997"><ele>20.6</ele><time>2022-06-05T06:28:21.000Z</time></trkpt><trkpt lon="5.79263" lat="51.218046"><ele>20.6</ele><time>2022-06-05T06:28:22.000Z</time></trkpt><trkpt lon="5.792704" lat="51.2181"><ele>20.6</ele><time>2022-06-05T06:28:23.000Z</time></trkpt><trkpt lon="5.79278" lat="51.218149"><ele>20.4</ele><time>2022-06-05T06:28:24.000Z</time></trkpt><trkpt lon="5.79286" lat="51.218199"><ele>20.4</ele><time>2022-06-05T06:28:25.000Z</time></trkpt><trkpt lon="5.792943" lat="51.218245"><ele>20.4</ele><time>2022-06-05T06:28:26.000Z</time></trkpt><trkpt lon="5.793028" lat="51.218295"><ele>20.4</ele><time>2022-06-05T06:28:27.000Z</time></trkpt><trkpt lon="5.793111" lat="51.218339"><ele>20.2</ele><time>2022-06-05T06:28:28.000Z</time></trkpt><trkpt lon="5.793197" lat="51.218389"><ele>20.4</ele><time>2022-06-05T06:28:29.000Z</time></trkpt><trkpt lon="5.793285" lat="51.218439"><ele>20.4</ele><time>2022-06-05T06:28:30.000Z</time></trkpt><trkpt lon="5.79337" lat="51.218485"><ele>20.6</ele><time>2022-06-05T06:28:31.000Z</time></trkpt><trkpt lon="5.793457" lat="51.218531"><ele>20.6</ele><time>2022-06-05T06:28:32.000Z</time></trkpt><trkpt lon="5.793542" lat="51.218577"><ele>20.6</ele><time>2022-06-05T06:28:33.000Z</time></trkpt><trkpt lon="5.793626" lat="51.218623"><ele>20.8</ele><time>2022-06-05T06:28:34.000Z</time></trkpt><trkpt lon="5.793707" lat="51.218668"><ele>21</ele><time>2022-06-05T06:28:35.000Z</time></trkpt><trkpt lon="5.793787" lat="51.21871"><ele>21.2</ele><time>2022-06-05T06:28:36.000Z</time></trkpt><trkpt lon="5.793866" lat="51.218756"><ele>21.2</ele><time>2022-06-05T06:28:37.000Z</time></trkpt><trkpt lon="5.793944" lat="51.218802"><ele>21.2</ele><time>2022-06-05T06:28:38.000Z</time></trkpt><trkpt lon="5.794016" lat="51.218843"><ele>21.2</ele><time>2022-06-05T06:28:39.000Z</time></trkpt><trkpt lon="5.794088" lat="51.218893"><ele>21.2</ele><time>2022-06-05T06:28:40.000Z</time></trkpt><trkpt lon="5.794151" lat="51.218943"><ele>21.2</ele><time>2022-06-05T06:28:41.000Z</time></trkpt><trkpt lon="5.794213" lat="51.218996"><ele>21</ele><time>2022-06-05T06:28:42.000Z</time></trkpt><trkpt lon="5.794275" lat="51.219046"><ele>21</ele><time>2022-06-05T06:28:43.000Z</time></trkpt><trkpt lon="5.794332" lat="51.2191"><ele>21</ele><time>2022-06-05T06:28:44.000Z</time></trkpt><trkpt lon="5.794386" lat="51.219153"><ele>21.2</ele><time>2022-06-05T06:28:45.000Z</time></trkpt><trkpt lon="5.794435" lat="51.219206"><ele>21.2</ele><time>2022-06-05T06:28:46.000Z</time></trkpt><trkpt lon="5.794485" lat="51.219259"><ele>21.2</ele><time>2022-06-05T06:28:47.000Z</time></trkpt><trkpt lon="5.794537" lat="51.219316"><ele>21.4</ele><time>2022-06-05T06:28:48.000Z</time></trkpt><trkpt lon="5.794589" lat="51.21937"><ele>21.6</ele><time>2022-06-05T06:28:49.000Z</time></trkpt><trkpt lon="5.794638" lat="51.219423"><ele>21.8</ele><time>2022-06-05T06:28:50.000Z</time></trkpt><trkpt lon="5.794689" lat="51.219473"><ele>21.8</ele><time>2022-06-05T06:28:51.000Z</time></trkpt><trkpt lon="5.794736" lat="51.219525"><ele>21.8</ele><time>2022-06-05T06:28:52.000Z</time></trkpt><trkpt lon="5.794789" lat="51.219573"><ele>21.8</ele><time>2022-06-05T06:28:53.000Z</time></trkpt><trkpt lon="5.794841" lat="51.219618"><ele>21.8</ele><time>2022-06-05T06:28:54.000Z</time></trkpt><trkpt lon="5.794893" lat="51.219657"><ele>21.8</ele><time>2022-06-05T06:28:55.000Z</time></trkpt><trkpt lon="5.794938" lat="51.219687"><ele>21.8</ele><time>2022-06-05T06:28:56.000Z</time></trkpt><trkpt lon="5.794983" lat="51.219714"><ele>21.8</ele><time>2022-06-05T06:28:57.000Z</time></trkpt><trkpt lon="5.795025" lat="51.219741"><ele>21.8</ele><time>2022-06-05T06:28:58.000Z</time></trkpt><trkpt lon="5.795064" lat="51.219757"><ele>22</ele><time>2022-06-05T06:28:59.000Z</time></trkpt><trkpt lon="5.795097" lat="51.219775"><ele>22</ele><time>2022-06-05T06:29:00.000Z</time></trkpt><trkpt lon="5.795129" lat="51.219795"><ele>22</ele><time>2022-06-05T06:29:01.000Z</time></trkpt><trkpt lon="5.795164" lat="51.219814"><ele>22.2</ele><time>2022-06-05T06:29:02.000Z</time></trkpt><trkpt lon="5.795203" lat="51.219836"><ele>22.2</ele><time>2022-06-05T06:29:03.000Z</time></trkpt><trkpt lon="5.795254" lat="51.219866"><ele>22.2</ele><time>2022-06-05T06:29:04.000Z</time></trkpt><trkpt lon="5.795314" lat="51.219897"><ele>22.2</ele><time>2022-06-05T06:29:05.000Z</time></trkpt><trkpt lon="5.795381" lat="51.219931"><ele>22</ele><time>2022-06-05T06:29:06.000Z</time></trkpt><trkpt lon="5.795449" lat="51.219969"><ele>22</ele><time>2022-06-05T06:29:07.000Z</time></trkpt><trkpt lon="5.79552" lat="51.220007"><ele>22</ele><time>2022-06-05T06:29:08.000Z</time></trkpt><trkpt lon="5.795592" lat="51.220049"><ele>22</ele><time>2022-06-05T06:29:09.000Z</time></trkpt><trkpt lon="5.795669" lat="51.220088"><ele>21.8</ele><time>2022-06-05T06:29:10.000Z</time></trkpt><trkpt lon="5.795748" lat="51.220126"><ele>21.8</ele><time>2022-06-05T06:29:11.000Z</time></trkpt><trkpt lon="5.795825" lat="51.220167"><ele>21.8</ele><time>2022-06-05T06:29:12.000Z</time></trkpt><trkpt lon="5.795906" lat="51.220205"><ele>21.8</ele><time>2022-06-05T06:29:13.000Z</time></trkpt><trkpt lon="5.795991" lat="51.220244"><ele>21.6</ele><time>2022-06-05T06:29:14.000Z</time></trkpt><trkpt lon="5.796075" lat="51.220287"><ele>21.4</ele><time>2022-06-05T06:29:15.000Z</time></trkpt><trkpt lon="5.796158" lat="51.220324"><ele>21.4</ele><time>2022-06-05T06:29:16.000Z</time></trkpt><trkpt lon="5.796243" lat="51.220359"><ele>21.4</ele><time>2022-06-05T06:29:17.000Z</time></trkpt><trkpt lon="5.796326" lat="51.220395"><ele>21.2</ele><time>2022-06-05T06:29:18.000Z</time></trkpt><trkpt lon="5.796419" lat="51.220431"><ele>21.2</ele><time>2022-06-05T06:29:19.000Z</time></trkpt><trkpt lon="5.796506" lat="51.220469"><ele>21</ele><time>2022-06-05T06:29:20.000Z</time></trkpt><trkpt lon="5.796596" lat="51.220504"><ele>21</ele><time>2022-06-05T06:29:21.000Z</time></trkpt><trkpt lon="5.796686" lat="51.220542"><ele>21</ele><time>2022-06-05T06:29:22.000Z</time></trkpt><trkpt lon="5.796777" lat="51.220576"><ele>21</ele><time>2022-06-05T06:29:23.000Z</time></trkpt><trkpt lon="5.796869" lat="51.220607"><ele>20.8</ele><time>2022-06-05T06:29:24.000Z</time></trkpt><trkpt lon="5.79696" lat="51.220637"><ele>20.8</ele><time>2022-06-05T06:29:25.000Z</time></trkpt><trkpt lon="5.797051" lat="51.220675"><ele>21</ele><time>2022-06-05T06:29:26.000Z</time></trkpt><trkpt lon="5.797144" lat="51.22071"><ele>20.8</ele><time>2022-06-05T06:29:27.000Z</time></trkpt><trkpt lon="5.797237" lat="51.220748"><ele>20.8</ele><time>2022-06-05T06:29:28.000Z</time></trkpt><trkpt lon="5.797327" lat="51.220786"><ele>21</ele><time>2022-06-05T06:29:29.000Z</time></trkpt><trkpt lon="5.797417" lat="51.220824"><ele>21</ele><time>2022-06-05T06:29:30.000Z</time></trkpt><trkpt lon="5.797505" lat="51.220862"><ele>21</ele><time>2022-06-05T06:29:31.000Z</time></trkpt><trkpt lon="5.797587" lat="51.220907"><ele>21</ele><time>2022-06-05T06:29:32.000Z</time></trkpt><trkpt lon="5.797669" lat="51.220953"><ele>21</ele><time>2022-06-05T06:29:33.000Z</time></trkpt><trkpt lon="5.797744" lat="51.220999"><ele>21</ele><time>2022-06-05T06:29:34.000Z</time></trkpt><trkpt lon="5.797814" lat="51.221044"><ele>21.2</ele><time>2022-06-05T06:29:35.000Z</time></trkpt><trkpt lon="5.797885" lat="51.221094"><ele>21.2</ele><time>2022-06-05T06:29:36.000Z</time></trkpt><trkpt lon="5.797949" lat="51.221144"><ele>21.2</ele><time>2022-06-05T06:29:37.000Z</time></trkpt><trkpt lon="5.79801" lat="51.221197"><ele>21.4</ele><time>2022-06-05T06:29:38.000Z</time></trkpt><trkpt lon="5.79807" lat="51.221251"><ele>21.4</ele><time>2022-06-05T06:29:39.000Z</time></trkpt><trkpt lon="5.798126" lat="51.221308"><ele>21.4</ele><time>2022-06-05T06:29:40.000Z</time></trkpt><trkpt lon="5.798182" lat="51.221361"><ele>21.2</ele><time>2022-06-05T06:29:41.000Z</time></trkpt><trkpt lon="5.798236" lat="51.221415"><ele>21.2</ele><time>2022-06-05T06:29:42.000Z</time></trkpt><trkpt lon="5.79829" lat="51.221468"><ele>21.2</ele><time>2022-06-05T06:29:43.000Z</time></trkpt><trkpt lon="5.798341" lat="51.221525"><ele>21</ele><time>2022-06-05T06:29:44.000Z</time></trkpt><trkpt lon="5.798394" lat="51.221583"><ele>21</ele><time>2022-06-05T06:29:45.000Z</time></trkpt><trkpt lon="5.798445" lat="51.22164"><ele>21</ele><time>2022-06-05T06:29:46.000Z</time></trkpt><trkpt lon="5.798497" lat="51.221694"><ele>21</ele><time>2022-06-05T06:29:47.000Z</time></trkpt><trkpt lon="5.798549" lat="51.221751"><ele>21</ele><time>2022-06-05T06:29:48.000Z</time></trkpt><trkpt lon="5.798602" lat="51.221808"><ele>21</ele><time>2022-06-05T06:29:49.000Z</time></trkpt><trkpt lon="5.798655" lat="51.221861"><ele>21</ele><time>2022-06-05T06:29:50.000Z</time></trkpt><trkpt lon="5.798707" lat="51.221918"><ele>21</ele><time>2022-06-05T06:29:51.000Z</time></trkpt><trkpt lon="5.798759" lat="51.221973"><ele>21</ele><time>2022-06-05T06:29:52.000Z</time></trkpt><trkpt lon="5.798815" lat="51.222033"><ele>21</ele><time>2022-06-05T06:29:53.000Z</time></trkpt><trkpt lon="5.798866" lat="51.222086"><ele>21</ele><time>2022-06-05T06:29:54.000Z</time></trkpt><trkpt lon="5.79892" lat="51.222143"><ele>21</ele><time>2022-06-05T06:29:55.000Z</time></trkpt><trkpt lon="5.79897" lat="51.222197"><ele>21.2</ele><time>2022-06-05T06:29:56.000Z</time></trkpt><trkpt lon="5.799023" lat="51.222254"><ele>21</ele><time>2022-06-05T06:29:57.000Z</time></trkpt><trkpt lon="5.799075" lat="51.222307"><ele>21</ele><time>2022-06-05T06:29:58.000Z</time></trkpt><trkpt lon="5.799128" lat="51.222364"><ele>21</ele><time>2022-06-05T06:29:59.000Z</time></trkpt><trkpt lon="5.799183" lat="51.222418"><ele>21</ele><time>2022-06-05T06:30:00.000Z</time></trkpt><trkpt lon="5.799239" lat="51.222472"><ele>20.8</ele><time>2022-06-05T06:30:01.000Z</time></trkpt><trkpt lon="5.799295" lat="51.222525"><ele>20.6</ele><time>2022-06-05T06:30:02.000Z</time></trkpt><trkpt lon="5.79935" lat="51.222582"><ele>20.6</ele><time>2022-06-05T06:30:03.000Z</time></trkpt><trkpt lon="5.799407" lat="51.222635"><ele>20.6</ele><time>2022-06-05T06:30:04.000Z</time></trkpt><trkpt lon="5.799471" lat="51.222685"><ele>20.6</ele><time>2022-06-05T06:30:05.000Z</time></trkpt><trkpt lon="5.799539" lat="51.222727"><ele>20.6</ele><time>2022-06-05T06:30:06.000Z</time></trkpt><trkpt lon="5.799615" lat="51.222769"><ele>20.8</ele><time>2022-06-05T06:30:07.000Z</time></trkpt><trkpt lon="5.799696" lat="51.222804"><ele>21</ele><time>2022-06-05T06:30:08.000Z</time></trkpt><trkpt lon="5.799779" lat="51.222838"><ele>21</ele><time>2022-06-05T06:30:09.000Z</time></trkpt><trkpt lon="5.799864" lat="51.222869"><ele>21.2</ele><time>2022-06-05T06:30:10.000Z</time></trkpt><trkpt lon="5.799949" lat="51.222899"><ele>21.4</ele><time>2022-06-05T06:30:11.000Z</time></trkpt><trkpt lon="5.800034" lat="51.222934"><ele>21.6</ele><time>2022-06-05T06:30:12.000Z</time></trkpt><trkpt lon="5.800114" lat="51.222964"><ele>21.8</ele><time>2022-06-05T06:30:13.000Z</time></trkpt><trkpt lon="5.800188" lat="51.222998"><ele>21.8</ele><time>2022-06-05T06:30:14.000Z</time></trkpt><trkpt lon="5.800255" lat="51.223029"><ele>21.8</ele><time>2022-06-05T06:30:15.000Z</time></trkpt><trkpt lon="5.800328" lat="51.223063"><ele>21.8</ele><time>2022-06-05T06:30:16.000Z</time></trkpt><trkpt lon="5.800401" lat="51.223094"><ele>22</ele><time>2022-06-05T06:30:17.000Z</time></trkpt><trkpt lon="5.800485" lat="51.223124"><ele>22</ele><time>2022-06-05T06:30:18.000Z</time></trkpt><trkpt lon="5.800568" lat="51.223155"><ele>22</ele><time>2022-06-05T06:30:19.000Z</time></trkpt><trkpt lon="5.800648" lat="51.223186"><ele>22</ele><time>2022-06-05T06:30:20.000Z</time></trkpt><trkpt lon="5.800729" lat="51.22322"><ele>22</ele><time>2022-06-05T06:30:21.000Z</time></trkpt><trkpt lon="5.800811" lat="51.223254"><ele>22</ele><time>2022-06-05T06:30:22.000Z</time></trkpt><trkpt lon="5.800906" lat="51.223281"><ele>22</ele><time>2022-06-05T06:30:23.000Z</time></trkpt><trkpt lon="5.801001" lat="51.223312"><ele>21.8</ele><time>2022-06-05T06:30:24.000Z</time></trkpt><trkpt lon="5.801093" lat="51.223341"><ele>21.8</ele><time>2022-06-05T06:30:25.000Z</time></trkpt><trkpt lon="5.801181" lat="51.223368"><ele>21.6</ele><time>2022-06-05T06:30:26.000Z</time></trkpt><trkpt lon="5.801271" lat="51.223395"><ele>21.6</ele><time>2022-06-05T06:30:27.000Z</time></trkpt><trkpt lon="5.801348" lat="51.223426"><ele>21.4</ele><time>2022-06-05T06:30:28.000Z</time></trkpt><trkpt lon="5.801422" lat="51.223457"><ele>21.2</ele><time>2022-06-05T06:30:29.000Z</time></trkpt><trkpt lon="5.801491" lat="51.223487"><ele>21</ele><time>2022-06-05T06:30:30.000Z</time></trkpt><trkpt lon="5.801575" lat="51.223506"><ele>20.8</ele><time>2022-06-05T06:30:31.000Z</time></trkpt><trkpt lon="5.801652" lat="51.223536"><ele>20.6</ele><time>2022-06-05T06:30:32.000Z</time></trkpt><trkpt lon="5.80173" lat="51.223571"><ele>20.6</ele><time>2022-06-05T06:30:33.000Z</time></trkpt><trkpt lon="5.801833" lat="51.223612"><ele>20.4</ele><time>2022-06-05T06:30:34.000Z</time></trkpt><trkpt lon="5.801948" lat="51.223647"><ele>20.4</ele><time>2022-06-05T06:30:35.000Z</time></trkpt><trkpt lon="5.802064" lat="51.223685"><ele>20.6</ele><time>2022-06-05T06:30:36.000Z</time></trkpt><trkpt lon="5.802183" lat="51.223723"><ele>20.8</ele><time>2022-06-05T06:30:37.000Z</time></trkpt><trkpt lon="5.802295" lat="51.223761"><ele>21</ele><time>2022-06-05T06:30:38.000Z</time></trkpt><trkpt lon="5.802405" lat="51.223796"><ele>21</ele><time>2022-06-05T06:30:39.000Z</time></trkpt><trkpt lon="5.802516" lat="51.223826"><ele>21</ele><time>2022-06-05T06:30:40.000Z</time></trkpt><trkpt lon="5.802626" lat="51.223857"><ele>21.2</ele><time>2022-06-05T06:30:41.000Z</time></trkpt><trkpt lon="5.802736" lat="51.223884"><ele>21.2</ele><time>2022-06-05T06:30:42.000Z</time></trkpt><trkpt lon="5.802847" lat="51.223907"><ele>21.4</ele><time>2022-06-05T06:30:43.000Z</time></trkpt><trkpt lon="5.802954" lat="51.223926"><ele>21.4</ele><time>2022-06-05T06:30:44.000Z</time></trkpt><trkpt lon="5.803064" lat="51.223949"><ele>21.6</ele><time>2022-06-05T06:30:45.000Z</time></trkpt><trkpt lon="5.803185" lat="51.223964"><ele>21.8</ele><time>2022-06-05T06:30:46.000Z</time></trkpt><trkpt lon="5.803299" lat="51.223976"><ele>21.8</ele><time>2022-06-05T06:30:47.000Z</time></trkpt><trkpt lon="5.803395" lat="51.223993"><ele>22</ele><time>2022-06-05T06:30:48.000Z</time></trkpt><trkpt lon="5.803507" lat="51.224006"><ele>22.2</ele><time>2022-06-05T06:30:49.000Z</time></trkpt><trkpt lon="5.803614" lat="51.224022"><ele>22.4</ele><time>2022-06-05T06:30:50.000Z</time></trkpt><trkpt lon="5.803723" lat="51.224033"><ele>22.6</ele><time>2022-06-05T06:30:51.000Z</time></trkpt><trkpt lon="5.803821" lat="51.224051"><ele>22.6</ele><time>2022-06-05T06:30:52.000Z</time></trkpt><trkpt lon="5.803923" lat="51.224067"><ele>22.8</ele><time>2022-06-05T06:30:53.000Z</time></trkpt><trkpt lon="5.804025" lat="51.224075"><ele>23</ele><time>2022-06-05T06:30:54.000Z</time></trkpt><trkpt lon="5.804128" lat="51.224086"><ele>23</ele><time>2022-06-05T06:30:55.000Z</time></trkpt><trkpt lon="5.804231" lat="51.224101"><ele>23.2</ele><time>2022-06-05T06:30:56.000Z</time></trkpt><trkpt lon="5.804345" lat="51.224121"><ele>23.2</ele><time>2022-06-05T06:30:57.000Z</time></trkpt><trkpt lon="5.804449" lat="51.224139"><ele>23.4</ele><time>2022-06-05T06:30:58.000Z</time></trkpt><trkpt lon="5.804558" lat="51.224155"><ele>23.4</ele><time>2022-06-05T06:30:59.000Z</time></trkpt><trkpt lon="5.804662" lat="51.22417"><ele>23.6</ele><time>2022-06-05T06:31:00.000Z</time></trkpt><trkpt lon="5.804763" lat="51.224193"><ele>23.8</ele><time>2022-06-05T06:31:01.000Z</time></trkpt><trkpt lon="5.804857" lat="51.224216"><ele>24</ele><time>2022-06-05T06:31:02.000Z</time></trkpt><trkpt lon="5.804943" lat="51.224239"><ele>24.2</ele><time>2022-06-05T06:31:03.000Z</time></trkpt><trkpt lon="5.805023" lat="51.224265"><ele>24.2</ele><time>2022-06-05T06:31:04.000Z</time></trkpt><trkpt lon="5.805101" lat="51.224292"><ele>24.4</ele><time>2022-06-05T06:31:05.000Z</time></trkpt><trkpt lon="5.80518" lat="51.224319"><ele>24.4</ele><time>2022-06-05T06:31:06.000Z</time></trkpt><trkpt lon="5.805265" lat="51.224345"><ele>24.6</ele><time>2022-06-05T06:31:07.000Z</time></trkpt><trkpt lon="5.805351" lat="51.224372"><ele>24.8</ele><time>2022-06-05T06:31:08.000Z</time></trkpt><trkpt lon="5.805438" lat="51.224399"><ele>25</ele><time>2022-06-05T06:31:09.000Z</time></trkpt><trkpt lon="5.805518" lat="51.224429"><ele>25.2</ele><time>2022-06-05T06:31:10.000Z</time></trkpt><trkpt lon="5.805595" lat="51.22446"><ele>25.4</ele><time>2022-06-05T06:31:11.000Z</time></trkpt><trkpt lon="5.805673" lat="51.22449"><ele>25.6</ele><time>2022-06-05T06:31:12.000Z</time></trkpt><trkpt lon="5.805749" lat="51.224521"><ele>25.8</ele><time>2022-06-05T06:31:13.000Z</time></trkpt><trkpt lon="5.805831" lat="51.224555"><ele>26</ele><time>2022-06-05T06:31:14.000Z</time></trkpt><trkpt lon="5.805916" lat="51.224586"><ele>26.2</ele><time>2022-06-05T06:31:15.000Z</time></trkpt><trkpt lon="5.806002" lat="51.224616"><ele>26.4</ele><time>2022-06-05T06:31:16.000Z</time></trkpt><trkpt lon="5.806096" lat="51.22465"><ele>26.6</ele><time>2022-06-05T06:31:17.000Z</time></trkpt><trkpt lon="5.806194" lat="51.224681"><ele>26.6</ele><time>2022-06-05T06:31:18.000Z</time></trkpt><trkpt lon="5.806294" lat="51.224712"><ele>26.6</ele><time>2022-06-05T06:31:19.000Z</time></trkpt><trkpt lon="5.806383" lat="51.224746"><ele>26.8</ele><time>2022-06-05T06:31:20.000Z</time></trkpt><trkpt lon="5.80648" lat="51.224773"><ele>27</ele><time>2022-06-05T06:31:21.000Z</time></trkpt><trkpt lon="5.806574" lat="51.224803"><ele>27.2</ele><time>2022-06-05T06:31:22.000Z</time></trkpt><trkpt lon="5.806666" lat="51.224834"><ele>27.4</ele><time>2022-06-05T06:31:23.000Z</time></trkpt><trkpt lon="5.806754" lat="51.224864"><ele>27.6</ele><time>2022-06-05T06:31:24.000Z</time></trkpt><trkpt lon="5.806847" lat="51.224898"><ele>27.8</ele><time>2022-06-05T06:31:25.000Z</time></trkpt><trkpt lon="5.806938" lat="51.224929"><ele>27.8</ele><time>2022-06-05T06:31:26.000Z</time></trkpt><trkpt lon="5.807029" lat="51.224959"><ele>28</ele><time>2022-06-05T06:31:27.000Z</time></trkpt><trkpt lon="5.807123" lat="51.224994"><ele>28.2</ele><time>2022-06-05T06:31:28.000Z</time></trkpt><trkpt lon="5.807213" lat="51.225024"><ele>28.4</ele><time>2022-06-05T06:31:29.000Z</time></trkpt><trkpt lon="5.807308" lat="51.225059"><ele>28.4</ele><time>2022-06-05T06:31:30.000Z</time></trkpt><trkpt lon="5.807401" lat="51.225093"><ele>28.4</ele><time>2022-06-05T06:31:31.000Z</time></trkpt><trkpt lon="5.807494" lat="51.225127"><ele>28.2</ele><time>2022-06-05T06:31:32.000Z</time></trkpt><trkpt lon="5.807589" lat="51.225162"><ele>28</ele><time>2022-06-05T06:31:33.000Z</time></trkpt><trkpt lon="5.807688" lat="51.225196"><ele>27.8</ele><time>2022-06-05T06:31:34.000Z</time></trkpt><trkpt lon="5.80778" lat="51.22523"><ele>27.4</ele><time>2022-06-05T06:31:35.000Z</time></trkpt><trkpt lon="5.807868" lat="51.22526"><ele>27.2</ele><time>2022-06-05T06:31:36.000Z</time></trkpt><trkpt lon="5.807958" lat="51.225298"><ele>27</ele><time>2022-06-05T06:31:37.000Z</time></trkpt><trkpt lon="5.808049" lat="51.225341"><ele>26.6</ele><time>2022-06-05T06:31:38.000Z</time></trkpt><trkpt lon="5.808134" lat="51.225375"><ele>26.4</ele><time>2022-06-05T06:31:39.000Z</time></trkpt><trkpt lon="5.808232" lat="51.225406"><ele>26</ele><time>2022-06-05T06:31:40.000Z</time></trkpt><trkpt lon="5.808334" lat="51.225444"><ele>26</ele><time>2022-06-05T06:31:41.000Z</time></trkpt><trkpt lon="5.808434" lat="51.225482"><ele>25.6</ele><time>2022-06-05T06:31:42.000Z</time></trkpt><trkpt lon="5.808527" lat="51.22552"><ele>25.6</ele><time>2022-06-05T06:31:43.000Z</time></trkpt><trkpt lon="5.808611" lat="51.225558"><ele>25.4</ele><time>2022-06-05T06:31:44.000Z</time></trkpt><trkpt lon="5.808696" lat="51.225596"><ele>25.2</ele><time>2022-06-05T06:31:45.000Z</time></trkpt><trkpt lon="5.808778" lat="51.225635"><ele>25</ele><time>2022-06-05T06:31:46.000Z</time></trkpt><trkpt lon="5.808869" lat="51.225676"><ele>24.8</ele><time>2022-06-05T06:31:47.000Z</time></trkpt><trkpt lon="5.808967" lat="51.225715"><ele>24.6</ele><time>2022-06-05T06:31:48.000Z</time></trkpt><trkpt lon="5.809075" lat="51.225753"><ele>24.6</ele><time>2022-06-05T06:31:49.000Z</time></trkpt><trkpt lon="5.809185" lat="51.225794"><ele>24.4</ele><time>2022-06-05T06:31:50.000Z</time></trkpt><trkpt lon="5.809297" lat="51.225833"><ele>24.4</ele><time>2022-06-05T06:31:51.000Z</time></trkpt><trkpt lon="5.809402" lat="51.225871"><ele>24.2</ele><time>2022-06-05T06:31:52.000Z</time></trkpt><trkpt lon="5.809525" lat="51.225916"><ele>24</ele><time>2022-06-05T06:31:53.000Z</time></trkpt><trkpt lon="5.809643" lat="51.225955"><ele>23.8</ele><time>2022-06-05T06:31:54.000Z</time></trkpt><trkpt lon="5.809761" lat="51.225992"><ele>23.6</ele><time>2022-06-05T06:31:55.000Z</time></trkpt><trkpt lon="5.809878" lat="51.226031"><ele>23.4</ele><time>2022-06-05T06:31:56.000Z</time></trkpt><trkpt lon="5.809995" lat="51.226069"><ele>23.2</ele><time>2022-06-05T06:31:57.000Z</time></trkpt><trkpt lon="5.810108" lat="51.226103"><ele>23.2</ele><time>2022-06-05T06:31:58.000Z</time></trkpt><trkpt lon="5.810224" lat="51.226142"><ele>23</ele><time>2022-06-05T06:31:59.000Z</time></trkpt><trkpt lon="5.810342" lat="51.226173"><ele>22.8</ele><time>2022-06-05T06:32:00.000Z</time></trkpt><trkpt lon="5.810457" lat="51.226207"><ele>22.6</ele><time>2022-06-05T06:32:01.000Z</time></trkpt><trkpt lon="5.81057" lat="51.226237"><ele>22.4</ele><time>2022-06-05T06:32:02.000Z</time></trkpt><trkpt lon="5.810685" lat="51.226264"><ele>22.4</ele><time>2022-06-05T06:32:03.000Z</time></trkpt><trkpt lon="5.810795" lat="51.226295"><ele>22.4</ele><time>2022-06-05T06:32:04.000Z</time></trkpt><trkpt lon="5.810905" lat="51.226318"><ele>22.2</ele><time>2022-06-05T06:32:05.000Z</time></trkpt><trkpt lon="5.811017" lat="51.226344"><ele>22</ele><time>2022-06-05T06:32:06.000Z</time></trkpt><trkpt lon="5.811129" lat="51.226367"><ele>22</ele><time>2022-06-05T06:32:07.000Z</time></trkpt><trkpt lon="5.811244" lat="51.226387"><ele>22</ele><time>2022-06-05T06:32:08.000Z</time></trkpt><trkpt lon="5.811356" lat="51.226409"><ele>21.8</ele><time>2022-06-05T06:32:09.000Z</time></trkpt><trkpt lon="5.81147" lat="51.226428"><ele>21.8</ele><time>2022-06-05T06:32:10.000Z</time></trkpt><trkpt lon="5.811583" lat="51.226451"><ele>21.6</ele><time>2022-06-05T06:32:11.000Z</time></trkpt><trkpt lon="5.811697" lat="51.22647"><ele>21.4</ele><time>2022-06-05T06:32:12.000Z</time></trkpt><trkpt lon="5.81181" lat="51.226489"><ele>21.2</ele><time>2022-06-05T06:32:13.000Z</time></trkpt><trkpt lon="5.811917" lat="51.226516"><ele>21.2</ele><time>2022-06-05T06:32:14.000Z</time></trkpt><trkpt lon="5.812024" lat="51.226539"><ele>21.2</ele><time>2022-06-05T06:32:15.000Z</time></trkpt><trkpt lon="5.812129" lat="51.226558"><ele>21.2</ele><time>2022-06-05T06:32:16.000Z</time></trkpt><trkpt lon="5.812234" lat="51.226581"><ele>21.2</ele><time>2022-06-05T06:32:17.000Z</time></trkpt><trkpt lon="5.812335" lat="51.226607"><ele>21.2</ele><time>2022-06-05T06:32:18.000Z</time></trkpt><trkpt lon="5.812438" lat="51.226634"><ele>21</ele><time>2022-06-05T06:32:19.000Z</time></trkpt><trkpt lon="5.812543" lat="51.226661"><ele>21</ele><time>2022-06-05T06:32:20.000Z</time></trkpt><trkpt lon="5.812645" lat="51.226688"><ele>20.8</ele><time>2022-06-05T06:32:21.000Z</time></trkpt><trkpt lon="5.812746" lat="51.226714"><ele>21</ele><time>2022-06-05T06:32:22.000Z</time></trkpt><trkpt lon="5.812845" lat="51.226741"><ele>21.2</ele><time>2022-06-05T06:32:23.000Z</time></trkpt><trkpt lon="5.812947" lat="51.226768"><ele>21.2</ele><time>2022-06-05T06:32:24.000Z</time></trkpt><trkpt lon="5.813045" lat="51.226798"><ele>21.4</ele><time>2022-06-05T06:32:25.000Z</time></trkpt><trkpt lon="5.813143" lat="51.226832"><ele>21.4</ele><time>2022-06-05T06:32:26.000Z</time></trkpt><trkpt lon="5.813239" lat="51.226859"><ele>21.2</ele><time>2022-06-05T06:32:27.000Z</time></trkpt><trkpt lon="5.813339" lat="51.22689"><ele>21.2</ele><time>2022-06-05T06:32:28.000Z</time></trkpt><trkpt lon="5.813435" lat="51.226924"><ele>21.2</ele><time>2022-06-05T06:32:29.000Z</time></trkpt><trkpt lon="5.813529" lat="51.226951"><ele>21.2</ele><time>2022-06-05T06:32:30.000Z</time></trkpt><trkpt lon="5.813624" lat="51.226981"><ele>21.4</ele><time>2022-06-05T06:32:31.000Z</time></trkpt><trkpt lon="5.813717" lat="51.227015"><ele>21.4</ele><time>2022-06-05T06:32:32.000Z</time></trkpt><trkpt lon="5.813811" lat="51.227046"><ele>21.6</ele><time>2022-06-05T06:32:33.000Z</time></trkpt><trkpt lon="5.813902" lat="51.22708"><ele>21.8</ele><time>2022-06-05T06:32:34.000Z</time></trkpt><trkpt lon="5.813994" lat="51.227111"><ele>21.8</ele><time>2022-06-05T06:32:35.000Z</time></trkpt><trkpt lon="5.814083" lat="51.227144"><ele>21.8</ele><time>2022-06-05T06:32:36.000Z</time></trkpt><trkpt lon="5.814176" lat="51.227175"><ele>21.8</ele><time>2022-06-05T06:32:37.000Z</time></trkpt><trkpt lon="5.814269" lat="51.22721"><ele>21.6</ele><time>2022-06-05T06:32:38.000Z</time></trkpt><trkpt lon="5.814361" lat="51.227241"><ele>21.6</ele><time>2022-06-05T06:32:39.000Z</time></trkpt><trkpt lon="5.814449" lat="51.227274"><ele>21.6</ele><time>2022-06-05T06:32:40.000Z</time></trkpt><trkpt lon="5.814544" lat="51.227309"><ele>21.6</ele><time>2022-06-05T06:32:41.000Z</time></trkpt><trkpt lon="5.814634" lat="51.227344"><ele>21.6</ele><time>2022-06-05T06:32:42.000Z</time></trkpt><trkpt lon="5.814723" lat="51.227378"><ele>21.4</ele><time>2022-06-05T06:32:43.000Z</time></trkpt><trkpt lon="5.814809" lat="51.227412"><ele>21.2</ele><time>2022-06-05T06:32:44.000Z</time></trkpt><trkpt lon="5.814896" lat="51.22745"><ele>21.2</ele><time>2022-06-05T06:32:45.000Z</time></trkpt><trkpt lon="5.814985" lat="51.227481"><ele>21.4</ele><time>2022-06-05T06:32:46.000Z</time></trkpt><trkpt lon="5.815074" lat="51.227519"><ele>21.6</ele><time>2022-06-05T06:32:47.000Z</time></trkpt><trkpt lon="5.815161" lat="51.227553"><ele>21.6</ele><time>2022-06-05T06:32:48.000Z</time></trkpt><trkpt lon="5.815254" lat="51.227584"><ele>21.8</ele><time>2022-06-05T06:32:49.000Z</time></trkpt><trkpt lon="5.815345" lat="51.227618"><ele>21.8</ele><time>2022-06-05T06:32:50.000Z</time></trkpt><trkpt lon="5.815437" lat="51.227652"><ele>22</ele><time>2022-06-05T06:32:51.000Z</time></trkpt><trkpt lon="5.815528" lat="51.227687"><ele>21.8</ele><time>2022-06-05T06:32:52.000Z</time></trkpt><trkpt lon="5.81562" lat="51.227721"><ele>21.8</ele><time>2022-06-05T06:32:53.000Z</time></trkpt><trkpt lon="5.815714" lat="51.227755"><ele>21.8</ele><time>2022-06-05T06:32:54.000Z</time></trkpt><trkpt lon="5.815803" lat="51.227789"><ele>21.8</ele><time>2022-06-05T06:32:55.000Z</time></trkpt><trkpt lon="5.81589" lat="51.227823"><ele>21.8</ele><time>2022-06-05T06:32:56.000Z</time></trkpt><trkpt lon="5.815981" lat="51.227855"><ele>21.8</ele><time>2022-06-05T06:32:57.000Z</time></trkpt><trkpt lon="5.816069" lat="51.227889"><ele>21.8</ele><time>2022-06-05T06:32:58.000Z</time></trkpt><trkpt lon="5.816161" lat="51.227923"><ele>21.8</ele><time>2022-06-05T06:32:59.000Z</time></trkpt><trkpt lon="5.81625" lat="51.227958"><ele>21.8</ele><time>2022-06-05T06:33:00.000Z</time></trkpt><trkpt lon="5.816341" lat="51.227991"><ele>21.8</ele><time>2022-06-05T06:33:01.000Z</time></trkpt><trkpt lon="5.816434" lat="51.22803"><ele>21.8</ele><time>2022-06-05T06:33:02.000Z</time></trkpt><trkpt lon="5.816526" lat="51.228065"><ele>21.6</ele><time>2022-06-05T06:33:03.000Z</time></trkpt><trkpt lon="5.816622" lat="51.228099"><ele>21.6</ele><time>2022-06-05T06:33:04.000Z</time></trkpt><trkpt lon="5.816715" lat="51.228133"><ele>21.2</ele><time>2022-06-05T06:33:05.000Z</time></trkpt><trkpt lon="5.816805" lat="51.228167"><ele>21.2</ele><time>2022-06-05T06:33:06.000Z</time></trkpt><trkpt lon="5.816901" lat="51.228206"><ele>21.2</ele><time>2022-06-05T06:33:07.000Z</time></trkpt><trkpt lon="5.816993" lat="51.228236"><ele>21.2</ele><time>2022-06-05T06:33:08.000Z</time></trkpt><trkpt lon="5.817084" lat="51.228271"><ele>21.2</ele><time>2022-06-05T06:33:09.000Z</time></trkpt><trkpt lon="5.817172" lat="51.228308"><ele>21.2</ele><time>2022-06-05T06:33:10.000Z</time></trkpt><trkpt lon="5.81726" lat="51.228343"><ele>21.2</ele><time>2022-06-05T06:33:11.000Z</time></trkpt><trkpt lon="5.817352" lat="51.228377"><ele>21.2</ele><time>2022-06-05T06:33:12.000Z</time></trkpt><trkpt lon="5.817443" lat="51.228411"><ele>21.2</ele><time>2022-06-05T06:33:13.000Z</time></trkpt><trkpt lon="5.817538" lat="51.228446"><ele>21</ele><time>2022-06-05T06:33:14.000Z</time></trkpt><trkpt lon="5.817627" lat="51.22848"><ele>21.2</ele><time>2022-06-05T06:33:15.000Z</time></trkpt><trkpt lon="5.817714" lat="51.228514"><ele>21.2</ele><time>2022-06-05T06:33:16.000Z</time></trkpt><trkpt lon="5.817804" lat="51.228549"><ele>21.2</ele><time>2022-06-05T06:33:17.000Z</time></trkpt><trkpt lon="5.817893" lat="51.228583"><ele>21.4</ele><time>2022-06-05T06:33:18.000Z</time></trkpt><trkpt lon="5.81798" lat="51.228617"><ele>21.2</ele><time>2022-06-05T06:33:19.000Z</time></trkpt><trkpt lon="5.818067" lat="51.228652"><ele>21</ele><time>2022-06-05T06:33:20.000Z</time></trkpt><trkpt lon="5.818154" lat="51.228686"><ele>20.8</ele><time>2022-06-05T06:33:21.000Z</time></trkpt><trkpt lon="5.818242" lat="51.22872"><ele>20.8</ele><time>2022-06-05T06:33:22.000Z</time></trkpt><trkpt lon="5.818331" lat="51.228751"><ele>20.6</ele><time>2022-06-05T06:33:23.000Z</time></trkpt><trkpt lon="5.818419" lat="51.228785"><ele>20.6</ele><time>2022-06-05T06:33:24.000Z</time></trkpt><trkpt lon="5.818507" lat="51.228816"><ele>20.6</ele><time>2022-06-05T06:33:25.000Z</time></trkpt><trkpt lon="5.818594" lat="51.228847"><ele>20.8</ele><time>2022-06-05T06:33:26.000Z</time></trkpt><trkpt lon="5.818683" lat="51.228877"><ele>20.8</ele><time>2022-06-05T06:33:27.000Z</time></trkpt><trkpt lon="5.818771" lat="51.228908"><ele>21</ele><time>2022-06-05T06:33:28.000Z</time></trkpt><trkpt lon="5.818857" lat="51.228938"><ele>21</ele><time>2022-06-05T06:33:29.000Z</time></trkpt><trkpt lon="5.818942" lat="51.228969"><ele>21.2</ele><time>2022-06-05T06:33:30.000Z</time></trkpt><trkpt lon="5.819026" lat="51.228999"><ele>21</ele><time>2022-06-05T06:33:31.000Z</time></trkpt><trkpt lon="5.819105" lat="51.229028"><ele>21</ele><time>2022-06-05T06:33:32.000Z</time></trkpt><trkpt lon="5.819194" lat="51.22906"><ele>21.2</ele><time>2022-06-05T06:33:33.000Z</time></trkpt><trkpt lon="5.819279" lat="51.229087"><ele>21.2</ele><time>2022-06-05T06:33:34.000Z</time></trkpt><trkpt lon="5.819363" lat="51.229114"><ele>21.2</ele><time>2022-06-05T06:33:35.000Z</time></trkpt><trkpt lon="5.819446" lat="51.229137"><ele>21</ele><time>2022-06-05T06:33:36.000Z</time></trkpt><trkpt lon="5.819527" lat="51.22916"><ele>21</ele><time>2022-06-05T06:33:37.000Z</time></trkpt><trkpt lon="5.819604" lat="51.229183"><ele>21.2</ele><time>2022-06-05T06:33:38.000Z</time></trkpt><trkpt lon="5.819673" lat="51.229198"><ele>21.4</ele><time>2022-06-05T06:33:39.000Z</time></trkpt><trkpt lon="5.819731" lat="51.229217"><ele>21.4</ele><time>2022-06-05T06:33:40.000Z</time></trkpt><trkpt lon="5.819772" lat="51.229243"><ele>21.6</ele><time>2022-06-05T06:33:41.000Z</time></trkpt><trkpt lon="5.819797" lat="51.229277"><ele>21.6</ele><time>2022-06-05T06:33:42.000Z</time></trkpt><trkpt lon="5.819806" lat="51.229315"><ele>21.6</ele><time>2022-06-05T06:33:43.000Z</time></trkpt><trkpt lon="5.8198" lat="51.229357"><ele>21.6</ele><time>2022-06-05T06:33:44.000Z</time></trkpt><trkpt lon="5.819771" lat="51.229399"><ele>21.6</ele><time>2022-06-05T06:33:45.000Z</time></trkpt><trkpt lon="5.819731" lat="51.229441"><ele>21.4</ele><time>2022-06-05T06:33:46.000Z</time></trkpt><trkpt lon="5.819688" lat="51.229487"><ele>21.2</ele><time>2022-06-05T06:33:47.000Z</time></trkpt><trkpt lon="5.81965" lat="51.229533"><ele>21.2</ele><time>2022-06-05T06:33:48.000Z</time></trkpt><trkpt lon="5.819611" lat="51.229579"><ele>21.2</ele><time>2022-06-05T06:33:49.000Z</time></trkpt><trkpt lon="5.819574" lat="51.229624"><ele>21.2</ele><time>2022-06-05T06:33:50.000Z</time></trkpt><trkpt lon="5.819536" lat="51.22967"><ele>21.2</ele><time>2022-06-05T06:33:51.000Z</time></trkpt><trkpt lon="5.819504" lat="51.22971"><ele>21.2</ele><time>2022-06-05T06:33:52.000Z</time></trkpt><trkpt lon="5.819469" lat="51.229758"><ele>21.2</ele><time>2022-06-05T06:33:53.000Z</time></trkpt><trkpt lon="5.819438" lat="51.229796"><ele>21.2</ele><time>2022-06-05T06:33:54.000Z</time></trkpt><trkpt lon="5.819411" lat="51.229838"><ele>21.2</ele><time>2022-06-05T06:33:55.000Z</time></trkpt><trkpt lon="5.819384" lat="51.229872"><ele>21.2</ele><time>2022-06-05T06:33:56.000Z</time></trkpt><trkpt lon="5.819357" lat="51.229909"><ele>21.2</ele><time>2022-06-05T06:33:57.000Z</time></trkpt><trkpt lon="5.819328" lat="51.229945"><ele>21.2</ele><time>2022-06-05T06:33:58.000Z</time></trkpt><trkpt lon="5.819299" lat="51.229979"><ele>21.2</ele><time>2022-06-05T06:33:59.000Z</time></trkpt><trkpt lon="5.819274" lat="51.230014"><ele>21</ele><time>2022-06-05T06:34:00.000Z</time></trkpt><trkpt lon="5.819249" lat="51.230048"><ele>21</ele><time>2022-06-05T06:34:01.000Z</time></trkpt><trkpt lon="5.819225" lat="51.230082"><ele>21.2</ele><time>2022-06-05T06:34:02.000Z</time></trkpt><trkpt lon="5.819202" lat="51.230113"><ele>21.2</ele><time>2022-06-05T06:34:03.000Z</time></trkpt><trkpt lon="5.819179" lat="51.230144"><ele>21.2</ele><time>2022-06-05T06:34:04.000Z</time></trkpt><trkpt lon="5.819156" lat="51.230174"><ele>21.2</ele><time>2022-06-05T06:34:05.000Z</time></trkpt><trkpt lon="5.819137" lat="51.230204"><ele>21.2</ele><time>2022-06-05T06:34:06.000Z</time></trkpt><trkpt lon="5.819124" lat="51.230231"><ele>21.4</ele><time>2022-06-05T06:34:07.000Z</time></trkpt><trkpt lon="5.819126" lat="51.23025"><ele>21.4</ele><time>2022-06-05T06:34:08.000Z</time></trkpt><trkpt lon="5.819146" lat="51.230262"><ele>21.4</ele><time>2022-06-05T06:34:09.000Z</time></trkpt><trkpt lon="5.819172" lat="51.230266"><ele>21.6</ele><time>2022-06-05T06:34:10.000Z</time></trkpt><trkpt lon="5.819193" lat="51.230263"><ele>21.6</ele><time>2022-06-05T06:34:11.000Z</time></trkpt><trkpt lon="5.819205" lat="51.230259"><ele>21.8</ele><time>2022-06-05T06:34:28.000Z</time></trkpt><trkpt lon="5.81925" lat="51.230252"><ele>21.8</ele><time>2022-06-05T06:34:29.000Z</time></trkpt><trkpt lon="5.819277" lat="51.230244"><ele>21.8</ele><time>2022-06-05T06:34:30.000Z</time></trkpt><trkpt lon="5.819313" lat="51.230236"><ele>21.8</ele><time>2022-06-05T06:34:31.000Z</time></trkpt><trkpt lon="5.819355" lat="51.230229"><ele>21.8</ele><time>2022-06-05T06:34:32.000Z</time></trkpt><trkpt lon="5.8194" lat="51.230217"><ele>21.8</ele><time>2022-06-05T06:34:33.000Z</time></trkpt><trkpt lon="5.81945" lat="51.230206"><ele>21.8</ele><time>2022-06-05T06:34:34.000Z</time></trkpt><trkpt lon="5.81951" lat="51.230191"><ele>21.8</ele><time>2022-06-05T06:34:35.000Z</time></trkpt><trkpt lon="5.819573" lat="51.230176"><ele>21.6</ele><time>2022-06-05T06:34:36.000Z</time></trkpt><trkpt lon="5.819641" lat="51.23016"><ele>21.6</ele><time>2022-06-05T06:34:37.000Z</time></trkpt><trkpt lon="5.819713" lat="51.230152"><ele>21.6</ele><time>2022-06-05T06:34:38.000Z</time></trkpt><trkpt lon="5.819793" lat="51.230148"><ele>21.8</ele><time>2022-06-05T06:34:39.000Z</time></trkpt><trkpt lon="5.81987" lat="51.230141"><ele>21.6</ele><time>2022-06-05T06:34:40.000Z</time></trkpt><trkpt lon="5.819945" lat="51.230137"><ele>21.6</ele><time>2022-06-05T06:34:41.000Z</time></trkpt><trkpt lon="5.820021" lat="51.230118"><ele>21.6</ele><time>2022-06-05T06:34:42.000Z</time></trkpt><trkpt lon="5.820094" lat="51.230096"><ele>21.8</ele><time>2022-06-05T06:34:43.000Z</time></trkpt><trkpt lon="5.820168" lat="51.230069"><ele>21.8</ele><time>2022-06-05T06:34:44.000Z</time></trkpt><trkpt lon="5.820242" lat="51.23005"><ele>21.8</ele><time>2022-06-05T06:34:45.000Z</time></trkpt><trkpt lon="5.820326" lat="51.230031"><ele>21.8</ele><time>2022-06-05T06:34:46.000Z</time></trkpt><trkpt lon="5.82041" lat="51.230012"><ele>21.8</ele><time>2022-06-05T06:34:47.000Z</time></trkpt><trkpt lon="5.820496" lat="51.229993"><ele>21.8</ele><time>2022-06-05T06:34:48.000Z</time></trkpt><trkpt lon="5.820587" lat="51.229977"><ele>21.8</ele><time>2022-06-05T06:34:49.000Z</time></trkpt><trkpt lon="5.820678" lat="51.229962"><ele>21.8</ele><time>2022-06-05T06:34:50.000Z</time></trkpt><trkpt lon="5.820777" lat="51.229947"><ele>21.8</ele><time>2022-06-05T06:34:51.000Z</time></trkpt><trkpt lon="5.820869" lat="51.229928"><ele>21.8</ele><time>2022-06-05T06:34:52.000Z</time></trkpt><trkpt lon="5.820963" lat="51.229909"><ele>21.8</ele><time>2022-06-05T06:34:53.000Z</time></trkpt><trkpt lon="5.821059" lat="51.229893"><ele>22</ele><time>2022-06-05T06:34:54.000Z</time></trkpt><trkpt lon="5.821154" lat="51.229871"><ele>22</ele><time>2022-06-05T06:34:55.000Z</time></trkpt><trkpt lon="5.821246" lat="51.229848"><ele>22</ele><time>2022-06-05T06:34:56.000Z</time></trkpt><trkpt lon="5.82134" lat="51.229825"><ele>21.8</ele><time>2022-06-05T06:34:57.000Z</time></trkpt><trkpt lon="5.821434" lat="51.229806"><ele>21.8</ele><time>2022-06-05T06:34:58.000Z</time></trkpt><trkpt lon="5.821526" lat="51.229783"><ele>22</ele><time>2022-06-05T06:34:59.000Z</time></trkpt><trkpt lon="5.821619" lat="51.229764"><ele>22.2</ele><time>2022-06-05T06:35:00.000Z</time></trkpt><trkpt lon="5.821711" lat="51.229741"><ele>22.4</ele><time>2022-06-05T06:35:01.000Z</time></trkpt><trkpt lon="5.821806" lat="51.229718"><ele>22.4</ele><time>2022-06-05T06:35:02.000Z</time></trkpt><trkpt lon="5.8219" lat="51.229699"><ele>22.6</ele><time>2022-06-05T06:35:03.000Z</time></trkpt><trkpt lon="5.821994" lat="51.229676"><ele>22.6</ele><time>2022-06-05T06:35:04.000Z</time></trkpt><trkpt lon="5.82209" lat="51.229653"><ele>22.6</ele><time>2022-06-05T06:35:05.000Z</time></trkpt><trkpt lon="5.822188" lat="51.229634"><ele>22.8</ele><time>2022-06-05T06:35:06.000Z</time></trkpt><trkpt lon="5.822289" lat="51.229607"><ele>22.8</ele><time>2022-06-05T06:35:07.000Z</time></trkpt><trkpt lon="5.822386" lat="51.229588"><ele>23</ele><time>2022-06-05T06:35:08.000Z</time></trkpt><trkpt lon="5.822487" lat="51.229565"><ele>23</ele><time>2022-06-05T06:35:09.000Z</time></trkpt><trkpt lon="5.822588" lat="51.229539"><ele>23</ele><time>2022-06-05T06:35:10.000Z</time></trkpt><trkpt lon="5.822687" lat="51.229516"><ele>23</ele><time>2022-06-05T06:35:11.000Z</time></trkpt><trkpt lon="5.822789" lat="51.229493"><ele>23.2</ele><time>2022-06-05T06:35:12.000Z</time></trkpt><trkpt lon="5.822888" lat="51.22947"><ele>23.2</ele><time>2022-06-05T06:35:13.000Z</time></trkpt><trkpt lon="5.822986" lat="51.229447"><ele>23.2</ele><time>2022-06-05T06:35:14.000Z</time></trkpt><trkpt lon="5.823085" lat="51.229424"><ele>23.4</ele><time>2022-06-05T06:35:15.000Z</time></trkpt><trkpt lon="5.823184" lat="51.229405"><ele>23.4</ele><time>2022-06-05T06:35:16.000Z</time></trkpt><trkpt lon="5.823282" lat="51.229386"><ele>23.6</ele><time>2022-06-05T06:35:17.000Z</time></trkpt><trkpt lon="5.823382" lat="51.229367"><ele>23.6</ele><time>2022-06-05T06:35:18.000Z</time></trkpt><trkpt lon="5.823482" lat="51.229351"><ele>23.6</ele><time>2022-06-05T06:35:19.000Z</time></trkpt><trkpt lon="5.823576" lat="51.229336"><ele>23.6</ele><time>2022-06-05T06:35:20.000Z</time></trkpt><trkpt lon="5.823667" lat="51.229321"><ele>23.6</ele><time>2022-06-05T06:35:21.000Z</time></trkpt><trkpt lon="5.82376" lat="51.229313"><ele>23.6</ele><time>2022-06-05T06:35:22.000Z</time></trkpt><trkpt lon="5.823858" lat="51.229302"><ele>23.6</ele><time>2022-06-05T06:35:23.000Z</time></trkpt><trkpt lon="5.823958" lat="51.22929"><ele>23.6</ele><time>2022-06-05T06:35:24.000Z</time></trkpt><trkpt lon="5.82406" lat="51.229279"><ele>23.6</ele><time>2022-06-05T06:35:25.000Z</time></trkpt><trkpt lon="5.824164" lat="51.229271"><ele>23.6</ele><time>2022-06-05T06:35:26.000Z</time></trkpt><trkpt lon="5.824272" lat="51.229264"><ele>23.6</ele><time>2022-06-05T06:35:27.000Z</time></trkpt><trkpt lon="5.824382" lat="51.22926"><ele>23.6</ele><time>2022-06-05T06:35:28.000Z</time></trkpt><trkpt lon="5.824492" lat="51.229252"><ele>23.6</ele><time>2022-06-05T06:35:29.000Z</time></trkpt><trkpt lon="5.824607" lat="51.229248"><ele>23.4</ele><time>2022-06-05T06:35:30.000Z</time></trkpt><trkpt lon="5.824718" lat="51.229248"><ele>23.4</ele><time>2022-06-05T06:35:31.000Z</time></trkpt><trkpt lon="5.82483" lat="51.229244"><ele>23.4</ele><time>2022-06-05T06:35:32.000Z</time></trkpt><trkpt lon="5.824935" lat="51.229241"><ele>23.4</ele><time>2022-06-05T06:35:33.000Z</time></trkpt><trkpt lon="5.825046" lat="51.22924"><ele>23.4</ele><time>2022-06-05T06:35:34.000Z</time></trkpt><trkpt lon="5.825155" lat="51.22924"><ele>23.4</ele><time>2022-06-05T06:35:35.000Z</time></trkpt><trkpt lon="5.825261" lat="51.22924"><ele>23.4</ele><time>2022-06-05T06:35:36.000Z</time></trkpt><trkpt lon="5.825366" lat="51.22924"><ele>23.4</ele><time>2022-06-05T06:35:37.000Z</time></trkpt><trkpt lon="5.825476" lat="51.22924"><ele>23.4</ele><time>2022-06-05T06:35:38.000Z</time></trkpt><trkpt lon="5.825584" lat="51.22924"><ele>23.4</ele><time>2022-06-05T06:35:39.000Z</time></trkpt><trkpt lon="5.825691" lat="51.229237"><ele>23.4</ele><time>2022-06-05T06:35:40.000Z</time></trkpt><trkpt lon="5.8258" lat="51.229237"><ele>23.2</ele><time>2022-06-05T06:35:41.000Z</time></trkpt><trkpt lon="5.825908" lat="51.229237"><ele>23.2</ele><time>2022-06-05T06:35:42.000Z</time></trkpt><trkpt lon="5.826021" lat="51.229237"><ele>23.2</ele><time>2022-06-05T06:35:43.000Z</time></trkpt><trkpt lon="5.826133" lat="51.229237"><ele>23.4</ele><time>2022-06-05T06:35:44.000Z</time></trkpt><trkpt lon="5.826244" lat="51.229237"><ele>23.4</ele><time>2022-06-05T06:35:45.000Z</time></trkpt><trkpt lon="5.826353" lat="51.229237"><ele>23.4</ele><time>2022-06-05T06:35:46.000Z</time></trkpt><trkpt lon="5.826465" lat="51.22924"><ele>23.4</ele><time>2022-06-05T06:35:47.000Z</time></trkpt><trkpt lon="5.826578" lat="51.22924"><ele>23.4</ele><time>2022-06-05T06:35:48.000Z</time></trkpt><trkpt lon="5.826691" lat="51.22924"><ele>23.4</ele><time>2022-06-05T06:35:49.000Z</time></trkpt><trkpt lon="5.826798" lat="51.22924"><ele>23.6</ele><time>2022-06-05T06:35:50.000Z</time></trkpt><trkpt lon="5.826911" lat="51.229237"><ele>23.4</ele><time>2022-06-05T06:35:51.000Z</time></trkpt><trkpt lon="5.827016" lat="51.229237"><ele>23.4</ele><time>2022-06-05T06:35:52.000Z</time></trkpt><trkpt lon="5.827128" lat="51.229237"><ele>23.6</ele><time>2022-06-05T06:35:53.000Z</time></trkpt><trkpt lon="5.827237" lat="51.229237"><ele>23.6</ele><time>2022-06-05T06:35:54.000Z</time></trkpt><trkpt lon="5.827346" lat="51.229233"><ele>23.6</ele><time>2022-06-05T06:35:55.000Z</time></trkpt><trkpt lon="5.827459" lat="51.229236"><ele>23.6</ele><time>2022-06-05T06:35:56.000Z</time></trkpt><trkpt lon="5.827572" lat="51.229237"><ele>23.6</ele><time>2022-06-05T06:35:57.000Z</time></trkpt><trkpt lon="5.827678" lat="51.229237"><ele>23.6</ele><time>2022-06-05T06:35:58.000Z</time></trkpt><trkpt lon="5.82779" lat="51.229237"><ele>23.6</ele><time>2022-06-05T06:35:59.000Z</time></trkpt><trkpt lon="5.827903" lat="51.229237"><ele>23.6</ele><time>2022-06-05T06:36:00.000Z</time></trkpt><trkpt lon="5.828017" lat="51.229237"><ele>23.6</ele><time>2022-06-05T06:36:01.000Z</time></trkpt><trkpt lon="5.828131" lat="51.229237"><ele>23.6</ele><time>2022-06-05T06:36:02.000Z</time></trkpt><trkpt lon="5.828244" lat="51.229237"><ele>23.4</ele><time>2022-06-05T06:36:03.000Z</time></trkpt><trkpt lon="5.828357" lat="51.229237"><ele>23.4</ele><time>2022-06-05T06:36:04.000Z</time></trkpt><trkpt lon="5.828469" lat="51.229237"><ele>23.4</ele><time>2022-06-05T06:36:05.000Z</time></trkpt><trkpt lon="5.828582" lat="51.229237"><ele>23.6</ele><time>2022-06-05T06:36:06.000Z</time></trkpt><trkpt lon="5.828691" lat="51.229237"><ele>23.6</ele><time>2022-06-05T06:36:07.000Z</time></trkpt><trkpt lon="5.828807" lat="51.229237"><ele>23.6</ele><time>2022-06-05T06:36:08.000Z</time></trkpt><trkpt lon="5.82892" lat="51.229237"><ele>23.6</ele><time>2022-06-05T06:36:09.000Z</time></trkpt><trkpt lon="5.829034" lat="51.229237"><ele>23.4</ele><time>2022-06-05T06:36:10.000Z</time></trkpt><trkpt lon="5.829151" lat="51.229237"><ele>23.4</ele><time>2022-06-05T06:36:11.000Z</time></trkpt><trkpt lon="5.829264" lat="51.229233"><ele>23.4</ele><time>2022-06-05T06:36:12.000Z</time></trkpt><trkpt lon="5.82938" lat="51.229233"><ele>23.4</ele><time>2022-06-05T06:36:13.000Z</time></trkpt><trkpt lon="5.829495" lat="51.229229"><ele>23.2</ele><time>2022-06-05T06:36:14.000Z</time></trkpt><trkpt lon="5.829608" lat="51.229229"><ele>23.2</ele><time>2022-06-05T06:36:15.000Z</time></trkpt><trkpt lon="5.829724" lat="51.229229"><ele>23.2</ele><time>2022-06-05T06:36:16.000Z</time></trkpt><trkpt lon="5.829842" lat="51.229229"><ele>23.2</ele><time>2022-06-05T06:36:17.000Z</time></trkpt><trkpt lon="5.829956" lat="51.229229"><ele>23</ele><time>2022-06-05T06:36:18.000Z</time></trkpt><trkpt lon="5.830071" lat="51.229225"><ele>23</ele><time>2022-06-05T06:36:19.000Z</time></trkpt><trkpt lon="5.830186" lat="51.229225"><ele>23</ele><time>2022-06-05T06:36:20.000Z</time></trkpt><trkpt lon="5.830299" lat="51.229225"><ele>23</ele><time>2022-06-05T06:36:21.000Z</time></trkpt><trkpt lon="5.830412" lat="51.229225"><ele>22.8</ele><time>2022-06-05T06:36:22.000Z</time></trkpt><trkpt lon="5.830522" lat="51.229225"><ele>22.8</ele><time>2022-06-05T06:36:23.000Z</time></trkpt><trkpt lon="5.830641" lat="51.229225"><ele>22.8</ele><time>2022-06-05T06:36:24.000Z</time></trkpt><trkpt lon="5.830759" lat="51.229225"><ele>22.8</ele><time>2022-06-05T06:36:25.000Z</time></trkpt><trkpt lon="5.830877" lat="51.229221"><ele>22.6</ele><time>2022-06-05T06:36:26.000Z</time></trkpt><trkpt lon="5.830994" lat="51.229221"><ele>22.4</ele><time>2022-06-05T06:36:27.000Z</time></trkpt><trkpt lon="5.83111" lat="51.229221"><ele>22.4</ele><time>2022-06-05T06:36:28.000Z</time></trkpt><trkpt lon="5.831226" lat="51.229221"><ele>22.4</ele><time>2022-06-05T06:36:29.000Z</time></trkpt><trkpt lon="5.831343" lat="51.229221"><ele>22.4</ele><time>2022-06-05T06:36:30.000Z</time></trkpt><trkpt lon="5.83146" lat="51.229218"><ele>22.4</ele><time>2022-06-05T06:36:31.000Z</time></trkpt><trkpt lon="5.831577" lat="51.229218"><ele>22.4</ele><time>2022-06-05T06:36:32.000Z</time></trkpt><trkpt lon="5.83169" lat="51.229218"><ele>22.2</ele><time>2022-06-05T06:36:33.000Z</time></trkpt><trkpt lon="5.831805" lat="51.229218"><ele>22.2</ele><time>2022-06-05T06:36:34.000Z</time></trkpt><trkpt lon="5.83192" lat="51.229218"><ele>22.4</ele><time>2022-06-05T06:36:35.000Z</time></trkpt><trkpt lon="5.832033" lat="51.229218"><ele>22.4</ele><time>2022-06-05T06:36:36.000Z</time></trkpt><trkpt lon="5.832147" lat="51.229218"><ele>22.4</ele><time>2022-06-05T06:36:37.000Z</time></trkpt><trkpt lon="5.832259" lat="51.229218"><ele>22.4</ele><time>2022-06-05T06:36:38.000Z</time></trkpt><trkpt lon="5.832372" lat="51.229218"><ele>22.4</ele><time>2022-06-05T06:36:39.000Z</time></trkpt><trkpt lon="5.832484" lat="51.229214"><ele>22.4</ele><time>2022-06-05T06:36:40.000Z</time></trkpt><trkpt lon="5.832595" lat="51.229214"><ele>22.4</ele><time>2022-06-05T06:36:41.000Z</time></trkpt><trkpt lon="5.832707" lat="51.229214"><ele>22.4</ele><time>2022-06-05T06:36:42.000Z</time></trkpt><trkpt lon="5.832818" lat="51.22921"><ele>22.6</ele><time>2022-06-05T06:36:43.000Z</time></trkpt><trkpt lon="5.832931" lat="51.229214"><ele>22.6</ele><time>2022-06-05T06:36:44.000Z</time></trkpt><trkpt lon="5.833043" lat="51.229214"><ele>22.6</ele><time>2022-06-05T06:36:45.000Z</time></trkpt><trkpt lon="5.833155" lat="51.22921"><ele>22.6</ele><time>2022-06-05T06:36:46.000Z</time></trkpt><trkpt lon="5.833266" lat="51.22921"><ele>22.6</ele><time>2022-06-05T06:36:47.000Z</time></trkpt><trkpt lon="5.833375" lat="51.22921"><ele>22.6</ele><time>2022-06-05T06:36:48.000Z</time></trkpt><trkpt lon="5.833489" lat="51.229206"><ele>22.6</ele><time>2022-06-05T06:36:49.000Z</time></trkpt><trkpt lon="5.833599" lat="51.229202"><ele>22.6</ele><time>2022-06-05T06:36:50.000Z</time></trkpt><trkpt lon="5.833717" lat="51.229202"><ele>22.6</ele><time>2022-06-05T06:36:51.000Z</time></trkpt><trkpt lon="5.833827" lat="51.229199"><ele>22.6</ele><time>2022-06-05T06:36:52.000Z</time></trkpt><trkpt lon="5.833942" lat="51.229195"><ele>22.6</ele><time>2022-06-05T06:36:53.000Z</time></trkpt><trkpt lon="5.834056" lat="51.229191"><ele>22.6</ele><time>2022-06-05T06:36:54.000Z</time></trkpt><trkpt lon="5.834168" lat="51.229187"><ele>22.6</ele><time>2022-06-05T06:36:55.000Z</time></trkpt><trkpt lon="5.834279" lat="51.229183"><ele>22.6</ele><time>2022-06-05T06:36:56.000Z</time></trkpt><trkpt lon="5.83439" lat="51.229176"><ele>22.6</ele><time>2022-06-05T06:36:57.000Z</time></trkpt><trkpt lon="5.834506" lat="51.229172"><ele>22.4</ele><time>2022-06-05T06:36:58.000Z</time></trkpt><trkpt lon="5.834617" lat="51.229164"><ele>22.4</ele><time>2022-06-05T06:36:59.000Z</time></trkpt><trkpt lon="5.834728" lat="51.22916"><ele>22.4</ele><time>2022-06-05T06:37:00.000Z</time></trkpt><trkpt lon="5.834836" lat="51.229153"><ele>22.4</ele><time>2022-06-05T06:37:01.000Z</time></trkpt><trkpt lon="5.834947" lat="51.229149"><ele>22.6</ele><time>2022-06-05T06:37:02.000Z</time></trkpt><trkpt lon="5.835059" lat="51.229141"><ele>22.6</ele><time>2022-06-05T06:37:03.000Z</time></trkpt><trkpt lon="5.835168" lat="51.229134"><ele>22.6</ele><time>2022-06-05T06:37:04.000Z</time></trkpt><trkpt lon="5.835279" lat="51.22913"><ele>22.6</ele><time>2022-06-05T06:37:05.000Z</time></trkpt><trkpt lon="5.835391" lat="51.229122"><ele>22.6</ele><time>2022-06-05T06:37:06.000Z</time></trkpt><trkpt lon="5.835503" lat="51.229119"><ele>22.6</ele><time>2022-06-05T06:37:07.000Z</time></trkpt><trkpt lon="5.835615" lat="51.229111"><ele>22.6</ele><time>2022-06-05T06:37:08.000Z</time></trkpt><trkpt lon="5.835732" lat="51.229103"><ele>22.6</ele><time>2022-06-05T06:37:09.000Z</time></trkpt><trkpt lon="5.835844" lat="51.229099"><ele>22.6</ele><time>2022-06-05T06:37:10.000Z</time></trkpt><trkpt lon="5.835958" lat="51.229092"><ele>22.6</ele><time>2022-06-05T06:37:11.000Z</time></trkpt><trkpt lon="5.836071" lat="51.229088"><ele>22.6</ele><time>2022-06-05T06:37:12.000Z</time></trkpt><trkpt lon="5.836184" lat="51.22908"><ele>22.4</ele><time>2022-06-05T06:37:13.000Z</time></trkpt><trkpt lon="5.836297" lat="51.229073"><ele>22.4</ele><time>2022-06-05T06:37:14.000Z</time></trkpt><trkpt lon="5.83641" lat="51.229065"><ele>22.4</ele><time>2022-06-05T06:37:15.000Z</time></trkpt><trkpt lon="5.836521" lat="51.229061"><ele>22.4</ele><time>2022-06-05T06:37:16.000Z</time></trkpt><trkpt lon="5.836633" lat="51.229054"><ele>22.4</ele><time>2022-06-05T06:37:17.000Z</time></trkpt><trkpt lon="5.836745" lat="51.22905"><ele>22.4</ele><time>2022-06-05T06:37:18.000Z</time></trkpt><trkpt lon="5.836859" lat="51.229042"><ele>22.4</ele><time>2022-06-05T06:37:19.000Z</time></trkpt><trkpt lon="5.83697" lat="51.229038"><ele>22.4</ele><time>2022-06-05T06:37:20.000Z</time></trkpt><trkpt lon="5.837079" lat="51.229031"><ele>22.4</ele><time>2022-06-05T06:37:21.000Z</time></trkpt><trkpt lon="5.837193" lat="51.229023"><ele>22.4</ele><time>2022-06-05T06:37:22.000Z</time></trkpt><trkpt lon="5.837303" lat="51.229016"><ele>22.4</ele><time>2022-06-05T06:37:23.000Z</time></trkpt><trkpt lon="5.837415" lat="51.229012"><ele>22.4</ele><time>2022-06-05T06:37:24.000Z</time></trkpt><trkpt lon="5.837525" lat="51.229004"><ele>22.6</ele><time>2022-06-05T06:37:25.000Z</time></trkpt><trkpt lon="5.837632" lat="51.228997"><ele>22.6</ele><time>2022-06-05T06:37:26.000Z</time></trkpt><trkpt lon="5.837737" lat="51.228993"><ele>22.6</ele><time>2022-06-05T06:37:27.000Z</time></trkpt><trkpt lon="5.837842" lat="51.228985"><ele>22.6</ele><time>2022-06-05T06:37:28.000Z</time></trkpt><trkpt lon="5.837943" lat="51.228985"><ele>22.6</ele><time>2022-06-05T06:37:29.000Z</time></trkpt><trkpt lon="5.838043" lat="51.228981"><ele>22.6</ele><time>2022-06-05T06:37:30.000Z</time></trkpt><trkpt lon="5.83814" lat="51.228974"><ele>22.6</ele><time>2022-06-05T06:37:31.000Z</time></trkpt><trkpt lon="5.838238" lat="51.22897"><ele>22.6</ele><time>2022-06-05T06:37:32.000Z</time></trkpt><trkpt lon="5.838336" lat="51.228966"><ele>22.6</ele><time>2022-06-05T06:37:33.000Z</time></trkpt><trkpt lon="5.83843" lat="51.228958"><ele>22.6</ele><time>2022-06-05T06:37:34.000Z</time></trkpt><trkpt lon="5.838519" lat="51.228951"><ele>22.6</ele><time>2022-06-05T06:37:35.000Z</time></trkpt><trkpt lon="5.838598" lat="51.228947"><ele>22.8</ele><time>2022-06-05T06:37:36.000Z</time></trkpt><trkpt lon="5.838674" lat="51.228943"><ele>22.8</ele><time>2022-06-05T06:37:37.000Z</time></trkpt><trkpt lon="5.838746" lat="51.228939"><ele>22.6</ele><time>2022-06-05T06:37:38.000Z</time></trkpt><trkpt lon="5.838815" lat="51.228935"><ele>22.6</ele><time>2022-06-05T06:37:39.000Z</time></trkpt><trkpt lon="5.838881" lat="51.228932"><ele>22.6</ele><time>2022-06-05T06:37:40.000Z</time></trkpt><trkpt lon="5.838936" lat="51.228931"><ele>22.8</ele><time>2022-06-05T06:37:41.000Z</time></trkpt><trkpt lon="5.83898" lat="51.228924"><ele>22.8</ele><time>2022-06-05T06:37:42.000Z</time></trkpt><trkpt lon="5.839009" lat="51.22892"><ele>22.8</ele><time>2022-06-05T06:37:43.000Z</time></trkpt><trkpt lon="5.839026" lat="51.22892"><ele>22.8</ele><time>2022-06-05T06:37:44.000Z</time></trkpt><trkpt lon="5.839122" lat="51.228927"><ele>22.8</ele><time>2022-06-05T06:37:54.000Z</time></trkpt><trkpt lon="5.839167" lat="51.228931"><ele>22.6</ele><time>2022-06-05T06:37:55.000Z</time></trkpt><trkpt lon="5.839222" lat="51.228943"><ele>22.6</ele><time>2022-06-05T06:37:56.000Z</time></trkpt><trkpt lon="5.839281" lat="51.228958"><ele>22.4</ele><time>2022-06-05T06:37:57.000Z</time></trkpt><trkpt lon="5.83934" lat="51.228988"><ele>22.2</ele><time>2022-06-05T06:37:58.000Z</time></trkpt><trkpt lon="5.839381" lat="51.229032"><ele>22.2</ele><time>2022-06-05T06:37:59.000Z</time></trkpt><trkpt lon="5.839405" lat="51.229082"><ele>22</ele><time>2022-06-05T06:38:00.000Z</time></trkpt><trkpt lon="5.839416" lat="51.229143"><ele>21.8</ele><time>2022-06-05T06:38:01.000Z</time></trkpt><trkpt lon="5.839422" lat="51.229208"><ele>21.8</ele><time>2022-06-05T06:38:02.000Z</time></trkpt><trkpt lon="5.839425" lat="51.229273"><ele>21.8</ele><time>2022-06-05T06:38:03.000Z</time></trkpt><trkpt lon="5.83943" lat="51.229341"><ele>21.6</ele><time>2022-06-05T06:38:04.000Z</time></trkpt><trkpt lon="5.839438" lat="51.22941"><ele>21.6</ele><time>2022-06-05T06:38:05.000Z</time></trkpt><trkpt lon="5.839445" lat="51.229482"><ele>21.6</ele><time>2022-06-05T06:38:06.000Z</time></trkpt><trkpt lon="5.839453" lat="51.229555"><ele>21.6</ele><time>2022-06-05T06:38:07.000Z</time></trkpt><trkpt lon="5.839466" lat="51.229626"><ele>21.8</ele><time>2022-06-05T06:38:08.000Z</time></trkpt><trkpt lon="5.839481" lat="51.2297"><ele>21.8</ele><time>2022-06-05T06:38:09.000Z</time></trkpt><trkpt lon="5.839496" lat="51.229771"><ele>21.8</ele><time>2022-06-05T06:38:10.000Z</time></trkpt><trkpt lon="5.839508" lat="51.22984"><ele>21.6</ele><time>2022-06-05T06:38:11.000Z</time></trkpt><trkpt lon="5.839515" lat="51.229909"><ele>21.6</ele><time>2022-06-05T06:38:12.000Z</time></trkpt><trkpt lon="5.83952" lat="51.229986"><ele>21.6</ele><time>2022-06-05T06:38:13.000Z</time></trkpt><trkpt lon="5.839525" lat="51.230053"><ele>21.4</ele><time>2022-06-05T06:38:14.000Z</time></trkpt><trkpt lon="5.839533" lat="51.230123"><ele>21.4</ele><time>2022-06-05T06:38:15.000Z</time></trkpt><trkpt lon="5.839538" lat="51.230195"><ele>21.2</ele><time>2022-06-05T06:38:16.000Z</time></trkpt><trkpt lon="5.839546" lat="51.230264"><ele>21.2</ele><time>2022-06-05T06:38:17.000Z</time></trkpt><trkpt lon="5.839551" lat="51.230333"><ele>21.2</ele><time>2022-06-05T06:38:18.000Z</time></trkpt><trkpt lon="5.839563" lat="51.230398"><ele>21.2</ele><time>2022-06-05T06:38:19.000Z</time></trkpt><trkpt lon="5.839574" lat="51.230466"><ele>21</ele><time>2022-06-05T06:38:20.000Z</time></trkpt><trkpt lon="5.839585" lat="51.230535"><ele>20.8</ele><time>2022-06-05T06:38:21.000Z</time></trkpt><trkpt lon="5.839594" lat="51.230604"><ele>20.8</ele><time>2022-06-05T06:38:22.000Z</time></trkpt><trkpt lon="5.839604" lat="51.230668"><ele>20.6</ele><time>2022-06-05T06:38:23.000Z</time></trkpt><trkpt lon="5.839618" lat="51.230734"><ele>20.6</ele><time>2022-06-05T06:38:24.000Z</time></trkpt><trkpt lon="5.839625" lat="51.230798"><ele>20.8</ele><time>2022-06-05T06:38:25.000Z</time></trkpt><trkpt lon="5.839633" lat="51.230863"><ele>20.8</ele><time>2022-06-05T06:38:26.000Z</time></trkpt><trkpt lon="5.839638" lat="51.230923"><ele>20.8</ele><time>2022-06-05T06:38:27.000Z</time></trkpt><trkpt lon="5.839643" lat="51.230986"><ele>20.8</ele><time>2022-06-05T06:38:28.000Z</time></trkpt><trkpt lon="5.839648" lat="51.23105"><ele>20.8</ele><time>2022-06-05T06:38:29.000Z</time></trkpt><trkpt lon="5.839651" lat="51.23111"><ele>20.6</ele><time>2022-06-05T06:38:30.000Z</time></trkpt><trkpt lon="5.839658" lat="51.231176"><ele>20.8</ele><time>2022-06-05T06:38:31.000Z</time></trkpt><trkpt lon="5.839665" lat="51.231241"><ele>20.8</ele><time>2022-06-05T06:38:32.000Z</time></trkpt><trkpt lon="5.839671" lat="51.231306"><ele>20.8</ele><time>2022-06-05T06:38:33.000Z</time></trkpt><trkpt lon="5.839677" lat="51.231367"><ele>20.6</ele><time>2022-06-05T06:38:34.000Z</time></trkpt><trkpt lon="5.839685" lat="51.231432"><ele>20.6</ele><time>2022-06-05T06:38:35.000Z</time></trkpt><trkpt lon="5.83969" lat="51.2315"><ele>20.6</ele><time>2022-06-05T06:38:36.000Z</time></trkpt><trkpt lon="5.839698" lat="51.231569"><ele>20.8</ele><time>2022-06-05T06:38:37.000Z</time></trkpt><trkpt lon="5.839708" lat="51.231638"><ele>20.8</ele><time>2022-06-05T06:38:38.000Z</time></trkpt><trkpt lon="5.839718" lat="51.231707"><ele>20.8</ele><time>2022-06-05T06:38:39.000Z</time></trkpt><trkpt lon="5.839728" lat="51.231771"><ele>20.8</ele><time>2022-06-05T06:38:40.000Z</time></trkpt><trkpt lon="5.839736" lat="51.23184"><ele>21</ele><time>2022-06-05T06:38:41.000Z</time></trkpt><trkpt lon="5.839748" lat="51.231909"><ele>21</ele><time>2022-06-05T06:38:42.000Z</time></trkpt><trkpt lon="5.83975" lat="51.231974"><ele>21.2</ele><time>2022-06-05T06:38:43.000Z</time></trkpt><trkpt lon="5.83974" lat="51.232035"><ele>21.2</ele><time>2022-06-05T06:38:44.000Z</time></trkpt><trkpt lon="5.839717" lat="51.232096"><ele>21.4</ele><time>2022-06-05T06:38:45.000Z</time></trkpt><trkpt lon="5.839676" lat="51.232153"><ele>21.4</ele><time>2022-06-05T06:38:46.000Z</time></trkpt><trkpt lon="5.839626" lat="51.232213"><ele>21.6</ele><time>2022-06-05T06:38:47.000Z</time></trkpt><trkpt lon="5.839566" lat="51.232271"><ele>21.6</ele><time>2022-06-05T06:38:48.000Z</time></trkpt><trkpt lon="5.839507" lat="51.232332"><ele>21.8</ele><time>2022-06-05T06:38:49.000Z</time></trkpt><trkpt lon="5.83945" lat="51.232397"><ele>21.8</ele><time>2022-06-05T06:38:50.000Z</time></trkpt><trkpt lon="5.839395" lat="51.232458"><ele>21.8</ele><time>2022-06-05T06:38:51.000Z</time></trkpt><trkpt lon="5.839335" lat="51.232521"><ele>21.8</ele><time>2022-06-05T06:38:52.000Z</time></trkpt><trkpt lon="5.839274" lat="51.232583"><ele>21.8</ele><time>2022-06-05T06:38:53.000Z</time></trkpt><trkpt lon="5.839212" lat="51.232649"><ele>22</ele><time>2022-06-05T06:38:54.000Z</time></trkpt><trkpt lon="5.839148" lat="51.23271"><ele>22</ele><time>2022-06-05T06:38:55.000Z</time></trkpt><trkpt lon="5.839081" lat="51.232771"><ele>21.8</ele><time>2022-06-05T06:38:56.000Z</time></trkpt><trkpt lon="5.839011" lat="51.232836"><ele>21.6</ele><time>2022-06-05T06:38:57.000Z</time></trkpt><trkpt lon="5.838945" lat="51.232897"><ele>21.6</ele><time>2022-06-05T06:38:58.000Z</time></trkpt><trkpt lon="5.838879" lat="51.232961"><ele>21.6</ele><time>2022-06-05T06:38:59.000Z</time></trkpt><trkpt lon="5.838815" lat="51.233022"><ele>21.6</ele><time>2022-06-05T06:39:00.000Z</time></trkpt><trkpt lon="5.838751" lat="51.233083"><ele>21.6</ele><time>2022-06-05T06:39:01.000Z</time></trkpt><trkpt lon="5.838685" lat="51.233145"><ele>21.6</ele><time>2022-06-05T06:39:02.000Z</time></trkpt><trkpt lon="5.838623" lat="51.233202"><ele>21.4</ele><time>2022-06-05T06:39:03.000Z</time></trkpt><trkpt lon="5.838562" lat="51.233263"><ele>21.4</ele><time>2022-06-05T06:39:04.000Z</time></trkpt><trkpt lon="5.838502" lat="51.233317"><ele>21.4</ele><time>2022-06-05T06:39:05.000Z</time></trkpt><trkpt lon="5.838444" lat="51.233377"><ele>21.4</ele><time>2022-06-05T06:39:06.000Z</time></trkpt><trkpt lon="5.838385" lat="51.233435"><ele>21.2</ele><time>2022-06-05T06:39:07.000Z</time></trkpt><trkpt lon="5.838328" lat="51.233488"><ele>21.2</ele><time>2022-06-05T06:39:08.000Z</time></trkpt><trkpt lon="5.83827" lat="51.233542"><ele>21.2</ele><time>2022-06-05T06:39:09.000Z</time></trkpt><trkpt lon="5.838212" lat="51.233595"><ele>21.2</ele><time>2022-06-05T06:39:10.000Z</time></trkpt><trkpt lon="5.838155" lat="51.233649"><ele>21.2</ele><time>2022-06-05T06:39:11.000Z</time></trkpt><trkpt lon="5.838102" lat="51.233698"><ele>21.2</ele><time>2022-06-05T06:39:12.000Z</time></trkpt><trkpt lon="5.838048" lat="51.233744"><ele>21.2</ele><time>2022-06-05T06:39:13.000Z</time></trkpt><trkpt lon="5.838005" lat="51.233793"><ele>21.4</ele><time>2022-06-05T06:39:14.000Z</time></trkpt><trkpt lon="5.837984" lat="51.233843"><ele>21.4</ele><time>2022-06-05T06:39:15.000Z</time></trkpt><trkpt lon="5.837998" lat="51.233882"><ele>21.6</ele><time>2022-06-05T06:39:16.000Z</time></trkpt><trkpt lon="5.838047" lat="51.233916"><ele>21.6</ele><time>2022-06-05T06:39:17.000Z</time></trkpt><trkpt lon="5.83812" lat="51.233946"><ele>21.6</ele><time>2022-06-05T06:39:18.000Z</time></trkpt><trkpt lon="5.838207" lat="51.233977"><ele>21.6</ele><time>2022-06-05T06:39:19.000Z</time></trkpt><trkpt lon="5.838301" lat="51.234008"><ele>21.6</ele><time>2022-06-05T06:39:20.000Z</time></trkpt><trkpt lon="5.838394" lat="51.234042"><ele>21.8</ele><time>2022-06-05T06:39:21.000Z</time></trkpt><trkpt lon="5.838488" lat="51.23408"><ele>21.8</ele><time>2022-06-05T06:39:22.000Z</time></trkpt><trkpt lon="5.838582" lat="51.234118"><ele>22</ele><time>2022-06-05T06:39:23.000Z</time></trkpt><trkpt lon="5.838675" lat="51.234149"><ele>22.2</ele><time>2022-06-05T06:39:24.000Z</time></trkpt><trkpt lon="5.838768" lat="51.234186"><ele>22.2</ele><time>2022-06-05T06:39:25.000Z</time></trkpt><trkpt lon="5.838862" lat="51.234218"><ele>22.2</ele><time>2022-06-05T06:39:26.000Z</time></trkpt><trkpt lon="5.838955" lat="51.234252"><ele>22.2</ele><time>2022-06-05T06:39:27.000Z</time></trkpt><trkpt lon="5.839046" lat="51.234286"><ele>22.2</ele><time>2022-06-05T06:39:28.000Z</time></trkpt><trkpt lon="5.839137" lat="51.234321"><ele>22.2</ele><time>2022-06-05T06:39:29.000Z</time></trkpt><trkpt lon="5.839233" lat="51.234355"><ele>22.2</ele><time>2022-06-05T06:39:30.000Z</time></trkpt><trkpt lon="5.839332" lat="51.234385"><ele>22.2</ele><time>2022-06-05T06:39:31.000Z</time></trkpt><trkpt lon="5.839428" lat="51.234416"><ele>22.4</ele><time>2022-06-05T06:39:32.000Z</time></trkpt><trkpt lon="5.839529" lat="51.23445"><ele>22.4</ele><time>2022-06-05T06:39:33.000Z</time></trkpt><trkpt lon="5.839627" lat="51.234481"><ele>22.4</ele><time>2022-06-05T06:39:34.000Z</time></trkpt><trkpt lon="5.839725" lat="51.234508"><ele>22.4</ele><time>2022-06-05T06:39:35.000Z</time></trkpt><trkpt lon="5.839826" lat="51.234538"><ele>22.4</ele><time>2022-06-05T06:39:36.000Z</time></trkpt><trkpt lon="5.83993" lat="51.234568"><ele>22.4</ele><time>2022-06-05T06:39:37.000Z</time></trkpt><trkpt lon="5.840034" lat="51.234599"><ele>22.4</ele><time>2022-06-05T06:39:38.000Z</time></trkpt><trkpt lon="5.840143" lat="51.234626"><ele>22.4</ele><time>2022-06-05T06:39:39.000Z</time></trkpt><trkpt lon="5.840247" lat="51.234656"><ele>22.4</ele><time>2022-06-05T06:39:40.000Z</time></trkpt><trkpt lon="5.840355" lat="51.234687"><ele>22.2</ele><time>2022-06-05T06:39:41.000Z</time></trkpt><trkpt lon="5.840462" lat="51.234717"><ele>22.2</ele><time>2022-06-05T06:39:42.000Z</time></trkpt><trkpt lon="5.840568" lat="51.234748"><ele>22.2</ele><time>2022-06-05T06:39:43.000Z</time></trkpt><trkpt lon="5.840668" lat="51.234777"><ele>22.2</ele><time>2022-06-05T06:39:44.000Z</time></trkpt><trkpt lon="5.840777" lat="51.234809"><ele>22.2</ele><time>2022-06-05T06:39:45.000Z</time></trkpt><trkpt lon="5.84088" lat="51.234836"><ele>22.2</ele><time>2022-06-05T06:39:46.000Z</time></trkpt><trkpt lon="5.840982" lat="51.234866"><ele>22.2</ele><time>2022-06-05T06:39:47.000Z</time></trkpt><trkpt lon="5.841079" lat="51.234896"><ele>22.2</ele><time>2022-06-05T06:39:48.000Z</time></trkpt><trkpt lon="5.841179" lat="51.234923"><ele>22.2</ele><time>2022-06-05T06:39:49.000Z</time></trkpt><trkpt lon="5.841279" lat="51.23495"><ele>22.2</ele><time>2022-06-05T06:39:50.000Z</time></trkpt><trkpt lon="5.841375" lat="51.234981"><ele>22.2</ele><time>2022-06-05T06:39:51.000Z</time></trkpt><trkpt lon="5.841465" lat="51.235011"><ele>22.2</ele><time>2022-06-05T06:39:52.000Z</time></trkpt><trkpt lon="5.841551" lat="51.235049"><ele>22.4</ele><time>2022-06-05T06:39:53.000Z</time></trkpt><trkpt lon="5.841632" lat="51.235091"><ele>22.4</ele><time>2022-06-05T06:39:54.000Z</time></trkpt><trkpt lon="5.8417" lat="51.235139"><ele>22.4</ele><time>2022-06-05T06:39:55.000Z</time></trkpt><trkpt lon="5.841763" lat="51.235193"><ele>22.4</ele><time>2022-06-05T06:39:56.000Z</time></trkpt><trkpt lon="5.84182" lat="51.235251"><ele>22.4</ele><time>2022-06-05T06:39:57.000Z</time></trkpt><trkpt lon="5.84188" lat="51.235308"><ele>22.4</ele><time>2022-06-05T06:39:58.000Z</time></trkpt><trkpt lon="5.841938" lat="51.235365"><ele>22.6</ele><time>2022-06-05T06:39:59.000Z</time></trkpt><trkpt lon="5.841995" lat="51.235422"><ele>22.6</ele><time>2022-06-05T06:40:00.000Z</time></trkpt><trkpt lon="5.842051" lat="51.235483"><ele>22.6</ele><time>2022-06-05T06:40:01.000Z</time></trkpt><trkpt lon="5.842109" lat="51.235541"><ele>22.6</ele><time>2022-06-05T06:40:02.000Z</time></trkpt><trkpt lon="5.842162" lat="51.235601"><ele>22.8</ele><time>2022-06-05T06:40:03.000Z</time></trkpt><trkpt lon="5.842215" lat="51.235662"><ele>22.8</ele><time>2022-06-05T06:40:04.000Z</time></trkpt><trkpt lon="5.842268" lat="51.23572"><ele>22.8</ele><time>2022-06-05T06:40:05.000Z</time></trkpt><trkpt lon="5.842322" lat="51.235775"><ele>22.8</ele><time>2022-06-05T06:40:06.000Z</time></trkpt><trkpt lon="5.842381" lat="51.235834"><ele>23</ele><time>2022-06-05T06:40:07.000Z</time></trkpt><trkpt lon="5.842445" lat="51.235887"><ele>23</ele><time>2022-06-05T06:40:08.000Z</time></trkpt><trkpt lon="5.842512" lat="51.235945"><ele>23</ele><time>2022-06-05T06:40:09.000Z</time></trkpt><trkpt lon="5.842578" lat="51.235998"><ele>23</ele><time>2022-06-05T06:40:10.000Z</time></trkpt><trkpt lon="5.842645" lat="51.236049"><ele>23</ele><time>2022-06-05T06:40:11.000Z</time></trkpt><trkpt lon="5.842712" lat="51.236102"><ele>23</ele><time>2022-06-05T06:40:12.000Z</time></trkpt><trkpt lon="5.842775" lat="51.236151"><ele>23</ele><time>2022-06-05T06:40:13.000Z</time></trkpt><trkpt lon="5.842835" lat="51.236201"><ele>23.2</ele><time>2022-06-05T06:40:14.000Z</time></trkpt><trkpt lon="5.842897" lat="51.236246"><ele>23.2</ele><time>2022-06-05T06:40:15.000Z</time></trkpt><trkpt lon="5.842959" lat="51.236296"><ele>23.2</ele><time>2022-06-05T06:40:16.000Z</time></trkpt><trkpt lon="5.843024" lat="51.236342"><ele>23.2</ele><time>2022-06-05T06:40:17.000Z</time></trkpt><trkpt lon="5.843085" lat="51.236387"><ele>23.2</ele><time>2022-06-05T06:40:18.000Z</time></trkpt><trkpt lon="5.843147" lat="51.236433"><ele>23.2</ele><time>2022-06-05T06:40:19.000Z</time></trkpt><trkpt lon="5.843209" lat="51.236483"><ele>23.2</ele><time>2022-06-05T06:40:20.000Z</time></trkpt><trkpt lon="5.843267" lat="51.236529"><ele>23.2</ele><time>2022-06-05T06:40:21.000Z</time></trkpt><trkpt lon="5.843324" lat="51.236571"><ele>23.4</ele><time>2022-06-05T06:40:22.000Z</time></trkpt><trkpt lon="5.843372" lat="51.236617"><ele>23.4</ele><time>2022-06-05T06:40:23.000Z</time></trkpt><trkpt lon="5.843398" lat="51.236662"><ele>23.4</ele><time>2022-06-05T06:40:24.000Z</time></trkpt><trkpt lon="5.843399" lat="51.236711"><ele>23.4</ele><time>2022-06-05T06:40:25.000Z</time></trkpt><trkpt lon="5.843357" lat="51.236743"><ele>23.4</ele><time>2022-06-05T06:40:26.000Z</time></trkpt><trkpt lon="5.843281" lat="51.236766"><ele>23.4</ele><time>2022-06-05T06:40:27.000Z</time></trkpt><trkpt lon="5.84319" lat="51.236782"><ele>23.4</ele><time>2022-06-05T06:40:28.000Z</time></trkpt><trkpt lon="5.843092" lat="51.236797"><ele>23.4</ele><time>2022-06-05T06:40:29.000Z</time></trkpt><trkpt lon="5.842997" lat="51.236815"><ele>23.4</ele><time>2022-06-05T06:40:30.000Z</time></trkpt><trkpt lon="5.84289" lat="51.236831"><ele>23.4</ele><time>2022-06-05T06:40:31.000Z</time></trkpt><trkpt lon="5.842784" lat="51.23685"><ele>23.2</ele><time>2022-06-05T06:40:32.000Z</time></trkpt><trkpt lon="5.842678" lat="51.236866"><ele>23.2</ele><time>2022-06-05T06:40:33.000Z</time></trkpt><trkpt lon="5.842572" lat="51.236884"><ele>23</ele><time>2022-06-05T06:40:34.000Z</time></trkpt><trkpt lon="5.842464" lat="51.236904"><ele>23</ele><time>2022-06-05T06:40:35.000Z</time></trkpt><trkpt lon="5.842358" lat="51.236923"><ele>23</ele><time>2022-06-05T06:40:36.000Z</time></trkpt><trkpt lon="5.842253" lat="51.236945"><ele>23</ele><time>2022-06-05T06:40:37.000Z</time></trkpt><trkpt lon="5.842145" lat="51.236965"><ele>23</ele><time>2022-06-05T06:40:38.000Z</time></trkpt><trkpt lon="5.842038" lat="51.236987"><ele>23</ele><time>2022-06-05T06:40:39.000Z</time></trkpt><trkpt lon="5.841931" lat="51.23701"><ele>23.2</ele><time>2022-06-05T06:40:40.000Z</time></trkpt><trkpt lon="5.841826" lat="51.237033"><ele>23.2</ele><time>2022-06-05T06:40:41.000Z</time></trkpt><trkpt lon="5.841723" lat="51.237055"><ele>23.4</ele><time>2022-06-05T06:40:42.000Z</time></trkpt><trkpt lon="5.841611" lat="51.237082"><ele>23.4</ele><time>2022-06-05T06:40:43.000Z</time></trkpt><trkpt lon="5.841502" lat="51.237109"><ele>23.4</ele><time>2022-06-05T06:40:44.000Z</time></trkpt><trkpt lon="5.841395" lat="51.237136"><ele>23.2</ele><time>2022-06-05T06:40:45.000Z</time></trkpt><trkpt lon="5.841288" lat="51.237162"><ele>23.2</ele><time>2022-06-05T06:40:46.000Z</time></trkpt><trkpt lon="5.841181" lat="51.237189"><ele>23</ele><time>2022-06-05T06:40:47.000Z</time></trkpt><trkpt lon="5.841075" lat="51.237216"><ele>23</ele><time>2022-06-05T06:40:48.000Z</time></trkpt><trkpt lon="5.840968" lat="51.237247"><ele>23</ele><time>2022-06-05T06:40:49.000Z</time></trkpt><trkpt lon="5.840865" lat="51.237277"><ele>23</ele><time>2022-06-05T06:40:50.000Z</time></trkpt><trkpt lon="5.840764" lat="51.237307"><ele>23</ele><time>2022-06-05T06:40:51.000Z</time></trkpt><trkpt lon="5.840669" lat="51.237332"><ele>23</ele><time>2022-06-05T06:40:52.000Z</time></trkpt><trkpt lon="5.840563" lat="51.237368"><ele>23</ele><time>2022-06-05T06:40:53.000Z</time></trkpt><trkpt lon="5.840465" lat="51.237399"><ele>23</ele><time>2022-06-05T06:40:54.000Z</time></trkpt><trkpt lon="5.840363" lat="51.237433"><ele>23</ele><time>2022-06-05T06:40:55.000Z</time></trkpt><trkpt lon="5.840263" lat="51.237464"><ele>23</ele><time>2022-06-05T06:40:56.000Z</time></trkpt><trkpt lon="5.840164" lat="51.237494"><ele>23</ele><time>2022-06-05T06:40:57.000Z</time></trkpt><trkpt lon="5.840063" lat="51.237529"><ele>23</ele><time>2022-06-05T06:40:58.000Z</time></trkpt><trkpt lon="5.839964" lat="51.237559"><ele>23</ele><time>2022-06-05T06:40:59.000Z</time></trkpt><trkpt lon="5.839866" lat="51.23759"><ele>23</ele><time>2022-06-05T06:41:00.000Z</time></trkpt><trkpt lon="5.839773" lat="51.237617"><ele>23</ele><time>2022-06-05T06:41:01.000Z</time></trkpt><trkpt lon="5.83968" lat="51.237647"><ele>22.8</ele><time>2022-06-05T06:41:02.000Z</time></trkpt><trkpt lon="5.839592" lat="51.237674"><ele>22.8</ele><time>2022-06-05T06:41:03.000Z</time></trkpt><trkpt lon="5.839508" lat="51.237704"><ele>22.8</ele><time>2022-06-05T06:41:04.000Z</time></trkpt><trkpt lon="5.839436" lat="51.237735"><ele>22.8</ele><time>2022-06-05T06:41:05.000Z</time></trkpt><trkpt lon="5.839384" lat="51.237772"><ele>22.6</ele><time>2022-06-05T06:41:06.000Z</time></trkpt><trkpt lon="5.839356" lat="51.237818"><ele>22.6</ele><time>2022-06-05T06:41:07.000Z</time></trkpt><trkpt lon="5.839354" lat="51.237875"><ele>22.4</ele><time>2022-06-05T06:41:08.000Z</time></trkpt><trkpt lon="5.839371" lat="51.23794"><ele>22.2</ele><time>2022-06-05T06:41:09.000Z</time></trkpt><trkpt lon="5.8394" lat="51.238011"><ele>22</ele><time>2022-06-05T06:41:10.000Z</time></trkpt><trkpt lon="5.839432" lat="51.23808"><ele>21.8</ele><time>2022-06-05T06:41:11.000Z</time></trkpt><trkpt lon="5.839462" lat="51.238148"><ele>21.8</ele><time>2022-06-05T06:41:12.000Z</time></trkpt><trkpt lon="5.839491" lat="51.238212"><ele>21.8</ele><time>2022-06-05T06:41:13.000Z</time></trkpt><trkpt lon="5.839522" lat="51.238282"><ele>22</ele><time>2022-06-05T06:41:14.000Z</time></trkpt><trkpt lon="5.839549" lat="51.238348"><ele>22.2</ele><time>2022-06-05T06:41:15.000Z</time></trkpt><trkpt lon="5.839573" lat="51.238412"><ele>22</ele><time>2022-06-05T06:41:16.000Z</time></trkpt><trkpt lon="5.839596" lat="51.238478"><ele>22.2</ele><time>2022-06-05T06:41:17.000Z</time></trkpt><trkpt lon="5.839617" lat="51.23854"><ele>22.2</ele><time>2022-06-05T06:41:18.000Z</time></trkpt><trkpt lon="5.839639" lat="51.238607"><ele>22.2</ele><time>2022-06-05T06:41:19.000Z</time></trkpt><trkpt lon="5.839663" lat="51.238676"><ele>22</ele><time>2022-06-05T06:41:20.000Z</time></trkpt><trkpt lon="5.839686" lat="51.238741"><ele>22</ele><time>2022-06-05T06:41:21.000Z</time></trkpt><trkpt lon="5.839706" lat="51.238809"><ele>22</ele><time>2022-06-05T06:41:22.000Z</time></trkpt><trkpt lon="5.839726" lat="51.238878"><ele>22</ele><time>2022-06-05T06:41:23.000Z</time></trkpt><trkpt lon="5.839746" lat="51.238946"><ele>22.2</ele><time>2022-06-05T06:41:24.000Z</time></trkpt><trkpt lon="5.839764" lat="51.239015"><ele>22.4</ele><time>2022-06-05T06:41:25.000Z</time></trkpt><trkpt lon="5.839786" lat="51.239087"><ele>22.6</ele><time>2022-06-05T06:41:26.000Z</time></trkpt><trkpt lon="5.839805" lat="51.239157"><ele>22.8</ele><time>2022-06-05T06:41:27.000Z</time></trkpt><trkpt lon="5.839821" lat="51.239225"><ele>22.8</ele><time>2022-06-05T06:41:28.000Z</time></trkpt><trkpt lon="5.839836" lat="51.239293"><ele>22.8</ele><time>2022-06-05T06:41:29.000Z</time></trkpt><trkpt lon="5.839851" lat="51.23936"><ele>22.8</ele><time>2022-06-05T06:41:30.000Z</time></trkpt><trkpt lon="5.839865" lat="51.239431"><ele>23</ele><time>2022-06-05T06:41:31.000Z</time></trkpt><trkpt lon="5.839876" lat="51.2395"><ele>23.2</ele><time>2022-06-05T06:41:32.000Z</time></trkpt><trkpt lon="5.83989" lat="51.239569"><ele>23.2</ele><time>2022-06-05T06:41:33.000Z</time></trkpt><trkpt lon="5.839901" lat="51.239641"><ele>23.4</ele><time>2022-06-05T06:41:34.000Z</time></trkpt><trkpt lon="5.839916" lat="51.239708"><ele>23.4</ele><time>2022-06-05T06:41:35.000Z</time></trkpt><trkpt lon="5.839931" lat="51.239773"><ele>23.6</ele><time>2022-06-05T06:41:36.000Z</time></trkpt><trkpt lon="5.839944" lat="51.239846"><ele>23.4</ele><time>2022-06-05T06:41:37.000Z</time></trkpt><trkpt lon="5.839953" lat="51.239914"><ele>23.4</ele><time>2022-06-05T06:41:38.000Z</time></trkpt><trkpt lon="5.839961" lat="51.239985"><ele>23.4</ele><time>2022-06-05T06:41:39.000Z</time></trkpt><trkpt lon="5.839975" lat="51.240057"><ele>23.2</ele><time>2022-06-05T06:41:40.000Z</time></trkpt><trkpt lon="5.839985" lat="51.240129"><ele>23</ele><time>2022-06-05T06:41:41.000Z</time></trkpt><trkpt lon="5.839995" lat="51.240202"><ele>23.2</ele><time>2022-06-05T06:41:42.000Z</time></trkpt><trkpt lon="5.840006" lat="51.240274"><ele>23</ele><time>2022-06-05T06:41:43.000Z</time></trkpt><trkpt lon="5.840021" lat="51.240346"><ele>23</ele><time>2022-06-05T06:41:44.000Z</time></trkpt><trkpt lon="5.840036" lat="51.240419"><ele>23</ele><time>2022-06-05T06:41:45.000Z</time></trkpt><trkpt lon="5.840048" lat="51.240488"><ele>22.8</ele><time>2022-06-05T06:41:46.000Z</time></trkpt><trkpt lon="5.84006" lat="51.240559"><ele>22.8</ele><time>2022-06-05T06:41:47.000Z</time></trkpt><trkpt lon="5.840069" lat="51.240632"><ele>22.8</ele><time>2022-06-05T06:41:48.000Z</time></trkpt><trkpt lon="5.840076" lat="51.240701"><ele>22.6</ele><time>2022-06-05T06:41:49.000Z</time></trkpt><trkpt lon="5.840085" lat="51.240774"><ele>22.6</ele><time>2022-06-05T06:41:50.000Z</time></trkpt><trkpt lon="5.840091" lat="51.240846"><ele>22.4</ele><time>2022-06-05T06:41:51.000Z</time></trkpt><trkpt lon="5.840096" lat="51.24092"><ele>22.4</ele><time>2022-06-05T06:41:52.000Z</time></trkpt><trkpt lon="5.840098" lat="51.240991"><ele>22.2</ele><time>2022-06-05T06:41:53.000Z</time></trkpt><trkpt lon="5.840093" lat="51.241064"><ele>22.2</ele><time>2022-06-05T06:41:54.000Z</time></trkpt><trkpt lon="5.840082" lat="51.241136"><ele>22</ele><time>2022-06-05T06:41:55.000Z</time></trkpt><trkpt lon="5.840064" lat="51.241205"><ele>22</ele><time>2022-06-05T06:41:56.000Z</time></trkpt><trkpt lon="5.840038" lat="51.241274"><ele>22</ele><time>2022-06-05T06:41:57.000Z</time></trkpt><trkpt lon="5.840008" lat="51.241343"><ele>21.8</ele><time>2022-06-05T06:41:58.000Z</time></trkpt><trkpt lon="5.839975" lat="51.241407"><ele>21.8</ele><time>2022-06-05T06:41:59.000Z</time></trkpt><trkpt lon="5.839938" lat="51.241472"><ele>21.6</ele><time>2022-06-05T06:42:00.000Z</time></trkpt><trkpt lon="5.839903" lat="51.241536"><ele>21.8</ele><time>2022-06-05T06:42:01.000Z</time></trkpt><trkpt lon="5.839868" lat="51.241602"><ele>21.8</ele><time>2022-06-05T06:42:02.000Z</time></trkpt><trkpt lon="5.839833" lat="51.241666"><ele>21.8</ele><time>2022-06-05T06:42:03.000Z</time></trkpt><trkpt lon="5.839798" lat="51.241731"><ele>22</ele><time>2022-06-05T06:42:04.000Z</time></trkpt><trkpt lon="5.839763" lat="51.241796"><ele>22</ele><time>2022-06-05T06:42:05.000Z</time></trkpt><trkpt lon="5.83973" lat="51.241861"><ele>22</ele><time>2022-06-05T06:42:06.000Z</time></trkpt><trkpt lon="5.839694" lat="51.241923"><ele>22.2</ele><time>2022-06-05T06:42:07.000Z</time></trkpt><trkpt lon="5.839656" lat="51.241987"><ele>22.2</ele><time>2022-06-05T06:42:08.000Z</time></trkpt><trkpt lon="5.839617" lat="51.242051"><ele>22.2</ele><time>2022-06-05T06:42:09.000Z</time></trkpt><trkpt lon="5.839573" lat="51.242117"><ele>22.2</ele><time>2022-06-05T06:42:10.000Z</time></trkpt><trkpt lon="5.839528" lat="51.242182"><ele>22.2</ele><time>2022-06-05T06:42:11.000Z</time></trkpt><trkpt lon="5.83948" lat="51.242246"><ele>22</ele><time>2022-06-05T06:42:12.000Z</time></trkpt><trkpt lon="5.839428" lat="51.242307"><ele>22</ele><time>2022-06-05T06:42:13.000Z</time></trkpt><trkpt lon="5.839375" lat="51.242372"><ele>22</ele><time>2022-06-05T06:42:14.000Z</time></trkpt><trkpt lon="5.839323" lat="51.24243"><ele>22</ele><time>2022-06-05T06:42:15.000Z</time></trkpt><trkpt lon="5.83927" lat="51.242494"><ele>22</ele><time>2022-06-05T06:42:16.000Z</time></trkpt><trkpt lon="5.839218" lat="51.242556"><ele>22</ele><time>2022-06-05T06:42:17.000Z</time></trkpt><trkpt lon="5.839168" lat="51.242621"><ele>22.2</ele><time>2022-06-05T06:42:18.000Z</time></trkpt><trkpt lon="5.839117" lat="51.242682"><ele>22.2</ele><time>2022-06-05T06:42:19.000Z</time></trkpt><trkpt lon="5.839064" lat="51.242747"><ele>22</ele><time>2022-06-05T06:42:20.000Z</time></trkpt><trkpt lon="5.839013" lat="51.242808"><ele>21.8</ele><time>2022-06-05T06:42:21.000Z</time></trkpt><trkpt lon="5.838962" lat="51.242868"><ele>21.8</ele><time>2022-06-05T06:42:22.000Z</time></trkpt><trkpt lon="5.83891" lat="51.242934"><ele>21.8</ele><time>2022-06-05T06:42:23.000Z</time></trkpt><trkpt lon="5.838858" lat="51.242994"><ele>21.8</ele><time>2022-06-05T06:42:24.000Z</time></trkpt><trkpt lon="5.838809" lat="51.243054"><ele>21.8</ele><time>2022-06-05T06:42:25.000Z</time></trkpt><trkpt lon="5.838755" lat="51.243117"><ele>21.8</ele><time>2022-06-05T06:42:26.000Z</time></trkpt><trkpt lon="5.838694" lat="51.243174"><ele>21.6</ele><time>2022-06-05T06:42:27.000Z</time></trkpt><trkpt lon="5.838627" lat="51.24323"><ele>21.6</ele><time>2022-06-05T06:42:28.000Z</time></trkpt><trkpt lon="5.83855" lat="51.243276"><ele>21.6</ele><time>2022-06-05T06:42:29.000Z</time></trkpt><trkpt lon="5.838462" lat="51.243327"><ele>21.6</ele><time>2022-06-05T06:42:30.000Z</time></trkpt><trkpt lon="5.838368" lat="51.243365"><ele>21.4</ele><time>2022-06-05T06:42:31.000Z</time></trkpt><trkpt lon="5.838269" lat="51.243407"><ele>21.4</ele><time>2022-06-05T06:42:32.000Z</time></trkpt><trkpt lon="5.838167" lat="51.243445"><ele>21.4</ele><time>2022-06-05T06:42:33.000Z</time></trkpt><trkpt lon="5.83806" lat="51.24348"><ele>21.2</ele><time>2022-06-05T06:42:34.000Z</time></trkpt><trkpt lon="5.837948" lat="51.24351"><ele>21.2</ele><time>2022-06-05T06:42:35.000Z</time></trkpt><trkpt lon="5.837837" lat="51.24353"><ele>21.4</ele><time>2022-06-05T06:42:36.000Z</time></trkpt><trkpt lon="5.837723" lat="51.243545"><ele>21.4</ele><time>2022-06-05T06:42:37.000Z</time></trkpt><trkpt lon="5.837609" lat="51.243553"><ele>21.4</ele><time>2022-06-05T06:42:38.000Z</time></trkpt><trkpt lon="5.837499" lat="51.24356"><ele>21.4</ele><time>2022-06-05T06:42:39.000Z</time></trkpt><trkpt lon="5.837382" lat="51.243565"><ele>21.4</ele><time>2022-06-05T06:42:40.000Z</time></trkpt><trkpt lon="5.837266" lat="51.243572"><ele>21.4</ele><time>2022-06-05T06:42:41.000Z</time></trkpt><trkpt lon="5.837153" lat="51.243583"><ele>21.2</ele><time>2022-06-05T06:42:42.000Z</time></trkpt><trkpt lon="5.837042" lat="51.243602"><ele>21.4</ele><time>2022-06-05T06:42:43.000Z</time></trkpt><trkpt lon="5.836936" lat="51.243625"><ele>21.4</ele><time>2022-06-05T06:42:44.000Z</time></trkpt><trkpt lon="5.83683" lat="51.243648"><ele>21.4</ele><time>2022-06-05T06:42:45.000Z</time></trkpt><trkpt lon="5.836727" lat="51.243674"><ele>21.4</ele><time>2022-06-05T06:42:46.000Z</time></trkpt><trkpt lon="5.836623" lat="51.243701"><ele>21.6</ele><time>2022-06-05T06:42:47.000Z</time></trkpt><trkpt lon="5.836522" lat="51.243723"><ele>21.8</ele><time>2022-06-05T06:42:48.000Z</time></trkpt><trkpt lon="5.836409" lat="51.243743"><ele>21.8</ele><time>2022-06-05T06:42:49.000Z</time></trkpt><trkpt lon="5.836298" lat="51.243755"><ele>22</ele><time>2022-06-05T06:42:50.000Z</time></trkpt><trkpt lon="5.836194" lat="51.243763"><ele>22</ele><time>2022-06-05T06:42:51.000Z</time></trkpt><trkpt lon="5.836088" lat="51.243767"><ele>22.2</ele><time>2022-06-05T06:42:52.000Z</time></trkpt><trkpt lon="5.835979" lat="51.243767"><ele>22.2</ele><time>2022-06-05T06:42:53.000Z</time></trkpt><trkpt lon="5.83587" lat="51.243767"><ele>22</ele><time>2022-06-05T06:42:54.000Z</time></trkpt><trkpt lon="5.835773" lat="51.243767"><ele>22</ele><time>2022-06-05T06:42:55.000Z</time></trkpt><trkpt lon="5.835656" lat="51.24377"><ele>21.8</ele><time>2022-06-05T06:42:56.000Z</time></trkpt><trkpt lon="5.835546" lat="51.243782"><ele>21.8</ele><time>2022-06-05T06:42:57.000Z</time></trkpt><trkpt lon="5.83544" lat="51.243797"><ele>21.8</ele><time>2022-06-05T06:42:58.000Z</time></trkpt><trkpt lon="5.835329" lat="51.243816"><ele>21.8</ele><time>2022-06-05T06:42:59.000Z</time></trkpt><trkpt lon="5.835219" lat="51.243831"><ele>21.8</ele><time>2022-06-05T06:43:00.000Z</time></trkpt><trkpt lon="5.835111" lat="51.243854"><ele>21.8</ele><time>2022-06-05T06:43:01.000Z</time></trkpt><trkpt lon="5.835007" lat="51.24388"><ele>21.8</ele><time>2022-06-05T06:43:02.000Z</time></trkpt><trkpt lon="5.834903" lat="51.243907"><ele>21.8</ele><time>2022-06-05T06:43:03.000Z</time></trkpt><trkpt lon="5.834804" lat="51.243937"><ele>22</ele><time>2022-06-05T06:43:04.000Z</time></trkpt><trkpt lon="5.834709" lat="51.243975"><ele>21.8</ele><time>2022-06-05T06:43:05.000Z</time></trkpt><trkpt lon="5.834617" lat="51.244017"><ele>21.8</ele><time>2022-06-05T06:43:06.000Z</time></trkpt><trkpt lon="5.834526" lat="51.244059"><ele>21.8</ele><time>2022-06-05T06:43:07.000Z</time></trkpt><trkpt lon="5.83444" lat="51.244101"><ele>21.8</ele><time>2022-06-05T06:43:08.000Z</time></trkpt><trkpt lon="5.834356" lat="51.244147"><ele>21.8</ele><time>2022-06-05T06:43:09.000Z</time></trkpt><trkpt lon="5.834274" lat="51.244195"><ele>21.8</ele><time>2022-06-05T06:43:10.000Z</time></trkpt><trkpt lon="5.834195" lat="51.244246"><ele>21.8</ele><time>2022-06-05T06:43:11.000Z</time></trkpt><trkpt lon="5.83412" lat="51.244294"><ele>21.8</ele><time>2022-06-05T06:43:12.000Z</time></trkpt><trkpt lon="5.834041" lat="51.244345"><ele>21.8</ele><time>2022-06-05T06:43:13.000Z</time></trkpt><trkpt lon="5.833963" lat="51.244395"><ele>21.8</ele><time>2022-06-05T06:43:14.000Z</time></trkpt><trkpt lon="5.833884" lat="51.24444"><ele>22</ele><time>2022-06-05T06:43:15.000Z</time></trkpt><trkpt lon="5.833806" lat="51.244488"><ele>22</ele><time>2022-06-05T06:43:16.000Z</time></trkpt><trkpt lon="5.833723" lat="51.244539"><ele>22</ele><time>2022-06-05T06:43:17.000Z</time></trkpt><trkpt lon="5.833648" lat="51.244589"><ele>22</ele><time>2022-06-05T06:43:18.000Z</time></trkpt><trkpt lon="5.833575" lat="51.244643"><ele>22</ele><time>2022-06-05T06:43:19.000Z</time></trkpt><trkpt lon="5.833516" lat="51.244699"><ele>22.2</ele><time>2022-06-05T06:43:20.000Z</time></trkpt><trkpt lon="5.833465" lat="51.244757"><ele>22.2</ele><time>2022-06-05T06:43:21.000Z</time></trkpt><trkpt lon="5.833426" lat="51.244811"><ele>22.4</ele><time>2022-06-05T06:43:22.000Z</time></trkpt><trkpt lon="5.833385" lat="51.244883"><ele>22.4</ele><time>2022-06-05T06:43:23.000Z</time></trkpt><trkpt lon="5.833361" lat="51.244948"><ele>22.2</ele><time>2022-06-05T06:43:24.000Z</time></trkpt><trkpt lon="5.83335" lat="51.245008"><ele>22.2</ele><time>2022-06-05T06:43:25.000Z</time></trkpt><trkpt lon="5.833344" lat="51.245078"><ele>22.4</ele><time>2022-06-05T06:43:26.000Z</time></trkpt><trkpt lon="5.833342" lat="51.245145"><ele>22.6</ele><time>2022-06-05T06:43:27.000Z</time></trkpt><trkpt lon="5.833338" lat="51.245207"><ele>22.6</ele><time>2022-06-05T06:43:28.000Z</time></trkpt><trkpt lon="5.833337" lat="51.245271"><ele>22.6</ele><time>2022-06-05T06:43:29.000Z</time></trkpt><trkpt lon="5.833335" lat="51.245337"><ele>22.6</ele><time>2022-06-05T06:43:30.000Z</time></trkpt><trkpt lon="5.833329" lat="51.245403"><ele>22.6</ele><time>2022-06-05T06:43:31.000Z</time></trkpt><trkpt lon="5.833317" lat="51.245474"><ele>22.6</ele><time>2022-06-05T06:43:32.000Z</time></trkpt><trkpt lon="5.833305" lat="51.245539"><ele>22.4</ele><time>2022-06-05T06:43:33.000Z</time></trkpt><trkpt lon="5.833294" lat="51.245603"><ele>22.4</ele><time>2022-06-05T06:43:34.000Z</time></trkpt><trkpt lon="5.833279" lat="51.245664"><ele>22.4</ele><time>2022-06-05T06:43:35.000Z</time></trkpt><trkpt lon="5.833266" lat="51.245724"><ele>22.4</ele><time>2022-06-05T06:43:36.000Z</time></trkpt><trkpt lon="5.833251" lat="51.245794"><ele>22.6</ele><time>2022-06-05T06:43:37.000Z</time></trkpt><trkpt lon="5.833235" lat="51.245858"><ele>22.6</ele><time>2022-06-05T06:43:38.000Z</time></trkpt><trkpt lon="5.83322" lat="51.245924"><ele>22.8</ele><time>2022-06-05T06:43:39.000Z</time></trkpt><trkpt lon="5.833209" lat="51.245989"><ele>22.8</ele><time>2022-06-05T06:43:40.000Z</time></trkpt><trkpt lon="5.833196" lat="51.246059"><ele>23</ele><time>2022-06-05T06:43:41.000Z</time></trkpt><trkpt lon="5.833182" lat="51.24613"><ele>23.2</ele><time>2022-06-05T06:43:42.000Z</time></trkpt><trkpt lon="5.833167" lat="51.246198"><ele>23.2</ele><time>2022-06-05T06:43:43.000Z</time></trkpt><trkpt lon="5.833154" lat="51.246266"><ele>23.4</ele><time>2022-06-05T06:43:44.000Z</time></trkpt><trkpt lon="5.83314" lat="51.246336"><ele>23.4</ele><time>2022-06-05T06:43:45.000Z</time></trkpt><trkpt lon="5.833126" lat="51.246404"><ele>23.4</ele><time>2022-06-05T06:43:46.000Z</time></trkpt><trkpt lon="5.83311" lat="51.246473"><ele>23.2</ele><time>2022-06-05T06:43:47.000Z</time></trkpt><trkpt lon="5.833096" lat="51.246538"><ele>23.2</ele><time>2022-06-05T06:43:48.000Z</time></trkpt><trkpt lon="5.833085" lat="51.246606"><ele>23.2</ele><time>2022-06-05T06:43:49.000Z</time></trkpt><trkpt lon="5.83308" lat="51.246669"><ele>23</ele><time>2022-06-05T06:43:50.000Z</time></trkpt><trkpt lon="5.833082" lat="51.246732"><ele>23.2</ele><time>2022-06-05T06:43:51.000Z</time></trkpt><trkpt lon="5.833091" lat="51.246801"><ele>23</ele><time>2022-06-05T06:43:52.000Z</time></trkpt><trkpt lon="5.833101" lat="51.24687"><ele>23</ele><time>2022-06-05T06:43:53.000Z</time></trkpt><trkpt lon="5.833113" lat="51.246939"><ele>23</ele><time>2022-06-05T06:43:54.000Z</time></trkpt><trkpt lon="5.833123" lat="51.247007"><ele>23</ele><time>2022-06-05T06:43:55.000Z</time></trkpt><trkpt lon="5.833133" lat="51.247076"><ele>23</ele><time>2022-06-05T06:43:56.000Z</time></trkpt><trkpt lon="5.833142" lat="51.247144"><ele>23.2</ele><time>2022-06-05T06:43:57.000Z</time></trkpt><trkpt lon="5.833152" lat="51.24721"><ele>23.2</ele><time>2022-06-05T06:43:58.000Z</time></trkpt><trkpt lon="5.833158" lat="51.247274"><ele>23.4</ele><time>2022-06-05T06:43:59.000Z</time></trkpt><trkpt lon="5.833166" lat="51.247335"><ele>23.4</ele><time>2022-06-05T06:44:00.000Z</time></trkpt><trkpt lon="5.833175" lat="51.247389"><ele>23.4</ele><time>2022-06-05T06:44:01.000Z</time></trkpt><trkpt lon="5.833185" lat="51.247446"><ele>23.4</ele><time>2022-06-05T06:44:02.000Z</time></trkpt><trkpt lon="5.833195" lat="51.2475"><ele>23.4</ele><time>2022-06-05T06:44:03.000Z</time></trkpt><trkpt lon="5.833205" lat="51.247544"><ele>23.4</ele><time>2022-06-05T06:44:04.000Z</time></trkpt><trkpt lon="5.833218" lat="51.247595"><ele>23.4</ele><time>2022-06-05T06:44:05.000Z</time></trkpt><trkpt lon="5.833233" lat="51.247637"><ele>23.6</ele><time>2022-06-05T06:44:06.000Z</time></trkpt><trkpt lon="5.833249" lat="51.247675"><ele>23.6</ele><time>2022-06-05T06:44:07.000Z</time></trkpt><trkpt lon="5.83326" lat="51.247714"><ele>23.4</ele><time>2022-06-05T06:44:08.000Z</time></trkpt><trkpt lon="5.833271" lat="51.247752"><ele>23.4</ele><time>2022-06-05T06:44:09.000Z</time></trkpt><trkpt lon="5.833283" lat="51.247793"><ele>23.4</ele><time>2022-06-05T06:44:10.000Z</time></trkpt><trkpt lon="5.833293" lat="51.247843"><ele>23.4</ele><time>2022-06-05T06:44:11.000Z</time></trkpt><trkpt lon="5.833297" lat="51.247893"><ele>23.2</ele><time>2022-06-05T06:44:12.000Z</time></trkpt><trkpt lon="5.83329" lat="51.247942"><ele>23.2</ele><time>2022-06-05T06:44:13.000Z</time></trkpt><trkpt lon="5.833272" lat="51.247996"><ele>23.2</ele><time>2022-06-05T06:44:14.000Z</time></trkpt><trkpt lon="5.833252" lat="51.248054"><ele>23</ele><time>2022-06-05T06:44:15.000Z</time></trkpt><trkpt lon="5.833221" lat="51.248114"><ele>23</ele><time>2022-06-05T06:44:16.000Z</time></trkpt><trkpt lon="5.833181" lat="51.248167"><ele>23</ele><time>2022-06-05T06:44:17.000Z</time></trkpt><trkpt lon="5.833129" lat="51.24822"><ele>23</ele><time>2022-06-05T06:44:18.000Z</time></trkpt><trkpt lon="5.833065" lat="51.248274"><ele>23</ele><time>2022-06-05T06:44:19.000Z</time></trkpt><trkpt lon="5.832992" lat="51.248324"><ele>23</ele><time>2022-06-05T06:44:20.000Z</time></trkpt><trkpt lon="5.832913" lat="51.248374"><ele>23</ele><time>2022-06-05T06:44:21.000Z</time></trkpt><trkpt lon="5.832832" lat="51.248419"><ele>23</ele><time>2022-06-05T06:44:22.000Z</time></trkpt><trkpt lon="5.832746" lat="51.248469"><ele>23</ele><time>2022-06-05T06:44:23.000Z</time></trkpt><trkpt lon="5.832659" lat="51.248518"><ele>22.8</ele><time>2022-06-05T06:44:24.000Z</time></trkpt><trkpt lon="5.832573" lat="51.248564"><ele>22.8</ele><time>2022-06-05T06:44:25.000Z</time></trkpt><trkpt lon="5.83249" lat="51.248617"><ele>22.8</ele><time>2022-06-05T06:44:26.000Z</time></trkpt><trkpt lon="5.832404" lat="51.248667"><ele>22.8</ele><time>2022-06-05T06:44:27.000Z</time></trkpt><trkpt lon="5.832321" lat="51.248715"><ele>22.8</ele><time>2022-06-05T06:44:28.000Z</time></trkpt><trkpt lon="5.832234" lat="51.248763"><ele>22.6</ele><time>2022-06-05T06:44:29.000Z</time></trkpt><trkpt lon="5.83215" lat="51.248812"><ele>22.6</ele><time>2022-06-05T06:44:30.000Z</time></trkpt><trkpt lon="5.832066" lat="51.248858"><ele>22.6</ele><time>2022-06-05T06:44:31.000Z</time></trkpt><trkpt lon="5.831983" lat="51.248904"><ele>22.6</ele><time>2022-06-05T06:44:32.000Z</time></trkpt><trkpt lon="5.831898" lat="51.248949"><ele>22.6</ele><time>2022-06-05T06:44:33.000Z</time></trkpt><trkpt lon="5.831812" lat="51.248995"><ele>22.8</ele><time>2022-06-05T06:44:34.000Z</time></trkpt><trkpt lon="5.831731" lat="51.249049"><ele>22.8</ele><time>2022-06-05T06:44:35.000Z</time></trkpt><trkpt lon="5.831654" lat="51.249098"><ele>22.8</ele><time>2022-06-05T06:44:36.000Z</time></trkpt><trkpt lon="5.83158" lat="51.249148"><ele>22.6</ele><time>2022-06-05T06:44:37.000Z</time></trkpt><trkpt lon="5.831509" lat="51.249204"><ele>22.6</ele><time>2022-06-05T06:44:38.000Z</time></trkpt><trkpt lon="5.831435" lat="51.249259"><ele>22.4</ele><time>2022-06-05T06:44:39.000Z</time></trkpt><trkpt lon="5.831367" lat="51.249312"><ele>22.4</ele><time>2022-06-05T06:44:40.000Z</time></trkpt><trkpt lon="5.831301" lat="51.249365"><ele>22.2</ele><time>2022-06-05T06:44:41.000Z</time></trkpt><trkpt lon="5.831242" lat="51.24942"><ele>22.4</ele><time>2022-06-05T06:44:42.000Z</time></trkpt><trkpt lon="5.831174" lat="51.249483"><ele>22.4</ele><time>2022-06-05T06:44:43.000Z</time></trkpt><trkpt lon="5.831113" lat="51.249544"><ele>22.6</ele><time>2022-06-05T06:44:44.000Z</time></trkpt><trkpt lon="5.831055" lat="51.249606"><ele>22.6</ele><time>2022-06-05T06:44:45.000Z</time></trkpt><trkpt lon="5.830997" lat="51.249666"><ele>22.6</ele><time>2022-06-05T06:44:46.000Z</time></trkpt><trkpt lon="5.830938" lat="51.249731"><ele>22.6</ele><time>2022-06-05T06:44:47.000Z</time></trkpt><trkpt lon="5.830882" lat="51.249785"><ele>22.6</ele><time>2022-06-05T06:44:48.000Z</time></trkpt><trkpt lon="5.830819" lat="51.249849"><ele>22.6</ele><time>2022-06-05T06:44:49.000Z</time></trkpt><trkpt lon="5.830761" lat="51.249906"><ele>22.6</ele><time>2022-06-05T06:44:50.000Z</time></trkpt><trkpt lon="5.8307" lat="51.249972"><ele>22.8</ele><time>2022-06-05T06:44:51.000Z</time></trkpt><trkpt lon="5.830649" lat="51.250025"><ele>22.8</ele><time>2022-06-05T06:44:52.000Z</time></trkpt><trkpt lon="5.830582" lat="51.250094"><ele>22.8</ele><time>2022-06-05T06:44:53.000Z</time></trkpt><trkpt lon="5.830523" lat="51.250154"><ele>22.8</ele><time>2022-06-05T06:44:54.000Z</time></trkpt><trkpt lon="5.830467" lat="51.250215"><ele>22.8</ele><time>2022-06-05T06:44:55.000Z</time></trkpt><trkpt lon="5.830409" lat="51.250276"><ele>22.8</ele><time>2022-06-05T06:44:56.000Z</time></trkpt><trkpt lon="5.83035" lat="51.250334"><ele>23</ele><time>2022-06-05T06:44:57.000Z</time></trkpt><trkpt lon="5.830293" lat="51.250395"><ele>23</ele><time>2022-06-05T06:44:58.000Z</time></trkpt><trkpt lon="5.830233" lat="51.250452"><ele>23.2</ele><time>2022-06-05T06:44:59.000Z</time></trkpt><trkpt lon="5.830175" lat="51.250513"><ele>23.2</ele><time>2022-06-05T06:45:00.000Z</time></trkpt><trkpt lon="5.830117" lat="51.25057"><ele>23</ele><time>2022-06-05T06:45:01.000Z</time></trkpt><trkpt lon="5.830058" lat="51.250631"><ele>22.8</ele><time>2022-06-05T06:45:02.000Z</time></trkpt><trkpt lon="5.829997" lat="51.250689"><ele>22.8</ele><time>2022-06-05T06:45:03.000Z</time></trkpt><trkpt lon="5.829939" lat="51.250746"><ele>22.8</ele><time>2022-06-05T06:45:04.000Z</time></trkpt><trkpt lon="5.829879" lat="51.250803"><ele>22.8</ele><time>2022-06-05T06:45:05.000Z</time></trkpt><trkpt lon="5.829823" lat="51.250864"><ele>23</ele><time>2022-06-05T06:45:06.000Z</time></trkpt><trkpt lon="5.829765" lat="51.250921"><ele>23</ele><time>2022-06-05T06:45:07.000Z</time></trkpt><trkpt lon="5.829707" lat="51.250978"><ele>23</ele><time>2022-06-05T06:45:08.000Z</time></trkpt><trkpt lon="5.829649" lat="51.251039"><ele>23</ele><time>2022-06-05T06:45:09.000Z</time></trkpt><trkpt lon="5.829589" lat="51.251093"><ele>23</ele><time>2022-06-05T06:45:10.000Z</time></trkpt><trkpt lon="5.829532" lat="51.251145"><ele>23</ele><time>2022-06-05T06:45:11.000Z</time></trkpt><trkpt lon="5.829474" lat="51.251205"><ele>23</ele><time>2022-06-05T06:45:12.000Z</time></trkpt><trkpt lon="5.829413" lat="51.251265"><ele>23</ele><time>2022-06-05T06:45:13.000Z</time></trkpt><trkpt lon="5.829354" lat="51.251322"><ele>23.2</ele><time>2022-06-05T06:45:14.000Z</time></trkpt><trkpt lon="5.829293" lat="51.251378"><ele>23.2</ele><time>2022-06-05T06:45:15.000Z</time></trkpt><trkpt lon="5.829231" lat="51.251436"><ele>23.2</ele><time>2022-06-05T06:45:16.000Z</time></trkpt><trkpt lon="5.82917" lat="51.25149"><ele>23.4</ele><time>2022-06-05T06:45:17.000Z</time></trkpt><trkpt lon="5.82911" lat="51.251547"><ele>23.4</ele><time>2022-06-05T06:45:18.000Z</time></trkpt><trkpt lon="5.829045" lat="51.251604"><ele>23.4</ele><time>2022-06-05T06:45:19.000Z</time></trkpt><trkpt lon="5.828976" lat="51.251661"><ele>23.4</ele><time>2022-06-05T06:45:20.000Z</time></trkpt><trkpt lon="5.828911" lat="51.251718"><ele>23.4</ele><time>2022-06-05T06:45:21.000Z</time></trkpt><trkpt lon="5.828845" lat="51.251775"><ele>23.4</ele><time>2022-06-05T06:45:22.000Z</time></trkpt><trkpt lon="5.828774" lat="51.251832"><ele>23.4</ele><time>2022-06-05T06:45:23.000Z</time></trkpt><trkpt lon="5.828708" lat="51.251889"><ele>23.4</ele><time>2022-06-05T06:45:24.000Z</time></trkpt><trkpt lon="5.828642" lat="51.251947"><ele>23.4</ele><time>2022-06-05T06:45:25.000Z</time></trkpt><trkpt lon="5.828577" lat="51.252005"><ele>23.2</ele><time>2022-06-05T06:45:26.000Z</time></trkpt><trkpt lon="5.828513" lat="51.252062"><ele>23.4</ele><time>2022-06-05T06:45:27.000Z</time></trkpt><trkpt lon="5.828449" lat="51.252119"><ele>23.4</ele><time>2022-06-05T06:45:28.000Z</time></trkpt><trkpt lon="5.828385" lat="51.252177"><ele>23.4</ele><time>2022-06-05T06:45:29.000Z</time></trkpt><trkpt lon="5.828327" lat="51.252234"><ele>23.2</ele><time>2022-06-05T06:45:30.000Z</time></trkpt><trkpt lon="5.828267" lat="51.252295"><ele>23.2</ele><time>2022-06-05T06:45:31.000Z</time></trkpt><trkpt lon="5.828209" lat="51.252354"><ele>23.2</ele><time>2022-06-05T06:45:32.000Z</time></trkpt><trkpt lon="5.828151" lat="51.252416"><ele>23.4</ele><time>2022-06-05T06:45:33.000Z</time></trkpt><trkpt lon="5.828095" lat="51.252474"><ele>23.4</ele><time>2022-06-05T06:45:34.000Z</time></trkpt><trkpt lon="5.828037" lat="51.252534"><ele>23.6</ele><time>2022-06-05T06:45:35.000Z</time></trkpt><trkpt lon="5.82798" lat="51.252598"><ele>23.6</ele><time>2022-06-05T06:45:36.000Z</time></trkpt><trkpt lon="5.827925" lat="51.252657"><ele>23.6</ele><time>2022-06-05T06:45:37.000Z</time></trkpt><trkpt lon="5.827873" lat="51.252715"><ele>23.6</ele><time>2022-06-05T06:45:38.000Z</time></trkpt><trkpt lon="5.827816" lat="51.252779"><ele>23.6</ele><time>2022-06-05T06:45:39.000Z</time></trkpt><trkpt lon="5.827764" lat="51.25284"><ele>23.6</ele><time>2022-06-05T06:45:40.000Z</time></trkpt><trkpt lon="5.827711" lat="51.252904"><ele>23.8</ele><time>2022-06-05T06:45:41.000Z</time></trkpt><trkpt lon="5.827653" lat="51.252966"><ele>23.6</ele><time>2022-06-05T06:45:42.000Z</time></trkpt><trkpt lon="5.827595" lat="51.253031"><ele>23.6</ele><time>2022-06-05T06:45:43.000Z</time></trkpt><trkpt lon="5.827539" lat="51.253091"><ele>23.6</ele><time>2022-06-05T06:45:44.000Z</time></trkpt><trkpt lon="5.827483" lat="51.253153"><ele>23.6</ele><time>2022-06-05T06:45:45.000Z</time></trkpt><trkpt lon="5.827427" lat="51.253218"><ele>23.6</ele><time>2022-06-05T06:45:46.000Z</time></trkpt><trkpt lon="5.827373" lat="51.253279"><ele>23.6</ele><time>2022-06-05T06:45:47.000Z</time></trkpt><trkpt lon="5.827319" lat="51.253339"><ele>23.6</ele><time>2022-06-05T06:45:48.000Z</time></trkpt><trkpt lon="5.827263" lat="51.253401"><ele>23.6</ele><time>2022-06-05T06:45:49.000Z</time></trkpt><trkpt lon="5.827208" lat="51.253462"><ele>23.6</ele><time>2022-06-05T06:45:50.000Z</time></trkpt><trkpt lon="5.827153" lat="51.253523"><ele>23.6</ele><time>2022-06-05T06:45:51.000Z</time></trkpt><trkpt lon="5.827102" lat="51.253582"><ele>23.6</ele><time>2022-06-05T06:45:52.000Z</time></trkpt><trkpt lon="5.827045" lat="51.253645"><ele>23.8</ele><time>2022-06-05T06:45:53.000Z</time></trkpt><trkpt lon="5.826992" lat="51.253704"><ele>23.8</ele><time>2022-06-05T06:45:54.000Z</time></trkpt><trkpt lon="5.826936" lat="51.253763"><ele>23.8</ele><time>2022-06-05T06:45:55.000Z</time></trkpt><trkpt lon="5.826882" lat="51.253824"><ele>23.8</ele><time>2022-06-05T06:45:56.000Z</time></trkpt><trkpt lon="5.826826" lat="51.25389"><ele>23.8</ele><time>2022-06-05T06:45:57.000Z</time></trkpt><trkpt lon="5.826771" lat="51.25395"><ele>23.8</ele><time>2022-06-05T06:45:58.000Z</time></trkpt><trkpt lon="5.826718" lat="51.25401"><ele>23.8</ele><time>2022-06-05T06:45:59.000Z</time></trkpt><trkpt lon="5.826664" lat="51.254075"><ele>23.8</ele><time>2022-06-05T06:46:00.000Z</time></trkpt><trkpt lon="5.826609" lat="51.254133"><ele>23.8</ele><time>2022-06-05T06:46:01.000Z</time></trkpt><trkpt lon="5.826554" lat="51.254197"><ele>23.6</ele><time>2022-06-05T06:46:02.000Z</time></trkpt><trkpt lon="5.826499" lat="51.254255"><ele>23.6</ele><time>2022-06-05T06:46:03.000Z</time></trkpt><trkpt lon="5.826444" lat="51.25432"><ele>23.8</ele><time>2022-06-05T06:46:04.000Z</time></trkpt><trkpt lon="5.826387" lat="51.254385"><ele>23.8</ele><time>2022-06-05T06:46:05.000Z</time></trkpt><trkpt lon="5.82633" lat="51.254446"><ele>23.8</ele><time>2022-06-05T06:46:06.000Z</time></trkpt><trkpt lon="5.826273" lat="51.254511"><ele>23.8</ele><time>2022-06-05T06:46:07.000Z</time></trkpt><trkpt lon="5.826219" lat="51.254572"><ele>23.8</ele><time>2022-06-05T06:46:08.000Z</time></trkpt><trkpt lon="5.826161" lat="51.254637"><ele>23.6</ele><time>2022-06-05T06:46:09.000Z</time></trkpt><trkpt lon="5.826104" lat="51.254698"><ele>23.8</ele><time>2022-06-05T06:46:10.000Z</time></trkpt><trkpt lon="5.826047" lat="51.254759"><ele>23.8</ele><time>2022-06-05T06:46:11.000Z</time></trkpt><trkpt lon="5.82599" lat="51.254819"><ele>23.6</ele><time>2022-06-05T06:46:12.000Z</time></trkpt><trkpt lon="5.825932" lat="51.25488"><ele>23.8</ele><time>2022-06-05T06:46:13.000Z</time></trkpt><trkpt lon="5.825875" lat="51.254938"><ele>23.8</ele><time>2022-06-05T06:46:14.000Z</time></trkpt><trkpt lon="5.825823" lat="51.254998"><ele>23.8</ele><time>2022-06-05T06:46:15.000Z</time></trkpt><trkpt lon="5.82577" lat="51.255056"><ele>23.8</ele><time>2022-06-05T06:46:16.000Z</time></trkpt><trkpt lon="5.82572" lat="51.255117"><ele>23.8</ele><time>2022-06-05T06:46:17.000Z</time></trkpt><trkpt lon="5.825668" lat="51.255175"><ele>23.8</ele><time>2022-06-05T06:46:18.000Z</time></trkpt><trkpt lon="5.825617" lat="51.255232"><ele>23.8</ele><time>2022-06-05T06:46:19.000Z</time></trkpt><trkpt lon="5.825564" lat="51.25529"><ele>23.8</ele><time>2022-06-05T06:46:20.000Z</time></trkpt><trkpt lon="5.825515" lat="51.255343"><ele>23.8</ele><time>2022-06-05T06:46:21.000Z</time></trkpt><trkpt lon="5.825472" lat="51.255388"><ele>24</ele><time>2022-06-05T06:46:22.000Z</time></trkpt><trkpt lon="5.825419" lat="51.255453"><ele>24</ele><time>2022-06-05T06:46:23.000Z</time></trkpt><trkpt lon="5.825375" lat="51.255507"><ele>24</ele><time>2022-06-05T06:46:24.000Z</time></trkpt><trkpt lon="5.825338" lat="51.25556"><ele>24.2</ele><time>2022-06-05T06:46:25.000Z</time></trkpt><trkpt lon="5.825306" lat="51.255612"><ele>24.2</ele><time>2022-06-05T06:46:26.000Z</time></trkpt><trkpt lon="5.825271" lat="51.255678"><ele>24.2</ele><time>2022-06-05T06:46:27.000Z</time></trkpt><trkpt lon="5.825246" lat="51.255732"><ele>24.2</ele><time>2022-06-05T06:46:28.000Z</time></trkpt><trkpt lon="5.825224" lat="51.255785"><ele>24.4</ele><time>2022-06-05T06:46:29.000Z</time></trkpt><trkpt lon="5.825217" lat="51.255845"><ele>24.4</ele><time>2022-06-05T06:46:30.000Z</time></trkpt><trkpt lon="5.825218" lat="51.255902"><ele>24.4</ele><time>2022-06-05T06:46:31.000Z</time></trkpt><trkpt lon="5.825218" lat="51.255953"><ele>24.2</ele><time>2022-06-05T06:46:32.000Z</time></trkpt><trkpt lon="5.82522" lat="51.256007"><ele>24.2</ele><time>2022-06-05T06:46:33.000Z</time></trkpt><trkpt lon="5.825222" lat="51.25606"><ele>24.2</ele><time>2022-06-05T06:46:34.000Z</time></trkpt><trkpt lon="5.825223" lat="51.256108"><ele>24.2</ele><time>2022-06-05T06:46:35.000Z</time></trkpt><trkpt lon="5.825225" lat="51.256159"><ele>24.2</ele><time>2022-06-05T06:46:36.000Z</time></trkpt><trkpt lon="5.825231" lat="51.25622"><ele>24.2</ele><time>2022-06-05T06:46:37.000Z</time></trkpt><trkpt lon="5.825238" lat="51.256285"><ele>24.4</ele><time>2022-06-05T06:46:38.000Z</time></trkpt><trkpt lon="5.825245" lat="51.256342"><ele>24.4</ele><time>2022-06-05T06:46:39.000Z</time></trkpt><trkpt lon="5.825251" lat="51.256396"><ele>24.4</ele><time>2022-06-05T06:46:40.000Z</time></trkpt><trkpt lon="5.825261" lat="51.256453"><ele>24.4</ele><time>2022-06-05T06:46:41.000Z</time></trkpt><trkpt lon="5.825281" lat="51.256521"><ele>24.4</ele><time>2022-06-05T06:46:42.000Z</time></trkpt><trkpt lon="5.825298" lat="51.256583"><ele>24.2</ele><time>2022-06-05T06:46:43.000Z</time></trkpt><trkpt lon="5.825327" lat="51.256658"><ele>24.2</ele><time>2022-06-05T06:46:44.000Z</time></trkpt><trkpt lon="5.825357" lat="51.256726"><ele>24.4</ele><time>2022-06-05T06:46:45.000Z</time></trkpt><trkpt lon="5.825389" lat="51.256803"><ele>24.4</ele><time>2022-06-05T06:46:46.000Z</time></trkpt><trkpt lon="5.825419" lat="51.256879"><ele>24.4</ele><time>2022-06-05T06:46:47.000Z</time></trkpt><trkpt lon="5.825447" lat="51.256947"><ele>24.6</ele><time>2022-06-05T06:46:48.000Z</time></trkpt><trkpt lon="5.825481" lat="51.257024"><ele>24.8</ele><time>2022-06-05T06:46:49.000Z</time></trkpt><trkpt lon="5.825516" lat="51.257104"><ele>24.8</ele><time>2022-06-05T06:46:50.000Z</time></trkpt><trkpt lon="5.825548" lat="51.25717"><ele>24.8</ele><time>2022-06-05T06:46:51.000Z</time></trkpt><trkpt lon="5.825575" lat="51.257239"><ele>24.6</ele><time>2022-06-05T06:46:52.000Z</time></trkpt><trkpt lon="5.825601" lat="51.25731"><ele>24.6</ele><time>2022-06-05T06:46:53.000Z</time></trkpt><trkpt lon="5.825629" lat="51.257383"><ele>24.6</ele><time>2022-06-05T06:46:54.000Z</time></trkpt><trkpt lon="5.825664" lat="51.257469"><ele>24.4</ele><time>2022-06-05T06:46:55.000Z</time></trkpt><trkpt lon="5.825696" lat="51.257548"><ele>24.4</ele><time>2022-06-05T06:46:56.000Z</time></trkpt><trkpt lon="5.825739" lat="51.257631"><ele>24.4</ele><time>2022-06-05T06:46:57.000Z</time></trkpt><trkpt lon="5.825775" lat="51.257711"><ele>24.2</ele><time>2022-06-05T06:46:58.000Z</time></trkpt><trkpt lon="5.825812" lat="51.257783"><ele>24.2</ele><time>2022-06-05T06:46:59.000Z</time></trkpt><trkpt lon="5.825847" lat="51.257855"><ele>24.2</ele><time>2022-06-05T06:47:00.000Z</time></trkpt><trkpt lon="5.825879" lat="51.257937"><ele>24.2</ele><time>2022-06-05T06:47:01.000Z</time></trkpt><trkpt lon="5.825909" lat="51.258009"><ele>24.4</ele><time>2022-06-05T06:47:02.000Z</time></trkpt><trkpt lon="5.82594" lat="51.25808"><ele>24.2</ele><time>2022-06-05T06:47:03.000Z</time></trkpt><trkpt lon="5.825971" lat="51.258154"><ele>24</ele><time>2022-06-05T06:47:04.000Z</time></trkpt><trkpt lon="5.826001" lat="51.258226"><ele>24</ele><time>2022-06-05T06:47:05.000Z</time></trkpt><trkpt lon="5.826034" lat="51.258291"><ele>24</ele><time>2022-06-05T06:47:06.000Z</time></trkpt><trkpt lon="5.826064" lat="51.25836"><ele>23.8</ele><time>2022-06-05T06:47:07.000Z</time></trkpt><trkpt lon="5.826094" lat="51.258423"><ele>23.8</ele><time>2022-06-05T06:47:08.000Z</time></trkpt><trkpt lon="5.826125" lat="51.258487"><ele>23.6</ele><time>2022-06-05T06:47:09.000Z</time></trkpt><trkpt lon="5.826159" lat="51.258558"><ele>23.6</ele><time>2022-06-05T06:47:10.000Z</time></trkpt><trkpt lon="5.826189" lat="51.258623"><ele>23.6</ele><time>2022-06-05T06:47:11.000Z</time></trkpt><trkpt lon="5.826219" lat="51.258692"><ele>23.6</ele><time>2022-06-05T06:47:12.000Z</time></trkpt><trkpt lon="5.826252" lat="51.25876"><ele>23.4</ele><time>2022-06-05T06:47:13.000Z</time></trkpt><trkpt lon="5.826284" lat="51.258829"><ele>23.4</ele><time>2022-06-05T06:47:14.000Z</time></trkpt><trkpt lon="5.826316" lat="51.258898"><ele>23.6</ele><time>2022-06-05T06:47:15.000Z</time></trkpt><trkpt lon="5.826346" lat="51.258966"><ele>23.6</ele><time>2022-06-05T06:47:16.000Z</time></trkpt><trkpt lon="5.826374" lat="51.259039"><ele>23.6</ele><time>2022-06-05T06:47:17.000Z</time></trkpt><trkpt lon="5.826402" lat="51.259111"><ele>23.6</ele><time>2022-06-05T06:47:18.000Z</time></trkpt><trkpt lon="5.826432" lat="51.25918"><ele>23.6</ele><time>2022-06-05T06:47:19.000Z</time></trkpt><trkpt lon="5.826461" lat="51.259249"><ele>23.6</ele><time>2022-06-05T06:47:20.000Z</time></trkpt><trkpt lon="5.826487" lat="51.25932"><ele>23.6</ele><time>2022-06-05T06:47:21.000Z</time></trkpt><trkpt lon="5.826516" lat="51.25939"><ele>23.6</ele><time>2022-06-05T06:47:22.000Z</time></trkpt><trkpt lon="5.826547" lat="51.259462"><ele>23.8</ele><time>2022-06-05T06:47:23.000Z</time></trkpt><trkpt lon="5.826577" lat="51.259531"><ele>23.6</ele><time>2022-06-05T06:47:24.000Z</time></trkpt><trkpt lon="5.826607" lat="51.259599"><ele>23.6</ele><time>2022-06-05T06:47:25.000Z</time></trkpt><trkpt lon="5.826636" lat="51.259668"><ele>23.6</ele><time>2022-06-05T06:47:26.000Z</time></trkpt><trkpt lon="5.826666" lat="51.259733"><ele>23.8</ele><time>2022-06-05T06:47:27.000Z</time></trkpt><trkpt lon="5.826698" lat="51.259798"><ele>23.8</ele><time>2022-06-05T06:47:28.000Z</time></trkpt><trkpt lon="5.826728" lat="51.259863"><ele>23.8</ele><time>2022-06-05T06:47:29.000Z</time></trkpt><trkpt lon="5.826751" lat="51.259927"><ele>23.8</ele><time>2022-06-05T06:47:30.000Z</time></trkpt><trkpt lon="5.826769" lat="51.259992"><ele>23.8</ele><time>2022-06-05T06:47:31.000Z</time></trkpt><trkpt lon="5.82678" lat="51.260061"><ele>23.8</ele><time>2022-06-05T06:47:32.000Z</time></trkpt><trkpt lon="5.82678" lat="51.26013"><ele>23.6</ele><time>2022-06-05T06:47:33.000Z</time></trkpt><trkpt lon="5.826773" lat="51.260194"><ele>23.4</ele><time>2022-06-05T06:47:34.000Z</time></trkpt><trkpt lon="5.82676" lat="51.260263"><ele>23.4</ele><time>2022-06-05T06:47:35.000Z</time></trkpt><trkpt lon="5.826744" lat="51.26033"><ele>23.4</ele><time>2022-06-05T06:47:36.000Z</time></trkpt><trkpt lon="5.826726" lat="51.260404"><ele>23.4</ele><time>2022-06-05T06:47:37.000Z</time></trkpt><trkpt lon="5.826708" lat="51.260472"><ele>23.2</ele><time>2022-06-05T06:47:38.000Z</time></trkpt><trkpt lon="5.826689" lat="51.260546"><ele>23</ele><time>2022-06-05T06:47:39.000Z</time></trkpt><trkpt lon="5.826671" lat="51.260618"><ele>23</ele><time>2022-06-05T06:47:40.000Z</time></trkpt><trkpt lon="5.826654" lat="51.260687"><ele>23</ele><time>2022-06-05T06:47:41.000Z</time></trkpt><trkpt lon="5.826635" lat="51.260752"><ele>23</ele><time>2022-06-05T06:47:42.000Z</time></trkpt><trkpt lon="5.826616" lat="51.26082"><ele>22.8</ele><time>2022-06-05T06:47:43.000Z</time></trkpt><trkpt lon="5.826594" lat="51.260889"><ele>22.8</ele><time>2022-06-05T06:47:44.000Z</time></trkpt><trkpt lon="5.826564" lat="51.260958"><ele>22.8</ele><time>2022-06-05T06:47:45.000Z</time></trkpt><trkpt lon="5.826523" lat="51.261019"><ele>22.8</ele><time>2022-06-05T06:47:46.000Z</time></trkpt><trkpt lon="5.826476" lat="51.261074"><ele>22.6</ele><time>2022-06-05T06:47:47.000Z</time></trkpt><trkpt lon="5.82641" lat="51.261137"><ele>22.6</ele><time>2022-06-05T06:47:48.000Z</time></trkpt><trkpt lon="5.826345" lat="51.261195"><ele>22.8</ele><time>2022-06-05T06:47:49.000Z</time></trkpt><trkpt lon="5.826279" lat="51.261251"><ele>23</ele><time>2022-06-05T06:47:50.000Z</time></trkpt><trkpt lon="5.82621" lat="51.261309"><ele>23</ele><time>2022-06-05T06:47:51.000Z</time></trkpt><trkpt lon="5.826141" lat="51.261366"><ele>23</ele><time>2022-06-05T06:47:52.000Z</time></trkpt><trkpt lon="5.82607" lat="51.261424"><ele>23.2</ele><time>2022-06-05T06:47:53.000Z</time></trkpt><trkpt lon="5.825999" lat="51.261477"><ele>23.4</ele><time>2022-06-05T06:47:54.000Z</time></trkpt><trkpt lon="5.825929" lat="51.26153"><ele>23.6</ele><time>2022-06-05T06:47:55.000Z</time></trkpt><trkpt lon="5.825859" lat="51.261584"><ele>23.6</ele><time>2022-06-05T06:47:56.000Z</time></trkpt><trkpt lon="5.825787" lat="51.261637"><ele>23.8</ele><time>2022-06-05T06:47:57.000Z</time></trkpt><trkpt lon="5.825715" lat="51.26169"><ele>23.8</ele><time>2022-06-05T06:47:58.000Z</time></trkpt><trkpt lon="5.825641" lat="51.26174"><ele>23.8</ele><time>2022-06-05T06:47:59.000Z</time></trkpt><trkpt lon="5.825567" lat="51.261789"><ele>24</ele><time>2022-06-05T06:48:00.000Z</time></trkpt><trkpt lon="5.825491" lat="51.261839"><ele>24</ele><time>2022-06-05T06:48:01.000Z</time></trkpt><trkpt lon="5.82541" lat="51.261888"><ele>24</ele><time>2022-06-05T06:48:02.000Z</time></trkpt><trkpt lon="5.825329" lat="51.261935"><ele>24</ele><time>2022-06-05T06:48:03.000Z</time></trkpt><trkpt lon="5.825249" lat="51.261977"><ele>24</ele><time>2022-06-05T06:48:04.000Z</time></trkpt><trkpt lon="5.82517" lat="51.262026"><ele>24</ele><time>2022-06-05T06:48:05.000Z</time></trkpt><trkpt lon="5.82509" lat="51.262068"><ele>24</ele><time>2022-06-05T06:48:06.000Z</time></trkpt><trkpt lon="5.825008" lat="51.26211"><ele>24</ele><time>2022-06-05T06:48:07.000Z</time></trkpt><trkpt lon="5.824929" lat="51.262158"><ele>24</ele><time>2022-06-05T06:48:08.000Z</time></trkpt><trkpt lon="5.824847" lat="51.262201"><ele>24</ele><time>2022-06-05T06:48:09.000Z</time></trkpt><trkpt lon="5.824768" lat="51.262247"><ele>24</ele><time>2022-06-05T06:48:10.000Z</time></trkpt><trkpt lon="5.824686" lat="51.262293"><ele>24</ele><time>2022-06-05T06:48:11.000Z</time></trkpt><trkpt lon="5.824604" lat="51.262339"><ele>23.8</ele><time>2022-06-05T06:48:12.000Z</time></trkpt><trkpt lon="5.824523" lat="51.262385"><ele>24</ele><time>2022-06-05T06:48:13.000Z</time></trkpt><trkpt lon="5.824442" lat="51.262431"><ele>24</ele><time>2022-06-05T06:48:14.000Z</time></trkpt><trkpt lon="5.824372" lat="51.262472"><ele>24</ele><time>2022-06-05T06:48:15.000Z</time></trkpt><trkpt lon="5.824283" lat="51.262518"><ele>24</ele><time>2022-06-05T06:48:16.000Z</time></trkpt><trkpt lon="5.824199" lat="51.262568"><ele>24</ele><time>2022-06-05T06:48:17.000Z</time></trkpt><trkpt lon="5.824118" lat="51.262614"><ele>24</ele><time>2022-06-05T06:48:18.000Z</time></trkpt><trkpt lon="5.824038" lat="51.262663"><ele>23.8</ele><time>2022-06-05T06:48:19.000Z</time></trkpt><trkpt lon="5.823956" lat="51.262709"><ele>23.8</ele><time>2022-06-05T06:48:20.000Z</time></trkpt><trkpt lon="5.823873" lat="51.262755"><ele>23.8</ele><time>2022-06-05T06:48:21.000Z</time></trkpt><trkpt lon="5.823794" lat="51.262799"><ele>23.8</ele><time>2022-06-05T06:48:22.000Z</time></trkpt><trkpt lon="5.823708" lat="51.262846"><ele>24</ele><time>2022-06-05T06:48:23.000Z</time></trkpt><trkpt lon="5.823626" lat="51.262892"><ele>24</ele><time>2022-06-05T06:48:24.000Z</time></trkpt><trkpt lon="5.823545" lat="51.262937"><ele>24</ele><time>2022-06-05T06:48:25.000Z</time></trkpt><trkpt lon="5.823461" lat="51.262984"><ele>24.2</ele><time>2022-06-05T06:48:26.000Z</time></trkpt><trkpt lon="5.82338" lat="51.263034"><ele>24.2</ele><time>2022-06-05T06:48:27.000Z</time></trkpt><trkpt lon="5.823298" lat="51.263079"><ele>24.2</ele><time>2022-06-05T06:48:28.000Z</time></trkpt><trkpt lon="5.823232" lat="51.263116"><ele>24.2</ele><time>2022-06-05T06:48:29.000Z</time></trkpt><trkpt lon="5.823134" lat="51.263171"><ele>24.2</ele><time>2022-06-05T06:48:30.000Z</time></trkpt><trkpt lon="5.823055" lat="51.26322"><ele>24.2</ele><time>2022-06-05T06:48:31.000Z</time></trkpt><trkpt lon="5.822971" lat="51.263266"><ele>24</ele><time>2022-06-05T06:48:32.000Z</time></trkpt><trkpt lon="5.822889" lat="51.263312"><ele>24</ele><time>2022-06-05T06:48:33.000Z</time></trkpt><trkpt lon="5.822808" lat="51.263357"><ele>24</ele><time>2022-06-05T06:48:34.000Z</time></trkpt><trkpt lon="5.822724" lat="51.263403"><ele>24</ele><time>2022-06-05T06:48:35.000Z</time></trkpt><trkpt lon="5.822643" lat="51.263449"><ele>24</ele><time>2022-06-05T06:48:36.000Z</time></trkpt><trkpt lon="5.822559" lat="51.263499"><ele>24</ele><time>2022-06-05T06:48:37.000Z</time></trkpt><trkpt lon="5.822489" lat="51.263538"><ele>24</ele><time>2022-06-05T06:48:38.000Z</time></trkpt><trkpt lon="5.822396" lat="51.26359"><ele>24</ele><time>2022-06-05T06:48:39.000Z</time></trkpt><trkpt lon="5.822316" lat="51.263632"><ele>24</ele><time>2022-06-05T06:48:40.000Z</time></trkpt><trkpt lon="5.822235" lat="51.263678"><ele>24</ele><time>2022-06-05T06:48:41.000Z</time></trkpt><trkpt lon="5.822159" lat="51.263719"><ele>24</ele><time>2022-06-05T06:48:42.000Z</time></trkpt><trkpt lon="5.82207" lat="51.263769"><ele>24.2</ele><time>2022-06-05T06:48:43.000Z</time></trkpt><trkpt lon="5.821987" lat="51.263815"><ele>24.2</ele><time>2022-06-05T06:48:44.000Z</time></trkpt><trkpt lon="5.821904" lat="51.263865"><ele>24.2</ele><time>2022-06-05T06:48:45.000Z</time></trkpt><trkpt lon="5.82182" lat="51.26391"><ele>24.2</ele><time>2022-06-05T06:48:46.000Z</time></trkpt><trkpt lon="5.821738" lat="51.26396"><ele>24.2</ele><time>2022-06-05T06:48:47.000Z</time></trkpt><trkpt lon="5.821656" lat="51.264006"><ele>24.4</ele><time>2022-06-05T06:48:48.000Z</time></trkpt><trkpt lon="5.821574" lat="51.264052"><ele>24.4</ele><time>2022-06-05T06:48:49.000Z</time></trkpt><trkpt lon="5.821492" lat="51.264101"><ele>24.4</ele><time>2022-06-05T06:48:50.000Z</time></trkpt><trkpt lon="5.82141" lat="51.264147"><ele>24.6</ele><time>2022-06-05T06:48:51.000Z</time></trkpt><trkpt lon="5.821333" lat="51.264192"><ele>24.4</ele><time>2022-06-05T06:48:52.000Z</time></trkpt><trkpt lon="5.821255" lat="51.264238"><ele>24.4</ele><time>2022-06-05T06:48:53.000Z</time></trkpt><trkpt lon="5.821172" lat="51.264281"><ele>24.4</ele><time>2022-06-05T06:48:54.000Z</time></trkpt><trkpt lon="5.821094" lat="51.264323"><ele>24.4</ele><time>2022-06-05T06:48:55.000Z</time></trkpt><trkpt lon="5.821016" lat="51.264365"><ele>24.2</ele><time>2022-06-05T06:48:56.000Z</time></trkpt><trkpt lon="5.820937" lat="51.264407"><ele>24.2</ele><time>2022-06-05T06:48:57.000Z</time></trkpt><trkpt lon="5.820865" lat="51.264446"><ele>24.2</ele><time>2022-06-05T06:48:58.000Z</time></trkpt><trkpt lon="5.820781" lat="51.26449"><ele>24.2</ele><time>2022-06-05T06:48:59.000Z</time></trkpt><trkpt lon="5.820706" lat="51.264537"><ele>24.2</ele><time>2022-06-05T06:49:00.000Z</time></trkpt><trkpt lon="5.820629" lat="51.264582"><ele>24.2</ele><time>2022-06-05T06:49:01.000Z</time></trkpt><trkpt lon="5.820551" lat="51.264628"><ele>24.2</ele><time>2022-06-05T06:49:02.000Z</time></trkpt><trkpt lon="5.820471" lat="51.264674"><ele>24.4</ele><time>2022-06-05T06:49:03.000Z</time></trkpt><trkpt lon="5.820389" lat="51.264719"><ele>24.4</ele><time>2022-06-05T06:49:04.000Z</time></trkpt><trkpt lon="5.82031" lat="51.264761"><ele>24.4</ele><time>2022-06-05T06:49:05.000Z</time></trkpt><trkpt lon="5.820229" lat="51.264807"><ele>24.2</ele><time>2022-06-05T06:49:06.000Z</time></trkpt><trkpt lon="5.82015" lat="51.264856"><ele>24.4</ele><time>2022-06-05T06:49:07.000Z</time></trkpt><trkpt lon="5.820069" lat="51.264903"><ele>24.4</ele><time>2022-06-05T06:49:08.000Z</time></trkpt><trkpt lon="5.819989" lat="51.264948"><ele>24.4</ele><time>2022-06-05T06:49:09.000Z</time></trkpt><trkpt lon="5.819922" lat="51.264986"><ele>24.4</ele><time>2022-06-05T06:49:10.000Z</time></trkpt><trkpt lon="5.819827" lat="51.265039"><ele>24.4</ele><time>2022-06-05T06:49:11.000Z</time></trkpt><trkpt lon="5.819745" lat="51.265085"><ele>24.6</ele><time>2022-06-05T06:49:12.000Z</time></trkpt><trkpt lon="5.819664" lat="51.265132"><ele>24.6</ele><time>2022-06-05T06:49:13.000Z</time></trkpt><trkpt lon="5.819583" lat="51.265173"><ele>24.6</ele><time>2022-06-05T06:49:14.000Z</time></trkpt><trkpt lon="5.819499" lat="51.265219"><ele>24.6</ele><time>2022-06-05T06:49:15.000Z</time></trkpt><trkpt lon="5.819418" lat="51.265265"><ele>24.6</ele><time>2022-06-05T06:49:16.000Z</time></trkpt><trkpt lon="5.819335" lat="51.265311"><ele>24.6</ele><time>2022-06-05T06:49:17.000Z</time></trkpt><trkpt lon="5.819251" lat="51.26536"><ele>24.8</ele><time>2022-06-05T06:49:18.000Z</time></trkpt><trkpt lon="5.819169" lat="51.265406"><ele>24.8</ele><time>2022-06-05T06:49:19.000Z</time></trkpt><trkpt lon="5.819087" lat="51.265451"><ele>24.8</ele><time>2022-06-05T06:49:20.000Z</time></trkpt><trkpt lon="5.819001" lat="51.265498"><ele>24.8</ele><time>2022-06-05T06:49:21.000Z</time></trkpt><trkpt lon="5.818919" lat="51.265546"><ele>24.8</ele><time>2022-06-05T06:49:22.000Z</time></trkpt><trkpt lon="5.818836" lat="51.265593"><ele>25</ele><time>2022-06-05T06:49:23.000Z</time></trkpt><trkpt lon="5.818755" lat="51.265643"><ele>25</ele><time>2022-06-05T06:49:24.000Z</time></trkpt><trkpt lon="5.818678" lat="51.265692"><ele>25</ele><time>2022-06-05T06:49:25.000Z</time></trkpt><trkpt lon="5.818598" lat="51.265742"><ele>24.8</ele><time>2022-06-05T06:49:26.000Z</time></trkpt><trkpt lon="5.818519" lat="51.265791"><ele>24.8</ele><time>2022-06-05T06:49:27.000Z</time></trkpt><trkpt lon="5.818441" lat="51.265841"><ele>25</ele><time>2022-06-05T06:49:28.000Z</time></trkpt><trkpt lon="5.818365" lat="51.26589"><ele>25</ele><time>2022-06-05T06:49:29.000Z</time></trkpt><trkpt lon="5.818295" lat="51.265937"><ele>25</ele><time>2022-06-05T06:49:30.000Z</time></trkpt><trkpt lon="5.818217" lat="51.26599"><ele>24.8</ele><time>2022-06-05T06:49:31.000Z</time></trkpt><trkpt lon="5.818149" lat="51.266037"><ele>24.8</ele><time>2022-06-05T06:49:32.000Z</time></trkpt><trkpt lon="5.818074" lat="51.266089"><ele>24.8</ele><time>2022-06-05T06:49:33.000Z</time></trkpt><trkpt lon="5.818004" lat="51.266138"><ele>24.8</ele><time>2022-06-05T06:49:34.000Z</time></trkpt><trkpt lon="5.817934" lat="51.266188"><ele>25</ele><time>2022-06-05T06:49:35.000Z</time></trkpt><trkpt lon="5.817864" lat="51.266237"><ele>25</ele><time>2022-06-05T06:49:36.000Z</time></trkpt><trkpt lon="5.817792" lat="51.266291"><ele>24.8</ele><time>2022-06-05T06:49:37.000Z</time></trkpt><trkpt lon="5.81772" lat="51.266341"><ele>24.8</ele><time>2022-06-05T06:49:38.000Z</time></trkpt><trkpt lon="5.817647" lat="51.26639"><ele>25</ele><time>2022-06-05T06:49:39.000Z</time></trkpt><trkpt lon="5.817575" lat="51.266442"><ele>25</ele><time>2022-06-05T06:49:40.000Z</time></trkpt><trkpt lon="5.817499" lat="51.266497"><ele>25</ele><time>2022-06-05T06:49:41.000Z</time></trkpt><trkpt lon="5.81743" lat="51.266546"><ele>25</ele><time>2022-06-05T06:49:42.000Z</time></trkpt><trkpt lon="5.817359" lat="51.266596"><ele>25</ele><time>2022-06-05T06:49:43.000Z</time></trkpt><trkpt lon="5.817289" lat="51.266646"><ele>25</ele><time>2022-06-05T06:49:44.000Z</time></trkpt><trkpt lon="5.817218" lat="51.266695"><ele>25</ele><time>2022-06-05T06:49:45.000Z</time></trkpt><trkpt lon="5.817146" lat="51.266741"><ele>25</ele><time>2022-06-05T06:49:46.000Z</time></trkpt><trkpt lon="5.817072" lat="51.266786"><ele>24.8</ele><time>2022-06-05T06:49:47.000Z</time></trkpt><trkpt lon="5.816999" lat="51.26684"><ele>24.8</ele><time>2022-06-05T06:49:48.000Z</time></trkpt><trkpt lon="5.816927" lat="51.266886"><ele>24.8</ele><time>2022-06-05T06:49:49.000Z</time></trkpt><trkpt lon="5.81686" lat="51.266934"><ele>24.8</ele><time>2022-06-05T06:49:50.000Z</time></trkpt><trkpt lon="5.816787" lat="51.266982"><ele>24.8</ele><time>2022-06-05T06:49:51.000Z</time></trkpt><trkpt lon="5.81672" lat="51.267027"><ele>25</ele><time>2022-06-05T06:49:52.000Z</time></trkpt><trkpt lon="5.816642" lat="51.267076"><ele>24.8</ele><time>2022-06-05T06:49:53.000Z</time></trkpt><trkpt lon="5.816572" lat="51.267122"><ele>24.6</ele><time>2022-06-05T06:49:54.000Z</time></trkpt><trkpt lon="5.816493" lat="51.267176"><ele>24.8</ele><time>2022-06-05T06:49:55.000Z</time></trkpt><trkpt lon="5.81642" lat="51.267225"><ele>24.8</ele><time>2022-06-05T06:49:56.000Z</time></trkpt><trkpt lon="5.816348" lat="51.267272"><ele>24.8</ele><time>2022-06-05T06:49:57.000Z</time></trkpt><trkpt lon="5.816277" lat="51.267321"><ele>24.8</ele><time>2022-06-05T06:49:58.000Z</time></trkpt><trkpt lon="5.816204" lat="51.267367"><ele>24.8</ele><time>2022-06-05T06:49:59.000Z</time></trkpt><trkpt lon="5.816131" lat="51.267416"><ele>24.8</ele><time>2022-06-05T06:50:00.000Z</time></trkpt><trkpt lon="5.816057" lat="51.267465"><ele>24.8</ele><time>2022-06-05T06:50:01.000Z</time></trkpt><trkpt lon="5.815979" lat="51.267515"><ele>24.8</ele><time>2022-06-05T06:50:02.000Z</time></trkpt><trkpt lon="5.815902" lat="51.267569"><ele>24.8</ele><time>2022-06-05T06:50:03.000Z</time></trkpt><trkpt lon="5.815827" lat="51.267623"><ele>24.8</ele><time>2022-06-05T06:50:04.000Z</time></trkpt><trkpt lon="5.815754" lat="51.267672"><ele>24.8</ele><time>2022-06-05T06:50:05.000Z</time></trkpt><trkpt lon="5.815676" lat="51.267729"><ele>24.8</ele><time>2022-06-05T06:50:06.000Z</time></trkpt><trkpt lon="5.8156" lat="51.267779"><ele>24.8</ele><time>2022-06-05T06:50:07.000Z</time></trkpt><trkpt lon="5.815524" lat="51.267828"><ele>24.8</ele><time>2022-06-05T06:50:08.000Z</time></trkpt><trkpt lon="5.815447" lat="51.267881"><ele>24.8</ele><time>2022-06-05T06:50:09.000Z</time></trkpt><trkpt lon="5.815372" lat="51.267938"><ele>24.8</ele><time>2022-06-05T06:50:10.000Z</time></trkpt><trkpt lon="5.815296" lat="51.267992"><ele>24.8</ele><time>2022-06-05T06:50:11.000Z</time></trkpt><trkpt lon="5.815221" lat="51.268041"><ele>24.6</ele><time>2022-06-05T06:50:12.000Z</time></trkpt><trkpt lon="5.815144" lat="51.268095"><ele>24.6</ele><time>2022-06-05T06:50:13.000Z</time></trkpt><trkpt lon="5.815068" lat="51.268149"><ele>24.6</ele><time>2022-06-05T06:50:14.000Z</time></trkpt><trkpt lon="5.814991" lat="51.268202"><ele>24.6</ele><time>2022-06-05T06:50:15.000Z</time></trkpt><trkpt lon="5.814913" lat="51.268259"><ele>24.6</ele><time>2022-06-05T06:50:16.000Z</time></trkpt><trkpt lon="5.814836" lat="51.268312"><ele>24.6</ele><time>2022-06-05T06:50:17.000Z</time></trkpt><trkpt lon="5.814755" lat="51.268369"><ele>24.6</ele><time>2022-06-05T06:50:18.000Z</time></trkpt><trkpt lon="5.814676" lat="51.268423"><ele>24.4</ele><time>2022-06-05T06:50:19.000Z</time></trkpt><trkpt lon="5.814596" lat="51.26848"><ele>24.6</ele><time>2022-06-05T06:50:20.000Z</time></trkpt><trkpt lon="5.814517" lat="51.268534"><ele>24.4</ele><time>2022-06-05T06:50:21.000Z</time></trkpt><trkpt lon="5.81444" lat="51.268587"><ele>24.4</ele><time>2022-06-05T06:50:22.000Z</time></trkpt><trkpt lon="5.814363" lat="51.26864"><ele>24.4</ele><time>2022-06-05T06:50:23.000Z</time></trkpt><trkpt lon="5.814287" lat="51.268694"><ele>24.4</ele><time>2022-06-05T06:50:24.000Z</time></trkpt><trkpt lon="5.814212" lat="51.268747"><ele>24.4</ele><time>2022-06-05T06:50:25.000Z</time></trkpt><trkpt lon="5.814145" lat="51.268791"><ele>24.4</ele><time>2022-06-05T06:50:26.000Z</time></trkpt><trkpt lon="5.814063" lat="51.26885"><ele>24.4</ele><time>2022-06-05T06:50:27.000Z</time></trkpt><trkpt lon="5.813988" lat="51.2689"><ele>24.4</ele><time>2022-06-05T06:50:28.000Z</time></trkpt><trkpt lon="5.813914" lat="51.268953"><ele>24.6</ele><time>2022-06-05T06:50:29.000Z</time></trkpt><trkpt lon="5.813841" lat="51.269003"><ele>24.6</ele><time>2022-06-05T06:50:30.000Z</time></trkpt><trkpt lon="5.813768" lat="51.269053"><ele>24.6</ele><time>2022-06-05T06:50:31.000Z</time></trkpt><trkpt lon="5.813694" lat="51.269102"><ele>24.6</ele><time>2022-06-05T06:50:32.000Z</time></trkpt><trkpt lon="5.813618" lat="51.269153"><ele>24.4</ele><time>2022-06-05T06:50:33.000Z</time></trkpt><trkpt lon="5.813547" lat="51.269202"><ele>24.4</ele><time>2022-06-05T06:50:34.000Z</time></trkpt><trkpt lon="5.813474" lat="51.269255"><ele>24.4</ele><time>2022-06-05T06:50:35.000Z</time></trkpt><trkpt lon="5.813401" lat="51.269305"><ele>24.4</ele><time>2022-06-05T06:50:36.000Z</time></trkpt><trkpt lon="5.813327" lat="51.269354"><ele>24.2</ele><time>2022-06-05T06:50:37.000Z</time></trkpt><trkpt lon="5.813257" lat="51.269405"><ele>24.2</ele><time>2022-06-05T06:50:38.000Z</time></trkpt><trkpt lon="5.813185" lat="51.269459"><ele>24.2</ele><time>2022-06-05T06:50:39.000Z</time></trkpt><trkpt lon="5.813115" lat="51.269518"><ele>24.2</ele><time>2022-06-05T06:50:40.000Z</time></trkpt><trkpt lon="5.813052" lat="51.269579"><ele>24.2</ele><time>2022-06-05T06:50:41.000Z</time></trkpt><trkpt lon="5.812994" lat="51.26964"><ele>24.2</ele><time>2022-06-05T06:50:42.000Z</time></trkpt><trkpt lon="5.812939" lat="51.269701"><ele>24.4</ele><time>2022-06-05T06:50:43.000Z</time></trkpt><trkpt lon="5.812886" lat="51.269766"><ele>24.4</ele><time>2022-06-05T06:50:44.000Z</time></trkpt><trkpt lon="5.812837" lat="51.269826"><ele>24.4</ele><time>2022-06-05T06:50:45.000Z</time></trkpt><trkpt lon="5.81279" lat="51.269891"><ele>24.4</ele><time>2022-06-05T06:50:46.000Z</time></trkpt><trkpt lon="5.812745" lat="51.26996"><ele>24.2</ele><time>2022-06-05T06:50:47.000Z</time></trkpt><trkpt lon="5.812702" lat="51.270023"><ele>24.2</ele><time>2022-06-05T06:50:48.000Z</time></trkpt><trkpt lon="5.812658" lat="51.270086"><ele>24.2</ele><time>2022-06-05T06:50:49.000Z</time></trkpt><trkpt lon="5.812614" lat="51.270152"><ele>24.2</ele><time>2022-06-05T06:50:50.000Z</time></trkpt><trkpt lon="5.812573" lat="51.270215"><ele>24.2</ele><time>2022-06-05T06:50:51.000Z</time></trkpt><trkpt lon="5.812533" lat="51.270277"><ele>24.2</ele><time>2022-06-05T06:50:52.000Z</time></trkpt><trkpt lon="5.812492" lat="51.270341"><ele>24.2</ele><time>2022-06-05T06:50:53.000Z</time></trkpt><trkpt lon="5.812448" lat="51.270407"><ele>24</ele><time>2022-06-05T06:50:54.000Z</time></trkpt><trkpt lon="5.812405" lat="51.270471"><ele>24</ele><time>2022-06-05T06:50:55.000Z</time></trkpt><trkpt lon="5.812363" lat="51.270537"><ele>24</ele><time>2022-06-05T06:50:56.000Z</time></trkpt><trkpt lon="5.812323" lat="51.2706"><ele>24</ele><time>2022-06-05T06:50:57.000Z</time></trkpt><trkpt lon="5.812279" lat="51.270666"><ele>24</ele><time>2022-06-05T06:50:58.000Z</time></trkpt><trkpt lon="5.81224" lat="51.270728"><ele>24</ele><time>2022-06-05T06:50:59.000Z</time></trkpt><trkpt lon="5.812195" lat="51.270792"><ele>24</ele><time>2022-06-05T06:51:00.000Z</time></trkpt><trkpt lon="5.812154" lat="51.270851"><ele>24</ele><time>2022-06-05T06:51:01.000Z</time></trkpt><trkpt lon="5.812112" lat="51.270917"><ele>24</ele><time>2022-06-05T06:51:02.000Z</time></trkpt><trkpt lon="5.81207" lat="51.270982"><ele>23.8</ele><time>2022-06-05T06:51:03.000Z</time></trkpt><trkpt lon="5.812028" lat="51.271044"><ele>24</ele><time>2022-06-05T06:51:04.000Z</time></trkpt><trkpt lon="5.811984" lat="51.271105"><ele>24</ele><time>2022-06-05T06:51:05.000Z</time></trkpt><trkpt lon="5.811943" lat="51.27117"><ele>24</ele><time>2022-06-05T06:51:06.000Z</time></trkpt><trkpt lon="5.811901" lat="51.271234"><ele>23.8</ele><time>2022-06-05T06:51:07.000Z</time></trkpt><trkpt lon="5.811856" lat="51.271296"><ele>23.8</ele><time>2022-06-05T06:51:08.000Z</time></trkpt><trkpt lon="5.811811" lat="51.271357"><ele>24</ele><time>2022-06-05T06:51:09.000Z</time></trkpt><trkpt lon="5.811766" lat="51.271418"><ele>24</ele><time>2022-06-05T06:51:10.000Z</time></trkpt><trkpt lon="5.811721" lat="51.271479"><ele>24</ele><time>2022-06-05T06:51:11.000Z</time></trkpt><trkpt lon="5.811674" lat="51.271539"><ele>24</ele><time>2022-06-05T06:51:12.000Z</time></trkpt><trkpt lon="5.811617" lat="51.271593"><ele>24</ele><time>2022-06-05T06:51:13.000Z</time></trkpt><trkpt lon="5.811554" lat="51.27165"><ele>24.2</ele><time>2022-06-05T06:51:14.000Z</time></trkpt><trkpt lon="5.811477" lat="51.2717"><ele>24.2</ele><time>2022-06-05T06:51:15.000Z</time></trkpt><trkpt lon="5.811398" lat="51.271747"><ele>24.2</ele><time>2022-06-05T06:51:16.000Z</time></trkpt><trkpt lon="5.811299" lat="51.271792"><ele>24.4</ele><time>2022-06-05T06:51:17.000Z</time></trkpt><trkpt lon="5.811205" lat="51.27183"><ele>24.4</ele><time>2022-06-05T06:51:18.000Z</time></trkpt><trkpt lon="5.81111" lat="51.271871"><ele>24.6</ele><time>2022-06-05T06:51:19.000Z</time></trkpt><trkpt lon="5.81101" lat="51.271914"><ele>24.6</ele><time>2022-06-05T06:51:20.000Z</time></trkpt><trkpt lon="5.810913" lat="51.271952"><ele>24.6</ele><time>2022-06-05T06:51:21.000Z</time></trkpt><trkpt lon="5.810816" lat="51.27199"><ele>24.6</ele><time>2022-06-05T06:51:22.000Z</time></trkpt><trkpt lon="5.810718" lat="51.272029"><ele>24.6</ele><time>2022-06-05T06:51:23.000Z</time></trkpt><trkpt lon="5.810622" lat="51.27207"><ele>24.6</ele><time>2022-06-05T06:51:24.000Z</time></trkpt><trkpt lon="5.810525" lat="51.272109"><ele>24.6</ele><time>2022-06-05T06:51:25.000Z</time></trkpt><trkpt lon="5.810428" lat="51.272147"><ele>24.6</ele><time>2022-06-05T06:51:26.000Z</time></trkpt><trkpt lon="5.810333" lat="51.272185"><ele>24.4</ele><time>2022-06-05T06:51:27.000Z</time></trkpt><trkpt lon="5.810219" lat="51.272231"><ele>24.4</ele><time>2022-06-05T06:51:28.000Z</time></trkpt><trkpt lon="5.810104" lat="51.272276"><ele>24.6</ele><time>2022-06-05T06:51:29.000Z</time></trkpt><trkpt lon="5.809991" lat="51.272322"><ele>24.6</ele><time>2022-06-05T06:51:30.000Z</time></trkpt><trkpt lon="5.809905" lat="51.272359"><ele>24.4</ele><time>2022-06-05T06:51:31.000Z</time></trkpt><trkpt lon="5.809824" lat="51.272395"><ele>24.4</ele><time>2022-06-05T06:51:32.000Z</time></trkpt><trkpt lon="5.809734" lat="51.272433"><ele>24.4</ele><time>2022-06-05T06:51:33.000Z</time></trkpt><trkpt lon="5.809648" lat="51.272468"><ele>24.4</ele><time>2022-06-05T06:51:34.000Z</time></trkpt><trkpt lon="5.809552" lat="51.272506"><ele>24.4</ele><time>2022-06-05T06:51:35.000Z</time></trkpt><trkpt lon="5.809465" lat="51.272543"><ele>24.4</ele><time>2022-06-05T06:51:36.000Z</time></trkpt><trkpt lon="5.809371" lat="51.272582"><ele>24.4</ele><time>2022-06-05T06:51:37.000Z</time></trkpt><trkpt lon="5.809284" lat="51.272619"><ele>24.6</ele><time>2022-06-05T06:51:38.000Z</time></trkpt><trkpt lon="5.809188" lat="51.272658"><ele>24.6</ele><time>2022-06-05T06:51:39.000Z</time></trkpt><trkpt lon="5.809097" lat="51.272696"><ele>24.6</ele><time>2022-06-05T06:51:40.000Z</time></trkpt><trkpt lon="5.809005" lat="51.272731"><ele>24.6</ele><time>2022-06-05T06:51:41.000Z</time></trkpt><trkpt lon="5.808911" lat="51.272769"><ele>24.6</ele><time>2022-06-05T06:51:42.000Z</time></trkpt><trkpt lon="5.808817" lat="51.272807"><ele>24.6</ele><time>2022-06-05T06:51:43.000Z</time></trkpt><trkpt lon="5.808725" lat="51.272842"><ele>24.6</ele><time>2022-06-05T06:51:44.000Z</time></trkpt><trkpt lon="5.808632" lat="51.272876"><ele>24.6</ele><time>2022-06-05T06:51:45.000Z</time></trkpt><trkpt lon="5.80854" lat="51.272913"><ele>24.6</ele><time>2022-06-05T06:51:46.000Z</time></trkpt><trkpt lon="5.808453" lat="51.27295"><ele>24.6</ele><time>2022-06-05T06:51:47.000Z</time></trkpt><trkpt lon="5.808352" lat="51.27299"><ele>24.8</ele><time>2022-06-05T06:51:48.000Z</time></trkpt><trkpt lon="5.808262" lat="51.273027"><ele>24.8</ele><time>2022-06-05T06:51:49.000Z</time></trkpt><trkpt lon="5.808166" lat="51.273066"><ele>24.8</ele><time>2022-06-05T06:51:50.000Z</time></trkpt><trkpt lon="5.808071" lat="51.273101"><ele>24.8</ele><time>2022-06-05T06:51:51.000Z</time></trkpt><trkpt lon="5.807977" lat="51.273143"><ele>24.6</ele><time>2022-06-05T06:51:52.000Z</time></trkpt><trkpt lon="5.807903" lat="51.273174"><ele>24.8</ele><time>2022-06-05T06:51:53.000Z</time></trkpt><trkpt lon="5.807796" lat="51.273218"><ele>24.8</ele><time>2022-06-05T06:51:54.000Z</time></trkpt><trkpt lon="5.807698" lat="51.273257"><ele>24.8</ele><time>2022-06-05T06:51:55.000Z</time></trkpt><trkpt lon="5.807604" lat="51.273298"><ele>24.8</ele><time>2022-06-05T06:51:56.000Z</time></trkpt><trkpt lon="5.807508" lat="51.273337"><ele>24.6</ele><time>2022-06-05T06:51:57.000Z</time></trkpt><trkpt lon="5.807413" lat="51.273375"><ele>24.6</ele><time>2022-06-05T06:51:58.000Z</time></trkpt><trkpt lon="5.807319" lat="51.273414"><ele>24.6</ele><time>2022-06-05T06:51:59.000Z</time></trkpt><trkpt lon="5.807229" lat="51.273447"><ele>24.4</ele><time>2022-06-05T06:52:00.000Z</time></trkpt><trkpt lon="5.807134" lat="51.273486"><ele>24.4</ele><time>2022-06-05T06:52:01.000Z</time></trkpt><trkpt lon="5.807042" lat="51.273524"><ele>24.4</ele><time>2022-06-05T06:52:02.000Z</time></trkpt><trkpt lon="5.806951" lat="51.273562"><ele>24.4</ele><time>2022-06-05T06:52:03.000Z</time></trkpt><trkpt lon="5.806861" lat="51.273599"><ele>24.4</ele><time>2022-06-05T06:52:04.000Z</time></trkpt><trkpt lon="5.806766" lat="51.273639"><ele>24.6</ele><time>2022-06-05T06:52:05.000Z</time></trkpt><trkpt lon="5.806675" lat="51.273676"><ele>24.6</ele><time>2022-06-05T06:52:06.000Z</time></trkpt><trkpt lon="5.80658" lat="51.273711"><ele>24.6</ele><time>2022-06-05T06:52:07.000Z</time></trkpt><trkpt lon="5.806485" lat="51.273749"><ele>24.6</ele><time>2022-06-05T06:52:08.000Z</time></trkpt><trkpt lon="5.806389" lat="51.273787"><ele>24.6</ele><time>2022-06-05T06:52:09.000Z</time></trkpt><trkpt lon="5.806295" lat="51.273825"><ele>24.8</ele><time>2022-06-05T06:52:10.000Z</time></trkpt><trkpt lon="5.806202" lat="51.27386"><ele>24.8</ele><time>2022-06-05T06:52:11.000Z</time></trkpt><trkpt lon="5.806108" lat="51.273898"><ele>24.8</ele><time>2022-06-05T06:52:12.000Z</time></trkpt><trkpt lon="5.806014" lat="51.273936"><ele>24.8</ele><time>2022-06-05T06:52:13.000Z</time></trkpt><trkpt lon="5.80593" lat="51.273972"><ele>24.8</ele><time>2022-06-05T06:52:14.000Z</time></trkpt><trkpt lon="5.805833" lat="51.274012"><ele>24.8</ele><time>2022-06-05T06:52:15.000Z</time></trkpt><trkpt lon="5.805739" lat="51.274047"><ele>24.8</ele><time>2022-06-05T06:52:16.000Z</time></trkpt><trkpt lon="5.805648" lat="51.274081"><ele>24.8</ele><time>2022-06-05T06:52:17.000Z</time></trkpt><trkpt lon="5.805555" lat="51.274115"><ele>24.8</ele><time>2022-06-05T06:52:18.000Z</time></trkpt><trkpt lon="5.805466" lat="51.274154"><ele>24.8</ele><time>2022-06-05T06:52:19.000Z</time></trkpt><trkpt lon="5.80538" lat="51.274191"><ele>24.8</ele><time>2022-06-05T06:52:20.000Z</time></trkpt><trkpt lon="5.805294" lat="51.27423"><ele>25</ele><time>2022-06-05T06:52:21.000Z</time></trkpt><trkpt lon="5.805206" lat="51.274268"><ele>25</ele><time>2022-06-05T06:52:22.000Z</time></trkpt><trkpt lon="5.805118" lat="51.274313"><ele>25</ele><time>2022-06-05T06:52:23.000Z</time></trkpt><trkpt lon="5.805032" lat="51.274359"><ele>25</ele><time>2022-06-05T06:52:24.000Z</time></trkpt><trkpt lon="5.804951" lat="51.274408"><ele>25</ele><time>2022-06-05T06:52:25.000Z</time></trkpt><trkpt lon="5.804871" lat="51.274462"><ele>24.8</ele><time>2022-06-05T06:52:26.000Z</time></trkpt><trkpt lon="5.804797" lat="51.274512"><ele>24.8</ele><time>2022-06-05T06:52:27.000Z</time></trkpt><trkpt lon="5.804724" lat="51.274565"><ele>24.8</ele><time>2022-06-05T06:52:28.000Z</time></trkpt><trkpt lon="5.80465" lat="51.274617"><ele>24.6</ele><time>2022-06-05T06:52:29.000Z</time></trkpt><trkpt lon="5.804573" lat="51.274672"><ele>24.6</ele><time>2022-06-05T06:52:30.000Z</time></trkpt><trkpt lon="5.804499" lat="51.274725"><ele>24.6</ele><time>2022-06-05T06:52:31.000Z</time></trkpt><trkpt lon="5.804425" lat="51.274774"><ele>24.6</ele><time>2022-06-05T06:52:32.000Z</time></trkpt><trkpt lon="5.804351" lat="51.274832"><ele>24.6</ele><time>2022-06-05T06:52:33.000Z</time></trkpt><trkpt lon="5.804274" lat="51.274886"><ele>24.6</ele><time>2022-06-05T06:52:34.000Z</time></trkpt><trkpt lon="5.804199" lat="51.274943"><ele>24.6</ele><time>2022-06-05T06:52:35.000Z</time></trkpt><trkpt lon="5.804123" lat="51.275"><ele>24.6</ele><time>2022-06-05T06:52:36.000Z</time></trkpt><trkpt lon="5.804049" lat="51.275053"><ele>24.6</ele><time>2022-06-05T06:52:37.000Z</time></trkpt><trkpt lon="5.803971" lat="51.275111"><ele>24.6</ele><time>2022-06-05T06:52:38.000Z</time></trkpt><trkpt lon="5.803896" lat="51.275164"><ele>24.6</ele><time>2022-06-05T06:52:39.000Z</time></trkpt><trkpt lon="5.803821" lat="51.275216"><ele>24.4</ele><time>2022-06-05T06:52:40.000Z</time></trkpt><trkpt lon="5.803747" lat="51.275272"><ele>24.6</ele><time>2022-06-05T06:52:41.000Z</time></trkpt><trkpt lon="5.803668" lat="51.275327"><ele>24.4</ele><time>2022-06-05T06:52:42.000Z</time></trkpt><trkpt lon="5.803592" lat="51.275385"><ele>24.4</ele><time>2022-06-05T06:52:43.000Z</time></trkpt><trkpt lon="5.803516" lat="51.275439"><ele>24.4</ele><time>2022-06-05T06:52:44.000Z</time></trkpt><trkpt lon="5.803441" lat="51.275491"><ele>24.4</ele><time>2022-06-05T06:52:45.000Z</time></trkpt><trkpt lon="5.803365" lat="51.275546"><ele>24.4</ele><time>2022-06-05T06:52:46.000Z</time></trkpt><trkpt lon="5.803292" lat="51.275599"><ele>24.4</ele><time>2022-06-05T06:52:47.000Z</time></trkpt><trkpt lon="5.803219" lat="51.275652"><ele>24.4</ele><time>2022-06-05T06:52:48.000Z</time></trkpt><trkpt lon="5.803143" lat="51.27571"><ele>24.4</ele><time>2022-06-05T06:52:49.000Z</time></trkpt><trkpt lon="5.803069" lat="51.275763"><ele>24.4</ele><time>2022-06-05T06:52:50.000Z</time></trkpt><trkpt lon="5.802994" lat="51.275816"><ele>24.6</ele><time>2022-06-05T06:52:51.000Z</time></trkpt><trkpt lon="5.802919" lat="51.275873"><ele>24.4</ele><time>2022-06-05T06:52:52.000Z</time></trkpt><trkpt lon="5.802848" lat="51.275923"><ele>24.6</ele><time>2022-06-05T06:52:53.000Z</time></trkpt><trkpt lon="5.802771" lat="51.275978"><ele>24.6</ele><time>2022-06-05T06:52:54.000Z</time></trkpt><trkpt lon="5.802694" lat="51.276029"><ele>24.6</ele><time>2022-06-05T06:52:55.000Z</time></trkpt><trkpt lon="5.802618" lat="51.276084"><ele>24.6</ele><time>2022-06-05T06:52:56.000Z</time></trkpt><trkpt lon="5.802545" lat="51.27614"><ele>24.6</ele><time>2022-06-05T06:52:57.000Z</time></trkpt><trkpt lon="5.802472" lat="51.276193"><ele>24.6</ele><time>2022-06-05T06:52:58.000Z</time></trkpt><trkpt lon="5.802396" lat="51.276247"><ele>24.6</ele><time>2022-06-05T06:52:59.000Z</time></trkpt><trkpt lon="5.802319" lat="51.276301"><ele>24.6</ele><time>2022-06-05T06:53:00.000Z</time></trkpt><trkpt lon="5.802245" lat="51.276354"><ele>24.6</ele><time>2022-06-05T06:53:01.000Z</time></trkpt><trkpt lon="5.802168" lat="51.276408"><ele>24.6</ele><time>2022-06-05T06:53:02.000Z</time></trkpt><trkpt lon="5.802097" lat="51.276459"><ele>24.6</ele><time>2022-06-05T06:53:03.000Z</time></trkpt><trkpt lon="5.802022" lat="51.276517"><ele>24.6</ele><time>2022-06-05T06:53:04.000Z</time></trkpt><trkpt lon="5.80195" lat="51.276571"><ele>24.6</ele><time>2022-06-05T06:53:05.000Z</time></trkpt><trkpt lon="5.801875" lat="51.276624"><ele>24.6</ele><time>2022-06-05T06:53:06.000Z</time></trkpt><trkpt lon="5.8018" lat="51.276678"><ele>24.6</ele><time>2022-06-05T06:53:07.000Z</time></trkpt><trkpt lon="5.801728" lat="51.276727"><ele>24.6</ele><time>2022-06-05T06:53:08.000Z</time></trkpt><trkpt lon="5.801649" lat="51.276782"><ele>24.6</ele><time>2022-06-05T06:53:09.000Z</time></trkpt><trkpt lon="5.801578" lat="51.276838"><ele>24.6</ele><time>2022-06-05T06:53:10.000Z</time></trkpt><trkpt lon="5.801502" lat="51.276888"><ele>24.6</ele><time>2022-06-05T06:53:11.000Z</time></trkpt><trkpt lon="5.801429" lat="51.276942"><ele>24.6</ele><time>2022-06-05T06:53:12.000Z</time></trkpt><trkpt lon="5.801352" lat="51.276995"><ele>24.4</ele><time>2022-06-05T06:53:13.000Z</time></trkpt><trkpt lon="5.801278" lat="51.277049"><ele>24.4</ele><time>2022-06-05T06:53:14.000Z</time></trkpt><trkpt lon="5.801208" lat="51.2771"><ele>24.4</ele><time>2022-06-05T06:53:15.000Z</time></trkpt><trkpt lon="5.801132" lat="51.277152"><ele>24.4</ele><time>2022-06-05T06:53:16.000Z</time></trkpt><trkpt lon="5.80106" lat="51.277204"><ele>24.4</ele><time>2022-06-05T06:53:17.000Z</time></trkpt><trkpt lon="5.800987" lat="51.277257"><ele>24.4</ele><time>2022-06-05T06:53:18.000Z</time></trkpt><trkpt lon="5.800912" lat="51.277312"><ele>24.4</ele><time>2022-06-05T06:53:19.000Z</time></trkpt><trkpt lon="5.800835" lat="51.277365"><ele>24.4</ele><time>2022-06-05T06:53:20.000Z</time></trkpt><trkpt lon="5.800757" lat="51.277419"><ele>24.4</ele><time>2022-06-05T06:53:21.000Z</time></trkpt><trkpt lon="5.800685" lat="51.27747"><ele>24.2</ele><time>2022-06-05T06:53:22.000Z</time></trkpt><trkpt lon="5.800607" lat="51.277525"><ele>24.2</ele><time>2022-06-05T06:53:23.000Z</time></trkpt><trkpt lon="5.800535" lat="51.277578"><ele>24</ele><time>2022-06-05T06:53:24.000Z</time></trkpt><trkpt lon="5.800457" lat="51.277632"><ele>24</ele><time>2022-06-05T06:53:25.000Z</time></trkpt><trkpt lon="5.800381" lat="51.277689"><ele>24.2</ele><time>2022-06-05T06:53:26.000Z</time></trkpt><trkpt lon="5.800304" lat="51.277742"><ele>24.2</ele><time>2022-06-05T06:53:27.000Z</time></trkpt><trkpt lon="5.800233" lat="51.277799"><ele>24.2</ele><time>2022-06-05T06:53:28.000Z</time></trkpt><trkpt lon="5.800158" lat="51.277854"><ele>24.2</ele><time>2022-06-05T06:53:29.000Z</time></trkpt><trkpt lon="5.800088" lat="51.277906"><ele>24.2</ele><time>2022-06-05T06:53:30.000Z</time></trkpt><trkpt lon="5.800014" lat="51.27796"><ele>24.2</ele><time>2022-06-05T06:53:31.000Z</time></trkpt><trkpt lon="5.79994" lat="51.278014"><ele>24.2</ele><time>2022-06-05T06:53:32.000Z</time></trkpt><trkpt lon="5.799865" lat="51.278067"><ele>24.2</ele><time>2022-06-05T06:53:33.000Z</time></trkpt><trkpt lon="5.799794" lat="51.278116"><ele>24.2</ele><time>2022-06-05T06:53:34.000Z</time></trkpt><trkpt lon="5.799723" lat="51.278169"><ele>24.2</ele><time>2022-06-05T06:53:35.000Z</time></trkpt><trkpt lon="5.799654" lat="51.278223"><ele>24</ele><time>2022-06-05T06:53:36.000Z</time></trkpt><trkpt lon="5.799594" lat="51.27828"><ele>23.8</ele><time>2022-06-05T06:53:37.000Z</time></trkpt><trkpt lon="5.799542" lat="51.278337"><ele>23.8</ele><time>2022-06-05T06:53:38.000Z</time></trkpt><trkpt lon="5.799501" lat="51.278395"><ele>23.8</ele><time>2022-06-05T06:53:39.000Z</time></trkpt><trkpt lon="5.799466" lat="51.278459"><ele>24</ele><time>2022-06-05T06:53:40.000Z</time></trkpt><trkpt lon="5.799435" lat="51.278523"><ele>24</ele><time>2022-06-05T06:53:41.000Z</time></trkpt><trkpt lon="5.799404" lat="51.278589"><ele>24</ele><time>2022-06-05T06:53:42.000Z</time></trkpt><trkpt lon="5.799376" lat="51.278659"><ele>23.8</ele><time>2022-06-05T06:53:43.000Z</time></trkpt><trkpt lon="5.799344" lat="51.278726"><ele>23.8</ele><time>2022-06-05T06:53:44.000Z</time></trkpt><trkpt lon="5.799313" lat="51.278795"><ele>23.8</ele><time>2022-06-05T06:53:45.000Z</time></trkpt><trkpt lon="5.799283" lat="51.278859"><ele>23.8</ele><time>2022-06-05T06:53:46.000Z</time></trkpt><trkpt lon="5.799249" lat="51.278933"><ele>23.8</ele><time>2022-06-05T06:53:47.000Z</time></trkpt><trkpt lon="5.799218" lat="51.279"><ele>23.8</ele><time>2022-06-05T06:53:48.000Z</time></trkpt><trkpt lon="5.799188" lat="51.279068"><ele>23.8</ele><time>2022-06-05T06:53:49.000Z</time></trkpt><trkpt lon="5.799158" lat="51.279138"><ele>23.6</ele><time>2022-06-05T06:53:50.000Z</time></trkpt><trkpt lon="5.799124" lat="51.279203"><ele>23.6</ele><time>2022-06-05T06:53:51.000Z</time></trkpt><trkpt lon="5.799091" lat="51.279268"><ele>23.6</ele><time>2022-06-05T06:53:52.000Z</time></trkpt><trkpt lon="5.799059" lat="51.279335"><ele>23.6</ele><time>2022-06-05T06:53:53.000Z</time></trkpt><trkpt lon="5.799028" lat="51.279401"><ele>23.6</ele><time>2022-06-05T06:53:54.000Z</time></trkpt><trkpt lon="5.798997" lat="51.279473"><ele>23.6</ele><time>2022-06-05T06:53:55.000Z</time></trkpt><trkpt lon="5.798963" lat="51.279539"><ele>23.6</ele><time>2022-06-05T06:53:56.000Z</time></trkpt><trkpt lon="5.798929" lat="51.279608"><ele>23.6</ele><time>2022-06-05T06:53:57.000Z</time></trkpt><trkpt lon="5.7989" lat="51.279662"><ele>23.6</ele><time>2022-06-05T06:53:58.000Z</time></trkpt><trkpt lon="5.798864" lat="51.279738"><ele>23.6</ele><time>2022-06-05T06:53:59.000Z</time></trkpt><trkpt lon="5.79883" lat="51.279807"><ele>23.6</ele><time>2022-06-05T06:54:00.000Z</time></trkpt><trkpt lon="5.798796" lat="51.279874"><ele>23.6</ele><time>2022-06-05T06:54:01.000Z</time></trkpt><trkpt lon="5.798762" lat="51.279938"><ele>23.4</ele><time>2022-06-05T06:54:02.000Z</time></trkpt><trkpt lon="5.798726" lat="51.280009"><ele>23.4</ele><time>2022-06-05T06:54:03.000Z</time></trkpt><trkpt lon="5.798689" lat="51.280074"><ele>23.6</ele><time>2022-06-05T06:54:04.000Z</time></trkpt><trkpt lon="5.798653" lat="51.280138"><ele>23.6</ele><time>2022-06-05T06:54:05.000Z</time></trkpt><trkpt lon="5.798618" lat="51.280203"><ele>23.8</ele><time>2022-06-05T06:54:06.000Z</time></trkpt><trkpt lon="5.798583" lat="51.280271"><ele>23.8</ele><time>2022-06-05T06:54:07.000Z</time></trkpt><trkpt lon="5.798549" lat="51.280334"><ele>23.8</ele><time>2022-06-05T06:54:08.000Z</time></trkpt><trkpt lon="5.798514" lat="51.280401"><ele>24</ele><time>2022-06-05T06:54:09.000Z</time></trkpt><trkpt lon="5.798481" lat="51.28047"><ele>24</ele><time>2022-06-05T06:54:10.000Z</time></trkpt><trkpt lon="5.798448" lat="51.280535"><ele>24.2</ele><time>2022-06-05T06:54:11.000Z</time></trkpt><trkpt lon="5.798414" lat="51.2806"><ele>24.2</ele><time>2022-06-05T06:54:12.000Z</time></trkpt><trkpt lon="5.798379" lat="51.280668"><ele>24.2</ele><time>2022-06-05T06:54:13.000Z</time></trkpt><trkpt lon="5.798349" lat="51.280733"><ele>24.2</ele><time>2022-06-05T06:54:14.000Z</time></trkpt><trkpt lon="5.798319" lat="51.280802"><ele>24.2</ele><time>2022-06-05T06:54:15.000Z</time></trkpt><trkpt lon="5.798286" lat="51.280867"><ele>24.2</ele><time>2022-06-05T06:54:16.000Z</time></trkpt><trkpt lon="5.798255" lat="51.280934"><ele>24.4</ele><time>2022-06-05T06:54:17.000Z</time></trkpt><trkpt lon="5.798225" lat="51.281"><ele>24.4</ele><time>2022-06-05T06:54:18.000Z</time></trkpt><trkpt lon="5.798191" lat="51.281069"><ele>24.4</ele><time>2022-06-05T06:54:19.000Z</time></trkpt><trkpt lon="5.798159" lat="51.281137"><ele>24.4</ele><time>2022-06-05T06:54:20.000Z</time></trkpt><trkpt lon="5.798129" lat="51.281202"><ele>24.4</ele><time>2022-06-05T06:54:21.000Z</time></trkpt><trkpt lon="5.7981" lat="51.28127"><ele>24.4</ele><time>2022-06-05T06:54:22.000Z</time></trkpt><trkpt lon="5.79807" lat="51.281339"><ele>24.4</ele><time>2022-06-05T06:54:23.000Z</time></trkpt><trkpt lon="5.798038" lat="51.2814"><ele>24.4</ele><time>2022-06-05T06:54:24.000Z</time></trkpt><trkpt lon="5.798005" lat="51.281469"><ele>24.4</ele><time>2022-06-05T06:54:25.000Z</time></trkpt><trkpt lon="5.797966" lat="51.281538"><ele>24.4</ele><time>2022-06-05T06:54:26.000Z</time></trkpt><trkpt lon="5.79793" lat="51.281605"><ele>24.4</ele><time>2022-06-05T06:54:27.000Z</time></trkpt><trkpt lon="5.797896" lat="51.281675"><ele>24.4</ele><time>2022-06-05T06:54:28.000Z</time></trkpt><trkpt lon="5.797865" lat="51.281743"><ele>24.6</ele><time>2022-06-05T06:54:29.000Z</time></trkpt><trkpt lon="5.797835" lat="51.281811"><ele>24.6</ele><time>2022-06-05T06:54:30.000Z</time></trkpt><trkpt lon="5.797805" lat="51.281879"><ele>24.6</ele><time>2022-06-05T06:54:31.000Z</time></trkpt><trkpt lon="5.797774" lat="51.28195"><ele>24.6</ele><time>2022-06-05T06:54:32.000Z</time></trkpt><trkpt lon="5.797744" lat="51.282015"><ele>24.6</ele><time>2022-06-05T06:54:33.000Z</time></trkpt><trkpt lon="5.797713" lat="51.282079"><ele>24.6</ele><time>2022-06-05T06:54:34.000Z</time></trkpt><trkpt lon="5.797683" lat="51.282145"><ele>24.6</ele><time>2022-06-05T06:54:35.000Z</time></trkpt><trkpt lon="5.797651" lat="51.282213"><ele>24.6</ele><time>2022-06-05T06:54:36.000Z</time></trkpt><trkpt lon="5.797621" lat="51.282278"><ele>24.6</ele><time>2022-06-05T06:54:37.000Z</time></trkpt><trkpt lon="5.79759" lat="51.282337"><ele>24.6</ele><time>2022-06-05T06:54:38.000Z</time></trkpt><trkpt lon="5.797558" lat="51.282404"><ele>24.6</ele><time>2022-06-05T06:54:39.000Z</time></trkpt><trkpt lon="5.797528" lat="51.282468"><ele>24.6</ele><time>2022-06-05T06:54:40.000Z</time></trkpt><trkpt lon="5.797498" lat="51.282534"><ele>24.4</ele><time>2022-06-05T06:54:41.000Z</time></trkpt><trkpt lon="5.797469" lat="51.282598"><ele>24.4</ele><time>2022-06-05T06:54:42.000Z</time></trkpt><trkpt lon="5.797436" lat="51.28266"><ele>24.4</ele><time>2022-06-05T06:54:43.000Z</time></trkpt><trkpt lon="5.797406" lat="51.282728"><ele>24.4</ele><time>2022-06-05T06:54:44.000Z</time></trkpt><trkpt lon="5.797378" lat="51.282792"><ele>24.4</ele><time>2022-06-05T06:54:45.000Z</time></trkpt><trkpt lon="5.797344" lat="51.282858"><ele>24.4</ele><time>2022-06-05T06:54:46.000Z</time></trkpt><trkpt lon="5.797313" lat="51.282922"><ele>24.4</ele><time>2022-06-05T06:54:47.000Z</time></trkpt><trkpt lon="5.79728" lat="51.282991"><ele>24.4</ele><time>2022-06-05T06:54:48.000Z</time></trkpt><trkpt lon="5.797247" lat="51.283055"><ele>24.4</ele><time>2022-06-05T06:54:49.000Z</time></trkpt><trkpt lon="5.797214" lat="51.283121"><ele>24.4</ele><time>2022-06-05T06:54:50.000Z</time></trkpt><trkpt lon="5.797181" lat="51.283186"><ele>24.4</ele><time>2022-06-05T06:54:51.000Z</time></trkpt><trkpt lon="5.797148" lat="51.283251"><ele>24.6</ele><time>2022-06-05T06:54:52.000Z</time></trkpt><trkpt lon="5.797116" lat="51.283322"><ele>24.6</ele><time>2022-06-05T06:54:53.000Z</time></trkpt><trkpt lon="5.797083" lat="51.283387"><ele>24.8</ele><time>2022-06-05T06:54:54.000Z</time></trkpt><trkpt lon="5.797048" lat="51.283461"><ele>25</ele><time>2022-06-05T06:54:55.000Z</time></trkpt><trkpt lon="5.797012" lat="51.283531"><ele>25</ele><time>2022-06-05T06:54:56.000Z</time></trkpt><trkpt lon="5.796971" lat="51.283602"><ele>25</ele><time>2022-06-05T06:54:57.000Z</time></trkpt><trkpt lon="5.796936" lat="51.283677"><ele>24.8</ele><time>2022-06-05T06:54:58.000Z</time></trkpt><trkpt lon="5.796904" lat="51.28375"><ele>24.6</ele><time>2022-06-05T06:54:59.000Z</time></trkpt><trkpt lon="5.796874" lat="51.283823"><ele>24.6</ele><time>2022-06-05T06:55:00.000Z</time></trkpt><trkpt lon="5.796843" lat="51.283895"><ele>24.6</ele><time>2022-06-05T06:55:01.000Z</time></trkpt><trkpt lon="5.796809" lat="51.283961"><ele>24.6</ele><time>2022-06-05T06:55:02.000Z</time></trkpt><trkpt lon="5.79678" lat="51.284026"><ele>24.6</ele><time>2022-06-05T06:55:03.000Z</time></trkpt><trkpt lon="5.796749" lat="51.284094"><ele>24.6</ele><time>2022-06-05T06:55:04.000Z</time></trkpt><trkpt lon="5.796719" lat="51.284158"><ele>24.6</ele><time>2022-06-05T06:55:05.000Z</time></trkpt><trkpt lon="5.79669" lat="51.28422"><ele>24.6</ele><time>2022-06-05T06:55:06.000Z</time></trkpt><trkpt lon="5.796664" lat="51.284284"><ele>24.6</ele><time>2022-06-05T06:55:07.000Z</time></trkpt><trkpt lon="5.796643" lat="51.284337"><ele>24.8</ele><time>2022-06-05T06:55:08.000Z</time></trkpt><trkpt lon="5.796613" lat="51.284392"><ele>25</ele><time>2022-06-05T06:55:09.000Z</time></trkpt><trkpt lon="5.796578" lat="51.284428"><ele>25.2</ele><time>2022-06-05T06:55:10.000Z</time></trkpt><trkpt lon="5.796527" lat="51.284465"><ele>25.2</ele><time>2022-06-05T06:55:11.000Z</time></trkpt><trkpt lon="5.796462" lat="51.284491"><ele>25.4</ele><time>2022-06-05T06:55:12.000Z</time></trkpt><trkpt lon="5.796377" lat="51.284504"><ele>25.6</ele><time>2022-06-05T06:55:13.000Z</time></trkpt><trkpt lon="5.796289" lat="51.284497"><ele>25.8</ele><time>2022-06-05T06:55:14.000Z</time></trkpt><trkpt lon="5.796186" lat="51.284478"><ele>25.6</ele><time>2022-06-05T06:55:15.000Z</time></trkpt><trkpt lon="5.796084" lat="51.284451"><ele>25.6</ele><time>2022-06-05T06:55:16.000Z</time></trkpt><trkpt lon="5.795984" lat="51.284429"><ele>25.4</ele><time>2022-06-05T06:55:17.000Z</time></trkpt><trkpt lon="5.795879" lat="51.284398"><ele>25.4</ele><time>2022-06-05T06:55:18.000Z</time></trkpt><trkpt lon="5.79578" lat="51.284373"><ele>25.2</ele><time>2022-06-05T06:55:19.000Z</time></trkpt><trkpt lon="5.795674" lat="51.284341"><ele>25</ele><time>2022-06-05T06:55:20.000Z</time></trkpt><trkpt lon="5.795574" lat="51.284314"><ele>25</ele><time>2022-06-05T06:55:21.000Z</time></trkpt><trkpt lon="5.795471" lat="51.284288"><ele>25.2</ele><time>2022-06-05T06:55:22.000Z</time></trkpt><trkpt lon="5.795369" lat="51.284253"><ele>25</ele><time>2022-06-05T06:55:23.000Z</time></trkpt><trkpt lon="5.795269" lat="51.284223"><ele>25</ele><time>2022-06-05T06:55:24.000Z</time></trkpt><trkpt lon="5.795168" lat="51.284192"><ele>25</ele><time>2022-06-05T06:55:25.000Z</time></trkpt><trkpt lon="5.795068" lat="51.284165"><ele>25</ele><time>2022-06-05T06:55:26.000Z</time></trkpt><trkpt lon="5.794966" lat="51.284135"><ele>25</ele><time>2022-06-05T06:55:27.000Z</time></trkpt><trkpt lon="5.794865" lat="51.284108"><ele>25.2</ele><time>2022-06-05T06:55:28.000Z</time></trkpt><trkpt lon="5.794767" lat="51.284082"><ele>25.2</ele><time>2022-06-05T06:55:29.000Z</time></trkpt><trkpt lon="5.794667" lat="51.284055"><ele>25.4</ele><time>2022-06-05T06:55:30.000Z</time></trkpt><trkpt lon="5.794566" lat="51.284028"><ele>25.4</ele><time>2022-06-05T06:55:31.000Z</time></trkpt><trkpt lon="5.794461" lat="51.283998"><ele>25.4</ele><time>2022-06-05T06:55:32.000Z</time></trkpt><trkpt lon="5.794356" lat="51.283971"><ele>25.4</ele><time>2022-06-05T06:55:33.000Z</time></trkpt><trkpt lon="5.794252" lat="51.283945"><ele>25.4</ele><time>2022-06-05T06:55:34.000Z</time></trkpt><trkpt lon="5.794146" lat="51.283917"><ele>25.4</ele><time>2022-06-05T06:55:35.000Z</time></trkpt><trkpt lon="5.794047" lat="51.283887"><ele>25.4</ele><time>2022-06-05T06:55:36.000Z</time></trkpt><trkpt lon="5.793949" lat="51.28386"><ele>25.4</ele><time>2022-06-05T06:55:37.000Z</time></trkpt><trkpt lon="5.793853" lat="51.283834"><ele>25.2</ele><time>2022-06-05T06:55:38.000Z</time></trkpt><trkpt lon="5.793755" lat="51.283811"><ele>25.4</ele><time>2022-06-05T06:55:39.000Z</time></trkpt><trkpt lon="5.793657" lat="51.283784"><ele>25.4</ele><time>2022-06-05T06:55:40.000Z</time></trkpt><trkpt lon="5.793561" lat="51.283758"><ele>25.4</ele><time>2022-06-05T06:55:41.000Z</time></trkpt><trkpt lon="5.793458" lat="51.28373"><ele>25.4</ele><time>2022-06-05T06:55:42.000Z</time></trkpt><trkpt lon="5.793354" lat="51.283696"><ele>25.4</ele><time>2022-06-05T06:55:43.000Z</time></trkpt><trkpt lon="5.793247" lat="51.283669"><ele>25.2</ele><time>2022-06-05T06:55:44.000Z</time></trkpt><trkpt lon="5.793159" lat="51.283643"><ele>25.2</ele><time>2022-06-05T06:55:45.000Z</time></trkpt><trkpt lon="5.793038" lat="51.283609"><ele>25.2</ele><time>2022-06-05T06:55:46.000Z</time></trkpt><trkpt lon="5.792931" lat="51.283578"><ele>25.2</ele><time>2022-06-05T06:55:47.000Z</time></trkpt><trkpt lon="5.792826" lat="51.283551"><ele>25</ele><time>2022-06-05T06:55:48.000Z</time></trkpt><trkpt lon="5.792722" lat="51.283521"><ele>25</ele><time>2022-06-05T06:55:49.000Z</time></trkpt><trkpt lon="5.792612" lat="51.28349"><ele>25</ele><time>2022-06-05T06:55:50.000Z</time></trkpt><trkpt lon="5.792506" lat="51.283459"><ele>25</ele><time>2022-06-05T06:55:51.000Z</time></trkpt><trkpt lon="5.792402" lat="51.283433"><ele>25</ele><time>2022-06-05T06:55:52.000Z</time></trkpt><trkpt lon="5.792318" lat="51.283409"><ele>24.8</ele><time>2022-06-05T06:55:53.000Z</time></trkpt><trkpt lon="5.792194" lat="51.283373"><ele>24.8</ele><time>2022-06-05T06:55:54.000Z</time></trkpt><trkpt lon="5.792082" lat="51.283345"><ele>24.6</ele><time>2022-06-05T06:55:55.000Z</time></trkpt><trkpt lon="5.791974" lat="51.283315"><ele>24.6</ele><time>2022-06-05T06:55:56.000Z</time></trkpt><trkpt lon="5.791861" lat="51.283284"><ele>24.6</ele><time>2022-06-05T06:55:57.000Z</time></trkpt><trkpt lon="5.791752" lat="51.283257"><ele>24.6</ele><time>2022-06-05T06:55:58.000Z</time></trkpt><trkpt lon="5.791641" lat="51.283231"><ele>24.6</ele><time>2022-06-05T06:55:59.000Z</time></trkpt><trkpt lon="5.791534" lat="51.283205"><ele>24.6</ele><time>2022-06-05T06:56:00.000Z</time></trkpt><trkpt lon="5.791429" lat="51.283176"><ele>24.6</ele><time>2022-06-05T06:56:01.000Z</time></trkpt><trkpt lon="5.791308" lat="51.283147"><ele>24.6</ele><time>2022-06-05T06:56:02.000Z</time></trkpt><trkpt lon="5.7912" lat="51.283124"><ele>24.6</ele><time>2022-06-05T06:56:03.000Z</time></trkpt><trkpt lon="5.791089" lat="51.283101"><ele>24.6</ele><time>2022-06-05T06:56:04.000Z</time></trkpt><trkpt lon="5.790984" lat="51.283082"><ele>24.6</ele><time>2022-06-05T06:56:05.000Z</time></trkpt><trkpt lon="5.790874" lat="51.283059"><ele>24.4</ele><time>2022-06-05T06:56:06.000Z</time></trkpt><trkpt lon="5.790765" lat="51.28304"><ele>24.4</ele><time>2022-06-05T06:56:07.000Z</time></trkpt><trkpt lon="5.790661" lat="51.283021"><ele>24.2</ele><time>2022-06-05T06:56:08.000Z</time></trkpt><trkpt lon="5.790557" lat="51.283005"><ele>24</ele><time>2022-06-05T06:56:09.000Z</time></trkpt><trkpt lon="5.790465" lat="51.282991"><ele>24</ele><time>2022-06-05T06:56:10.000Z</time></trkpt><trkpt lon="5.790369" lat="51.282978"><ele>24</ele><time>2022-06-05T06:56:11.000Z</time></trkpt><trkpt lon="5.790285" lat="51.282978"><ele>24</ele><time>2022-06-05T06:56:12.000Z</time></trkpt><trkpt lon="5.790199" lat="51.283"><ele>23.8</ele><time>2022-06-05T06:56:13.000Z</time></trkpt><trkpt lon="5.790132" lat="51.283042"><ele>23.8</ele><time>2022-06-05T06:56:14.000Z</time></trkpt><trkpt lon="5.790079" lat="51.283094"><ele>23.8</ele><time>2022-06-05T06:56:15.000Z</time></trkpt><trkpt lon="5.790033" lat="51.283152"><ele>23.8</ele><time>2022-06-05T06:56:16.000Z</time></trkpt><trkpt lon="5.789987" lat="51.283215"><ele>23.8</ele><time>2022-06-05T06:56:17.000Z</time></trkpt><trkpt lon="5.789938" lat="51.283281"><ele>23.8</ele><time>2022-06-05T06:56:18.000Z</time></trkpt><trkpt lon="5.789887" lat="51.283346"><ele>24</ele><time>2022-06-05T06:56:19.000Z</time></trkpt><trkpt lon="5.789836" lat="51.283412"><ele>24</ele><time>2022-06-05T06:56:20.000Z</time></trkpt><trkpt lon="5.789785" lat="51.283476"><ele>24</ele><time>2022-06-05T06:56:21.000Z</time></trkpt><trkpt lon="5.789733" lat="51.28354"><ele>24</ele><time>2022-06-05T06:56:22.000Z</time></trkpt><trkpt lon="5.789683" lat="51.283605"><ele>23.8</ele><time>2022-06-05T06:56:23.000Z</time></trkpt><trkpt lon="5.789631" lat="51.283671"><ele>23.8</ele><time>2022-06-05T06:56:24.000Z</time></trkpt><trkpt lon="5.789587" lat="51.283727"><ele>23.8</ele><time>2022-06-05T06:56:25.000Z</time></trkpt><trkpt lon="5.78953" lat="51.283796"><ele>23.8</ele><time>2022-06-05T06:56:26.000Z</time></trkpt><trkpt lon="5.789475" lat="51.283854"><ele>23.8</ele><time>2022-06-05T06:56:27.000Z</time></trkpt><trkpt lon="5.789421" lat="51.283919"><ele>24</ele><time>2022-06-05T06:56:28.000Z</time></trkpt><trkpt lon="5.78937" lat="51.283979"><ele>24</ele><time>2022-06-05T06:56:29.000Z</time></trkpt><trkpt lon="5.789317" lat="51.284044"><ele>24</ele><time>2022-06-05T06:56:30.000Z</time></trkpt><trkpt lon="5.789262" lat="51.284105"><ele>24</ele><time>2022-06-05T06:56:31.000Z</time></trkpt><trkpt lon="5.789208" lat="51.284165"><ele>24.2</ele><time>2022-06-05T06:56:32.000Z</time></trkpt><trkpt lon="5.789154" lat="51.284231"><ele>24.2</ele><time>2022-06-05T06:56:33.000Z</time></trkpt><trkpt lon="5.789104" lat="51.284286"><ele>24.2</ele><time>2022-06-05T06:56:34.000Z</time></trkpt><trkpt lon="5.789046" lat="51.284357"><ele>24</ele><time>2022-06-05T06:56:35.000Z</time></trkpt><trkpt lon="5.788991" lat="51.284418"><ele>24</ele><time>2022-06-05T06:56:36.000Z</time></trkpt><trkpt lon="5.788937" lat="51.284481"><ele>24.2</ele><time>2022-06-05T06:56:37.000Z</time></trkpt><trkpt lon="5.788891" lat="51.284532"><ele>24.2</ele><time>2022-06-05T06:56:38.000Z</time></trkpt><trkpt lon="5.788828" lat="51.284605"><ele>24.4</ele><time>2022-06-05T06:56:39.000Z</time></trkpt><trkpt lon="5.788772" lat="51.284672"><ele>24.2</ele><time>2022-06-05T06:56:40.000Z</time></trkpt><trkpt lon="5.788716" lat="51.284738"><ele>24.2</ele><time>2022-06-05T06:56:41.000Z</time></trkpt><trkpt lon="5.788661" lat="51.284804"><ele>24.2</ele><time>2022-06-05T06:56:42.000Z</time></trkpt><trkpt lon="5.788606" lat="51.284868"><ele>24.4</ele><time>2022-06-05T06:56:43.000Z</time></trkpt><trkpt lon="5.788551" lat="51.28493"><ele>24.4</ele><time>2022-06-05T06:56:44.000Z</time></trkpt><trkpt lon="5.788498" lat="51.284995"><ele>24.4</ele><time>2022-06-05T06:56:45.000Z</time></trkpt><trkpt lon="5.788443" lat="51.285055"><ele>24.4</ele><time>2022-06-05T06:56:46.000Z</time></trkpt><trkpt lon="5.78839" lat="51.28512"><ele>24.4</ele><time>2022-06-05T06:56:47.000Z</time></trkpt><trkpt lon="5.788336" lat="51.285181"><ele>24.4</ele><time>2022-06-05T06:56:48.000Z</time></trkpt><trkpt lon="5.788285" lat="51.285244"><ele>24.4</ele><time>2022-06-05T06:56:49.000Z</time></trkpt><trkpt lon="5.788228" lat="51.285307"><ele>24.4</ele><time>2022-06-05T06:56:50.000Z</time></trkpt><trkpt lon="5.788173" lat="51.285368"><ele>24.4</ele><time>2022-06-05T06:56:51.000Z</time></trkpt><trkpt lon="5.788121" lat="51.285428"><ele>24.4</ele><time>2022-06-05T06:56:52.000Z</time></trkpt><trkpt lon="5.788066" lat="51.28549"><ele>24.4</ele><time>2022-06-05T06:56:53.000Z</time></trkpt><trkpt lon="5.788015" lat="51.285552"><ele>24.4</ele><time>2022-06-05T06:56:54.000Z</time></trkpt><trkpt lon="5.78796" lat="51.285616"><ele>24.6</ele><time>2022-06-05T06:56:55.000Z</time></trkpt><trkpt lon="5.787907" lat="51.285673"><ele>24.6</ele><time>2022-06-05T06:56:56.000Z</time></trkpt><trkpt lon="5.787854" lat="51.285735"><ele>24.6</ele><time>2022-06-05T06:56:57.000Z</time></trkpt><trkpt lon="5.787807" lat="51.285789"><ele>24.8</ele><time>2022-06-05T06:56:58.000Z</time></trkpt><trkpt lon="5.787756" lat="51.285849"><ele>25</ele><time>2022-06-05T06:56:59.000Z</time></trkpt><trkpt lon="5.787708" lat="51.28591"><ele>25</ele><time>2022-06-05T06:57:00.000Z</time></trkpt><trkpt lon="5.78766" lat="51.285963"><ele>25.2</ele><time>2022-06-05T06:57:01.000Z</time></trkpt><trkpt lon="5.787614" lat="51.286016"><ele>25.4</ele><time>2022-06-05T06:57:02.000Z</time></trkpt><trkpt lon="5.787563" lat="51.286076"><ele>25.6</ele><time>2022-06-05T06:57:03.000Z</time></trkpt><trkpt lon="5.787515" lat="51.286126"><ele>25.8</ele><time>2022-06-05T06:57:04.000Z</time></trkpt><trkpt lon="5.787469" lat="51.286176"><ele>26</ele><time>2022-06-05T06:57:05.000Z</time></trkpt><trkpt lon="5.787434" lat="51.286216"><ele>26.2</ele><time>2022-06-05T06:57:06.000Z</time></trkpt><trkpt lon="5.787401" lat="51.286254"><ele>26.4</ele><time>2022-06-05T06:57:07.000Z</time></trkpt><trkpt lon="5.787376" lat="51.286284"><ele>26.6</ele><time>2022-06-05T06:57:08.000Z</time></trkpt><trkpt lon="5.787359" lat="51.286307"><ele>26.8</ele><time>2022-06-05T06:57:09.000Z</time></trkpt><trkpt lon="5.787345" lat="51.286327"><ele>27</ele><time>2022-06-05T06:57:10.000Z</time></trkpt><trkpt lon="5.787337" lat="51.286346"><ele>27</ele><time>2022-06-05T06:57:11.000Z</time></trkpt><trkpt lon="5.787325" lat="51.286357"><ele>27.2</ele><time>2022-06-05T06:57:12.000Z</time></trkpt><trkpt lon="5.787317" lat="51.286369"><ele>27.2</ele><time>2022-06-05T06:57:13.000Z</time></trkpt><trkpt lon="5.787309" lat="51.286377"><ele>27.2</ele><time>2022-06-05T06:57:14.000Z</time></trkpt><trkpt lon="5.787302" lat="51.286384"><ele>27.2</ele><time>2022-06-05T06:57:15.000Z</time></trkpt><trkpt lon="5.787298" lat="51.286392"><ele>27.4</ele><time>2022-06-05T06:57:16.000Z</time></trkpt><trkpt lon="5.787292" lat="51.286403"><ele>27.4</ele><time>2022-06-05T06:57:17.000Z</time></trkpt><trkpt lon="5.787282" lat="51.286414"><ele>27.4</ele><time>2022-06-05T06:57:18.000Z</time></trkpt><trkpt lon="5.787267" lat="51.286433"><ele>27.4</ele><time>2022-06-05T06:57:19.000Z</time></trkpt><trkpt lon="5.787243" lat="51.286459"><ele>27.4</ele><time>2022-06-05T06:57:20.000Z</time></trkpt><trkpt lon="5.787216" lat="51.28649"><ele>27.4</ele><time>2022-06-05T06:57:21.000Z</time></trkpt><trkpt lon="5.787184" lat="51.286528"><ele>27.4</ele><time>2022-06-05T06:57:22.000Z</time></trkpt><trkpt lon="5.787148" lat="51.28657"><ele>27.2</ele><time>2022-06-05T06:57:23.000Z</time></trkpt><trkpt lon="5.787111" lat="51.286615"><ele>27.2</ele><time>2022-06-05T06:57:24.000Z</time></trkpt><trkpt lon="5.787071" lat="51.286664"><ele>27</ele><time>2022-06-05T06:57:25.000Z</time></trkpt><trkpt lon="5.78703" lat="51.286715"><ele>27</ele><time>2022-06-05T06:57:26.000Z</time></trkpt><trkpt lon="5.786991" lat="51.286767"><ele>26.8</ele><time>2022-06-05T06:57:27.000Z</time></trkpt><trkpt lon="5.786946" lat="51.286821"><ele>26.6</ele><time>2022-06-05T06:57:28.000Z</time></trkpt><trkpt lon="5.786897" lat="51.28687"><ele>26.4</ele><time>2022-06-05T06:57:29.000Z</time></trkpt><trkpt lon="5.786841" lat="51.286921"><ele>26.4</ele><time>2022-06-05T06:57:30.000Z</time></trkpt><trkpt lon="5.786783" lat="51.286963"><ele>26.2</ele><time>2022-06-05T06:57:31.000Z</time></trkpt><trkpt lon="5.786702" lat="51.287008"><ele>26.2</ele><time>2022-06-05T06:57:32.000Z</time></trkpt><trkpt lon="5.786614" lat="51.287036"><ele>26.2</ele><time>2022-06-05T06:57:33.000Z</time></trkpt><trkpt lon="5.78652" lat="51.287055"><ele>26.2</ele><time>2022-06-05T06:57:34.000Z</time></trkpt><trkpt lon="5.786421" lat="51.28706"><ele>26.2</ele><time>2022-06-05T06:57:35.000Z</time></trkpt><trkpt lon="5.786316" lat="51.28706"><ele>26</ele><time>2022-06-05T06:57:36.000Z</time></trkpt><trkpt lon="5.786207" lat="51.28706"><ele>26</ele><time>2022-06-05T06:57:37.000Z</time></trkpt><trkpt lon="5.786096" lat="51.287052"><ele>26</ele><time>2022-06-05T06:57:38.000Z</time></trkpt><trkpt lon="5.785986" lat="51.287048"><ele>25.8</ele><time>2022-06-05T06:57:39.000Z</time></trkpt><trkpt lon="5.785873" lat="51.287041"><ele>25.8</ele><time>2022-06-05T06:57:40.000Z</time></trkpt><trkpt lon="5.785763" lat="51.287033"><ele>25.6</ele><time>2022-06-05T06:57:41.000Z</time></trkpt><trkpt lon="5.785647" lat="51.287029"><ele>25.6</ele><time>2022-06-05T06:57:42.000Z</time></trkpt><trkpt lon="5.785536" lat="51.287022"><ele>25.6</ele><time>2022-06-05T06:57:43.000Z</time></trkpt><trkpt lon="5.785426" lat="51.287018"><ele>25.6</ele><time>2022-06-05T06:57:44.000Z</time></trkpt><trkpt lon="5.78532" lat="51.287011"><ele>25.6</ele><time>2022-06-05T06:57:45.000Z</time></trkpt><trkpt lon="5.785201" lat="51.286999"><ele>25.6</ele><time>2022-06-05T06:57:46.000Z</time></trkpt><trkpt lon="5.78509" lat="51.286995"><ele>25.6</ele><time>2022-06-05T06:57:47.000Z</time></trkpt><trkpt lon="5.784976" lat="51.286991"><ele>25.6</ele><time>2022-06-05T06:57:48.000Z</time></trkpt><trkpt lon="5.784861" lat="51.286984"><ele>25.6</ele><time>2022-06-05T06:57:49.000Z</time></trkpt><trkpt lon="5.784752" lat="51.28698"><ele>25.6</ele><time>2022-06-05T06:57:50.000Z</time></trkpt><trkpt lon="5.78463" lat="51.28698"><ele>25.6</ele><time>2022-06-05T06:57:51.000Z</time></trkpt><trkpt lon="5.784515" lat="51.286983"><ele>25.4</ele><time>2022-06-05T06:57:52.000Z</time></trkpt><trkpt lon="5.784419" lat="51.286992"><ele>25.4</ele><time>2022-06-05T06:57:53.000Z</time></trkpt><trkpt lon="5.784284" lat="51.28701"><ele>25.4</ele><time>2022-06-05T06:57:54.000Z</time></trkpt><trkpt lon="5.784173" lat="51.287029"><ele>25.4</ele><time>2022-06-05T06:57:55.000Z</time></trkpt><trkpt lon="5.784059" lat="51.287048"><ele>25.4</ele><time>2022-06-05T06:57:56.000Z</time></trkpt><trkpt lon="5.783953" lat="51.287066"><ele>25.4</ele><time>2022-06-05T06:57:57.000Z</time></trkpt><trkpt lon="5.783845" lat="51.287084"><ele>25.4</ele><time>2022-06-05T06:57:58.000Z</time></trkpt><trkpt lon="5.783725" lat="51.287105"><ele>25.2</ele><time>2022-06-05T06:57:59.000Z</time></trkpt><trkpt lon="5.783616" lat="51.287128"><ele>25.2</ele><time>2022-06-05T06:58:00.000Z</time></trkpt><trkpt lon="5.783505" lat="51.287151"><ele>25.4</ele><time>2022-06-05T06:58:01.000Z</time></trkpt><trkpt lon="5.783402" lat="51.287168"><ele>25.4</ele><time>2022-06-05T06:58:02.000Z</time></trkpt><trkpt lon="5.783283" lat="51.287193"><ele>25.4</ele><time>2022-06-05T06:58:03.000Z</time></trkpt><trkpt lon="5.783177" lat="51.287212"><ele>25.4</ele><time>2022-06-05T06:58:04.000Z</time></trkpt><trkpt lon="5.78307" lat="51.287231"><ele>25.4</ele><time>2022-06-05T06:58:05.000Z</time></trkpt><trkpt lon="5.782959" lat="51.287249"><ele>25.6</ele><time>2022-06-05T06:58:06.000Z</time></trkpt><trkpt lon="5.782848" lat="51.287272"><ele>25.6</ele><time>2022-06-05T06:58:07.000Z</time></trkpt><trkpt lon="5.782736" lat="51.287295"><ele>25.6</ele><time>2022-06-05T06:58:08.000Z</time></trkpt><trkpt lon="5.782623" lat="51.287315"><ele>25.6</ele><time>2022-06-05T06:58:09.000Z</time></trkpt><trkpt lon="5.782509" lat="51.287334"><ele>25.6</ele><time>2022-06-05T06:58:10.000Z</time></trkpt><trkpt lon="5.782398" lat="51.287353"><ele>25.6</ele><time>2022-06-05T06:58:11.000Z</time></trkpt><trkpt lon="5.78229" lat="51.287372"><ele>25.4</ele><time>2022-06-05T06:58:12.000Z</time></trkpt><trkpt lon="5.782178" lat="51.287395"><ele>25.4</ele><time>2022-06-05T06:58:13.000Z</time></trkpt><trkpt lon="5.782072" lat="51.287414"><ele>25.4</ele><time>2022-06-05T06:58:14.000Z</time></trkpt><trkpt lon="5.781961" lat="51.287429"><ele>25.4</ele><time>2022-06-05T06:58:15.000Z</time></trkpt><trkpt lon="5.781851" lat="51.287448"><ele>25.4</ele><time>2022-06-05T06:58:16.000Z</time></trkpt><trkpt lon="5.781744" lat="51.287467"><ele>25.4</ele><time>2022-06-05T06:58:17.000Z</time></trkpt><trkpt lon="5.781643" lat="51.287485"><ele>25.4</ele><time>2022-06-05T06:58:18.000Z</time></trkpt><trkpt lon="5.781524" lat="51.287509"><ele>25.4</ele><time>2022-06-05T06:58:19.000Z</time></trkpt><trkpt lon="5.781415" lat="51.287528"><ele>25.4</ele><time>2022-06-05T06:58:20.000Z</time></trkpt><trkpt lon="5.781302" lat="51.287551"><ele>25.2</ele><time>2022-06-05T06:58:21.000Z</time></trkpt><trkpt lon="5.781208" lat="51.287571"><ele>25.2</ele><time>2022-06-05T06:58:22.000Z</time></trkpt><trkpt lon="5.781097" lat="51.287594"><ele>25.2</ele><time>2022-06-05T06:58:23.000Z</time></trkpt><trkpt lon="5.780974" lat="51.287616"><ele>25.2</ele><time>2022-06-05T06:58:24.000Z</time></trkpt><trkpt lon="5.780865" lat="51.287635"><ele>25.2</ele><time>2022-06-05T06:58:25.000Z</time></trkpt><trkpt lon="5.780762" lat="51.287654"><ele>25</ele><time>2022-06-05T06:58:26.000Z</time></trkpt><trkpt lon="5.780655" lat="51.287673"><ele>25</ele><time>2022-06-05T06:58:27.000Z</time></trkpt><trkpt lon="5.780552" lat="51.287696"><ele>25</ele><time>2022-06-05T06:58:28.000Z</time></trkpt><trkpt lon="5.780446" lat="51.287723"><ele>25</ele><time>2022-06-05T06:58:29.000Z</time></trkpt><trkpt lon="5.780344" lat="51.287749"><ele>25</ele><time>2022-06-05T06:58:30.000Z</time></trkpt><trkpt lon="5.780246" lat="51.287783"><ele>25</ele><time>2022-06-05T06:58:31.000Z</time></trkpt><trkpt lon="5.780148" lat="51.287821"><ele>25</ele><time>2022-06-05T06:58:32.000Z</time></trkpt><trkpt lon="5.780054" lat="51.287863"><ele>25.2</ele><time>2022-06-05T06:58:33.000Z</time></trkpt><trkpt lon="5.779966" lat="51.287905"><ele>25</ele><time>2022-06-05T06:58:34.000Z</time></trkpt><trkpt lon="5.779883" lat="51.287958"><ele>25</ele><time>2022-06-05T06:58:35.000Z</time></trkpt><trkpt lon="5.779809" lat="51.288012"><ele>25.2</ele><time>2022-06-05T06:58:36.000Z</time></trkpt><trkpt lon="5.77974" lat="51.288069"><ele>25.2</ele><time>2022-06-05T06:58:37.000Z</time></trkpt><trkpt lon="5.779677" lat="51.288126"><ele>25.2</ele><time>2022-06-05T06:58:38.000Z</time></trkpt><trkpt lon="5.779622" lat="51.288183"><ele>25.2</ele><time>2022-06-05T06:58:39.000Z</time></trkpt><trkpt lon="5.779572" lat="51.288248"><ele>25</ele><time>2022-06-05T06:58:40.000Z</time></trkpt><trkpt lon="5.779523" lat="51.288313"><ele>25</ele><time>2022-06-05T06:58:41.000Z</time></trkpt><trkpt lon="5.779479" lat="51.288375"><ele>25</ele><time>2022-06-05T06:58:42.000Z</time></trkpt><trkpt lon="5.779432" lat="51.288438"><ele>25</ele><time>2022-06-05T06:58:43.000Z</time></trkpt><trkpt lon="5.779387" lat="51.288503"><ele>25</ele><time>2022-06-05T06:58:44.000Z</time></trkpt><trkpt lon="5.779344" lat="51.288561"><ele>25</ele><time>2022-06-05T06:58:45.000Z</time></trkpt><trkpt lon="5.779298" lat="51.28863"><ele>25</ele><time>2022-06-05T06:58:46.000Z</time></trkpt><trkpt lon="5.779252" lat="51.288697"><ele>25</ele><time>2022-06-05T06:58:47.000Z</time></trkpt><trkpt lon="5.779203" lat="51.288762"><ele>25</ele><time>2022-06-05T06:58:48.000Z</time></trkpt><trkpt lon="5.779156" lat="51.288826"><ele>25</ele><time>2022-06-05T06:58:49.000Z</time></trkpt><trkpt lon="5.779113" lat="51.288881"><ele>25</ele><time>2022-06-05T06:58:50.000Z</time></trkpt><trkpt lon="5.779058" lat="51.288953"><ele>25</ele><time>2022-06-05T06:58:51.000Z</time></trkpt><trkpt lon="5.779017" lat="51.289011"><ele>25</ele><time>2022-06-05T06:58:52.000Z</time></trkpt><trkpt lon="5.778964" lat="51.289082"><ele>25.2</ele><time>2022-06-05T06:58:53.000Z</time></trkpt><trkpt lon="5.778919" lat="51.289148"><ele>25.2</ele><time>2022-06-05T06:58:54.000Z</time></trkpt><trkpt lon="5.778875" lat="51.289213"><ele>25.2</ele><time>2022-06-05T06:58:55.000Z</time></trkpt><trkpt lon="5.77883" lat="51.289274"><ele>25.4</ele><time>2022-06-05T06:58:56.000Z</time></trkpt><trkpt lon="5.778785" lat="51.289332"><ele>25.4</ele><time>2022-06-05T06:58:57.000Z</time></trkpt><trkpt lon="5.778741" lat="51.289389"><ele>25.4</ele><time>2022-06-05T06:58:58.000Z</time></trkpt><trkpt lon="5.778698" lat="51.289449"><ele>25.4</ele><time>2022-06-05T06:58:59.000Z</time></trkpt><trkpt lon="5.778655" lat="51.289503"><ele>25.4</ele><time>2022-06-05T06:59:00.000Z</time></trkpt><trkpt lon="5.778616" lat="51.289556"><ele>25.6</ele><time>2022-06-05T06:59:01.000Z</time></trkpt><trkpt lon="5.778577" lat="51.289602"><ele>25.6</ele><time>2022-06-05T06:59:02.000Z</time></trkpt><trkpt lon="5.778535" lat="51.289641"><ele>25.6</ele><time>2022-06-05T06:59:03.000Z</time></trkpt><trkpt lon="5.778484" lat="51.289675"><ele>25.6</ele><time>2022-06-05T06:59:04.000Z</time></trkpt><trkpt lon="5.778418" lat="51.289695"><ele>25.8</ele><time>2022-06-05T06:59:05.000Z</time></trkpt><trkpt lon="5.778343" lat="51.289703"><ele>25.6</ele><time>2022-06-05T06:59:06.000Z</time></trkpt><trkpt lon="5.778257" lat="51.289707"><ele>25.6</ele><time>2022-06-05T06:59:07.000Z</time></trkpt><trkpt lon="5.778166" lat="51.289707"><ele>25.6</ele><time>2022-06-05T06:59:08.000Z</time></trkpt><trkpt lon="5.778072" lat="51.289703"><ele>25.6</ele><time>2022-06-05T06:59:09.000Z</time></trkpt><trkpt lon="5.777976" lat="51.289703"><ele>25.6</ele><time>2022-06-05T06:59:10.000Z</time></trkpt><trkpt lon="5.777881" lat="51.289703"><ele>25.6</ele><time>2022-06-05T06:59:11.000Z</time></trkpt><trkpt lon="5.777788" lat="51.2897"><ele>25.4</ele><time>2022-06-05T06:59:12.000Z</time></trkpt><trkpt lon="5.777688" lat="51.289696"><ele>25.4</ele><time>2022-06-05T06:59:13.000Z</time></trkpt><trkpt lon="5.777581" lat="51.289688"><ele>25.4</ele><time>2022-06-05T06:59:14.000Z</time></trkpt><trkpt lon="5.777473" lat="51.289681"><ele>25.4</ele><time>2022-06-05T06:59:15.000Z</time></trkpt><trkpt lon="5.777363" lat="51.289673"><ele>25.4</ele><time>2022-06-05T06:59:16.000Z</time></trkpt><trkpt lon="5.777253" lat="51.289666"><ele>25.2</ele><time>2022-06-05T06:59:17.000Z</time></trkpt><trkpt lon="5.777157" lat="51.289662"><ele>25.2</ele><time>2022-06-05T06:59:18.000Z</time></trkpt><trkpt lon="5.777025" lat="51.289658"><ele>25</ele><time>2022-06-05T06:59:19.000Z</time></trkpt><trkpt lon="5.776915" lat="51.28965"><ele>25</ele><time>2022-06-05T06:59:20.000Z</time></trkpt><trkpt lon="5.7768" lat="51.289643"><ele>25</ele><time>2022-06-05T06:59:21.000Z</time></trkpt><trkpt lon="5.776688" lat="51.289639"><ele>24.8</ele><time>2022-06-05T06:59:22.000Z</time></trkpt><trkpt lon="5.776569" lat="51.289628"><ele>24.8</ele><time>2022-06-05T06:59:23.000Z</time></trkpt><trkpt lon="5.776454" lat="51.289623"><ele>24.8</ele><time>2022-06-05T06:59:24.000Z</time></trkpt><trkpt lon="5.776339" lat="51.289616"><ele>25</ele><time>2022-06-05T06:59:25.000Z</time></trkpt><trkpt lon="5.776223" lat="51.289608"><ele>25</ele><time>2022-06-05T06:59:26.000Z</time></trkpt><trkpt lon="5.776107" lat="51.289597"><ele>25</ele><time>2022-06-05T06:59:27.000Z</time></trkpt><trkpt lon="5.775995" lat="51.289586"><ele>25.2</ele><time>2022-06-05T06:59:28.000Z</time></trkpt><trkpt lon="5.77587" lat="51.289574"><ele>25.2</ele><time>2022-06-05T06:59:29.000Z</time></trkpt><trkpt lon="5.77575" lat="51.289563"><ele>25.2</ele><time>2022-06-05T06:59:30.000Z</time></trkpt><trkpt lon="5.775629" lat="51.289551"><ele>25.2</ele><time>2022-06-05T06:59:31.000Z</time></trkpt><trkpt lon="5.77551" lat="51.289543"><ele>25.2</ele><time>2022-06-05T06:59:32.000Z</time></trkpt><trkpt lon="5.775388" lat="51.289536"><ele>25.2</ele><time>2022-06-05T06:59:33.000Z</time></trkpt><trkpt lon="5.775271" lat="51.289532"><ele>25.2</ele><time>2022-06-05T06:59:34.000Z</time></trkpt><trkpt lon="5.775154" lat="51.289528"><ele>25.2</ele><time>2022-06-05T06:59:35.000Z</time></trkpt><trkpt lon="5.775034" lat="51.289524"><ele>25.4</ele><time>2022-06-05T06:59:36.000Z</time></trkpt><trkpt lon="5.774913" lat="51.289517"><ele>25.4</ele><time>2022-06-05T06:59:37.000Z</time></trkpt><trkpt lon="5.774797" lat="51.289516"><ele>25.2</ele><time>2022-06-05T06:59:38.000Z</time></trkpt><trkpt lon="5.774676" lat="51.289513"><ele>25.2</ele><time>2022-06-05T06:59:39.000Z</time></trkpt><trkpt lon="5.774559" lat="51.289513"><ele>25.2</ele><time>2022-06-05T06:59:40.000Z</time></trkpt><trkpt lon="5.774441" lat="51.289513"><ele>25.2</ele><time>2022-06-05T06:59:41.000Z</time></trkpt><trkpt lon="5.774321" lat="51.289513"><ele>25.2</ele><time>2022-06-05T06:59:42.000Z</time></trkpt><trkpt lon="5.774203" lat="51.289513"><ele>25.2</ele><time>2022-06-05T06:59:43.000Z</time></trkpt><trkpt lon="5.774085" lat="51.289513"><ele>25.2</ele><time>2022-06-05T06:59:44.000Z</time></trkpt><trkpt lon="5.773965" lat="51.289513"><ele>25.2</ele><time>2022-06-05T06:59:45.000Z</time></trkpt><trkpt lon="5.773847" lat="51.289509"><ele>25.2</ele><time>2022-06-05T06:59:46.000Z</time></trkpt><trkpt lon="5.77373" lat="51.289505"><ele>25.4</ele><time>2022-06-05T06:59:47.000Z</time></trkpt><trkpt lon="5.773611" lat="51.289505"><ele>25.4</ele><time>2022-06-05T06:59:48.000Z</time></trkpt><trkpt lon="5.773494" lat="51.289505"><ele>25.4</ele><time>2022-06-05T06:59:49.000Z</time></trkpt><trkpt lon="5.773375" lat="51.289505"><ele>25.6</ele><time>2022-06-05T06:59:50.000Z</time></trkpt><trkpt lon="5.773254" lat="51.289501"><ele>25.4</ele><time>2022-06-05T06:59:51.000Z</time></trkpt><trkpt lon="5.773137" lat="51.289498"><ele>25.4</ele><time>2022-06-05T06:59:52.000Z</time></trkpt><trkpt lon="5.773035" lat="51.289494"><ele>25.4</ele><time>2022-06-05T06:59:53.000Z</time></trkpt><trkpt lon="5.772901" lat="51.28949"><ele>25.4</ele><time>2022-06-05T06:59:54.000Z</time></trkpt><trkpt lon="5.772783" lat="51.289482"><ele>25.6</ele><time>2022-06-05T06:59:55.000Z</time></trkpt><trkpt lon="5.772667" lat="51.289475"><ele>25.6</ele><time>2022-06-05T06:59:56.000Z</time></trkpt><trkpt lon="5.77255" lat="51.289467"><ele>25.6</ele><time>2022-06-05T06:59:57.000Z</time></trkpt><trkpt lon="5.772435" lat="51.289459"><ele>25.6</ele><time>2022-06-05T06:59:58.000Z</time></trkpt><trkpt lon="5.772321" lat="51.289452"><ele>25.6</ele><time>2022-06-05T06:59:59.000Z</time></trkpt><trkpt lon="5.772211" lat="51.289445"><ele>25.6</ele><time>2022-06-05T07:00:00.000Z</time></trkpt><trkpt lon="5.772087" lat="51.289437"><ele>25.8</ele><time>2022-06-05T07:00:01.000Z</time></trkpt><trkpt lon="5.771971" lat="51.289425"><ele>25.6</ele><time>2022-06-05T07:00:02.000Z</time></trkpt><trkpt lon="5.771862" lat="51.289414"><ele>25.6</ele><time>2022-06-05T07:00:03.000Z</time></trkpt><trkpt lon="5.771745" lat="51.289402"><ele>25.6</ele><time>2022-06-05T07:00:04.000Z</time></trkpt><trkpt lon="5.771636" lat="51.289388"><ele>25.6</ele><time>2022-06-05T07:00:05.000Z</time></trkpt><trkpt lon="5.771521" lat="51.289372"><ele>25.6</ele><time>2022-06-05T07:00:06.000Z</time></trkpt><trkpt lon="5.771417" lat="51.289361"><ele>25.8</ele><time>2022-06-05T07:00:07.000Z</time></trkpt><trkpt lon="5.771307" lat="51.289346"><ele>25.8</ele><time>2022-06-05T07:00:08.000Z</time></trkpt><trkpt lon="5.77119" lat="51.289326"><ele>25.8</ele><time>2022-06-05T07:00:09.000Z</time></trkpt><trkpt lon="5.77108" lat="51.289311"><ele>25.8</ele><time>2022-06-05T07:00:10.000Z</time></trkpt><trkpt lon="5.770968" lat="51.289296"><ele>26</ele><time>2022-06-05T07:00:11.000Z</time></trkpt><trkpt lon="5.770856" lat="51.289277"><ele>26</ele><time>2022-06-05T07:00:12.000Z</time></trkpt><trkpt lon="5.770743" lat="51.289261"><ele>26</ele><time>2022-06-05T07:00:13.000Z</time></trkpt><trkpt lon="5.770631" lat="51.289254"><ele>26</ele><time>2022-06-05T07:00:14.000Z</time></trkpt><trkpt lon="5.770516" lat="51.28925"><ele>26</ele><time>2022-06-05T07:00:15.000Z</time></trkpt><trkpt lon="5.770401" lat="51.289253"><ele>26</ele><time>2022-06-05T07:00:16.000Z</time></trkpt><trkpt lon="5.770293" lat="51.289268"><ele>25.8</ele><time>2022-06-05T07:00:17.000Z</time></trkpt><trkpt lon="5.770186" lat="51.289294"><ele>25.6</ele><time>2022-06-05T07:00:18.000Z</time></trkpt><trkpt lon="5.770083" lat="51.289329"><ele>25.6</ele><time>2022-06-05T07:00:19.000Z</time></trkpt><trkpt lon="5.769988" lat="51.289366"><ele>25.4</ele><time>2022-06-05T07:00:20.000Z</time></trkpt><trkpt lon="5.769895" lat="51.289409"><ele>25.4</ele><time>2022-06-05T07:00:21.000Z</time></trkpt><trkpt lon="5.769812" lat="51.28945"><ele>25.2</ele><time>2022-06-05T07:00:22.000Z</time></trkpt><trkpt lon="5.769732" lat="51.289487"><ele>25.2</ele><time>2022-06-05T07:00:23.000Z</time></trkpt><trkpt lon="5.769657" lat="51.289521"><ele>25.4</ele><time>2022-06-05T07:00:24.000Z</time></trkpt><trkpt lon="5.769577" lat="51.289558"><ele>25.6</ele><time>2022-06-05T07:00:25.000Z</time></trkpt><trkpt lon="5.769504" lat="51.289584"><ele>25.6</ele><time>2022-06-05T07:00:26.000Z</time></trkpt><trkpt lon="5.769434" lat="51.289607"><ele>25.8</ele><time>2022-06-05T07:00:27.000Z</time></trkpt><trkpt lon="5.769365" lat="51.289618"><ele>26</ele><time>2022-06-05T07:00:28.000Z</time></trkpt><trkpt lon="5.769295" lat="51.289623"><ele>26.2</ele><time>2022-06-05T07:00:29.000Z</time></trkpt><trkpt lon="5.769218" lat="51.289623"><ele>26.2</ele><time>2022-06-05T07:00:30.000Z</time></trkpt><trkpt lon="5.769152" lat="51.289623"><ele>26.4</ele><time>2022-06-05T07:00:31.000Z</time></trkpt><trkpt lon="5.76909" lat="51.289623"><ele>26.4</ele><time>2022-06-05T07:00:32.000Z</time></trkpt><trkpt lon="5.769033" lat="51.289634"><ele>26.4</ele><time>2022-06-05T07:00:33.000Z</time></trkpt><trkpt lon="5.768982" lat="51.289649"><ele>26.4</ele><time>2022-06-05T07:00:34.000Z</time></trkpt><trkpt lon="5.76894" lat="51.289682"><ele>26.6</ele><time>2022-06-05T07:00:35.000Z</time></trkpt><trkpt lon="5.768896" lat="51.289718"><ele>26.4</ele><time>2022-06-05T07:00:36.000Z</time></trkpt><trkpt lon="5.768856" lat="51.289757"><ele>26.4</ele><time>2022-06-05T07:00:37.000Z</time></trkpt><trkpt lon="5.768813" lat="51.289808"><ele>26.4</ele><time>2022-06-05T07:00:38.000Z</time></trkpt><trkpt lon="5.768774" lat="51.289856"><ele>26.4</ele><time>2022-06-05T07:00:39.000Z</time></trkpt><trkpt lon="5.768726" lat="51.289915"><ele>26.4</ele><time>2022-06-05T07:00:40.000Z</time></trkpt><trkpt lon="5.768679" lat="51.289968"><ele>26.4</ele><time>2022-06-05T07:00:41.000Z</time></trkpt><trkpt lon="5.768628" lat="51.290026"><ele>26.2</ele><time>2022-06-05T07:00:42.000Z</time></trkpt><trkpt lon="5.768578" lat="51.29008"><ele>26.2</ele><time>2022-06-05T07:00:43.000Z</time></trkpt><trkpt lon="5.768527" lat="51.290136"><ele>26.2</ele><time>2022-06-05T07:00:44.000Z</time></trkpt><trkpt lon="5.768477" lat="51.290192"><ele>26.4</ele><time>2022-06-05T07:00:45.000Z</time></trkpt><trkpt lon="5.768418" lat="51.290253"><ele>26.4</ele><time>2022-06-05T07:00:46.000Z</time></trkpt><trkpt lon="5.76836" lat="51.290316"><ele>26.4</ele><time>2022-06-05T07:00:47.000Z</time></trkpt><trkpt lon="5.768306" lat="51.290374"><ele>26.2</ele><time>2022-06-05T07:00:48.000Z</time></trkpt><trkpt lon="5.768246" lat="51.290441"><ele>26.2</ele><time>2022-06-05T07:00:49.000Z</time></trkpt><trkpt lon="5.768188" lat="51.290502"><ele>26</ele><time>2022-06-05T07:00:50.000Z</time></trkpt><trkpt lon="5.768131" lat="51.290566"><ele>26</ele><time>2022-06-05T07:00:51.000Z</time></trkpt><trkpt lon="5.768073" lat="51.290631"><ele>26</ele><time>2022-06-05T07:00:52.000Z</time></trkpt><trkpt lon="5.768016" lat="51.290693"><ele>26</ele><time>2022-06-05T07:00:53.000Z</time></trkpt><trkpt lon="5.767958" lat="51.290758"><ele>26.2</ele><time>2022-06-05T07:00:54.000Z</time></trkpt><trkpt lon="5.767901" lat="51.290824"><ele>26.2</ele><time>2022-06-05T07:00:55.000Z</time></trkpt><trkpt lon="5.767841" lat="51.290885"><ele>26</ele><time>2022-06-05T07:00:56.000Z</time></trkpt><trkpt lon="5.767784" lat="51.290948"><ele>26</ele><time>2022-06-05T07:00:57.000Z</time></trkpt><trkpt lon="5.767735" lat="51.291003"><ele>25.8</ele><time>2022-06-05T07:00:58.000Z</time></trkpt><trkpt lon="5.767674" lat="51.29107"><ele>25.8</ele><time>2022-06-05T07:00:59.000Z</time></trkpt><trkpt lon="5.767617" lat="51.291132"><ele>25.8</ele><time>2022-06-05T07:01:00.000Z</time></trkpt><trkpt lon="5.767562" lat="51.291193"><ele>25.8</ele><time>2022-06-05T07:01:01.000Z</time></trkpt><trkpt lon="5.767515" lat="51.291248"><ele>26</ele><time>2022-06-05T07:01:02.000Z</time></trkpt><trkpt lon="5.767462" lat="51.291311"><ele>26</ele><time>2022-06-05T07:01:03.000Z</time></trkpt><trkpt lon="5.767415" lat="51.291372"><ele>26</ele><time>2022-06-05T07:01:04.000Z</time></trkpt><trkpt lon="5.767374" lat="51.291422"><ele>26</ele><time>2022-06-05T07:01:05.000Z</time></trkpt><trkpt lon="5.76733" lat="51.291484"><ele>26</ele><time>2022-06-05T07:01:06.000Z</time></trkpt><trkpt lon="5.76729" lat="51.291543"><ele>26</ele><time>2022-06-05T07:01:07.000Z</time></trkpt><trkpt lon="5.767249" lat="51.291605"><ele>26</ele><time>2022-06-05T07:01:08.000Z</time></trkpt><trkpt lon="5.767221" lat="51.291662"><ele>26.2</ele><time>2022-06-05T07:01:09.000Z</time></trkpt><trkpt lon="5.767207" lat="51.291719"><ele>26.2</ele><time>2022-06-05T07:01:10.000Z</time></trkpt><trkpt lon="5.767204" lat="51.291768"><ele>26.4</ele><time>2022-06-05T07:01:11.000Z</time></trkpt><trkpt lon="5.767207" lat="51.291815"><ele>26.4</ele><time>2022-06-05T07:01:12.000Z</time></trkpt><trkpt lon="5.767213" lat="51.291846"><ele>26.4</ele><time>2022-06-05T07:01:13.000Z</time></trkpt><trkpt lon="5.767215" lat="51.291865"><ele>26.6</ele><time>2022-06-05T07:01:14.000Z</time></trkpt><trkpt lon="5.767193" lat="51.29188"><ele>26.6</ele><time>2022-06-05T07:01:15.000Z</time></trkpt><trkpt lon="5.76718" lat="51.291883"><ele>26.8</ele><time>2022-06-05T07:01:16.000Z</time></trkpt><trkpt lon="5.767166" lat="51.291886"><ele>26.8</ele><time>2022-06-05T07:01:17.000Z</time></trkpt><trkpt lon="5.767153" lat="51.291888"><ele>26.8</ele><time>2022-06-05T07:01:18.000Z</time></trkpt><trkpt lon="5.767139" lat="51.291891"><ele>26.8</ele><time>2022-06-05T07:01:19.000Z</time></trkpt><trkpt lon="5.767125" lat="51.291894"><ele>26.8</ele><time>2022-06-05T07:01:20.000Z</time></trkpt><trkpt lon="5.767112" lat="51.291897"><ele>27</ele><time>2022-06-05T07:01:21.000Z</time></trkpt><trkpt lon="5.767075" lat="51.291897"><ele>27</ele><time>2022-06-05T07:01:22.000Z</time></trkpt><trkpt lon="5.767033" lat="51.291904"><ele>27</ele><time>2022-06-05T07:01:23.000Z</time></trkpt><trkpt lon="5.766996" lat="51.291919"><ele>27</ele><time>2022-06-05T07:01:24.000Z</time></trkpt><trkpt lon="5.766965" lat="51.291945"><ele>26.8</ele><time>2022-06-05T07:01:25.000Z</time></trkpt><trkpt lon="5.766942" lat="51.291976"><ele>26.8</ele><time>2022-06-05T07:01:26.000Z</time></trkpt><trkpt lon="5.766924" lat="51.291999"><ele>26.8</ele><time>2022-06-05T07:01:27.000Z</time></trkpt><trkpt lon="5.7669" lat="51.292014"><ele>26.8</ele><time>2022-06-05T07:01:28.000Z</time></trkpt><trkpt lon="5.766865" lat="51.29203"><ele>26.8</ele><time>2022-06-05T07:01:29.000Z</time></trkpt><trkpt lon="5.766828" lat="51.29204"><ele>26.8</ele><time>2022-06-05T07:01:30.000Z</time></trkpt><trkpt lon="5.76678" lat="51.292049"><ele>27</ele><time>2022-06-05T07:01:31.000Z</time></trkpt><trkpt lon="5.766736" lat="51.29206"><ele>27</ele><time>2022-06-05T07:01:32.000Z</time></trkpt><trkpt lon="5.766681" lat="51.292068"><ele>27</ele><time>2022-06-05T07:01:33.000Z</time></trkpt><trkpt lon="5.766628" lat="51.292072"><ele>27</ele><time>2022-06-05T07:01:34.000Z</time></trkpt><trkpt lon="5.766551" lat="51.292069"><ele>26.8</ele><time>2022-06-05T07:01:35.000Z</time></trkpt><trkpt lon="5.766486" lat="51.292062"><ele>26.8</ele><time>2022-06-05T07:01:36.000Z</time></trkpt><trkpt lon="5.766409" lat="51.29205"><ele>26.8</ele><time>2022-06-05T07:01:37.000Z</time></trkpt><trkpt lon="5.766345" lat="51.292035"><ele>26.8</ele><time>2022-06-05T07:01:38.000Z</time></trkpt><trkpt lon="5.766287" lat="51.292016"><ele>27</ele><time>2022-06-05T07:01:39.000Z</time></trkpt><trkpt lon="5.766235" lat="51.292"><ele>27</ele><time>2022-06-05T07:01:40.000Z</time></trkpt><trkpt lon="5.76619" lat="51.291985"><ele>27</ele><time>2022-06-05T07:01:41.000Z</time></trkpt><trkpt lon="5.766148" lat="51.291977"><ele>27.2</ele><time>2022-06-05T07:01:42.000Z</time></trkpt><trkpt lon="5.766115" lat="51.291977"><ele>27.2</ele><time>2022-06-05T07:01:43.000Z</time></trkpt><trkpt lon="5.766102" lat="51.291981"><ele>27.2</ele><time>2022-06-05T07:01:44.000Z</time></trkpt><trkpt lon="5.766099" lat="51.291984"><ele>27.4</ele><time>2022-06-05T07:01:45.000Z</time></trkpt><trkpt lon="5.766099" lat="51.291985"><ele>27.4</ele><time>2022-06-05T07:01:46.000Z</time></trkpt><trkpt lon="5.766099" lat="51.291985"><ele>27.4</ele><time>2022-06-05T07:01:47.000Z</time></trkpt><trkpt lon="5.766099" lat="51.291985"><ele>27.4</ele><time>2022-06-05T07:01:48.000Z</time></trkpt><trkpt lon="5.766099" lat="51.291985"><ele>27.6</ele><time>2022-06-05T07:01:49.000Z</time></trkpt><trkpt lon="5.766071" lat="51.29201"><ele>27.6</ele><time>2022-06-05T07:01:50.000Z</time></trkpt><trkpt lon="5.76605" lat="51.292033"><ele>27.6</ele><time>2022-06-05T07:01:51.000Z</time></trkpt><trkpt lon="5.766019" lat="51.292064"><ele>27.6</ele><time>2022-06-05T07:01:52.000Z</time></trkpt><trkpt lon="5.765994" lat="51.292093"><ele>27.4</ele><time>2022-06-05T07:01:53.000Z</time></trkpt><trkpt lon="5.765963" lat="51.292132"><ele>27.4</ele><time>2022-06-05T07:01:54.000Z</time></trkpt><trkpt lon="5.76593" lat="51.292173"><ele>27.2</ele><time>2022-06-05T07:01:55.000Z</time></trkpt><trkpt lon="5.765896" lat="51.29222"><ele>27</ele><time>2022-06-05T07:01:56.000Z</time></trkpt><trkpt lon="5.765863" lat="51.292269"><ele>27</ele><time>2022-06-05T07:01:57.000Z</time></trkpt><trkpt lon="5.765829" lat="51.292317"><ele>26.8</ele><time>2022-06-05T07:01:58.000Z</time></trkpt><trkpt lon="5.765793" lat="51.292368"><ele>26.6</ele><time>2022-06-05T07:01:59.000Z</time></trkpt><trkpt lon="5.765756" lat="51.292422"><ele>26.6</ele><time>2022-06-05T07:02:00.000Z</time></trkpt><trkpt lon="5.76572" lat="51.29247"><ele>26.4</ele><time>2022-06-05T07:02:01.000Z</time></trkpt><trkpt lon="5.765675" lat="51.292528"><ele>26.2</ele><time>2022-06-05T07:02:02.000Z</time></trkpt><trkpt lon="5.765632" lat="51.292588"><ele>26.2</ele><time>2022-06-05T07:02:03.000Z</time></trkpt><trkpt lon="5.765589" lat="51.292651"><ele>26.2</ele><time>2022-06-05T07:02:04.000Z</time></trkpt><trkpt lon="5.765549" lat="51.292707"><ele>26.2</ele><time>2022-06-05T07:02:05.000Z</time></trkpt><trkpt lon="5.765506" lat="51.292769"><ele>26.2</ele><time>2022-06-05T07:02:06.000Z</time></trkpt><trkpt lon="5.765466" lat="51.29283"><ele>26.2</ele><time>2022-06-05T07:02:07.000Z</time></trkpt><trkpt lon="5.765429" lat="51.292889"><ele>26.2</ele><time>2022-06-05T07:02:08.000Z</time></trkpt><trkpt lon="5.765386" lat="51.292948"><ele>26.2</ele><time>2022-06-05T07:02:09.000Z</time></trkpt><trkpt lon="5.765347" lat="51.293004"><ele>26.2</ele><time>2022-06-05T07:02:10.000Z</time></trkpt><trkpt lon="5.765308" lat="51.293062"><ele>26.2</ele><time>2022-06-05T07:02:11.000Z</time></trkpt><trkpt lon="5.765273" lat="51.293119"><ele>26.2</ele><time>2022-06-05T07:02:12.000Z</time></trkpt><trkpt lon="5.765235" lat="51.293177"><ele>26.4</ele><time>2022-06-05T07:02:13.000Z</time></trkpt><trkpt lon="5.765195" lat="51.293227"><ele>26.4</ele><time>2022-06-05T07:02:14.000Z</time></trkpt><trkpt lon="5.765155" lat="51.293283"><ele>26.4</ele><time>2022-06-05T07:02:15.000Z</time></trkpt><trkpt lon="5.765117" lat="51.293336"><ele>26.4</ele><time>2022-06-05T07:02:16.000Z</time></trkpt><trkpt lon="5.765077" lat="51.293394"><ele>26.4</ele><time>2022-06-05T07:02:17.000Z</time></trkpt><trkpt lon="5.765038" lat="51.293451"><ele>26.4</ele><time>2022-06-05T07:02:18.000Z</time></trkpt><trkpt lon="5.764996" lat="51.293505"><ele>26.6</ele><time>2022-06-05T07:02:19.000Z</time></trkpt><trkpt lon="5.764953" lat="51.293558"><ele>26.4</ele><time>2022-06-05T07:02:20.000Z</time></trkpt><trkpt lon="5.764913" lat="51.293615"><ele>26.4</ele><time>2022-06-05T07:02:21.000Z</time></trkpt><trkpt lon="5.764874" lat="51.293673"><ele>26.4</ele><time>2022-06-05T07:02:22.000Z</time></trkpt><trkpt lon="5.764833" lat="51.29373"><ele>26.4</ele><time>2022-06-05T07:02:23.000Z</time></trkpt><trkpt lon="5.76479" lat="51.293788"><ele>26.2</ele><time>2022-06-05T07:02:24.000Z</time></trkpt><trkpt lon="5.764747" lat="51.293847"><ele>26.2</ele><time>2022-06-05T07:02:25.000Z</time></trkpt><trkpt lon="5.764706" lat="51.293904"><ele>26.2</ele><time>2022-06-05T07:02:26.000Z</time></trkpt><trkpt lon="5.764663" lat="51.293963"><ele>26.2</ele><time>2022-06-05T07:02:27.000Z</time></trkpt><trkpt lon="5.76462" lat="51.294021"><ele>26.2</ele><time>2022-06-05T07:02:28.000Z</time></trkpt><trkpt lon="5.764573" lat="51.294081"><ele>26.2</ele><time>2022-06-05T07:02:29.000Z</time></trkpt><trkpt lon="5.764532" lat="51.294135"><ele>26.2</ele><time>2022-06-05T07:02:30.000Z</time></trkpt><trkpt lon="5.764487" lat="51.294198"><ele>26</ele><time>2022-06-05T07:02:31.000Z</time></trkpt><trkpt lon="5.764443" lat="51.29426"><ele>26</ele><time>2022-06-05T07:02:32.000Z</time></trkpt><trkpt lon="5.764399" lat="51.29432"><ele>26</ele><time>2022-06-05T07:02:33.000Z</time></trkpt><trkpt lon="5.764356" lat="51.294377"><ele>26</ele><time>2022-06-05T07:02:34.000Z</time></trkpt><trkpt lon="5.764314" lat="51.294442"><ele>26.2</ele><time>2022-06-05T07:02:35.000Z</time></trkpt><trkpt lon="5.764268" lat="51.2945"><ele>26</ele><time>2022-06-05T07:02:36.000Z</time></trkpt><trkpt lon="5.764225" lat="51.294564"><ele>26.2</ele><time>2022-06-05T07:02:37.000Z</time></trkpt><trkpt lon="5.764185" lat="51.294623"><ele>26.2</ele><time>2022-06-05T07:02:38.000Z</time></trkpt><trkpt lon="5.764142" lat="51.294686"><ele>26</ele><time>2022-06-05T07:02:39.000Z</time></trkpt><trkpt lon="5.7641" lat="51.294748"><ele>26</ele><time>2022-06-05T07:02:40.000Z</time></trkpt><trkpt lon="5.764055" lat="51.294812"><ele>26</ele><time>2022-06-05T07:02:41.000Z</time></trkpt><trkpt lon="5.764012" lat="51.294873"><ele>25.8</ele><time>2022-06-05T07:02:42.000Z</time></trkpt><trkpt lon="5.763967" lat="51.294935"><ele>25.8</ele><time>2022-06-05T07:02:43.000Z</time></trkpt><trkpt lon="5.763923" lat="51.294997"><ele>25.8</ele><time>2022-06-05T07:02:44.000Z</time></trkpt><trkpt lon="5.76388" lat="51.29506"><ele>25.8</ele><time>2022-06-05T07:02:45.000Z</time></trkpt><trkpt lon="5.763837" lat="51.295121"><ele>25.8</ele><time>2022-06-05T07:02:46.000Z</time></trkpt><trkpt lon="5.763792" lat="51.295179"><ele>25.8</ele><time>2022-06-05T07:02:47.000Z</time></trkpt><trkpt lon="5.763745" lat="51.295237"><ele>26</ele><time>2022-06-05T07:02:48.000Z</time></trkpt><trkpt lon="5.763702" lat="51.29529"><ele>26</ele><time>2022-06-05T07:02:49.000Z</time></trkpt><trkpt lon="5.76366" lat="51.29534"><ele>26.2</ele><time>2022-06-05T07:02:50.000Z</time></trkpt><trkpt lon="5.763611" lat="51.295405"><ele>26.4</ele><time>2022-06-05T07:02:51.000Z</time></trkpt><trkpt lon="5.763567" lat="51.295469"><ele>26.4</ele><time>2022-06-05T07:02:52.000Z</time></trkpt><trkpt lon="5.763522" lat="51.295531"><ele>26.4</ele><time>2022-06-05T07:02:53.000Z</time></trkpt><trkpt lon="5.763478" lat="51.295594"><ele>26.4</ele><time>2022-06-05T07:02:54.000Z</time></trkpt><trkpt lon="5.763429" lat="51.295663"><ele>26.4</ele><time>2022-06-05T07:02:55.000Z</time></trkpt><trkpt lon="5.763382" lat="51.295728"><ele>26.4</ele><time>2022-06-05T07:02:56.000Z</time></trkpt><trkpt lon="5.763332" lat="51.295793"><ele>26.4</ele><time>2022-06-05T07:02:57.000Z</time></trkpt><trkpt lon="5.763284" lat="51.295857"><ele>26.4</ele><time>2022-06-05T07:02:58.000Z</time></trkpt><trkpt lon="5.763237" lat="51.295927"><ele>26.2</ele><time>2022-06-05T07:02:59.000Z</time></trkpt><trkpt lon="5.76319" lat="51.295992"><ele>26.4</ele><time>2022-06-05T07:03:00.000Z</time></trkpt><trkpt lon="5.763141" lat="51.296055"><ele>26.6</ele><time>2022-06-05T07:03:01.000Z</time></trkpt><trkpt lon="5.763094" lat="51.29612"><ele>26.8</ele><time>2022-06-05T07:03:02.000Z</time></trkpt><trkpt lon="5.763046" lat="51.29619"><ele>26.8</ele><time>2022-06-05T07:03:03.000Z</time></trkpt><trkpt lon="5.763002" lat="51.296255"><ele>26.6</ele><time>2022-06-05T07:03:04.000Z</time></trkpt><trkpt lon="5.762955" lat="51.296323"><ele>26.4</ele><time>2022-06-05T07:03:05.000Z</time></trkpt><trkpt lon="5.76291" lat="51.296392"><ele>26.4</ele><time>2022-06-05T07:03:06.000Z</time></trkpt><trkpt lon="5.762867" lat="51.29646"><ele>26.2</ele><time>2022-06-05T07:03:07.000Z</time></trkpt><trkpt lon="5.762833" lat="51.296529"><ele>26.2</ele><time>2022-06-05T07:03:08.000Z</time></trkpt><trkpt lon="5.762808" lat="51.296598"><ele>26</ele><time>2022-06-05T07:03:09.000Z</time></trkpt><trkpt lon="5.762792" lat="51.29667"><ele>26</ele><time>2022-06-05T07:03:10.000Z</time></trkpt><trkpt lon="5.762784" lat="51.296742"><ele>26</ele><time>2022-06-05T07:03:11.000Z</time></trkpt><trkpt lon="5.76278" lat="51.296815"><ele>26</ele><time>2022-06-05T07:03:12.000Z</time></trkpt><trkpt lon="5.762778" lat="51.296883"><ele>25.8</ele><time>2022-06-05T07:03:13.000Z</time></trkpt><trkpt lon="5.762778" lat="51.296954"><ele>25.8</ele><time>2022-06-05T07:03:14.000Z</time></trkpt><trkpt lon="5.762775" lat="51.297029"><ele>26</ele><time>2022-06-05T07:03:15.000Z</time></trkpt><trkpt lon="5.762772" lat="51.297101"><ele>26.2</ele><time>2022-06-05T07:03:16.000Z</time></trkpt><trkpt lon="5.762768" lat="51.297173"><ele>26.4</ele><time>2022-06-05T07:03:17.000Z</time></trkpt><trkpt lon="5.762764" lat="51.297238"><ele>26.6</ele><time>2022-06-05T07:03:18.000Z</time></trkpt><trkpt lon="5.762761" lat="51.297309"><ele>26.8</ele><time>2022-06-05T07:03:19.000Z</time></trkpt><trkpt lon="5.762757" lat="51.297382"><ele>26.6</ele><time>2022-06-05T07:03:20.000Z</time></trkpt><trkpt lon="5.762754" lat="51.297456"><ele>26.4</ele><time>2022-06-05T07:03:21.000Z</time></trkpt><trkpt lon="5.76275" lat="51.297528"><ele>26.2</ele><time>2022-06-05T07:03:22.000Z</time></trkpt><trkpt lon="5.762747" lat="51.297601"><ele>26</ele><time>2022-06-05T07:03:23.000Z</time></trkpt><trkpt lon="5.76274" lat="51.29767"><ele>26</ele><time>2022-06-05T07:03:24.000Z</time></trkpt><trkpt lon="5.762732" lat="51.297742"><ele>25.8</ele><time>2022-06-05T07:03:25.000Z</time></trkpt><trkpt lon="5.762721" lat="51.29781"><ele>25.6</ele><time>2022-06-05T07:03:26.000Z</time></trkpt><trkpt lon="5.762696" lat="51.297879"><ele>25.6</ele><time>2022-06-05T07:03:27.000Z</time></trkpt><trkpt lon="5.762661" lat="51.297949"><ele>25.6</ele><time>2022-06-05T07:03:28.000Z</time></trkpt><trkpt lon="5.76262" lat="51.298014"><ele>25.6</ele><time>2022-06-05T07:03:29.000Z</time></trkpt><trkpt lon="5.762575" lat="51.298078"><ele>25.6</ele><time>2022-06-05T07:03:30.000Z</time></trkpt><trkpt lon="5.762527" lat="51.298139"><ele>25.6</ele><time>2022-06-05T07:03:31.000Z</time></trkpt><trkpt lon="5.762468" lat="51.298204"><ele>25.8</ele><time>2022-06-05T07:03:32.000Z</time></trkpt><trkpt lon="5.762404" lat="51.298261"><ele>25.8</ele><time>2022-06-05T07:03:33.000Z</time></trkpt><trkpt lon="5.762333" lat="51.298318"><ele>25.8</ele><time>2022-06-05T07:03:34.000Z</time></trkpt><trkpt lon="5.76226" lat="51.298366"><ele>25.6</ele><time>2022-06-05T07:03:35.000Z</time></trkpt><trkpt lon="5.762184" lat="51.298415"><ele>25.4</ele><time>2022-06-05T07:03:36.000Z</time></trkpt><trkpt lon="5.762104" lat="51.298467"><ele>25.2</ele><time>2022-06-05T07:03:37.000Z</time></trkpt><trkpt lon="5.762025" lat="51.298517"><ele>25.2</ele><time>2022-06-05T07:03:38.000Z</time></trkpt><trkpt lon="5.761947" lat="51.298563"><ele>25</ele><time>2022-06-05T07:03:39.000Z</time></trkpt><trkpt lon="5.761868" lat="51.298613"><ele>25</ele><time>2022-06-05T07:03:40.000Z</time></trkpt><trkpt lon="5.761786" lat="51.29867"><ele>25</ele><time>2022-06-05T07:03:41.000Z</time></trkpt><trkpt lon="5.761703" lat="51.298723"><ele>25</ele><time>2022-06-05T07:03:42.000Z</time></trkpt><trkpt lon="5.761628" lat="51.298767"><ele>25.2</ele><time>2022-06-05T07:03:43.000Z</time></trkpt><trkpt lon="5.761537" lat="51.298825"><ele>25.2</ele><time>2022-06-05T07:03:44.000Z</time></trkpt><trkpt lon="5.761451" lat="51.29888"><ele>25.2</ele><time>2022-06-05T07:03:45.000Z</time></trkpt><trkpt lon="5.761372" lat="51.298932"><ele>25.2</ele><time>2022-06-05T07:03:46.000Z</time></trkpt><trkpt lon="5.761294" lat="51.29898"><ele>25.2</ele><time>2022-06-05T07:03:47.000Z</time></trkpt><trkpt lon="5.761211" lat="51.299031"><ele>25.2</ele><time>2022-06-05T07:03:48.000Z</time></trkpt><trkpt lon="5.761134" lat="51.299078"><ele>25.2</ele><time>2022-06-05T07:03:49.000Z</time></trkpt><trkpt lon="5.761056" lat="51.299124"><ele>25</ele><time>2022-06-05T07:03:50.000Z</time></trkpt><trkpt lon="5.76098" lat="51.299169"><ele>25</ele><time>2022-06-05T07:03:51.000Z</time></trkpt><trkpt lon="5.760907" lat="51.299212"><ele>25</ele><time>2022-06-05T07:03:52.000Z</time></trkpt><trkpt lon="5.760835" lat="51.299256"><ele>24.8</ele><time>2022-06-05T07:03:53.000Z</time></trkpt><trkpt lon="5.760756" lat="51.299302"><ele>24.8</ele><time>2022-06-05T07:03:54.000Z</time></trkpt><trkpt lon="5.760677" lat="51.299356"><ele>24.8</ele><time>2022-06-05T07:03:55.000Z</time></trkpt><trkpt lon="5.760603" lat="51.299398"><ele>24.8</ele><time>2022-06-05T07:03:56.000Z</time></trkpt><trkpt lon="5.760531" lat="51.299449"><ele>24.8</ele><time>2022-06-05T07:03:57.000Z</time></trkpt><trkpt lon="5.760465" lat="51.299498"><ele>24.8</ele><time>2022-06-05T07:03:58.000Z</time></trkpt><trkpt lon="5.760395" lat="51.299548"><ele>24.8</ele><time>2022-06-05T07:03:59.000Z</time></trkpt><trkpt lon="5.760326" lat="51.2996"><ele>24.8</ele><time>2022-06-05T07:04:00.000Z</time></trkpt><trkpt lon="5.760267" lat="51.299658"><ele>24.8</ele><time>2022-06-05T07:04:01.000Z</time></trkpt><trkpt lon="5.76022" lat="51.299719"><ele>24.8</ele><time>2022-06-05T07:04:02.000Z</time></trkpt><trkpt lon="5.760184" lat="51.29979"><ele>24.8</ele><time>2022-06-05T07:04:03.000Z</time></trkpt><trkpt lon="5.760144" lat="51.299859"><ele>24.6</ele><time>2022-06-05T07:04:04.000Z</time></trkpt><trkpt lon="5.760109" lat="51.299934"><ele>24.6</ele><time>2022-06-05T07:04:05.000Z</time></trkpt><trkpt lon="5.760074" lat="51.300004"><ele>24.8</ele><time>2022-06-05T07:04:06.000Z</time></trkpt><trkpt lon="5.760042" lat="51.300072"><ele>24.8</ele><time>2022-06-05T07:04:07.000Z</time></trkpt><trkpt lon="5.760008" lat="51.300141"><ele>25</ele><time>2022-06-05T07:04:08.000Z</time></trkpt><trkpt lon="5.759979" lat="51.300198"><ele>25.2</ele><time>2022-06-05T07:04:09.000Z</time></trkpt><trkpt lon="5.759936" lat="51.300279"><ele>25.2</ele><time>2022-06-05T07:04:10.000Z</time></trkpt><trkpt lon="5.759898" lat="51.300344"><ele>25.4</ele><time>2022-06-05T07:04:11.000Z</time></trkpt><trkpt lon="5.759856" lat="51.300408"><ele>25.6</ele><time>2022-06-05T07:04:12.000Z</time></trkpt><trkpt lon="5.759805" lat="51.300471"><ele>25.6</ele><time>2022-06-05T07:04:13.000Z</time></trkpt><trkpt lon="5.759753" lat="51.300535"><ele>25.2</ele><time>2022-06-05T07:04:14.000Z</time></trkpt><trkpt lon="5.759698" lat="51.300597"><ele>25</ele><time>2022-06-05T07:04:15.000Z</time></trkpt><trkpt lon="5.759643" lat="51.300661"><ele>24.8</ele><time>2022-06-05T07:04:16.000Z</time></trkpt><trkpt lon="5.759593" lat="51.300718"><ele>24.8</ele><time>2022-06-05T07:04:17.000Z</time></trkpt><trkpt lon="5.759548" lat="51.300775"><ele>24.8</ele><time>2022-06-05T07:04:18.000Z</time></trkpt><trkpt lon="5.759521" lat="51.300829"><ele>24.8</ele><time>2022-06-05T07:04:19.000Z</time></trkpt><trkpt lon="5.759514" lat="51.300881"><ele>24.8</ele><time>2022-06-05T07:04:20.000Z</time></trkpt><trkpt lon="5.759513" lat="51.300936"><ele>24.8</ele><time>2022-06-05T07:04:21.000Z</time></trkpt><trkpt lon="5.759508" lat="51.300986"><ele>25</ele><time>2022-06-05T07:04:22.000Z</time></trkpt><trkpt lon="5.759485" lat="51.301035"><ele>25</ele><time>2022-06-05T07:04:23.000Z</time></trkpt><trkpt lon="5.759436" lat="51.301073"><ele>25</ele><time>2022-06-05T07:04:24.000Z</time></trkpt><trkpt lon="5.759356" lat="51.301111"><ele>25</ele><time>2022-06-05T07:04:25.000Z</time></trkpt><trkpt lon="5.759261" lat="51.301146"><ele>25</ele><time>2022-06-05T07:04:26.000Z</time></trkpt><trkpt lon="5.759162" lat="51.30118"><ele>24.8</ele><time>2022-06-05T07:04:27.000Z</time></trkpt><trkpt lon="5.759056" lat="51.301208"><ele>24.8</ele><time>2022-06-05T07:04:28.000Z</time></trkpt><trkpt lon="5.758955" lat="51.301238"><ele>24.8</ele><time>2022-06-05T07:04:29.000Z</time></trkpt><trkpt lon="5.758852" lat="51.301272"><ele>24.6</ele><time>2022-06-05T07:04:30.000Z</time></trkpt><trkpt lon="5.758751" lat="51.301299"><ele>24.6</ele><time>2022-06-05T07:04:31.000Z</time></trkpt><trkpt lon="5.758649" lat="51.301325"><ele>24.4</ele><time>2022-06-05T07:04:32.000Z</time></trkpt><trkpt lon="5.758544" lat="51.301349"><ele>24.4</ele><time>2022-06-05T07:04:33.000Z</time></trkpt><trkpt lon="5.758443" lat="51.301368"><ele>24.4</ele><time>2022-06-05T07:04:34.000Z</time></trkpt><trkpt lon="5.758346" lat="51.301386"><ele>24.4</ele><time>2022-06-05T07:04:35.000Z</time></trkpt><trkpt lon="5.758259" lat="51.301397"><ele>24.4</ele><time>2022-06-05T07:04:36.000Z</time></trkpt><trkpt lon="5.758146" lat="51.301409"><ele>24.4</ele><time>2022-06-05T07:04:37.000Z</time></trkpt><trkpt lon="5.758041" lat="51.301422"><ele>24.6</ele><time>2022-06-05T07:04:38.000Z</time></trkpt><trkpt lon="5.757943" lat="51.301433"><ele>24.6</ele><time>2022-06-05T07:04:39.000Z</time></trkpt><trkpt lon="5.757861" lat="51.301448"><ele>24.8</ele><time>2022-06-05T07:04:40.000Z</time></trkpt><trkpt lon="5.757801" lat="51.301474"><ele>24.8</ele><time>2022-06-05T07:04:41.000Z</time></trkpt><trkpt lon="5.757774" lat="51.301516"><ele>24.8</ele><time>2022-06-05T07:04:42.000Z</time></trkpt><trkpt lon="5.757781" lat="51.301569"><ele>24.6</ele><time>2022-06-05T07:04:43.000Z</time></trkpt><trkpt lon="5.757806" lat="51.301626"><ele>24.6</ele><time>2022-06-05T07:04:44.000Z</time></trkpt><trkpt lon="5.757836" lat="51.301686"><ele>24.6</ele><time>2022-06-05T07:04:45.000Z</time></trkpt><trkpt lon="5.757867" lat="51.301748"><ele>24.6</ele><time>2022-06-05T07:04:46.000Z</time></trkpt><trkpt lon="5.757897" lat="51.301808"><ele>24.4</ele><time>2022-06-05T07:04:47.000Z</time></trkpt><trkpt lon="5.757924" lat="51.301866"><ele>24.2</ele><time>2022-06-05T07:04:48.000Z</time></trkpt><trkpt lon="5.757957" lat="51.301939"><ele>24.2</ele><time>2022-06-05T07:04:49.000Z</time></trkpt><trkpt lon="5.75799" lat="51.302003"><ele>24</ele><time>2022-06-05T07:04:50.000Z</time></trkpt><trkpt lon="5.758021" lat="51.302068"><ele>24</ele><time>2022-06-05T07:04:51.000Z</time></trkpt><trkpt lon="5.758051" lat="51.302134"><ele>24</ele><time>2022-06-05T07:04:52.000Z</time></trkpt><trkpt lon="5.758074" lat="51.302181"><ele>24</ele><time>2022-06-05T07:04:53.000Z</time></trkpt><trkpt lon="5.758113" lat="51.302264"><ele>24</ele><time>2022-06-05T07:04:54.000Z</time></trkpt><trkpt lon="5.758142" lat="51.302335"><ele>24</ele><time>2022-06-05T07:04:55.000Z</time></trkpt><trkpt lon="5.758165" lat="51.302399"><ele>24</ele><time>2022-06-05T07:04:56.000Z</time></trkpt><trkpt lon="5.758181" lat="51.302469"><ele>24</ele><time>2022-06-05T07:04:57.000Z</time></trkpt><trkpt lon="5.758184" lat="51.30253"><ele>24</ele><time>2022-06-05T07:04:58.000Z</time></trkpt><trkpt lon="5.758178" lat="51.302606"><ele>24</ele><time>2022-06-05T07:04:59.000Z</time></trkpt><trkpt lon="5.758164" lat="51.302675"><ele>24</ele><time>2022-06-05T07:05:00.000Z</time></trkpt><trkpt lon="5.758145" lat="51.302735"><ele>24.2</ele><time>2022-06-05T07:05:01.000Z</time></trkpt><trkpt lon="5.758118" lat="51.302816"><ele>24.2</ele><time>2022-06-05T07:05:02.000Z</time></trkpt><trkpt lon="5.758094" lat="51.302876"><ele>24.2</ele><time>2022-06-05T07:05:03.000Z</time></trkpt><trkpt lon="5.758065" lat="51.302952"><ele>24.2</ele><time>2022-06-05T07:05:04.000Z</time></trkpt><trkpt lon="5.758035" lat="51.303017"><ele>24</ele><time>2022-06-05T07:05:05.000Z</time></trkpt><trkpt lon="5.75801" lat="51.303085"><ele>24</ele><time>2022-06-05T07:05:06.000Z</time></trkpt><trkpt lon="5.757983" lat="51.303156"><ele>24.2</ele><time>2022-06-05T07:05:07.000Z</time></trkpt><trkpt lon="5.757959" lat="51.303224"><ele>24.2</ele><time>2022-06-05T07:05:08.000Z</time></trkpt><trkpt lon="5.757934" lat="51.303293"><ele>24</ele><time>2022-06-05T07:05:09.000Z</time></trkpt><trkpt lon="5.757908" lat="51.30336"><ele>24</ele><time>2022-06-05T07:05:10.000Z</time></trkpt><trkpt lon="5.757879" lat="51.303433"><ele>24</ele><time>2022-06-05T07:05:11.000Z</time></trkpt><trkpt lon="5.757849" lat="51.303503"><ele>23.8</ele><time>2022-06-05T07:05:12.000Z</time></trkpt><trkpt lon="5.757822" lat="51.303571"><ele>23.8</ele><time>2022-06-05T07:05:13.000Z</time></trkpt><trkpt lon="5.757796" lat="51.30364"><ele>23.8</ele><time>2022-06-05T07:05:14.000Z</time></trkpt><trkpt lon="5.757771" lat="51.303705"><ele>23.6</ele><time>2022-06-05T07:05:15.000Z</time></trkpt><trkpt lon="5.757746" lat="51.303773"><ele>23.6</ele><time>2022-06-05T07:05:16.000Z</time></trkpt><trkpt lon="5.75772" lat="51.303841"><ele>23.4</ele><time>2022-06-05T07:05:17.000Z</time></trkpt><trkpt lon="5.757691" lat="51.303907"><ele>23.4</ele><time>2022-06-05T07:05:18.000Z</time></trkpt><trkpt lon="5.757663" lat="51.303979"><ele>23.4</ele><time>2022-06-05T07:05:19.000Z</time></trkpt><trkpt lon="5.757634" lat="51.304045"><ele>23.4</ele><time>2022-06-05T07:05:20.000Z</time></trkpt><trkpt lon="5.75761" lat="51.304112"><ele>23.4</ele><time>2022-06-05T07:05:21.000Z</time></trkpt><trkpt lon="5.757581" lat="51.304186"><ele>23.4</ele><time>2022-06-05T07:05:22.000Z</time></trkpt><trkpt lon="5.757554" lat="51.304254"><ele>23.4</ele><time>2022-06-05T07:05:23.000Z</time></trkpt><trkpt lon="5.757526" lat="51.304326"><ele>23.4</ele><time>2022-06-05T07:05:24.000Z</time></trkpt><trkpt lon="5.757498" lat="51.304398"><ele>23.6</ele><time>2022-06-05T07:05:25.000Z</time></trkpt><trkpt lon="5.75747" lat="51.304463"><ele>23.4</ele><time>2022-06-05T07:05:26.000Z</time></trkpt><trkpt lon="5.757439" lat="51.304529"><ele>23.4</ele><time>2022-06-05T07:05:27.000Z</time></trkpt><trkpt lon="5.757411" lat="51.304598"><ele>23.4</ele><time>2022-06-05T07:05:28.000Z</time></trkpt><trkpt lon="5.757385" lat="51.304664"><ele>23.2</ele><time>2022-06-05T07:05:29.000Z</time></trkpt><trkpt lon="5.757354" lat="51.304735"><ele>23.2</ele><time>2022-06-05T07:05:30.000Z</time></trkpt><trkpt lon="5.757332" lat="51.304798"><ele>23</ele><time>2022-06-05T07:05:31.000Z</time></trkpt><trkpt lon="5.757303" lat="51.304876"><ele>23</ele><time>2022-06-05T07:05:32.000Z</time></trkpt><trkpt lon="5.757277" lat="51.304948"><ele>23</ele><time>2022-06-05T07:05:33.000Z</time></trkpt><trkpt lon="5.757253" lat="51.305017"><ele>23</ele><time>2022-06-05T07:05:34.000Z</time></trkpt><trkpt lon="5.757226" lat="51.305085"><ele>23</ele><time>2022-06-05T07:05:35.000Z</time></trkpt><trkpt lon="5.757203" lat="51.305153"><ele>23.2</ele><time>2022-06-05T07:05:36.000Z</time></trkpt><trkpt lon="5.757181" lat="51.305223"><ele>23.2</ele><time>2022-06-05T07:05:37.000Z</time></trkpt><trkpt lon="5.757158" lat="51.305294"><ele>23.2</ele><time>2022-06-05T07:05:38.000Z</time></trkpt><trkpt lon="5.757134" lat="51.305365"><ele>23.2</ele><time>2022-06-05T07:05:39.000Z</time></trkpt><trkpt lon="5.757112" lat="51.305433"><ele>23</ele><time>2022-06-05T07:05:40.000Z</time></trkpt><trkpt lon="5.757088" lat="51.305509"><ele>23</ele><time>2022-06-05T07:05:41.000Z</time></trkpt><trkpt lon="5.757066" lat="51.305577"><ele>23</ele><time>2022-06-05T07:05:42.000Z</time></trkpt><trkpt lon="5.757041" lat="51.305646"><ele>23</ele><time>2022-06-05T07:05:43.000Z</time></trkpt><trkpt lon="5.757018" lat="51.305722"><ele>22.8</ele><time>2022-06-05T07:05:44.000Z</time></trkpt><trkpt lon="5.756996" lat="51.305796"><ele>22.6</ele><time>2022-06-05T07:05:45.000Z</time></trkpt><trkpt lon="5.756974" lat="51.305864"><ele>22.4</ele><time>2022-06-05T07:05:46.000Z</time></trkpt><trkpt lon="5.756952" lat="51.305933"><ele>22.4</ele><time>2022-06-05T07:05:47.000Z</time></trkpt><trkpt lon="5.75693" lat="51.306005"><ele>22.4</ele><time>2022-06-05T07:05:48.000Z</time></trkpt><trkpt lon="5.756912" lat="51.306077"><ele>22.2</ele><time>2022-06-05T07:05:49.000Z</time></trkpt><trkpt lon="5.756892" lat="51.306147"><ele>22.2</ele><time>2022-06-05T07:05:50.000Z</time></trkpt><trkpt lon="5.756872" lat="51.306215"><ele>22.2</ele><time>2022-06-05T07:05:51.000Z</time></trkpt><trkpt lon="5.756851" lat="51.306284"><ele>22</ele><time>2022-06-05T07:05:52.000Z</time></trkpt><trkpt lon="5.756831" lat="51.306354"><ele>22</ele><time>2022-06-05T07:05:53.000Z</time></trkpt><trkpt lon="5.756809" lat="51.306424"><ele>22</ele><time>2022-06-05T07:05:54.000Z</time></trkpt><trkpt lon="5.756789" lat="51.306485"><ele>22</ele><time>2022-06-05T07:05:55.000Z</time></trkpt><trkpt lon="5.756764" lat="51.306566"><ele>22</ele><time>2022-06-05T07:05:56.000Z</time></trkpt><trkpt lon="5.756741" lat="51.306634"><ele>22</ele><time>2022-06-05T07:05:57.000Z</time></trkpt><trkpt lon="5.756717" lat="51.306703"><ele>22</ele><time>2022-06-05T07:05:58.000Z</time></trkpt><trkpt lon="5.756695" lat="51.306776"><ele>22</ele><time>2022-06-05T07:05:59.000Z</time></trkpt><trkpt lon="5.756675" lat="51.306844"><ele>22</ele><time>2022-06-05T07:06:00.000Z</time></trkpt><trkpt lon="5.756656" lat="51.306917"><ele>22</ele><time>2022-06-05T07:06:01.000Z</time></trkpt><trkpt lon="5.756639" lat="51.306984"><ele>22</ele><time>2022-06-05T07:06:02.000Z</time></trkpt><trkpt lon="5.75663" lat="51.307054"><ele>22.2</ele><time>2022-06-05T07:06:03.000Z</time></trkpt><trkpt lon="5.756622" lat="51.307129"><ele>22.2</ele><time>2022-06-05T07:06:04.000Z</time></trkpt><trkpt lon="5.756617" lat="51.307199"><ele>22.2</ele><time>2022-06-05T07:06:05.000Z</time></trkpt><trkpt lon="5.756615" lat="51.307271"><ele>22.2</ele><time>2022-06-05T07:06:06.000Z</time></trkpt><trkpt lon="5.756612" lat="51.307344"><ele>22.2</ele><time>2022-06-05T07:06:07.000Z</time></trkpt><trkpt lon="5.75661" lat="51.307414"><ele>22</ele><time>2022-06-05T07:06:08.000Z</time></trkpt><trkpt lon="5.756609" lat="51.307489"><ele>22</ele><time>2022-06-05T07:06:09.000Z</time></trkpt><trkpt lon="5.756605" lat="51.307556"><ele>22</ele><time>2022-06-05T07:06:10.000Z</time></trkpt><trkpt lon="5.756605" lat="51.307626"><ele>21.8</ele><time>2022-06-05T07:06:11.000Z</time></trkpt><trkpt lon="5.756607" lat="51.307698"><ele>21.8</ele><time>2022-06-05T07:06:12.000Z</time></trkpt><trkpt lon="5.756607" lat="51.307768"><ele>21.8</ele><time>2022-06-05T07:06:13.000Z</time></trkpt><trkpt lon="5.756607" lat="51.307836"><ele>21.8</ele><time>2022-06-05T07:06:14.000Z</time></trkpt><trkpt lon="5.756603" lat="51.307905"><ele>21.8</ele><time>2022-06-05T07:06:15.000Z</time></trkpt><trkpt lon="5.756602" lat="51.307976"><ele>21.8</ele><time>2022-06-05T07:06:16.000Z</time></trkpt><trkpt lon="5.7566" lat="51.308045"><ele>21.8</ele><time>2022-06-05T07:06:17.000Z</time></trkpt><trkpt lon="5.756599" lat="51.308108"><ele>21.8</ele><time>2022-06-05T07:06:18.000Z</time></trkpt><trkpt lon="5.756598" lat="51.308182"><ele>21.8</ele><time>2022-06-05T07:06:19.000Z</time></trkpt><trkpt lon="5.756595" lat="51.308251"><ele>21.8</ele><time>2022-06-05T07:06:20.000Z</time></trkpt><trkpt lon="5.756595" lat="51.30832"><ele>21.8</ele><time>2022-06-05T07:06:21.000Z</time></trkpt><trkpt lon="5.756594" lat="51.30838"><ele>21.8</ele><time>2022-06-05T07:06:22.000Z</time></trkpt><trkpt lon="5.75659" lat="51.308458"><ele>21.8</ele><time>2022-06-05T07:06:23.000Z</time></trkpt><trkpt lon="5.756589" lat="51.308523"><ele>21.8</ele><time>2022-06-05T07:06:24.000Z</time></trkpt><trkpt lon="5.756587" lat="51.308599"><ele>21.8</ele><time>2022-06-05T07:06:25.000Z</time></trkpt><trkpt lon="5.756585" lat="51.308667"><ele>21.8</ele><time>2022-06-05T07:06:26.000Z</time></trkpt><trkpt lon="5.756585" lat="51.308733"><ele>21.8</ele><time>2022-06-05T07:06:27.000Z</time></trkpt><trkpt lon="5.756582" lat="51.308799"><ele>21.8</ele><time>2022-06-05T07:06:28.000Z</time></trkpt><trkpt lon="5.75658" lat="51.30887"><ele>21.8</ele><time>2022-06-05T07:06:29.000Z</time></trkpt><trkpt lon="5.756577" lat="51.308943"><ele>21.8</ele><time>2022-06-05T07:06:30.000Z</time></trkpt><trkpt lon="5.756573" lat="51.309011"><ele>21.8</ele><time>2022-06-05T07:06:31.000Z</time></trkpt><trkpt lon="5.756572" lat="51.309079"><ele>21.8</ele><time>2022-06-05T07:06:32.000Z</time></trkpt><trkpt lon="5.75657" lat="51.309148"><ele>21.8</ele><time>2022-06-05T07:06:33.000Z</time></trkpt><trkpt lon="5.75657" lat="51.309219"><ele>21.8</ele><time>2022-06-05T07:06:34.000Z</time></trkpt><trkpt lon="5.75657" lat="51.309286"><ele>21.8</ele><time>2022-06-05T07:06:35.000Z</time></trkpt><trkpt lon="5.756568" lat="51.309353"><ele>21.8</ele><time>2022-06-05T07:06:36.000Z</time></trkpt><trkpt lon="5.756565" lat="51.309419"><ele>22</ele><time>2022-06-05T07:06:37.000Z</time></trkpt><trkpt lon="5.756565" lat="51.30949"><ele>22</ele><time>2022-06-05T07:06:38.000Z</time></trkpt><trkpt lon="5.756563" lat="51.309565"><ele>22.2</ele><time>2022-06-05T07:06:39.000Z</time></trkpt><trkpt lon="5.756563" lat="51.309633"><ele>22.2</ele><time>2022-06-05T07:06:40.000Z</time></trkpt><trkpt lon="5.756563" lat="51.309705"><ele>22.2</ele><time>2022-06-05T07:06:41.000Z</time></trkpt><trkpt lon="5.756562" lat="51.309778"><ele>22.2</ele><time>2022-06-05T07:06:42.000Z</time></trkpt><trkpt lon="5.756562" lat="51.309849"><ele>22</ele><time>2022-06-05T07:06:43.000Z</time></trkpt><trkpt lon="5.75656" lat="51.309919"><ele>22</ele><time>2022-06-05T07:06:44.000Z</time></trkpt><trkpt lon="5.75656" lat="51.309987"><ele>22</ele><time>2022-06-05T07:06:45.000Z</time></trkpt><trkpt lon="5.756558" lat="51.310054"><ele>22</ele><time>2022-06-05T07:06:46.000Z</time></trkpt><trkpt lon="5.756558" lat="51.310125"><ele>22</ele><time>2022-06-05T07:06:47.000Z</time></trkpt><trkpt lon="5.756558" lat="51.310188"><ele>22</ele><time>2022-06-05T07:06:48.000Z</time></trkpt><trkpt lon="5.756558" lat="51.310247"><ele>22</ele><time>2022-06-05T07:06:49.000Z</time></trkpt><trkpt lon="5.756557" lat="51.310318"><ele>22</ele><time>2022-06-05T07:06:50.000Z</time></trkpt><trkpt lon="5.756555" lat="51.310381"><ele>22.2</ele><time>2022-06-05T07:06:51.000Z</time></trkpt><trkpt lon="5.756555" lat="51.310442"><ele>22.2</ele><time>2022-06-05T07:06:52.000Z</time></trkpt><trkpt lon="5.756555" lat="51.31049"><ele>22</ele><time>2022-06-05T07:06:53.000Z</time></trkpt><trkpt lon="5.756553" lat="51.31057"><ele>22</ele><time>2022-06-05T07:06:54.000Z</time></trkpt><trkpt lon="5.756553" lat="51.31064"><ele>22</ele><time>2022-06-05T07:06:55.000Z</time></trkpt><trkpt lon="5.75655" lat="51.310713"><ele>22</ele><time>2022-06-05T07:06:56.000Z</time></trkpt><trkpt lon="5.756547" lat="51.310782"><ele>22</ele><time>2022-06-05T07:06:57.000Z</time></trkpt><trkpt lon="5.756545" lat="51.310847"><ele>21.8</ele><time>2022-06-05T07:06:58.000Z</time></trkpt><trkpt lon="5.75654" lat="51.310919"><ele>21.8</ele><time>2022-06-05T07:06:59.000Z</time></trkpt><trkpt lon="5.756538" lat="51.310986"><ele>21.8</ele><time>2022-06-05T07:07:00.000Z</time></trkpt><trkpt lon="5.756535" lat="51.311056"><ele>21.8</ele><time>2022-06-05T07:07:01.000Z</time></trkpt><trkpt lon="5.756536" lat="51.311125"><ele>21.8</ele><time>2022-06-05T07:07:02.000Z</time></trkpt><trkpt lon="5.756536" lat="51.311195"><ele>21.8</ele><time>2022-06-05T07:07:03.000Z</time></trkpt><trkpt lon="5.756538" lat="51.311265"><ele>21.8</ele><time>2022-06-05T07:07:04.000Z</time></trkpt><trkpt lon="5.75654" lat="51.311335"><ele>21.8</ele><time>2022-06-05T07:07:05.000Z</time></trkpt><trkpt lon="5.756542" lat="51.311402"><ele>21.8</ele><time>2022-06-05T07:07:06.000Z</time></trkpt><trkpt lon="5.756543" lat="51.311475"><ele>21.8</ele><time>2022-06-05T07:07:07.000Z</time></trkpt><trkpt lon="5.756546" lat="51.311539"><ele>22</ele><time>2022-06-05T07:07:08.000Z</time></trkpt><trkpt lon="5.756548" lat="51.311609"><ele>22</ele><time>2022-06-05T07:07:09.000Z</time></trkpt><trkpt lon="5.756552" lat="51.311674"><ele>22</ele><time>2022-06-05T07:07:10.000Z</time></trkpt><trkpt lon="5.756555" lat="51.311742"><ele>22</ele><time>2022-06-05T07:07:11.000Z</time></trkpt><trkpt lon="5.75656" lat="51.31181"><ele>22</ele><time>2022-06-05T07:07:12.000Z</time></trkpt><trkpt lon="5.756563" lat="51.31188"><ele>22</ele><time>2022-06-05T07:07:13.000Z</time></trkpt><trkpt lon="5.756566" lat="51.311945"><ele>22</ele><time>2022-06-05T07:07:14.000Z</time></trkpt><trkpt lon="5.756571" lat="51.312009"><ele>22</ele><time>2022-06-05T07:07:15.000Z</time></trkpt><trkpt lon="5.756577" lat="51.312072"><ele>21.8</ele><time>2022-06-05T07:07:16.000Z</time></trkpt><trkpt lon="5.756583" lat="51.312153"><ele>21.8</ele><time>2022-06-05T07:07:17.000Z</time></trkpt><trkpt lon="5.756586" lat="51.312219"><ele>21.8</ele><time>2022-06-05T07:07:18.000Z</time></trkpt><trkpt lon="5.75659" lat="51.312288"><ele>21.6</ele><time>2022-06-05T07:07:19.000Z</time></trkpt><trkpt lon="5.756595" lat="51.31236"><ele>21.6</ele><time>2022-06-05T07:07:20.000Z</time></trkpt><trkpt lon="5.7566" lat="51.312429"><ele>21.6</ele><time>2022-06-05T07:07:21.000Z</time></trkpt><trkpt lon="5.756605" lat="51.312498"><ele>21.8</ele><time>2022-06-05T07:07:22.000Z</time></trkpt><trkpt lon="5.75661" lat="51.312566"><ele>21.6</ele><time>2022-06-05T07:07:23.000Z</time></trkpt><trkpt lon="5.756613" lat="51.312631"><ele>21.6</ele><time>2022-06-05T07:07:24.000Z</time></trkpt><trkpt lon="5.756616" lat="51.312699"><ele>21.8</ele><time>2022-06-05T07:07:25.000Z</time></trkpt><trkpt lon="5.75662" lat="51.312769"><ele>21.8</ele><time>2022-06-05T07:07:26.000Z</time></trkpt><trkpt lon="5.756623" lat="51.312838"><ele>21.8</ele><time>2022-06-05T07:07:27.000Z</time></trkpt><trkpt lon="5.756628" lat="51.312906"><ele>22</ele><time>2022-06-05T07:07:28.000Z</time></trkpt><trkpt lon="5.756633" lat="51.312973"><ele>22</ele><time>2022-06-05T07:07:29.000Z</time></trkpt><trkpt lon="5.756638" lat="51.313043"><ele>22</ele><time>2022-06-05T07:07:30.000Z</time></trkpt><trkpt lon="5.756642" lat="51.313111"><ele>22</ele><time>2022-06-05T07:07:31.000Z</time></trkpt><trkpt lon="5.756645" lat="51.313178"><ele>22</ele><time>2022-06-05T07:07:32.000Z</time></trkpt><trkpt lon="5.756648" lat="51.313247"><ele>22</ele><time>2022-06-05T07:07:33.000Z</time></trkpt><trkpt lon="5.756652" lat="51.313318"><ele>22</ele><time>2022-06-05T07:07:34.000Z</time></trkpt><trkpt lon="5.756655" lat="51.313387"><ele>22</ele><time>2022-06-05T07:07:35.000Z</time></trkpt><trkpt lon="5.756658" lat="51.313454"><ele>22</ele><time>2022-06-05T07:07:36.000Z</time></trkpt><trkpt lon="5.756663" lat="51.313522"><ele>22</ele><time>2022-06-05T07:07:37.000Z</time></trkpt><trkpt lon="5.756665" lat="51.313591"><ele>22</ele><time>2022-06-05T07:07:38.000Z</time></trkpt><trkpt lon="5.756667" lat="51.313661"><ele>22</ele><time>2022-06-05T07:07:39.000Z</time></trkpt><trkpt lon="5.756668" lat="51.313729"><ele>22</ele><time>2022-06-05T07:07:40.000Z</time></trkpt><trkpt lon="5.756671" lat="51.313796"><ele>22</ele><time>2022-06-05T07:07:41.000Z</time></trkpt><trkpt lon="5.756676" lat="51.313867"><ele>22</ele><time>2022-06-05T07:07:42.000Z</time></trkpt><trkpt lon="5.75668" lat="51.313935"><ele>22</ele><time>2022-06-05T07:07:43.000Z</time></trkpt><trkpt lon="5.756682" lat="51.313986"><ele>22</ele><time>2022-06-05T07:07:44.000Z</time></trkpt><trkpt lon="5.756686" lat="51.314059"><ele>22</ele><time>2022-06-05T07:07:45.000Z</time></trkpt><trkpt lon="5.756688" lat="51.314142"><ele>22</ele><time>2022-06-05T07:07:46.000Z</time></trkpt><trkpt lon="5.75669" lat="51.314207"><ele>22</ele><time>2022-06-05T07:07:47.000Z</time></trkpt><trkpt lon="5.756691" lat="51.314275"><ele>22</ele><time>2022-06-05T07:07:48.000Z</time></trkpt><trkpt lon="5.756696" lat="51.314343"><ele>22</ele><time>2022-06-05T07:07:49.000Z</time></trkpt><trkpt lon="5.7567" lat="51.314416"><ele>22</ele><time>2022-06-05T07:07:50.000Z</time></trkpt><trkpt lon="5.756703" lat="51.314487"><ele>22</ele><time>2022-06-05T07:07:51.000Z</time></trkpt><trkpt lon="5.756708" lat="51.314557"><ele>22</ele><time>2022-06-05T07:07:52.000Z</time></trkpt><trkpt lon="5.75671" lat="51.314611"><ele>22</ele><time>2022-06-05T07:07:53.000Z</time></trkpt><trkpt lon="5.756713" lat="51.314691"><ele>22</ele><time>2022-06-05T07:07:54.000Z</time></trkpt><trkpt lon="5.756718" lat="51.31476"><ele>22</ele><time>2022-06-05T07:07:55.000Z</time></trkpt><trkpt lon="5.756723" lat="51.314832"><ele>22</ele><time>2022-06-05T07:07:56.000Z</time></trkpt><trkpt lon="5.756731" lat="51.314901"><ele>22</ele><time>2022-06-05T07:07:57.000Z</time></trkpt><trkpt lon="5.756741" lat="51.314964"><ele>22</ele><time>2022-06-05T07:07:58.000Z</time></trkpt><trkpt lon="5.75675" lat="51.315038"><ele>21.8</ele><time>2022-06-05T07:07:59.000Z</time></trkpt><trkpt lon="5.756757" lat="51.31511"><ele>21.8</ele><time>2022-06-05T07:08:00.000Z</time></trkpt><trkpt lon="5.756763" lat="51.315178"><ele>21.6</ele><time>2022-06-05T07:08:01.000Z</time></trkpt><trkpt lon="5.756773" lat="51.315252"><ele>21.6</ele><time>2022-06-05T07:08:02.000Z</time></trkpt><trkpt lon="5.756782" lat="51.315312"><ele>21.4</ele><time>2022-06-05T07:08:03.000Z</time></trkpt><trkpt lon="5.756793" lat="51.315389"><ele>21.4</ele><time>2022-06-05T07:08:04.000Z</time></trkpt><trkpt lon="5.756803" lat="51.315457"><ele>21.4</ele><time>2022-06-05T07:08:05.000Z</time></trkpt><trkpt lon="5.756813" lat="51.315526"><ele>21.4</ele><time>2022-06-05T07:08:06.000Z</time></trkpt><trkpt lon="5.756821" lat="51.315595"><ele>21.2</ele><time>2022-06-05T07:08:07.000Z</time></trkpt><trkpt lon="5.756831" lat="51.315662"><ele>21.2</ele><time>2022-06-05T07:08:08.000Z</time></trkpt><trkpt lon="5.756843" lat="51.315729"><ele>21.2</ele><time>2022-06-05T07:08:09.000Z</time></trkpt><trkpt lon="5.756849" lat="51.315796"><ele>21.2</ele><time>2022-06-05T07:08:10.000Z</time></trkpt><trkpt lon="5.756858" lat="51.315859"><ele>21.4</ele><time>2022-06-05T07:08:11.000Z</time></trkpt><trkpt lon="5.756868" lat="51.31593"><ele>21.4</ele><time>2022-06-05T07:08:12.000Z</time></trkpt><trkpt lon="5.756878" lat="51.316"><ele>21.4</ele><time>2022-06-05T07:08:13.000Z</time></trkpt><trkpt lon="5.756889" lat="51.316064"><ele>21.2</ele><time>2022-06-05T07:08:14.000Z</time></trkpt><trkpt lon="5.756898" lat="51.316127"><ele>21.2</ele><time>2022-06-05T07:08:15.000Z</time></trkpt><trkpt lon="5.756908" lat="51.316191"><ele>21.4</ele><time>2022-06-05T07:08:16.000Z</time></trkpt><trkpt lon="5.75692" lat="51.316256"><ele>21.6</ele><time>2022-06-05T07:08:17.000Z</time></trkpt><trkpt lon="5.756929" lat="51.316323"><ele>21.8</ele><time>2022-06-05T07:08:18.000Z</time></trkpt><trkpt lon="5.756938" lat="51.316393"><ele>21.8</ele><time>2022-06-05T07:08:19.000Z</time></trkpt><trkpt lon="5.756948" lat="51.316458"><ele>21.8</ele><time>2022-06-05T07:08:20.000Z</time></trkpt><trkpt lon="5.756956" lat="51.316526"><ele>21.8</ele><time>2022-06-05T07:08:21.000Z</time></trkpt><trkpt lon="5.756968" lat="51.316591"><ele>21.8</ele><time>2022-06-05T07:08:22.000Z</time></trkpt><trkpt lon="5.756979" lat="51.316655"><ele>21.8</ele><time>2022-06-05T07:08:23.000Z</time></trkpt><trkpt lon="5.756988" lat="51.316725"><ele>21.8</ele><time>2022-06-05T07:08:24.000Z</time></trkpt><trkpt lon="5.756996" lat="51.316792"><ele>21.8</ele><time>2022-06-05T07:08:25.000Z</time></trkpt><trkpt lon="5.757003" lat="51.316862"><ele>21.8</ele><time>2022-06-05T07:08:26.000Z</time></trkpt><trkpt lon="5.757013" lat="51.31693"><ele>21.8</ele><time>2022-06-05T07:08:27.000Z</time></trkpt><trkpt lon="5.757023" lat="51.316994"><ele>21.6</ele><time>2022-06-05T07:08:28.000Z</time></trkpt><trkpt lon="5.757033" lat="51.31706"><ele>21.6</ele><time>2022-06-05T07:08:29.000Z</time></trkpt><trkpt lon="5.757043" lat="51.317125"><ele>21.6</ele><time>2022-06-05T07:08:30.000Z</time></trkpt><trkpt lon="5.75705" lat="51.317192"><ele>21.6</ele><time>2022-06-05T07:08:31.000Z</time></trkpt><trkpt lon="5.757056" lat="51.317258"><ele>21.4</ele><time>2022-06-05T07:08:32.000Z</time></trkpt><trkpt lon="5.757065" lat="51.317323"><ele>21.4</ele><time>2022-06-05T07:08:33.000Z</time></trkpt><trkpt lon="5.757074" lat="51.317392"><ele>21.2</ele><time>2022-06-05T07:08:34.000Z</time></trkpt><trkpt lon="5.757083" lat="51.317457"><ele>21.4</ele><time>2022-06-05T07:08:35.000Z</time></trkpt><trkpt lon="5.757093" lat="51.31752"><ele>21.4</ele><time>2022-06-05T07:08:36.000Z</time></trkpt><trkpt lon="5.757104" lat="51.317591"><ele>21.6</ele><time>2022-06-05T07:08:37.000Z</time></trkpt><trkpt lon="5.757114" lat="51.317661"><ele>21.6</ele><time>2022-06-05T07:08:38.000Z</time></trkpt><trkpt lon="5.757123" lat="51.317728"><ele>21.6</ele><time>2022-06-05T07:08:39.000Z</time></trkpt><trkpt lon="5.757125" lat="51.317795"><ele>21.6</ele><time>2022-06-05T07:08:40.000Z</time></trkpt><trkpt lon="5.757131" lat="51.317862"><ele>21.6</ele><time>2022-06-05T07:08:41.000Z</time></trkpt><trkpt lon="5.75714" lat="51.31793"><ele>21.6</ele><time>2022-06-05T07:08:42.000Z</time></trkpt><trkpt lon="5.757147" lat="51.317999"><ele>21.6</ele><time>2022-06-05T07:08:43.000Z</time></trkpt><trkpt lon="5.757155" lat="51.318068"><ele>21.6</ele><time>2022-06-05T07:08:44.000Z</time></trkpt><trkpt lon="5.757165" lat="51.318136"><ele>21.4</ele><time>2022-06-05T07:08:45.000Z</time></trkpt><trkpt lon="5.757177" lat="51.318205"><ele>21.4</ele><time>2022-06-05T07:08:46.000Z</time></trkpt><trkpt lon="5.757185" lat="51.318268"><ele>21.4</ele><time>2022-06-05T07:08:47.000Z</time></trkpt><trkpt lon="5.757195" lat="51.318334"><ele>21.2</ele><time>2022-06-05T07:08:48.000Z</time></trkpt><trkpt lon="5.757205" lat="51.318403"><ele>21.2</ele><time>2022-06-05T07:08:49.000Z</time></trkpt><trkpt lon="5.757213" lat="51.318466"><ele>21.2</ele><time>2022-06-05T07:08:50.000Z</time></trkpt><trkpt lon="5.757219" lat="51.318525"><ele>21.2</ele><time>2022-06-05T07:08:51.000Z</time></trkpt><trkpt lon="5.757228" lat="51.318589"><ele>21.4</ele><time>2022-06-05T07:08:52.000Z</time></trkpt><trkpt lon="5.757236" lat="51.318635"><ele>21.4</ele><time>2022-06-05T07:08:53.000Z</time></trkpt><trkpt lon="5.757249" lat="51.318722"><ele>21.4</ele><time>2022-06-05T07:08:54.000Z</time></trkpt><trkpt lon="5.757259" lat="51.318788"><ele>21.4</ele><time>2022-06-05T07:08:55.000Z</time></trkpt><trkpt lon="5.757271" lat="51.318853"><ele>21.6</ele><time>2022-06-05T07:08:56.000Z</time></trkpt><trkpt lon="5.757283" lat="51.318917"><ele>21.6</ele><time>2022-06-05T07:08:57.000Z</time></trkpt><trkpt lon="5.757293" lat="51.318981"><ele>21.6</ele><time>2022-06-05T07:08:58.000Z</time></trkpt><trkpt lon="5.7573" lat="51.319048"><ele>21.6</ele><time>2022-06-05T07:08:59.000Z</time></trkpt><trkpt lon="5.757308" lat="51.319117"><ele>21.6</ele><time>2022-06-05T07:09:00.000Z</time></trkpt><trkpt lon="5.757316" lat="51.31918"><ele>21.6</ele><time>2022-06-05T07:09:01.000Z</time></trkpt><trkpt lon="5.757325" lat="51.319245"><ele>21.6</ele><time>2022-06-05T07:09:02.000Z</time></trkpt><trkpt lon="5.757335" lat="51.319314"><ele>21.6</ele><time>2022-06-05T07:09:03.000Z</time></trkpt><trkpt lon="5.757345" lat="51.319376"><ele>21.4</ele><time>2022-06-05T07:09:04.000Z</time></trkpt><trkpt lon="5.757353" lat="51.31944"><ele>21.6</ele><time>2022-06-05T07:09:05.000Z</time></trkpt><trkpt lon="5.757363" lat="51.319496"><ele>21.6</ele><time>2022-06-05T07:09:06.000Z</time></trkpt><trkpt lon="5.757368" lat="51.319559"><ele>21.8</ele><time>2022-06-05T07:09:07.000Z</time></trkpt><trkpt lon="5.757359" lat="51.319608"><ele>21.8</ele><time>2022-06-05T07:09:08.000Z</time></trkpt><trkpt lon="5.757321" lat="51.319647"><ele>22</ele><time>2022-06-05T07:09:09.000Z</time></trkpt><trkpt lon="5.757245" lat="51.319667"><ele>22</ele><time>2022-06-05T07:09:10.000Z</time></trkpt><trkpt lon="5.757151" lat="51.319668"><ele>22.2</ele><time>2022-06-05T07:09:11.000Z</time></trkpt><trkpt lon="5.757057" lat="51.319661"><ele>22.2</ele><time>2022-06-05T07:09:12.000Z</time></trkpt><trkpt lon="5.756955" lat="51.319653"><ele>22.4</ele><time>2022-06-05T07:09:13.000Z</time></trkpt><trkpt lon="5.756855" lat="51.319645"><ele>22.4</ele><time>2022-06-05T07:09:14.000Z</time></trkpt><trkpt lon="5.75675" lat="51.319638"><ele>22.6</ele><time>2022-06-05T07:09:15.000Z</time></trkpt><trkpt lon="5.756646" lat="51.31963"><ele>22.6</ele><time>2022-06-05T07:09:16.000Z</time></trkpt><trkpt lon="5.75654" lat="51.319619"><ele>22.4</ele><time>2022-06-05T07:09:17.000Z</time></trkpt><trkpt lon="5.756434" lat="51.319607"><ele>22.6</ele><time>2022-06-05T07:09:18.000Z</time></trkpt><trkpt lon="5.756328" lat="51.319603"><ele>22.6</ele><time>2022-06-05T07:09:19.000Z</time></trkpt><trkpt lon="5.756225" lat="51.319592"><ele>22.6</ele><time>2022-06-05T07:09:20.000Z</time></trkpt><trkpt lon="5.75612" lat="51.319584"><ele>22.6</ele><time>2022-06-05T07:09:21.000Z</time></trkpt><trkpt lon="5.75602" lat="51.319577"><ele>22.4</ele><time>2022-06-05T07:09:22.000Z</time></trkpt><trkpt lon="5.755914" lat="51.319569"><ele>22.4</ele><time>2022-06-05T07:09:23.000Z</time></trkpt><trkpt lon="5.755803" lat="51.319565"><ele>22.4</ele><time>2022-06-05T07:09:24.000Z</time></trkpt><trkpt lon="5.755695" lat="51.319554"><ele>22.4</ele><time>2022-06-05T07:09:25.000Z</time></trkpt><trkpt lon="5.755584" lat="51.319546"><ele>22.2</ele><time>2022-06-05T07:09:26.000Z</time></trkpt><trkpt lon="5.755472" lat="51.319542"><ele>22.2</ele><time>2022-06-05T07:09:27.000Z</time></trkpt><trkpt lon="5.755359" lat="51.319535"><ele>22.4</ele><time>2022-06-05T07:09:28.000Z</time></trkpt><trkpt lon="5.755267" lat="51.319528"><ele>22.4</ele><time>2022-06-05T07:09:29.000Z</time></trkpt><trkpt lon="5.755144" lat="51.319523"><ele>22.4</ele><time>2022-06-05T07:09:30.000Z</time></trkpt><trkpt lon="5.755037" lat="51.319516"><ele>22.4</ele><time>2022-06-05T07:09:31.000Z</time></trkpt><trkpt lon="5.754925" lat="51.319508"><ele>22.4</ele><time>2022-06-05T07:09:32.000Z</time></trkpt><trkpt lon="5.754816" lat="51.3195"><ele>22.4</ele><time>2022-06-05T07:09:33.000Z</time></trkpt><trkpt lon="5.754701" lat="51.319496"><ele>22.4</ele><time>2022-06-05T07:09:34.000Z</time></trkpt><trkpt lon="5.754587" lat="51.319489"><ele>22.4</ele><time>2022-06-05T07:09:35.000Z</time></trkpt><trkpt lon="5.754469" lat="51.319485"><ele>22.4</ele><time>2022-06-05T07:09:36.000Z</time></trkpt><trkpt lon="5.754355" lat="51.319481"><ele>22.4</ele><time>2022-06-05T07:09:37.000Z</time></trkpt><trkpt lon="5.754237" lat="51.319477"><ele>22.4</ele><time>2022-06-05T07:09:38.000Z</time></trkpt><trkpt lon="5.754123" lat="51.319473"><ele>22.4</ele><time>2022-06-05T07:09:39.000Z</time></trkpt><trkpt lon="5.75401" lat="51.319462"><ele>22.4</ele><time>2022-06-05T07:09:40.000Z</time></trkpt><trkpt lon="5.753896" lat="51.319458"><ele>22.4</ele><time>2022-06-05T07:09:41.000Z</time></trkpt><trkpt lon="5.753787" lat="51.319451"><ele>22.4</ele><time>2022-06-05T07:09:42.000Z</time></trkpt><trkpt lon="5.753679" lat="51.319447"><ele>22.4</ele><time>2022-06-05T07:09:43.000Z</time></trkpt><trkpt lon="5.753564" lat="51.319435"><ele>22.6</ele><time>2022-06-05T07:09:44.000Z</time></trkpt><trkpt lon="5.753455" lat="51.319431"><ele>22.6</ele><time>2022-06-05T07:09:45.000Z</time></trkpt><trkpt lon="5.753345" lat="51.319424"><ele>22.6</ele><time>2022-06-05T07:09:46.000Z</time></trkpt><trkpt lon="5.753237" lat="51.319417"><ele>22.6</ele><time>2022-06-05T07:09:47.000Z</time></trkpt><trkpt lon="5.753123" lat="51.319409"><ele>22.8</ele><time>2022-06-05T07:09:48.000Z</time></trkpt><trkpt lon="5.753012" lat="51.319405"><ele>22.8</ele><time>2022-06-05T07:09:49.000Z</time></trkpt><trkpt lon="5.752898" lat="51.319397"><ele>22.6</ele><time>2022-06-05T07:09:50.000Z</time></trkpt><trkpt lon="5.752789" lat="51.31939"><ele>22.6</ele><time>2022-06-05T07:09:51.000Z</time></trkpt><trkpt lon="5.752676" lat="51.319382"><ele>22.6</ele><time>2022-06-05T07:09:52.000Z</time></trkpt><trkpt lon="5.752572" lat="51.319375"><ele>22.6</ele><time>2022-06-05T07:09:53.000Z</time></trkpt><trkpt lon="5.752461" lat="51.319367"><ele>22.6</ele><time>2022-06-05T07:09:54.000Z</time></trkpt><trkpt lon="5.752354" lat="51.319363"><ele>22.6</ele><time>2022-06-05T07:09:55.000Z</time></trkpt><trkpt lon="5.75224" lat="51.319355"><ele>22.6</ele><time>2022-06-05T07:09:56.000Z</time></trkpt><trkpt lon="5.752141" lat="51.319348"><ele>22.6</ele><time>2022-06-05T07:09:57.000Z</time></trkpt><trkpt lon="5.752035" lat="51.319344"><ele>22.4</ele><time>2022-06-05T07:09:58.000Z</time></trkpt><trkpt lon="5.751912" lat="51.319336"><ele>22.4</ele><time>2022-06-05T07:09:59.000Z</time></trkpt><trkpt lon="5.751803" lat="51.319329"><ele>22.4</ele><time>2022-06-05T07:10:00.000Z</time></trkpt><trkpt lon="5.751693" lat="51.319321"><ele>22.4</ele><time>2022-06-05T07:10:01.000Z</time></trkpt><trkpt lon="5.751585" lat="51.319317"><ele>22.4</ele><time>2022-06-05T07:10:02.000Z</time></trkpt><trkpt lon="5.751481" lat="51.319306"><ele>22.2</ele><time>2022-06-05T07:10:03.000Z</time></trkpt><trkpt lon="5.751372" lat="51.319298"><ele>22.2</ele><time>2022-06-05T07:10:04.000Z</time></trkpt><trkpt lon="5.751267" lat="51.31929"><ele>22.4</ele><time>2022-06-05T07:10:05.000Z</time></trkpt><trkpt lon="5.751166" lat="51.319283"><ele>22.4</ele><time>2022-06-05T07:10:06.000Z</time></trkpt><trkpt lon="5.751067" lat="51.319272"><ele>22.6</ele><time>2022-06-05T07:10:07.000Z</time></trkpt><trkpt lon="5.75097" lat="51.319264"><ele>22.6</ele><time>2022-06-05T07:10:08.000Z</time></trkpt><trkpt lon="5.750871" lat="51.319256"><ele>22.4</ele><time>2022-06-05T07:10:09.000Z</time></trkpt><trkpt lon="5.750773" lat="51.319245"><ele>22.4</ele><time>2022-06-05T07:10:10.000Z</time></trkpt><trkpt lon="5.750673" lat="51.319237"><ele>22.4</ele><time>2022-06-05T07:10:11.000Z</time></trkpt><trkpt lon="5.750573" lat="51.319233"><ele>22.4</ele><time>2022-06-05T07:10:12.000Z</time></trkpt><trkpt lon="5.750472" lat="51.319222"><ele>22.4</ele><time>2022-06-05T07:10:13.000Z</time></trkpt><trkpt lon="5.75036" lat="51.319218"><ele>22.4</ele><time>2022-06-05T07:10:14.000Z</time></trkpt><trkpt lon="5.750249" lat="51.31921"><ele>22.4</ele><time>2022-06-05T07:10:15.000Z</time></trkpt><trkpt lon="5.75014" lat="51.319206"><ele>22.4</ele><time>2022-06-05T07:10:16.000Z</time></trkpt><trkpt lon="5.75004" lat="51.319196"><ele>22.6</ele><time>2022-06-05T07:10:17.000Z</time></trkpt><trkpt lon="5.749939" lat="51.319187"><ele>22.6</ele><time>2022-06-05T07:10:18.000Z</time></trkpt><trkpt lon="5.749841" lat="51.319183"><ele>22.8</ele><time>2022-06-05T07:10:19.000Z</time></trkpt><trkpt lon="5.749746" lat="51.319176"><ele>22.8</ele><time>2022-06-05T07:10:20.000Z</time></trkpt><trkpt lon="5.749661" lat="51.319165"><ele>22.8</ele><time>2022-06-05T07:10:21.000Z</time></trkpt><trkpt lon="5.749585" lat="51.319155"><ele>22.8</ele><time>2022-06-05T07:10:22.000Z</time></trkpt><trkpt lon="5.749498" lat="51.319146"><ele>23</ele><time>2022-06-05T07:10:23.000Z</time></trkpt><trkpt lon="5.749417" lat="51.319138"><ele>23.2</ele><time>2022-06-05T07:10:24.000Z</time></trkpt><trkpt lon="5.749351" lat="51.319134"><ele>23.4</ele><time>2022-06-05T07:10:25.000Z</time></trkpt><trkpt lon="5.749287" lat="51.319138"><ele>23.4</ele><time>2022-06-05T07:10:26.000Z</time></trkpt><trkpt lon="5.74923" lat="51.319148"><ele>23.6</ele><time>2022-06-05T07:10:27.000Z</time></trkpt><trkpt lon="5.749173" lat="51.319164"><ele>23.8</ele><time>2022-06-05T07:10:28.000Z</time></trkpt><trkpt lon="5.749134" lat="51.319182"><ele>23.8</ele><time>2022-06-05T07:10:29.000Z</time></trkpt><trkpt lon="5.749095" lat="51.319224"><ele>24</ele><time>2022-06-05T07:10:30.000Z</time></trkpt><trkpt lon="5.749054" lat="51.319269"><ele>24</ele><time>2022-06-05T07:10:31.000Z</time></trkpt><trkpt lon="5.749025" lat="51.319314"><ele>24.2</ele><time>2022-06-05T07:10:32.000Z</time></trkpt><trkpt lon="5.748999" lat="51.31936"><ele>24.4</ele><time>2022-06-05T07:10:33.000Z</time></trkpt><trkpt lon="5.748972" lat="51.319407"><ele>24.6</ele><time>2022-06-05T07:10:34.000Z</time></trkpt><trkpt lon="5.748955" lat="51.31946"><ele>24.6</ele><time>2022-06-05T07:10:35.000Z</time></trkpt><trkpt lon="5.748944" lat="51.319514"><ele>24.6</ele><time>2022-06-05T07:10:36.000Z</time></trkpt><trkpt lon="5.748929" lat="51.319567"><ele>24.8</ele><time>2022-06-05T07:10:37.000Z</time></trkpt><trkpt lon="5.748913" lat="51.319627"><ele>24.6</ele><time>2022-06-05T07:10:38.000Z</time></trkpt><trkpt lon="5.748896" lat="51.319689"><ele>24.6</ele><time>2022-06-05T07:10:39.000Z</time></trkpt><trkpt lon="5.748879" lat="51.319754"><ele>24.6</ele><time>2022-06-05T07:10:40.000Z</time></trkpt><trkpt lon="5.748866" lat="51.319825"><ele>24.4</ele><time>2022-06-05T07:10:41.000Z</time></trkpt><trkpt lon="5.748854" lat="51.319898"><ele>24.4</ele><time>2022-06-05T07:10:42.000Z</time></trkpt><trkpt lon="5.748837" lat="51.31997"><ele>24.4</ele><time>2022-06-05T07:10:43.000Z</time></trkpt><trkpt lon="5.74882" lat="51.320043"><ele>24.4</ele><time>2022-06-05T07:10:44.000Z</time></trkpt><trkpt lon="5.748809" lat="51.320112"><ele>24.2</ele><time>2022-06-05T07:10:45.000Z</time></trkpt><trkpt lon="5.748799" lat="51.32018"><ele>24.2</ele><time>2022-06-05T07:10:46.000Z</time></trkpt><trkpt lon="5.748787" lat="51.320246"><ele>24.2</ele><time>2022-06-05T07:10:47.000Z</time></trkpt><trkpt lon="5.748776" lat="51.320313"><ele>24.4</ele><time>2022-06-05T07:10:48.000Z</time></trkpt><trkpt lon="5.748765" lat="51.320386"><ele>24.4</ele><time>2022-06-05T07:10:49.000Z</time></trkpt><trkpt lon="5.748755" lat="51.32045"><ele>24.4</ele><time>2022-06-05T07:10:50.000Z</time></trkpt><trkpt lon="5.748745" lat="51.320527"><ele>24.4</ele><time>2022-06-05T07:10:51.000Z</time></trkpt><trkpt lon="5.748739" lat="51.320583"><ele>24.2</ele><time>2022-06-05T07:10:52.000Z</time></trkpt><trkpt lon="5.748732" lat="51.320663"><ele>24.2</ele><time>2022-06-05T07:10:53.000Z</time></trkpt><trkpt lon="5.748727" lat="51.32074"><ele>24</ele><time>2022-06-05T07:10:54.000Z</time></trkpt><trkpt lon="5.748722" lat="51.320814"><ele>24</ele><time>2022-06-05T07:10:55.000Z</time></trkpt><trkpt lon="5.748718" lat="51.320886"><ele>24</ele><time>2022-06-05T07:10:56.000Z</time></trkpt><trkpt lon="5.748715" lat="51.320963"><ele>23.8</ele><time>2022-06-05T07:10:57.000Z</time></trkpt><trkpt lon="5.74871" lat="51.321031"><ele>23.8</ele><time>2022-06-05T07:10:58.000Z</time></trkpt><trkpt lon="5.748705" lat="51.321102"><ele>23.8</ele><time>2022-06-05T07:10:59.000Z</time></trkpt><trkpt lon="5.748702" lat="51.321172"><ele>23.8</ele><time>2022-06-05T07:11:00.000Z</time></trkpt><trkpt lon="5.748695" lat="51.321241"><ele>23.8</ele><time>2022-06-05T07:11:01.000Z</time></trkpt><trkpt lon="5.748687" lat="51.321306"><ele>23.8</ele><time>2022-06-05T07:11:02.000Z</time></trkpt><trkpt lon="5.748674" lat="51.321378"><ele>23.6</ele><time>2022-06-05T07:11:03.000Z</time></trkpt><trkpt lon="5.748664" lat="51.32145"><ele>23.8</ele><time>2022-06-05T07:11:04.000Z</time></trkpt><trkpt lon="5.748651" lat="51.321519"><ele>23.8</ele><time>2022-06-05T07:11:05.000Z</time></trkpt><trkpt lon="5.748639" lat="51.321588"><ele>23.8</ele><time>2022-06-05T07:11:06.000Z</time></trkpt><trkpt lon="5.748625" lat="51.321659"><ele>24</ele><time>2022-06-05T07:11:07.000Z</time></trkpt><trkpt lon="5.748611" lat="51.321727"><ele>24</ele><time>2022-06-05T07:11:08.000Z</time></trkpt><trkpt lon="5.748597" lat="51.321798"><ele>24</ele><time>2022-06-05T07:11:09.000Z</time></trkpt><trkpt lon="5.748583" lat="51.321862"><ele>24</ele><time>2022-06-05T07:11:10.000Z</time></trkpt><trkpt lon="5.748569" lat="51.321927"><ele>24.2</ele><time>2022-06-05T07:11:11.000Z</time></trkpt><trkpt lon="5.748557" lat="51.321993"><ele>24.2</ele><time>2022-06-05T07:11:12.000Z</time></trkpt><trkpt lon="5.748542" lat="51.322053"><ele>24.2</ele><time>2022-06-05T07:11:13.000Z</time></trkpt><trkpt lon="5.74853" lat="51.322114"><ele>24</ele><time>2022-06-05T07:11:14.000Z</time></trkpt><trkpt lon="5.748519" lat="51.322179"><ele>24</ele><time>2022-06-05T07:11:15.000Z</time></trkpt><trkpt lon="5.748507" lat="51.322247"><ele>24.2</ele><time>2022-06-05T07:11:16.000Z</time></trkpt><trkpt lon="5.748494" lat="51.32232"><ele>24.4</ele><time>2022-06-05T07:11:17.000Z</time></trkpt><trkpt lon="5.74848" lat="51.322393"><ele>24.4</ele><time>2022-06-05T07:11:18.000Z</time></trkpt><trkpt lon="5.748467" lat="51.322466"><ele>24.4</ele><time>2022-06-05T07:11:19.000Z</time></trkpt><trkpt lon="5.748455" lat="51.322538"><ele>24.4</ele><time>2022-06-05T07:11:20.000Z</time></trkpt><trkpt lon="5.748448" lat="51.3226"><ele>24.4</ele><time>2022-06-05T07:11:21.000Z</time></trkpt><trkpt lon="5.748439" lat="51.322684"><ele>24.6</ele><time>2022-06-05T07:11:22.000Z</time></trkpt><trkpt lon="5.748427" lat="51.322759"><ele>24.8</ele><time>2022-06-05T07:11:23.000Z</time></trkpt><trkpt lon="5.748415" lat="51.322827"><ele>24.8</ele><time>2022-06-05T07:11:24.000Z</time></trkpt><trkpt lon="5.748404" lat="51.322895"><ele>24.8</ele><time>2022-06-05T07:11:25.000Z</time></trkpt><trkpt lon="5.748395" lat="51.322968"><ele>25</ele><time>2022-06-05T07:11:26.000Z</time></trkpt><trkpt lon="5.748387" lat="51.323037"><ele>24.8</ele><time>2022-06-05T07:11:27.000Z</time></trkpt><trkpt lon="5.748378" lat="51.323106"><ele>24.8</ele><time>2022-06-05T07:11:28.000Z</time></trkpt><trkpt lon="5.748364" lat="51.323179"><ele>25</ele><time>2022-06-05T07:11:29.000Z</time></trkpt><trkpt lon="5.748352" lat="51.323244"><ele>25</ele><time>2022-06-05T07:11:30.000Z</time></trkpt><trkpt lon="5.748341" lat="51.323316"><ele>25</ele><time>2022-06-05T07:11:31.000Z</time></trkpt><trkpt lon="5.748329" lat="51.323386"><ele>25</ele><time>2022-06-05T07:11:32.000Z</time></trkpt><trkpt lon="5.748317" lat="51.323461"><ele>24.8</ele><time>2022-06-05T07:11:33.000Z</time></trkpt><trkpt lon="5.748308" lat="51.323534"><ele>24.8</ele><time>2022-06-05T07:11:34.000Z</time></trkpt><trkpt lon="5.748298" lat="51.323606"><ele>24.6</ele><time>2022-06-05T07:11:35.000Z</time></trkpt><trkpt lon="5.748288" lat="51.323679"><ele>24.8</ele><time>2022-06-05T07:11:36.000Z</time></trkpt><trkpt lon="5.748278" lat="51.323748"><ele>24.8</ele><time>2022-06-05T07:11:37.000Z</time></trkpt><trkpt lon="5.748265" lat="51.323822"><ele>24.8</ele><time>2022-06-05T07:11:38.000Z</time></trkpt><trkpt lon="5.748258" lat="51.323895"><ele>25</ele><time>2022-06-05T07:11:39.000Z</time></trkpt><trkpt lon="5.748249" lat="51.323964"><ele>25</ele><time>2022-06-05T07:11:40.000Z</time></trkpt><trkpt lon="5.748236" lat="51.324036"><ele>24.8</ele><time>2022-06-05T07:11:41.000Z</time></trkpt><trkpt lon="5.748222" lat="51.324106"><ele>25</ele><time>2022-06-05T07:11:42.000Z</time></trkpt><trkpt lon="5.74821" lat="51.324174"><ele>25</ele><time>2022-06-05T07:11:43.000Z</time></trkpt><trkpt lon="5.748199" lat="51.324242"><ele>25</ele><time>2022-06-05T07:11:44.000Z</time></trkpt><trkpt lon="5.748187" lat="51.324312"><ele>25</ele><time>2022-06-05T07:11:45.000Z</time></trkpt><trkpt lon="5.748179" lat="51.324373"><ele>25</ele><time>2022-06-05T07:11:46.000Z</time></trkpt><trkpt lon="5.748167" lat="51.324448"><ele>24.8</ele><time>2022-06-05T07:11:47.000Z</time></trkpt><trkpt lon="5.748155" lat="51.324509"><ele>24.8</ele><time>2022-06-05T07:11:48.000Z</time></trkpt><trkpt lon="5.748146" lat="51.32458"><ele>24.6</ele><time>2022-06-05T07:11:49.000Z</time></trkpt><trkpt lon="5.748135" lat="51.324648"><ele>24.6</ele><time>2022-06-05T07:11:50.000Z</time></trkpt><trkpt lon="5.748125" lat="51.324705"><ele>24.6</ele><time>2022-06-05T07:11:51.000Z</time></trkpt><trkpt lon="5.748115" lat="51.324763"><ele>24.8</ele><time>2022-06-05T07:11:52.000Z</time></trkpt><trkpt lon="5.748107" lat="51.324823"><ele>24.8</ele><time>2022-06-05T07:11:53.000Z</time></trkpt><trkpt lon="5.748099" lat="51.324887"><ele>25</ele><time>2022-06-05T07:11:54.000Z</time></trkpt><trkpt lon="5.748089" lat="51.324949"><ele>25</ele><time>2022-06-05T07:11:55.000Z</time></trkpt><trkpt lon="5.748077" lat="51.325017"><ele>25</ele><time>2022-06-05T07:11:56.000Z</time></trkpt><trkpt lon="5.748067" lat="51.325083"><ele>25</ele><time>2022-06-05T07:11:57.000Z</time></trkpt><trkpt lon="5.748058" lat="51.325144"><ele>25</ele><time>2022-06-05T07:11:58.000Z</time></trkpt><trkpt lon="5.748041" lat="51.325212"><ele>24.8</ele><time>2022-06-05T07:11:59.000Z</time></trkpt><trkpt lon="5.748021" lat="51.32528"><ele>24.8</ele><time>2022-06-05T07:12:00.000Z</time></trkpt><trkpt lon="5.747999" lat="51.325349"><ele>24.8</ele><time>2022-06-05T07:12:01.000Z</time></trkpt><trkpt lon="5.74797" lat="51.325416"><ele>24.8</ele><time>2022-06-05T07:12:02.000Z</time></trkpt><trkpt lon="5.747935" lat="51.325487"><ele>24.8</ele><time>2022-06-05T07:12:03.000Z</time></trkpt><trkpt lon="5.747895" lat="51.325559"><ele>24.8</ele><time>2022-06-05T07:12:04.000Z</time></trkpt><trkpt lon="5.747858" lat="51.325627"><ele>24.6</ele><time>2022-06-05T07:12:05.000Z</time></trkpt><trkpt lon="5.74783" lat="51.325699"><ele>24.4</ele><time>2022-06-05T07:12:06.000Z</time></trkpt><trkpt lon="5.747808" lat="51.325768"><ele>24.4</ele><time>2022-06-05T07:12:07.000Z</time></trkpt><trkpt lon="5.747791" lat="51.325834"><ele>24.2</ele><time>2022-06-05T07:12:08.000Z</time></trkpt><trkpt lon="5.747776" lat="51.325909"><ele>24</ele><time>2022-06-05T07:12:09.000Z</time></trkpt><trkpt lon="5.747762" lat="51.325978"><ele>24</ele><time>2022-06-05T07:12:10.000Z</time></trkpt><trkpt lon="5.747749" lat="51.326047"><ele>24</ele><time>2022-06-05T07:12:11.000Z</time></trkpt><trkpt lon="5.747739" lat="51.32612"><ele>23.8</ele><time>2022-06-05T07:12:12.000Z</time></trkpt><trkpt lon="5.74773" lat="51.326172"><ele>23.8</ele><time>2022-06-05T07:12:13.000Z</time></trkpt><trkpt lon="5.747718" lat="51.326261"><ele>23.8</ele><time>2022-06-05T07:12:14.000Z</time></trkpt><trkpt lon="5.747705" lat="51.326337"><ele>23.8</ele><time>2022-06-05T07:12:15.000Z</time></trkpt><trkpt lon="5.747694" lat="51.32641"><ele>23.8</ele><time>2022-06-05T07:12:16.000Z</time></trkpt><trkpt lon="5.747681" lat="51.326477"><ele>23.8</ele><time>2022-06-05T07:12:17.000Z</time></trkpt><trkpt lon="5.747669" lat="51.32655"><ele>23.8</ele><time>2022-06-05T07:12:18.000Z</time></trkpt><trkpt lon="5.747659" lat="51.32662"><ele>23.8</ele><time>2022-06-05T07:12:19.000Z</time></trkpt><trkpt lon="5.747647" lat="51.326688"><ele>23.8</ele><time>2022-06-05T07:12:20.000Z</time></trkpt><trkpt lon="5.747636" lat="51.326755"><ele>23.8</ele><time>2022-06-05T07:12:21.000Z</time></trkpt><trkpt lon="5.747625" lat="51.326827"><ele>23.8</ele><time>2022-06-05T07:12:22.000Z</time></trkpt><trkpt lon="5.747615" lat="51.326898"><ele>23.8</ele><time>2022-06-05T07:12:23.000Z</time></trkpt><trkpt lon="5.747604" lat="51.326969"><ele>23.8</ele><time>2022-06-05T07:12:24.000Z</time></trkpt><trkpt lon="5.747593" lat="51.327036"><ele>23.8</ele><time>2022-06-05T07:12:25.000Z</time></trkpt><trkpt lon="5.747579" lat="51.327108"><ele>23.6</ele><time>2022-06-05T07:12:26.000Z</time></trkpt><trkpt lon="5.747565" lat="51.327172"><ele>23.6</ele><time>2022-06-05T07:12:27.000Z</time></trkpt><trkpt lon="5.747554" lat="51.327238"><ele>23.8</ele><time>2022-06-05T07:12:28.000Z</time></trkpt><trkpt lon="5.747544" lat="51.327301"><ele>24</ele><time>2022-06-05T07:12:29.000Z</time></trkpt><trkpt lon="5.747532" lat="51.327371"><ele>24</ele><time>2022-06-05T07:12:30.000Z</time></trkpt><trkpt lon="5.747517" lat="51.327439"><ele>24</ele><time>2022-06-05T07:12:31.000Z</time></trkpt><trkpt lon="5.747506" lat="51.327515"><ele>24</ele><time>2022-06-05T07:12:32.000Z</time></trkpt><trkpt lon="5.747494" lat="51.327587"><ele>24</ele><time>2022-06-05T07:12:33.000Z</time></trkpt><trkpt lon="5.74748" lat="51.327664"><ele>24</ele><time>2022-06-05T07:12:34.000Z</time></trkpt><trkpt lon="5.747469" lat="51.327728"><ele>24.2</ele><time>2022-06-05T07:12:35.000Z</time></trkpt><trkpt lon="5.747456" lat="51.327809"><ele>24</ele><time>2022-06-05T07:12:36.000Z</time></trkpt><trkpt lon="5.747442" lat="51.327882"><ele>24</ele><time>2022-06-05T07:12:37.000Z</time></trkpt><trkpt lon="5.74743" lat="51.327954"><ele>24</ele><time>2022-06-05T07:12:38.000Z</time></trkpt><trkpt lon="5.747417" lat="51.328022"><ele>24</ele><time>2022-06-05T07:12:39.000Z</time></trkpt><trkpt lon="5.747409" lat="51.328079"><ele>24.2</ele><time>2022-06-05T07:12:40.000Z</time></trkpt><trkpt lon="5.747396" lat="51.32816"><ele>24.2</ele><time>2022-06-05T07:12:41.000Z</time></trkpt><trkpt lon="5.747382" lat="51.32823"><ele>24.2</ele><time>2022-06-05T07:12:42.000Z</time></trkpt><trkpt lon="5.74737" lat="51.328298"><ele>24.2</ele><time>2022-06-05T07:12:43.000Z</time></trkpt><trkpt lon="5.747359" lat="51.328359"><ele>24.2</ele><time>2022-06-05T07:12:44.000Z</time></trkpt><trkpt lon="5.747348" lat="51.328426"><ele>24</ele><time>2022-06-05T07:12:45.000Z</time></trkpt><trkpt lon="5.747331" lat="51.328496"><ele>24</ele><time>2022-06-05T07:12:46.000Z</time></trkpt><trkpt lon="5.747315" lat="51.328566"><ele>24</ele><time>2022-06-05T07:12:47.000Z</time></trkpt><trkpt lon="5.747302" lat="51.328637"><ele>24</ele><time>2022-06-05T07:12:48.000Z</time></trkpt><trkpt lon="5.747291" lat="51.328703"><ele>24</ele><time>2022-06-05T07:12:49.000Z</time></trkpt><trkpt lon="5.74728" lat="51.328778"><ele>23.8</ele><time>2022-06-05T07:12:50.000Z</time></trkpt><trkpt lon="5.747271" lat="51.328846"><ele>23.8</ele><time>2022-06-05T07:12:51.000Z</time></trkpt><trkpt lon="5.747257" lat="51.328916"><ele>24</ele><time>2022-06-05T07:12:52.000Z</time></trkpt><trkpt lon="5.747246" lat="51.328971"><ele>24</ele><time>2022-06-05T07:12:53.000Z</time></trkpt><trkpt lon="5.747231" lat="51.32906"><ele>24</ele><time>2022-06-05T07:12:54.000Z</time></trkpt><trkpt lon="5.747222" lat="51.329134"><ele>24.2</ele><time>2022-06-05T07:12:55.000Z</time></trkpt><trkpt lon="5.747212" lat="51.329206"><ele>24.2</ele><time>2022-06-05T07:12:56.000Z</time></trkpt><trkpt lon="5.747204" lat="51.329275"><ele>24.2</ele><time>2022-06-05T07:12:57.000Z</time></trkpt><trkpt lon="5.747194" lat="51.329347"><ele>24.2</ele><time>2022-06-05T07:12:58.000Z</time></trkpt><trkpt lon="5.747184" lat="51.329418"><ele>24.4</ele><time>2022-06-05T07:12:59.000Z</time></trkpt><trkpt lon="5.747174" lat="51.329494"><ele>24.4</ele><time>2022-06-05T07:13:00.000Z</time></trkpt><trkpt lon="5.747163" lat="51.329567"><ele>24.4</ele><time>2022-06-05T07:13:01.000Z</time></trkpt><trkpt lon="5.747149" lat="51.329645"><ele>24.4</ele><time>2022-06-05T07:13:02.000Z</time></trkpt><trkpt lon="5.747137" lat="51.32972"><ele>24.4</ele><time>2022-06-05T07:13:03.000Z</time></trkpt><trkpt lon="5.747126" lat="51.329793"><ele>24.4</ele><time>2022-06-05T07:13:04.000Z</time></trkpt><trkpt lon="5.747117" lat="51.329854"><ele>24.4</ele><time>2022-06-05T07:13:05.000Z</time></trkpt><trkpt lon="5.747104" lat="51.329931"><ele>24.4</ele><time>2022-06-05T07:13:06.000Z</time></trkpt><trkpt lon="5.747094" lat="51.32999"><ele>24.4</ele><time>2022-06-05T07:13:07.000Z</time></trkpt><trkpt lon="5.747083" lat="51.330069"><ele>24.4</ele><time>2022-06-05T07:13:08.000Z</time></trkpt><trkpt lon="5.747072" lat="51.330144"><ele>24.4</ele><time>2022-06-05T07:13:09.000Z</time></trkpt><trkpt lon="5.74706" lat="51.330209"><ele>24.4</ele><time>2022-06-05T07:13:10.000Z</time></trkpt><trkpt lon="5.747049" lat="51.330277"><ele>24.2</ele><time>2022-06-05T07:13:11.000Z</time></trkpt><trkpt lon="5.74704" lat="51.330341"><ele>24.2</ele><time>2022-06-05T07:13:12.000Z</time></trkpt><trkpt lon="5.747029" lat="51.330409"><ele>24.2</ele><time>2022-06-05T07:13:13.000Z</time></trkpt><trkpt lon="5.747019" lat="51.330478"><ele>24.2</ele><time>2022-06-05T07:13:14.000Z</time></trkpt><trkpt lon="5.747009" lat="51.330548"><ele>24.2</ele><time>2022-06-05T07:13:15.000Z</time></trkpt><trkpt lon="5.746997" lat="51.330617"><ele>24.2</ele><time>2022-06-05T07:13:16.000Z</time></trkpt><trkpt lon="5.746985" lat="51.330686"><ele>24.2</ele><time>2022-06-05T07:13:17.000Z</time></trkpt><trkpt lon="5.746975" lat="51.330745"><ele>24</ele><time>2022-06-05T07:13:18.000Z</time></trkpt><trkpt lon="5.746962" lat="51.33082"><ele>24.2</ele><time>2022-06-05T07:13:19.000Z</time></trkpt><trkpt lon="5.746951" lat="51.330888"><ele>24</ele><time>2022-06-05T07:13:20.000Z</time></trkpt><trkpt lon="5.746939" lat="51.330957"><ele>24</ele><time>2022-06-05T07:13:21.000Z</time></trkpt><trkpt lon="5.746926" lat="51.331023"><ele>24</ele><time>2022-06-05T07:13:22.000Z</time></trkpt><trkpt lon="5.746914" lat="51.331093"><ele>24</ele><time>2022-06-05T07:13:23.000Z</time></trkpt><trkpt lon="5.746905" lat="51.331159"><ele>23.8</ele><time>2022-06-05T07:13:24.000Z</time></trkpt><trkpt lon="5.746895" lat="51.331224"><ele>23.8</ele><time>2022-06-05T07:13:25.000Z</time></trkpt><trkpt lon="5.746887" lat="51.331289"><ele>23.6</ele><time>2022-06-05T07:13:26.000Z</time></trkpt><trkpt lon="5.746882" lat="51.331353"><ele>23.2</ele><time>2022-06-05T07:13:27.000Z</time></trkpt><trkpt lon="5.746882" lat="51.33142"><ele>23.2</ele><time>2022-06-05T07:13:28.000Z</time></trkpt><trkpt lon="5.746893" lat="51.331491"><ele>23</ele><time>2022-06-05T07:13:29.000Z</time></trkpt><trkpt lon="5.746919" lat="51.331555"><ele>23</ele><time>2022-06-05T07:13:30.000Z</time></trkpt><trkpt lon="5.746962" lat="51.33162"><ele>22.8</ele><time>2022-06-05T07:13:31.000Z</time></trkpt><trkpt lon="5.747021" lat="51.331681"><ele>22.6</ele><time>2022-06-05T07:13:32.000Z</time></trkpt><trkpt lon="5.747094" lat="51.331735"><ele>22.4</ele><time>2022-06-05T07:13:33.000Z</time></trkpt><trkpt lon="5.747173" lat="51.331781"><ele>22.4</ele><time>2022-06-05T07:13:34.000Z</time></trkpt><trkpt lon="5.747245" lat="51.331815"><ele>22.2</ele><time>2022-06-05T07:13:35.000Z</time></trkpt><trkpt lon="5.747364" lat="51.331858"><ele>22.2</ele><time>2022-06-05T07:13:36.000Z</time></trkpt><trkpt lon="5.747472" lat="51.331882"><ele>22.2</ele><time>2022-06-05T07:13:37.000Z</time></trkpt><trkpt lon="5.747583" lat="51.331901"><ele>22.2</ele><time>2022-06-05T07:13:38.000Z</time></trkpt><trkpt lon="5.747692" lat="51.331916"><ele>22.2</ele><time>2022-06-05T07:13:39.000Z</time></trkpt><trkpt lon="5.747796" lat="51.331927"><ele>22.2</ele><time>2022-06-05T07:13:40.000Z</time></trkpt><trkpt lon="5.74791" lat="51.331939"><ele>22.2</ele><time>2022-06-05T07:13:41.000Z</time></trkpt><trkpt lon="5.748018" lat="51.331951"><ele>22.2</ele><time>2022-06-05T07:13:42.000Z</time></trkpt><trkpt lon="5.748128" lat="51.331958"><ele>22.2</ele><time>2022-06-05T07:13:43.000Z</time></trkpt><trkpt lon="5.748236" lat="51.33197"><ele>22.2</ele><time>2022-06-05T07:13:44.000Z</time></trkpt><trkpt lon="5.748341" lat="51.331977"><ele>22</ele><time>2022-06-05T07:13:45.000Z</time></trkpt><trkpt lon="5.748451" lat="51.331985"><ele>22</ele><time>2022-06-05T07:13:46.000Z</time></trkpt><trkpt lon="5.748549" lat="51.331996"><ele>22</ele><time>2022-06-05T07:13:47.000Z</time></trkpt><trkpt lon="5.748648" lat="51.332008"><ele>22.2</ele><time>2022-06-05T07:13:48.000Z</time></trkpt><trkpt lon="5.748749" lat="51.332019"><ele>22.2</ele><time>2022-06-05T07:13:49.000Z</time></trkpt><trkpt lon="5.74885" lat="51.332034"><ele>22.4</ele><time>2022-06-05T07:13:50.000Z</time></trkpt><trkpt lon="5.74895" lat="51.332046"><ele>22.4</ele><time>2022-06-05T07:13:51.000Z</time></trkpt><trkpt lon="5.74905" lat="51.332057"><ele>22.4</ele><time>2022-06-05T07:13:52.000Z</time></trkpt><trkpt lon="5.749164" lat="51.332073"><ele>22.4</ele><time>2022-06-05T07:13:53.000Z</time></trkpt><trkpt lon="5.749277" lat="51.332084"><ele>22.4</ele><time>2022-06-05T07:13:54.000Z</time></trkpt><trkpt lon="5.749386" lat="51.332095"><ele>22.4</ele><time>2022-06-05T07:13:55.000Z</time></trkpt><trkpt lon="5.749502" lat="51.332103"><ele>22.4</ele><time>2022-06-05T07:13:56.000Z</time></trkpt><trkpt lon="5.749611" lat="51.332114"><ele>22.4</ele><time>2022-06-05T07:13:57.000Z</time></trkpt><trkpt lon="5.749714" lat="51.332124"><ele>22.2</ele><time>2022-06-05T07:13:58.000Z</time></trkpt><trkpt lon="5.749835" lat="51.332134"><ele>22.2</ele><time>2022-06-05T07:13:59.000Z</time></trkpt><trkpt lon="5.749944" lat="51.332145"><ele>22.4</ele><time>2022-06-05T07:14:00.000Z</time></trkpt><trkpt lon="5.750052" lat="51.33216"><ele>22.4</ele><time>2022-06-05T07:14:01.000Z</time></trkpt><trkpt lon="5.750155" lat="51.332168"><ele>22.4</ele><time>2022-06-05T07:14:02.000Z</time></trkpt><trkpt lon="5.750265" lat="51.33218"><ele>22.2</ele><time>2022-06-05T07:14:03.000Z</time></trkpt><trkpt lon="5.750366" lat="51.332187"><ele>22.2</ele><time>2022-06-05T07:14:04.000Z</time></trkpt><trkpt lon="5.750466" lat="51.332198"><ele>22.2</ele><time>2022-06-05T07:14:05.000Z</time></trkpt><trkpt lon="5.750573" lat="51.33221"><ele>22.2</ele><time>2022-06-05T07:14:06.000Z</time></trkpt><trkpt lon="5.750677" lat="51.332225"><ele>22.4</ele><time>2022-06-05T07:14:07.000Z</time></trkpt><trkpt lon="5.75078" lat="51.33224"><ele>22.4</ele><time>2022-06-05T07:14:08.000Z</time></trkpt><trkpt lon="5.75087" lat="51.332256"><ele>22.4</ele><time>2022-06-05T07:14:09.000Z</time></trkpt><trkpt lon="5.750956" lat="51.332267"><ele>22.4</ele><time>2022-06-05T07:14:10.000Z</time></trkpt><trkpt lon="5.751051" lat="51.332278"><ele>22.4</ele><time>2022-06-05T07:14:11.000Z</time></trkpt><trkpt lon="5.751155" lat="51.33229"><ele>22.4</ele><time>2022-06-05T07:14:12.000Z</time></trkpt><trkpt lon="5.751265" lat="51.332305"><ele>22.4</ele><time>2022-06-05T07:14:13.000Z</time></trkpt><trkpt lon="5.751369" lat="51.33232"><ele>22.4</ele><time>2022-06-05T07:14:14.000Z</time></trkpt><trkpt lon="5.751474" lat="51.332336"><ele>22.4</ele><time>2022-06-05T07:14:15.000Z</time></trkpt><trkpt lon="5.751572" lat="51.332347"><ele>22.4</ele><time>2022-06-05T07:14:16.000Z</time></trkpt><trkpt lon="5.751677" lat="51.332362"><ele>22.4</ele><time>2022-06-05T07:14:17.000Z</time></trkpt><trkpt lon="5.751807" lat="51.332374"><ele>22.4</ele><time>2022-06-05T07:14:18.000Z</time></trkpt><trkpt lon="5.751912" lat="51.332389"><ele>22.4</ele><time>2022-06-05T07:14:19.000Z</time></trkpt><trkpt lon="5.752022" lat="51.332404"><ele>22.4</ele><time>2022-06-05T07:14:20.000Z</time></trkpt><trkpt lon="5.752134" lat="51.332426"><ele>22.4</ele><time>2022-06-05T07:14:21.000Z</time></trkpt><trkpt lon="5.752271" lat="51.332439"><ele>22.4</ele><time>2022-06-05T07:14:22.000Z</time></trkpt><trkpt lon="5.752385" lat="51.33245"><ele>22.2</ele><time>2022-06-05T07:14:23.000Z</time></trkpt><trkpt lon="5.752511" lat="51.332465"><ele>22.2</ele><time>2022-06-05T07:14:24.000Z</time></trkpt><trkpt lon="5.752615" lat="51.332481"><ele>22.2</ele><time>2022-06-05T07:14:25.000Z</time></trkpt><trkpt lon="5.752731" lat="51.332496"><ele>22.4</ele><time>2022-06-05T07:14:26.000Z</time></trkpt><trkpt lon="5.752869" lat="51.332519"><ele>22.4</ele><time>2022-06-05T07:14:27.000Z</time></trkpt><trkpt lon="5.752982" lat="51.332534"><ele>22.4</ele><time>2022-06-05T07:14:28.000Z</time></trkpt><trkpt lon="5.753092" lat="51.332553"><ele>22.4</ele><time>2022-06-05T07:14:29.000Z</time></trkpt><trkpt lon="5.753196" lat="51.332572"><ele>22.4</ele><time>2022-06-05T07:14:30.000Z</time></trkpt><trkpt lon="5.7533" lat="51.332587"><ele>22.4</ele><time>2022-06-05T07:14:31.000Z</time></trkpt><trkpt lon="5.753422" lat="51.332599"><ele>22.4</ele><time>2022-06-05T07:14:32.000Z</time></trkpt><trkpt lon="5.753542" lat="51.332611"><ele>22.6</ele><time>2022-06-05T07:14:33.000Z</time></trkpt><trkpt lon="5.753653" lat="51.332622"><ele>22.6</ele><time>2022-06-05T07:14:34.000Z</time></trkpt><trkpt lon="5.753767" lat="51.332637"><ele>22.6</ele><time>2022-06-05T07:14:35.000Z</time></trkpt><trkpt lon="5.753894" lat="51.332649"><ele>22.6</ele><time>2022-06-05T07:14:36.000Z</time></trkpt><trkpt lon="5.754008" lat="51.332659"><ele>22.6</ele><time>2022-06-05T07:14:37.000Z</time></trkpt><trkpt lon="5.754148" lat="51.332668"><ele>22.6</ele><time>2022-06-05T07:14:38.000Z</time></trkpt><trkpt lon="5.754266" lat="51.332683"><ele>22.6</ele><time>2022-06-05T07:14:39.000Z</time></trkpt><trkpt lon="5.754393" lat="51.332691"><ele>22.6</ele><time>2022-06-05T07:14:40.000Z</time></trkpt><trkpt lon="5.754506" lat="51.33271"><ele>22.6</ele><time>2022-06-05T07:14:41.000Z</time></trkpt><trkpt lon="5.754619" lat="51.332728"><ele>22.6</ele><time>2022-06-05T07:14:42.000Z</time></trkpt><trkpt lon="5.754756" lat="51.332744"><ele>22.6</ele><time>2022-06-05T07:14:43.000Z</time></trkpt><trkpt lon="5.754894" lat="51.332752"><ele>22.4</ele><time>2022-06-05T07:14:44.000Z</time></trkpt><trkpt lon="5.755025" lat="51.332763"><ele>22.2</ele><time>2022-06-05T07:14:45.000Z</time></trkpt><trkpt lon="5.755166" lat="51.332774"><ele>22</ele><time>2022-06-05T07:14:46.000Z</time></trkpt><trkpt lon="5.755299" lat="51.332786"><ele>22</ele><time>2022-06-05T07:14:47.000Z</time></trkpt><trkpt lon="5.755437" lat="51.332797"><ele>22</ele><time>2022-06-05T07:14:48.000Z</time></trkpt><trkpt lon="5.755561" lat="51.332813"><ele>22</ele><time>2022-06-05T07:14:49.000Z</time></trkpt><trkpt lon="5.755679" lat="51.332828"><ele>22</ele><time>2022-06-05T07:14:50.000Z</time></trkpt><trkpt lon="5.755791" lat="51.332839"><ele>22.2</ele><time>2022-06-05T07:14:51.000Z</time></trkpt><trkpt lon="5.755902" lat="51.332854"><ele>22.2</ele><time>2022-06-05T07:14:52.000Z</time></trkpt><trkpt lon="5.755975" lat="51.332868"><ele>22.2</ele><time>2022-06-05T07:14:53.000Z</time></trkpt><trkpt lon="5.756106" lat="51.332892"><ele>22.2</ele><time>2022-06-05T07:14:54.000Z</time></trkpt><trkpt lon="5.75621" lat="51.332908"><ele>22.2</ele><time>2022-06-05T07:14:55.000Z</time></trkpt><trkpt lon="5.756312" lat="51.332923"><ele>22.2</ele><time>2022-06-05T07:14:56.000Z</time></trkpt><trkpt lon="5.756416" lat="51.332942"><ele>22.2</ele><time>2022-06-05T07:14:57.000Z</time></trkpt><trkpt lon="5.756524" lat="51.332957"><ele>22.2</ele><time>2022-06-05T07:14:58.000Z</time></trkpt><trkpt lon="5.756624" lat="51.332975"><ele>22.2</ele><time>2022-06-05T07:14:59.000Z</time></trkpt><trkpt lon="5.756735" lat="51.332995"><ele>22.2</ele><time>2022-06-05T07:15:00.000Z</time></trkpt><trkpt lon="5.75684" lat="51.333011"><ele>22.2</ele><time>2022-06-05T07:15:01.000Z</time></trkpt><trkpt lon="5.756937" lat="51.333028"><ele>22.4</ele><time>2022-06-05T07:15:02.000Z</time></trkpt><trkpt lon="5.75704" lat="51.333047"><ele>22.4</ele><time>2022-06-05T07:15:03.000Z</time></trkpt><trkpt lon="5.757149" lat="51.333067"><ele>22.2</ele><time>2022-06-05T07:15:04.000Z</time></trkpt><trkpt lon="5.757251" lat="51.333086"><ele>22.2</ele><time>2022-06-05T07:15:05.000Z</time></trkpt><trkpt lon="5.757356" lat="51.333102"><ele>22.2</ele><time>2022-06-05T07:15:06.000Z</time></trkpt><trkpt lon="5.757452" lat="51.333124"><ele>22.2</ele><time>2022-06-05T07:15:07.000Z</time></trkpt><trkpt lon="5.757546" lat="51.333142"><ele>22.2</ele><time>2022-06-05T07:15:08.000Z</time></trkpt><trkpt lon="5.757659" lat="51.333163"><ele>22.2</ele><time>2022-06-05T07:15:09.000Z</time></trkpt><trkpt lon="5.75776" lat="51.333182"><ele>22.2</ele><time>2022-06-05T07:15:10.000Z</time></trkpt><trkpt lon="5.757862" lat="51.333201"><ele>22.2</ele><time>2022-06-05T07:15:11.000Z</time></trkpt><trkpt lon="5.757959" lat="51.33322"><ele>22.2</ele><time>2022-06-05T07:15:12.000Z</time></trkpt><trkpt lon="5.758057" lat="51.333238"><ele>22.2</ele><time>2022-06-05T07:15:13.000Z</time></trkpt><trkpt lon="5.758165" lat="51.333258"><ele>22.2</ele><time>2022-06-05T07:15:14.000Z</time></trkpt><trkpt lon="5.758275" lat="51.333274"><ele>22.2</ele><time>2022-06-05T07:15:15.000Z</time></trkpt><trkpt lon="5.758369" lat="51.333287"><ele>22.2</ele><time>2022-06-05T07:15:16.000Z</time></trkpt><trkpt lon="5.75849" lat="51.333304"><ele>22.2</ele><time>2022-06-05T07:15:17.000Z</time></trkpt><trkpt lon="5.75862" lat="51.333315"><ele>22.4</ele><time>2022-06-05T07:15:18.000Z</time></trkpt><trkpt lon="5.758744" lat="51.333327"><ele>22.4</ele><time>2022-06-05T07:15:19.000Z</time></trkpt><trkpt lon="5.758869" lat="51.333342"><ele>22.4</ele><time>2022-06-05T07:15:20.000Z</time></trkpt><trkpt lon="5.758986" lat="51.333358"><ele>22.2</ele><time>2022-06-05T07:15:21.000Z</time></trkpt><trkpt lon="5.759098" lat="51.333369"><ele>22.2</ele><time>2022-06-05T07:15:22.000Z</time></trkpt><trkpt lon="5.759218" lat="51.333381"><ele>22.2</ele><time>2022-06-05T07:15:23.000Z</time></trkpt><trkpt lon="5.759332" lat="51.333392"><ele>22.2</ele><time>2022-06-05T07:15:24.000Z</time></trkpt><trkpt lon="5.759444" lat="51.333407"><ele>22.2</ele><time>2022-06-05T07:15:25.000Z</time></trkpt><trkpt lon="5.759564" lat="51.333422"><ele>22.2</ele><time>2022-06-05T07:15:26.000Z</time></trkpt><trkpt lon="5.759675" lat="51.333441"><ele>22.4</ele><time>2022-06-05T07:15:27.000Z</time></trkpt><trkpt lon="5.759788" lat="51.333457"><ele>22.4</ele><time>2022-06-05T07:15:28.000Z</time></trkpt><trkpt lon="5.759899" lat="51.333472"><ele>22.2</ele><time>2022-06-05T07:15:29.000Z</time></trkpt><trkpt lon="5.760003" lat="51.333488"><ele>22.4</ele><time>2022-06-05T07:15:30.000Z</time></trkpt><trkpt lon="5.760108" lat="51.33351"><ele>22.4</ele><time>2022-06-05T07:15:31.000Z</time></trkpt><trkpt lon="5.760206" lat="51.333525"><ele>22.4</ele><time>2022-06-05T07:15:32.000Z</time></trkpt><trkpt lon="5.760305" lat="51.33354"><ele>22.4</ele><time>2022-06-05T07:15:33.000Z</time></trkpt><trkpt lon="5.760418" lat="51.333556"><ele>22.4</ele><time>2022-06-05T07:15:34.000Z</time></trkpt><trkpt lon="5.760525" lat="51.333574"><ele>22.4</ele><time>2022-06-05T07:15:35.000Z</time></trkpt><trkpt lon="5.760633" lat="51.33359"><ele>22.4</ele><time>2022-06-05T07:15:36.000Z</time></trkpt><trkpt lon="5.760738" lat="51.333605"><ele>22.2</ele><time>2022-06-05T07:15:37.000Z</time></trkpt><trkpt lon="5.760842" lat="51.333623"><ele>22.2</ele><time>2022-06-05T07:15:38.000Z</time></trkpt><trkpt lon="5.760958" lat="51.33364"><ele>22.2</ele><time>2022-06-05T07:15:39.000Z</time></trkpt><trkpt lon="5.761045" lat="51.333656"><ele>22</ele><time>2022-06-05T07:15:40.000Z</time></trkpt><trkpt lon="5.761164" lat="51.333674"><ele>22</ele><time>2022-06-05T07:15:41.000Z</time></trkpt><trkpt lon="5.761271" lat="51.333693"><ele>22.2</ele><time>2022-06-05T07:15:42.000Z</time></trkpt><trkpt lon="5.761385" lat="51.333709"><ele>22.2</ele><time>2022-06-05T07:15:43.000Z</time></trkpt><trkpt lon="5.7615" lat="51.333724"><ele>22.2</ele><time>2022-06-05T07:15:44.000Z</time></trkpt><trkpt lon="5.761612" lat="51.333736"><ele>22.2</ele><time>2022-06-05T07:15:45.000Z</time></trkpt><trkpt lon="5.76172" lat="51.33375"><ele>22.2</ele><time>2022-06-05T07:15:46.000Z</time></trkpt><trkpt lon="5.761826" lat="51.333762"><ele>22.2</ele><time>2022-06-05T07:15:47.000Z</time></trkpt><trkpt lon="5.761939" lat="51.333777"><ele>22.2</ele><time>2022-06-05T07:15:48.000Z</time></trkpt><trkpt lon="5.762044" lat="51.333793"><ele>22.2</ele><time>2022-06-05T07:15:49.000Z</time></trkpt><trkpt lon="5.762158" lat="51.333808"><ele>22.4</ele><time>2022-06-05T07:15:50.000Z</time></trkpt><trkpt lon="5.762266" lat="51.333819"><ele>22.4</ele><time>2022-06-05T07:15:51.000Z</time></trkpt><trkpt lon="5.762388" lat="51.333835"><ele>22.4</ele><time>2022-06-05T07:15:52.000Z</time></trkpt><trkpt lon="5.762498" lat="51.333846"><ele>22.4</ele><time>2022-06-05T07:15:53.000Z</time></trkpt><trkpt lon="5.762611" lat="51.333861"><ele>22.4</ele><time>2022-06-05T07:15:54.000Z</time></trkpt><trkpt lon="5.762719" lat="51.333876"><ele>22.4</ele><time>2022-06-05T07:15:55.000Z</time></trkpt><trkpt lon="5.762833" lat="51.333896"><ele>22.4</ele><time>2022-06-05T07:15:56.000Z</time></trkpt><trkpt lon="5.762946" lat="51.333911"><ele>22.4</ele><time>2022-06-05T07:15:57.000Z</time></trkpt><trkpt lon="5.763062" lat="51.333923"><ele>22.4</ele><time>2022-06-05T07:15:58.000Z</time></trkpt><trkpt lon="5.763175" lat="51.333942"><ele>22.4</ele><time>2022-06-05T07:15:59.000Z</time></trkpt><trkpt lon="5.763293" lat="51.333957"><ele>22.4</ele><time>2022-06-05T07:16:00.000Z</time></trkpt><trkpt lon="5.763405" lat="51.333972"><ele>22.4</ele><time>2022-06-05T07:16:01.000Z</time></trkpt><trkpt lon="5.763521" lat="51.333988"><ele>22.4</ele><time>2022-06-05T07:16:02.000Z</time></trkpt><trkpt lon="5.763631" lat="51.334003"><ele>22.2</ele><time>2022-06-05T07:16:03.000Z</time></trkpt><trkpt lon="5.763744" lat="51.334022"><ele>22.2</ele><time>2022-06-05T07:16:04.000Z</time></trkpt><trkpt lon="5.763854" lat="51.334037"><ele>22.4</ele><time>2022-06-05T07:16:05.000Z</time></trkpt><trkpt lon="5.763963" lat="51.334049"><ele>22.4</ele><time>2022-06-05T07:16:06.000Z</time></trkpt><trkpt lon="5.764066" lat="51.334067"><ele>22.4</ele><time>2022-06-05T07:16:07.000Z</time></trkpt><trkpt lon="5.764175" lat="51.334087"><ele>22.2</ele><time>2022-06-05T07:16:08.000Z</time></trkpt><trkpt lon="5.764278" lat="51.334102"><ele>22.2</ele><time>2022-06-05T07:16:09.000Z</time></trkpt><trkpt lon="5.764385" lat="51.334117"><ele>22.4</ele><time>2022-06-05T07:16:10.000Z</time></trkpt><trkpt lon="5.76449" lat="51.334132"><ele>22.4</ele><time>2022-06-05T07:16:11.000Z</time></trkpt><trkpt lon="5.764596" lat="51.334152"><ele>22.4</ele><time>2022-06-05T07:16:12.000Z</time></trkpt><trkpt lon="5.764691" lat="51.334169"><ele>22.4</ele><time>2022-06-05T07:16:13.000Z</time></trkpt><trkpt lon="5.764804" lat="51.33419"><ele>22.4</ele><time>2022-06-05T07:16:14.000Z</time></trkpt><trkpt lon="5.764909" lat="51.334205"><ele>22.4</ele><time>2022-06-05T07:16:15.000Z</time></trkpt><trkpt lon="5.765017" lat="51.334224"><ele>22.4</ele><time>2022-06-05T07:16:16.000Z</time></trkpt><trkpt lon="5.765121" lat="51.334243"><ele>22.4</ele><time>2022-06-05T07:16:17.000Z</time></trkpt><trkpt lon="5.765217" lat="51.334262"><ele>22.4</ele><time>2022-06-05T07:16:18.000Z</time></trkpt><trkpt lon="5.76531" lat="51.334278"><ele>22.4</ele><time>2022-06-05T07:16:19.000Z</time></trkpt><trkpt lon="5.765407" lat="51.334293"><ele>22.4</ele><time>2022-06-05T07:16:20.000Z</time></trkpt><trkpt lon="5.765507" lat="51.334308"><ele>22.2</ele><time>2022-06-05T07:16:21.000Z</time></trkpt><trkpt lon="5.765599" lat="51.33433"><ele>22.2</ele><time>2022-06-05T07:16:22.000Z</time></trkpt><trkpt lon="5.765699" lat="51.334346"><ele>22.2</ele><time>2022-06-05T07:16:23.000Z</time></trkpt><trkpt lon="5.765804" lat="51.334361"><ele>22.2</ele><time>2022-06-05T07:16:24.000Z</time></trkpt><trkpt lon="5.765914" lat="51.334377"><ele>22.4</ele><time>2022-06-05T07:16:25.000Z</time></trkpt><trkpt lon="5.766029" lat="51.334388"><ele>22.4</ele><time>2022-06-05T07:16:26.000Z</time></trkpt><trkpt lon="5.766142" lat="51.334404"><ele>22.6</ele><time>2022-06-05T07:16:27.000Z</time></trkpt><trkpt lon="5.766252" lat="51.334419"><ele>22.6</ele><time>2022-06-05T07:16:28.000Z</time></trkpt><trkpt lon="5.766367" lat="51.334434"><ele>22.6</ele><time>2022-06-05T07:16:29.000Z</time></trkpt><trkpt lon="5.766483" lat="51.334445"><ele>22.6</ele><time>2022-06-05T07:16:30.000Z</time></trkpt><trkpt lon="5.7666" lat="51.334464"><ele>22.4</ele><time>2022-06-05T07:16:31.000Z</time></trkpt><trkpt lon="5.766714" lat="51.334479"><ele>22.4</ele><time>2022-06-05T07:16:32.000Z</time></trkpt><trkpt lon="5.766827" lat="51.334495"><ele>22.4</ele><time>2022-06-05T07:16:33.000Z</time></trkpt><trkpt lon="5.766938" lat="51.33451"><ele>22.4</ele><time>2022-06-05T07:16:34.000Z</time></trkpt><trkpt lon="5.767049" lat="51.334525"><ele>22.6</ele><time>2022-06-05T07:16:35.000Z</time></trkpt><trkpt lon="5.767157" lat="51.334541"><ele>22.6</ele><time>2022-06-05T07:16:36.000Z</time></trkpt><trkpt lon="5.767255" lat="51.33456"><ele>22.6</ele><time>2022-06-05T07:16:37.000Z</time></trkpt><trkpt lon="5.767348" lat="51.334579"><ele>22.6</ele><time>2022-06-05T07:16:38.000Z</time></trkpt><trkpt lon="5.767449" lat="51.334594"><ele>22.6</ele><time>2022-06-05T07:16:39.000Z</time></trkpt><trkpt lon="5.767552" lat="51.334613"><ele>22.8</ele><time>2022-06-05T07:16:40.000Z</time></trkpt><trkpt lon="5.767664" lat="51.334629"><ele>22.6</ele><time>2022-06-05T07:16:41.000Z</time></trkpt><trkpt lon="5.767774" lat="51.334644"><ele>22.6</ele><time>2022-06-05T07:16:42.000Z</time></trkpt><trkpt lon="5.767875" lat="51.334663"><ele>22.6</ele><time>2022-06-05T07:16:43.000Z</time></trkpt><trkpt lon="5.767975" lat="51.334678"><ele>22.8</ele><time>2022-06-05T07:16:44.000Z</time></trkpt><trkpt lon="5.768073" lat="51.334701"><ele>22.6</ele><time>2022-06-05T07:16:45.000Z</time></trkpt><trkpt lon="5.768176" lat="51.334716"><ele>22.6</ele><time>2022-06-05T07:16:46.000Z</time></trkpt><trkpt lon="5.768275" lat="51.334735"><ele>22.6</ele><time>2022-06-05T07:16:47.000Z</time></trkpt><trkpt lon="5.768372" lat="51.334754"><ele>22.6</ele><time>2022-06-05T07:16:48.000Z</time></trkpt><trkpt lon="5.768464" lat="51.334773"><ele>22.6</ele><time>2022-06-05T07:16:49.000Z</time></trkpt><trkpt lon="5.768568" lat="51.334785"><ele>22.6</ele><time>2022-06-05T07:16:50.000Z</time></trkpt><trkpt lon="5.768676" lat="51.3348"><ele>22.6</ele><time>2022-06-05T07:16:51.000Z</time></trkpt><trkpt lon="5.768782" lat="51.334819"><ele>22.6</ele><time>2022-06-05T07:16:52.000Z</time></trkpt><trkpt lon="5.768896" lat="51.334834"><ele>22.6</ele><time>2022-06-05T07:16:53.000Z</time></trkpt><trkpt lon="5.768998" lat="51.334857"><ele>22.4</ele><time>2022-06-05T07:16:54.000Z</time></trkpt><trkpt lon="5.769105" lat="51.33488"><ele>22.4</ele><time>2022-06-05T07:16:55.000Z</time></trkpt><trkpt lon="5.769219" lat="51.334896"><ele>22.4</ele><time>2022-06-05T07:16:56.000Z</time></trkpt><trkpt lon="5.769331" lat="51.334914"><ele>22.4</ele><time>2022-06-05T07:16:57.000Z</time></trkpt><trkpt lon="5.769447" lat="51.334926"><ele>22.4</ele><time>2022-06-05T07:16:58.000Z</time></trkpt><trkpt lon="5.769563" lat="51.334945"><ele>22.4</ele><time>2022-06-05T07:16:59.000Z</time></trkpt><trkpt lon="5.769675" lat="51.334964"><ele>22.4</ele><time>2022-06-05T07:17:00.000Z</time></trkpt><trkpt lon="5.769784" lat="51.334983"><ele>22.4</ele><time>2022-06-05T07:17:01.000Z</time></trkpt><trkpt lon="5.769896" lat="51.335002"><ele>22.4</ele><time>2022-06-05T07:17:02.000Z</time></trkpt><trkpt lon="5.77001" lat="51.335018"><ele>22.4</ele><time>2022-06-05T07:17:03.000Z</time></trkpt><trkpt lon="5.770123" lat="51.33504"><ele>22.4</ele><time>2022-06-05T07:17:04.000Z</time></trkpt><trkpt lon="5.770232" lat="51.335063"><ele>22.4</ele><time>2022-06-05T07:17:05.000Z</time></trkpt><trkpt lon="5.770346" lat="51.335082"><ele>22.4</ele><time>2022-06-05T07:17:06.000Z</time></trkpt><trkpt lon="5.770459" lat="51.335101"><ele>22.4</ele><time>2022-06-05T07:17:07.000Z</time></trkpt><trkpt lon="5.770567" lat="51.33512"><ele>22.6</ele><time>2022-06-05T07:17:08.000Z</time></trkpt><trkpt lon="5.770685" lat="51.33514"><ele>22.6</ele><time>2022-06-05T07:17:09.000Z</time></trkpt><trkpt lon="5.770796" lat="51.335159"><ele>22.4</ele><time>2022-06-05T07:17:10.000Z</time></trkpt><trkpt lon="5.770901" lat="51.335181"><ele>22.4</ele><time>2022-06-05T07:17:11.000Z</time></trkpt><trkpt lon="5.771011" lat="51.335204"><ele>22.4</ele><time>2022-06-05T07:17:12.000Z</time></trkpt><trkpt lon="5.771124" lat="51.335223"><ele>22.4</ele><time>2022-06-05T07:17:13.000Z</time></trkpt><trkpt lon="5.771241" lat="51.335242"><ele>22.2</ele><time>2022-06-05T07:17:14.000Z</time></trkpt><trkpt lon="5.77135" lat="51.335265"><ele>22.2</ele><time>2022-06-05T07:17:15.000Z</time></trkpt><trkpt lon="5.771457" lat="51.335292"><ele>22.2</ele><time>2022-06-05T07:17:16.000Z</time></trkpt><trkpt lon="5.771566" lat="51.335322"><ele>22.4</ele><time>2022-06-05T07:17:17.000Z</time></trkpt><trkpt lon="5.771675" lat="51.335353"><ele>22.4</ele><time>2022-06-05T07:17:18.000Z</time></trkpt><trkpt lon="5.771773" lat="51.335387"><ele>22.4</ele><time>2022-06-05T07:17:19.000Z</time></trkpt><trkpt lon="5.771859" lat="51.335432"><ele>22.4</ele><time>2022-06-05T07:17:20.000Z</time></trkpt><trkpt lon="5.771942" lat="51.335478"><ele>22.4</ele><time>2022-06-05T07:17:21.000Z</time></trkpt><trkpt lon="5.772027" lat="51.335524"><ele>22.4</ele><time>2022-06-05T07:17:22.000Z</time></trkpt><trkpt lon="5.772117" lat="51.33557"><ele>22.4</ele><time>2022-06-05T07:17:23.000Z</time></trkpt><trkpt lon="5.772204" lat="51.335619"><ele>22.6</ele><time>2022-06-05T07:17:24.000Z</time></trkpt><trkpt lon="5.772293" lat="51.335665"><ele>22.6</ele><time>2022-06-05T07:17:25.000Z</time></trkpt><trkpt lon="5.772381" lat="51.335714"><ele>22.6</ele><time>2022-06-05T07:17:26.000Z</time></trkpt><trkpt lon="5.772465" lat="51.335763"><ele>22.6</ele><time>2022-06-05T07:17:27.000Z</time></trkpt><trkpt lon="5.772552" lat="51.33581"><ele>22.6</ele><time>2022-06-05T07:17:28.000Z</time></trkpt><trkpt lon="5.772636" lat="51.335863"><ele>22.4</ele><time>2022-06-05T07:17:29.000Z</time></trkpt><trkpt lon="5.772721" lat="51.335913"><ele>22.2</ele><time>2022-06-05T07:17:30.000Z</time></trkpt><trkpt lon="5.772808" lat="51.335958"><ele>22</ele><time>2022-06-05T07:17:31.000Z</time></trkpt><trkpt lon="5.772894" lat="51.336008"><ele>21.8</ele><time>2022-06-05T07:17:32.000Z</time></trkpt><trkpt lon="5.77298" lat="51.336062"><ele>21.8</ele><time>2022-06-05T07:17:33.000Z</time></trkpt><trkpt lon="5.773064" lat="51.336115"><ele>21.8</ele><time>2022-06-05T07:17:34.000Z</time></trkpt><trkpt lon="5.773149" lat="51.336165"><ele>21.8</ele><time>2022-06-05T07:17:35.000Z</time></trkpt><trkpt lon="5.773233" lat="51.336217"><ele>22</ele><time>2022-06-05T07:17:36.000Z</time></trkpt><trkpt lon="5.773319" lat="51.336268"><ele>21.8</ele><time>2022-06-05T07:17:37.000Z</time></trkpt><trkpt lon="5.773404" lat="51.336317"><ele>21.8</ele><time>2022-06-05T07:17:38.000Z</time></trkpt><trkpt lon="5.773485" lat="51.336366"><ele>21.6</ele><time>2022-06-05T07:17:39.000Z</time></trkpt><trkpt lon="5.773568" lat="51.336414"><ele>21.6</ele><time>2022-06-05T07:17:40.000Z</time></trkpt><trkpt lon="5.773655" lat="51.336466"><ele>21.8</ele><time>2022-06-05T07:17:41.000Z</time></trkpt><trkpt lon="5.77374" lat="51.336515"><ele>21.8</ele><time>2022-06-05T07:17:42.000Z</time></trkpt><trkpt lon="5.773822" lat="51.336561"><ele>22</ele><time>2022-06-05T07:17:43.000Z</time></trkpt><trkpt lon="5.773903" lat="51.336613"><ele>22</ele><time>2022-06-05T07:17:44.000Z</time></trkpt><trkpt lon="5.773988" lat="51.336661"><ele>22.2</ele><time>2022-06-05T07:17:45.000Z</time></trkpt><trkpt lon="5.77407" lat="51.33671"><ele>22.2</ele><time>2022-06-05T07:17:46.000Z</time></trkpt><trkpt lon="5.77415" lat="51.33676"><ele>22.2</ele><time>2022-06-05T07:17:47.000Z</time></trkpt><trkpt lon="5.77423" lat="51.336809"><ele>22</ele><time>2022-06-05T07:17:48.000Z</time></trkpt><trkpt lon="5.774309" lat="51.336859"><ele>21.8</ele><time>2022-06-05T07:17:49.000Z</time></trkpt><trkpt lon="5.774388" lat="51.336905"><ele>21.8</ele><time>2022-06-05T07:17:50.000Z</time></trkpt><trkpt lon="5.774467" lat="51.336954"><ele>21.8</ele><time>2022-06-05T07:17:51.000Z</time></trkpt><trkpt lon="5.774547" lat="51.337"><ele>21.8</ele><time>2022-06-05T07:17:52.000Z</time></trkpt><trkpt lon="5.774616" lat="51.337044"><ele>21.8</ele><time>2022-06-05T07:17:53.000Z</time></trkpt><trkpt lon="5.774704" lat="51.337099"><ele>21.8</ele><time>2022-06-05T07:17:54.000Z</time></trkpt><trkpt lon="5.774782" lat="51.337145"><ele>21.8</ele><time>2022-06-05T07:17:55.000Z</time></trkpt><trkpt lon="5.774857" lat="51.337195"><ele>21.8</ele><time>2022-06-05T07:17:56.000Z</time></trkpt><trkpt lon="5.774932" lat="51.33724"><ele>21.8</ele><time>2022-06-05T07:17:57.000Z</time></trkpt><trkpt lon="5.775006" lat="51.337285"><ele>22</ele><time>2022-06-05T07:17:58.000Z</time></trkpt><trkpt lon="5.775079" lat="51.337331"><ele>22</ele><time>2022-06-05T07:17:59.000Z</time></trkpt><trkpt lon="5.775153" lat="51.337374"><ele>22</ele><time>2022-06-05T07:18:00.000Z</time></trkpt><trkpt lon="5.775228" lat="51.337412"><ele>22.2</ele><time>2022-06-05T07:18:01.000Z</time></trkpt><trkpt lon="5.775307" lat="51.33745"><ele>22.2</ele><time>2022-06-05T07:18:02.000Z</time></trkpt><trkpt lon="5.775387" lat="51.337481"><ele>22.2</ele><time>2022-06-05T07:18:03.000Z</time></trkpt><trkpt lon="5.775465" lat="51.337512"><ele>22</ele><time>2022-06-05T07:18:04.000Z</time></trkpt><trkpt lon="5.775547" lat="51.337531"><ele>22</ele><time>2022-06-05T07:18:05.000Z</time></trkpt><trkpt lon="5.775627" lat="51.337551"><ele>22</ele><time>2022-06-05T07:18:06.000Z</time></trkpt><trkpt lon="5.775698" lat="51.337569"><ele>22</ele><time>2022-06-05T07:18:07.000Z</time></trkpt><trkpt lon="5.775766" lat="51.337596"><ele>22</ele><time>2022-06-05T07:18:08.000Z</time></trkpt><trkpt lon="5.775823" lat="51.337634"><ele>22</ele><time>2022-06-05T07:18:09.000Z</time></trkpt><trkpt lon="5.775857" lat="51.337672"><ele>22.2</ele><time>2022-06-05T07:18:10.000Z</time></trkpt><trkpt lon="5.775857" lat="51.337721"><ele>22.2</ele><time>2022-06-05T07:18:11.000Z</time></trkpt><trkpt lon="5.775836" lat="51.337774"><ele>22.2</ele><time>2022-06-05T07:18:12.000Z</time></trkpt><trkpt lon="5.775808" lat="51.337831"><ele>22.2</ele><time>2022-06-05T07:18:13.000Z</time></trkpt><trkpt lon="5.775782" lat="51.337889"><ele>22.2</ele><time>2022-06-05T07:18:14.000Z</time></trkpt><trkpt lon="5.775754" lat="51.33795"><ele>22.2</ele><time>2022-06-05T07:18:15.000Z</time></trkpt><trkpt lon="5.775684" lat="51.33806"><ele>22.2</ele><time>2022-06-05T07:18:16.000Z</time></trkpt><trkpt lon="5.775654" lat="51.338132"><ele>22.2</ele><time>2022-06-05T07:18:17.000Z</time></trkpt><trkpt lon="5.775623" lat="51.338201"><ele>22</ele><time>2022-06-05T07:18:18.000Z</time></trkpt><trkpt lon="5.775598" lat="51.338269"><ele>22.2</ele><time>2022-06-05T07:18:19.000Z</time></trkpt><trkpt lon="5.77557" lat="51.338341"><ele>22.2</ele><time>2022-06-05T07:18:20.000Z</time></trkpt><trkpt lon="5.775537" lat="51.338411"><ele>22</ele><time>2022-06-05T07:18:21.000Z</time></trkpt><trkpt lon="5.775506" lat="51.338476"><ele>22</ele><time>2022-06-05T07:18:22.000Z</time></trkpt><trkpt lon="5.775476" lat="51.33854"><ele>22</ele><time>2022-06-05T07:18:23.000Z</time></trkpt><trkpt lon="5.775446" lat="51.338608"><ele>21.8</ele><time>2022-06-05T07:18:24.000Z</time></trkpt><trkpt lon="5.775413" lat="51.338673"><ele>21.8</ele><time>2022-06-05T07:18:25.000Z</time></trkpt><trkpt lon="5.775381" lat="51.338743"><ele>21.8</ele><time>2022-06-05T07:18:26.000Z</time></trkpt><trkpt lon="5.775349" lat="51.338812"><ele>21.8</ele><time>2022-06-05T07:18:27.000Z</time></trkpt><trkpt lon="5.775318" lat="51.338877"><ele>21.8</ele><time>2022-06-05T07:18:28.000Z</time></trkpt><trkpt lon="5.775286" lat="51.338949"><ele>21.8</ele><time>2022-06-05T07:18:29.000Z</time></trkpt><trkpt lon="5.775254" lat="51.339018"><ele>21.8</ele><time>2022-06-05T07:18:30.000Z</time></trkpt><trkpt lon="5.77522" lat="51.339085"><ele>21.8</ele><time>2022-06-05T07:18:31.000Z</time></trkpt><trkpt lon="5.775183" lat="51.339155"><ele>21.8</ele><time>2022-06-05T07:18:32.000Z</time></trkpt><trkpt lon="5.775146" lat="51.339223"><ele>21.8</ele><time>2022-06-05T07:18:33.000Z</time></trkpt><trkpt lon="5.775114" lat="51.339292"><ele>21.8</ele><time>2022-06-05T07:18:34.000Z</time></trkpt><trkpt lon="5.775086" lat="51.339357"><ele>22</ele><time>2022-06-05T07:18:35.000Z</time></trkpt><trkpt lon="5.775053" lat="51.339426"><ele>21.8</ele><time>2022-06-05T07:18:36.000Z</time></trkpt><trkpt lon="5.775019" lat="51.339492"><ele>21.8</ele><time>2022-06-05T07:18:37.000Z</time></trkpt><trkpt lon="5.774988" lat="51.339559"><ele>21.8</ele><time>2022-06-05T07:18:38.000Z</time></trkpt><trkpt lon="5.774954" lat="51.339625"><ele>21.6</ele><time>2022-06-05T07:18:39.000Z</time></trkpt><trkpt lon="5.774923" lat="51.339692"><ele>21.6</ele><time>2022-06-05T07:18:40.000Z</time></trkpt><trkpt lon="5.774891" lat="51.339757"><ele>21.6</ele><time>2022-06-05T07:18:41.000Z</time></trkpt><trkpt lon="5.774858" lat="51.339819"><ele>21.8</ele><time>2022-06-05T07:18:42.000Z</time></trkpt><trkpt lon="5.774825" lat="51.339883"><ele>21.6</ele><time>2022-06-05T07:18:43.000Z</time></trkpt><trkpt lon="5.774793" lat="51.339944"><ele>21.6</ele><time>2022-06-05T07:18:44.000Z</time></trkpt><trkpt lon="5.774761" lat="51.340009"><ele>21.6</ele><time>2022-06-05T07:18:45.000Z</time></trkpt><trkpt lon="5.774729" lat="51.340074"><ele>21.6</ele><time>2022-06-05T07:18:46.000Z</time></trkpt><trkpt lon="5.774699" lat="51.340139"><ele>21.6</ele><time>2022-06-05T07:18:47.000Z</time></trkpt><trkpt lon="5.774669" lat="51.3402"><ele>21.6</ele><time>2022-06-05T07:18:48.000Z</time></trkpt><trkpt lon="5.774639" lat="51.340265"><ele>21.6</ele><time>2022-06-05T07:18:49.000Z</time></trkpt><trkpt lon="5.774609" lat="51.340326"><ele>21.6</ele><time>2022-06-05T07:18:50.000Z</time></trkpt><trkpt lon="5.774578" lat="51.340387"><ele>21.4</ele><time>2022-06-05T07:18:51.000Z</time></trkpt><trkpt lon="5.774543" lat="51.340452"><ele>21.4</ele><time>2022-06-05T07:18:52.000Z</time></trkpt><trkpt lon="5.774511" lat="51.340513"><ele>21.4</ele><time>2022-06-05T07:18:53.000Z</time></trkpt><trkpt lon="5.77448" lat="51.340577"><ele>21.4</ele><time>2022-06-05T07:18:54.000Z</time></trkpt><trkpt lon="5.774448" lat="51.340643"><ele>21.4</ele><time>2022-06-05T07:18:55.000Z</time></trkpt><trkpt lon="5.77442" lat="51.340703"><ele>21.4</ele><time>2022-06-05T07:18:56.000Z</time></trkpt><trkpt lon="5.774388" lat="51.340768"><ele>21.4</ele><time>2022-06-05T07:18:57.000Z</time></trkpt><trkpt lon="5.774356" lat="51.340833"><ele>21.4</ele><time>2022-06-05T07:18:58.000Z</time></trkpt><trkpt lon="5.774323" lat="51.340894"><ele>21.4</ele><time>2022-06-05T07:18:59.000Z</time></trkpt><trkpt lon="5.774295" lat="51.340954"><ele>21.4</ele><time>2022-06-05T07:19:00.000Z</time></trkpt><trkpt lon="5.774268" lat="51.34102"><ele>21.4</ele><time>2022-06-05T07:19:01.000Z</time></trkpt><trkpt lon="5.774236" lat="51.341081"><ele>21.4</ele><time>2022-06-05T07:19:02.000Z</time></trkpt><trkpt lon="5.774206" lat="51.341146"><ele>21.6</ele><time>2022-06-05T07:19:03.000Z</time></trkpt><trkpt lon="5.774178" lat="51.341211"><ele>21.6</ele><time>2022-06-05T07:19:04.000Z</time></trkpt><trkpt lon="5.77415" lat="51.341276"><ele>21.6</ele><time>2022-06-05T07:19:05.000Z</time></trkpt><trkpt lon="5.77412" lat="51.341337"><ele>21.6</ele><time>2022-06-05T07:19:06.000Z</time></trkpt><trkpt lon="5.774085" lat="51.341401"><ele>21.6</ele><time>2022-06-05T07:19:07.000Z</time></trkpt><trkpt lon="5.774054" lat="51.341466"><ele>21.6</ele><time>2022-06-05T07:19:08.000Z</time></trkpt><trkpt lon="5.77402" lat="51.341538"><ele>21.4</ele><time>2022-06-05T07:19:09.000Z</time></trkpt><trkpt lon="5.773986" lat="51.341604"><ele>21.4</ele><time>2022-06-05T07:19:10.000Z</time></trkpt><trkpt lon="5.773955" lat="51.341665"><ele>21.4</ele><time>2022-06-05T07:19:11.000Z</time></trkpt><trkpt lon="5.773922" lat="51.341729"><ele>21.4</ele><time>2022-06-05T07:19:12.000Z</time></trkpt><trkpt lon="5.773889" lat="51.341798"><ele>21.4</ele><time>2022-06-05T07:19:13.000Z</time></trkpt><trkpt lon="5.773864" lat="51.341863"><ele>21.4</ele><time>2022-06-05T07:19:14.000Z</time></trkpt><trkpt lon="5.773838" lat="51.341928"><ele>21.4</ele><time>2022-06-05T07:19:15.000Z</time></trkpt><trkpt lon="5.773803" lat="51.341996"><ele>21.4</ele><time>2022-06-05T07:19:16.000Z</time></trkpt><trkpt lon="5.773768" lat="51.342065"><ele>21.4</ele><time>2022-06-05T07:19:17.000Z</time></trkpt><trkpt lon="5.773733" lat="51.342133"><ele>21.4</ele><time>2022-06-05T07:19:18.000Z</time></trkpt><trkpt lon="5.773699" lat="51.342202"><ele>21.4</ele><time>2022-06-05T07:19:19.000Z</time></trkpt><trkpt lon="5.773663" lat="51.342271"><ele>21.4</ele><time>2022-06-05T07:19:20.000Z</time></trkpt><trkpt lon="5.773629" lat="51.342336"><ele>21.4</ele><time>2022-06-05T07:19:21.000Z</time></trkpt><trkpt lon="5.773596" lat="51.342403"><ele>21.4</ele><time>2022-06-05T07:19:22.000Z</time></trkpt><trkpt lon="5.77356" lat="51.342476"><ele>21.4</ele><time>2022-06-05T07:19:23.000Z</time></trkpt><trkpt lon="5.773523" lat="51.342546"><ele>21.2</ele><time>2022-06-05T07:19:24.000Z</time></trkpt><trkpt lon="5.773489" lat="51.342619"><ele>21.2</ele><time>2022-06-05T07:19:25.000Z</time></trkpt><trkpt lon="5.773454" lat="51.342686"><ele>21.2</ele><time>2022-06-05T07:19:26.000Z</time></trkpt><trkpt lon="5.773416" lat="51.342756"><ele>21.4</ele><time>2022-06-05T07:19:27.000Z</time></trkpt><trkpt lon="5.77338" lat="51.342825"><ele>21.4</ele><time>2022-06-05T07:19:28.000Z</time></trkpt><trkpt lon="5.773345" lat="51.342894"><ele>21.4</ele><time>2022-06-05T07:19:29.000Z</time></trkpt><trkpt lon="5.773309" lat="51.342962"><ele>21.6</ele><time>2022-06-05T07:19:30.000Z</time></trkpt><trkpt lon="5.773278" lat="51.34303"><ele>21.6</ele><time>2022-06-05T07:19:31.000Z</time></trkpt><trkpt lon="5.773245" lat="51.343098"><ele>21.4</ele><time>2022-06-05T07:19:32.000Z</time></trkpt><trkpt lon="5.773211" lat="51.343167"><ele>21.4</ele><time>2022-06-05T07:19:33.000Z</time></trkpt><trkpt lon="5.773176" lat="51.343233"><ele>21.6</ele><time>2022-06-05T07:19:34.000Z</time></trkpt><trkpt lon="5.773141" lat="51.343301"><ele>21.8</ele><time>2022-06-05T07:19:35.000Z</time></trkpt><trkpt lon="5.773106" lat="51.34337"><ele>21.8</ele><time>2022-06-05T07:19:36.000Z</time></trkpt><trkpt lon="5.773071" lat="51.343439"><ele>21.8</ele><time>2022-06-05T07:19:37.000Z</time></trkpt><trkpt lon="5.773038" lat="51.343506"><ele>21.8</ele><time>2022-06-05T07:19:38.000Z</time></trkpt><trkpt lon="5.773004" lat="51.343576"><ele>21.8</ele><time>2022-06-05T07:19:39.000Z</time></trkpt><trkpt lon="5.772973" lat="51.343641"><ele>21.8</ele><time>2022-06-05T07:19:40.000Z</time></trkpt><trkpt lon="5.772941" lat="51.343709"><ele>21.8</ele><time>2022-06-05T07:19:41.000Z</time></trkpt><trkpt lon="5.772911" lat="51.343775"><ele>21.6</ele><time>2022-06-05T07:19:42.000Z</time></trkpt><trkpt lon="5.772879" lat="51.343842"><ele>21.6</ele><time>2022-06-05T07:19:43.000Z</time></trkpt><trkpt lon="5.772845" lat="51.343908"><ele>21.6</ele><time>2022-06-05T07:19:44.000Z</time></trkpt><trkpt lon="5.77281" lat="51.343976"><ele>21.6</ele><time>2022-06-05T07:19:45.000Z</time></trkpt><trkpt lon="5.772775" lat="51.344045"><ele>21.6</ele><time>2022-06-05T07:19:46.000Z</time></trkpt><trkpt lon="5.772741" lat="51.344114"><ele>21.6</ele><time>2022-06-05T07:19:47.000Z</time></trkpt><trkpt lon="5.772712" lat="51.344177"><ele>21.6</ele><time>2022-06-05T07:19:48.000Z</time></trkpt><trkpt lon="5.772679" lat="51.344247"><ele>21.6</ele><time>2022-06-05T07:19:49.000Z</time></trkpt><trkpt lon="5.772646" lat="51.344312"><ele>21.8</ele><time>2022-06-05T07:19:50.000Z</time></trkpt><trkpt lon="5.772616" lat="51.34438"><ele>21.6</ele><time>2022-06-05T07:19:51.000Z</time></trkpt><trkpt lon="5.772585" lat="51.344449"><ele>21.6</ele><time>2022-06-05T07:19:52.000Z</time></trkpt><trkpt lon="5.772555" lat="51.34451"><ele>21.8</ele><time>2022-06-05T07:19:53.000Z</time></trkpt><trkpt lon="5.772523" lat="51.344582"><ele>21.8</ele><time>2022-06-05T07:19:54.000Z</time></trkpt><trkpt lon="5.772489" lat="51.344651"><ele>21.8</ele><time>2022-06-05T07:19:55.000Z</time></trkpt><trkpt lon="5.772456" lat="51.344717"><ele>21.8</ele><time>2022-06-05T07:19:56.000Z</time></trkpt><trkpt lon="5.772424" lat="51.344782"><ele>21.8</ele><time>2022-06-05T07:19:57.000Z</time></trkpt><trkpt lon="5.772395" lat="51.344846"><ele>21.8</ele><time>2022-06-05T07:19:58.000Z</time></trkpt><trkpt lon="5.772361" lat="51.344915"><ele>21.6</ele><time>2022-06-05T07:19:59.000Z</time></trkpt><trkpt lon="5.772326" lat="51.34498"><ele>21.6</ele><time>2022-06-05T07:20:00.000Z</time></trkpt><trkpt lon="5.772296" lat="51.345049"><ele>21.8</ele><time>2022-06-05T07:20:01.000Z</time></trkpt><trkpt lon="5.772263" lat="51.345117"><ele>21.6</ele><time>2022-06-05T07:20:02.000Z</time></trkpt><trkpt lon="5.772231" lat="51.345185"><ele>21.6</ele><time>2022-06-05T07:20:03.000Z</time></trkpt><trkpt lon="5.772198" lat="51.345251"><ele>21.4</ele><time>2022-06-05T07:20:04.000Z</time></trkpt><trkpt lon="5.772165" lat="51.345314"><ele>21.4</ele><time>2022-06-05T07:20:05.000Z</time></trkpt><trkpt lon="5.772134" lat="51.34538"><ele>21.2</ele><time>2022-06-05T07:20:06.000Z</time></trkpt><trkpt lon="5.772103" lat="51.345442"><ele>21.2</ele><time>2022-06-05T07:20:07.000Z</time></trkpt><trkpt lon="5.772071" lat="51.345506"><ele>21.2</ele><time>2022-06-05T07:20:08.000Z</time></trkpt><trkpt lon="5.772043" lat="51.345572"><ele>21.2</ele><time>2022-06-05T07:20:09.000Z</time></trkpt><trkpt lon="5.772014" lat="51.345636"><ele>21.2</ele><time>2022-06-05T07:20:10.000Z</time></trkpt><trkpt lon="5.771981" lat="51.345698"><ele>21.2</ele><time>2022-06-05T07:20:11.000Z</time></trkpt><trkpt lon="5.771948" lat="51.345766"><ele>21</ele><time>2022-06-05T07:20:12.000Z</time></trkpt><trkpt lon="5.771917" lat="51.345832"><ele>21</ele><time>2022-06-05T07:20:13.000Z</time></trkpt><trkpt lon="5.771883" lat="51.345899"><ele>21</ele><time>2022-06-05T07:20:14.000Z</time></trkpt><trkpt lon="5.771848" lat="51.345972"><ele>21</ele><time>2022-06-05T07:20:15.000Z</time></trkpt><trkpt lon="5.771816" lat="51.346036"><ele>21</ele><time>2022-06-05T07:20:16.000Z</time></trkpt><trkpt lon="5.771783" lat="51.346104"><ele>21</ele><time>2022-06-05T07:20:17.000Z</time></trkpt><trkpt lon="5.77175" lat="51.346173"><ele>21</ele><time>2022-06-05T07:20:18.000Z</time></trkpt><trkpt lon="5.771714" lat="51.346243"><ele>20.8</ele><time>2022-06-05T07:20:19.000Z</time></trkpt><trkpt lon="5.77168" lat="51.34631"><ele>21</ele><time>2022-06-05T07:20:20.000Z</time></trkpt><trkpt lon="5.771645" lat="51.346379"><ele>21</ele><time>2022-06-05T07:20:21.000Z</time></trkpt><trkpt lon="5.771611" lat="51.346452"><ele>21</ele><time>2022-06-05T07:20:22.000Z</time></trkpt><trkpt lon="5.771575" lat="51.346521"><ele>21</ele><time>2022-06-05T07:20:23.000Z</time></trkpt><trkpt lon="5.771539" lat="51.34659"><ele>21.2</ele><time>2022-06-05T07:20:24.000Z</time></trkpt><trkpt lon="5.771506" lat="51.346659"><ele>21.2</ele><time>2022-06-05T07:20:25.000Z</time></trkpt><trkpt lon="5.771473" lat="51.34673"><ele>21.2</ele><time>2022-06-05T07:20:26.000Z</time></trkpt><trkpt lon="5.771436" lat="51.346803"><ele>21.2</ele><time>2022-06-05T07:20:27.000Z</time></trkpt><trkpt lon="5.771401" lat="51.34687"><ele>21.2</ele><time>2022-06-05T07:20:28.000Z</time></trkpt><trkpt lon="5.771363" lat="51.346944"><ele>21.2</ele><time>2022-06-05T07:20:29.000Z</time></trkpt><trkpt lon="5.771332" lat="51.347009"><ele>21.2</ele><time>2022-06-05T07:20:30.000Z</time></trkpt><trkpt lon="5.771296" lat="51.347081"><ele>21.2</ele><time>2022-06-05T07:20:31.000Z</time></trkpt><trkpt lon="5.771261" lat="51.347151"><ele>21</ele><time>2022-06-05T07:20:32.000Z</time></trkpt><trkpt lon="5.771226" lat="51.347219"><ele>21</ele><time>2022-06-05T07:20:33.000Z</time></trkpt><trkpt lon="5.771194" lat="51.347288"><ele>21</ele><time>2022-06-05T07:20:34.000Z</time></trkpt><trkpt lon="5.771158" lat="51.347356"><ele>21</ele><time>2022-06-05T07:20:35.000Z</time></trkpt><trkpt lon="5.771123" lat="51.347425"><ele>21</ele><time>2022-06-05T07:20:36.000Z</time></trkpt><trkpt lon="5.771086" lat="51.347498"><ele>21.2</ele><time>2022-06-05T07:20:37.000Z</time></trkpt><trkpt lon="5.771053" lat="51.347566"><ele>21.2</ele><time>2022-06-05T07:20:38.000Z</time></trkpt><trkpt lon="5.771021" lat="51.347631"><ele>21.2</ele><time>2022-06-05T07:20:39.000Z</time></trkpt><trkpt lon="5.77099" lat="51.3477"><ele>21.2</ele><time>2022-06-05T07:20:40.000Z</time></trkpt><trkpt lon="5.770958" lat="51.347764"><ele>21.2</ele><time>2022-06-05T07:20:41.000Z</time></trkpt><trkpt lon="5.770926" lat="51.347833"><ele>21.2</ele><time>2022-06-05T07:20:42.000Z</time></trkpt><trkpt lon="5.770896" lat="51.347898"><ele>21.2</ele><time>2022-06-05T07:20:43.000Z</time></trkpt><trkpt lon="5.770868" lat="51.347963"><ele>21.4</ele><time>2022-06-05T07:20:44.000Z</time></trkpt><trkpt lon="5.770839" lat="51.348031"><ele>21.4</ele><time>2022-06-05T07:20:45.000Z</time></trkpt><trkpt lon="5.770808" lat="51.3481"><ele>21.4</ele><time>2022-06-05T07:20:46.000Z</time></trkpt><trkpt lon="5.770775" lat="51.348169"><ele>21.6</ele><time>2022-06-05T07:20:47.000Z</time></trkpt><trkpt lon="5.770743" lat="51.348236"><ele>21.6</ele><time>2022-06-05T07:20:48.000Z</time></trkpt><trkpt lon="5.770711" lat="51.348306"><ele>21.6</ele><time>2022-06-05T07:20:49.000Z</time></trkpt><trkpt lon="5.770678" lat="51.348371"><ele>21.8</ele><time>2022-06-05T07:20:50.000Z</time></trkpt><trkpt lon="5.770646" lat="51.348436"><ele>21.8</ele><time>2022-06-05T07:20:51.000Z</time></trkpt><trkpt lon="5.770615" lat="51.3485"><ele>21.6</ele><time>2022-06-05T07:20:52.000Z</time></trkpt><trkpt lon="5.770583" lat="51.348569"><ele>21.6</ele><time>2022-06-05T07:20:53.000Z</time></trkpt><trkpt lon="5.770548" lat="51.348637"><ele>21.6</ele><time>2022-06-05T07:20:54.000Z</time></trkpt><trkpt lon="5.770515" lat="51.348707"><ele>21.4</ele><time>2022-06-05T07:20:55.000Z</time></trkpt><trkpt lon="5.770482" lat="51.348775"><ele>21.4</ele><time>2022-06-05T07:20:56.000Z</time></trkpt><trkpt lon="5.770446" lat="51.348845"><ele>21.4</ele><time>2022-06-05T07:20:57.000Z</time></trkpt><trkpt lon="5.770411" lat="51.348912"><ele>21.4</ele><time>2022-06-05T07:20:58.000Z</time></trkpt><trkpt lon="5.770384" lat="51.348978"><ele>21.4</ele><time>2022-06-05T07:20:59.000Z</time></trkpt><trkpt lon="5.770353" lat="51.349046"><ele>21.6</ele><time>2022-06-05T07:21:00.000Z</time></trkpt><trkpt lon="5.770316" lat="51.349115"><ele>21.6</ele><time>2022-06-05T07:21:01.000Z</time></trkpt><trkpt lon="5.770284" lat="51.349184"><ele>21.6</ele><time>2022-06-05T07:21:02.000Z</time></trkpt><trkpt lon="5.770251" lat="51.349252"><ele>21.6</ele><time>2022-06-05T07:21:03.000Z</time></trkpt><trkpt lon="5.770219" lat="51.349317"><ele>21.6</ele><time>2022-06-05T07:21:04.000Z</time></trkpt><trkpt lon="5.770185" lat="51.349386"><ele>21.4</ele><time>2022-06-05T07:21:05.000Z</time></trkpt><trkpt lon="5.770151" lat="51.349451"><ele>21.4</ele><time>2022-06-05T07:21:06.000Z</time></trkpt><trkpt lon="5.770118" lat="51.349519"><ele>21.4</ele><time>2022-06-05T07:21:07.000Z</time></trkpt><trkpt lon="5.770081" lat="51.349583"><ele>21.4</ele><time>2022-06-05T07:21:08.000Z</time></trkpt><trkpt lon="5.770035" lat="51.349653"><ele>21.4</ele><time>2022-06-05T07:21:09.000Z</time></trkpt><trkpt lon="5.769993" lat="51.349718"><ele>21.4</ele><time>2022-06-05T07:21:10.000Z</time></trkpt><trkpt lon="5.769948" lat="51.349783"><ele>21.4</ele><time>2022-06-05T07:21:11.000Z</time></trkpt><trkpt lon="5.769898" lat="51.349847"><ele>21.4</ele><time>2022-06-05T07:21:12.000Z</time></trkpt><trkpt lon="5.769845" lat="51.349912"><ele>21.4</ele><time>2022-06-05T07:21:13.000Z</time></trkpt><trkpt lon="5.769793" lat="51.349981"><ele>21.4</ele><time>2022-06-05T07:21:14.000Z</time></trkpt><trkpt lon="5.769743" lat="51.350046"><ele>21.4</ele><time>2022-06-05T07:21:15.000Z</time></trkpt><trkpt lon="5.769693" lat="51.350111"><ele>21.2</ele><time>2022-06-05T07:21:16.000Z</time></trkpt><trkpt lon="5.769644" lat="51.350179"><ele>21.2</ele><time>2022-06-05T07:21:17.000Z</time></trkpt><trkpt lon="5.769595" lat="51.350244"><ele>21</ele><time>2022-06-05T07:21:18.000Z</time></trkpt><trkpt lon="5.769547" lat="51.350312"><ele>20.8</ele><time>2022-06-05T07:21:19.000Z</time></trkpt><trkpt lon="5.769495" lat="51.350378"><ele>20.8</ele><time>2022-06-05T07:21:20.000Z</time></trkpt><trkpt lon="5.769444" lat="51.350442"><ele>20.8</ele><time>2022-06-05T07:21:21.000Z</time></trkpt><trkpt lon="5.769393" lat="51.350511"><ele>21</ele><time>2022-06-05T07:21:22.000Z</time></trkpt><trkpt lon="5.769343" lat="51.350575"><ele>21</ele><time>2022-06-05T07:21:23.000Z</time></trkpt><trkpt lon="5.769292" lat="51.350641"><ele>21</ele><time>2022-06-05T07:21:24.000Z</time></trkpt><trkpt lon="5.769241" lat="51.350705"><ele>21</ele><time>2022-06-05T07:21:25.000Z</time></trkpt><trkpt lon="5.769188" lat="51.350774"><ele>21.2</ele><time>2022-06-05T07:21:26.000Z</time></trkpt><trkpt lon="5.76914" lat="51.350839"><ele>21.2</ele><time>2022-06-05T07:21:27.000Z</time></trkpt><trkpt lon="5.769091" lat="51.350903"><ele>21.4</ele><time>2022-06-05T07:21:28.000Z</time></trkpt><trkpt lon="5.769042" lat="51.350965"><ele>21.2</ele><time>2022-06-05T07:21:29.000Z</time></trkpt><trkpt lon="5.768992" lat="51.35103"><ele>21.2</ele><time>2022-06-05T07:21:30.000Z</time></trkpt><trkpt lon="5.768944" lat="51.351095"><ele>21.2</ele><time>2022-06-05T07:21:31.000Z</time></trkpt><trkpt lon="5.768896" lat="51.351164"><ele>21</ele><time>2022-06-05T07:21:32.000Z</time></trkpt><trkpt lon="5.768853" lat="51.351229"><ele>20.8</ele><time>2022-06-05T07:21:33.000Z</time></trkpt><trkpt lon="5.768805" lat="51.351293"><ele>20.8</ele><time>2022-06-05T07:21:34.000Z</time></trkpt><trkpt lon="5.768757" lat="51.351357"><ele>20.8</ele><time>2022-06-05T07:21:35.000Z</time></trkpt><trkpt lon="5.768708" lat="51.351423"><ele>20.8</ele><time>2022-06-05T07:21:36.000Z</time></trkpt><trkpt lon="5.768661" lat="51.351479"><ele>20.8</ele><time>2022-06-05T07:21:37.000Z</time></trkpt><trkpt lon="5.768615" lat="51.351541"><ele>20.8</ele><time>2022-06-05T07:21:38.000Z</time></trkpt><trkpt lon="5.768574" lat="51.351606"><ele>20.8</ele><time>2022-06-05T07:21:39.000Z</time></trkpt><trkpt lon="5.768528" lat="51.351671"><ele>21</ele><time>2022-06-05T07:21:40.000Z</time></trkpt><trkpt lon="5.768481" lat="51.351736"><ele>20.8</ele><time>2022-06-05T07:21:41.000Z</time></trkpt><trkpt lon="5.768437" lat="51.351797"><ele>20.8</ele><time>2022-06-05T07:21:42.000Z</time></trkpt><trkpt lon="5.76839" lat="51.351862"><ele>20.8</ele><time>2022-06-05T07:21:43.000Z</time></trkpt><trkpt lon="5.76834" lat="51.351926"><ele>20.8</ele><time>2022-06-05T07:21:44.000Z</time></trkpt><trkpt lon="5.768292" lat="51.351991"><ele>20.6</ele><time>2022-06-05T07:21:45.000Z</time></trkpt><trkpt lon="5.768241" lat="51.352056"><ele>20.6</ele><time>2022-06-05T07:21:46.000Z</time></trkpt><trkpt lon="5.768192" lat="51.352117"><ele>20.6</ele><time>2022-06-05T07:21:47.000Z</time></trkpt><trkpt lon="5.768146" lat="51.35218"><ele>20.6</ele><time>2022-06-05T07:21:48.000Z</time></trkpt><trkpt lon="5.768097" lat="51.352242"><ele>20.6</ele><time>2022-06-05T07:21:49.000Z</time></trkpt><trkpt lon="5.76805" lat="51.352307"><ele>20.6</ele><time>2022-06-05T07:21:50.000Z</time></trkpt><trkpt lon="5.768002" lat="51.352372"><ele>20.8</ele><time>2022-06-05T07:21:51.000Z</time></trkpt><trkpt lon="5.767956" lat="51.352438"><ele>20.8</ele><time>2022-06-05T07:21:52.000Z</time></trkpt><trkpt lon="5.767918" lat="51.35249"><ele>20.8</ele><time>2022-06-05T07:21:53.000Z</time></trkpt><trkpt lon="5.767869" lat="51.352559"><ele>20.8</ele><time>2022-06-05T07:21:54.000Z</time></trkpt><trkpt lon="5.767822" lat="51.352621"><ele>20.8</ele><time>2022-06-05T07:21:55.000Z</time></trkpt><trkpt lon="5.767773" lat="51.352686"><ele>20.8</ele><time>2022-06-05T07:21:56.000Z</time></trkpt><trkpt lon="5.767723" lat="51.352751"><ele>20.8</ele><time>2022-06-05T07:21:57.000Z</time></trkpt><trkpt lon="5.767676" lat="51.352811"><ele>20.8</ele><time>2022-06-05T07:21:58.000Z</time></trkpt><trkpt lon="5.767628" lat="51.352877"><ele>20.8</ele><time>2022-06-05T07:21:59.000Z</time></trkpt><trkpt lon="5.767582" lat="51.352941"><ele>21</ele><time>2022-06-05T07:22:00.000Z</time></trkpt><trkpt lon="5.767535" lat="51.353002"><ele>21</ele><time>2022-06-05T07:22:01.000Z</time></trkpt><trkpt lon="5.767488" lat="51.353067"><ele>21</ele><time>2022-06-05T07:22:02.000Z</time></trkpt><trkpt lon="5.767441" lat="51.353127"><ele>21.2</ele><time>2022-06-05T07:22:03.000Z</time></trkpt><trkpt lon="5.767392" lat="51.353189"><ele>21.4</ele><time>2022-06-05T07:22:04.000Z</time></trkpt><trkpt lon="5.767345" lat="51.35325"><ele>21.6</ele><time>2022-06-05T07:22:05.000Z</time></trkpt><trkpt lon="5.767298" lat="51.353311"><ele>21.6</ele><time>2022-06-05T07:22:06.000Z</time></trkpt><trkpt lon="5.767252" lat="51.353376"><ele>21.6</ele><time>2022-06-05T07:22:07.000Z</time></trkpt><trkpt lon="5.767205" lat="51.353437"><ele>21.6</ele><time>2022-06-05T07:22:08.000Z</time></trkpt><trkpt lon="5.767158" lat="51.353498"><ele>21.6</ele><time>2022-06-05T07:22:09.000Z</time></trkpt><trkpt lon="5.767111" lat="51.353564"><ele>21.6</ele><time>2022-06-05T07:22:10.000Z</time></trkpt><trkpt lon="5.767067" lat="51.353624"><ele>21.8</ele><time>2022-06-05T07:22:11.000Z</time></trkpt><trkpt lon="5.767018" lat="51.353685"><ele>21.6</ele><time>2022-06-05T07:22:12.000Z</time></trkpt><trkpt lon="5.766969" lat="51.353746"><ele>21.6</ele><time>2022-06-05T07:22:13.000Z</time></trkpt><trkpt lon="5.766922" lat="51.353811"><ele>21.6</ele><time>2022-06-05T07:22:14.000Z</time></trkpt><trkpt lon="5.766875" lat="51.353872"><ele>21.6</ele><time>2022-06-05T07:22:15.000Z</time></trkpt><trkpt lon="5.766835" lat="51.353931"><ele>21.6</ele><time>2022-06-05T07:22:16.000Z</time></trkpt><trkpt lon="5.766785" lat="51.354001"><ele>21.6</ele><time>2022-06-05T07:22:17.000Z</time></trkpt><trkpt lon="5.766737" lat="51.354063"><ele>21.6</ele><time>2022-06-05T07:22:18.000Z</time></trkpt><trkpt lon="5.76669" lat="51.354128"><ele>21.6</ele><time>2022-06-05T07:22:19.000Z</time></trkpt><trkpt lon="5.766642" lat="51.354188"><ele>21.6</ele><time>2022-06-05T07:22:20.000Z</time></trkpt><trkpt lon="5.766596" lat="51.35425"><ele>21.6</ele><time>2022-06-05T07:22:21.000Z</time></trkpt><trkpt lon="5.766548" lat="51.354314"><ele>21.4</ele><time>2022-06-05T07:22:22.000Z</time></trkpt><trkpt lon="5.766504" lat="51.354375"><ele>21.4</ele><time>2022-06-05T07:22:23.000Z</time></trkpt><trkpt lon="5.76646" lat="51.354434"><ele>21.6</ele><time>2022-06-05T07:22:24.000Z</time></trkpt><trkpt lon="5.766418" lat="51.354487"><ele>21.8</ele><time>2022-06-05T07:22:25.000Z</time></trkpt><trkpt lon="5.766381" lat="51.35454"><ele>22</ele><time>2022-06-05T07:22:26.000Z</time></trkpt><trkpt lon="5.766343" lat="51.35459"><ele>22</ele><time>2022-06-05T07:22:27.000Z</time></trkpt><trkpt lon="5.766308" lat="51.354632"><ele>22.2</ele><time>2022-06-05T07:22:28.000Z</time></trkpt><trkpt lon="5.766276" lat="51.354666"><ele>22.4</ele><time>2022-06-05T07:22:29.000Z</time></trkpt><trkpt lon="5.766248" lat="51.354697"><ele>22.6</ele><time>2022-06-05T07:22:30.000Z</time></trkpt><trkpt lon="5.766221" lat="51.354724"><ele>22.8</ele><time>2022-06-05T07:22:31.000Z</time></trkpt><trkpt lon="5.766194" lat="51.354751"><ele>23</ele><time>2022-06-05T07:22:32.000Z</time></trkpt><trkpt lon="5.766166" lat="51.354773"><ele>23.2</ele><time>2022-06-05T07:22:33.000Z</time></trkpt><trkpt lon="5.766138" lat="51.354793"><ele>23.2</ele><time>2022-06-05T07:22:34.000Z</time></trkpt><trkpt lon="5.766116" lat="51.354812"><ele>23.2</ele><time>2022-06-05T07:22:35.000Z</time></trkpt><trkpt lon="5.76611" lat="51.354835"><ele>23.4</ele><time>2022-06-05T07:22:36.000Z</time></trkpt><trkpt lon="5.766128" lat="51.354854"><ele>23.4</ele><time>2022-06-05T07:22:37.000Z</time></trkpt><trkpt lon="5.766154" lat="51.354877"><ele>23.4</ele><time>2022-06-05T07:22:38.000Z</time></trkpt><trkpt lon="5.766188" lat="51.354895"><ele>23.4</ele><time>2022-06-05T07:22:39.000Z</time></trkpt><trkpt lon="5.766225" lat="51.354915"><ele>23.4</ele><time>2022-06-05T07:22:40.000Z</time></trkpt><trkpt lon="5.766262" lat="51.354941"><ele>23.4</ele><time>2022-06-05T07:22:41.000Z</time></trkpt><trkpt lon="5.766295" lat="51.354971"><ele>23.4</ele><time>2022-06-05T07:22:42.000Z</time></trkpt><trkpt lon="5.766331" lat="51.355001"><ele>23.4</ele><time>2022-06-05T07:22:43.000Z</time></trkpt><trkpt lon="5.76637" lat="51.35504"><ele>23.2</ele><time>2022-06-05T07:22:44.000Z</time></trkpt><trkpt lon="5.766411" lat="51.355078"><ele>23.2</ele><time>2022-06-05T07:22:45.000Z</time></trkpt><trkpt lon="5.766452" lat="51.35512"><ele>23.2</ele><time>2022-06-05T07:22:46.000Z</time></trkpt><trkpt lon="5.766494" lat="51.355162"><ele>23.2</ele><time>2022-06-05T07:22:47.000Z</time></trkpt><trkpt lon="5.76654" lat="51.355204"><ele>23.2</ele><time>2022-06-05T07:22:48.000Z</time></trkpt><trkpt lon="5.766592" lat="51.35525"><ele>23.2</ele><time>2022-06-05T07:22:49.000Z</time></trkpt><trkpt lon="5.766645" lat="51.355296"><ele>23.2</ele><time>2022-06-05T07:22:50.000Z</time></trkpt><trkpt lon="5.766696" lat="51.355345"><ele>23.2</ele><time>2022-06-05T07:22:51.000Z</time></trkpt><trkpt lon="5.76674" lat="51.355398"><ele>23.2</ele><time>2022-06-05T07:22:52.000Z</time></trkpt><trkpt lon="5.766783" lat="51.355445"><ele>23</ele><time>2022-06-05T07:22:53.000Z</time></trkpt><trkpt lon="5.766827" lat="51.355497"><ele>23.2</ele><time>2022-06-05T07:22:54.000Z</time></trkpt><trkpt lon="5.766872" lat="51.355547"><ele>23.2</ele><time>2022-06-05T07:22:55.000Z</time></trkpt><trkpt lon="5.766925" lat="51.355604"><ele>23.2</ele><time>2022-06-05T07:22:56.000Z</time></trkpt><trkpt lon="5.76697" lat="51.355661"><ele>23</ele><time>2022-06-05T07:22:57.000Z</time></trkpt><trkpt lon="5.76701" lat="51.355715"><ele>23</ele><time>2022-06-05T07:22:58.000Z</time></trkpt><trkpt lon="5.767057" lat="51.355768"><ele>23</ele><time>2022-06-05T07:22:59.000Z</time></trkpt><trkpt lon="5.767104" lat="51.355822"><ele>23</ele><time>2022-06-05T07:23:00.000Z</time></trkpt><trkpt lon="5.767142" lat="51.355879"><ele>23</ele><time>2022-06-05T07:23:01.000Z</time></trkpt><trkpt lon="5.767181" lat="51.355932"><ele>22.8</ele><time>2022-06-05T07:23:02.000Z</time></trkpt><trkpt lon="5.767217" lat="51.355978"><ele>22.8</ele><time>2022-06-05T07:23:03.000Z</time></trkpt><trkpt lon="5.767252" lat="51.35602"><ele>22.8</ele><time>2022-06-05T07:23:04.000Z</time></trkpt><trkpt lon="5.767282" lat="51.356066"><ele>23</ele><time>2022-06-05T07:23:05.000Z</time></trkpt><trkpt lon="5.767314" lat="51.356112"><ele>23</ele><time>2022-06-05T07:23:06.000Z</time></trkpt><trkpt lon="5.767346" lat="51.356157"><ele>23</ele><time>2022-06-05T07:23:07.000Z</time></trkpt><trkpt lon="5.767372" lat="51.356203"><ele>23</ele><time>2022-06-05T07:23:08.000Z</time></trkpt><trkpt lon="5.767402" lat="51.356253"><ele>23</ele><time>2022-06-05T07:23:09.000Z</time></trkpt><trkpt lon="5.767444" lat="51.356299"><ele>23</ele><time>2022-06-05T07:23:10.000Z</time></trkpt><trkpt lon="5.767481" lat="51.356348"><ele>23</ele><time>2022-06-05T07:23:11.000Z</time></trkpt><trkpt lon="5.767514" lat="51.356394"><ele>23</ele><time>2022-06-05T07:23:12.000Z</time></trkpt><trkpt lon="5.767545" lat="51.35644"><ele>23</ele><time>2022-06-05T07:23:13.000Z</time></trkpt><trkpt lon="5.767579" lat="51.356488"><ele>23</ele><time>2022-06-05T07:23:14.000Z</time></trkpt><trkpt lon="5.767609" lat="51.356535"><ele>23</ele><time>2022-06-05T07:23:15.000Z</time></trkpt><trkpt lon="5.767632" lat="51.356581"><ele>23.2</ele><time>2022-06-05T07:23:16.000Z</time></trkpt><trkpt lon="5.767662" lat="51.356627"><ele>23.2</ele><time>2022-06-05T07:23:17.000Z</time></trkpt><trkpt lon="5.767702" lat="51.356676"><ele>23.2</ele><time>2022-06-05T07:23:18.000Z</time></trkpt><trkpt lon="5.767742" lat="51.356719"><ele>23.2</ele><time>2022-06-05T07:23:19.000Z</time></trkpt><trkpt lon="5.767775" lat="51.356768"><ele>23.2</ele><time>2022-06-05T07:23:20.000Z</time></trkpt><trkpt lon="5.767811" lat="51.356817"><ele>23</ele><time>2022-06-05T07:23:21.000Z</time></trkpt><trkpt lon="5.767845" lat="51.356871"><ele>23</ele><time>2022-06-05T07:23:22.000Z</time></trkpt><trkpt lon="5.767882" lat="51.356928"><ele>22.8</ele><time>2022-06-05T07:23:23.000Z</time></trkpt><trkpt lon="5.767925" lat="51.356985"><ele>22.6</ele><time>2022-06-05T07:23:24.000Z</time></trkpt><trkpt lon="5.767964" lat="51.357046"><ele>22.4</ele><time>2022-06-05T07:23:25.000Z</time></trkpt><trkpt lon="5.768" lat="51.357103"><ele>22.2</ele><time>2022-06-05T07:23:26.000Z</time></trkpt><trkpt lon="5.768052" lat="51.357168"><ele>22.2</ele><time>2022-06-05T07:23:27.000Z</time></trkpt><trkpt lon="5.768098" lat="51.357225"><ele>22</ele><time>2022-06-05T07:23:28.000Z</time></trkpt><trkpt lon="5.768139" lat="51.357283"><ele>21.8</ele><time>2022-06-05T07:23:29.000Z</time></trkpt><trkpt lon="5.768175" lat="51.357336"><ele>21.8</ele><time>2022-06-05T07:23:30.000Z</time></trkpt><trkpt lon="5.768215" lat="51.357385"><ele>21.6</ele><time>2022-06-05T07:23:31.000Z</time></trkpt><trkpt lon="5.768258" lat="51.357439"><ele>21.6</ele><time>2022-06-05T07:23:32.000Z</time></trkpt><trkpt lon="5.768296" lat="51.357507"><ele>21.4</ele><time>2022-06-05T07:23:33.000Z</time></trkpt><trkpt lon="5.768332" lat="51.357568"><ele>21.4</ele><time>2022-06-05T07:23:34.000Z</time></trkpt><trkpt lon="5.768369" lat="51.357626"><ele>21.4</ele><time>2022-06-05T07:23:35.000Z</time></trkpt><trkpt lon="5.768415" lat="51.357687"><ele>21.4</ele><time>2022-06-05T07:23:36.000Z</time></trkpt><trkpt lon="5.768455" lat="51.357755"><ele>21.4</ele><time>2022-06-05T07:23:37.000Z</time></trkpt><trkpt lon="5.768493" lat="51.357815"><ele>21.4</ele><time>2022-06-05T07:23:38.000Z</time></trkpt><trkpt lon="5.768532" lat="51.357881"><ele>21.4</ele><time>2022-06-05T07:23:39.000Z</time></trkpt><trkpt lon="5.76857" lat="51.357946"><ele>21.4</ele><time>2022-06-05T07:23:40.000Z</time></trkpt><trkpt lon="5.768613" lat="51.358019"><ele>21.6</ele><time>2022-06-05T07:23:41.000Z</time></trkpt><trkpt lon="5.768647" lat="51.358084"><ele>21.6</ele><time>2022-06-05T07:23:42.000Z</time></trkpt><trkpt lon="5.768683" lat="51.358155"><ele>21.6</ele><time>2022-06-05T07:23:43.000Z</time></trkpt><trkpt lon="5.768733" lat="51.358224"><ele>21.6</ele><time>2022-06-05T07:23:44.000Z</time></trkpt><trkpt lon="5.76878" lat="51.358285"><ele>21.6</ele><time>2022-06-05T07:23:45.000Z</time></trkpt><trkpt lon="5.76883" lat="51.35835"><ele>21.6</ele><time>2022-06-05T07:23:46.000Z</time></trkpt><trkpt lon="5.768878" lat="51.358419"><ele>21.6</ele><time>2022-06-05T07:23:47.000Z</time></trkpt><trkpt lon="5.768917" lat="51.358485"><ele>21.6</ele><time>2022-06-05T07:23:48.000Z</time></trkpt><trkpt lon="5.768966" lat="51.358556"><ele>21.6</ele><time>2022-06-05T07:23:49.000Z</time></trkpt><trkpt lon="5.769011" lat="51.358624"><ele>21.8</ele><time>2022-06-05T07:23:50.000Z</time></trkpt><trkpt lon="5.769055" lat="51.35869"><ele>21.8</ele><time>2022-06-05T07:23:51.000Z</time></trkpt><trkpt lon="5.769095" lat="51.358751"><ele>21.8</ele><time>2022-06-05T07:23:52.000Z</time></trkpt><trkpt lon="5.769132" lat="51.358806"><ele>22</ele><time>2022-06-05T07:23:53.000Z</time></trkpt><trkpt lon="5.76918" lat="51.35888"><ele>22</ele><time>2022-06-05T07:23:54.000Z</time></trkpt><trkpt lon="5.76922" lat="51.358946"><ele>22</ele><time>2022-06-05T07:23:55.000Z</time></trkpt><trkpt lon="5.769262" lat="51.35901"><ele>22.2</ele><time>2022-06-05T07:23:56.000Z</time></trkpt><trkpt lon="5.769305" lat="51.359068"><ele>22.2</ele><time>2022-06-05T07:23:57.000Z</time></trkpt><trkpt lon="5.769355" lat="51.359129"><ele>22.2</ele><time>2022-06-05T07:23:58.000Z</time></trkpt><trkpt lon="5.769408" lat="51.35919"><ele>22.2</ele><time>2022-06-05T07:23:59.000Z</time></trkpt><trkpt lon="5.769462" lat="51.359251"><ele>22.2</ele><time>2022-06-05T07:24:00.000Z</time></trkpt><trkpt lon="5.769508" lat="51.359308"><ele>22</ele><time>2022-06-05T07:24:01.000Z</time></trkpt><trkpt lon="5.769552" lat="51.359365"><ele>22</ele><time>2022-06-05T07:24:02.000Z</time></trkpt><trkpt lon="5.769598" lat="51.35943"><ele>22</ele><time>2022-06-05T07:24:03.000Z</time></trkpt><trkpt lon="5.76965" lat="51.359502"><ele>21.8</ele><time>2022-06-05T07:24:04.000Z</time></trkpt><trkpt lon="5.769706" lat="51.359571"><ele>21.8</ele><time>2022-06-05T07:24:05.000Z</time></trkpt><trkpt lon="5.769753" lat="51.359639"><ele>21.8</ele><time>2022-06-05T07:24:06.000Z</time></trkpt><trkpt lon="5.7698" lat="51.359704"><ele>21.8</ele><time>2022-06-05T07:24:07.000Z</time></trkpt><trkpt lon="5.769853" lat="51.359777"><ele>21.8</ele><time>2022-06-05T07:24:08.000Z</time></trkpt><trkpt lon="5.769901" lat="51.359842"><ele>21.8</ele><time>2022-06-05T07:24:09.000Z</time></trkpt><trkpt lon="5.769951" lat="51.35991"><ele>21.8</ele><time>2022-06-05T07:24:10.000Z</time></trkpt><trkpt lon="5.769998" lat="51.359979"><ele>21.8</ele><time>2022-06-05T07:24:11.000Z</time></trkpt><trkpt lon="5.770043" lat="51.360052"><ele>21.8</ele><time>2022-06-05T07:24:12.000Z</time></trkpt><trkpt lon="5.77009" lat="51.36012"><ele>21.8</ele><time>2022-06-05T07:24:13.000Z</time></trkpt><trkpt lon="5.770134" lat="51.360185"><ele>21.6</ele><time>2022-06-05T07:24:14.000Z</time></trkpt><trkpt lon="5.770186" lat="51.36025"><ele>21.6</ele><time>2022-06-05T07:24:15.000Z</time></trkpt><trkpt lon="5.770237" lat="51.360311"><ele>21.4</ele><time>2022-06-05T07:24:16.000Z</time></trkpt><trkpt lon="5.770283" lat="51.360372"><ele>21.4</ele><time>2022-06-05T07:24:17.000Z</time></trkpt><trkpt lon="5.770328" lat="51.360441"><ele>21.4</ele><time>2022-06-05T07:24:18.000Z</time></trkpt><trkpt lon="5.770375" lat="51.360505"><ele>21.4</ele><time>2022-06-05T07:24:19.000Z</time></trkpt><trkpt lon="5.770421" lat="51.36057"><ele>21.4</ele><time>2022-06-05T07:24:20.000Z</time></trkpt><trkpt lon="5.770466" lat="51.360635"><ele>21.4</ele><time>2022-06-05T07:24:21.000Z</time></trkpt><trkpt lon="5.77051" lat="51.3607"><ele>21.2</ele><time>2022-06-05T07:24:22.000Z</time></trkpt><trkpt lon="5.770555" lat="51.360768"><ele>21.2</ele><time>2022-06-05T07:24:23.000Z</time></trkpt><trkpt lon="5.770601" lat="51.36083"><ele>21.2</ele><time>2022-06-05T07:24:24.000Z</time></trkpt><trkpt lon="5.770648" lat="51.360891"><ele>21</ele><time>2022-06-05T07:24:25.000Z</time></trkpt><trkpt lon="5.770694" lat="51.360956"><ele>21</ele><time>2022-06-05T07:24:26.000Z</time></trkpt><trkpt lon="5.770735" lat="51.361024"><ele>21</ele><time>2022-06-05T07:24:27.000Z</time></trkpt><trkpt lon="5.770777" lat="51.361084"><ele>20.8</ele><time>2022-06-05T07:24:28.000Z</time></trkpt><trkpt lon="5.770822" lat="51.361151"><ele>20.6</ele><time>2022-06-05T07:24:29.000Z</time></trkpt><trkpt lon="5.770865" lat="51.361211"><ele>20.6</ele><time>2022-06-05T07:24:30.000Z</time></trkpt><trkpt lon="5.770905" lat="51.361276"><ele>20.6</ele><time>2022-06-05T07:24:31.000Z</time></trkpt><trkpt lon="5.770945" lat="51.361341"><ele>20.6</ele><time>2022-06-05T07:24:32.000Z</time></trkpt><trkpt lon="5.770984" lat="51.361406"><ele>20.6</ele><time>2022-06-05T07:24:33.000Z</time></trkpt><trkpt lon="5.771026" lat="51.361466"><ele>20.6</ele><time>2022-06-05T07:24:34.000Z</time></trkpt><trkpt lon="5.771069" lat="51.361525"><ele>20.6</ele><time>2022-06-05T07:24:35.000Z</time></trkpt><trkpt lon="5.77111" lat="51.361589"><ele>20.6</ele><time>2022-06-05T07:24:36.000Z</time></trkpt><trkpt lon="5.77115" lat="51.361654"><ele>20.6</ele><time>2022-06-05T07:24:37.000Z</time></trkpt><trkpt lon="5.771192" lat="51.361711"><ele>20.6</ele><time>2022-06-05T07:24:38.000Z</time></trkpt><trkpt lon="5.771234" lat="51.361773"><ele>20.6</ele><time>2022-06-05T07:24:39.000Z</time></trkpt><trkpt lon="5.771275" lat="51.361837"><ele>20.6</ele><time>2022-06-05T07:24:40.000Z</time></trkpt><trkpt lon="5.771318" lat="51.361904"><ele>20.6</ele><time>2022-06-05T07:24:41.000Z</time></trkpt><trkpt lon="5.771359" lat="51.361971"><ele>20.6</ele><time>2022-06-05T07:24:42.000Z</time></trkpt><trkpt lon="5.771399" lat="51.362036"><ele>20.6</ele><time>2022-06-05T07:24:43.000Z</time></trkpt><trkpt lon="5.77144" lat="51.3621"><ele>20.6</ele><time>2022-06-05T07:24:44.000Z</time></trkpt><trkpt lon="5.771482" lat="51.36216"><ele>20.8</ele><time>2022-06-05T07:24:45.000Z</time></trkpt><trkpt lon="5.771524" lat="51.362225"><ele>20.8</ele><time>2022-06-05T07:24:46.000Z</time></trkpt><trkpt lon="5.77157" lat="51.362284"><ele>20.8</ele><time>2022-06-05T07:24:47.000Z</time></trkpt><trkpt lon="5.771612" lat="51.362345"><ele>20.8</ele><time>2022-06-05T07:24:48.000Z</time></trkpt><trkpt lon="5.771652" lat="51.362409"><ele>21</ele><time>2022-06-05T07:24:49.000Z</time></trkpt><trkpt lon="5.771695" lat="51.362471"><ele>21</ele><time>2022-06-05T07:24:50.000Z</time></trkpt><trkpt lon="5.771738" lat="51.362535"><ele>21</ele><time>2022-06-05T07:24:51.000Z</time></trkpt><trkpt lon="5.77178" lat="51.362597"><ele>20.8</ele><time>2022-06-05T07:24:52.000Z</time></trkpt><trkpt lon="5.771818" lat="51.362654"><ele>20.8</ele><time>2022-06-05T07:24:53.000Z</time></trkpt><trkpt lon="5.771867" lat="51.362726"><ele>20.8</ele><time>2022-06-05T07:24:54.000Z</time></trkpt><trkpt lon="5.771909" lat="51.36279"><ele>20.6</ele><time>2022-06-05T07:24:55.000Z</time></trkpt><trkpt lon="5.771951" lat="51.362851"><ele>20.6</ele><time>2022-06-05T07:24:56.000Z</time></trkpt><trkpt lon="5.771992" lat="51.362917"><ele>20.4</ele><time>2022-06-05T07:24:57.000Z</time></trkpt><trkpt lon="5.772032" lat="51.362978"><ele>20.4</ele><time>2022-06-05T07:24:58.000Z</time></trkpt><trkpt lon="5.772071" lat="51.363043"><ele>20.2</ele><time>2022-06-05T07:24:59.000Z</time></trkpt><trkpt lon="5.772108" lat="51.3631"><ele>20.4</ele><time>2022-06-05T07:25:00.000Z</time></trkpt><trkpt lon="5.772152" lat="51.363161"><ele>20.4</ele><time>2022-06-05T07:25:01.000Z</time></trkpt><trkpt lon="5.772198" lat="51.363221"><ele>20.4</ele><time>2022-06-05T07:25:02.000Z</time></trkpt><trkpt lon="5.77224" lat="51.363283"><ele>20.4</ele><time>2022-06-05T07:25:03.000Z</time></trkpt><trkpt lon="5.772282" lat="51.363348"><ele>20.4</ele><time>2022-06-05T07:25:04.000Z</time></trkpt><trkpt lon="5.772322" lat="51.363412"><ele>20.4</ele><time>2022-06-05T07:25:05.000Z</time></trkpt><trkpt lon="5.772362" lat="51.363473"><ele>20.4</ele><time>2022-06-05T07:25:06.000Z</time></trkpt><trkpt lon="5.772404" lat="51.363535"><ele>20.4</ele><time>2022-06-05T07:25:07.000Z</time></trkpt><trkpt lon="5.772443" lat="51.363594"><ele>20.4</ele><time>2022-06-05T07:25:08.000Z</time></trkpt><trkpt lon="5.772483" lat="51.36366"><ele>20.4</ele><time>2022-06-05T07:25:09.000Z</time></trkpt><trkpt lon="5.772526" lat="51.363717"><ele>20.4</ele><time>2022-06-05T07:25:10.000Z</time></trkpt><trkpt lon="5.772569" lat="51.363779"><ele>20.4</ele><time>2022-06-05T07:25:11.000Z</time></trkpt><trkpt lon="5.772607" lat="51.36384"><ele>20.4</ele><time>2022-06-05T07:25:12.000Z</time></trkpt><trkpt lon="5.77265" lat="51.363905"><ele>20.4</ele><time>2022-06-05T07:25:13.000Z</time></trkpt><trkpt lon="5.772696" lat="51.363958"><ele>20.6</ele><time>2022-06-05T07:25:14.000Z</time></trkpt><trkpt lon="5.77274" lat="51.364023"><ele>20.6</ele><time>2022-06-05T07:25:15.000Z</time></trkpt><trkpt lon="5.772785" lat="51.364084"><ele>20.6</ele><time>2022-06-05T07:25:16.000Z</time></trkpt><trkpt lon="5.772832" lat="51.364145"><ele>20.6</ele><time>2022-06-05T07:25:17.000Z</time></trkpt><trkpt lon="5.772875" lat="51.364206"><ele>20.6</ele><time>2022-06-05T07:25:18.000Z</time></trkpt><trkpt lon="5.772919" lat="51.364267"><ele>20.6</ele><time>2022-06-05T07:25:19.000Z</time></trkpt><trkpt lon="5.77296" lat="51.364332"><ele>20.6</ele><time>2022-06-05T07:25:20.000Z</time></trkpt><trkpt lon="5.773004" lat="51.364393"><ele>20.6</ele><time>2022-06-05T07:25:21.000Z</time></trkpt><trkpt lon="5.773047" lat="51.364447"><ele>20.6</ele><time>2022-06-05T07:25:22.000Z</time></trkpt><trkpt lon="5.773083" lat="51.364501"><ele>20.6</ele><time>2022-06-05T07:25:23.000Z</time></trkpt><trkpt lon="5.773128" lat="51.364568"><ele>20.6</ele><time>2022-06-05T07:25:24.000Z</time></trkpt><trkpt lon="5.773169" lat="51.36463"><ele>20.4</ele><time>2022-06-05T07:25:25.000Z</time></trkpt><trkpt lon="5.773208" lat="51.36469"><ele>20.6</ele><time>2022-06-05T07:25:26.000Z</time></trkpt><trkpt lon="5.773247" lat="51.364748"><ele>20.6</ele><time>2022-06-05T07:25:27.000Z</time></trkpt><trkpt lon="5.773285" lat="51.364808"><ele>20.6</ele><time>2022-06-05T07:25:28.000Z</time></trkpt><trkpt lon="5.773326" lat="51.364867"><ele>20.6</ele><time>2022-06-05T07:25:29.000Z</time></trkpt><trkpt lon="5.773367" lat="51.364927"><ele>20.6</ele><time>2022-06-05T07:25:30.000Z</time></trkpt><trkpt lon="5.773407" lat="51.364984"><ele>20.6</ele><time>2022-06-05T07:25:31.000Z</time></trkpt><trkpt lon="5.773448" lat="51.365045"><ele>20.4</ele><time>2022-06-05T07:25:32.000Z</time></trkpt><trkpt lon="5.773491" lat="51.365109"><ele>20.4</ele><time>2022-06-05T07:25:33.000Z</time></trkpt><trkpt lon="5.773533" lat="51.365175"><ele>20.4</ele><time>2022-06-05T07:25:34.000Z</time></trkpt><trkpt lon="5.773577" lat="51.36524"><ele>20.4</ele><time>2022-06-05T07:25:35.000Z</time></trkpt><trkpt lon="5.773615" lat="51.365304"><ele>20.4</ele><time>2022-06-05T07:25:36.000Z</time></trkpt><trkpt lon="5.77365" lat="51.365369"><ele>20.2</ele><time>2022-06-05T07:25:37.000Z</time></trkpt><trkpt lon="5.773687" lat="51.365434"><ele>20.2</ele><time>2022-06-05T07:25:38.000Z</time></trkpt><trkpt lon="5.773732" lat="51.365503"><ele>20.2</ele><time>2022-06-05T07:25:39.000Z</time></trkpt><trkpt lon="5.773774" lat="51.365568"><ele>20.2</ele><time>2022-06-05T07:25:40.000Z</time></trkpt><trkpt lon="5.773818" lat="51.365633"><ele>20.2</ele><time>2022-06-05T07:25:41.000Z</time></trkpt><trkpt lon="5.773858" lat="51.365697"><ele>20.2</ele><time>2022-06-05T07:25:42.000Z</time></trkpt><trkpt lon="5.77389" lat="51.365765"><ele>20.2</ele><time>2022-06-05T07:25:43.000Z</time></trkpt><trkpt lon="5.773924" lat="51.365831"><ele>20.2</ele><time>2022-06-05T07:25:44.000Z</time></trkpt><trkpt lon="5.773952" lat="51.365896"><ele>20.2</ele><time>2022-06-05T07:25:45.000Z</time></trkpt><trkpt lon="5.773985" lat="51.36596"><ele>20.2</ele><time>2022-06-05T07:25:46.000Z</time></trkpt><trkpt lon="5.774017" lat="51.366021"><ele>20.2</ele><time>2022-06-05T07:25:47.000Z</time></trkpt><trkpt lon="5.774054" lat="51.366086"><ele>20.2</ele><time>2022-06-05T07:25:48.000Z</time></trkpt><trkpt lon="5.774091" lat="51.36615"><ele>20.2</ele><time>2022-06-05T07:25:49.000Z</time></trkpt><trkpt lon="5.77413" lat="51.366216"><ele>20</ele><time>2022-06-05T07:25:50.000Z</time></trkpt><trkpt lon="5.77417" lat="51.366277"><ele>20</ele><time>2022-06-05T07:25:51.000Z</time></trkpt><trkpt lon="5.774212" lat="51.366335"><ele>20</ele><time>2022-06-05T07:25:52.000Z</time></trkpt><trkpt lon="5.774246" lat="51.366391"><ele>20</ele><time>2022-06-05T07:25:53.000Z</time></trkpt><trkpt lon="5.77428" lat="51.366453"><ele>20</ele><time>2022-06-05T07:25:54.000Z</time></trkpt><trkpt lon="5.77431" lat="51.36651"><ele>20</ele><time>2022-06-05T07:25:55.000Z</time></trkpt><trkpt lon="5.774346" lat="51.36657"><ele>20</ele><time>2022-06-05T07:25:56.000Z</time></trkpt><trkpt lon="5.774377" lat="51.366632"><ele>20</ele><time>2022-06-05T07:25:57.000Z</time></trkpt><trkpt lon="5.774402" lat="51.366693"><ele>20</ele><time>2022-06-05T07:25:58.000Z</time></trkpt><trkpt lon="5.774429" lat="51.366754"><ele>20</ele><time>2022-06-05T07:25:59.000Z</time></trkpt><trkpt lon="5.774449" lat="51.366819"><ele>20</ele><time>2022-06-05T07:26:00.000Z</time></trkpt><trkpt lon="5.774472" lat="51.366887"><ele>20</ele><time>2022-06-05T07:26:01.000Z</time></trkpt><trkpt lon="5.774496" lat="51.366957"><ele>19.8</ele><time>2022-06-05T07:26:02.000Z</time></trkpt><trkpt lon="5.774521" lat="51.367029"><ele>19.8</ele><time>2022-06-05T07:26:03.000Z</time></trkpt><trkpt lon="5.774546" lat="51.367101"><ele>19.8</ele><time>2022-06-05T07:26:04.000Z</time></trkpt><trkpt lon="5.774568" lat="51.367173"><ele>19.8</ele><time>2022-06-05T07:26:05.000Z</time></trkpt><trkpt lon="5.774584" lat="51.367246"><ele>19.8</ele><time>2022-06-05T07:26:06.000Z</time></trkpt><trkpt lon="5.774604" lat="51.367315"><ele>19.6</ele><time>2022-06-05T07:26:07.000Z</time></trkpt><trkpt lon="5.774626" lat="51.367387"><ele>19.6</ele><time>2022-06-05T07:26:08.000Z</time></trkpt><trkpt lon="5.774647" lat="51.367456"><ele>19.4</ele><time>2022-06-05T07:26:09.000Z</time></trkpt><trkpt lon="5.774666" lat="51.367525"><ele>19.4</ele><time>2022-06-05T07:26:10.000Z</time></trkpt><trkpt lon="5.774684" lat="51.367596"><ele>19.4</ele><time>2022-06-05T07:26:11.000Z</time></trkpt><trkpt lon="5.774704" lat="51.367664"><ele>19.4</ele><time>2022-06-05T07:26:12.000Z</time></trkpt><trkpt lon="5.774721" lat="51.367734"><ele>19.4</ele><time>2022-06-05T07:26:13.000Z</time></trkpt><trkpt lon="5.774735" lat="51.367803"><ele>19.4</ele><time>2022-06-05T07:26:14.000Z</time></trkpt><trkpt lon="5.774743" lat="51.367872"><ele>19.4</ele><time>2022-06-05T07:26:15.000Z</time></trkpt><trkpt lon="5.774754" lat="51.367943"><ele>19.4</ele><time>2022-06-05T07:26:16.000Z</time></trkpt><trkpt lon="5.774771" lat="51.368009"><ele>19.4</ele><time>2022-06-05T07:26:17.000Z</time></trkpt><trkpt lon="5.774787" lat="51.36807"><ele>19.4</ele><time>2022-06-05T07:26:18.000Z</time></trkpt><trkpt lon="5.774811" lat="51.368142"><ele>19.4</ele><time>2022-06-05T07:26:19.000Z</time></trkpt><trkpt lon="5.774831" lat="51.368208"><ele>19.4</ele><time>2022-06-05T07:26:20.000Z</time></trkpt><trkpt lon="5.774851" lat="51.368276"><ele>19.6</ele><time>2022-06-05T07:26:21.000Z</time></trkpt><trkpt lon="5.774869" lat="51.368345"><ele>19.6</ele><time>2022-06-05T07:26:22.000Z</time></trkpt><trkpt lon="5.774886" lat="51.368418"><ele>19.6</ele><time>2022-06-05T07:26:23.000Z</time></trkpt><trkpt lon="5.774901" lat="51.368486"><ele>19.6</ele><time>2022-06-05T07:26:24.000Z</time></trkpt><trkpt lon="5.774916" lat="51.368554"><ele>19.8</ele><time>2022-06-05T07:26:25.000Z</time></trkpt><trkpt lon="5.774934" lat="51.368627"><ele>19.8</ele><time>2022-06-05T07:26:26.000Z</time></trkpt><trkpt lon="5.774949" lat="51.368686"><ele>19.8</ele><time>2022-06-05T07:26:27.000Z</time></trkpt><trkpt lon="5.774967" lat="51.368764"><ele>19.8</ele><time>2022-06-05T07:26:28.000Z</time></trkpt><trkpt lon="5.774991" lat="51.368833"><ele>19.8</ele><time>2022-06-05T07:26:29.000Z</time></trkpt><trkpt lon="5.775011" lat="51.368897"><ele>19.8</ele><time>2022-06-05T07:26:30.000Z</time></trkpt><trkpt lon="5.775024" lat="51.36897"><ele>20</ele><time>2022-06-05T07:26:31.000Z</time></trkpt><trkpt lon="5.775038" lat="51.369039"><ele>20.2</ele><time>2022-06-05T07:26:32.000Z</time></trkpt><trkpt lon="5.77505" lat="51.369108"><ele>20.4</ele><time>2022-06-05T07:26:33.000Z</time></trkpt><trkpt lon="5.775051" lat="51.369171"><ele>20.4</ele><time>2022-06-05T07:26:34.000Z</time></trkpt><trkpt lon="5.775047" lat="51.369241"><ele>20.4</ele><time>2022-06-05T07:26:35.000Z</time></trkpt><trkpt lon="5.775037" lat="51.36931"><ele>20.4</ele><time>2022-06-05T07:26:36.000Z</time></trkpt><trkpt lon="5.775019" lat="51.369382"><ele>20.4</ele><time>2022-06-05T07:26:37.000Z</time></trkpt><trkpt lon="5.774994" lat="51.369447"><ele>20.4</ele><time>2022-06-05T07:26:38.000Z</time></trkpt><trkpt lon="5.774965" lat="51.369516"><ele>20.6</ele><time>2022-06-05T07:26:39.000Z</time></trkpt><trkpt lon="5.774931" lat="51.369581"><ele>20.6</ele><time>2022-06-05T07:26:40.000Z</time></trkpt><trkpt lon="5.774897" lat="51.369649"><ele>20.8</ele><time>2022-06-05T07:26:41.000Z</time></trkpt><trkpt lon="5.774864" lat="51.369718"><ele>20.8</ele><time>2022-06-05T07:26:42.000Z</time></trkpt><trkpt lon="5.77483" lat="51.369791"><ele>20.6</ele><time>2022-06-05T07:26:43.000Z</time></trkpt><trkpt lon="5.774794" lat="51.369859"><ele>20.6</ele><time>2022-06-05T07:26:44.000Z</time></trkpt><trkpt lon="5.77476" lat="51.369928"><ele>20.6</ele><time>2022-06-05T07:26:45.000Z</time></trkpt><trkpt lon="5.774723" lat="51.369996"><ele>20.4</ele><time>2022-06-05T07:26:46.000Z</time></trkpt><trkpt lon="5.774686" lat="51.370066"><ele>20.4</ele><time>2022-06-05T07:26:47.000Z</time></trkpt><trkpt lon="5.774651" lat="51.370134"><ele>20.6</ele><time>2022-06-05T07:26:48.000Z</time></trkpt><trkpt lon="5.774613" lat="51.370199"><ele>20.6</ele><time>2022-06-05T07:26:49.000Z</time></trkpt><trkpt lon="5.77458" lat="51.370264"><ele>20.6</ele><time>2022-06-05T07:26:50.000Z</time></trkpt><trkpt lon="5.774547" lat="51.370331"><ele>20.6</ele><time>2022-06-05T07:26:51.000Z</time></trkpt><trkpt lon="5.774511" lat="51.370397"><ele>20.6</ele><time>2022-06-05T07:26:52.000Z</time></trkpt><trkpt lon="5.77448" lat="51.370462"><ele>20.8</ele><time>2022-06-05T07:26:53.000Z</time></trkpt><trkpt lon="5.774443" lat="51.370534"><ele>20.6</ele><time>2022-06-05T07:26:54.000Z</time></trkpt><trkpt lon="5.774411" lat="51.370603"><ele>20.8</ele><time>2022-06-05T07:26:55.000Z</time></trkpt><trkpt lon="5.774383" lat="51.370675"><ele>20.8</ele><time>2022-06-05T07:26:56.000Z</time></trkpt><trkpt lon="5.774355" lat="51.370744"><ele>20.8</ele><time>2022-06-05T07:26:57.000Z</time></trkpt><trkpt lon="5.774325" lat="51.370811"><ele>20.8</ele><time>2022-06-05T07:26:58.000Z</time></trkpt><trkpt lon="5.774291" lat="51.370881"><ele>20.8</ele><time>2022-06-05T07:26:59.000Z</time></trkpt><trkpt lon="5.774258" lat="51.370947"><ele>20.8</ele><time>2022-06-05T07:27:00.000Z</time></trkpt><trkpt lon="5.774226" lat="51.371011"><ele>20.8</ele><time>2022-06-05T07:27:01.000Z</time></trkpt><trkpt lon="5.774191" lat="51.37108"><ele>20.8</ele><time>2022-06-05T07:27:02.000Z</time></trkpt><trkpt lon="5.774153" lat="51.371145"><ele>20.8</ele><time>2022-06-05T07:27:03.000Z</time></trkpt><trkpt lon="5.774113" lat="51.37121"><ele>21</ele><time>2022-06-05T07:27:04.000Z</time></trkpt><trkpt lon="5.774073" lat="51.371275"><ele>21</ele><time>2022-06-05T07:27:05.000Z</time></trkpt><trkpt lon="5.774032" lat="51.371339"><ele>21</ele><time>2022-06-05T07:27:06.000Z</time></trkpt><trkpt lon="5.773992" lat="51.371404"><ele>21</ele><time>2022-06-05T07:27:07.000Z</time></trkpt><trkpt lon="5.773953" lat="51.371471"><ele>21</ele><time>2022-06-05T07:27:08.000Z</time></trkpt><trkpt lon="5.773915" lat="51.371538"><ele>21</ele><time>2022-06-05T07:27:09.000Z</time></trkpt><trkpt lon="5.773879" lat="51.371603"><ele>21</ele><time>2022-06-05T07:27:10.000Z</time></trkpt><trkpt lon="5.773846" lat="51.371671"><ele>20.8</ele><time>2022-06-05T07:27:11.000Z</time></trkpt><trkpt lon="5.773814" lat="51.371736"><ele>20.8</ele><time>2022-06-05T07:27:12.000Z</time></trkpt><trkpt lon="5.77378" lat="51.371801"><ele>20.8</ele><time>2022-06-05T07:27:13.000Z</time></trkpt><trkpt lon="5.773743" lat="51.371869"><ele>20.8</ele><time>2022-06-05T07:27:14.000Z</time></trkpt><trkpt lon="5.773707" lat="51.371935"><ele>20.8</ele><time>2022-06-05T07:27:15.000Z</time></trkpt><trkpt lon="5.773675" lat="51.371999"><ele>20.8</ele><time>2022-06-05T07:27:16.000Z</time></trkpt><trkpt lon="5.773641" lat="51.372068"><ele>20.8</ele><time>2022-06-05T07:27:17.000Z</time></trkpt><trkpt lon="5.773608" lat="51.372136"><ele>21</ele><time>2022-06-05T07:27:18.000Z</time></trkpt><trkpt lon="5.773572" lat="51.372204"><ele>21</ele><time>2022-06-05T07:27:19.000Z</time></trkpt><trkpt lon="5.773534" lat="51.372274"><ele>21</ele><time>2022-06-05T07:27:20.000Z</time></trkpt><trkpt lon="5.773503" lat="51.372339"><ele>21</ele><time>2022-06-05T07:27:21.000Z</time></trkpt><trkpt lon="5.773466" lat="51.372407"><ele>21</ele><time>2022-06-05T07:27:22.000Z</time></trkpt><trkpt lon="5.773431" lat="51.372476"><ele>21</ele><time>2022-06-05T07:27:23.000Z</time></trkpt><trkpt lon="5.773397" lat="51.372541"><ele>21</ele><time>2022-06-05T07:27:24.000Z</time></trkpt><trkpt lon="5.773361" lat="51.372609"><ele>21</ele><time>2022-06-05T07:27:25.000Z</time></trkpt><trkpt lon="5.773328" lat="51.372675"><ele>20.8</ele><time>2022-06-05T07:27:26.000Z</time></trkpt><trkpt lon="5.773296" lat="51.37274"><ele>20.8</ele><time>2022-06-05T07:27:27.000Z</time></trkpt><trkpt lon="5.773261" lat="51.372805"><ele>20.8</ele><time>2022-06-05T07:27:28.000Z</time></trkpt><trkpt lon="5.773226" lat="51.372869"><ele>20.8</ele><time>2022-06-05T07:27:29.000Z</time></trkpt><trkpt lon="5.773191" lat="51.372938"><ele>21</ele><time>2022-06-05T07:27:30.000Z</time></trkpt><trkpt lon="5.773155" lat="51.373003"><ele>21.2</ele><time>2022-06-05T07:27:31.000Z</time></trkpt><trkpt lon="5.77312" lat="51.373067"><ele>21.2</ele><time>2022-06-05T07:27:32.000Z</time></trkpt><trkpt lon="5.773085" lat="51.373136"><ele>21.4</ele><time>2022-06-05T07:27:33.000Z</time></trkpt><trkpt lon="5.77305" lat="51.373201"><ele>21.4</ele><time>2022-06-05T07:27:34.000Z</time></trkpt><trkpt lon="5.773013" lat="51.37327"><ele>21.6</ele><time>2022-06-05T07:27:35.000Z</time></trkpt><trkpt lon="5.772976" lat="51.373341"><ele>21.6</ele><time>2022-06-05T07:27:36.000Z</time></trkpt><trkpt lon="5.772941" lat="51.373411"><ele>21.6</ele><time>2022-06-05T07:27:37.000Z</time></trkpt><trkpt lon="5.772905" lat="51.373475"><ele>21.8</ele><time>2022-06-05T07:27:38.000Z</time></trkpt><trkpt lon="5.772871" lat="51.373544"><ele>21.8</ele><time>2022-06-05T07:27:39.000Z</time></trkpt><trkpt lon="5.772837" lat="51.373611"><ele>21.8</ele><time>2022-06-05T07:27:40.000Z</time></trkpt><trkpt lon="5.7728" lat="51.373677"><ele>21.8</ele><time>2022-06-05T07:27:41.000Z</time></trkpt><trkpt lon="5.772762" lat="51.373746"><ele>21.8</ele><time>2022-06-05T07:27:42.000Z</time></trkpt><trkpt lon="5.772725" lat="51.373818"><ele>21.8</ele><time>2022-06-05T07:27:43.000Z</time></trkpt><trkpt lon="5.772691" lat="51.373887"><ele>21.8</ele><time>2022-06-05T07:27:44.000Z</time></trkpt><trkpt lon="5.772656" lat="51.373956"><ele>21.8</ele><time>2022-06-05T07:27:45.000Z</time></trkpt><trkpt lon="5.772619" lat="51.374029"><ele>21.8</ele><time>2022-06-05T07:27:46.000Z</time></trkpt><trkpt lon="5.772583" lat="51.374096"><ele>21.6</ele><time>2022-06-05T07:27:47.000Z</time></trkpt><trkpt lon="5.772547" lat="51.374164"><ele>21.6</ele><time>2022-06-05T07:27:48.000Z</time></trkpt><trkpt lon="5.772512" lat="51.374237"><ele>21.6</ele><time>2022-06-05T07:27:49.000Z</time></trkpt><trkpt lon="5.772476" lat="51.374311"><ele>21.4</ele><time>2022-06-05T07:27:50.000Z</time></trkpt><trkpt lon="5.772441" lat="51.374376"><ele>21.4</ele><time>2022-06-05T07:27:51.000Z</time></trkpt><trkpt lon="5.772404" lat="51.374446"><ele>21.4</ele><time>2022-06-05T07:27:52.000Z</time></trkpt><trkpt lon="5.772367" lat="51.374516"><ele>21.4</ele><time>2022-06-05T07:27:53.000Z</time></trkpt><trkpt lon="5.772333" lat="51.374586"><ele>21.4</ele><time>2022-06-05T07:27:54.000Z</time></trkpt><trkpt lon="5.772297" lat="51.374655"><ele>21.2</ele><time>2022-06-05T07:27:55.000Z</time></trkpt><trkpt lon="5.772261" lat="51.37472"><ele>21.2</ele><time>2022-06-05T07:27:56.000Z</time></trkpt><trkpt lon="5.772224" lat="51.374788"><ele>21.2</ele><time>2022-06-05T07:27:57.000Z</time></trkpt><trkpt lon="5.772189" lat="51.374856"><ele>21</ele><time>2022-06-05T07:27:58.000Z</time></trkpt><trkpt lon="5.772158" lat="51.374925"><ele>21</ele><time>2022-06-05T07:27:59.000Z</time></trkpt><trkpt lon="5.772131" lat="51.374994"><ele>21</ele><time>2022-06-05T07:28:00.000Z</time></trkpt><trkpt lon="5.772101" lat="51.375054"><ele>21.2</ele><time>2022-06-05T07:28:01.000Z</time></trkpt><trkpt lon="5.772074" lat="51.375119"><ele>21.2</ele><time>2022-06-05T07:28:02.000Z</time></trkpt><trkpt lon="5.772044" lat="51.375185"><ele>21.2</ele><time>2022-06-05T07:28:03.000Z</time></trkpt><trkpt lon="5.772011" lat="51.375253"><ele>21</ele><time>2022-06-05T07:28:04.000Z</time></trkpt><trkpt lon="5.771978" lat="51.375322"><ele>21.2</ele><time>2022-06-05T07:28:05.000Z</time></trkpt><trkpt lon="5.771946" lat="51.375387"><ele>21.4</ele><time>2022-06-05T07:28:06.000Z</time></trkpt><trkpt lon="5.771921" lat="51.375456"><ele>21.4</ele><time>2022-06-05T07:28:07.000Z</time></trkpt><trkpt lon="5.771907" lat="51.375524"><ele>21.4</ele><time>2022-06-05T07:28:08.000Z</time></trkpt><trkpt lon="5.7719" lat="51.375592"><ele>21.4</ele><time>2022-06-05T07:28:09.000Z</time></trkpt><trkpt lon="5.771903" lat="51.375661"><ele>21.4</ele><time>2022-06-05T07:28:10.000Z</time></trkpt><trkpt lon="5.77191" lat="51.37573"><ele>21.4</ele><time>2022-06-05T07:28:11.000Z</time></trkpt><trkpt lon="5.771917" lat="51.375799"><ele>21.4</ele><time>2022-06-05T07:28:12.000Z</time></trkpt><trkpt lon="5.77192" lat="51.375863"><ele>21.4</ele><time>2022-06-05T07:28:13.000Z</time></trkpt><trkpt lon="5.771925" lat="51.375929"><ele>21.4</ele><time>2022-06-05T07:28:14.000Z</time></trkpt><trkpt lon="5.771933" lat="51.37599"><ele>21.6</ele><time>2022-06-05T07:28:15.000Z</time></trkpt><trkpt lon="5.771938" lat="51.376051"><ele>21.6</ele><time>2022-06-05T07:28:16.000Z</time></trkpt><trkpt lon="5.771938" lat="51.376104"><ele>21.8</ele><time>2022-06-05T07:28:17.000Z</time></trkpt><trkpt lon="5.771935" lat="51.376157"><ele>22</ele><time>2022-06-05T07:28:18.000Z</time></trkpt><trkpt lon="5.771917" lat="51.3762"><ele>22.2</ele><time>2022-06-05T07:28:19.000Z</time></trkpt><trkpt lon="5.771879" lat="51.376234"><ele>22.2</ele><time>2022-06-05T07:28:20.000Z</time></trkpt><trkpt lon="5.771823" lat="51.376254"><ele>22.4</ele><time>2022-06-05T07:28:21.000Z</time></trkpt><trkpt lon="5.771753" lat="51.376255"><ele>22.4</ele><time>2022-06-05T07:28:22.000Z</time></trkpt><trkpt lon="5.771667" lat="51.37624"><ele>22.4</ele><time>2022-06-05T07:28:23.000Z</time></trkpt><trkpt lon="5.771571" lat="51.376218"><ele>22.4</ele><time>2022-06-05T07:28:24.000Z</time></trkpt><trkpt lon="5.771468" lat="51.376188"><ele>22.4</ele><time>2022-06-05T07:28:25.000Z</time></trkpt><trkpt lon="5.771369" lat="51.376153"><ele>22.2</ele><time>2022-06-05T07:28:26.000Z</time></trkpt><trkpt lon="5.771269" lat="51.376116"><ele>22.2</ele><time>2022-06-05T07:28:27.000Z</time></trkpt><trkpt lon="5.77117" lat="51.376081"><ele>22.2</ele><time>2022-06-05T07:28:28.000Z</time></trkpt><trkpt lon="5.77107" lat="51.376043"><ele>22.2</ele><time>2022-06-05T07:28:29.000Z</time></trkpt><trkpt lon="5.770971" lat="51.376005"><ele>22</ele><time>2022-06-05T07:28:30.000Z</time></trkpt><trkpt lon="5.770871" lat="51.375966"><ele>22</ele><time>2022-06-05T07:28:31.000Z</time></trkpt><trkpt lon="5.770775" lat="51.375928"><ele>22</ele><time>2022-06-05T07:28:32.000Z</time></trkpt><trkpt lon="5.770679" lat="51.375894"><ele>21.8</ele><time>2022-06-05T07:28:33.000Z</time></trkpt><trkpt lon="5.770582" lat="51.37586"><ele>21.6</ele><time>2022-06-05T07:28:34.000Z</time></trkpt><trkpt lon="5.770488" lat="51.375822"><ele>21.6</ele><time>2022-06-05T07:28:35.000Z</time></trkpt><trkpt lon="5.770397" lat="51.375788"><ele>21.6</ele><time>2022-06-05T07:28:36.000Z</time></trkpt><trkpt lon="5.770304" lat="51.375753"><ele>21.8</ele><time>2022-06-05T07:28:37.000Z</time></trkpt><trkpt lon="5.770212" lat="51.375722"><ele>21.6</ele><time>2022-06-05T07:28:38.000Z</time></trkpt><trkpt lon="5.770123" lat="51.375688"><ele>21.8</ele><time>2022-06-05T07:28:39.000Z</time></trkpt><trkpt lon="5.77003" lat="51.375653"><ele>21.8</ele><time>2022-06-05T07:28:40.000Z</time></trkpt><trkpt lon="5.769937" lat="51.375619"><ele>21.6</ele><time>2022-06-05T07:28:41.000Z</time></trkpt><trkpt lon="5.769842" lat="51.375581"><ele>21.6</ele><time>2022-06-05T07:28:42.000Z</time></trkpt><trkpt lon="5.769743" lat="51.375547"><ele>21.4</ele><time>2022-06-05T07:28:43.000Z</time></trkpt><trkpt lon="5.769643" lat="51.375512"><ele>21.4</ele><time>2022-06-05T07:28:44.000Z</time></trkpt><trkpt lon="5.769543" lat="51.375478"><ele>21.6</ele><time>2022-06-05T07:28:45.000Z</time></trkpt><trkpt lon="5.769443" lat="51.375444"><ele>21.6</ele><time>2022-06-05T07:28:46.000Z</time></trkpt><trkpt lon="5.769346" lat="51.375411"><ele>21.6</ele><time>2022-06-05T07:28:47.000Z</time></trkpt><trkpt lon="5.76924" lat="51.375379"><ele>21.6</ele><time>2022-06-05T07:28:48.000Z</time></trkpt><trkpt lon="5.769134" lat="51.375352"><ele>21.6</ele><time>2022-06-05T07:28:49.000Z</time></trkpt><trkpt lon="5.769027" lat="51.375325"><ele>21.6</ele><time>2022-06-05T07:28:50.000Z</time></trkpt><trkpt lon="5.768919" lat="51.375302"><ele>21.6</ele><time>2022-06-05T07:28:51.000Z</time></trkpt><trkpt lon="5.768812" lat="51.375279"><ele>21.8</ele><time>2022-06-05T07:28:52.000Z</time></trkpt><trkpt lon="5.768709" lat="51.375264"><ele>21.8</ele><time>2022-06-05T07:28:53.000Z</time></trkpt><trkpt lon="5.768597" lat="51.375252"><ele>21.6</ele><time>2022-06-05T07:28:54.000Z</time></trkpt><trkpt lon="5.768488" lat="51.375237"><ele>21.6</ele><time>2022-06-05T07:28:55.000Z</time></trkpt><trkpt lon="5.768376" lat="51.375226"><ele>21.6</ele><time>2022-06-05T07:28:56.000Z</time></trkpt><trkpt lon="5.768264" lat="51.375218"><ele>21.6</ele><time>2022-06-05T07:28:57.000Z</time></trkpt><trkpt lon="5.76815" lat="51.375206"><ele>21.6</ele><time>2022-06-05T07:28:58.000Z</time></trkpt><trkpt lon="5.768038" lat="51.375199"><ele>21.6</ele><time>2022-06-05T07:28:59.000Z</time></trkpt><trkpt lon="5.767929" lat="51.375191"><ele>21.6</ele><time>2022-06-05T07:29:00.000Z</time></trkpt><trkpt lon="5.767815" lat="51.375183"><ele>21.6</ele><time>2022-06-05T07:29:01.000Z</time></trkpt><trkpt lon="5.767704" lat="51.375176"><ele>21.4</ele><time>2022-06-05T07:29:02.000Z</time></trkpt><trkpt lon="5.767593" lat="51.375168"><ele>21.6</ele><time>2022-06-05T07:29:03.000Z</time></trkpt><trkpt lon="5.76748" lat="51.375161"><ele>21.6</ele><time>2022-06-05T07:29:04.000Z</time></trkpt><trkpt lon="5.767368" lat="51.375149"><ele>21.6</ele><time>2022-06-05T07:29:05.000Z</time></trkpt><trkpt lon="5.767257" lat="51.375141"><ele>21.6</ele><time>2022-06-05T07:29:06.000Z</time></trkpt><trkpt lon="5.767148" lat="51.375134"><ele>21.8</ele><time>2022-06-05T07:29:07.000Z</time></trkpt><trkpt lon="5.767043" lat="51.375123"><ele>21.8</ele><time>2022-06-05T07:29:08.000Z</time></trkpt><trkpt lon="5.76693" lat="51.375115"><ele>21.8</ele><time>2022-06-05T07:29:09.000Z</time></trkpt><trkpt lon="5.766818" lat="51.375107"><ele>21.8</ele><time>2022-06-05T07:29:10.000Z</time></trkpt><trkpt lon="5.766707" lat="51.3751"><ele>21.8</ele><time>2022-06-05T07:29:11.000Z</time></trkpt><trkpt lon="5.766592" lat="51.375092"><ele>22</ele><time>2022-06-05T07:29:12.000Z</time></trkpt><trkpt lon="5.76648" lat="51.375084"><ele>22</ele><time>2022-06-05T07:29:13.000Z</time></trkpt><trkpt lon="5.766368" lat="51.375077"><ele>22</ele><time>2022-06-05T07:29:14.000Z</time></trkpt><trkpt lon="5.766252" lat="51.375069"><ele>22.2</ele><time>2022-06-05T07:29:15.000Z</time></trkpt><trkpt lon="5.766136" lat="51.375061"><ele>22.2</ele><time>2022-06-05T07:29:16.000Z</time></trkpt><trkpt lon="5.766021" lat="51.37505"><ele>22.2</ele><time>2022-06-05T07:29:17.000Z</time></trkpt><trkpt lon="5.765907" lat="51.375039"><ele>22</ele><time>2022-06-05T07:29:18.000Z</time></trkpt><trkpt lon="5.765789" lat="51.375031"><ele>22</ele><time>2022-06-05T07:29:19.000Z</time></trkpt><trkpt lon="5.765672" lat="51.375023"><ele>22</ele><time>2022-06-05T07:29:20.000Z</time></trkpt><trkpt lon="5.765569" lat="51.375013"><ele>22</ele><time>2022-06-05T07:29:21.000Z</time></trkpt><trkpt lon="5.765438" lat="51.375004"><ele>22</ele><time>2022-06-05T07:29:22.000Z</time></trkpt><trkpt lon="5.765318" lat="51.374997"><ele>22</ele><time>2022-06-05T07:29:23.000Z</time></trkpt><trkpt lon="5.765201" lat="51.374985"><ele>22</ele><time>2022-06-05T07:29:24.000Z</time></trkpt><trkpt lon="5.765084" lat="51.374977"><ele>22</ele><time>2022-06-05T07:29:25.000Z</time></trkpt><trkpt lon="5.764966" lat="51.37497"><ele>22</ele><time>2022-06-05T07:29:26.000Z</time></trkpt><trkpt lon="5.764848" lat="51.374962"><ele>21.8</ele><time>2022-06-05T07:29:27.000Z</time></trkpt><trkpt lon="5.764731" lat="51.374951"><ele>21.8</ele><time>2022-06-05T07:29:28.000Z</time></trkpt><trkpt lon="5.764616" lat="51.374943"><ele>21.8</ele><time>2022-06-05T07:29:29.000Z</time></trkpt><trkpt lon="5.764503" lat="51.374935"><ele>21.8</ele><time>2022-06-05T07:29:30.000Z</time></trkpt><trkpt lon="5.764393" lat="51.374925"><ele>21.8</ele><time>2022-06-05T07:29:31.000Z</time></trkpt><trkpt lon="5.764275" lat="51.374913"><ele>21.8</ele><time>2022-06-05T07:29:32.000Z</time></trkpt><trkpt lon="5.764164" lat="51.374897"><ele>21.8</ele><time>2022-06-05T07:29:33.000Z</time></trkpt><trkpt lon="5.764056" lat="51.374882"><ele>22</ele><time>2022-06-05T07:29:34.000Z</time></trkpt><trkpt lon="5.763947" lat="51.374863"><ele>22</ele><time>2022-06-05T07:29:35.000Z</time></trkpt><trkpt lon="5.76384" lat="51.374848"><ele>22.2</ele><time>2022-06-05T07:29:36.000Z</time></trkpt><trkpt lon="5.763736" lat="51.374829"><ele>22.2</ele><time>2022-06-05T07:29:37.000Z</time></trkpt><trkpt lon="5.76363" lat="51.374814"><ele>22.2</ele><time>2022-06-05T07:29:38.000Z</time></trkpt><trkpt lon="5.763528" lat="51.374796"><ele>22.2</ele><time>2022-06-05T07:29:39.000Z</time></trkpt><trkpt lon="5.763411" lat="51.374779"><ele>22</ele><time>2022-06-05T07:29:40.000Z</time></trkpt><trkpt lon="5.763302" lat="51.374764"><ele>21.8</ele><time>2022-06-05T07:29:41.000Z</time></trkpt><trkpt lon="5.763197" lat="51.374745"><ele>21.8</ele><time>2022-06-05T07:29:42.000Z</time></trkpt><trkpt lon="5.763092" lat="51.37473"><ele>22</ele><time>2022-06-05T07:29:43.000Z</time></trkpt><trkpt lon="5.762981" lat="51.374711"><ele>22</ele><time>2022-06-05T07:29:44.000Z</time></trkpt><trkpt lon="5.762872" lat="51.374695"><ele>22.2</ele><time>2022-06-05T07:29:45.000Z</time></trkpt><trkpt lon="5.762764" lat="51.374676"><ele>22</ele><time>2022-06-05T07:29:46.000Z</time></trkpt><trkpt lon="5.762659" lat="51.374658"><ele>22</ele><time>2022-06-05T07:29:47.000Z</time></trkpt><trkpt lon="5.76255" lat="51.374642"><ele>21.8</ele><time>2022-06-05T07:29:48.000Z</time></trkpt><trkpt lon="5.762444" lat="51.374623"><ele>21.8</ele><time>2022-06-05T07:29:49.000Z</time></trkpt><trkpt lon="5.762334" lat="51.374607"><ele>21.8</ele><time>2022-06-05T07:29:50.000Z</time></trkpt><trkpt lon="5.762225" lat="51.374592"><ele>21.8</ele><time>2022-06-05T07:29:51.000Z</time></trkpt><trkpt lon="5.762115" lat="51.374577"><ele>21.8</ele><time>2022-06-05T07:29:52.000Z</time></trkpt><trkpt lon="5.762005" lat="51.374558"><ele>21.6</ele><time>2022-06-05T07:29:53.000Z</time></trkpt><trkpt lon="5.761895" lat="51.374539"><ele>21.6</ele><time>2022-06-05T07:29:54.000Z</time></trkpt><trkpt lon="5.761786" lat="51.37452"><ele>21.6</ele><time>2022-06-05T07:29:55.000Z</time></trkpt><trkpt lon="5.761677" lat="51.374501"><ele>21.6</ele><time>2022-06-05T07:29:56.000Z</time></trkpt><trkpt lon="5.761566" lat="51.374485"><ele>21.6</ele><time>2022-06-05T07:29:57.000Z</time></trkpt><trkpt lon="5.761456" lat="51.374467"><ele>21.8</ele><time>2022-06-05T07:29:58.000Z</time></trkpt><trkpt lon="5.761346" lat="51.374448"><ele>21.8</ele><time>2022-06-05T07:29:59.000Z</time></trkpt><trkpt lon="5.761238" lat="51.374432"><ele>21.6</ele><time>2022-06-05T07:30:00.000Z</time></trkpt><trkpt lon="5.761128" lat="51.374417"><ele>21.6</ele><time>2022-06-05T07:30:01.000Z</time></trkpt><trkpt lon="5.761014" lat="51.374398"><ele>21.6</ele><time>2022-06-05T07:30:02.000Z</time></trkpt><trkpt lon="5.7609" lat="51.37439"><ele>21.6</ele><time>2022-06-05T07:30:03.000Z</time></trkpt><trkpt lon="5.76079" lat="51.374386"><ele>21.6</ele><time>2022-06-05T07:30:04.000Z</time></trkpt><trkpt lon="5.760676" lat="51.374386"><ele>21.6</ele><time>2022-06-05T07:30:05.000Z</time></trkpt><trkpt lon="5.760563" lat="51.374393"><ele>21.6</ele><time>2022-06-05T07:30:06.000Z</time></trkpt><trkpt lon="5.760452" lat="51.374408"><ele>21.6</ele><time>2022-06-05T07:30:07.000Z</time></trkpt><trkpt lon="5.760342" lat="51.374427"><ele>21.6</ele><time>2022-06-05T07:30:08.000Z</time></trkpt><trkpt lon="5.760233" lat="51.374454"><ele>21.4</ele><time>2022-06-05T07:30:09.000Z</time></trkpt><trkpt lon="5.76013" lat="51.374484"><ele>21.4</ele><time>2022-06-05T07:30:10.000Z</time></trkpt><trkpt lon="5.760048" lat="51.374506"><ele>21.4</ele><time>2022-06-05T07:30:11.000Z</time></trkpt><trkpt lon="5.759928" lat="51.374537"><ele>21.4</ele><time>2022-06-05T07:30:12.000Z</time></trkpt><trkpt lon="5.759829" lat="51.374568"><ele>21.4</ele><time>2022-06-05T07:30:13.000Z</time></trkpt><trkpt lon="5.759725" lat="51.374598"><ele>21.4</ele><time>2022-06-05T07:30:14.000Z</time></trkpt><trkpt lon="5.759623" lat="51.374629"><ele>21.4</ele><time>2022-06-05T07:30:15.000Z</time></trkpt><trkpt lon="5.75952" lat="51.374656"><ele>21.2</ele><time>2022-06-05T07:30:16.000Z</time></trkpt><trkpt lon="5.759419" lat="51.374686"><ele>21.2</ele><time>2022-06-05T07:30:17.000Z</time></trkpt><trkpt lon="5.759314" lat="51.374713"><ele>21</ele><time>2022-06-05T07:30:18.000Z</time></trkpt><trkpt lon="5.759211" lat="51.37474"><ele>21</ele><time>2022-06-05T07:30:19.000Z</time></trkpt><trkpt lon="5.75911" lat="51.374766"><ele>21</ele><time>2022-06-05T07:30:20.000Z</time></trkpt><trkpt lon="5.75901" lat="51.374789"><ele>21</ele><time>2022-06-05T07:30:21.000Z</time></trkpt><trkpt lon="5.75891" lat="51.374812"><ele>21.2</ele><time>2022-06-05T07:30:22.000Z</time></trkpt><trkpt lon="5.75881" lat="51.374828"><ele>21.2</ele><time>2022-06-05T07:30:23.000Z</time></trkpt><trkpt lon="5.758716" lat="51.37485"><ele>21</ele><time>2022-06-05T07:30:24.000Z</time></trkpt><trkpt lon="5.758627" lat="51.374877"><ele>21</ele><time>2022-06-05T07:30:25.000Z</time></trkpt><trkpt lon="5.758554" lat="51.374919"><ele>21</ele><time>2022-06-05T07:30:26.000Z</time></trkpt><trkpt lon="5.758496" lat="51.374964"><ele>20.8</ele><time>2022-06-05T07:30:27.000Z</time></trkpt><trkpt lon="5.75845" lat="51.375016"><ele>20.6</ele><time>2022-06-05T07:30:28.000Z</time></trkpt><trkpt lon="5.758407" lat="51.375078"><ele>20.4</ele><time>2022-06-05T07:30:29.000Z</time></trkpt><trkpt lon="5.758366" lat="51.375143"><ele>20.4</ele><time>2022-06-05T07:30:30.000Z</time></trkpt><trkpt lon="5.758326" lat="51.375212"><ele>20.2</ele><time>2022-06-05T07:30:31.000Z</time></trkpt><trkpt lon="5.758287" lat="51.375277"><ele>20</ele><time>2022-06-05T07:30:32.000Z</time></trkpt><trkpt lon="5.758249" lat="51.375345"><ele>20</ele><time>2022-06-05T07:30:33.000Z</time></trkpt><trkpt lon="5.758212" lat="51.375413"><ele>20</ele><time>2022-06-05T07:30:34.000Z</time></trkpt><trkpt lon="5.758172" lat="51.375478"><ele>20</ele><time>2022-06-05T07:30:35.000Z</time></trkpt><trkpt lon="5.758131" lat="51.375545"><ele>20</ele><time>2022-06-05T07:30:36.000Z</time></trkpt><trkpt lon="5.758088" lat="51.375612"><ele>20</ele><time>2022-06-05T07:30:37.000Z</time></trkpt><trkpt lon="5.758047" lat="51.375676"><ele>20</ele><time>2022-06-05T07:30:38.000Z</time></trkpt><trkpt lon="5.758006" lat="51.375742"><ele>20</ele><time>2022-06-05T07:30:39.000Z</time></trkpt><trkpt lon="5.757965" lat="51.375807"><ele>20</ele><time>2022-06-05T07:30:40.000Z</time></trkpt><trkpt lon="5.757923" lat="51.375869"><ele>19.8</ele><time>2022-06-05T07:30:41.000Z</time></trkpt><trkpt lon="5.757882" lat="51.375936"><ele>19.8</ele><time>2022-06-05T07:30:42.000Z</time></trkpt><trkpt lon="5.757839" lat="51.376002"><ele>19.8</ele><time>2022-06-05T07:30:43.000Z</time></trkpt><trkpt lon="5.757796" lat="51.376066"><ele>19.6</ele><time>2022-06-05T07:30:44.000Z</time></trkpt><trkpt lon="5.757754" lat="51.376131"><ele>19.6</ele><time>2022-06-05T07:30:45.000Z</time></trkpt><trkpt lon="5.757717" lat="51.376199"><ele>19.6</ele><time>2022-06-05T07:30:46.000Z</time></trkpt><trkpt lon="5.757679" lat="51.376263"><ele>19.6</ele><time>2022-06-05T07:30:47.000Z</time></trkpt><trkpt lon="5.757643" lat="51.376327"><ele>19.6</ele><time>2022-06-05T07:30:48.000Z</time></trkpt><trkpt lon="5.757608" lat="51.376393"><ele>19.6</ele><time>2022-06-05T07:30:49.000Z</time></trkpt><trkpt lon="5.757574" lat="51.376459"><ele>19.8</ele><time>2022-06-05T07:30:50.000Z</time></trkpt><trkpt lon="5.757543" lat="51.37652"><ele>19.8</ele><time>2022-06-05T07:30:51.000Z</time></trkpt><trkpt lon="5.757514" lat="51.376581"><ele>19.8</ele><time>2022-06-05T07:30:52.000Z</time></trkpt><trkpt lon="5.75749" lat="51.37664"><ele>19.8</ele><time>2022-06-05T07:30:53.000Z</time></trkpt><trkpt lon="5.757471" lat="51.376703"><ele>20</ele><time>2022-06-05T07:30:54.000Z</time></trkpt><trkpt lon="5.75746" lat="51.376765"><ele>20</ele><time>2022-06-05T07:30:55.000Z</time></trkpt><trkpt lon="5.757451" lat="51.376821"><ele>19.8</ele><time>2022-06-05T07:30:56.000Z</time></trkpt><trkpt lon="5.757421" lat="51.376871"><ele>20</ele><time>2022-06-05T07:30:57.000Z</time></trkpt><trkpt lon="5.757363" lat="51.376909"><ele>20</ele><time>2022-06-05T07:30:58.000Z</time></trkpt><trkpt lon="5.757279" lat="51.376919"><ele>20.2</ele><time>2022-06-05T07:30:59.000Z</time></trkpt><trkpt lon="5.757182" lat="51.376915"><ele>20.4</ele><time>2022-06-05T07:31:00.000Z</time></trkpt><trkpt lon="5.757094" lat="51.376905"><ele>20.6</ele><time>2022-06-05T07:31:01.000Z</time></trkpt><trkpt lon="5.75698" lat="51.376885"><ele>20.6</ele><time>2022-06-05T07:31:02.000Z</time></trkpt><trkpt lon="5.756881" lat="51.37687"><ele>20.8</ele><time>2022-06-05T07:31:03.000Z</time></trkpt><trkpt lon="5.756788" lat="51.376851"><ele>20.8</ele><time>2022-06-05T07:31:04.000Z</time></trkpt><trkpt lon="5.756694" lat="51.376835"><ele>20.8</ele><time>2022-06-05T07:31:05.000Z</time></trkpt><trkpt lon="5.756603" lat="51.376824"><ele>20.8</ele><time>2022-06-05T07:31:06.000Z</time></trkpt><trkpt lon="5.756515" lat="51.376809"><ele>20.6</ele><time>2022-06-05T07:31:07.000Z</time></trkpt><trkpt lon="5.756433" lat="51.37679"><ele>20.8</ele><time>2022-06-05T07:31:08.000Z</time></trkpt><trkpt lon="5.756341" lat="51.376771"><ele>20.6</ele><time>2022-06-05T07:31:09.000Z</time></trkpt><trkpt lon="5.756251" lat="51.376755"><ele>20.6</ele><time>2022-06-05T07:31:10.000Z</time></trkpt><trkpt lon="5.756151" lat="51.376755"><ele>20.6</ele><time>2022-06-05T07:31:11.000Z</time></trkpt><trkpt lon="5.756048" lat="51.376755"><ele>20.6</ele><time>2022-06-05T07:31:12.000Z</time></trkpt><trkpt lon="5.755941" lat="51.376758"><ele>20.8</ele><time>2022-06-05T07:31:13.000Z</time></trkpt><trkpt lon="5.755833" lat="51.376766"><ele>20.6</ele><time>2022-06-05T07:31:14.000Z</time></trkpt><trkpt lon="5.755731" lat="51.376777"><ele>20.6</ele><time>2022-06-05T07:31:15.000Z</time></trkpt><trkpt lon="5.755627" lat="51.376796"><ele>20.6</ele><time>2022-06-05T07:31:16.000Z</time></trkpt><trkpt lon="5.755512" lat="51.376815"><ele>20.6</ele><time>2022-06-05T07:31:17.000Z</time></trkpt><trkpt lon="5.755404" lat="51.376834"><ele>20.4</ele><time>2022-06-05T07:31:18.000Z</time></trkpt><trkpt lon="5.755299" lat="51.376854"><ele>20.4</ele><time>2022-06-05T07:31:19.000Z</time></trkpt><trkpt lon="5.755189" lat="51.376876"><ele>20.2</ele><time>2022-06-05T07:31:20.000Z</time></trkpt><trkpt lon="5.755073" lat="51.376903"><ele>20.2</ele><time>2022-06-05T07:31:21.000Z</time></trkpt><trkpt lon="5.754956" lat="51.376929"><ele>20.2</ele><time>2022-06-05T07:31:22.000Z</time></trkpt><trkpt lon="5.754848" lat="51.376952"><ele>20.2</ele><time>2022-06-05T07:31:23.000Z</time></trkpt><trkpt lon="5.754739" lat="51.376979"><ele>20</ele><time>2022-06-05T07:31:24.000Z</time></trkpt><trkpt lon="5.754633" lat="51.377005"><ele>20</ele><time>2022-06-05T07:31:25.000Z</time></trkpt><trkpt lon="5.754526" lat="51.377032"><ele>20</ele><time>2022-06-05T07:31:26.000Z</time></trkpt><trkpt lon="5.754418" lat="51.377056"><ele>20</ele><time>2022-06-05T07:31:27.000Z</time></trkpt><trkpt lon="5.754308" lat="51.377082"><ele>20</ele><time>2022-06-05T07:31:28.000Z</time></trkpt><trkpt lon="5.754197" lat="51.377105"><ele>20</ele><time>2022-06-05T07:31:29.000Z</time></trkpt><trkpt lon="5.754083" lat="51.377128"><ele>19.8</ele><time>2022-06-05T07:31:30.000Z</time></trkpt><trkpt lon="5.753975" lat="51.377154"><ele>19.8</ele><time>2022-06-05T07:31:31.000Z</time></trkpt><trkpt lon="5.753872" lat="51.377177"><ele>19.8</ele><time>2022-06-05T07:31:32.000Z</time></trkpt><trkpt lon="5.753766" lat="51.3772"><ele>19.8</ele><time>2022-06-05T07:31:33.000Z</time></trkpt><trkpt lon="5.753659" lat="51.377223"><ele>19.8</ele><time>2022-06-05T07:31:34.000Z</time></trkpt><trkpt lon="5.753555" lat="51.377246"><ele>19.8</ele><time>2022-06-05T07:31:35.000Z</time></trkpt><trkpt lon="5.753447" lat="51.377269"><ele>19.8</ele><time>2022-06-05T07:31:36.000Z</time></trkpt><trkpt lon="5.753341" lat="51.377295"><ele>19.8</ele><time>2022-06-05T07:31:37.000Z</time></trkpt><trkpt lon="5.753238" lat="51.377319"><ele>19.8</ele><time>2022-06-05T07:31:38.000Z</time></trkpt><trkpt lon="5.753136" lat="51.377338"><ele>19.8</ele><time>2022-06-05T07:31:39.000Z</time></trkpt><trkpt lon="5.753042" lat="51.377363"><ele>19.8</ele><time>2022-06-05T07:31:40.000Z</time></trkpt><trkpt lon="5.752938" lat="51.377395"><ele>20</ele><time>2022-06-05T07:31:41.000Z</time></trkpt><trkpt lon="5.752845" lat="51.377429"><ele>20</ele><time>2022-06-05T07:31:42.000Z</time></trkpt><trkpt lon="5.752756" lat="51.377463"><ele>19.8</ele><time>2022-06-05T07:31:43.000Z</time></trkpt><trkpt lon="5.75267" lat="51.377501"><ele>19.8</ele><time>2022-06-05T07:31:44.000Z</time></trkpt><trkpt lon="5.752584" lat="51.377547"><ele>19.8</ele><time>2022-06-05T07:31:45.000Z</time></trkpt><trkpt lon="5.752499" lat="51.377593"><ele>19.6</ele><time>2022-06-05T07:31:46.000Z</time></trkpt><trkpt lon="5.752414" lat="51.377642"><ele>19.6</ele><time>2022-06-05T07:31:47.000Z</time></trkpt><trkpt lon="5.752331" lat="51.377695"><ele>19.6</ele><time>2022-06-05T07:31:48.000Z</time></trkpt><trkpt lon="5.752246" lat="51.377745"><ele>19.6</ele><time>2022-06-05T07:31:49.000Z</time></trkpt><trkpt lon="5.752164" lat="51.377798"><ele>19.6</ele><time>2022-06-05T07:31:50.000Z</time></trkpt><trkpt lon="5.752084" lat="51.377852"><ele>19.6</ele><time>2022-06-05T07:31:51.000Z</time></trkpt><trkpt lon="5.752005" lat="51.377901"><ele>19.4</ele><time>2022-06-05T07:31:52.000Z</time></trkpt><trkpt lon="5.751926" lat="51.377955"><ele>19.4</ele><time>2022-06-05T07:31:53.000Z</time></trkpt><trkpt lon="5.751847" lat="51.378007"><ele>19.4</ele><time>2022-06-05T07:31:54.000Z</time></trkpt><trkpt lon="5.751767" lat="51.378065"><ele>19.4</ele><time>2022-06-05T07:31:55.000Z</time></trkpt><trkpt lon="5.751689" lat="51.378121"><ele>19.4</ele><time>2022-06-05T07:31:56.000Z</time></trkpt><trkpt lon="5.751607" lat="51.378176"><ele>19.4</ele><time>2022-06-05T07:31:57.000Z</time></trkpt><trkpt lon="5.751529" lat="51.378228"><ele>19.4</ele><time>2022-06-05T07:31:58.000Z</time></trkpt><trkpt lon="5.751451" lat="51.37828"><ele>19.4</ele><time>2022-06-05T07:31:59.000Z</time></trkpt><trkpt lon="5.751367" lat="51.378336"><ele>19.2</ele><time>2022-06-05T07:32:00.000Z</time></trkpt><trkpt lon="5.751282" lat="51.378393"><ele>19.2</ele><time>2022-06-05T07:32:01.000Z</time></trkpt><trkpt lon="5.7512" lat="51.378443"><ele>19.2</ele><time>2022-06-05T07:32:02.000Z</time></trkpt><trkpt lon="5.751121" lat="51.3785"><ele>19.4</ele><time>2022-06-05T07:32:03.000Z</time></trkpt><trkpt lon="5.751045" lat="51.378553"><ele>19.4</ele><time>2022-06-05T07:32:04.000Z</time></trkpt><trkpt lon="5.750968" lat="51.37861"><ele>19.4</ele><time>2022-06-05T07:32:05.000Z</time></trkpt><trkpt lon="5.750889" lat="51.378664"><ele>19.4</ele><time>2022-06-05T07:32:06.000Z</time></trkpt><trkpt lon="5.750811" lat="51.378718"><ele>19.4</ele><time>2022-06-05T07:32:07.000Z</time></trkpt><trkpt lon="5.750733" lat="51.378771"><ele>19.4</ele><time>2022-06-05T07:32:08.000Z</time></trkpt><trkpt lon="5.750654" lat="51.378829"><ele>19.6</ele><time>2022-06-05T07:32:09.000Z</time></trkpt><trkpt lon="5.750578" lat="51.378882"><ele>19.6</ele><time>2022-06-05T07:32:10.000Z</time></trkpt><trkpt lon="5.750501" lat="51.378939"><ele>19.4</ele><time>2022-06-05T07:32:11.000Z</time></trkpt><trkpt lon="5.750423" lat="51.378992"><ele>19.4</ele><time>2022-06-05T07:32:12.000Z</time></trkpt><trkpt lon="5.750347" lat="51.379046"><ele>19.4</ele><time>2022-06-05T07:32:13.000Z</time></trkpt><trkpt lon="5.750268" lat="51.379095"><ele>19.4</ele><time>2022-06-05T07:32:14.000Z</time></trkpt><trkpt lon="5.750189" lat="51.379152"><ele>19.4</ele><time>2022-06-05T07:32:15.000Z</time></trkpt><trkpt lon="5.750111" lat="51.379206"><ele>19.2</ele><time>2022-06-05T07:32:16.000Z</time></trkpt><trkpt lon="5.750031" lat="51.379262"><ele>19.2</ele><time>2022-06-05T07:32:17.000Z</time></trkpt><trkpt lon="5.749952" lat="51.379316"><ele>19</ele><time>2022-06-05T07:32:18.000Z</time></trkpt><trkpt lon="5.749872" lat="51.37937"><ele>19</ele><time>2022-06-05T07:32:19.000Z</time></trkpt><trkpt lon="5.749792" lat="51.379424"><ele>18.8</ele><time>2022-06-05T07:32:20.000Z</time></trkpt><trkpt lon="5.749711" lat="51.379481"><ele>18.8</ele><time>2022-06-05T07:32:21.000Z</time></trkpt><trkpt lon="5.74963" lat="51.379534"><ele>18.8</ele><time>2022-06-05T07:32:22.000Z</time></trkpt><trkpt lon="5.749551" lat="51.379591"><ele>18.8</ele><time>2022-06-05T07:32:23.000Z</time></trkpt><trkpt lon="5.749471" lat="51.379644"><ele>18.8</ele><time>2022-06-05T07:32:24.000Z</time></trkpt><trkpt lon="5.749395" lat="51.379697"><ele>18.8</ele><time>2022-06-05T07:32:25.000Z</time></trkpt><trkpt lon="5.749316" lat="51.379751"><ele>18.6</ele><time>2022-06-05T07:32:26.000Z</time></trkpt><trkpt lon="5.749238" lat="51.379805"><ele>18.6</ele><time>2022-06-05T07:32:27.000Z</time></trkpt><trkpt lon="5.749158" lat="51.379858"><ele>18.8</ele><time>2022-06-05T07:32:28.000Z</time></trkpt><trkpt lon="5.749078" lat="51.379911"><ele>18.8</ele><time>2022-06-05T07:32:29.000Z</time></trkpt><trkpt lon="5.748999" lat="51.379965"><ele>18.8</ele><time>2022-06-05T07:32:30.000Z</time></trkpt><trkpt lon="5.748925" lat="51.380018"><ele>19</ele><time>2022-06-05T07:32:31.000Z</time></trkpt><trkpt lon="5.748851" lat="51.380072"><ele>19</ele><time>2022-06-05T07:32:32.000Z</time></trkpt><trkpt lon="5.748775" lat="51.380124"><ele>19</ele><time>2022-06-05T07:32:33.000Z</time></trkpt><trkpt lon="5.7487" lat="51.380182"><ele>19</ele><time>2022-06-05T07:32:34.000Z</time></trkpt><trkpt lon="5.748624" lat="51.380236"><ele>19</ele><time>2022-06-05T07:32:35.000Z</time></trkpt><trkpt lon="5.748552" lat="51.380289"><ele>19.2</ele><time>2022-06-05T07:32:36.000Z</time></trkpt><trkpt lon="5.74848" lat="51.380343"><ele>19.2</ele><time>2022-06-05T07:32:37.000Z</time></trkpt><trkpt lon="5.74841" lat="51.380396"><ele>19.4</ele><time>2022-06-05T07:32:38.000Z</time></trkpt><trkpt lon="5.748342" lat="51.380446"><ele>19.4</ele><time>2022-06-05T07:32:39.000Z</time></trkpt><trkpt lon="5.748274" lat="51.380499"><ele>19.4</ele><time>2022-06-05T07:32:40.000Z</time></trkpt><trkpt lon="5.748206" lat="51.380556"><ele>19.6</ele><time>2022-06-05T07:32:41.000Z</time></trkpt><trkpt lon="5.748136" lat="51.380609"><ele>19.8</ele><time>2022-06-05T07:32:42.000Z</time></trkpt><trkpt lon="5.748072" lat="51.38066"><ele>20</ele><time>2022-06-05T07:32:43.000Z</time></trkpt><trkpt lon="5.747998" lat="51.380716"><ele>19.8</ele><time>2022-06-05T07:32:44.000Z</time></trkpt><trkpt lon="5.747927" lat="51.380773"><ele>19.8</ele><time>2022-06-05T07:32:45.000Z</time></trkpt><trkpt lon="5.747859" lat="51.380827"><ele>19.8</ele><time>2022-06-05T07:32:46.000Z</time></trkpt><trkpt lon="5.747791" lat="51.38088"><ele>19.6</ele><time>2022-06-05T07:32:47.000Z</time></trkpt><trkpt lon="5.747721" lat="51.380937"><ele>19.6</ele><time>2022-06-05T07:32:48.000Z</time></trkpt><trkpt lon="5.747653" lat="51.380994"><ele>19.8</ele><time>2022-06-05T07:32:49.000Z</time></trkpt><trkpt lon="5.747582" lat="51.381049"><ele>19.8</ele><time>2022-06-05T07:32:50.000Z</time></trkpt><trkpt lon="5.747513" lat="51.381105"><ele>20</ele><time>2022-06-05T07:32:51.000Z</time></trkpt><trkpt lon="5.747444" lat="51.381162"><ele>20</ele><time>2022-06-05T07:32:52.000Z</time></trkpt><trkpt lon="5.747378" lat="51.381214"><ele>20</ele><time>2022-06-05T07:32:53.000Z</time></trkpt><trkpt lon="5.747306" lat="51.381273"><ele>20</ele><time>2022-06-05T07:32:54.000Z</time></trkpt><trkpt lon="5.747234" lat="51.381327"><ele>20</ele><time>2022-06-05T07:32:55.000Z</time></trkpt><trkpt lon="5.747166" lat="51.38138"><ele>20.2</ele><time>2022-06-05T07:32:56.000Z</time></trkpt><trkpt lon="5.747097" lat="51.381438"><ele>20.2</ele><time>2022-06-05T07:32:57.000Z</time></trkpt><trkpt lon="5.747029" lat="51.38149"><ele>20.4</ele><time>2022-06-05T07:32:58.000Z</time></trkpt><trkpt lon="5.746958" lat="51.381544"><ele>20.4</ele><time>2022-06-05T07:32:59.000Z</time></trkpt><trkpt lon="5.746889" lat="51.381601"><ele>20.4</ele><time>2022-06-05T07:33:00.000Z</time></trkpt><trkpt lon="5.746821" lat="51.381654"><ele>20.4</ele><time>2022-06-05T07:33:01.000Z</time></trkpt><trkpt lon="5.746753" lat="51.381708"><ele>20.2</ele><time>2022-06-05T07:33:02.000Z</time></trkpt><trkpt lon="5.746686" lat="51.381764"><ele>20.2</ele><time>2022-06-05T07:33:03.000Z</time></trkpt><trkpt lon="5.746617" lat="51.381819"><ele>20.2</ele><time>2022-06-05T07:33:04.000Z</time></trkpt><trkpt lon="5.746553" lat="51.381875"><ele>20.2</ele><time>2022-06-05T07:33:05.000Z</time></trkpt><trkpt lon="5.74649" lat="51.381933"><ele>20</ele><time>2022-06-05T07:33:06.000Z</time></trkpt><trkpt lon="5.746433" lat="51.381995"><ele>20</ele><time>2022-06-05T07:33:07.000Z</time></trkpt><trkpt lon="5.746385" lat="51.382056"><ele>20</ele><time>2022-06-05T07:33:08.000Z</time></trkpt><trkpt lon="5.746347" lat="51.382118"><ele>20</ele><time>2022-06-05T07:33:09.000Z</time></trkpt><trkpt lon="5.746318" lat="51.382184"><ele>20</ele><time>2022-06-05T07:33:10.000Z</time></trkpt><trkpt lon="5.746296" lat="51.382252"><ele>19.8</ele><time>2022-06-05T07:33:11.000Z</time></trkpt><trkpt lon="5.746278" lat="51.382322"><ele>19.8</ele><time>2022-06-05T07:33:12.000Z</time></trkpt><trkpt lon="5.746262" lat="51.38239"><ele>20</ele><time>2022-06-05T07:33:13.000Z</time></trkpt><trkpt lon="5.746249" lat="51.38246"><ele>20.2</ele><time>2022-06-05T07:33:14.000Z</time></trkpt><trkpt lon="5.746235" lat="51.382528"><ele>20.2</ele><time>2022-06-05T07:33:15.000Z</time></trkpt><trkpt lon="5.746222" lat="51.382596"><ele>20.4</ele><time>2022-06-05T07:33:16.000Z</time></trkpt><trkpt lon="5.746209" lat="51.382665"><ele>20.4</ele><time>2022-06-05T07:33:17.000Z</time></trkpt><trkpt lon="5.746195" lat="51.382734"><ele>20.2</ele><time>2022-06-05T07:33:18.000Z</time></trkpt><trkpt lon="5.746184" lat="51.3828"><ele>20</ele><time>2022-06-05T07:33:19.000Z</time></trkpt><trkpt lon="5.746169" lat="51.382874"><ele>20</ele><time>2022-06-05T07:33:20.000Z</time></trkpt><trkpt lon="5.746155" lat="51.382943"><ele>20</ele><time>2022-06-05T07:33:21.000Z</time></trkpt><trkpt lon="5.746142" lat="51.383016"><ele>20</ele><time>2022-06-05T07:33:22.000Z</time></trkpt><trkpt lon="5.746127" lat="51.383085"><ele>20.2</ele><time>2022-06-05T07:33:23.000Z</time></trkpt><trkpt lon="5.746114" lat="51.383153"><ele>20.2</ele><time>2022-06-05T07:33:24.000Z</time></trkpt><trkpt lon="5.746098" lat="51.383224"><ele>20.2</ele><time>2022-06-05T07:33:25.000Z</time></trkpt><trkpt lon="5.746081" lat="51.383294"><ele>20.4</ele><time>2022-06-05T07:33:26.000Z</time></trkpt><trkpt lon="5.746066" lat="51.383366"><ele>20.4</ele><time>2022-06-05T07:33:27.000Z</time></trkpt><trkpt lon="5.746054" lat="51.383434"><ele>20.4</ele><time>2022-06-05T07:33:28.000Z</time></trkpt><trkpt lon="5.746041" lat="51.383503"><ele>20.4</ele><time>2022-06-05T07:33:29.000Z</time></trkpt><trkpt lon="5.746027" lat="51.383576"><ele>20.6</ele><time>2022-06-05T07:33:30.000Z</time></trkpt><trkpt lon="5.746009" lat="51.383646"><ele>20.4</ele><time>2022-06-05T07:33:31.000Z</time></trkpt><trkpt lon="5.745994" lat="51.383718"><ele>20.4</ele><time>2022-06-05T07:33:32.000Z</time></trkpt><trkpt lon="5.74598" lat="51.383782"><ele>20.2</ele><time>2022-06-05T07:33:33.000Z</time></trkpt><trkpt lon="5.745967" lat="51.383852"><ele>20.2</ele><time>2022-06-05T07:33:34.000Z</time></trkpt><trkpt lon="5.745955" lat="51.383921"><ele>20.2</ele><time>2022-06-05T07:33:35.000Z</time></trkpt><trkpt lon="5.745941" lat="51.383985"><ele>20</ele><time>2022-06-05T07:33:36.000Z</time></trkpt><trkpt lon="5.745924" lat="51.384054"><ele>19.8</ele><time>2022-06-05T07:33:37.000Z</time></trkpt><trkpt lon="5.745911" lat="51.384122"><ele>19.6</ele><time>2022-06-05T07:33:38.000Z</time></trkpt><trkpt lon="5.745897" lat="51.384191"><ele>19.6</ele><time>2022-06-05T07:33:39.000Z</time></trkpt><trkpt lon="5.745881" lat="51.38426"><ele>19.6</ele><time>2022-06-05T07:33:40.000Z</time></trkpt><trkpt lon="5.745866" lat="51.384327"><ele>19.4</ele><time>2022-06-05T07:33:41.000Z</time></trkpt><trkpt lon="5.745854" lat="51.3844"><ele>19.4</ele><time>2022-06-05T07:33:42.000Z</time></trkpt><trkpt lon="5.74584" lat="51.38447"><ele>19.4</ele><time>2022-06-05T07:33:43.000Z</time></trkpt><trkpt lon="5.745829" lat="51.384541"><ele>19.2</ele><time>2022-06-05T07:33:44.000Z</time></trkpt><trkpt lon="5.745812" lat="51.384613"><ele>19.2</ele><time>2022-06-05T07:33:45.000Z</time></trkpt><trkpt lon="5.745795" lat="51.384683"><ele>19.2</ele><time>2022-06-05T07:33:46.000Z</time></trkpt><trkpt lon="5.745779" lat="51.384752"><ele>19.4</ele><time>2022-06-05T07:33:47.000Z</time></trkpt><trkpt lon="5.745766" lat="51.384824"><ele>19.4</ele><time>2022-06-05T07:33:48.000Z</time></trkpt><trkpt lon="5.745754" lat="51.384893"><ele>19.4</ele><time>2022-06-05T07:33:49.000Z</time></trkpt><trkpt lon="5.74574" lat="51.384966"><ele>19.2</ele><time>2022-06-05T07:33:50.000Z</time></trkpt><trkpt lon="5.745729" lat="51.385032"><ele>19.4</ele><time>2022-06-05T07:33:51.000Z</time></trkpt><trkpt lon="5.745714" lat="51.385106"><ele>19.4</ele><time>2022-06-05T07:33:52.000Z</time></trkpt><trkpt lon="5.745699" lat="51.385174"><ele>19.4</ele><time>2022-06-05T07:33:53.000Z</time></trkpt><trkpt lon="5.745684" lat="51.385248"><ele>19.2</ele><time>2022-06-05T07:33:54.000Z</time></trkpt><trkpt lon="5.745667" lat="51.385317"><ele>19.2</ele><time>2022-06-05T07:33:55.000Z</time></trkpt><trkpt lon="5.74565" lat="51.385386"><ele>19</ele><time>2022-06-05T07:33:56.000Z</time></trkpt><trkpt lon="5.745637" lat="51.385458"><ele>19</ele><time>2022-06-05T07:33:57.000Z</time></trkpt><trkpt lon="5.745624" lat="51.385526"><ele>19.2</ele><time>2022-06-05T07:33:58.000Z</time></trkpt><trkpt lon="5.745608" lat="51.385598"><ele>19.4</ele><time>2022-06-05T07:33:59.000Z</time></trkpt><trkpt lon="5.745594" lat="51.385667"><ele>19.4</ele><time>2022-06-05T07:34:00.000Z</time></trkpt><trkpt lon="5.745581" lat="51.385735"><ele>19.4</ele><time>2022-06-05T07:34:01.000Z</time></trkpt><trkpt lon="5.745562" lat="51.385804"><ele>19.4</ele><time>2022-06-05T07:34:02.000Z</time></trkpt><trkpt lon="5.745546" lat="51.385872"><ele>19.2</ele><time>2022-06-05T07:34:03.000Z</time></trkpt><trkpt lon="5.745531" lat="51.385942"><ele>19.2</ele><time>2022-06-05T07:34:04.000Z</time></trkpt><trkpt lon="5.745515" lat="51.386015"><ele>19.2</ele><time>2022-06-05T07:34:05.000Z</time></trkpt><trkpt lon="5.745497" lat="51.386083"><ele>19.2</ele><time>2022-06-05T07:34:06.000Z</time></trkpt><trkpt lon="5.745482" lat="51.386154"><ele>19.2</ele><time>2022-06-05T07:34:07.000Z</time></trkpt><trkpt lon="5.745468" lat="51.38622"><ele>19.2</ele><time>2022-06-05T07:34:08.000Z</time></trkpt><trkpt lon="5.745452" lat="51.386292"><ele>19.2</ele><time>2022-06-05T07:34:09.000Z</time></trkpt><trkpt lon="5.745436" lat="51.386365"><ele>19.4</ele><time>2022-06-05T07:34:10.000Z</time></trkpt><trkpt lon="5.745418" lat="51.386433"><ele>19.4</ele><time>2022-06-05T07:34:11.000Z</time></trkpt><trkpt lon="5.745402" lat="51.386503"><ele>19.4</ele><time>2022-06-05T07:34:12.000Z</time></trkpt><trkpt lon="5.745387" lat="51.386567"><ele>19.4</ele><time>2022-06-05T07:34:13.000Z</time></trkpt><trkpt lon="5.745374" lat="51.38664"><ele>19.4</ele><time>2022-06-05T07:34:14.000Z</time></trkpt><trkpt lon="5.74536" lat="51.386708"><ele>19.4</ele><time>2022-06-05T07:34:15.000Z</time></trkpt><trkpt lon="5.745349" lat="51.386777"><ele>19.4</ele><time>2022-06-05T07:34:16.000Z</time></trkpt><trkpt lon="5.745336" lat="51.386846"><ele>19.4</ele><time>2022-06-05T07:34:17.000Z</time></trkpt><trkpt lon="5.745322" lat="51.386911"><ele>19.2</ele><time>2022-06-05T07:34:18.000Z</time></trkpt><trkpt lon="5.745307" lat="51.386972"><ele>19.2</ele><time>2022-06-05T07:34:19.000Z</time></trkpt><trkpt lon="5.74529" lat="51.387048"><ele>19.2</ele><time>2022-06-05T07:34:20.000Z</time></trkpt><trkpt lon="5.745278" lat="51.387116"><ele>19.2</ele><time>2022-06-05T07:34:21.000Z</time></trkpt><trkpt lon="5.745264" lat="51.387189"><ele>19.2</ele><time>2022-06-05T07:34:22.000Z</time></trkpt><trkpt lon="5.745248" lat="51.38726"><ele>19.2</ele><time>2022-06-05T07:34:23.000Z</time></trkpt><trkpt lon="5.745234" lat="51.38733"><ele>19.2</ele><time>2022-06-05T07:34:24.000Z</time></trkpt><trkpt lon="5.74522" lat="51.387394"><ele>19.4</ele><time>2022-06-05T07:34:25.000Z</time></trkpt><trkpt lon="5.745201" lat="51.387472"><ele>19.4</ele><time>2022-06-05T07:34:26.000Z</time></trkpt><trkpt lon="5.745186" lat="51.387543"><ele>19.4</ele><time>2022-06-05T07:34:27.000Z</time></trkpt><trkpt lon="5.745172" lat="51.387607"><ele>19.4</ele><time>2022-06-05T07:34:28.000Z</time></trkpt><trkpt lon="5.745158" lat="51.38768"><ele>19.2</ele><time>2022-06-05T07:34:29.000Z</time></trkpt><trkpt lon="5.745141" lat="51.387754"><ele>19.2</ele><time>2022-06-05T07:34:30.000Z</time></trkpt><trkpt lon="5.745129" lat="51.387822"><ele>19.4</ele><time>2022-06-05T07:34:31.000Z</time></trkpt><trkpt lon="5.745112" lat="51.387895"><ele>19.2</ele><time>2022-06-05T07:34:32.000Z</time></trkpt><trkpt lon="5.745099" lat="51.387963"><ele>19.2</ele><time>2022-06-05T07:34:33.000Z</time></trkpt><trkpt lon="5.745085" lat="51.388032"><ele>19.2</ele><time>2022-06-05T07:34:34.000Z</time></trkpt><trkpt lon="5.745067" lat="51.388104"><ele>19.2</ele><time>2022-06-05T07:34:35.000Z</time></trkpt><trkpt lon="5.745051" lat="51.388174"><ele>19</ele><time>2022-06-05T07:34:36.000Z</time></trkpt><trkpt lon="5.745037" lat="51.388245"><ele>19</ele><time>2022-06-05T07:34:37.000Z</time></trkpt><trkpt lon="5.745024" lat="51.388315"><ele>19</ele><time>2022-06-05T07:34:38.000Z</time></trkpt><trkpt lon="5.745011" lat="51.38838"><ele>19</ele><time>2022-06-05T07:34:39.000Z</time></trkpt><trkpt lon="5.744997" lat="51.388456"><ele>18.8</ele><time>2022-06-05T07:34:40.000Z</time></trkpt><trkpt lon="5.744982" lat="51.388521"><ele>19</ele><time>2022-06-05T07:34:41.000Z</time></trkpt><trkpt lon="5.744969" lat="51.388589"><ele>19</ele><time>2022-06-05T07:34:42.000Z</time></trkpt><trkpt lon="5.744954" lat="51.388657"><ele>19</ele><time>2022-06-05T07:34:43.000Z</time></trkpt><trkpt lon="5.744939" lat="51.388726"><ele>19</ele><time>2022-06-05T07:34:44.000Z</time></trkpt><trkpt lon="5.744923" lat="51.388795"><ele>18.8</ele><time>2022-06-05T07:34:45.000Z</time></trkpt><trkpt lon="5.744909" lat="51.388867"><ele>19</ele><time>2022-06-05T07:34:46.000Z</time></trkpt><trkpt lon="5.744894" lat="51.388938"><ele>19</ele><time>2022-06-05T07:34:47.000Z</time></trkpt><trkpt lon="5.744881" lat="51.389012"><ele>19</ele><time>2022-06-05T07:34:48.000Z</time></trkpt><trkpt lon="5.744866" lat="51.389077"><ele>18.8</ele><time>2022-06-05T07:34:49.000Z</time></trkpt><trkpt lon="5.744847" lat="51.38915"><ele>18.8</ele><time>2022-06-05T07:34:50.000Z</time></trkpt><trkpt lon="5.744831" lat="51.38921"><ele>18.8</ele><time>2022-06-05T07:34:51.000Z</time></trkpt><trkpt lon="5.744812" lat="51.389288"><ele>19</ele><time>2022-06-05T07:34:52.000Z</time></trkpt><trkpt lon="5.744798" lat="51.389352"><ele>19.2</ele><time>2022-06-05T07:34:53.000Z</time></trkpt><trkpt lon="5.744781" lat="51.389423"><ele>19.2</ele><time>2022-06-05T07:34:54.000Z</time></trkpt><trkpt lon="5.744769" lat="51.389492"><ele>19.2</ele><time>2022-06-05T07:34:55.000Z</time></trkpt><trkpt lon="5.744756" lat="51.389559"><ele>19.4</ele><time>2022-06-05T07:34:56.000Z</time></trkpt><trkpt lon="5.744742" lat="51.38963"><ele>19.4</ele><time>2022-06-05T07:34:57.000Z</time></trkpt><trkpt lon="5.744727" lat="51.389703"><ele>19.6</ele><time>2022-06-05T07:34:58.000Z</time></trkpt><trkpt lon="5.744711" lat="51.389767"><ele>19.4</ele><time>2022-06-05T07:34:59.000Z</time></trkpt><trkpt lon="5.744694" lat="51.389833"><ele>19.2</ele><time>2022-06-05T07:35:00.000Z</time></trkpt><trkpt lon="5.744676" lat="51.389904"><ele>19.2</ele><time>2022-06-05T07:35:01.000Z</time></trkpt><trkpt lon="5.74466" lat="51.389974"><ele>19.2</ele><time>2022-06-05T07:35:02.000Z</time></trkpt><trkpt lon="5.744646" lat="51.390043"><ele>19.2</ele><time>2022-06-05T07:35:03.000Z</time></trkpt><trkpt lon="5.74463" lat="51.390119"><ele>19.2</ele><time>2022-06-05T07:35:04.000Z</time></trkpt><trkpt lon="5.744619" lat="51.390187"><ele>19.2</ele><time>2022-06-05T07:35:05.000Z</time></trkpt><trkpt lon="5.744602" lat="51.390263"><ele>19.2</ele><time>2022-06-05T07:35:06.000Z</time></trkpt><trkpt lon="5.744592" lat="51.390332"><ele>19</ele><time>2022-06-05T07:35:07.000Z</time></trkpt><trkpt lon="5.744577" lat="51.390408"><ele>18.8</ele><time>2022-06-05T07:35:08.000Z</time></trkpt><trkpt lon="5.744564" lat="51.390477"><ele>18.8</ele><time>2022-06-05T07:35:09.000Z</time></trkpt><trkpt lon="5.744549" lat="51.39055"><ele>18.8</ele><time>2022-06-05T07:35:10.000Z</time></trkpt><trkpt lon="5.744537" lat="51.390621"><ele>18.8</ele><time>2022-06-05T07:35:11.000Z</time></trkpt><trkpt lon="5.744525" lat="51.390691"><ele>18.8</ele><time>2022-06-05T07:35:12.000Z</time></trkpt><trkpt lon="5.744512" lat="51.390762"><ele>18.6</ele><time>2022-06-05T07:35:13.000Z</time></trkpt><trkpt lon="5.744497" lat="51.390836"><ele>18.6</ele><time>2022-06-05T07:35:14.000Z</time></trkpt><trkpt lon="5.744482" lat="51.390907"><ele>18.6</ele><time>2022-06-05T07:35:15.000Z</time></trkpt><trkpt lon="5.744466" lat="51.390977"><ele>18.4</ele><time>2022-06-05T07:35:16.000Z</time></trkpt><trkpt lon="5.744452" lat="51.391044"><ele>18</ele><time>2022-06-05T07:35:17.000Z</time></trkpt><trkpt lon="5.744441" lat="51.391115"><ele>18</ele><time>2022-06-05T07:35:18.000Z</time></trkpt><trkpt lon="5.744427" lat="51.39119"><ele>18</ele><time>2022-06-05T07:35:19.000Z</time></trkpt><trkpt lon="5.744417" lat="51.39126"><ele>18</ele><time>2022-06-05T07:35:20.000Z</time></trkpt><trkpt lon="5.744415" lat="51.39133"><ele>18</ele><time>2022-06-05T07:35:21.000Z</time></trkpt><trkpt lon="5.744415" lat="51.3914"><ele>18.2</ele><time>2022-06-05T07:35:22.000Z</time></trkpt><trkpt lon="5.744418" lat="51.39147"><ele>18.2</ele><time>2022-06-05T07:35:23.000Z</time></trkpt><trkpt lon="5.744425" lat="51.391546"><ele>18.2</ele><time>2022-06-05T07:35:24.000Z</time></trkpt><trkpt lon="5.744436" lat="51.391614"><ele>18.2</ele><time>2022-06-05T07:35:25.000Z</time></trkpt><trkpt lon="5.744454" lat="51.391682"><ele>18.2</ele><time>2022-06-05T07:35:26.000Z</time></trkpt><trkpt lon="5.744479" lat="51.391747"><ele>18.4</ele><time>2022-06-05T07:35:27.000Z</time></trkpt><trkpt lon="5.744512" lat="51.391816"><ele>18.6</ele><time>2022-06-05T07:35:28.000Z</time></trkpt><trkpt lon="5.744549" lat="51.391881"><ele>18.8</ele><time>2022-06-05T07:35:29.000Z</time></trkpt><trkpt lon="5.744584" lat="51.391946"><ele>18.6</ele><time>2022-06-05T07:35:30.000Z</time></trkpt><trkpt lon="5.744618" lat="51.392014"><ele>18.4</ele><time>2022-06-05T07:35:31.000Z</time></trkpt><trkpt lon="5.744651" lat="51.39208"><ele>18.4</ele><time>2022-06-05T07:35:32.000Z</time></trkpt><trkpt lon="5.744682" lat="51.392144"><ele>18.4</ele><time>2022-06-05T07:35:33.000Z</time></trkpt><trkpt lon="5.744717" lat="51.392205"><ele>18.4</ele><time>2022-06-05T07:35:34.000Z</time></trkpt><trkpt lon="5.744753" lat="51.392266"><ele>18.4</ele><time>2022-06-05T07:35:35.000Z</time></trkpt><trkpt lon="5.744792" lat="51.392328"><ele>18.4</ele><time>2022-06-05T07:35:36.000Z</time></trkpt><trkpt lon="5.744828" lat="51.392391"><ele>18.4</ele><time>2022-06-05T07:35:37.000Z</time></trkpt><trkpt lon="5.744867" lat="51.392454"><ele>18.6</ele><time>2022-06-05T07:35:38.000Z</time></trkpt><trkpt lon="5.744906" lat="51.392514"><ele>18.6</ele><time>2022-06-05T07:35:39.000Z</time></trkpt><trkpt lon="5.744944" lat="51.392579"><ele>18.8</ele><time>2022-06-05T07:35:40.000Z</time></trkpt><trkpt lon="5.744977" lat="51.392644"><ele>18.8</ele><time>2022-06-05T07:35:41.000Z</time></trkpt><trkpt lon="5.745014" lat="51.392705"><ele>19</ele><time>2022-06-05T07:35:42.000Z</time></trkpt><trkpt lon="5.745051" lat="51.392769"><ele>19.2</ele><time>2022-06-05T07:35:43.000Z</time></trkpt><trkpt lon="5.74509" lat="51.392831"><ele>19.2</ele><time>2022-06-05T07:35:44.000Z</time></trkpt><trkpt lon="5.745126" lat="51.392895"><ele>19</ele><time>2022-06-05T07:35:45.000Z</time></trkpt><trkpt lon="5.745162" lat="51.392958"><ele>19</ele><time>2022-06-05T07:35:46.000Z</time></trkpt><trkpt lon="5.745198" lat="51.393017"><ele>19.2</ele><time>2022-06-05T07:35:47.000Z</time></trkpt><trkpt lon="5.745233" lat="51.393078"><ele>19.2</ele><time>2022-06-05T07:35:48.000Z</time></trkpt><trkpt lon="5.745269" lat="51.393142"><ele>19.2</ele><time>2022-06-05T07:35:49.000Z</time></trkpt><trkpt lon="5.745304" lat="51.393205"><ele>19.2</ele><time>2022-06-05T07:35:50.000Z</time></trkpt><trkpt lon="5.74534" lat="51.393265"><ele>19.2</ele><time>2022-06-05T07:35:51.000Z</time></trkpt><trkpt lon="5.745372" lat="51.393331"><ele>19.2</ele><time>2022-06-05T07:35:52.000Z</time></trkpt><trkpt lon="5.745405" lat="51.393395"><ele>19.2</ele><time>2022-06-05T07:35:53.000Z</time></trkpt><trkpt lon="5.745437" lat="51.393457"><ele>19.2</ele><time>2022-06-05T07:35:54.000Z</time></trkpt><trkpt lon="5.745472" lat="51.393511"><ele>19.2</ele><time>2022-06-05T07:35:55.000Z</time></trkpt><trkpt lon="5.745507" lat="51.393575"><ele>19.4</ele><time>2022-06-05T07:35:56.000Z</time></trkpt><trkpt lon="5.74554" lat="51.393632"><ele>19.4</ele><time>2022-06-05T07:35:57.000Z</time></trkpt><trkpt lon="5.745572" lat="51.393689"><ele>19.6</ele><time>2022-06-05T07:35:58.000Z</time></trkpt><trkpt lon="5.745604" lat="51.393748"><ele>19.6</ele><time>2022-06-05T07:35:59.000Z</time></trkpt><trkpt lon="5.745639" lat="51.393805"><ele>19.6</ele><time>2022-06-05T07:36:00.000Z</time></trkpt><trkpt lon="5.74567" lat="51.393854"><ele>19.8</ele><time>2022-06-05T07:36:01.000Z</time></trkpt><trkpt lon="5.745704" lat="51.393911"><ele>20</ele><time>2022-06-05T07:36:02.000Z</time></trkpt><trkpt lon="5.745737" lat="51.39396"><ele>20.2</ele><time>2022-06-05T07:36:03.000Z</time></trkpt><trkpt lon="5.745767" lat="51.39401"><ele>20.2</ele><time>2022-06-05T07:36:04.000Z</time></trkpt><trkpt lon="5.745792" lat="51.39406"><ele>20.2</ele><time>2022-06-05T07:36:05.000Z</time></trkpt><trkpt lon="5.745798" lat="51.39411"><ele>20.2</ele><time>2022-06-05T07:36:06.000Z</time></trkpt><trkpt lon="5.745778" lat="51.394152"><ele>20.2</ele><time>2022-06-05T07:36:07.000Z</time></trkpt><trkpt lon="5.745732" lat="51.394185"><ele>20.2</ele><time>2022-06-05T07:36:08.000Z</time></trkpt><trkpt lon="5.745659" lat="51.394206"><ele>20.2</ele><time>2022-06-05T07:36:09.000Z</time></trkpt><trkpt lon="5.745579" lat="51.394224"><ele>20.4</ele><time>2022-06-05T07:36:10.000Z</time></trkpt><trkpt lon="5.74549" lat="51.39424"><ele>20.4</ele><time>2022-06-05T07:36:11.000Z</time></trkpt><trkpt lon="5.745396" lat="51.394256"><ele>20.6</ele><time>2022-06-05T07:36:12.000Z</time></trkpt><trkpt lon="5.745295" lat="51.394271"><ele>20.6</ele><time>2022-06-05T07:36:13.000Z</time></trkpt><trkpt lon="5.7452" lat="51.394282"><ele>20.6</ele><time>2022-06-05T07:36:14.000Z</time></trkpt><trkpt lon="5.745092" lat="51.394294"><ele>20.4</ele><time>2022-06-05T07:36:15.000Z</time></trkpt><trkpt lon="5.744989" lat="51.394302"><ele>20.4</ele><time>2022-06-05T07:36:16.000Z</time></trkpt><trkpt lon="5.744881" lat="51.394313"><ele>20.2</ele><time>2022-06-05T07:36:17.000Z</time></trkpt><trkpt lon="5.744777" lat="51.394321"><ele>20.4</ele><time>2022-06-05T07:36:18.000Z</time></trkpt><trkpt lon="5.744663" lat="51.394332"><ele>20.4</ele><time>2022-06-05T07:36:19.000Z</time></trkpt><trkpt lon="5.744557" lat="51.39434"><ele>20.4</ele><time>2022-06-05T07:36:20.000Z</time></trkpt><trkpt lon="5.744447" lat="51.394351"><ele>20.2</ele><time>2022-06-05T07:36:21.000Z</time></trkpt><trkpt lon="5.744336" lat="51.394359"><ele>20.2</ele><time>2022-06-05T07:36:22.000Z</time></trkpt><trkpt lon="5.744217" lat="51.394371"><ele>20</ele><time>2022-06-05T07:36:23.000Z</time></trkpt><trkpt lon="5.744106" lat="51.394382"><ele>20</ele><time>2022-06-05T07:36:24.000Z</time></trkpt><trkpt lon="5.743987" lat="51.394393"><ele>20</ele><time>2022-06-05T07:36:25.000Z</time></trkpt><trkpt lon="5.743875" lat="51.394405"><ele>20</ele><time>2022-06-05T07:36:26.000Z</time></trkpt><trkpt lon="5.743756" lat="51.394416"><ele>20.2</ele><time>2022-06-05T07:36:27.000Z</time></trkpt><trkpt lon="5.74364" lat="51.394427"><ele>20</ele><time>2022-06-05T07:36:28.000Z</time></trkpt><trkpt lon="5.743524" lat="51.394435"><ele>20</ele><time>2022-06-05T07:36:29.000Z</time></trkpt><trkpt lon="5.743409" lat="51.394446"><ele>20</ele><time>2022-06-05T07:36:30.000Z</time></trkpt><trkpt lon="5.743285" lat="51.394462"><ele>19.8</ele><time>2022-06-05T07:36:31.000Z</time></trkpt><trkpt lon="5.743167" lat="51.394473"><ele>19.8</ele><time>2022-06-05T07:36:32.000Z</time></trkpt><trkpt lon="5.743048" lat="51.394493"><ele>20</ele><time>2022-06-05T07:36:33.000Z</time></trkpt><trkpt lon="5.742942" lat="51.394518"><ele>19.8</ele><time>2022-06-05T07:36:34.000Z</time></trkpt><trkpt lon="5.742843" lat="51.394559"><ele>19.8</ele><time>2022-06-05T07:36:35.000Z</time></trkpt><trkpt lon="5.742745" lat="51.394609"><ele>19.8</ele><time>2022-06-05T07:36:36.000Z</time></trkpt><trkpt lon="5.742646" lat="51.394659"><ele>19.6</ele><time>2022-06-05T07:36:37.000Z</time></trkpt><trkpt lon="5.742559" lat="51.394704"><ele>19.6</ele><time>2022-06-05T07:36:38.000Z</time></trkpt><trkpt lon="5.742457" lat="51.394762"><ele>19.6</ele><time>2022-06-05T07:36:39.000Z</time></trkpt><trkpt lon="5.742373" lat="51.39481"><ele>19.6</ele><time>2022-06-05T07:36:40.000Z</time></trkpt><trkpt lon="5.742283" lat="51.394861"><ele>19.6</ele><time>2022-06-05T07:36:41.000Z</time></trkpt><trkpt lon="5.742198" lat="51.39491"><ele>19.6</ele><time>2022-06-05T07:36:42.000Z</time></trkpt><trkpt lon="5.74211" lat="51.39496"><ele>19.8</ele><time>2022-06-05T07:36:43.000Z</time></trkpt><trkpt lon="5.742022" lat="51.395009"><ele>19.6</ele><time>2022-06-05T07:36:44.000Z</time></trkpt><trkpt lon="5.741931" lat="51.395059"><ele>19.6</ele><time>2022-06-05T07:36:45.000Z</time></trkpt><trkpt lon="5.741841" lat="51.395108"><ele>19.6</ele><time>2022-06-05T07:36:46.000Z</time></trkpt><trkpt lon="5.741748" lat="51.395163"><ele>19.4</ele><time>2022-06-05T07:36:47.000Z</time></trkpt><trkpt lon="5.741659" lat="51.395211"><ele>19.4</ele><time>2022-06-05T07:36:48.000Z</time></trkpt><trkpt lon="5.741569" lat="51.395262"><ele>19.6</ele><time>2022-06-05T07:36:49.000Z</time></trkpt><trkpt lon="5.741481" lat="51.395311"><ele>19.6</ele><time>2022-06-05T07:36:50.000Z</time></trkpt><trkpt lon="5.74139" lat="51.395361"><ele>19.8</ele><time>2022-06-05T07:36:51.000Z</time></trkpt><trkpt lon="5.741304" lat="51.39541"><ele>20</ele><time>2022-06-05T07:36:52.000Z</time></trkpt><trkpt lon="5.741219" lat="51.395455"><ele>19.8</ele><time>2022-06-05T07:36:53.000Z</time></trkpt><trkpt lon="5.74113" lat="51.395503"><ele>19.8</ele><time>2022-06-05T07:36:54.000Z</time></trkpt><trkpt lon="5.741038" lat="51.395556"><ele>19.8</ele><time>2022-06-05T07:36:55.000Z</time></trkpt><trkpt lon="5.740952" lat="51.395604"><ele>19.8</ele><time>2022-06-05T07:36:56.000Z</time></trkpt><trkpt lon="5.740862" lat="51.395655"><ele>19.8</ele><time>2022-06-05T07:36:57.000Z</time></trkpt><trkpt lon="5.740779" lat="51.395699"><ele>20</ele><time>2022-06-05T07:36:58.000Z</time></trkpt><trkpt lon="5.740691" lat="51.395746"><ele>20</ele><time>2022-06-05T07:36:59.000Z</time></trkpt><trkpt lon="5.740606" lat="51.395795"><ele>20</ele><time>2022-06-05T07:37:00.000Z</time></trkpt><trkpt lon="5.740521" lat="51.395845"><ele>20</ele><time>2022-06-05T07:37:01.000Z</time></trkpt><trkpt lon="5.74044" lat="51.395902"><ele>20</ele><time>2022-06-05T07:37:02.000Z</time></trkpt><trkpt lon="5.740363" lat="51.39596"><ele>20</ele><time>2022-06-05T07:37:03.000Z</time></trkpt><trkpt lon="5.740291" lat="51.396016"><ele>20</ele><time>2022-06-05T07:37:04.000Z</time></trkpt><trkpt lon="5.740217" lat="51.396077"><ele>20</ele><time>2022-06-05T07:37:05.000Z</time></trkpt><trkpt lon="5.740145" lat="51.396135"><ele>20</ele><time>2022-06-05T07:37:06.000Z</time></trkpt><trkpt lon="5.740077" lat="51.396195"><ele>20</ele><time>2022-06-05T07:37:07.000Z</time></trkpt><trkpt lon="5.74001" lat="51.396253"><ele>20</ele><time>2022-06-05T07:37:08.000Z</time></trkpt><trkpt lon="5.73994" lat="51.396321"><ele>20.2</ele><time>2022-06-05T07:37:09.000Z</time></trkpt><trkpt lon="5.739875" lat="51.396381"><ele>20.2</ele><time>2022-06-05T07:37:10.000Z</time></trkpt><trkpt lon="5.739806" lat="51.396439"><ele>20</ele><time>2022-06-05T07:37:11.000Z</time></trkpt><trkpt lon="5.73974" lat="51.3965"><ele>20</ele><time>2022-06-05T07:37:12.000Z</time></trkpt><trkpt lon="5.739673" lat="51.396554"><ele>20</ele><time>2022-06-05T07:37:13.000Z</time></trkpt><trkpt lon="5.739613" lat="51.39661"><ele>20</ele><time>2022-06-05T07:37:14.000Z</time></trkpt><trkpt lon="5.739551" lat="51.396672"><ele>20</ele><time>2022-06-05T07:37:15.000Z</time></trkpt><trkpt lon="5.739491" lat="51.396729"><ele>20.2</ele><time>2022-06-05T07:37:16.000Z</time></trkpt><trkpt lon="5.739425" lat="51.396792"><ele>20.2</ele><time>2022-06-05T07:37:17.000Z</time></trkpt><trkpt lon="5.739364" lat="51.396851"><ele>20.2</ele><time>2022-06-05T07:37:18.000Z</time></trkpt><trkpt lon="5.739299" lat="51.39691"><ele>20.2</ele><time>2022-06-05T07:37:19.000Z</time></trkpt><trkpt lon="5.739238" lat="51.396973"><ele>20.4</ele><time>2022-06-05T07:37:20.000Z</time></trkpt><trkpt lon="5.739175" lat="51.397035"><ele>20.4</ele><time>2022-06-05T07:37:21.000Z</time></trkpt><trkpt lon="5.739116" lat="51.397098"><ele>20.4</ele><time>2022-06-05T07:37:22.000Z</time></trkpt><trkpt lon="5.739058" lat="51.397161"><ele>20.4</ele><time>2022-06-05T07:37:23.000Z</time></trkpt><trkpt lon="5.739" lat="51.397228"><ele>20.4</ele><time>2022-06-05T07:37:24.000Z</time></trkpt><trkpt lon="5.738946" lat="51.397288"><ele>20.6</ele><time>2022-06-05T07:37:25.000Z</time></trkpt><trkpt lon="5.738893" lat="51.397347"><ele>20.6</ele><time>2022-06-05T07:37:26.000Z</time></trkpt><trkpt lon="5.738837" lat="51.397408"><ele>20.6</ele><time>2022-06-05T07:37:27.000Z</time></trkpt><trkpt lon="5.738779" lat="51.397467"><ele>20.6</ele><time>2022-06-05T07:37:28.000Z</time></trkpt><trkpt lon="5.738712" lat="51.397531"><ele>20.6</ele><time>2022-06-05T07:37:29.000Z</time></trkpt><trkpt lon="5.738649" lat="51.397588"><ele>20.6</ele><time>2022-06-05T07:37:30.000Z</time></trkpt><trkpt lon="5.738579" lat="51.39765"><ele>20.6</ele><time>2022-06-05T07:37:31.000Z</time></trkpt><trkpt lon="5.738513" lat="51.397705"><ele>20.6</ele><time>2022-06-05T07:37:32.000Z</time></trkpt><trkpt lon="5.738444" lat="51.397768"><ele>20.6</ele><time>2022-06-05T07:37:33.000Z</time></trkpt><trkpt lon="5.738377" lat="51.397824"><ele>20.4</ele><time>2022-06-05T07:37:34.000Z</time></trkpt><trkpt lon="5.73831" lat="51.397878"><ele>20.4</ele><time>2022-06-05T07:37:35.000Z</time></trkpt><trkpt lon="5.738247" lat="51.397934"><ele>20.6</ele><time>2022-06-05T07:37:36.000Z</time></trkpt><trkpt lon="5.738182" lat="51.397988"><ele>20.6</ele><time>2022-06-05T07:37:37.000Z</time></trkpt><trkpt lon="5.738115" lat="51.398038"><ele>20.4</ele><time>2022-06-05T07:37:38.000Z</time></trkpt><trkpt lon="5.738052" lat="51.398088"><ele>20.4</ele><time>2022-06-05T07:37:39.000Z</time></trkpt><trkpt lon="5.737992" lat="51.398137"><ele>20.6</ele><time>2022-06-05T07:37:40.000Z</time></trkpt><trkpt lon="5.737928" lat="51.398184"><ele>20.6</ele><time>2022-06-05T07:37:41.000Z</time></trkpt><trkpt lon="5.737868" lat="51.398228"><ele>20.4</ele><time>2022-06-05T07:37:42.000Z</time></trkpt><trkpt lon="5.73781" lat="51.398272"><ele>20.6</ele><time>2022-06-05T07:37:43.000Z</time></trkpt><trkpt lon="5.737757" lat="51.39832"><ele>20.6</ele><time>2022-06-05T07:37:44.000Z</time></trkpt><trkpt lon="5.737713" lat="51.398367"><ele>20.6</ele><time>2022-06-05T07:37:45.000Z</time></trkpt><trkpt lon="5.737685" lat="51.398412"><ele>20.6</ele><time>2022-06-05T07:37:46.000Z</time></trkpt><trkpt lon="5.737666" lat="51.398451"><ele>20.6</ele><time>2022-06-05T07:37:47.000Z</time></trkpt><trkpt lon="5.737654" lat="51.398482"><ele>20.6</ele><time>2022-06-05T07:37:48.000Z</time></trkpt><trkpt lon="5.737641" lat="51.39852"><ele>20.6</ele><time>2022-06-05T07:37:49.000Z</time></trkpt><trkpt lon="5.737616" lat="51.398554"><ele>20.8</ele><time>2022-06-05T07:37:50.000Z</time></trkpt><trkpt lon="5.737577" lat="51.398585"><ele>20.8</ele><time>2022-06-05T07:37:51.000Z</time></trkpt><trkpt lon="5.737522" lat="51.398607"><ele>20.8</ele><time>2022-06-05T07:37:52.000Z</time></trkpt><trkpt lon="5.73745" lat="51.398616"><ele>20.8</ele><time>2022-06-05T07:37:53.000Z</time></trkpt><trkpt lon="5.737368" lat="51.398624"><ele>20.8</ele><time>2022-06-05T07:37:54.000Z</time></trkpt><trkpt lon="5.737284" lat="51.398624"><ele>21</ele><time>2022-06-05T07:37:55.000Z</time></trkpt><trkpt lon="5.737192" lat="51.398617"><ele>20.8</ele><time>2022-06-05T07:37:56.000Z</time></trkpt><trkpt lon="5.737099" lat="51.39861"><ele>20.8</ele><time>2022-06-05T07:37:57.000Z</time></trkpt><trkpt lon="5.736996" lat="51.398598"><ele>20.8</ele><time>2022-06-05T07:37:58.000Z</time></trkpt><trkpt lon="5.736895" lat="51.398583"><ele>20.6</ele><time>2022-06-05T07:37:59.000Z</time></trkpt><trkpt lon="5.736788" lat="51.398564"><ele>20.6</ele><time>2022-06-05T07:38:00.000Z</time></trkpt><trkpt lon="5.736686" lat="51.398545"><ele>20.6</ele><time>2022-06-05T07:38:01.000Z</time></trkpt><trkpt lon="5.736577" lat="51.398526"><ele>20.6</ele><time>2022-06-05T07:38:02.000Z</time></trkpt><trkpt lon="5.736474" lat="51.398504"><ele>20.4</ele><time>2022-06-05T07:38:03.000Z</time></trkpt><trkpt lon="5.736365" lat="51.39848"><ele>20.4</ele><time>2022-06-05T07:38:04.000Z</time></trkpt><trkpt lon="5.736269" lat="51.39846"><ele>20.4</ele><time>2022-06-05T07:38:05.000Z</time></trkpt><trkpt lon="5.73615" lat="51.398435"><ele>20.4</ele><time>2022-06-05T07:38:06.000Z</time></trkpt><trkpt lon="5.736043" lat="51.398416"><ele>20.4</ele><time>2022-06-05T07:38:07.000Z</time></trkpt><trkpt lon="5.735931" lat="51.398393"><ele>20.4</ele><time>2022-06-05T07:38:08.000Z</time></trkpt><trkpt lon="5.735825" lat="51.39837"><ele>20.2</ele><time>2022-06-05T07:38:09.000Z</time></trkpt><trkpt lon="5.735717" lat="51.398347"><ele>20.2</ele><time>2022-06-05T07:38:10.000Z</time></trkpt><trkpt lon="5.735612" lat="51.398328"><ele>20.2</ele><time>2022-06-05T07:38:11.000Z</time></trkpt><trkpt lon="5.7355" lat="51.398305"><ele>20.2</ele><time>2022-06-05T07:38:12.000Z</time></trkpt><trkpt lon="5.735395" lat="51.398286"><ele>20.2</ele><time>2022-06-05T07:38:13.000Z</time></trkpt><trkpt lon="5.735285" lat="51.398267"><ele>20.2</ele><time>2022-06-05T07:38:14.000Z</time></trkpt><trkpt lon="5.735181" lat="51.398248"><ele>20.2</ele><time>2022-06-05T07:38:15.000Z</time></trkpt><trkpt lon="5.73507" lat="51.398225"><ele>20.2</ele><time>2022-06-05T07:38:16.000Z</time></trkpt><trkpt lon="5.734959" lat="51.398206"><ele>20</ele><time>2022-06-05T07:38:17.000Z</time></trkpt><trkpt lon="5.73485" lat="51.398187"><ele>20</ele><time>2022-06-05T07:38:18.000Z</time></trkpt><trkpt lon="5.734747" lat="51.398169"><ele>20</ele><time>2022-06-05T07:38:19.000Z</time></trkpt><trkpt lon="5.734631" lat="51.398149"><ele>20</ele><time>2022-06-05T07:38:20.000Z</time></trkpt><trkpt lon="5.73452" lat="51.398134"><ele>20.2</ele><time>2022-06-05T07:38:21.000Z</time></trkpt><trkpt lon="5.734409" lat="51.398118"><ele>20.2</ele><time>2022-06-05T07:38:22.000Z</time></trkpt><trkpt lon="5.734299" lat="51.398103"><ele>20.2</ele><time>2022-06-05T07:38:23.000Z</time></trkpt><trkpt lon="5.734187" lat="51.398087"><ele>20.2</ele><time>2022-06-05T07:38:24.000Z</time></trkpt><trkpt lon="5.734079" lat="51.398076"><ele>20.4</ele><time>2022-06-05T07:38:25.000Z</time></trkpt><trkpt lon="5.733963" lat="51.39806"><ele>20.4</ele><time>2022-06-05T07:38:26.000Z</time></trkpt><trkpt lon="5.733859" lat="51.398043"><ele>20.4</ele><time>2022-06-05T07:38:27.000Z</time></trkpt><trkpt lon="5.73374" lat="51.398026"><ele>20.4</ele><time>2022-06-05T07:38:28.000Z</time></trkpt><trkpt lon="5.733635" lat="51.398008"><ele>20.4</ele><time>2022-06-05T07:38:29.000Z</time></trkpt><trkpt lon="5.733532" lat="51.397996"><ele>20.4</ele><time>2022-06-05T07:38:30.000Z</time></trkpt><trkpt lon="5.733426" lat="51.397984"><ele>20.4</ele><time>2022-06-05T07:38:31.000Z</time></trkpt><trkpt lon="5.733321" lat="51.397966"><ele>20.4</ele><time>2022-06-05T07:38:32.000Z</time></trkpt><trkpt lon="5.73322" lat="51.39795"><ele>20.4</ele><time>2022-06-05T07:38:33.000Z</time></trkpt><trkpt lon="5.733119" lat="51.397931"><ele>20.4</ele><time>2022-06-05T07:38:34.000Z</time></trkpt><trkpt lon="5.733026" lat="51.397916"><ele>20.4</ele><time>2022-06-05T07:38:35.000Z</time></trkpt><trkpt lon="5.73293" lat="51.397893"><ele>20.4</ele><time>2022-06-05T07:38:36.000Z</time></trkpt><trkpt lon="5.732846" lat="51.397872"><ele>20.4</ele><time>2022-06-05T07:38:37.000Z</time></trkpt><trkpt lon="5.732754" lat="51.397851"><ele>20.4</ele><time>2022-06-05T07:38:38.000Z</time></trkpt><trkpt lon="5.732666" lat="51.397822"><ele>20.6</ele><time>2022-06-05T07:38:39.000Z</time></trkpt><trkpt lon="5.732576" lat="51.397791"><ele>20.6</ele><time>2022-06-05T07:38:40.000Z</time></trkpt><trkpt lon="5.732491" lat="51.397758"><ele>20.6</ele><time>2022-06-05T07:38:41.000Z</time></trkpt><trkpt lon="5.732401" lat="51.397726"><ele>20.6</ele><time>2022-06-05T07:38:42.000Z</time></trkpt><trkpt lon="5.732328" lat="51.397696"><ele>20.6</ele><time>2022-06-05T07:38:43.000Z</time></trkpt><trkpt lon="5.732239" lat="51.397658"><ele>20.6</ele><time>2022-06-05T07:38:44.000Z</time></trkpt><trkpt lon="5.732157" lat="51.397624"><ele>20.4</ele><time>2022-06-05T07:38:45.000Z</time></trkpt><trkpt lon="5.732077" lat="51.397585"><ele>20.4</ele><time>2022-06-05T07:38:46.000Z</time></trkpt><trkpt lon="5.731997" lat="51.397552"><ele>20.4</ele><time>2022-06-05T07:38:47.000Z</time></trkpt><trkpt lon="5.731915" lat="51.39752"><ele>20.6</ele><time>2022-06-05T07:38:48.000Z</time></trkpt><trkpt lon="5.731839" lat="51.397493"><ele>20.6</ele><time>2022-06-05T07:38:49.000Z</time></trkpt><trkpt lon="5.731761" lat="51.397473"><ele>20.6</ele><time>2022-06-05T07:38:50.000Z</time></trkpt><trkpt lon="5.731684" lat="51.397458"><ele>20.6</ele><time>2022-06-05T07:38:51.000Z</time></trkpt><trkpt lon="5.731606" lat="51.397446"><ele>20.8</ele><time>2022-06-05T07:38:52.000Z</time></trkpt><trkpt lon="5.731539" lat="51.397442"><ele>20.8</ele><time>2022-06-05T07:38:53.000Z</time></trkpt><trkpt lon="5.731459" lat="51.397431"><ele>20.8</ele><time>2022-06-05T07:38:54.000Z</time></trkpt><trkpt lon="5.731386" lat="51.397417"><ele>20.8</ele><time>2022-06-05T07:38:55.000Z</time></trkpt><trkpt lon="5.731312" lat="51.397397"><ele>20.8</ele><time>2022-06-05T07:38:56.000Z</time></trkpt><trkpt lon="5.731237" lat="51.397372"><ele>20.8</ele><time>2022-06-05T07:38:57.000Z</time></trkpt><trkpt lon="5.731144" lat="51.397348"><ele>20.6</ele><time>2022-06-05T07:38:58.000Z</time></trkpt><trkpt lon="5.731052" lat="51.397333"><ele>20.6</ele><time>2022-06-05T07:38:59.000Z</time></trkpt><trkpt lon="5.730944" lat="51.397331"><ele>20.4</ele><time>2022-06-05T07:39:00.000Z</time></trkpt><trkpt lon="5.730845" lat="51.397335"><ele>20.2</ele><time>2022-06-05T07:39:01.000Z</time></trkpt><trkpt lon="5.730738" lat="51.397346"><ele>20.2</ele><time>2022-06-05T07:39:02.000Z</time></trkpt><trkpt lon="5.730632" lat="51.397353"><ele>20.2</ele><time>2022-06-05T07:39:03.000Z</time></trkpt><trkpt lon="5.730519" lat="51.397361"><ele>20.2</ele><time>2022-06-05T07:39:04.000Z</time></trkpt><trkpt lon="5.730413" lat="51.397369"><ele>20.2</ele><time>2022-06-05T07:39:05.000Z</time></trkpt><trkpt lon="5.7303" lat="51.397377"><ele>20.2</ele><time>2022-06-05T07:39:06.000Z</time></trkpt><trkpt lon="5.730197" lat="51.397384"><ele>20.2</ele><time>2022-06-05T07:39:07.000Z</time></trkpt><trkpt lon="5.730088" lat="51.397392"><ele>20.2</ele><time>2022-06-05T07:39:08.000Z</time></trkpt><trkpt lon="5.729983" lat="51.397399"><ele>20</ele><time>2022-06-05T07:39:09.000Z</time></trkpt><trkpt lon="5.729869" lat="51.397404"><ele>20</ele><time>2022-06-05T07:39:10.000Z</time></trkpt><trkpt lon="5.729762" lat="51.397404"><ele>20</ele><time>2022-06-05T07:39:11.000Z</time></trkpt><trkpt lon="5.729654" lat="51.3974"><ele>20</ele><time>2022-06-05T07:39:12.000Z</time></trkpt><trkpt lon="5.729544" lat="51.397389"><ele>19.8</ele><time>2022-06-05T07:39:13.000Z</time></trkpt><trkpt lon="5.729432" lat="51.39737"><ele>19.8</ele><time>2022-06-05T07:39:14.000Z</time></trkpt><trkpt lon="5.72933" lat="51.397348"><ele>19.8</ele><time>2022-06-05T07:39:15.000Z</time></trkpt><trkpt lon="5.729225" lat="51.397321"><ele>19.8</ele><time>2022-06-05T07:39:16.000Z</time></trkpt><trkpt lon="5.729128" lat="51.397289"><ele>19.8</ele><time>2022-06-05T07:39:17.000Z</time></trkpt><trkpt lon="5.729028" lat="51.397253"><ele>19.8</ele><time>2022-06-05T07:39:18.000Z</time></trkpt><trkpt lon="5.728935" lat="51.397217"><ele>19.8</ele><time>2022-06-05T07:39:19.000Z</time></trkpt><trkpt lon="5.72884" lat="51.397177"><ele>19.8</ele><time>2022-06-05T07:39:20.000Z</time></trkpt><trkpt lon="5.728748" lat="51.397143"><ele>19.8</ele><time>2022-06-05T07:39:21.000Z</time></trkpt><trkpt lon="5.728655" lat="51.397105"><ele>19.8</ele><time>2022-06-05T07:39:22.000Z</time></trkpt><trkpt lon="5.728562" lat="51.397071"><ele>19.8</ele><time>2022-06-05T07:39:23.000Z</time></trkpt><trkpt lon="5.728463" lat="51.397032"><ele>19.8</ele><time>2022-06-05T07:39:24.000Z</time></trkpt><trkpt lon="5.728371" lat="51.396996"><ele>19.8</ele><time>2022-06-05T07:39:25.000Z</time></trkpt><trkpt lon="5.728267" lat="51.396956"><ele>19.8</ele><time>2022-06-05T07:39:26.000Z</time></trkpt><trkpt lon="5.72817" lat="51.396922"><ele>19.8</ele><time>2022-06-05T07:39:27.000Z</time></trkpt><trkpt lon="5.728067" lat="51.396891"><ele>19.8</ele><time>2022-06-05T07:39:28.000Z</time></trkpt><trkpt lon="5.727957" lat="51.396867"><ele>19.8</ele><time>2022-06-05T07:39:29.000Z</time></trkpt><trkpt lon="5.727845" lat="51.396844"><ele>19.8</ele><time>2022-06-05T07:39:30.000Z</time></trkpt><trkpt lon="5.727735" lat="51.396828"><ele>19.8</ele><time>2022-06-05T07:39:31.000Z</time></trkpt><trkpt lon="5.727627" lat="51.396813"><ele>19.8</ele><time>2022-06-05T07:39:32.000Z</time></trkpt><trkpt lon="5.72752" lat="51.396798"><ele>19.8</ele><time>2022-06-05T07:39:33.000Z</time></trkpt><trkpt lon="5.727416" lat="51.396783"><ele>19.8</ele><time>2022-06-05T07:39:34.000Z</time></trkpt><trkpt lon="5.727314" lat="51.396767"><ele>20</ele><time>2022-06-05T07:39:35.000Z</time></trkpt><trkpt lon="5.727214" lat="51.396756"><ele>20</ele><time>2022-06-05T07:39:36.000Z</time></trkpt><trkpt lon="5.727122" lat="51.396744"><ele>20.2</ele><time>2022-06-05T07:39:37.000Z</time></trkpt><trkpt lon="5.727032" lat="51.396736"><ele>20.4</ele><time>2022-06-05T07:39:38.000Z</time></trkpt><trkpt lon="5.726943" lat="51.396725"><ele>20.4</ele><time>2022-06-05T07:39:39.000Z</time></trkpt><trkpt lon="5.726856" lat="51.396714"><ele>20.6</ele><time>2022-06-05T07:39:40.000Z</time></trkpt><trkpt lon="5.726773" lat="51.396702"><ele>20.6</ele><time>2022-06-05T07:39:41.000Z</time></trkpt><trkpt lon="5.726701" lat="51.396691"><ele>20.8</ele><time>2022-06-05T07:39:42.000Z</time></trkpt><trkpt lon="5.726643" lat="51.396687"><ele>20.8</ele><time>2022-06-05T07:39:43.000Z</time></trkpt><trkpt lon="5.726605" lat="51.396687"><ele>20.8</ele><time>2022-06-05T07:39:44.000Z</time></trkpt><trkpt lon="5.726581" lat="51.396694"><ele>21</ele><time>2022-06-05T07:39:45.000Z</time></trkpt><trkpt lon="5.726571" lat="51.396701"><ele>21</ele><time>2022-06-05T07:39:46.000Z</time></trkpt><trkpt lon="5.726566" lat="51.396715"><ele>21</ele><time>2022-06-05T07:39:47.000Z</time></trkpt><trkpt lon="5.726562" lat="51.396728"><ele>21</ele><time>2022-06-05T07:39:48.000Z</time></trkpt><trkpt lon="5.72656" lat="51.396747"><ele>21</ele><time>2022-06-05T07:39:49.000Z</time></trkpt><trkpt lon="5.72655" lat="51.39677"><ele>21</ele><time>2022-06-05T07:39:50.000Z</time></trkpt><trkpt lon="5.726524" lat="51.396785"><ele>20.8</ele><time>2022-06-05T07:39:51.000Z</time></trkpt><trkpt lon="5.726483" lat="51.396797"><ele>20.8</ele><time>2022-06-05T07:39:52.000Z</time></trkpt><trkpt lon="5.726431" lat="51.396804"><ele>20.8</ele><time>2022-06-05T07:39:53.000Z</time></trkpt><trkpt lon="5.726372" lat="51.396816"><ele>20.8</ele><time>2022-06-05T07:39:54.000Z</time></trkpt><trkpt lon="5.726309" lat="51.396831"><ele>20.6</ele><time>2022-06-05T07:39:55.000Z</time></trkpt><trkpt lon="5.726244" lat="51.396846"><ele>20.6</ele><time>2022-06-05T07:39:56.000Z</time></trkpt><trkpt lon="5.72618" lat="51.396861"><ele>20.6</ele><time>2022-06-05T07:39:57.000Z</time></trkpt><trkpt lon="5.726116" lat="51.396884"><ele>20.4</ele><time>2022-06-05T07:39:58.000Z</time></trkpt><trkpt lon="5.726054" lat="51.396907"><ele>20.4</ele><time>2022-06-05T07:39:59.000Z</time></trkpt><trkpt lon="5.725999" lat="51.396937"><ele>20.4</ele><time>2022-06-05T07:40:00.000Z</time></trkpt><trkpt lon="5.725957" lat="51.396968"><ele>20.2</ele><time>2022-06-05T07:40:01.000Z</time></trkpt><trkpt lon="5.725956" lat="51.397002"><ele>20.2</ele><time>2022-06-05T07:40:02.000Z</time></trkpt><trkpt lon="5.725963" lat="51.397047"><ele>20.2</ele><time>2022-06-05T07:40:03.000Z</time></trkpt><trkpt lon="5.726002" lat="51.397086"><ele>20.2</ele><time>2022-06-05T07:40:04.000Z</time></trkpt><trkpt lon="5.726051" lat="51.397127"><ele>20.2</ele><time>2022-06-05T07:40:05.000Z</time></trkpt><trkpt lon="5.726115" lat="51.397162"><ele>20</ele><time>2022-06-05T07:40:06.000Z</time></trkpt><trkpt lon="5.726171" lat="51.397189"><ele>20.2</ele><time>2022-06-05T07:40:07.000Z</time></trkpt><trkpt lon="5.726237" lat="51.397219"><ele>20.2</ele><time>2022-06-05T07:40:08.000Z</time></trkpt><trkpt lon="5.726306" lat="51.397243"><ele>20.2</ele><time>2022-06-05T07:40:09.000Z</time></trkpt><trkpt lon="5.72637" lat="51.397262"><ele>20.4</ele><time>2022-06-05T07:40:10.000Z</time></trkpt><trkpt lon="5.726426" lat="51.397281"><ele>20.4</ele><time>2022-06-05T07:40:11.000Z</time></trkpt><trkpt lon="5.726473" lat="51.397293"><ele>20.4</ele><time>2022-06-05T07:40:12.000Z</time></trkpt><trkpt lon="5.726506" lat="51.3973"><ele>20.4</ele><time>2022-06-05T07:40:13.000Z</time></trkpt><trkpt lon="5.726527" lat="51.397308"><ele>20.4</ele><time>2022-06-05T07:40:14.000Z</time></trkpt><trkpt lon="5.72654" lat="51.397312"><ele>20.4</ele><time>2022-06-05T07:40:15.000Z</time></trkpt><trkpt lon="5.726545" lat="51.397312"><ele>20.4</ele><time>2022-06-05T07:40:16.000Z</time></trkpt><trkpt lon="5.726545" lat="51.397312"><ele>20.4</ele><time>2022-06-05T07:40:17.000Z</time></trkpt><trkpt lon="5.726545" lat="51.397312"><ele>20.4</ele><time>2022-06-05T07:40:18.000Z</time></trkpt><trkpt lon="5.726545" lat="51.397312"><ele>20.4</ele><time>2022-06-05T07:40:39.000Z</time></trkpt><trkpt lon="5.726545" lat="51.397312"><ele>20.4</ele><time>2022-06-05T07:40:40.000Z</time></trkpt><trkpt lon="5.726567" lat="51.397323"><ele>20.4</ele><time>2022-06-05T07:40:41.000Z</time></trkpt><trkpt lon="5.726549" lat="51.397316"><ele>20.4</ele><time>2022-06-05T07:40:42.000Z</time></trkpt><trkpt lon="5.726526" lat="51.397309"><ele>20.4</ele><time>2022-06-05T07:40:43.000Z</time></trkpt><trkpt lon="5.726499" lat="51.397297"><ele>20.4</ele><time>2022-06-05T07:40:44.000Z</time></trkpt><trkpt lon="5.726463" lat="51.397286"><ele>20.4</ele><time>2022-06-05T07:40:45.000Z</time></trkpt><trkpt lon="5.726426" lat="51.397271"><ele>20.4</ele><time>2022-06-05T07:40:46.000Z</time></trkpt><trkpt lon="5.726386" lat="51.397259"><ele>20.4</ele><time>2022-06-05T07:40:47.000Z</time></trkpt><trkpt lon="5.72635" lat="51.397248"><ele>20.4</ele><time>2022-06-05T07:40:48.000Z</time></trkpt><trkpt lon="5.726321" lat="51.397233"><ele>20.6</ele><time>2022-06-05T07:40:49.000Z</time></trkpt><trkpt lon="5.726297" lat="51.397217"><ele>20.6</ele><time>2022-06-05T07:40:50.000Z</time></trkpt><trkpt lon="5.726271" lat="51.397202"><ele>20.6</ele><time>2022-06-05T07:40:51.000Z</time></trkpt><trkpt lon="5.72624" lat="51.397187"><ele>20.6</ele><time>2022-06-05T07:40:52.000Z</time></trkpt><trkpt lon="5.726211" lat="51.397173"><ele>20.6</ele><time>2022-06-05T07:40:53.000Z</time></trkpt><trkpt lon="5.726179" lat="51.397156"><ele>20.6</ele><time>2022-06-05T07:40:54.000Z</time></trkpt><trkpt lon="5.726155" lat="51.397145"><ele>20.6</ele><time>2022-06-05T07:40:55.000Z</time></trkpt><trkpt lon="5.726126" lat="51.397133"><ele>20.6</ele><time>2022-06-05T07:40:56.000Z</time></trkpt><trkpt lon="5.726095" lat="51.397118"><ele>20.6</ele><time>2022-06-05T07:40:57.000Z</time></trkpt><trkpt lon="5.72606" lat="51.397103"><ele>20.6</ele><time>2022-06-05T07:40:58.000Z</time></trkpt><trkpt lon="5.72602" lat="51.397088"><ele>20.6</ele><time>2022-06-05T07:40:59.000Z</time></trkpt><trkpt lon="5.725988" lat="51.397065"><ele>20.6</ele><time>2022-06-05T07:41:00.000Z</time></trkpt><trkpt lon="5.725964" lat="51.397035"><ele>20.6</ele><time>2022-06-05T07:41:01.000Z</time></trkpt><trkpt lon="5.72595" lat="51.397004"><ele>20.6</ele><time>2022-06-05T07:41:02.000Z</time></trkpt><trkpt lon="5.725941" lat="51.396977"><ele>20.6</ele><time>2022-06-05T07:41:03.000Z</time></trkpt><trkpt lon="5.725951" lat="51.396954"><ele>20.6</ele><time>2022-06-05T07:41:04.000Z</time></trkpt><trkpt lon="5.726" lat="51.396928"><ele>20.4</ele><time>2022-06-05T07:41:05.000Z</time></trkpt><trkpt lon="5.726068" lat="51.396905"><ele>20.4</ele><time>2022-06-05T07:41:06.000Z</time></trkpt><trkpt lon="5.72616" lat="51.396882"><ele>20.4</ele><time>2022-06-05T07:41:07.000Z</time></trkpt><trkpt lon="5.726253" lat="51.396863"><ele>20.2</ele><time>2022-06-05T07:41:08.000Z</time></trkpt><trkpt lon="5.726346" lat="51.396848"><ele>20.2</ele><time>2022-06-05T07:41:09.000Z</time></trkpt><trkpt lon="5.72644" lat="51.396832"><ele>20.4</ele><time>2022-06-05T07:41:10.000Z</time></trkpt><trkpt lon="5.726531" lat="51.396821"><ele>20.2</ele><time>2022-06-05T07:41:11.000Z</time></trkpt><trkpt lon="5.726623" lat="51.396813"><ele>20.2</ele><time>2022-06-05T07:41:12.000Z</time></trkpt><trkpt lon="5.726714" lat="51.396805"><ele>20.2</ele><time>2022-06-05T07:41:13.000Z</time></trkpt><trkpt lon="5.726808" lat="51.396805"><ele>20.4</ele><time>2022-06-05T07:41:14.000Z</time></trkpt><trkpt lon="5.726899" lat="51.396805"><ele>20.4</ele><time>2022-06-05T07:41:15.000Z</time></trkpt><trkpt lon="5.726992" lat="51.396808"><ele>20.6</ele><time>2022-06-05T07:41:16.000Z</time></trkpt><trkpt lon="5.727086" lat="51.396816"><ele>20.6</ele><time>2022-06-05T07:41:17.000Z</time></trkpt><trkpt lon="5.72718" lat="51.396831"><ele>20.8</ele><time>2022-06-05T07:41:18.000Z</time></trkpt><trkpt lon="5.727274" lat="51.396846"><ele>20.8</ele><time>2022-06-05T07:41:19.000Z</time></trkpt><trkpt lon="5.727366" lat="51.396865"><ele>21</ele><time>2022-06-05T07:41:20.000Z</time></trkpt><trkpt lon="5.727458" lat="51.39688"><ele>21</ele><time>2022-06-05T07:41:21.000Z</time></trkpt><trkpt lon="5.727553" lat="51.396896"><ele>21.2</ele><time>2022-06-05T07:41:22.000Z</time></trkpt><trkpt lon="5.727648" lat="51.396911"><ele>21.2</ele><time>2022-06-05T07:41:23.000Z</time></trkpt><trkpt lon="5.72774" lat="51.396926"><ele>21.4</ele><time>2022-06-05T07:41:24.000Z</time></trkpt><trkpt lon="5.72783" lat="51.396945"><ele>21.4</ele><time>2022-06-05T07:41:25.000Z</time></trkpt><trkpt lon="5.727917" lat="51.396968"><ele>21.6</ele><time>2022-06-05T07:41:26.000Z</time></trkpt><trkpt lon="5.727996" lat="51.396995"><ele>21.8</ele><time>2022-06-05T07:41:27.000Z</time></trkpt><trkpt lon="5.728064" lat="51.397032"><ele>22</ele><time>2022-06-05T07:41:28.000Z</time></trkpt><trkpt lon="5.728118" lat="51.397082"><ele>22.2</ele><time>2022-06-05T07:41:29.000Z</time></trkpt><trkpt lon="5.728151" lat="51.397135"><ele>22.2</ele><time>2022-06-05T07:41:30.000Z</time></trkpt><trkpt lon="5.728158" lat="51.397192"><ele>22.4</ele><time>2022-06-05T07:41:31.000Z</time></trkpt><trkpt lon="5.728143" lat="51.397245"><ele>22.6</ele><time>2022-06-05T07:41:32.000Z</time></trkpt><trkpt lon="5.728104" lat="51.397292"><ele>22.8</ele><time>2022-06-05T07:41:33.000Z</time></trkpt><trkpt lon="5.728042" lat="51.397326"><ele>22.8</ele><time>2022-06-05T07:41:34.000Z</time></trkpt><trkpt lon="5.727964" lat="51.397345"><ele>23</ele><time>2022-06-05T07:41:35.000Z</time></trkpt><trkpt lon="5.727864" lat="51.397354"><ele>23.2</ele><time>2022-06-05T07:41:36.000Z</time></trkpt><trkpt lon="5.727763" lat="51.39735"><ele>23.4</ele><time>2022-06-05T07:41:37.000Z</time></trkpt><trkpt lon="5.727676" lat="51.397338"><ele>23.6</ele><time>2022-06-05T07:41:38.000Z</time></trkpt><trkpt lon="5.727566" lat="51.397313"><ele>23.8</ele><time>2022-06-05T07:41:39.000Z</time></trkpt><trkpt lon="5.727469" lat="51.39729"><ele>23.8</ele><time>2022-06-05T07:41:40.000Z</time></trkpt><trkpt lon="5.727375" lat="51.397271"><ele>24</ele><time>2022-06-05T07:41:41.000Z</time></trkpt><trkpt lon="5.72728" lat="51.397248"><ele>24</ele><time>2022-06-05T07:41:42.000Z</time></trkpt><trkpt lon="5.727185" lat="51.397222"><ele>24.2</ele><time>2022-06-05T07:41:43.000Z</time></trkpt><trkpt lon="5.727088" lat="51.397195"><ele>24.4</ele><time>2022-06-05T07:41:44.000Z</time></trkpt><trkpt lon="5.726991" lat="51.397168"><ele>24.4</ele><time>2022-06-05T07:41:45.000Z</time></trkpt><trkpt lon="5.726893" lat="51.397141"><ele>24.6</ele><time>2022-06-05T07:41:46.000Z</time></trkpt><trkpt lon="5.726798" lat="51.397115"><ele>24.8</ele><time>2022-06-05T07:41:47.000Z</time></trkpt><trkpt lon="5.726702" lat="51.397092"><ele>24.8</ele><time>2022-06-05T07:41:48.000Z</time></trkpt><trkpt lon="5.726603" lat="51.397069"><ele>24.8</ele><time>2022-06-05T07:41:49.000Z</time></trkpt><trkpt lon="5.726503" lat="51.397046"><ele>25</ele><time>2022-06-05T07:41:50.000Z</time></trkpt><trkpt lon="5.726404" lat="51.397019"><ele>25</ele><time>2022-06-05T07:41:51.000Z</time></trkpt><trkpt lon="5.726308" lat="51.396993"><ele>25</ele><time>2022-06-05T07:41:52.000Z</time></trkpt><trkpt lon="5.726213" lat="51.396966"><ele>25.2</ele><time>2022-06-05T07:41:53.000Z</time></trkpt><trkpt lon="5.726117" lat="51.396939"><ele>25.2</ele><time>2022-06-05T07:41:54.000Z</time></trkpt><trkpt lon="5.726024" lat="51.396913"><ele>25.4</ele><time>2022-06-05T07:41:55.000Z</time></trkpt><trkpt lon="5.72593" lat="51.396886"><ele>25.6</ele><time>2022-06-05T07:41:56.000Z</time></trkpt><trkpt lon="5.725839" lat="51.396859"><ele>25.6</ele><time>2022-06-05T07:41:57.000Z</time></trkpt><trkpt lon="5.725746" lat="51.396829"><ele>25.8</ele><time>2022-06-05T07:41:58.000Z</time></trkpt><trkpt lon="5.725655" lat="51.396802"><ele>26</ele><time>2022-06-05T07:41:59.000Z</time></trkpt><trkpt lon="5.725568" lat="51.396775"><ele>26</ele><time>2022-06-05T07:42:00.000Z</time></trkpt><trkpt lon="5.725481" lat="51.396748"><ele>26</ele><time>2022-06-05T07:42:01.000Z</time></trkpt><trkpt lon="5.725393" lat="51.396722"><ele>25.8</ele><time>2022-06-05T07:42:02.000Z</time></trkpt><trkpt lon="5.725307" lat="51.396695"><ele>26</ele><time>2022-06-05T07:42:03.000Z</time></trkpt><trkpt lon="5.725221" lat="51.396668"><ele>26</ele><time>2022-06-05T07:42:04.000Z</time></trkpt><trkpt lon="5.725136" lat="51.396645"><ele>26</ele><time>2022-06-05T07:42:05.000Z</time></trkpt><trkpt lon="5.725051" lat="51.396619"><ele>26</ele><time>2022-06-05T07:42:06.000Z</time></trkpt><trkpt lon="5.724965" lat="51.396588"><ele>26</ele><time>2022-06-05T07:42:07.000Z</time></trkpt><trkpt lon="5.724878" lat="51.396562"><ele>26</ele><time>2022-06-05T07:42:08.000Z</time></trkpt><trkpt lon="5.724799" lat="51.396533"><ele>26</ele><time>2022-06-05T07:42:09.000Z</time></trkpt><trkpt lon="5.724712" lat="51.396504"><ele>26</ele><time>2022-06-05T07:42:10.000Z</time></trkpt><trkpt lon="5.724628" lat="51.396478"><ele>26</ele><time>2022-06-05T07:42:11.000Z</time></trkpt><trkpt lon="5.724543" lat="51.396451"><ele>26</ele><time>2022-06-05T07:42:12.000Z</time></trkpt><trkpt lon="5.724454" lat="51.39642"><ele>25.8</ele><time>2022-06-05T07:42:13.000Z</time></trkpt><trkpt lon="5.724366" lat="51.39639"><ele>25.8</ele><time>2022-06-05T07:42:14.000Z</time></trkpt><trkpt lon="5.724278" lat="51.396364"><ele>25.6</ele><time>2022-06-05T07:42:15.000Z</time></trkpt><trkpt lon="5.724186" lat="51.396337"><ele>25.4</ele><time>2022-06-05T07:42:16.000Z</time></trkpt><trkpt lon="5.724092" lat="51.396307"><ele>25.4</ele><time>2022-06-05T07:42:17.000Z</time></trkpt><trkpt lon="5.723993" lat="51.39628"><ele>25.4</ele><time>2022-06-05T07:42:18.000Z</time></trkpt><trkpt lon="5.723897" lat="51.396254"><ele>25.2</ele><time>2022-06-05T07:42:19.000Z</time></trkpt><trkpt lon="5.723791" lat="51.396226"><ele>25.2</ele><time>2022-06-05T07:42:20.000Z</time></trkpt><trkpt lon="5.723689" lat="51.396203"><ele>25</ele><time>2022-06-05T07:42:21.000Z</time></trkpt><trkpt lon="5.723589" lat="51.39618"><ele>25</ele><time>2022-06-05T07:42:22.000Z</time></trkpt><trkpt lon="5.72349" lat="51.396153"><ele>25</ele><time>2022-06-05T07:42:23.000Z</time></trkpt><trkpt lon="5.72339" lat="51.39613"><ele>24.8</ele><time>2022-06-05T07:42:24.000Z</time></trkpt><trkpt lon="5.72329" lat="51.396107"><ele>24.6</ele><time>2022-06-05T07:42:25.000Z</time></trkpt><trkpt lon="5.72319" lat="51.396085"><ele>24.6</ele><time>2022-06-05T07:42:26.000Z</time></trkpt><trkpt lon="5.723088" lat="51.396062"><ele>24.4</ele><time>2022-06-05T07:42:27.000Z</time></trkpt><trkpt lon="5.722982" lat="51.396043"><ele>24.4</ele><time>2022-06-05T07:42:28.000Z</time></trkpt><trkpt lon="5.722879" lat="51.39602"><ele>24.2</ele><time>2022-06-05T07:42:29.000Z</time></trkpt><trkpt lon="5.722772" lat="51.396001"><ele>24</ele><time>2022-06-05T07:42:30.000Z</time></trkpt><trkpt lon="5.722666" lat="51.395982"><ele>24</ele><time>2022-06-05T07:42:31.000Z</time></trkpt><trkpt lon="5.72256" lat="51.395963"><ele>24</ele><time>2022-06-05T07:42:32.000Z</time></trkpt><trkpt lon="5.722456" lat="51.39594"><ele>23.8</ele><time>2022-06-05T07:42:33.000Z</time></trkpt><trkpt lon="5.722355" lat="51.395921"><ele>23.8</ele><time>2022-06-05T07:42:34.000Z</time></trkpt><trkpt lon="5.722255" lat="51.395905"><ele>23.6</ele><time>2022-06-05T07:42:35.000Z</time></trkpt><trkpt lon="5.722158" lat="51.395886"><ele>23.6</ele><time>2022-06-05T07:42:36.000Z</time></trkpt><trkpt lon="5.722062" lat="51.395871"><ele>23.4</ele><time>2022-06-05T07:42:37.000Z</time></trkpt><trkpt lon="5.721969" lat="51.395852"><ele>23.4</ele><time>2022-06-05T07:42:38.000Z</time></trkpt><trkpt lon="5.721873" lat="51.395837"><ele>23.4</ele><time>2022-06-05T07:42:39.000Z</time></trkpt><trkpt lon="5.721772" lat="51.395821"><ele>23.4</ele><time>2022-06-05T07:42:40.000Z</time></trkpt><trkpt lon="5.721672" lat="51.395802"><ele>23.2</ele><time>2022-06-05T07:42:41.000Z</time></trkpt><trkpt lon="5.721565" lat="51.395783"><ele>23.2</ele><time>2022-06-05T07:42:42.000Z</time></trkpt><trkpt lon="5.72146" lat="51.395764"><ele>23</ele><time>2022-06-05T07:42:43.000Z</time></trkpt><trkpt lon="5.721356" lat="51.395749"><ele>23</ele><time>2022-06-05T07:42:44.000Z</time></trkpt><trkpt lon="5.721245" lat="51.39573"><ele>23</ele><time>2022-06-05T07:42:45.000Z</time></trkpt><trkpt lon="5.721142" lat="51.395714"><ele>23</ele><time>2022-06-05T07:42:46.000Z</time></trkpt><trkpt lon="5.721042" lat="51.395699"><ele>22.8</ele><time>2022-06-05T07:42:47.000Z</time></trkpt><trkpt lon="5.720939" lat="51.395684"><ele>22.8</ele><time>2022-06-05T07:42:48.000Z</time></trkpt><trkpt lon="5.720836" lat="51.395665"><ele>22.8</ele><time>2022-06-05T07:42:49.000Z</time></trkpt><trkpt lon="5.720732" lat="51.39565"><ele>22.8</ele><time>2022-06-05T07:42:50.000Z</time></trkpt><trkpt lon="5.720633" lat="51.39563"><ele>22.8</ele><time>2022-06-05T07:42:51.000Z</time></trkpt><trkpt lon="5.720536" lat="51.395611"><ele>22.8</ele><time>2022-06-05T07:42:52.000Z</time></trkpt><trkpt lon="5.720455" lat="51.395594"><ele>22.8</ele><time>2022-06-05T07:42:53.000Z</time></trkpt><trkpt lon="5.720361" lat="51.395577"><ele>22.8</ele><time>2022-06-05T07:42:54.000Z</time></trkpt><trkpt lon="5.72028" lat="51.395558"><ele>22.8</ele><time>2022-06-05T07:42:55.000Z</time></trkpt><trkpt lon="5.720199" lat="51.395543"><ele>22.8</ele><time>2022-06-05T07:42:56.000Z</time></trkpt><trkpt lon="5.720125" lat="51.395527"><ele>22.8</ele><time>2022-06-05T07:42:57.000Z</time></trkpt><trkpt lon="5.720058" lat="51.395505"><ele>22.8</ele><time>2022-06-05T07:42:58.000Z</time></trkpt><trkpt lon="5.719998" lat="51.395486"><ele>22.8</ele><time>2022-06-05T07:42:59.000Z</time></trkpt><trkpt lon="5.71995" lat="51.395463"><ele>22.8</ele><time>2022-06-05T07:43:00.000Z</time></trkpt><trkpt lon="5.719913" lat="51.395441"><ele>22.8</ele><time>2022-06-05T07:43:01.000Z</time></trkpt><trkpt lon="5.71988" lat="51.39541"><ele>22.8</ele><time>2022-06-05T07:43:02.000Z</time></trkpt><trkpt lon="5.719859" lat="51.395375"><ele>22.8</ele><time>2022-06-05T07:43:03.000Z</time></trkpt><trkpt lon="5.719844" lat="51.395334"><ele>22.8</ele><time>2022-06-05T07:43:04.000Z</time></trkpt><trkpt lon="5.719829" lat="51.395284"><ele>22.8</ele><time>2022-06-05T07:43:05.000Z</time></trkpt><trkpt lon="5.719815" lat="51.395235"><ele>22.8</ele><time>2022-06-05T07:43:06.000Z</time></trkpt><trkpt lon="5.719802" lat="51.395181"><ele>22.8</ele><time>2022-06-05T07:43:07.000Z</time></trkpt><trkpt lon="5.719787" lat="51.395125"><ele>22.8</ele><time>2022-06-05T07:43:08.000Z</time></trkpt><trkpt lon="5.719776" lat="51.395067"><ele>22.6</ele><time>2022-06-05T07:43:09.000Z</time></trkpt><trkpt lon="5.719766" lat="51.395014"><ele>22.6</ele><time>2022-06-05T07:43:10.000Z</time></trkpt><trkpt lon="5.719757" lat="51.394954"><ele>22.6</ele><time>2022-06-05T07:43:11.000Z</time></trkpt><trkpt lon="5.71975" lat="51.394892"><ele>22.6</ele><time>2022-06-05T07:43:12.000Z</time></trkpt><trkpt lon="5.719745" lat="51.394829"><ele>22.6</ele><time>2022-06-05T07:43:13.000Z</time></trkpt><trkpt lon="5.719745" lat="51.394766"><ele>22.8</ele><time>2022-06-05T07:43:14.000Z</time></trkpt><trkpt lon="5.719745" lat="51.394708"><ele>22.8</ele><time>2022-06-05T07:43:15.000Z</time></trkpt><trkpt lon="5.719748" lat="51.394648"><ele>22.8</ele><time>2022-06-05T07:43:16.000Z</time></trkpt><trkpt lon="5.719752" lat="51.394587"><ele>23</ele><time>2022-06-05T07:43:17.000Z</time></trkpt><trkpt lon="5.719756" lat="51.394529"><ele>23</ele><time>2022-06-05T07:43:18.000Z</time></trkpt><trkpt lon="5.719762" lat="51.394472"><ele>23</ele><time>2022-06-05T07:43:19.000Z</time></trkpt><trkpt lon="5.719768" lat="51.394415"><ele>23</ele><time>2022-06-05T07:43:20.000Z</time></trkpt><trkpt lon="5.719775" lat="51.394361"><ele>23</ele><time>2022-06-05T07:43:21.000Z</time></trkpt><trkpt lon="5.71978" lat="51.39431"><ele>23</ele><time>2022-06-05T07:43:22.000Z</time></trkpt><trkpt lon="5.719788" lat="51.394255"><ele>23</ele><time>2022-06-05T07:43:23.000Z</time></trkpt><trkpt lon="5.719796" lat="51.394205"><ele>23.2</ele><time>2022-06-05T07:43:24.000Z</time></trkpt><trkpt lon="5.719806" lat="51.394155"><ele>23.2</ele><time>2022-06-05T07:43:25.000Z</time></trkpt><trkpt lon="5.719815" lat="51.394113"><ele>23.2</ele><time>2022-06-05T07:43:26.000Z</time></trkpt><trkpt lon="5.719827" lat="51.394072"><ele>23.2</ele><time>2022-06-05T07:43:27.000Z</time></trkpt><trkpt lon="5.719836" lat="51.394033"><ele>23.2</ele><time>2022-06-05T07:43:28.000Z</time></trkpt><trkpt lon="5.719841" lat="51.393995"><ele>23.2</ele><time>2022-06-05T07:43:29.000Z</time></trkpt><trkpt lon="5.719837" lat="51.393964"><ele>23.2</ele><time>2022-06-05T07:43:30.000Z</time></trkpt><trkpt lon="5.719812" lat="51.39393"><ele>23.2</ele><time>2022-06-05T07:43:31.000Z</time></trkpt><trkpt lon="5.719779" lat="51.393914"><ele>23.2</ele><time>2022-06-05T07:43:32.000Z</time></trkpt><trkpt lon="5.719709" lat="51.393902"><ele>23.2</ele><time>2022-06-05T07:43:33.000Z</time></trkpt><trkpt lon="5.719637" lat="51.393894"><ele>23.2</ele><time>2022-06-05T07:43:34.000Z</time></trkpt><trkpt lon="5.719564" lat="51.393879"><ele>23.2</ele><time>2022-06-05T07:43:35.000Z</time></trkpt><trkpt lon="5.719497" lat="51.393853"><ele>23.2</ele><time>2022-06-05T07:43:36.000Z</time></trkpt><trkpt lon="5.719444" lat="51.393816"><ele>23.2</ele><time>2022-06-05T07:43:37.000Z</time></trkpt><trkpt lon="5.719408" lat="51.393774"><ele>23.2</ele><time>2022-06-05T07:43:38.000Z</time></trkpt><trkpt lon="5.71939" lat="51.393731"><ele>23.2</ele><time>2022-06-05T07:43:39.000Z</time></trkpt><trkpt lon="5.71939" lat="51.393682"><ele>23.2</ele><time>2022-06-05T07:43:40.000Z</time></trkpt><trkpt lon="5.719409" lat="51.393636"><ele>23.2</ele><time>2022-06-05T07:43:41.000Z</time></trkpt><trkpt lon="5.719448" lat="51.393591"><ele>23.2</ele><time>2022-06-05T07:43:42.000Z</time></trkpt><trkpt lon="5.719509" lat="51.393552"><ele>23.2</ele><time>2022-06-05T07:43:43.000Z</time></trkpt><trkpt lon="5.719589" lat="51.393521"><ele>23</ele><time>2022-06-05T07:43:44.000Z</time></trkpt><trkpt lon="5.719678" lat="51.393491"><ele>23</ele><time>2022-06-05T07:43:45.000Z</time></trkpt><trkpt lon="5.719765" lat="51.393454"><ele>23</ele><time>2022-06-05T07:43:46.000Z</time></trkpt><trkpt lon="5.719847" lat="51.393408"><ele>23</ele><time>2022-06-05T07:43:47.000Z</time></trkpt><trkpt lon="5.719919" lat="51.393363"><ele>23</ele><time>2022-06-05T07:43:48.000Z</time></trkpt><trkpt lon="5.719982" lat="51.393307"><ele>22.8</ele><time>2022-06-05T07:43:49.000Z</time></trkpt><trkpt lon="5.720041" lat="51.393253"><ele>22.8</ele><time>2022-06-05T07:43:50.000Z</time></trkpt><trkpt lon="5.720094" lat="51.393194"><ele>22.8</ele><time>2022-06-05T07:43:51.000Z</time></trkpt><trkpt lon="5.720145" lat="51.393137"><ele>23</ele><time>2022-06-05T07:43:52.000Z</time></trkpt><trkpt lon="5.720202" lat="51.393084"><ele>23</ele><time>2022-06-05T07:43:53.000Z</time></trkpt><trkpt lon="5.720266" lat="51.393026"><ele>22.8</ele><time>2022-06-05T07:43:54.000Z</time></trkpt><trkpt lon="5.720329" lat="51.392969"><ele>22.8</ele><time>2022-06-05T07:43:55.000Z</time></trkpt><trkpt lon="5.720388" lat="51.392912"><ele>22.8</ele><time>2022-06-05T07:43:56.000Z</time></trkpt><trkpt lon="5.72045" lat="51.392855"><ele>22.8</ele><time>2022-06-05T07:43:57.000Z</time></trkpt><trkpt lon="5.720509" lat="51.392798"><ele>22.8</ele><time>2022-06-05T07:43:58.000Z</time></trkpt><trkpt lon="5.720569" lat="51.39274"><ele>22.8</ele><time>2022-06-05T07:43:59.000Z</time></trkpt><trkpt lon="5.72063" lat="51.392683"><ele>23</ele><time>2022-06-05T07:44:00.000Z</time></trkpt><trkpt lon="5.720691" lat="51.392622"><ele>23</ele><time>2022-06-05T07:44:01.000Z</time></trkpt><trkpt lon="5.720753" lat="51.392565"><ele>23</ele><time>2022-06-05T07:44:02.000Z</time></trkpt><trkpt lon="5.720813" lat="51.392508"><ele>22.8</ele><time>2022-06-05T07:44:03.000Z</time></trkpt><trkpt lon="5.720873" lat="51.39245"><ele>22.8</ele><time>2022-06-05T07:44:04.000Z</time></trkpt><trkpt lon="5.720931" lat="51.392393"><ele>22.8</ele><time>2022-06-05T07:44:05.000Z</time></trkpt><trkpt lon="5.720989" lat="51.392336"><ele>22.8</ele><time>2022-06-05T07:44:06.000Z</time></trkpt><trkpt lon="5.721048" lat="51.392279"><ele>22.8</ele><time>2022-06-05T07:44:07.000Z</time></trkpt><trkpt lon="5.721104" lat="51.392222"><ele>22.8</ele><time>2022-06-05T07:44:08.000Z</time></trkpt><trkpt lon="5.72116" lat="51.392168"><ele>22.8</ele><time>2022-06-05T07:44:09.000Z</time></trkpt><trkpt lon="5.721215" lat="51.392111"><ele>22.8</ele><time>2022-06-05T07:44:10.000Z</time></trkpt><trkpt lon="5.721273" lat="51.392057"><ele>22.8</ele><time>2022-06-05T07:44:11.000Z</time></trkpt><trkpt lon="5.721328" lat="51.392004"><ele>22.8</ele><time>2022-06-05T07:44:12.000Z</time></trkpt><trkpt lon="5.721378" lat="51.391954"><ele>23</ele><time>2022-06-05T07:44:13.000Z</time></trkpt><trkpt lon="5.721437" lat="51.391897"><ele>23</ele><time>2022-06-05T07:44:14.000Z</time></trkpt><trkpt lon="5.721492" lat="51.391843"><ele>23</ele><time>2022-06-05T07:44:15.000Z</time></trkpt><trkpt lon="5.721544" lat="51.391795"><ele>23</ele><time>2022-06-05T07:44:16.000Z</time></trkpt><trkpt lon="5.721596" lat="51.391752"><ele>23</ele><time>2022-06-05T07:44:17.000Z</time></trkpt><trkpt lon="5.721655" lat="51.391695"><ele>23.2</ele><time>2022-06-05T07:44:18.000Z</time></trkpt><trkpt lon="5.72171" lat="51.391641"><ele>23.2</ele><time>2022-06-05T07:44:19.000Z</time></trkpt><trkpt lon="5.721765" lat="51.391588"><ele>23.2</ele><time>2022-06-05T07:44:20.000Z</time></trkpt><trkpt lon="5.721816" lat="51.391542"><ele>23.2</ele><time>2022-06-05T07:44:21.000Z</time></trkpt><trkpt lon="5.721884" lat="51.391477"><ele>23.4</ele><time>2022-06-05T07:44:22.000Z</time></trkpt><trkpt lon="5.721939" lat="51.391424"><ele>23.4</ele><time>2022-06-05T07:44:23.000Z</time></trkpt><trkpt lon="5.721998" lat="51.391367"><ele>23.4</ele><time>2022-06-05T07:44:24.000Z</time></trkpt><trkpt lon="5.722055" lat="51.391314"><ele>23.4</ele><time>2022-06-05T07:44:25.000Z</time></trkpt><trkpt lon="5.72211" lat="51.39126"><ele>23.4</ele><time>2022-06-05T07:44:26.000Z</time></trkpt><trkpt lon="5.722167" lat="51.391206"><ele>23.4</ele><time>2022-06-05T07:44:27.000Z</time></trkpt><trkpt lon="5.722222" lat="51.391153"><ele>23.4</ele><time>2022-06-05T07:44:28.000Z</time></trkpt><trkpt lon="5.722276" lat="51.391093"><ele>23.4</ele><time>2022-06-05T07:44:29.000Z</time></trkpt><trkpt lon="5.722326" lat="51.391035"><ele>23.4</ele><time>2022-06-05T07:44:30.000Z</time></trkpt><trkpt lon="5.722375" lat="51.390974"><ele>23.4</ele><time>2022-06-05T07:44:31.000Z</time></trkpt><trkpt lon="5.722419" lat="51.390913"><ele>23.4</ele><time>2022-06-05T07:44:32.000Z</time></trkpt><trkpt lon="5.722455" lat="51.390852"><ele>23.4</ele><time>2022-06-05T07:44:33.000Z</time></trkpt><trkpt lon="5.722488" lat="51.390792"><ele>23.4</ele><time>2022-06-05T07:44:34.000Z</time></trkpt><trkpt lon="5.722518" lat="51.39073"><ele>23.4</ele><time>2022-06-05T07:44:35.000Z</time></trkpt><trkpt lon="5.722545" lat="51.39067"><ele>23.4</ele><time>2022-06-05T07:44:36.000Z</time></trkpt><trkpt lon="5.722572" lat="51.390616"><ele>23.4</ele><time>2022-06-05T07:44:37.000Z</time></trkpt><trkpt lon="5.722599" lat="51.390558"><ele>23.4</ele><time>2022-06-05T07:44:38.000Z</time></trkpt><trkpt lon="5.722624" lat="51.390497"><ele>23.4</ele><time>2022-06-05T07:44:39.000Z</time></trkpt><trkpt lon="5.722649" lat="51.390443"><ele>23.4</ele><time>2022-06-05T07:44:40.000Z</time></trkpt><trkpt lon="5.722663" lat="51.390398"><ele>23.4</ele><time>2022-06-05T07:44:41.000Z</time></trkpt><trkpt lon="5.722659" lat="51.390356"><ele>23.4</ele><time>2022-06-05T07:44:42.000Z</time></trkpt><trkpt lon="5.722638" lat="51.390318"><ele>23.4</ele><time>2022-06-05T07:44:43.000Z</time></trkpt><trkpt lon="5.722603" lat="51.390287"><ele>23.4</ele><time>2022-06-05T07:44:44.000Z</time></trkpt><trkpt lon="5.722571" lat="51.390256"><ele>23.6</ele><time>2022-06-05T07:44:45.000Z</time></trkpt><trkpt lon="5.722556" lat="51.390218"><ele>23.6</ele><time>2022-06-05T07:44:46.000Z</time></trkpt><trkpt lon="5.722561" lat="51.390181"><ele>23.4</ele><time>2022-06-05T07:44:47.000Z</time></trkpt><trkpt lon="5.722578" lat="51.390149"><ele>23.4</ele><time>2022-06-05T07:44:48.000Z</time></trkpt><trkpt lon="5.722592" lat="51.390116"><ele>23.6</ele><time>2022-06-05T07:44:49.000Z</time></trkpt><trkpt lon="5.72261" lat="51.390084"><ele>23.6</ele><time>2022-06-05T07:44:50.000Z</time></trkpt><trkpt lon="5.722628" lat="51.39005"><ele>23.6</ele><time>2022-06-05T07:44:51.000Z</time></trkpt><trkpt lon="5.722643" lat="51.39002"><ele>23.6</ele><time>2022-06-05T07:44:52.000Z</time></trkpt><trkpt lon="5.722645" lat="51.389989"><ele>23.6</ele><time>2022-06-05T07:44:53.000Z</time></trkpt><trkpt lon="5.722635" lat="51.389962"><ele>23.4</ele><time>2022-06-05T07:44:54.000Z</time></trkpt><trkpt lon="5.722605" lat="51.38994"><ele>23.4</ele><time>2022-06-05T07:44:55.000Z</time></trkpt><trkpt lon="5.722552" lat="51.389924"><ele>23.4</ele><time>2022-06-05T07:44:56.000Z</time></trkpt><trkpt lon="5.722487" lat="51.389908"><ele>23.4</ele><time>2022-06-05T07:44:57.000Z</time></trkpt><trkpt lon="5.722416" lat="51.389893"><ele>23.4</ele><time>2022-06-05T07:44:58.000Z</time></trkpt><trkpt lon="5.722332" lat="51.389878"><ele>23.4</ele><time>2022-06-05T07:44:59.000Z</time></trkpt><trkpt lon="5.722241" lat="51.389859"><ele>23.4</ele><time>2022-06-05T07:45:00.000Z</time></trkpt><trkpt lon="5.722146" lat="51.38984"><ele>23.4</ele><time>2022-06-05T07:45:01.000Z</time></trkpt><trkpt lon="5.722052" lat="51.389821"><ele>23.4</ele><time>2022-06-05T07:45:02.000Z</time></trkpt><trkpt lon="5.721958" lat="51.389791"><ele>23.4</ele><time>2022-06-05T07:45:03.000Z</time></trkpt><trkpt lon="5.721865" lat="51.389756"><ele>23.4</ele><time>2022-06-05T07:45:04.000Z</time></trkpt><trkpt lon="5.721776" lat="51.389718"><ele>23.4</ele><time>2022-06-05T07:45:05.000Z</time></trkpt><trkpt lon="5.721687" lat="51.389688"><ele>23.4</ele><time>2022-06-05T07:45:06.000Z</time></trkpt><trkpt lon="5.721597" lat="51.38965"><ele>23.6</ele><time>2022-06-05T07:45:07.000Z</time></trkpt><trkpt lon="5.721505" lat="51.389608"><ele>23.6</ele><time>2022-06-05T07:45:08.000Z</time></trkpt><trkpt lon="5.721414" lat="51.389569"><ele>23.6</ele><time>2022-06-05T07:45:09.000Z</time></trkpt><trkpt lon="5.721328" lat="51.389533"><ele>23.6</ele><time>2022-06-05T07:45:10.000Z</time></trkpt><trkpt lon="5.721235" lat="51.389486"><ele>23.6</ele><time>2022-06-05T07:45:11.000Z</time></trkpt><trkpt lon="5.721148" lat="51.389446"><ele>23.6</ele><time>2022-06-05T07:45:12.000Z</time></trkpt><trkpt lon="5.721047" lat="51.389399"><ele>23.4</ele><time>2022-06-05T07:45:13.000Z</time></trkpt><trkpt lon="5.720945" lat="51.389353"><ele>23.4</ele><time>2022-06-05T07:45:14.000Z</time></trkpt><trkpt lon="5.720851" lat="51.389307"><ele>23.4</ele><time>2022-06-05T07:45:15.000Z</time></trkpt><trkpt lon="5.720752" lat="51.389265"><ele>23.6</ele><time>2022-06-05T07:45:16.000Z</time></trkpt><trkpt lon="5.720654" lat="51.389219"><ele>23.6</ele><time>2022-06-05T07:45:17.000Z</time></trkpt><trkpt lon="5.720563" lat="51.389179"><ele>23.4</ele><time>2022-06-05T07:45:18.000Z</time></trkpt><trkpt lon="5.720464" lat="51.389132"><ele>23.4</ele><time>2022-06-05T07:45:19.000Z</time></trkpt><trkpt lon="5.720365" lat="51.389085"><ele>23.6</ele><time>2022-06-05T07:45:20.000Z</time></trkpt><trkpt lon="5.72027" lat="51.38904"><ele>23.6</ele><time>2022-06-05T07:45:21.000Z</time></trkpt><trkpt lon="5.720177" lat="51.388994"><ele>23.6</ele><time>2022-06-05T07:45:22.000Z</time></trkpt><trkpt lon="5.720083" lat="51.388956"><ele>23.6</ele><time>2022-06-05T07:45:23.000Z</time></trkpt><trkpt lon="5.719996" lat="51.38891"><ele>23.6</ele><time>2022-06-05T07:45:24.000Z</time></trkpt><trkpt lon="5.719907" lat="51.388872"><ele>23.6</ele><time>2022-06-05T07:45:25.000Z</time></trkpt><trkpt lon="5.719809" lat="51.388826"><ele>23.6</ele><time>2022-06-05T07:45:26.000Z</time></trkpt><trkpt lon="5.719715" lat="51.388784"><ele>23.6</ele><time>2022-06-05T07:45:27.000Z</time></trkpt><trkpt lon="5.71962" lat="51.388738"><ele>23.6</ele><time>2022-06-05T07:45:28.000Z</time></trkpt><trkpt lon="5.719527" lat="51.388697"><ele>23.8</ele><time>2022-06-05T07:45:29.000Z</time></trkpt><trkpt lon="5.71943" lat="51.388654"><ele>23.6</ele><time>2022-06-05T07:45:30.000Z</time></trkpt><trkpt lon="5.719338" lat="51.388609"><ele>23.8</ele><time>2022-06-05T07:45:31.000Z</time></trkpt><trkpt lon="5.719251" lat="51.388567"><ele>23.8</ele><time>2022-06-05T07:45:32.000Z</time></trkpt><trkpt lon="5.719162" lat="51.38852"><ele>23.8</ele><time>2022-06-05T07:45:33.000Z</time></trkpt><trkpt lon="5.719074" lat="51.388476"><ele>23.8</ele><time>2022-06-05T07:45:34.000Z</time></trkpt><trkpt lon="5.718981" lat="51.388433"><ele>23.8</ele><time>2022-06-05T07:45:35.000Z</time></trkpt><trkpt lon="5.718886" lat="51.388388"><ele>23.8</ele><time>2022-06-05T07:45:36.000Z</time></trkpt><trkpt lon="5.718787" lat="51.388345"><ele>23.8</ele><time>2022-06-05T07:45:37.000Z</time></trkpt><trkpt lon="5.718689" lat="51.388303"><ele>23.8</ele><time>2022-06-05T07:45:38.000Z</time></trkpt><trkpt lon="5.718593" lat="51.388261"><ele>23.6</ele><time>2022-06-05T07:45:39.000Z</time></trkpt><trkpt lon="5.71851" lat="51.388222"><ele>23.4</ele><time>2022-06-05T07:45:40.000Z</time></trkpt><trkpt lon="5.718404" lat="51.388174"><ele>23.4</ele><time>2022-06-05T07:45:41.000Z</time></trkpt><trkpt lon="5.71831" lat="51.388128"><ele>23.2</ele><time>2022-06-05T07:45:42.000Z</time></trkpt><trkpt lon="5.718217" lat="51.388082"><ele>23.2</ele><time>2022-06-05T07:45:43.000Z</time></trkpt><trkpt lon="5.718127" lat="51.38804"><ele>23.2</ele><time>2022-06-05T07:45:44.000Z</time></trkpt><trkpt lon="5.718038" lat="51.387999"><ele>23</ele><time>2022-06-05T07:45:45.000Z</time></trkpt><trkpt lon="5.717948" lat="51.38796"><ele>23</ele><time>2022-06-05T07:45:46.000Z</time></trkpt><trkpt lon="5.717855" lat="51.387915"><ele>23</ele><time>2022-06-05T07:45:47.000Z</time></trkpt><trkpt lon="5.717757" lat="51.387869"><ele>23</ele><time>2022-06-05T07:45:48.000Z</time></trkpt><trkpt lon="5.717661" lat="51.387823"><ele>23</ele><time>2022-06-05T07:45:49.000Z</time></trkpt><trkpt lon="5.717566" lat="51.387781"><ele>23</ele><time>2022-06-05T07:45:50.000Z</time></trkpt><trkpt lon="5.717471" lat="51.387739"><ele>23</ele><time>2022-06-05T07:45:51.000Z</time></trkpt><trkpt lon="5.717378" lat="51.387701"><ele>23</ele><time>2022-06-05T07:45:52.000Z</time></trkpt><trkpt lon="5.71728" lat="51.387662"><ele>23</ele><time>2022-06-05T07:45:53.000Z</time></trkpt><trkpt lon="5.717187" lat="51.387624"><ele>22.8</ele><time>2022-06-05T07:45:54.000Z</time></trkpt><trkpt lon="5.717095" lat="51.387586"><ele>22.8</ele><time>2022-06-05T07:45:55.000Z</time></trkpt><trkpt lon="5.717006" lat="51.387548"><ele>22.8</ele><time>2022-06-05T07:45:56.000Z</time></trkpt><trkpt lon="5.71692" lat="51.38751"><ele>23</ele><time>2022-06-05T07:45:57.000Z</time></trkpt><trkpt lon="5.716843" lat="51.387479"><ele>23</ele><time>2022-06-05T07:45:58.000Z</time></trkpt><trkpt lon="5.716775" lat="51.387454"><ele>23</ele><time>2022-06-05T07:45:59.000Z</time></trkpt><trkpt lon="5.716704" lat="51.387429"><ele>23</ele><time>2022-06-05T07:46:00.000Z</time></trkpt><trkpt lon="5.716638" lat="51.387406"><ele>23</ele><time>2022-06-05T07:46:01.000Z</time></trkpt><trkpt lon="5.716573" lat="51.38738"><ele>23</ele><time>2022-06-05T07:46:02.000Z</time></trkpt><trkpt lon="5.716517" lat="51.387354"><ele>23</ele><time>2022-06-05T07:46:03.000Z</time></trkpt><trkpt lon="5.716459" lat="51.38733"><ele>22.8</ele><time>2022-06-05T07:46:04.000Z</time></trkpt><trkpt lon="5.716401" lat="51.387307"><ele>22.8</ele><time>2022-06-05T07:46:05.000Z</time></trkpt><trkpt lon="5.716342" lat="51.387295"><ele>22.8</ele><time>2022-06-05T07:46:06.000Z</time></trkpt><trkpt lon="5.716271" lat="51.387291"><ele>22.8</ele><time>2022-06-05T07:46:07.000Z</time></trkpt><trkpt lon="5.716195" lat="51.387284"><ele>22.8</ele><time>2022-06-05T07:46:08.000Z</time></trkpt><trkpt lon="5.716108" lat="51.387265"><ele>22.6</ele><time>2022-06-05T07:46:09.000Z</time></trkpt><trkpt lon="5.716025" lat="51.387235"><ele>22.6</ele><time>2022-06-05T07:46:10.000Z</time></trkpt><trkpt lon="5.715938" lat="51.387204"><ele>22.6</ele><time>2022-06-05T07:46:11.000Z</time></trkpt><trkpt lon="5.715851" lat="51.38717"><ele>22.6</ele><time>2022-06-05T07:46:12.000Z</time></trkpt><trkpt lon="5.715761" lat="51.387136"><ele>22.4</ele><time>2022-06-05T07:46:13.000Z</time></trkpt><trkpt lon="5.715671" lat="51.387098"><ele>22.4</ele><time>2022-06-05T07:46:14.000Z</time></trkpt><trkpt lon="5.715576" lat="51.387059"><ele>22.4</ele><time>2022-06-05T07:46:15.000Z</time></trkpt><trkpt lon="5.71548" lat="51.387018"><ele>22.2</ele><time>2022-06-05T07:46:16.000Z</time></trkpt><trkpt lon="5.715382" lat="51.386976"><ele>22.2</ele><time>2022-06-05T07:46:17.000Z</time></trkpt><trkpt lon="5.715286" lat="51.386938"><ele>22.2</ele><time>2022-06-05T07:46:18.000Z</time></trkpt><trkpt lon="5.715191" lat="51.386899"><ele>22.4</ele><time>2022-06-05T07:46:19.000Z</time></trkpt><trkpt lon="5.715099" lat="51.386861"><ele>22.4</ele><time>2022-06-05T07:46:20.000Z</time></trkpt><trkpt lon="5.715008" lat="51.386827"><ele>22.4</ele><time>2022-06-05T07:46:21.000Z</time></trkpt><trkpt lon="5.714921" lat="51.386789"><ele>22.4</ele><time>2022-06-05T07:46:22.000Z</time></trkpt><trkpt lon="5.714838" lat="51.386756"><ele>22.4</ele><time>2022-06-05T07:46:23.000Z</time></trkpt><trkpt lon="5.714751" lat="51.386716"><ele>22.4</ele><time>2022-06-05T07:46:24.000Z</time></trkpt><trkpt lon="5.714669" lat="51.386679"><ele>22.4</ele><time>2022-06-05T07:46:25.000Z</time></trkpt><trkpt lon="5.714585" lat="51.386647"><ele>22.4</ele><time>2022-06-05T07:46:26.000Z</time></trkpt><trkpt lon="5.714501" lat="51.386613"><ele>22.4</ele><time>2022-06-05T07:46:27.000Z</time></trkpt><trkpt lon="5.714421" lat="51.386582"><ele>22.4</ele><time>2022-06-05T07:46:28.000Z</time></trkpt><trkpt lon="5.714343" lat="51.386549"><ele>22.4</ele><time>2022-06-05T07:46:29.000Z</time></trkpt><trkpt lon="5.714265" lat="51.386518"><ele>22.4</ele><time>2022-06-05T07:46:30.000Z</time></trkpt><trkpt lon="5.714189" lat="51.386483"><ele>22.4</ele><time>2022-06-05T07:46:31.000Z</time></trkpt><trkpt lon="5.714122" lat="51.386454"><ele>22.4</ele><time>2022-06-05T07:46:32.000Z</time></trkpt><trkpt lon="5.714048" lat="51.386419"><ele>22.6</ele><time>2022-06-05T07:46:33.000Z</time></trkpt><trkpt lon="5.713982" lat="51.386392"><ele>22.6</ele><time>2022-06-05T07:46:34.000Z</time></trkpt><trkpt lon="5.713913" lat="51.386361"><ele>22.6</ele><time>2022-06-05T07:46:35.000Z</time></trkpt><trkpt lon="5.713846" lat="51.386331"><ele>22.6</ele><time>2022-06-05T07:46:36.000Z</time></trkpt><trkpt lon="5.713779" lat="51.386301"><ele>22.6</ele><time>2022-06-05T07:46:37.000Z</time></trkpt><trkpt lon="5.713708" lat="51.38627"><ele>22.8</ele><time>2022-06-05T07:46:38.000Z</time></trkpt><trkpt lon="5.713635" lat="51.38624"><ele>22.8</ele><time>2022-06-05T07:46:39.000Z</time></trkpt><trkpt lon="5.713563" lat="51.386212"><ele>22.8</ele><time>2022-06-05T07:46:40.000Z</time></trkpt><trkpt lon="5.713492" lat="51.386186"><ele>22.8</ele><time>2022-06-05T07:46:41.000Z</time></trkpt><trkpt lon="5.713424" lat="51.386162"><ele>22.8</ele><time>2022-06-05T07:46:42.000Z</time></trkpt><trkpt lon="5.713357" lat="51.386143"><ele>22.8</ele><time>2022-06-05T07:46:43.000Z</time></trkpt><trkpt lon="5.7133" lat="51.386124"><ele>22.8</ele><time>2022-06-05T07:46:44.000Z</time></trkpt><trkpt lon="5.713246" lat="51.386105"><ele>22.8</ele><time>2022-06-05T07:46:45.000Z</time></trkpt><trkpt lon="5.713197" lat="51.386083"><ele>22.8</ele><time>2022-06-05T07:46:46.000Z</time></trkpt><trkpt lon="5.713153" lat="51.386067"><ele>22.8</ele><time>2022-06-05T07:46:47.000Z</time></trkpt><trkpt lon="5.713115" lat="51.386052"><ele>22.8</ele><time>2022-06-05T07:46:48.000Z</time></trkpt><trkpt lon="5.713081" lat="51.386044"><ele>22.8</ele><time>2022-06-05T07:46:49.000Z</time></trkpt><trkpt lon="5.713046" lat="51.386034"><ele>22.8</ele><time>2022-06-05T07:46:50.000Z</time></trkpt><trkpt lon="5.713035" lat="51.386032"><ele>22.8</ele><time>2022-06-05T07:46:51.000Z</time></trkpt><trkpt lon="5.713024" lat="51.38603"><ele>22.8</ele><time>2022-06-05T07:47:22.000Z</time></trkpt><trkpt lon="5.713013" lat="51.386028"><ele>22.8</ele><time>2022-06-05T07:47:23.000Z</time></trkpt><trkpt lon="5.713002" lat="51.386026"><ele>22.8</ele><time>2022-06-05T07:47:24.000Z</time></trkpt><trkpt lon="5.712991" lat="51.386024"><ele>22.8</ele><time>2022-06-05T07:47:25.000Z</time></trkpt><trkpt lon="5.71298" lat="51.386022"><ele>22.8</ele><time>2022-06-05T07:47:26.000Z</time></trkpt><trkpt lon="5.712969" lat="51.38602"><ele>22.8</ele><time>2022-06-05T07:47:27.000Z</time></trkpt><trkpt lon="5.712958" lat="51.386018"><ele>22.6</ele><time>2022-06-05T07:47:53.000Z</time></trkpt><trkpt lon="5.712947" lat="51.386016"><ele>22.6</ele><time>2022-06-05T07:47:54.000Z</time></trkpt><trkpt lon="5.712936" lat="51.386014"><ele>22.6</ele><time>2022-06-05T07:47:55.000Z</time></trkpt><trkpt lon="5.712895" lat="51.386002"><ele>22.6</ele><time>2022-06-05T07:47:56.000Z</time></trkpt><trkpt lon="5.712849" lat="51.385991"><ele>22.6</ele><time>2022-06-05T07:47:57.000Z</time></trkpt><trkpt lon="5.712799" lat="51.385976"><ele>22.6</ele><time>2022-06-05T07:47:58.000Z</time></trkpt><trkpt lon="5.712745" lat="51.385968"><ele>22.6</ele><time>2022-06-05T07:47:59.000Z</time></trkpt><trkpt lon="5.712693" lat="51.385964"><ele>22.6</ele><time>2022-06-05T07:48:00.000Z</time></trkpt><trkpt lon="5.712642" lat="51.385956"><ele>22.6</ele><time>2022-06-05T07:48:01.000Z</time></trkpt><trkpt lon="5.712597" lat="51.385956"><ele>22.6</ele><time>2022-06-05T07:48:02.000Z</time></trkpt><trkpt lon="5.712555" lat="51.385956"><ele>22.6</ele><time>2022-06-05T07:48:03.000Z</time></trkpt><trkpt lon="5.712519" lat="51.385959"><ele>22.6</ele><time>2022-06-05T07:48:04.000Z</time></trkpt><trkpt lon="5.712488" lat="51.385967"><ele>22.6</ele><time>2022-06-05T07:48:05.000Z</time></trkpt><trkpt lon="5.712462" lat="51.385971"><ele>22.6</ele><time>2022-06-05T07:48:06.000Z</time></trkpt><trkpt lon="5.712439" lat="51.385971"><ele>22.6</ele><time>2022-06-05T07:48:07.000Z</time></trkpt><trkpt lon="5.712422" lat="51.385967"><ele>22.6</ele><time>2022-06-05T07:48:08.000Z</time></trkpt><trkpt lon="5.71241" lat="51.385964"><ele>22.6</ele><time>2022-06-05T07:48:09.000Z</time></trkpt><trkpt lon="5.712397" lat="51.385949"><ele>22.6</ele><time>2022-06-05T07:48:10.000Z</time></trkpt><trkpt lon="5.712381" lat="51.385934"><ele>22.6</ele><time>2022-06-05T07:48:11.000Z</time></trkpt><trkpt lon="5.712366" lat="51.385911"><ele>22.6</ele><time>2022-06-05T07:48:12.000Z</time></trkpt><trkpt lon="5.712354" lat="51.385885"><ele>22.6</ele><time>2022-06-05T07:48:13.000Z</time></trkpt><trkpt lon="5.712339" lat="51.385858"><ele>22.6</ele><time>2022-06-05T07:48:14.000Z</time></trkpt><trkpt lon="5.712314" lat="51.385828"><ele>22.4</ele><time>2022-06-05T07:48:15.000Z</time></trkpt><trkpt lon="5.71227" lat="51.385793"><ele>22.4</ele><time>2022-06-05T07:48:16.000Z</time></trkpt><trkpt lon="5.712223" lat="51.385766"><ele>22.4</ele><time>2022-06-05T07:48:17.000Z</time></trkpt><trkpt lon="5.712166" lat="51.385736"><ele>22.4</ele><time>2022-06-05T07:48:18.000Z</time></trkpt><trkpt lon="5.712104" lat="51.385704"><ele>22.4</ele><time>2022-06-05T07:48:19.000Z</time></trkpt><trkpt lon="5.712038" lat="51.385671"><ele>22.4</ele><time>2022-06-05T07:48:20.000Z</time></trkpt><trkpt lon="5.711953" lat="51.385633"><ele>22.4</ele><time>2022-06-05T07:48:21.000Z</time></trkpt><trkpt lon="5.711884" lat="51.385596"><ele>22.4</ele><time>2022-06-05T07:48:22.000Z</time></trkpt><trkpt lon="5.711813" lat="51.385557"><ele>22.4</ele><time>2022-06-05T07:48:23.000Z</time></trkpt><trkpt lon="5.711742" lat="51.385518"><ele>22.4</ele><time>2022-06-05T07:48:24.000Z</time></trkpt><trkpt lon="5.711675" lat="51.38548"><ele>22.4</ele><time>2022-06-05T07:48:25.000Z</time></trkpt><trkpt lon="5.711614" lat="51.385439"><ele>22.4</ele><time>2022-06-05T07:48:26.000Z</time></trkpt><trkpt lon="5.711565" lat="51.385385"><ele>22.4</ele><time>2022-06-05T07:48:27.000Z</time></trkpt><trkpt lon="5.711523" lat="51.385333"><ele>22.4</ele><time>2022-06-05T07:48:28.000Z</time></trkpt><trkpt lon="5.711479" lat="51.38528"><ele>22.4</ele><time>2022-06-05T07:48:29.000Z</time></trkpt><trkpt lon="5.711443" lat="51.385233"><ele>22.4</ele><time>2022-06-05T07:48:30.000Z</time></trkpt><trkpt lon="5.711413" lat="51.385184"><ele>22.4</ele><time>2022-06-05T07:48:31.000Z</time></trkpt><trkpt lon="5.711392" lat="51.385137"><ele>22.4</ele><time>2022-06-05T07:48:32.000Z</time></trkpt><trkpt lon="5.711367" lat="51.385088"><ele>22.4</ele><time>2022-06-05T07:48:33.000Z</time></trkpt><trkpt lon="5.711351" lat="51.385036"><ele>22.4</ele><time>2022-06-05T07:48:34.000Z</time></trkpt><trkpt lon="5.711336" lat="51.384981"><ele>22.4</ele><time>2022-06-05T07:48:35.000Z</time></trkpt><trkpt lon="5.711324" lat="51.384928"><ele>22.4</ele><time>2022-06-05T07:48:36.000Z</time></trkpt><trkpt lon="5.711312" lat="51.384871"><ele>22.6</ele><time>2022-06-05T07:48:37.000Z</time></trkpt><trkpt lon="5.711299" lat="51.384821"><ele>22.6</ele><time>2022-06-05T07:48:38.000Z</time></trkpt><trkpt lon="5.711279" lat="51.384771"><ele>22.6</ele><time>2022-06-05T07:48:39.000Z</time></trkpt><trkpt lon="5.711255" lat="51.384723"><ele>22.6</ele><time>2022-06-05T07:48:40.000Z</time></trkpt><trkpt lon="5.711233" lat="51.384669"><ele>22.6</ele><time>2022-06-05T07:48:41.000Z</time></trkpt><trkpt lon="5.711217" lat="51.384613"><ele>22.6</ele><time>2022-06-05T07:48:42.000Z</time></trkpt><trkpt lon="5.711202" lat="51.384554"><ele>22.6</ele><time>2022-06-05T07:48:43.000Z</time></trkpt><trkpt lon="5.711195" lat="51.3845"><ele>22.4</ele><time>2022-06-05T07:48:44.000Z</time></trkpt><trkpt lon="5.711185" lat="51.384448"><ele>22.4</ele><time>2022-06-05T07:48:45.000Z</time></trkpt><trkpt lon="5.711177" lat="51.384393"><ele>22.4</ele><time>2022-06-05T07:48:46.000Z</time></trkpt><trkpt lon="5.711174" lat="51.384346"><ele>22.4</ele><time>2022-06-05T07:48:47.000Z</time></trkpt><trkpt lon="5.711175" lat="51.384291"><ele>22.6</ele><time>2022-06-05T07:48:48.000Z</time></trkpt><trkpt lon="5.711181" lat="51.384241"><ele>22.6</ele><time>2022-06-05T07:48:49.000Z</time></trkpt><trkpt lon="5.711191" lat="51.384197"><ele>22.6</ele><time>2022-06-05T07:48:50.000Z</time></trkpt><trkpt lon="5.711196" lat="51.384151"><ele>22.6</ele><time>2022-06-05T07:48:51.000Z</time></trkpt><trkpt lon="5.711195" lat="51.384093"><ele>22.6</ele><time>2022-06-05T07:48:52.000Z</time></trkpt><trkpt lon="5.711189" lat="51.384048"><ele>22.6</ele><time>2022-06-05T07:48:53.000Z</time></trkpt><trkpt lon="5.711187" lat="51.383982"><ele>22.6</ele><time>2022-06-05T07:48:54.000Z</time></trkpt><trkpt lon="5.711184" lat="51.383925"><ele>22.6</ele><time>2022-06-05T07:48:55.000Z</time></trkpt><trkpt lon="5.711179" lat="51.383871"><ele>22.6</ele><time>2022-06-05T07:48:56.000Z</time></trkpt><trkpt lon="5.711169" lat="51.38381"><ele>22.4</ele><time>2022-06-05T07:48:57.000Z</time></trkpt><trkpt lon="5.711161" lat="51.383757"><ele>22.4</ele><time>2022-06-05T07:48:58.000Z</time></trkpt><trkpt lon="5.711154" lat="51.383703"><ele>22.4</ele><time>2022-06-05T07:48:59.000Z</time></trkpt><trkpt lon="5.711153" lat="51.383646"><ele>22.4</ele><time>2022-06-05T07:49:00.000Z</time></trkpt><trkpt lon="5.711147" lat="51.383585"><ele>22.6</ele><time>2022-06-05T07:49:01.000Z</time></trkpt><trkpt lon="5.711142" lat="51.383528"><ele>22.6</ele><time>2022-06-05T07:49:02.000Z</time></trkpt><trkpt lon="5.711137" lat="51.383471"><ele>22.6</ele><time>2022-06-05T07:49:03.000Z</time></trkpt><trkpt lon="5.711132" lat="51.383417"><ele>22.4</ele><time>2022-06-05T07:49:04.000Z</time></trkpt><trkpt lon="5.711125" lat="51.38336"><ele>22.4</ele><time>2022-06-05T07:49:05.000Z</time></trkpt><trkpt lon="5.711118" lat="51.383303"><ele>22.4</ele><time>2022-06-05T07:49:06.000Z</time></trkpt><trkpt lon="5.71111" lat="51.383246"><ele>22.6</ele><time>2022-06-05T07:49:07.000Z</time></trkpt><trkpt lon="5.711099" lat="51.383192"><ele>22.6</ele><time>2022-06-05T07:49:08.000Z</time></trkpt><trkpt lon="5.71109" lat="51.383139"><ele>22.6</ele><time>2022-06-05T07:49:09.000Z</time></trkpt><trkpt lon="5.711082" lat="51.383085"><ele>22.6</ele><time>2022-06-05T07:49:10.000Z</time></trkpt><trkpt lon="5.711072" lat="51.383035"><ele>22.6</ele><time>2022-06-05T07:49:11.000Z</time></trkpt><trkpt lon="5.711061" lat="51.382986"><ele>22.6</ele><time>2022-06-05T07:49:12.000Z</time></trkpt><trkpt lon="5.711057" lat="51.382947"><ele>22.8</ele><time>2022-06-05T07:49:13.000Z</time></trkpt><trkpt lon="5.71105" lat="51.382913"><ele>22.8</ele><time>2022-06-05T07:49:14.000Z</time></trkpt><trkpt lon="5.711041" lat="51.382873"><ele>23</ele><time>2022-06-05T07:49:15.000Z</time></trkpt><trkpt lon="5.711032" lat="51.382841"><ele>23</ele><time>2022-06-05T07:49:16.000Z</time></trkpt><trkpt lon="5.711024" lat="51.382804"><ele>23</ele><time>2022-06-05T07:49:17.000Z</time></trkpt><trkpt lon="5.71102" lat="51.382768"><ele>23</ele><time>2022-06-05T07:49:18.000Z</time></trkpt><trkpt lon="5.711014" lat="51.382742"><ele>23.2</ele><time>2022-06-05T07:49:19.000Z</time></trkpt><trkpt lon="5.711009" lat="51.382714"><ele>23.2</ele><time>2022-06-05T07:49:20.000Z</time></trkpt><trkpt lon="5.711009" lat="51.382688"><ele>23.2</ele><time>2022-06-05T07:49:21.000Z</time></trkpt><trkpt lon="5.711009" lat="51.382665"><ele>23.2</ele><time>2022-06-05T07:49:22.000Z</time></trkpt><trkpt lon="5.711009" lat="51.382646"><ele>23.2</ele><time>2022-06-05T07:49:23.000Z</time></trkpt><trkpt lon="5.711009" lat="51.382626"><ele>23.2</ele><time>2022-06-05T07:49:24.000Z</time></trkpt><trkpt lon="5.711004" lat="51.382608"><ele>23.2</ele><time>2022-06-05T07:49:25.000Z</time></trkpt><trkpt lon="5.710996" lat="51.382592"><ele>23.2</ele><time>2022-06-05T07:49:26.000Z</time></trkpt><trkpt lon="5.710982" lat="51.382577"><ele>23.2</ele><time>2022-06-05T07:49:27.000Z</time></trkpt><trkpt lon="5.710969" lat="51.382572"><ele>23.2</ele><time>2022-06-05T07:49:28.000Z</time></trkpt><trkpt lon="5.710959" lat="51.382565"><ele>23.2</ele><time>2022-06-05T07:49:29.000Z</time></trkpt><trkpt lon="5.710939" lat="51.382511"><ele>23.2</ele><time>2022-06-05T08:20:13.000Z</time></trkpt><trkpt lon="5.710926" lat="51.382504"><ele>23.2</ele><time>2022-06-05T08:20:14.000Z</time></trkpt><trkpt lon="5.710916" lat="51.382493"><ele>23.2</ele><time>2022-06-05T08:20:15.000Z</time></trkpt><trkpt lon="5.710904" lat="51.382481"><ele>23.2</ele><time>2022-06-05T08:20:16.000Z</time></trkpt><trkpt lon="5.710892" lat="51.38247"><ele>23.2</ele><time>2022-06-05T08:20:17.000Z</time></trkpt><trkpt lon="5.710881" lat="51.382459"><ele>23.2</ele><time>2022-06-05T08:20:18.000Z</time></trkpt><trkpt lon="5.710869" lat="51.382447"><ele>23.2</ele><time>2022-06-05T08:20:19.000Z</time></trkpt><trkpt lon="5.710863" lat="51.382435"><ele>23</ele><time>2022-06-05T08:20:20.000Z</time></trkpt><trkpt lon="5.710862" lat="51.382417"><ele>23</ele><time>2022-06-05T08:20:21.000Z</time></trkpt><trkpt lon="5.710863" lat="51.382397"><ele>23</ele><time>2022-06-05T08:20:22.000Z</time></trkpt><trkpt lon="5.710869" lat="51.382378"><ele>23</ele><time>2022-06-05T08:20:23.000Z</time></trkpt><trkpt lon="5.710878" lat="51.382356"><ele>23</ele><time>2022-06-05T08:20:24.000Z</time></trkpt><trkpt lon="5.710889" lat="51.382333"><ele>22.8</ele><time>2022-06-05T08:20:25.000Z</time></trkpt><trkpt lon="5.710901" lat="51.382306"><ele>22.8</ele><time>2022-06-05T08:20:26.000Z</time></trkpt><trkpt lon="5.710916" lat="51.382279"><ele>22.8</ele><time>2022-06-05T08:20:27.000Z</time></trkpt><trkpt lon="5.710933" lat="51.382253"><ele>22.8</ele><time>2022-06-05T08:20:28.000Z</time></trkpt><trkpt lon="5.710943" lat="51.382223"><ele>22.8</ele><time>2022-06-05T08:20:29.000Z</time></trkpt><trkpt lon="5.710955" lat="51.382196"><ele>22.8</ele><time>2022-06-05T08:20:30.000Z</time></trkpt><trkpt lon="5.710965" lat="51.382169"><ele>22.8</ele><time>2022-06-05T08:20:31.000Z</time></trkpt><trkpt lon="5.71098" lat="51.382142"><ele>22.8</ele><time>2022-06-05T08:20:32.000Z</time></trkpt><trkpt lon="5.710998" lat="51.382115"><ele>23</ele><time>2022-06-05T08:20:33.000Z</time></trkpt><trkpt lon="5.711022" lat="51.382093"><ele>23</ele><time>2022-06-05T08:20:34.000Z</time></trkpt><trkpt lon="5.711055" lat="51.38207"><ele>23</ele><time>2022-06-05T08:20:35.000Z</time></trkpt><trkpt lon="5.711095" lat="51.38205"><ele>22.8</ele><time>2022-06-05T08:20:36.000Z</time></trkpt><trkpt lon="5.711142" lat="51.382035"><ele>22.8</ele><time>2022-06-05T08:20:37.000Z</time></trkpt><trkpt lon="5.711193" lat="51.38202"><ele>22.8</ele><time>2022-06-05T08:20:38.000Z</time></trkpt><trkpt lon="5.711242" lat="51.382008"><ele>22.8</ele><time>2022-06-05T08:20:39.000Z</time></trkpt><trkpt lon="5.71129" lat="51.381997"><ele>22.8</ele><time>2022-06-05T08:20:40.000Z</time></trkpt><trkpt lon="5.711335" lat="51.381985"><ele>22.8</ele><time>2022-06-05T08:20:41.000Z</time></trkpt><trkpt lon="5.711378" lat="51.381974"><ele>22.8</ele><time>2022-06-05T08:20:42.000Z</time></trkpt><trkpt lon="5.711425" lat="51.381955"><ele>22.8</ele><time>2022-06-05T08:20:43.000Z</time></trkpt><trkpt lon="5.711471" lat="51.381936"><ele>22.8</ele><time>2022-06-05T08:20:44.000Z</time></trkpt><trkpt lon="5.711507" lat="51.381918"><ele>22.8</ele><time>2022-06-05T08:20:45.000Z</time></trkpt><trkpt lon="5.711556" lat="51.381894"><ele>22.8</ele><time>2022-06-05T08:20:46.000Z</time></trkpt><trkpt lon="5.711601" lat="51.381871"><ele>22.8</ele><time>2022-06-05T08:20:47.000Z</time></trkpt><trkpt lon="5.711645" lat="51.381849"><ele>22.8</ele><time>2022-06-05T08:20:48.000Z</time></trkpt><trkpt lon="5.711688" lat="51.381829"><ele>23</ele><time>2022-06-05T08:20:49.000Z</time></trkpt><trkpt lon="5.711727" lat="51.381806"><ele>23</ele><time>2022-06-05T08:20:50.000Z</time></trkpt><trkpt lon="5.711763" lat="51.381785"><ele>23</ele><time>2022-06-05T08:20:51.000Z</time></trkpt><trkpt lon="5.711812" lat="51.38176"><ele>23</ele><time>2022-06-05T08:20:52.000Z</time></trkpt><trkpt lon="5.71186" lat="51.381742"><ele>23</ele><time>2022-06-05T08:20:53.000Z</time></trkpt><trkpt lon="5.711912" lat="51.381716"><ele>23</ele><time>2022-06-05T08:20:54.000Z</time></trkpt><trkpt lon="5.711965" lat="51.381696"><ele>23</ele><time>2022-06-05T08:20:55.000Z</time></trkpt><trkpt lon="5.712017" lat="51.381669"><ele>23</ele><time>2022-06-05T08:20:56.000Z</time></trkpt><trkpt lon="5.712064" lat="51.381641"><ele>23.2</ele><time>2022-06-05T08:20:57.000Z</time></trkpt><trkpt lon="5.712123" lat="51.381615"><ele>23.2</ele><time>2022-06-05T08:20:58.000Z</time></trkpt><trkpt lon="5.712179" lat="51.381593"><ele>23.2</ele><time>2022-06-05T08:20:59.000Z</time></trkpt><trkpt lon="5.712227" lat="51.381569"><ele>23.2</ele><time>2022-06-05T08:21:00.000Z</time></trkpt><trkpt lon="5.712286" lat="51.381543"><ele>23.2</ele><time>2022-06-05T08:21:01.000Z</time></trkpt><trkpt lon="5.71234" lat="51.38152"><ele>23.2</ele><time>2022-06-05T08:21:02.000Z</time></trkpt><trkpt lon="5.712391" lat="51.381498"><ele>23.2</ele><time>2022-06-05T08:21:03.000Z</time></trkpt><trkpt lon="5.712448" lat="51.381475"><ele>23.2</ele><time>2022-06-05T08:21:04.000Z</time></trkpt><trkpt lon="5.712505" lat="51.381448"><ele>23.2</ele><time>2022-06-05T08:21:05.000Z</time></trkpt><trkpt lon="5.71256" lat="51.381422"><ele>23.2</ele><time>2022-06-05T08:21:06.000Z</time></trkpt><trkpt lon="5.712621" lat="51.381398"><ele>23.4</ele><time>2022-06-05T08:21:07.000Z</time></trkpt><trkpt lon="5.712678" lat="51.381379"><ele>23.4</ele><time>2022-06-05T08:21:08.000Z</time></trkpt><trkpt lon="5.712729" lat="51.381355"><ele>23.4</ele><time>2022-06-05T08:21:09.000Z</time></trkpt><trkpt lon="5.712791" lat="51.38133"><ele>23.4</ele><time>2022-06-05T08:21:10.000Z</time></trkpt><trkpt lon="5.71285" lat="51.381306"><ele>23.4</ele><time>2022-06-05T08:21:11.000Z</time></trkpt><trkpt lon="5.712907" lat="51.381288"><ele>23.4</ele><time>2022-06-05T08:21:12.000Z</time></trkpt><trkpt lon="5.712966" lat="51.381261"><ele>23.4</ele><time>2022-06-05T08:21:13.000Z</time></trkpt><trkpt lon="5.713026" lat="51.381242"><ele>23.4</ele><time>2022-06-05T08:21:14.000Z</time></trkpt><trkpt lon="5.713067" lat="51.381227"><ele>23.4</ele><time>2022-06-05T08:21:15.000Z</time></trkpt><trkpt lon="5.713118" lat="51.381207"><ele>23.2</ele><time>2022-06-05T08:21:16.000Z</time></trkpt><trkpt lon="5.713178" lat="51.381181"><ele>23.2</ele><time>2022-06-05T08:21:17.000Z</time></trkpt><trkpt lon="5.713232" lat="51.381159"><ele>23.2</ele><time>2022-06-05T08:21:18.000Z</time></trkpt><trkpt lon="5.71329" lat="51.381135"><ele>23.2</ele><time>2022-06-05T08:21:19.000Z</time></trkpt><trkpt lon="5.713346" lat="51.381112"><ele>23.2</ele><time>2022-06-05T08:21:20.000Z</time></trkpt><trkpt lon="5.713401" lat="51.381094"><ele>23.2</ele><time>2022-06-05T08:21:21.000Z</time></trkpt><trkpt lon="5.713459" lat="51.381078"><ele>23.2</ele><time>2022-06-05T08:21:22.000Z</time></trkpt><trkpt lon="5.713513" lat="51.381062"><ele>23.2</ele><time>2022-06-05T08:21:23.000Z</time></trkpt><trkpt lon="5.713562" lat="51.381041"><ele>23.2</ele><time>2022-06-05T08:21:24.000Z</time></trkpt><trkpt lon="5.713626" lat="51.381017"><ele>23.2</ele><time>2022-06-05T08:21:25.000Z</time></trkpt><trkpt lon="5.713686" lat="51.38099"><ele>23.2</ele><time>2022-06-05T08:21:26.000Z</time></trkpt><trkpt lon="5.713743" lat="51.38097"><ele>23.2</ele><time>2022-06-05T08:21:27.000Z</time></trkpt><trkpt lon="5.713811" lat="51.38094"><ele>23.2</ele><time>2022-06-05T08:21:28.000Z</time></trkpt><trkpt lon="5.713868" lat="51.38092"><ele>23</ele><time>2022-06-05T08:21:29.000Z</time></trkpt><trkpt lon="5.713936" lat="51.380899"><ele>23</ele><time>2022-06-05T08:21:30.000Z</time></trkpt><trkpt lon="5.713998" lat="51.38088"><ele>23</ele><time>2022-06-05T08:21:31.000Z</time></trkpt><trkpt lon="5.714051" lat="51.380859"><ele>23</ele><time>2022-06-05T08:21:32.000Z</time></trkpt><trkpt lon="5.714119" lat="51.380834"><ele>23</ele><time>2022-06-05T08:21:33.000Z</time></trkpt><trkpt lon="5.714179" lat="51.380811"><ele>23</ele><time>2022-06-05T08:21:34.000Z</time></trkpt><trkpt lon="5.714236" lat="51.380791"><ele>23</ele><time>2022-06-05T08:21:35.000Z</time></trkpt><trkpt lon="5.714312" lat="51.380761"><ele>23</ele><time>2022-06-05T08:21:36.000Z</time></trkpt><trkpt lon="5.714376" lat="51.380737"><ele>23</ele><time>2022-06-05T08:21:37.000Z</time></trkpt><trkpt lon="5.714449" lat="51.380708"><ele>23</ele><time>2022-06-05T08:21:38.000Z</time></trkpt><trkpt lon="5.714501" lat="51.380676"><ele>22.8</ele><time>2022-06-05T08:21:39.000Z</time></trkpt><trkpt lon="5.714546" lat="51.380636"><ele>23</ele><time>2022-06-05T08:21:40.000Z</time></trkpt><trkpt lon="5.714575" lat="51.3806"><ele>23</ele><time>2022-06-05T08:21:41.000Z</time></trkpt><trkpt lon="5.714593" lat="51.380552"><ele>23</ele><time>2022-06-05T08:21:42.000Z</time></trkpt><trkpt lon="5.714585" lat="51.380511"><ele>23</ele><time>2022-06-05T08:21:43.000Z</time></trkpt><trkpt lon="5.714553" lat="51.380477"><ele>23</ele><time>2022-06-05T08:21:44.000Z</time></trkpt><trkpt lon="5.714513" lat="51.380447"><ele>23</ele><time>2022-06-05T08:21:45.000Z</time></trkpt><trkpt lon="5.714465" lat="51.38041"><ele>23.2</ele><time>2022-06-05T08:21:46.000Z</time></trkpt><trkpt lon="5.714417" lat="51.380378"><ele>23.2</ele><time>2022-06-05T08:21:47.000Z</time></trkpt><trkpt lon="5.714362" lat="51.380338"><ele>23.2</ele><time>2022-06-05T08:21:48.000Z</time></trkpt><trkpt lon="5.714312" lat="51.380304"><ele>23.2</ele><time>2022-06-05T08:21:49.000Z</time></trkpt><trkpt lon="5.714244" lat="51.380259"><ele>23.2</ele><time>2022-06-05T08:21:50.000Z</time></trkpt><trkpt lon="5.714182" lat="51.380223"><ele>23.2</ele><time>2022-06-05T08:21:51.000Z</time></trkpt><trkpt lon="5.714104" lat="51.380178"><ele>23.2</ele><time>2022-06-05T08:21:52.000Z</time></trkpt><trkpt lon="5.714032" lat="51.380141"><ele>23.2</ele><time>2022-06-05T08:21:53.000Z</time></trkpt><trkpt lon="5.713958" lat="51.380098"><ele>23.2</ele><time>2022-06-05T08:21:54.000Z</time></trkpt><trkpt lon="5.713892" lat="51.380061"><ele>23.2</ele><time>2022-06-05T08:21:55.000Z</time></trkpt><trkpt lon="5.713805" lat="51.380014"><ele>23.2</ele><time>2022-06-05T08:21:56.000Z</time></trkpt><trkpt lon="5.713739" lat="51.379976"><ele>23.2</ele><time>2022-06-05T08:21:57.000Z</time></trkpt><trkpt lon="5.713647" lat="51.37993"><ele>23.2</ele><time>2022-06-05T08:21:58.000Z</time></trkpt><trkpt lon="5.71357" lat="51.37989"><ele>23.4</ele><time>2022-06-05T08:21:59.000Z</time></trkpt><trkpt lon="5.713486" lat="51.379843"><ele>23.4</ele><time>2022-06-05T08:22:00.000Z</time></trkpt><trkpt lon="5.713409" lat="51.3798"><ele>23.4</ele><time>2022-06-05T08:22:01.000Z</time></trkpt><trkpt lon="5.713321" lat="51.379747"><ele>23.4</ele><time>2022-06-05T08:22:02.000Z</time></trkpt><trkpt lon="5.71324" lat="51.379707"><ele>23.6</ele><time>2022-06-05T08:22:03.000Z</time></trkpt><trkpt lon="5.71315" lat="51.379663"><ele>23.6</ele><time>2022-06-05T08:22:04.000Z</time></trkpt><trkpt lon="5.713067" lat="51.379623"><ele>23.6</ele><time>2022-06-05T08:22:05.000Z</time></trkpt><trkpt lon="5.712975" lat="51.379579"><ele>23.6</ele><time>2022-06-05T08:22:06.000Z</time></trkpt><trkpt lon="5.712903" lat="51.37954"><ele>23.6</ele><time>2022-06-05T08:22:07.000Z</time></trkpt><trkpt lon="5.712811" lat="51.379488"><ele>23.4</ele><time>2022-06-05T08:22:08.000Z</time></trkpt><trkpt lon="5.71274" lat="51.379449"><ele>23.4</ele><time>2022-06-05T08:22:09.000Z</time></trkpt><trkpt lon="5.712646" lat="51.3794"><ele>23.4</ele><time>2022-06-05T08:22:10.000Z</time></trkpt><trkpt lon="5.712568" lat="51.379356"><ele>23.4</ele><time>2022-06-05T08:22:11.000Z</time></trkpt><trkpt lon="5.712488" lat="51.379309"><ele>23.4</ele><time>2022-06-05T08:22:12.000Z</time></trkpt><trkpt lon="5.712421" lat="51.379269"><ele>23.4</ele><time>2022-06-05T08:22:13.000Z</time></trkpt><trkpt lon="5.71234" lat="51.379225"><ele>23.4</ele><time>2022-06-05T08:22:14.000Z</time></trkpt><trkpt lon="5.71227" lat="51.379183"><ele>23.4</ele><time>2022-06-05T08:22:15.000Z</time></trkpt><trkpt lon="5.712186" lat="51.379137"><ele>23.4</ele><time>2022-06-05T08:22:16.000Z</time></trkpt><trkpt lon="5.712111" lat="51.379097"><ele>23.4</ele><time>2022-06-05T08:22:17.000Z</time></trkpt><trkpt lon="5.712031" lat="51.379056"><ele>23.4</ele><time>2022-06-05T08:22:18.000Z</time></trkpt><trkpt lon="5.711959" lat="51.379022"><ele>23.4</ele><time>2022-06-05T08:22:19.000Z</time></trkpt><trkpt lon="5.71187" lat="51.37898"><ele>23.6</ele><time>2022-06-05T08:22:20.000Z</time></trkpt><trkpt lon="5.711803" lat="51.378943"><ele>23.6</ele><time>2022-06-05T08:22:21.000Z</time></trkpt><trkpt lon="5.711722" lat="51.378897"><ele>23.6</ele><time>2022-06-05T08:22:22.000Z</time></trkpt><trkpt lon="5.71166" lat="51.378857"><ele>23.8</ele><time>2022-06-05T08:22:23.000Z</time></trkpt><trkpt lon="5.711601" lat="51.378805"><ele>23.8</ele><time>2022-06-05T08:22:24.000Z</time></trkpt><trkpt lon="5.711557" lat="51.378761"><ele>23.8</ele><time>2022-06-05T08:22:25.000Z</time></trkpt><trkpt lon="5.711504" lat="51.378713"><ele>23.8</ele><time>2022-06-05T08:22:26.000Z</time></trkpt><trkpt lon="5.711453" lat="51.378663"><ele>23.8</ele><time>2022-06-05T08:22:27.000Z</time></trkpt><trkpt lon="5.711399" lat="51.378614"><ele>23.8</ele><time>2022-06-05T08:22:28.000Z</time></trkpt><trkpt lon="5.71135" lat="51.37857"><ele>23.8</ele><time>2022-06-05T08:22:29.000Z</time></trkpt><trkpt lon="5.711285" lat="51.378511"><ele>23.8</ele><time>2022-06-05T08:22:30.000Z</time></trkpt><trkpt lon="5.711232" lat="51.378462"><ele>23.8</ele><time>2022-06-05T08:22:31.000Z</time></trkpt><trkpt lon="5.711166" lat="51.378405"><ele>23.8</ele><time>2022-06-05T08:22:32.000Z</time></trkpt><trkpt lon="5.711112" lat="51.378356"><ele>23.6</ele><time>2022-06-05T08:22:33.000Z</time></trkpt><trkpt lon="5.71104" lat="51.378291"><ele>23.6</ele><time>2022-06-05T08:22:34.000Z</time></trkpt><trkpt lon="5.710981" lat="51.37824"><ele>23.6</ele><time>2022-06-05T08:22:35.000Z</time></trkpt><trkpt lon="5.710912" lat="51.37818"><ele>23.4</ele><time>2022-06-05T08:22:36.000Z</time></trkpt><trkpt lon="5.710853" lat="51.378124"><ele>23.6</ele><time>2022-06-05T08:22:37.000Z</time></trkpt><trkpt lon="5.710785" lat="51.378063"><ele>23.6</ele><time>2022-06-05T08:22:38.000Z</time></trkpt><trkpt lon="5.710729" lat="51.378009"><ele>23.6</ele><time>2022-06-05T08:22:39.000Z</time></trkpt><trkpt lon="5.710662" lat="51.377947"><ele>23.8</ele><time>2022-06-05T08:22:40.000Z</time></trkpt><trkpt lon="5.71061" lat="51.377901"><ele>23.8</ele><time>2022-06-05T08:22:41.000Z</time></trkpt><trkpt lon="5.710539" lat="51.37784"><ele>23.8</ele><time>2022-06-05T08:22:42.000Z</time></trkpt><trkpt lon="5.710482" lat="51.377791"><ele>23.8</ele><time>2022-06-05T08:22:43.000Z</time></trkpt><trkpt lon="5.710412" lat="51.377733"><ele>23.8</ele><time>2022-06-05T08:22:44.000Z</time></trkpt><trkpt lon="5.71035" lat="51.377688"><ele>23.8</ele><time>2022-06-05T08:22:45.000Z</time></trkpt><trkpt lon="5.710265" lat="51.377641"><ele>23.6</ele><time>2022-06-05T08:22:46.000Z</time></trkpt><trkpt lon="5.710189" lat="51.377606"><ele>23.8</ele><time>2022-06-05T08:22:47.000Z</time></trkpt><trkpt lon="5.710089" lat="51.377565"><ele>23.8</ele><time>2022-06-05T08:22:48.000Z</time></trkpt><trkpt lon="5.710003" lat="51.377536"><ele>23.8</ele><time>2022-06-05T08:22:49.000Z</time></trkpt><trkpt lon="5.709899" lat="51.377496"><ele>23.8</ele><time>2022-06-05T08:22:50.000Z</time></trkpt><trkpt lon="5.709813" lat="51.377462"><ele>23.8</ele><time>2022-06-05T08:22:51.000Z</time></trkpt><trkpt lon="5.709709" lat="51.377424"><ele>23.8</ele><time>2022-06-05T08:22:52.000Z</time></trkpt><trkpt lon="5.709617" lat="51.377391"><ele>23.8</ele><time>2022-06-05T08:22:53.000Z</time></trkpt><trkpt lon="5.70952" lat="51.377352"><ele>23.8</ele><time>2022-06-05T08:22:54.000Z</time></trkpt><trkpt lon="5.709433" lat="51.37732"><ele>23.8</ele><time>2022-06-05T08:22:55.000Z</time></trkpt><trkpt lon="5.709335" lat="51.377287"><ele>23.6</ele><time>2022-06-05T08:22:56.000Z</time></trkpt><trkpt lon="5.709252" lat="51.377259"><ele>23.6</ele><time>2022-06-05T08:22:57.000Z</time></trkpt><trkpt lon="5.70915" lat="51.377225"><ele>23.6</ele><time>2022-06-05T08:22:58.000Z</time></trkpt><trkpt lon="5.709066" lat="51.377208"><ele>23.8</ele><time>2022-06-05T08:22:59.000Z</time></trkpt><trkpt lon="5.708955" lat="51.377186"><ele>23.8</ele><time>2022-06-05T08:23:00.000Z</time></trkpt><trkpt lon="5.708865" lat="51.377175"><ele>23.8</ele><time>2022-06-05T08:23:01.000Z</time></trkpt><trkpt lon="5.708769" lat="51.377156"><ele>23.8</ele><time>2022-06-05T08:23:02.000Z</time></trkpt><trkpt lon="5.708687" lat="51.377142"><ele>23.8</ele><time>2022-06-05T08:23:03.000Z</time></trkpt><trkpt lon="5.708589" lat="51.377133"><ele>23.8</ele><time>2022-06-05T08:23:04.000Z</time></trkpt><trkpt lon="5.708505" lat="51.377136"><ele>23.8</ele><time>2022-06-05T08:23:05.000Z</time></trkpt><trkpt lon="5.708416" lat="51.377147"><ele>23.8</ele><time>2022-06-05T08:23:06.000Z</time></trkpt><trkpt lon="5.708336" lat="51.377151"><ele>23.8</ele><time>2022-06-05T08:23:07.000Z</time></trkpt><trkpt lon="5.708254" lat="51.377148"><ele>24</ele><time>2022-06-05T08:23:08.000Z</time></trkpt><trkpt lon="5.708185" lat="51.377138"><ele>24</ele><time>2022-06-05T08:23:09.000Z</time></trkpt><trkpt lon="5.70811" lat="51.377114"><ele>24</ele><time>2022-06-05T08:23:10.000Z</time></trkpt><trkpt lon="5.708053" lat="51.377081"><ele>24.2</ele><time>2022-06-05T08:23:11.000Z</time></trkpt><trkpt lon="5.708009" lat="51.377035"><ele>24.2</ele><time>2022-06-05T08:23:12.000Z</time></trkpt><trkpt lon="5.707986" lat="51.376988"><ele>24.2</ele><time>2022-06-05T08:23:13.000Z</time></trkpt><trkpt lon="5.707978" lat="51.376937"><ele>24.2</ele><time>2022-06-05T08:23:14.000Z</time></trkpt><trkpt lon="5.707992" lat="51.376888"><ele>24.2</ele><time>2022-06-05T08:23:15.000Z</time></trkpt><trkpt lon="5.708027" lat="51.376841"><ele>24.2</ele><time>2022-06-05T08:23:16.000Z</time></trkpt><trkpt lon="5.70808" lat="51.37681"><ele>24.2</ele><time>2022-06-05T08:23:17.000Z</time></trkpt><trkpt lon="5.708142" lat="51.376783"><ele>24.2</ele><time>2022-06-05T08:23:18.000Z</time></trkpt><trkpt lon="5.708206" lat="51.376771"><ele>24.2</ele><time>2022-06-05T08:23:19.000Z</time></trkpt><trkpt lon="5.708271" lat="51.376766"><ele>24.2</ele><time>2022-06-05T08:23:20.000Z</time></trkpt><trkpt lon="5.708328" lat="51.376759"><ele>24.2</ele><time>2022-06-05T08:23:21.000Z</time></trkpt><trkpt lon="5.708371" lat="51.376744"><ele>24.2</ele><time>2022-06-05T08:23:22.000Z</time></trkpt><trkpt lon="5.708405" lat="51.376718"><ele>24</ele><time>2022-06-05T08:23:23.000Z</time></trkpt><trkpt lon="5.708431" lat="51.376687"><ele>24</ele><time>2022-06-05T08:23:24.000Z</time></trkpt><trkpt lon="5.708455" lat="51.376654"><ele>24</ele><time>2022-06-05T08:23:25.000Z</time></trkpt><trkpt lon="5.708485" lat="51.37663"><ele>24</ele><time>2022-06-05T08:23:26.000Z</time></trkpt><trkpt lon="5.708518" lat="51.376608"><ele>24</ele><time>2022-06-05T08:23:27.000Z</time></trkpt><trkpt lon="5.708556" lat="51.376592"><ele>24</ele><time>2022-06-05T08:23:28.000Z</time></trkpt><trkpt lon="5.708592" lat="51.37658"><ele>23.8</ele><time>2022-06-05T08:23:29.000Z</time></trkpt><trkpt lon="5.708627" lat="51.376568"><ele>23.8</ele><time>2022-06-05T08:23:30.000Z</time></trkpt><trkpt lon="5.708653" lat="51.376561"><ele>23.8</ele><time>2022-06-05T08:23:31.000Z</time></trkpt><trkpt lon="5.70867" lat="51.37656"><ele>23.8</ele><time>2022-06-05T08:23:32.000Z</time></trkpt><trkpt lon="5.708749" lat="51.376519"><ele>24</ele><time>2022-06-05T08:23:40.000Z</time></trkpt><trkpt lon="5.708768" lat="51.376496"><ele>24</ele><time>2022-06-05T08:23:41.000Z</time></trkpt><trkpt lon="5.708796" lat="51.376478"><ele>23.8</ele><time>2022-06-05T08:23:42.000Z</time></trkpt><trkpt lon="5.708835" lat="51.376454"><ele>23.8</ele><time>2022-06-05T08:23:43.000Z</time></trkpt><trkpt lon="5.708881" lat="51.376428"><ele>24</ele><time>2022-06-05T08:23:44.000Z</time></trkpt><trkpt lon="5.708929" lat="51.376403"><ele>24</ele><time>2022-06-05T08:23:45.000Z</time></trkpt><trkpt lon="5.708989" lat="51.376374"><ele>24.2</ele><time>2022-06-05T08:23:46.000Z</time></trkpt><trkpt lon="5.709053" lat="51.376348"><ele>24.2</ele><time>2022-06-05T08:23:47.000Z</time></trkpt><trkpt lon="5.709121" lat="51.376318"><ele>24</ele><time>2022-06-05T08:23:48.000Z</time></trkpt><trkpt lon="5.709195" lat="51.376287"><ele>24</ele><time>2022-06-05T08:23:49.000Z</time></trkpt><trkpt lon="5.709271" lat="51.376262"><ele>24</ele><time>2022-06-05T08:23:50.000Z</time></trkpt><trkpt lon="5.709363" lat="51.376241"><ele>24.2</ele><time>2022-06-05T08:23:51.000Z</time></trkpt><trkpt lon="5.709454" lat="51.376225"><ele>24.2</ele><time>2022-06-05T08:23:52.000Z</time></trkpt><trkpt lon="5.709547" lat="51.37621"><ele>24.2</ele><time>2022-06-05T08:23:53.000Z</time></trkpt><trkpt lon="5.70963" lat="51.376195"><ele>24.2</ele><time>2022-06-05T08:23:54.000Z</time></trkpt><trkpt lon="5.709718" lat="51.376176"><ele>24</ele><time>2022-06-05T08:23:55.000Z</time></trkpt><trkpt lon="5.709797" lat="51.376161"><ele>24</ele><time>2022-06-05T08:23:56.000Z</time></trkpt><trkpt lon="5.70988" lat="51.376145"><ele>23.8</ele><time>2022-06-05T08:23:57.000Z</time></trkpt><trkpt lon="5.709957" lat="51.376127"><ele>23.6</ele><time>2022-06-05T08:23:58.000Z</time></trkpt><trkpt lon="5.710035" lat="51.376113"><ele>23.6</ele><time>2022-06-05T08:23:59.000Z</time></trkpt><trkpt lon="5.710121" lat="51.376096"><ele>23.4</ele><time>2022-06-05T08:24:00.000Z</time></trkpt><trkpt lon="5.710206" lat="51.37608"><ele>23.4</ele><time>2022-06-05T08:24:01.000Z</time></trkpt><trkpt lon="5.710286" lat="51.376065"><ele>23.4</ele><time>2022-06-05T08:24:02.000Z</time></trkpt><trkpt lon="5.710362" lat="51.376046"><ele>23.4</ele><time>2022-06-05T08:24:03.000Z</time></trkpt><trkpt lon="5.71043" lat="51.376032"><ele>23.6</ele><time>2022-06-05T08:24:04.000Z</time></trkpt><trkpt lon="5.71051" lat="51.376019"><ele>23.6</ele><time>2022-06-05T08:24:05.000Z</time></trkpt><trkpt lon="5.710584" lat="51.376004"><ele>23.8</ele><time>2022-06-05T08:24:06.000Z</time></trkpt><trkpt lon="5.710662" lat="51.375985"><ele>24</ele><time>2022-06-05T08:24:07.000Z</time></trkpt><trkpt lon="5.710739" lat="51.37597"><ele>24</ele><time>2022-06-05T08:24:08.000Z</time></trkpt><trkpt lon="5.71082" lat="51.375954"><ele>24</ele><time>2022-06-05T08:24:09.000Z</time></trkpt><trkpt lon="5.710895" lat="51.375939"><ele>23.8</ele><time>2022-06-05T08:24:10.000Z</time></trkpt><trkpt lon="5.710976" lat="51.375924"><ele>23.8</ele><time>2022-06-05T08:24:11.000Z</time></trkpt><trkpt lon="5.711047" lat="51.375909"><ele>23.6</ele><time>2022-06-05T08:24:12.000Z</time></trkpt><trkpt lon="5.711122" lat="51.375894"><ele>23.6</ele><time>2022-06-05T08:24:13.000Z</time></trkpt><trkpt lon="5.711202" lat="51.375878"><ele>23.8</ele><time>2022-06-05T08:24:14.000Z</time></trkpt><trkpt lon="5.71128" lat="51.375863"><ele>23.8</ele><time>2022-06-05T08:24:15.000Z</time></trkpt><trkpt lon="5.711359" lat="51.375848"><ele>23.8</ele><time>2022-06-05T08:24:16.000Z</time></trkpt><trkpt lon="5.711443" lat="51.375829"><ele>23.8</ele><time>2022-06-05T08:24:17.000Z</time></trkpt><trkpt lon="5.711525" lat="51.375814"><ele>23.8</ele><time>2022-06-05T08:24:18.000Z</time></trkpt><trkpt lon="5.711616" lat="51.375795"><ele>23.8</ele><time>2022-06-05T08:24:19.000Z</time></trkpt><trkpt lon="5.711706" lat="51.375776"><ele>24</ele><time>2022-06-05T08:24:20.000Z</time></trkpt><trkpt lon="5.711802" lat="51.375756"><ele>24</ele><time>2022-06-05T08:24:21.000Z</time></trkpt><trkpt lon="5.711891" lat="51.375739"><ele>24</ele><time>2022-06-05T08:24:22.000Z</time></trkpt><trkpt lon="5.711994" lat="51.375715"><ele>24</ele><time>2022-06-05T08:24:23.000Z</time></trkpt><trkpt lon="5.712092" lat="51.375695"><ele>24</ele><time>2022-06-05T08:24:24.000Z</time></trkpt><trkpt lon="5.712192" lat="51.375676"><ele>24.2</ele><time>2022-06-05T08:24:25.000Z</time></trkpt><trkpt lon="5.712289" lat="51.375658"><ele>24.2</ele><time>2022-06-05T08:24:26.000Z</time></trkpt><trkpt lon="5.71239" lat="51.375635"><ele>24.2</ele><time>2022-06-05T08:24:27.000Z</time></trkpt><trkpt lon="5.712488" lat="51.375616"><ele>24.2</ele><time>2022-06-05T08:24:28.000Z</time></trkpt><trkpt lon="5.712588" lat="51.375597"><ele>24.2</ele><time>2022-06-05T08:24:29.000Z</time></trkpt><trkpt lon="5.71269" lat="51.375577"><ele>24</ele><time>2022-06-05T08:24:30.000Z</time></trkpt><trkpt lon="5.71279" lat="51.375558"><ele>24</ele><time>2022-06-05T08:24:31.000Z</time></trkpt><trkpt lon="5.712887" lat="51.375539"><ele>24</ele><time>2022-06-05T08:24:32.000Z</time></trkpt><trkpt lon="5.712991" lat="51.375516"><ele>24.2</ele><time>2022-06-05T08:24:33.000Z</time></trkpt><trkpt lon="5.713086" lat="51.375497"><ele>24.2</ele><time>2022-06-05T08:24:34.000Z</time></trkpt><trkpt lon="5.713186" lat="51.375478"><ele>24.2</ele><time>2022-06-05T08:24:35.000Z</time></trkpt><trkpt lon="5.713282" lat="51.37546"><ele>24.4</ele><time>2022-06-05T08:24:36.000Z</time></trkpt><trkpt lon="5.713384" lat="51.375437"><ele>24.4</ele><time>2022-06-05T08:24:37.000Z</time></trkpt><trkpt lon="5.713482" lat="51.375418"><ele>24.2</ele><time>2022-06-05T08:24:38.000Z</time></trkpt><trkpt lon="5.713588" lat="51.375398"><ele>24.2</ele><time>2022-06-05T08:24:39.000Z</time></trkpt><trkpt lon="5.713683" lat="51.37538"><ele>24</ele><time>2022-06-05T08:24:40.000Z</time></trkpt><trkpt lon="5.71379" lat="51.375356"><ele>24</ele><time>2022-06-05T08:24:41.000Z</time></trkpt><trkpt lon="5.713889" lat="51.375337"><ele>24.2</ele><time>2022-06-05T08:24:42.000Z</time></trkpt><trkpt lon="5.713995" lat="51.375318"><ele>24.2</ele><time>2022-06-05T08:24:43.000Z</time></trkpt><trkpt lon="5.714096" lat="51.375296"><ele>24.2</ele><time>2022-06-05T08:24:44.000Z</time></trkpt><trkpt lon="5.714191" lat="51.375278"><ele>24.2</ele><time>2022-06-05T08:24:45.000Z</time></trkpt><trkpt lon="5.7143" lat="51.375255"><ele>24.2</ele><time>2022-06-05T08:24:46.000Z</time></trkpt><trkpt lon="5.714407" lat="51.375232"><ele>24.2</ele><time>2022-06-05T08:24:47.000Z</time></trkpt><trkpt lon="5.714513" lat="51.375211"><ele>24.4</ele><time>2022-06-05T08:24:48.000Z</time></trkpt><trkpt lon="5.714616" lat="51.375191"><ele>24.2</ele><time>2022-06-05T08:24:49.000Z</time></trkpt><trkpt lon="5.71472" lat="51.375172"><ele>24.4</ele><time>2022-06-05T08:24:50.000Z</time></trkpt><trkpt lon="5.714826" lat="51.375153"><ele>24.4</ele><time>2022-06-05T08:24:51.000Z</time></trkpt><trkpt lon="5.714931" lat="51.375134"><ele>24.2</ele><time>2022-06-05T08:24:52.000Z</time></trkpt><trkpt lon="5.715035" lat="51.375115"><ele>24.2</ele><time>2022-06-05T08:24:53.000Z</time></trkpt><trkpt lon="5.715139" lat="51.375092"><ele>24.4</ele><time>2022-06-05T08:24:54.000Z</time></trkpt><trkpt lon="5.715244" lat="51.375073"><ele>24.4</ele><time>2022-06-05T08:24:55.000Z</time></trkpt><trkpt lon="5.715349" lat="51.375054"><ele>24.4</ele><time>2022-06-05T08:24:56.000Z</time></trkpt><trkpt lon="5.715454" lat="51.375031"><ele>24.2</ele><time>2022-06-05T08:24:57.000Z</time></trkpt><trkpt lon="5.71556" lat="51.375012"><ele>24.2</ele><time>2022-06-05T08:24:58.000Z</time></trkpt><trkpt lon="5.715664" lat="51.374993"><ele>24.2</ele><time>2022-06-05T08:24:59.000Z</time></trkpt><trkpt lon="5.715768" lat="51.374974"><ele>24.2</ele><time>2022-06-05T08:25:00.000Z</time></trkpt><trkpt lon="5.715869" lat="51.374951"><ele>24.2</ele><time>2022-06-05T08:25:01.000Z</time></trkpt><trkpt lon="5.715974" lat="51.374932"><ele>24.2</ele><time>2022-06-05T08:25:02.000Z</time></trkpt><trkpt lon="5.716075" lat="51.374913"><ele>24.2</ele><time>2022-06-05T08:25:03.000Z</time></trkpt><trkpt lon="5.716176" lat="51.374894"><ele>24.2</ele><time>2022-06-05T08:25:04.000Z</time></trkpt><trkpt lon="5.716279" lat="51.374878"><ele>24.2</ele><time>2022-06-05T08:25:05.000Z</time></trkpt><trkpt lon="5.716378" lat="51.374867"><ele>24.2</ele><time>2022-06-05T08:25:06.000Z</time></trkpt><trkpt lon="5.716478" lat="51.374867"><ele>24</ele><time>2022-06-05T08:25:07.000Z</time></trkpt><trkpt lon="5.716582" lat="51.374867"><ele>23.8</ele><time>2022-06-05T08:25:08.000Z</time></trkpt><trkpt lon="5.716691" lat="51.37487"><ele>23.8</ele><time>2022-06-05T08:25:09.000Z</time></trkpt><trkpt lon="5.7168" lat="51.374881"><ele>23.8</ele><time>2022-06-05T08:25:10.000Z</time></trkpt><trkpt lon="5.716911" lat="51.374889"><ele>23.6</ele><time>2022-06-05T08:25:11.000Z</time></trkpt><trkpt lon="5.717024" lat="51.374904"><ele>23.6</ele><time>2022-06-05T08:25:12.000Z</time></trkpt><trkpt lon="5.717135" lat="51.374923"><ele>23.6</ele><time>2022-06-05T08:25:13.000Z</time></trkpt><trkpt lon="5.717244" lat="51.374946"><ele>23.6</ele><time>2022-06-05T08:25:14.000Z</time></trkpt><trkpt lon="5.717346" lat="51.374972"><ele>23.6</ele><time>2022-06-05T08:25:15.000Z</time></trkpt><trkpt lon="5.717451" lat="51.374999"><ele>23.4</ele><time>2022-06-05T08:25:16.000Z</time></trkpt><trkpt lon="5.717553" lat="51.375033"><ele>23.4</ele><time>2022-06-05T08:25:17.000Z</time></trkpt><trkpt lon="5.717652" lat="51.375064"><ele>23.4</ele><time>2022-06-05T08:25:18.000Z</time></trkpt><trkpt lon="5.717746" lat="51.375102"><ele>23.2</ele><time>2022-06-05T08:25:19.000Z</time></trkpt><trkpt lon="5.717836" lat="51.37514"><ele>23.2</ele><time>2022-06-05T08:25:20.000Z</time></trkpt><trkpt lon="5.717926" lat="51.375174"><ele>23.2</ele><time>2022-06-05T08:25:21.000Z</time></trkpt><trkpt lon="5.718015" lat="51.375212"><ele>23</ele><time>2022-06-05T08:25:22.000Z</time></trkpt><trkpt lon="5.718105" lat="51.37525"><ele>23</ele><time>2022-06-05T08:25:23.000Z</time></trkpt><trkpt lon="5.718195" lat="51.375289"><ele>23</ele><time>2022-06-05T08:25:24.000Z</time></trkpt><trkpt lon="5.718284" lat="51.375329"><ele>22.8</ele><time>2022-06-05T08:25:25.000Z</time></trkpt><trkpt lon="5.718379" lat="51.375365"><ele>22.8</ele><time>2022-06-05T08:25:26.000Z</time></trkpt><trkpt lon="5.718471" lat="51.375403"><ele>22.6</ele><time>2022-06-05T08:25:27.000Z</time></trkpt><trkpt lon="5.718559" lat="51.375441"><ele>22.8</ele><time>2022-06-05T08:25:28.000Z</time></trkpt><trkpt lon="5.718649" lat="51.375479"><ele>22.8</ele><time>2022-06-05T08:25:29.000Z</time></trkpt><trkpt lon="5.718737" lat="51.375518"><ele>22.8</ele><time>2022-06-05T08:25:30.000Z</time></trkpt><trkpt lon="5.718827" lat="51.375556"><ele>22.8</ele><time>2022-06-05T08:25:31.000Z</time></trkpt><trkpt lon="5.718916" lat="51.375594"><ele>22.8</ele><time>2022-06-05T08:25:32.000Z</time></trkpt><trkpt lon="5.719004" lat="51.375632"><ele>22.8</ele><time>2022-06-05T08:25:33.000Z</time></trkpt><trkpt lon="5.719093" lat="51.375673"><ele>22.6</ele><time>2022-06-05T08:25:34.000Z</time></trkpt><trkpt lon="5.719182" lat="51.375712"><ele>22.8</ele><time>2022-06-05T08:25:35.000Z</time></trkpt><trkpt lon="5.719268" lat="51.37575"><ele>22.6</ele><time>2022-06-05T08:25:36.000Z</time></trkpt><trkpt lon="5.719348" lat="51.375791"><ele>22.6</ele><time>2022-06-05T08:25:37.000Z</time></trkpt><trkpt lon="5.719424" lat="51.375832"><ele>22.4</ele><time>2022-06-05T08:25:38.000Z</time></trkpt><trkpt lon="5.719506" lat="51.37588"><ele>22.4</ele><time>2022-06-05T08:25:39.000Z</time></trkpt><trkpt lon="5.719579" lat="51.375925"><ele>22.6</ele><time>2022-06-05T08:25:40.000Z</time></trkpt><trkpt lon="5.719656" lat="51.375967"><ele>22.6</ele><time>2022-06-05T08:25:41.000Z</time></trkpt><trkpt lon="5.719733" lat="51.37601"><ele>22.8</ele><time>2022-06-05T08:25:42.000Z</time></trkpt><trkpt lon="5.719806" lat="51.376055"><ele>22.8</ele><time>2022-06-05T08:25:43.000Z</time></trkpt><trkpt lon="5.719881" lat="51.376097"><ele>22.8</ele><time>2022-06-05T08:25:44.000Z</time></trkpt><trkpt lon="5.719957" lat="51.376139"><ele>22.8</ele><time>2022-06-05T08:25:45.000Z</time></trkpt><trkpt lon="5.720029" lat="51.376184"><ele>22.8</ele><time>2022-06-05T08:25:46.000Z</time></trkpt><trkpt lon="5.720097" lat="51.376225"><ele>22.6</ele><time>2022-06-05T08:25:47.000Z</time></trkpt><trkpt lon="5.720166" lat="51.376265"><ele>22.6</ele><time>2022-06-05T08:25:48.000Z</time></trkpt><trkpt lon="5.720231" lat="51.376307"><ele>22.6</ele><time>2022-06-05T08:25:49.000Z</time></trkpt><trkpt lon="5.720292" lat="51.376342"><ele>22.6</ele><time>2022-06-05T08:25:50.000Z</time></trkpt><trkpt lon="5.720351" lat="51.376376"><ele>22.6</ele><time>2022-06-05T08:25:51.000Z</time></trkpt><trkpt lon="5.720406" lat="51.376406"><ele>22.6</ele><time>2022-06-05T08:25:52.000Z</time></trkpt><trkpt lon="5.72046" lat="51.376437"><ele>22.6</ele><time>2022-06-05T08:25:53.000Z</time></trkpt><trkpt lon="5.720509" lat="51.376471"><ele>22.6</ele><time>2022-06-05T08:25:54.000Z</time></trkpt><trkpt lon="5.720555" lat="51.376505"><ele>22.6</ele><time>2022-06-05T08:25:55.000Z</time></trkpt><trkpt lon="5.720593" lat="51.376536"><ele>22.6</ele><time>2022-06-05T08:25:56.000Z</time></trkpt><trkpt lon="5.720629" lat="51.376559"><ele>22.8</ele><time>2022-06-05T08:25:57.000Z</time></trkpt><trkpt lon="5.720663" lat="51.376578"><ele>22.8</ele><time>2022-06-05T08:25:58.000Z</time></trkpt><trkpt lon="5.720701" lat="51.376587"><ele>22.6</ele><time>2022-06-05T08:25:59.000Z</time></trkpt><trkpt lon="5.720732" lat="51.376583"><ele>22.6</ele><time>2022-06-05T08:26:00.000Z</time></trkpt><trkpt lon="5.720758" lat="51.376572"><ele>22.8</ele><time>2022-06-05T08:26:01.000Z</time></trkpt><trkpt lon="5.720784" lat="51.376543"><ele>22.8</ele><time>2022-06-05T08:26:02.000Z</time></trkpt><trkpt lon="5.720821" lat="51.376512"><ele>22.8</ele><time>2022-06-05T08:26:03.000Z</time></trkpt><trkpt lon="5.720873" lat="51.376482"><ele>22.8</ele><time>2022-06-05T08:26:04.000Z</time></trkpt><trkpt lon="5.720937" lat="51.376458"><ele>22.8</ele><time>2022-06-05T08:26:05.000Z</time></trkpt><trkpt lon="5.721006" lat="51.37645"><ele>22.6</ele><time>2022-06-05T08:26:06.000Z</time></trkpt><trkpt lon="5.721077" lat="51.376446"><ele>22.6</ele><time>2022-06-05T08:26:07.000Z</time></trkpt><trkpt lon="5.721142" lat="51.376428"><ele>22.6</ele><time>2022-06-05T08:26:08.000Z</time></trkpt><trkpt lon="5.721204" lat="51.376397"><ele>22.6</ele><time>2022-06-05T08:26:09.000Z</time></trkpt><trkpt lon="5.721262" lat="51.376356"><ele>22.6</ele><time>2022-06-05T08:26:10.000Z</time></trkpt><trkpt lon="5.721323" lat="51.37631"><ele>22.6</ele><time>2022-06-05T08:26:11.000Z</time></trkpt><trkpt lon="5.721384" lat="51.376268"><ele>22.6</ele><time>2022-06-05T08:26:12.000Z</time></trkpt><trkpt lon="5.721446" lat="51.376223"><ele>22.6</ele><time>2022-06-05T08:26:13.000Z</time></trkpt><trkpt lon="5.721507" lat="51.376177"><ele>22.4</ele><time>2022-06-05T08:26:14.000Z</time></trkpt><trkpt lon="5.721572" lat="51.376131"><ele>22.4</ele><time>2022-06-05T08:26:15.000Z</time></trkpt><trkpt lon="5.721635" lat="51.376081"><ele>22.4</ele><time>2022-06-05T08:26:16.000Z</time></trkpt><trkpt lon="5.721697" lat="51.376032"><ele>22.4</ele><time>2022-06-05T08:26:17.000Z</time></trkpt><trkpt lon="5.721761" lat="51.375985"><ele>22.4</ele><time>2022-06-05T08:26:18.000Z</time></trkpt><trkpt lon="5.721826" lat="51.37594"><ele>22.4</ele><time>2022-06-05T08:26:19.000Z</time></trkpt><trkpt lon="5.721891" lat="51.37589"><ele>22.4</ele><time>2022-06-05T08:26:20.000Z</time></trkpt><trkpt lon="5.721958" lat="51.375845"><ele>22.4</ele><time>2022-06-05T08:26:21.000Z</time></trkpt><trkpt lon="5.722027" lat="51.375799"><ele>22.4</ele><time>2022-06-05T08:26:22.000Z</time></trkpt><trkpt lon="5.722097" lat="51.375753"><ele>22.4</ele><time>2022-06-05T08:26:23.000Z</time></trkpt><trkpt lon="5.722164" lat="51.375711"><ele>22.4</ele><time>2022-06-05T08:26:24.000Z</time></trkpt><trkpt lon="5.722234" lat="51.375665"><ele>22.6</ele><time>2022-06-05T08:26:25.000Z</time></trkpt><trkpt lon="5.722303" lat="51.375623"><ele>22.6</ele><time>2022-06-05T08:26:26.000Z</time></trkpt><trkpt lon="5.722372" lat="51.375581"><ele>22.6</ele><time>2022-06-05T08:26:27.000Z</time></trkpt><trkpt lon="5.722436" lat="51.375543"><ele>22.6</ele><time>2022-06-05T08:26:28.000Z</time></trkpt><trkpt lon="5.722501" lat="51.375501"><ele>22.4</ele><time>2022-06-05T08:26:29.000Z</time></trkpt><trkpt lon="5.722567" lat="51.375459"><ele>22.4</ele><time>2022-06-05T08:26:30.000Z</time></trkpt><trkpt lon="5.722636" lat="51.375422"><ele>22.4</ele><time>2022-06-05T08:26:31.000Z</time></trkpt><trkpt lon="5.722708" lat="51.375383"><ele>22.4</ele><time>2022-06-05T08:26:32.000Z</time></trkpt><trkpt lon="5.722781" lat="51.375345"><ele>22.4</ele><time>2022-06-05T08:26:33.000Z</time></trkpt><trkpt lon="5.722856" lat="51.375306"><ele>22.4</ele><time>2022-06-05T08:26:34.000Z</time></trkpt><trkpt lon="5.722926" lat="51.375266"><ele>22.4</ele><time>2022-06-05T08:26:35.000Z</time></trkpt><trkpt lon="5.722998" lat="51.375226"><ele>22.4</ele><time>2022-06-05T08:26:36.000Z</time></trkpt><trkpt lon="5.723068" lat="51.375184"><ele>22.4</ele><time>2022-06-05T08:26:37.000Z</time></trkpt><trkpt lon="5.723136" lat="51.375143"><ele>22.4</ele><time>2022-06-05T08:26:38.000Z</time></trkpt><trkpt lon="5.723205" lat="51.375097"><ele>22.2</ele><time>2022-06-05T08:26:39.000Z</time></trkpt><trkpt lon="5.723272" lat="51.375051"><ele>22.2</ele><time>2022-06-05T08:26:40.000Z</time></trkpt><trkpt lon="5.723337" lat="51.375006"><ele>22.2</ele><time>2022-06-05T08:26:41.000Z</time></trkpt><trkpt lon="5.723402" lat="51.374964"><ele>22.4</ele><time>2022-06-05T08:26:42.000Z</time></trkpt><trkpt lon="5.723468" lat="51.374914"><ele>22.4</ele><time>2022-06-05T08:26:43.000Z</time></trkpt><trkpt lon="5.723531" lat="51.374868"><ele>22.4</ele><time>2022-06-05T08:26:44.000Z</time></trkpt><trkpt lon="5.723597" lat="51.374818"><ele>22.4</ele><time>2022-06-05T08:26:45.000Z</time></trkpt><trkpt lon="5.72366" lat="51.374773"><ele>22.4</ele><time>2022-06-05T08:26:46.000Z</time></trkpt><trkpt lon="5.723723" lat="51.374723"><ele>22.4</ele><time>2022-06-05T08:26:47.000Z</time></trkpt><trkpt lon="5.723786" lat="51.374681"><ele>22.4</ele><time>2022-06-05T08:26:48.000Z</time></trkpt><trkpt lon="5.72385" lat="51.374635"><ele>22.4</ele><time>2022-06-05T08:26:49.000Z</time></trkpt><trkpt lon="5.723913" lat="51.374594"><ele>22.4</ele><time>2022-06-05T08:26:50.000Z</time></trkpt><trkpt lon="5.72398" lat="51.374548"><ele>22.4</ele><time>2022-06-05T08:26:51.000Z</time></trkpt><trkpt lon="5.724043" lat="51.374498"><ele>22.6</ele><time>2022-06-05T08:26:52.000Z</time></trkpt><trkpt lon="5.724104" lat="51.374449"><ele>22.6</ele><time>2022-06-05T08:26:53.000Z</time></trkpt><trkpt lon="5.724168" lat="51.374403"><ele>22.6</ele><time>2022-06-05T08:26:54.000Z</time></trkpt><trkpt lon="5.724231" lat="51.374353"><ele>22.6</ele><time>2022-06-05T08:26:55.000Z</time></trkpt><trkpt lon="5.72429" lat="51.374307"><ele>22.6</ele><time>2022-06-05T08:26:56.000Z</time></trkpt><trkpt lon="5.72435" lat="51.374258"><ele>22.6</ele><time>2022-06-05T08:26:57.000Z</time></trkpt><trkpt lon="5.724408" lat="51.374212"><ele>22.6</ele><time>2022-06-05T08:26:58.000Z</time></trkpt><trkpt lon="5.724466" lat="51.374162"><ele>22.6</ele><time>2022-06-05T08:26:59.000Z</time></trkpt><trkpt lon="5.724524" lat="51.374117"><ele>22.6</ele><time>2022-06-05T08:27:00.000Z</time></trkpt><trkpt lon="5.724581" lat="51.374067"><ele>22.6</ele><time>2022-06-05T08:27:01.000Z</time></trkpt><trkpt lon="5.724635" lat="51.374018"><ele>22.6</ele><time>2022-06-05T08:27:02.000Z</time></trkpt><trkpt lon="5.724685" lat="51.373968"><ele>22.6</ele><time>2022-06-05T08:27:03.000Z</time></trkpt><trkpt lon="5.724734" lat="51.373919"><ele>22.6</ele><time>2022-06-05T08:27:04.000Z</time></trkpt><trkpt lon="5.724782" lat="51.373865"><ele>22.6</ele><time>2022-06-05T08:27:05.000Z</time></trkpt><trkpt lon="5.724825" lat="51.373812"><ele>22.6</ele><time>2022-06-05T08:27:06.000Z</time></trkpt><trkpt lon="5.724866" lat="51.373754"><ele>22.6</ele><time>2022-06-05T08:27:07.000Z</time></trkpt><trkpt lon="5.724905" lat="51.373701"><ele>22.6</ele><time>2022-06-05T08:27:08.000Z</time></trkpt><trkpt lon="5.72494" lat="51.373645"><ele>22.6</ele><time>2022-06-05T08:27:09.000Z</time></trkpt><trkpt lon="5.724967" lat="51.373587"><ele>22.6</ele><time>2022-06-05T08:27:10.000Z</time></trkpt><trkpt lon="5.724994" lat="51.37353"><ele>22.8</ele><time>2022-06-05T08:27:11.000Z</time></trkpt><trkpt lon="5.725019" lat="51.373469"><ele>22.8</ele><time>2022-06-05T08:27:12.000Z</time></trkpt><trkpt lon="5.725044" lat="51.373411"><ele>22.8</ele><time>2022-06-05T08:27:13.000Z</time></trkpt><trkpt lon="5.725068" lat="51.37335"><ele>22.8</ele><time>2022-06-05T08:27:14.000Z</time></trkpt><trkpt lon="5.725091" lat="51.373293"><ele>22.8</ele><time>2022-06-05T08:27:15.000Z</time></trkpt><trkpt lon="5.725112" lat="51.373234"><ele>22.8</ele><time>2022-06-05T08:27:16.000Z</time></trkpt><trkpt lon="5.72513" lat="51.373167"><ele>22.8</ele><time>2022-06-05T08:27:17.000Z</time></trkpt><trkpt lon="5.725146" lat="51.373103"><ele>22.6</ele><time>2022-06-05T08:27:18.000Z</time></trkpt><trkpt lon="5.725161" lat="51.373042"><ele>22.4</ele><time>2022-06-05T08:27:19.000Z</time></trkpt><trkpt lon="5.725178" lat="51.372977"><ele>22.4</ele><time>2022-06-05T08:27:20.000Z</time></trkpt><trkpt lon="5.725194" lat="51.372916"><ele>22.2</ele><time>2022-06-05T08:27:21.000Z</time></trkpt><trkpt lon="5.725211" lat="51.372854"><ele>22.2</ele><time>2022-06-05T08:27:22.000Z</time></trkpt><trkpt lon="5.725222" lat="51.372798"><ele>22.2</ele><time>2022-06-05T08:27:23.000Z</time></trkpt><trkpt lon="5.725235" lat="51.372729"><ele>22.4</ele><time>2022-06-05T08:27:24.000Z</time></trkpt><trkpt lon="5.725249" lat="51.372664"><ele>22.4</ele><time>2022-06-05T08:27:25.000Z</time></trkpt><trkpt lon="5.725264" lat="51.372605"><ele>22.6</ele><time>2022-06-05T08:27:26.000Z</time></trkpt><trkpt lon="5.725282" lat="51.372543"><ele>22.6</ele><time>2022-06-05T08:27:27.000Z</time></trkpt><trkpt lon="5.725299" lat="51.372477"><ele>22.6</ele><time>2022-06-05T08:27:28.000Z</time></trkpt><trkpt lon="5.725318" lat="51.372416"><ele>22.6</ele><time>2022-06-05T08:27:29.000Z</time></trkpt><trkpt lon="5.725339" lat="51.372351"><ele>22.6</ele><time>2022-06-05T08:27:30.000Z</time></trkpt><trkpt lon="5.725358" lat="51.372287"><ele>22.6</ele><time>2022-06-05T08:27:31.000Z</time></trkpt><trkpt lon="5.725377" lat="51.372226"><ele>22.8</ele><time>2022-06-05T08:27:32.000Z</time></trkpt><trkpt lon="5.725396" lat="51.372161"><ele>22.6</ele><time>2022-06-05T08:27:33.000Z</time></trkpt><trkpt lon="5.725414" lat="51.372097"><ele>22.6</ele><time>2022-06-05T08:27:34.000Z</time></trkpt><trkpt lon="5.725431" lat="51.372035"><ele>22.6</ele><time>2022-06-05T08:27:35.000Z</time></trkpt><trkpt lon="5.725448" lat="51.371969"><ele>22.6</ele><time>2022-06-05T08:27:36.000Z</time></trkpt><trkpt lon="5.725463" lat="51.371908"><ele>22.6</ele><time>2022-06-05T08:27:37.000Z</time></trkpt><trkpt lon="5.725476" lat="51.371843"><ele>22.6</ele><time>2022-06-05T08:27:38.000Z</time></trkpt><trkpt lon="5.725488" lat="51.371778"><ele>22.6</ele><time>2022-06-05T08:27:39.000Z</time></trkpt><trkpt lon="5.725498" lat="51.371714"><ele>22.4</ele><time>2022-06-05T08:27:40.000Z</time></trkpt><trkpt lon="5.725506" lat="51.371653"><ele>22.4</ele><time>2022-06-05T08:27:41.000Z</time></trkpt><trkpt lon="5.72551" lat="51.371592"><ele>22.4</ele><time>2022-06-05T08:27:42.000Z</time></trkpt><trkpt lon="5.725515" lat="51.371527"><ele>22.4</ele><time>2022-06-05T08:27:43.000Z</time></trkpt><trkpt lon="5.72552" lat="51.371466"><ele>22.4</ele><time>2022-06-05T08:27:44.000Z</time></trkpt><trkpt lon="5.725528" lat="51.371401"><ele>22.4</ele><time>2022-06-05T08:27:45.000Z</time></trkpt><trkpt lon="5.725535" lat="51.371334"><ele>22.6</ele><time>2022-06-05T08:27:46.000Z</time></trkpt><trkpt lon="5.725543" lat="51.371267"><ele>22.6</ele><time>2022-06-05T08:27:47.000Z</time></trkpt><trkpt lon="5.72555" lat="51.371203"><ele>22.6</ele><time>2022-06-05T08:27:48.000Z</time></trkpt><trkpt lon="5.725555" lat="51.37114"><ele>22.6</ele><time>2022-06-05T08:27:49.000Z</time></trkpt><trkpt lon="5.725561" lat="51.371073"><ele>22.6</ele><time>2022-06-05T08:27:50.000Z</time></trkpt><trkpt lon="5.725571" lat="51.371009"><ele>22.6</ele><time>2022-06-05T08:27:51.000Z</time></trkpt><trkpt lon="5.72558" lat="51.370954"><ele>22.6</ele><time>2022-06-05T08:27:52.000Z</time></trkpt><trkpt lon="5.725594" lat="51.370888"><ele>22.6</ele><time>2022-06-05T08:27:53.000Z</time></trkpt><trkpt lon="5.725608" lat="51.370823"><ele>22.6</ele><time>2022-06-05T08:27:54.000Z</time></trkpt><trkpt lon="5.725619" lat="51.37076"><ele>22.6</ele><time>2022-06-05T08:27:55.000Z</time></trkpt><trkpt lon="5.725635" lat="51.370699"><ele>22.8</ele><time>2022-06-05T08:27:56.000Z</time></trkpt><trkpt lon="5.725646" lat="51.370642"><ele>22.8</ele><time>2022-06-05T08:27:57.000Z</time></trkpt><trkpt lon="5.725658" lat="51.370585"><ele>22.8</ele><time>2022-06-05T08:27:58.000Z</time></trkpt><trkpt lon="5.725673" lat="51.370528"><ele>22.8</ele><time>2022-06-05T08:27:59.000Z</time></trkpt><trkpt lon="5.725689" lat="51.370472"><ele>23</ele><time>2022-06-05T08:28:00.000Z</time></trkpt><trkpt lon="5.725709" lat="51.37041"><ele>23</ele><time>2022-06-05T08:28:01.000Z</time></trkpt><trkpt lon="5.725732" lat="51.370349"><ele>23</ele><time>2022-06-05T08:28:02.000Z</time></trkpt><trkpt lon="5.725756" lat="51.370284"><ele>23</ele><time>2022-06-05T08:28:03.000Z</time></trkpt><trkpt lon="5.725779" lat="51.370222"><ele>23</ele><time>2022-06-05T08:28:04.000Z</time></trkpt><trkpt lon="5.725802" lat="51.370154"><ele>23</ele><time>2022-06-05T08:28:05.000Z</time></trkpt><trkpt lon="5.725829" lat="51.370093"><ele>23</ele><time>2022-06-05T08:28:06.000Z</time></trkpt><trkpt lon="5.725856" lat="51.370028"><ele>22.8</ele><time>2022-06-05T08:28:07.000Z</time></trkpt><trkpt lon="5.725883" lat="51.369963"><ele>22.8</ele><time>2022-06-05T08:28:08.000Z</time></trkpt><trkpt lon="5.725911" lat="51.369898"><ele>22.8</ele><time>2022-06-05T08:28:09.000Z</time></trkpt><trkpt lon="5.725939" lat="51.369833"><ele>22.8</ele><time>2022-06-05T08:28:10.000Z</time></trkpt><trkpt lon="5.725969" lat="51.369768"><ele>22.8</ele><time>2022-06-05T08:28:11.000Z</time></trkpt><trkpt lon="5.726001" lat="51.369703"><ele>22.8</ele><time>2022-06-05T08:28:12.000Z</time></trkpt><trkpt lon="5.726033" lat="51.369639"><ele>22.8</ele><time>2022-06-05T08:28:13.000Z</time></trkpt><trkpt lon="5.726065" lat="51.369574"><ele>22.8</ele><time>2022-06-05T08:28:14.000Z</time></trkpt><trkpt lon="5.726099" lat="51.369513"><ele>22.8</ele><time>2022-06-05T08:28:15.000Z</time></trkpt><trkpt lon="5.726129" lat="51.369457"><ele>22.8</ele><time>2022-06-05T08:28:16.000Z</time></trkpt><trkpt lon="5.726167" lat="51.369391"><ele>22.8</ele><time>2022-06-05T08:28:17.000Z</time></trkpt><trkpt lon="5.726202" lat="51.36933"><ele>22.8</ele><time>2022-06-05T08:28:18.000Z</time></trkpt><trkpt lon="5.726237" lat="51.369268"><ele>22.8</ele><time>2022-06-05T08:28:19.000Z</time></trkpt><trkpt lon="5.726276" lat="51.369208"><ele>22.8</ele><time>2022-06-05T08:28:20.000Z</time></trkpt><trkpt lon="5.726314" lat="51.369146"><ele>23</ele><time>2022-06-05T08:28:21.000Z</time></trkpt><trkpt lon="5.726354" lat="51.369086"><ele>23</ele><time>2022-06-05T08:28:22.000Z</time></trkpt><trkpt lon="5.726395" lat="51.369024"><ele>23</ele><time>2022-06-05T08:28:23.000Z</time></trkpt><trkpt lon="5.726437" lat="51.368963"><ele>23</ele><time>2022-06-05T08:28:24.000Z</time></trkpt><trkpt lon="5.72648" lat="51.368906"><ele>23</ele><time>2022-06-05T08:28:25.000Z</time></trkpt><trkpt lon="5.72652" lat="51.368846"><ele>23</ele><time>2022-06-05T08:28:26.000Z</time></trkpt><trkpt lon="5.726562" lat="51.368784"><ele>23</ele><time>2022-06-05T08:28:27.000Z</time></trkpt><trkpt lon="5.726603" lat="51.368727"><ele>23</ele><time>2022-06-05T08:28:28.000Z</time></trkpt><trkpt lon="5.726645" lat="51.368662"><ele>23</ele><time>2022-06-05T08:28:29.000Z</time></trkpt><trkpt lon="5.726684" lat="51.368605"><ele>23</ele><time>2022-06-05T08:28:30.000Z</time></trkpt><trkpt lon="5.726725" lat="51.368544"><ele>23</ele><time>2022-06-05T08:28:31.000Z</time></trkpt><trkpt lon="5.726767" lat="51.36848"><ele>22.8</ele><time>2022-06-05T08:28:32.000Z</time></trkpt><trkpt lon="5.726809" lat="51.368421"><ele>22.6</ele><time>2022-06-05T08:28:33.000Z</time></trkpt><trkpt lon="5.726846" lat="51.368361"><ele>22.6</ele><time>2022-06-05T08:28:34.000Z</time></trkpt><trkpt lon="5.726887" lat="51.368303"><ele>22.6</ele><time>2022-06-05T08:28:35.000Z</time></trkpt><trkpt lon="5.726927" lat="51.368243"><ele>22.6</ele><time>2022-06-05T08:28:36.000Z</time></trkpt><trkpt lon="5.726964" lat="51.368185"><ele>22.4</ele><time>2022-06-05T08:28:37.000Z</time></trkpt><trkpt lon="5.727" lat="51.368128"><ele>22.6</ele><time>2022-06-05T08:28:38.000Z</time></trkpt><trkpt lon="5.727036" lat="51.368073"><ele>22.6</ele><time>2022-06-05T08:28:39.000Z</time></trkpt><trkpt lon="5.727075" lat="51.368014"><ele>22.8</ele><time>2022-06-05T08:28:40.000Z</time></trkpt><trkpt lon="5.727116" lat="51.367952"><ele>22.8</ele><time>2022-06-05T08:28:41.000Z</time></trkpt><trkpt lon="5.727156" lat="51.367895"><ele>23</ele><time>2022-06-05T08:28:42.000Z</time></trkpt><trkpt lon="5.727195" lat="51.367838"><ele>23</ele><time>2022-06-05T08:28:43.000Z</time></trkpt><trkpt lon="5.727232" lat="51.367781"><ele>22.8</ele><time>2022-06-05T08:28:44.000Z</time></trkpt><trkpt lon="5.72727" lat="51.367723"><ele>22.8</ele><time>2022-06-05T08:28:45.000Z</time></trkpt><trkpt lon="5.72731" lat="51.367666"><ele>23</ele><time>2022-06-05T08:28:46.000Z</time></trkpt><trkpt lon="5.72735" lat="51.367605"><ele>23</ele><time>2022-06-05T08:28:47.000Z</time></trkpt><trkpt lon="5.72739" lat="51.367553"><ele>23</ele><time>2022-06-05T08:28:48.000Z</time></trkpt><trkpt lon="5.727433" lat="51.367491"><ele>23</ele><time>2022-06-05T08:28:49.000Z</time></trkpt><trkpt lon="5.72748" lat="51.367434"><ele>23</ele><time>2022-06-05T08:28:50.000Z</time></trkpt><trkpt lon="5.727528" lat="51.367377"><ele>23</ele><time>2022-06-05T08:28:51.000Z</time></trkpt><trkpt lon="5.727577" lat="51.367315"><ele>23</ele><time>2022-06-05T08:28:52.000Z</time></trkpt><trkpt lon="5.727625" lat="51.367258"><ele>23</ele><time>2022-06-05T08:28:53.000Z</time></trkpt><trkpt lon="5.727676" lat="51.3672"><ele>23</ele><time>2022-06-05T08:28:54.000Z</time></trkpt><trkpt lon="5.727727" lat="51.367144"><ele>23</ele><time>2022-06-05T08:28:55.000Z</time></trkpt><trkpt lon="5.727778" lat="51.367087"><ele>23</ele><time>2022-06-05T08:28:56.000Z</time></trkpt><trkpt lon="5.72783" lat="51.36703"><ele>23</ele><time>2022-06-05T08:28:57.000Z</time></trkpt><trkpt lon="5.727882" lat="51.366973"><ele>23.2</ele><time>2022-06-05T08:28:58.000Z</time></trkpt><trkpt lon="5.727939" lat="51.366916"><ele>23.2</ele><time>2022-06-05T08:28:59.000Z</time></trkpt><trkpt lon="5.727995" lat="51.366861"><ele>23</ele><time>2022-06-05T08:29:00.000Z</time></trkpt><trkpt lon="5.72805" lat="51.366804"><ele>23</ele><time>2022-06-05T08:29:01.000Z</time></trkpt><trkpt lon="5.728101" lat="51.366747"><ele>23</ele><time>2022-06-05T08:29:02.000Z</time></trkpt><trkpt lon="5.728158" lat="51.366693"><ele>23</ele><time>2022-06-05T08:29:03.000Z</time></trkpt><trkpt lon="5.728219" lat="51.36664"><ele>23</ele><time>2022-06-05T08:29:04.000Z</time></trkpt><trkpt lon="5.728278" lat="51.366587"><ele>23</ele><time>2022-06-05T08:29:05.000Z</time></trkpt><trkpt lon="5.728335" lat="51.366533"><ele>22.8</ele><time>2022-06-05T08:29:06.000Z</time></trkpt><trkpt lon="5.728393" lat="51.366484"><ele>22.8</ele><time>2022-06-05T08:29:07.000Z</time></trkpt><trkpt lon="5.728448" lat="51.36643"><ele>22.8</ele><time>2022-06-05T08:29:08.000Z</time></trkpt><trkpt lon="5.728507" lat="51.366376"><ele>23</ele><time>2022-06-05T08:29:09.000Z</time></trkpt><trkpt lon="5.728566" lat="51.366327"><ele>23</ele><time>2022-06-05T08:29:10.000Z</time></trkpt><trkpt lon="5.728628" lat="51.366278"><ele>23.2</ele><time>2022-06-05T08:29:11.000Z</time></trkpt><trkpt lon="5.728688" lat="51.366229"><ele>23</ele><time>2022-06-05T08:29:12.000Z</time></trkpt><trkpt lon="5.728753" lat="51.366178"><ele>23</ele><time>2022-06-05T08:29:13.000Z</time></trkpt><trkpt lon="5.728821" lat="51.366129"><ele>23.2</ele><time>2022-06-05T08:29:14.000Z</time></trkpt><trkpt lon="5.728893" lat="51.366084"><ele>23.2</ele><time>2022-06-05T08:29:15.000Z</time></trkpt><trkpt lon="5.728969" lat="51.366039"><ele>23.2</ele><time>2022-06-05T08:29:16.000Z</time></trkpt><trkpt lon="5.729052" lat="51.365995"><ele>23.2</ele><time>2022-06-05T08:29:17.000Z</time></trkpt><trkpt lon="5.729134" lat="51.365953"><ele>23.2</ele><time>2022-06-05T08:29:18.000Z</time></trkpt><trkpt lon="5.729211" lat="51.365907"><ele>23.2</ele><time>2022-06-05T08:29:19.000Z</time></trkpt><trkpt lon="5.729287" lat="51.365862"><ele>23.2</ele><time>2022-06-05T08:29:20.000Z</time></trkpt><trkpt lon="5.729367" lat="51.365819"><ele>23.2</ele><time>2022-06-05T08:29:21.000Z</time></trkpt><trkpt lon="5.729446" lat="51.365774"><ele>23.2</ele><time>2022-06-05T08:29:22.000Z</time></trkpt><trkpt lon="5.729528" lat="51.365728"><ele>23.2</ele><time>2022-06-05T08:29:23.000Z</time></trkpt><trkpt lon="5.729611" lat="51.365686"><ele>23.2</ele><time>2022-06-05T08:29:24.000Z</time></trkpt><trkpt lon="5.729699" lat="51.365644"><ele>23.2</ele><time>2022-06-05T08:29:25.000Z</time></trkpt><trkpt lon="5.729782" lat="51.365602"><ele>23.2</ele><time>2022-06-05T08:29:26.000Z</time></trkpt><trkpt lon="5.729864" lat="51.365557"><ele>23.2</ele><time>2022-06-05T08:29:27.000Z</time></trkpt><trkpt lon="5.729948" lat="51.365518"><ele>23.2</ele><time>2022-06-05T08:29:28.000Z</time></trkpt><trkpt lon="5.730034" lat="51.365477"><ele>23</ele><time>2022-06-05T08:29:29.000Z</time></trkpt><trkpt lon="5.73012" lat="51.365435"><ele>23</ele><time>2022-06-05T08:29:30.000Z</time></trkpt><trkpt lon="5.7302" lat="51.365394"><ele>23</ele><time>2022-06-05T08:29:31.000Z</time></trkpt><trkpt lon="5.730287" lat="51.365354"><ele>23</ele><time>2022-06-05T08:29:32.000Z</time></trkpt><trkpt lon="5.730367" lat="51.365312"><ele>23</ele><time>2022-06-05T08:29:33.000Z</time></trkpt><trkpt lon="5.730449" lat="51.365271"><ele>23</ele><time>2022-06-05T08:29:34.000Z</time></trkpt><trkpt lon="5.730535" lat="51.365228"><ele>23</ele><time>2022-06-05T08:29:35.000Z</time></trkpt><trkpt lon="5.730619" lat="51.365186"><ele>23</ele><time>2022-06-05T08:29:36.000Z</time></trkpt><trkpt lon="5.730701" lat="51.365145"><ele>23</ele><time>2022-06-05T08:29:37.000Z</time></trkpt><trkpt lon="5.730785" lat="51.365099"><ele>23</ele><time>2022-06-05T08:29:38.000Z</time></trkpt><trkpt lon="5.730867" lat="51.365056"><ele>23</ele><time>2022-06-05T08:29:39.000Z</time></trkpt><trkpt lon="5.730945" lat="51.365011"><ele>23</ele><time>2022-06-05T08:29:40.000Z</time></trkpt><trkpt lon="5.73102" lat="51.36497"><ele>23</ele><time>2022-06-05T08:29:41.000Z</time></trkpt><trkpt lon="5.731095" lat="51.364923"><ele>23</ele><time>2022-06-05T08:29:42.000Z</time></trkpt><trkpt lon="5.731165" lat="51.364885"><ele>23</ele><time>2022-06-05T08:29:43.000Z</time></trkpt><trkpt lon="5.731234" lat="51.364847"><ele>23</ele><time>2022-06-05T08:29:44.000Z</time></trkpt><trkpt lon="5.731289" lat="51.364805"><ele>23.2</ele><time>2022-06-05T08:29:45.000Z</time></trkpt><trkpt lon="5.73134" lat="51.364766"><ele>23.2</ele><time>2022-06-05T08:29:46.000Z</time></trkpt><trkpt lon="5.731393" lat="51.364728"><ele>23.2</ele><time>2022-06-05T08:29:47.000Z</time></trkpt><trkpt lon="5.731448" lat="51.364701"><ele>23.2</ele><time>2022-06-05T08:29:48.000Z</time></trkpt><trkpt lon="5.7315" lat="51.364674"><ele>23.2</ele><time>2022-06-05T08:29:49.000Z</time></trkpt><trkpt lon="5.731543" lat="51.364644"><ele>23.2</ele><time>2022-06-05T08:29:50.000Z</time></trkpt><trkpt lon="5.731575" lat="51.364618"><ele>23.2</ele><time>2022-06-05T08:29:51.000Z</time></trkpt><trkpt lon="5.731605" lat="51.364598"><ele>23.2</ele><time>2022-06-05T08:29:52.000Z</time></trkpt><trkpt lon="5.731648" lat="51.364586"><ele>23.4</ele><time>2022-06-05T08:29:53.000Z</time></trkpt><trkpt lon="5.731707" lat="51.364579"><ele>23.4</ele><time>2022-06-05T08:29:54.000Z</time></trkpt><trkpt lon="5.731769" lat="51.364567"><ele>23.4</ele><time>2022-06-05T08:29:55.000Z</time></trkpt><trkpt lon="5.731842" lat="51.364559"><ele>23.4</ele><time>2022-06-05T08:29:56.000Z</time></trkpt><trkpt lon="5.731922" lat="51.364566"><ele>23.4</ele><time>2022-06-05T08:29:57.000Z</time></trkpt><trkpt lon="5.732002" lat="51.364578"><ele>23.2</ele><time>2022-06-05T08:29:58.000Z</time></trkpt><trkpt lon="5.732092" lat="51.364589"><ele>23.2</ele><time>2022-06-05T08:29:59.000Z</time></trkpt><trkpt lon="5.732187" lat="51.364597"><ele>23.2</ele><time>2022-06-05T08:30:00.000Z</time></trkpt><trkpt lon="5.732286" lat="51.364601"><ele>23.2</ele><time>2022-06-05T08:30:01.000Z</time></trkpt><trkpt lon="5.732381" lat="51.364605"><ele>23.2</ele><time>2022-06-05T08:30:02.000Z</time></trkpt><trkpt lon="5.732492" lat="51.364605"><ele>23.2</ele><time>2022-06-05T08:30:03.000Z</time></trkpt><trkpt lon="5.732594" lat="51.364605"><ele>23.2</ele><time>2022-06-05T08:30:04.000Z</time></trkpt><trkpt lon="5.732699" lat="51.364608"><ele>23.2</ele><time>2022-06-05T08:30:05.000Z</time></trkpt><trkpt lon="5.732809" lat="51.364609"><ele>23.2</ele><time>2022-06-05T08:30:06.000Z</time></trkpt><trkpt lon="5.732904" lat="51.364612"><ele>23</ele><time>2022-06-05T08:30:07.000Z</time></trkpt><trkpt lon="5.733019" lat="51.364616"><ele>23</ele><time>2022-06-05T08:30:08.000Z</time></trkpt><trkpt lon="5.733122" lat="51.364616"><ele>23</ele><time>2022-06-05T08:30:09.000Z</time></trkpt><trkpt lon="5.733227" lat="51.364616"><ele>22.8</ele><time>2022-06-05T08:30:10.000Z</time></trkpt><trkpt lon="5.73333" lat="51.364613"><ele>22.8</ele><time>2022-06-05T08:30:11.000Z</time></trkpt><trkpt lon="5.733427" lat="51.364609"><ele>23</ele><time>2022-06-05T08:30:12.000Z</time></trkpt><trkpt lon="5.733523" lat="51.364605"><ele>23</ele><time>2022-06-05T08:30:13.000Z</time></trkpt><trkpt lon="5.733619" lat="51.364594"><ele>23</ele><time>2022-06-05T08:30:14.000Z</time></trkpt><trkpt lon="5.733723" lat="51.364582"><ele>22.8</ele><time>2022-06-05T08:30:15.000Z</time></trkpt><trkpt lon="5.733817" lat="51.364568"><ele>22.8</ele><time>2022-06-05T08:30:16.000Z</time></trkpt><trkpt lon="5.733906" lat="51.364553"><ele>23</ele><time>2022-06-05T08:30:17.000Z</time></trkpt><trkpt lon="5.734007" lat="51.364537"><ele>23</ele><time>2022-06-05T08:30:18.000Z</time></trkpt><trkpt lon="5.734101" lat="51.364518"><ele>23</ele><time>2022-06-05T08:30:19.000Z</time></trkpt><trkpt lon="5.7342" lat="51.364499"><ele>23</ele><time>2022-06-05T08:30:20.000Z</time></trkpt><trkpt lon="5.734299" lat="51.364476"><ele>23</ele><time>2022-06-05T08:30:21.000Z</time></trkpt><trkpt lon="5.734396" lat="51.364457"><ele>23</ele><time>2022-06-05T08:30:22.000Z</time></trkpt><trkpt lon="5.734493" lat="51.364434"><ele>23</ele><time>2022-06-05T08:30:23.000Z</time></trkpt><trkpt lon="5.73459" lat="51.364415"><ele>23</ele><time>2022-06-05T08:30:24.000Z</time></trkpt><trkpt lon="5.734682" lat="51.364397"><ele>23.2</ele><time>2022-06-05T08:30:25.000Z</time></trkpt><trkpt lon="5.734787" lat="51.364373"><ele>23</ele><time>2022-06-05T08:30:26.000Z</time></trkpt><trkpt lon="5.734883" lat="51.364354"><ele>23</ele><time>2022-06-05T08:30:27.000Z</time></trkpt><trkpt lon="5.734984" lat="51.364331"><ele>23</ele><time>2022-06-05T08:30:28.000Z</time></trkpt><trkpt lon="5.735086" lat="51.364312"><ele>23</ele><time>2022-06-05T08:30:29.000Z</time></trkpt><trkpt lon="5.735184" lat="51.364289"><ele>23</ele><time>2022-06-05T08:30:30.000Z</time></trkpt><trkpt lon="5.735287" lat="51.364266"><ele>23</ele><time>2022-06-05T08:30:31.000Z</time></trkpt><trkpt lon="5.73539" lat="51.364247"><ele>23</ele><time>2022-06-05T08:30:32.000Z</time></trkpt><trkpt lon="5.735492" lat="51.364224"><ele>23</ele><time>2022-06-05T08:30:33.000Z</time></trkpt><trkpt lon="5.735591" lat="51.364201"><ele>23</ele><time>2022-06-05T08:30:34.000Z</time></trkpt><trkpt lon="5.735676" lat="51.364181"><ele>23</ele><time>2022-06-05T08:30:35.000Z</time></trkpt><trkpt lon="5.735782" lat="51.364156"><ele>23</ele><time>2022-06-05T08:30:36.000Z</time></trkpt><trkpt lon="5.735886" lat="51.364129"><ele>23</ele><time>2022-06-05T08:30:37.000Z</time></trkpt><trkpt lon="5.73599" lat="51.36411"><ele>23</ele><time>2022-06-05T08:30:38.000Z</time></trkpt><trkpt lon="5.736094" lat="51.364091"><ele>23</ele><time>2022-06-05T08:30:39.000Z</time></trkpt><trkpt lon="5.736198" lat="51.364072"><ele>22.8</ele><time>2022-06-05T08:30:40.000Z</time></trkpt><trkpt lon="5.7363" lat="51.364057"><ele>22.6</ele><time>2022-06-05T08:30:41.000Z</time></trkpt><trkpt lon="5.736408" lat="51.364041"><ele>22.6</ele><time>2022-06-05T08:30:42.000Z</time></trkpt><trkpt lon="5.736511" lat="51.364026"><ele>22.4</ele><time>2022-06-05T08:30:43.000Z</time></trkpt><trkpt lon="5.736614" lat="51.364011"><ele>22.4</ele><time>2022-06-05T08:30:44.000Z</time></trkpt><trkpt lon="5.73672" lat="51.363995"><ele>22.6</ele><time>2022-06-05T08:30:45.000Z</time></trkpt><trkpt lon="5.736823" lat="51.36398"><ele>22.6</ele><time>2022-06-05T08:30:46.000Z</time></trkpt><trkpt lon="5.736928" lat="51.363968"><ele>22.6</ele><time>2022-06-05T08:30:47.000Z</time></trkpt><trkpt lon="5.73703" lat="51.363953"><ele>22.6</ele><time>2022-06-05T08:30:48.000Z</time></trkpt><trkpt lon="5.737134" lat="51.363938"><ele>22.6</ele><time>2022-06-05T08:30:49.000Z</time></trkpt><trkpt lon="5.737243" lat="51.363923"><ele>22.6</ele><time>2022-06-05T08:30:50.000Z</time></trkpt><trkpt lon="5.737349" lat="51.363908"><ele>22.6</ele><time>2022-06-05T08:30:51.000Z</time></trkpt><trkpt lon="5.737456" lat="51.363892"><ele>22.6</ele><time>2022-06-05T08:30:52.000Z</time></trkpt><trkpt lon="5.737561" lat="51.363877"><ele>22.6</ele><time>2022-06-05T08:30:53.000Z</time></trkpt><trkpt lon="5.737667" lat="51.363865"><ele>22.6</ele><time>2022-06-05T08:30:54.000Z</time></trkpt><trkpt lon="5.73777" lat="51.363846"><ele>22.6</ele><time>2022-06-05T08:30:55.000Z</time></trkpt><trkpt lon="5.737869" lat="51.363824"><ele>22.6</ele><time>2022-06-05T08:30:56.000Z</time></trkpt><trkpt lon="5.73797" lat="51.363797"><ele>22.6</ele><time>2022-06-05T08:30:57.000Z</time></trkpt><trkpt lon="5.738057" lat="51.363773"><ele>22.6</ele><time>2022-06-05T08:30:58.000Z</time></trkpt><trkpt lon="5.738167" lat="51.363744"><ele>22.6</ele><time>2022-06-05T08:30:59.000Z</time></trkpt><trkpt lon="5.738263" lat="51.363721"><ele>22.6</ele><time>2022-06-05T08:31:00.000Z</time></trkpt><trkpt lon="5.738363" lat="51.363695"><ele>22.6</ele><time>2022-06-05T08:31:01.000Z</time></trkpt><trkpt lon="5.738463" lat="51.363668"><ele>22.6</ele><time>2022-06-05T08:31:02.000Z</time></trkpt><trkpt lon="5.738563" lat="51.363641"><ele>22.6</ele><time>2022-06-05T08:31:03.000Z</time></trkpt><trkpt lon="5.738662" lat="51.363614"><ele>22.8</ele><time>2022-06-05T08:31:04.000Z</time></trkpt><trkpt lon="5.738762" lat="51.363584"><ele>22.8</ele><time>2022-06-05T08:31:05.000Z</time></trkpt><trkpt lon="5.738864" lat="51.363557"><ele>22.8</ele><time>2022-06-05T08:31:06.000Z</time></trkpt><trkpt lon="5.738965" lat="51.363526"><ele>22.8</ele><time>2022-06-05T08:31:07.000Z</time></trkpt><trkpt lon="5.739068" lat="51.3635"><ele>22.6</ele><time>2022-06-05T08:31:08.000Z</time></trkpt><trkpt lon="5.739168" lat="51.363474"><ele>22.6</ele><time>2022-06-05T08:31:09.000Z</time></trkpt><trkpt lon="5.739273" lat="51.363446"><ele>22.4</ele><time>2022-06-05T08:31:10.000Z</time></trkpt><trkpt lon="5.739379" lat="51.363423"><ele>22.4</ele><time>2022-06-05T08:31:11.000Z</time></trkpt><trkpt lon="5.739488" lat="51.363408"><ele>22.4</ele><time>2022-06-05T08:31:12.000Z</time></trkpt><trkpt lon="5.739599" lat="51.3634"><ele>22.4</ele><time>2022-06-05T08:31:13.000Z</time></trkpt><trkpt lon="5.739706" lat="51.363392"><ele>22.4</ele><time>2022-06-05T08:31:14.000Z</time></trkpt><trkpt lon="5.739814" lat="51.363396"><ele>22.4</ele><time>2022-06-05T08:31:15.000Z</time></trkpt><trkpt lon="5.739912" lat="51.363399"><ele>22.6</ele><time>2022-06-05T08:31:16.000Z</time></trkpt><trkpt lon="5.74002" lat="51.36341"><ele>22.6</ele><time>2022-06-05T08:31:17.000Z</time></trkpt><trkpt lon="5.740118" lat="51.363422"><ele>22.6</ele><time>2022-06-05T08:31:18.000Z</time></trkpt><trkpt lon="5.740211" lat="51.363437"><ele>22.6</ele><time>2022-06-05T08:31:19.000Z</time></trkpt><trkpt lon="5.740299" lat="51.363445"><ele>22.6</ele><time>2022-06-05T08:31:20.000Z</time></trkpt><trkpt lon="5.74038" lat="51.363442"><ele>22.6</ele><time>2022-06-05T08:31:21.000Z</time></trkpt><trkpt lon="5.74045" lat="51.363423"><ele>22.6</ele><time>2022-06-05T08:31:22.000Z</time></trkpt><trkpt lon="5.740501" lat="51.363379"><ele>22.4</ele><time>2022-06-05T08:31:23.000Z</time></trkpt><trkpt lon="5.740543" lat="51.363322"><ele>22.4</ele><time>2022-06-05T08:31:24.000Z</time></trkpt><trkpt lon="5.740577" lat="51.363257"><ele>22.4</ele><time>2022-06-05T08:31:25.000Z</time></trkpt><trkpt lon="5.740602" lat="51.363194"><ele>22.6</ele><time>2022-06-05T08:31:26.000Z</time></trkpt><trkpt lon="5.740626" lat="51.363117"><ele>22.6</ele><time>2022-06-05T08:31:27.000Z</time></trkpt><trkpt lon="5.740642" lat="51.363052"><ele>22.6</ele><time>2022-06-05T08:31:28.000Z</time></trkpt><trkpt lon="5.740659" lat="51.362972"><ele>22.6</ele><time>2022-06-05T08:31:29.000Z</time></trkpt><trkpt lon="5.740674" lat="51.362903"><ele>22.8</ele><time>2022-06-05T08:31:30.000Z</time></trkpt><trkpt lon="5.74069" lat="51.362826"><ele>22.8</ele><time>2022-06-05T08:31:31.000Z</time></trkpt><trkpt lon="5.740704" lat="51.36275"><ele>22.8</ele><time>2022-06-05T08:31:32.000Z</time></trkpt><trkpt lon="5.740718" lat="51.362682"><ele>22.8</ele><time>2022-06-05T08:31:33.000Z</time></trkpt><trkpt lon="5.740728" lat="51.362609"><ele>22.8</ele><time>2022-06-05T08:31:34.000Z</time></trkpt><trkpt lon="5.740736" lat="51.362541"><ele>22.8</ele><time>2022-06-05T08:31:35.000Z</time></trkpt><trkpt lon="5.740748" lat="51.362475"><ele>22.8</ele><time>2022-06-05T08:31:36.000Z</time></trkpt><trkpt lon="5.740761" lat="51.362406"><ele>22.8</ele><time>2022-06-05T08:31:37.000Z</time></trkpt><trkpt lon="5.740775" lat="51.362341"><ele>22.6</ele><time>2022-06-05T08:31:38.000Z</time></trkpt><trkpt lon="5.740785" lat="51.362277"><ele>22.4</ele><time>2022-06-05T08:31:39.000Z</time></trkpt><trkpt lon="5.740796" lat="51.362208"><ele>22.4</ele><time>2022-06-05T08:31:40.000Z</time></trkpt><trkpt lon="5.740808" lat="51.36214"><ele>22.4</ele><time>2022-06-05T08:31:41.000Z</time></trkpt><trkpt lon="5.74082" lat="51.36207"><ele>22.4</ele><time>2022-06-05T08:31:42.000Z</time></trkpt><trkpt lon="5.740826" lat="51.362002"><ele>22.4</ele><time>2022-06-05T08:31:43.000Z</time></trkpt><trkpt lon="5.740838" lat="51.36193"><ele>22.2</ele><time>2022-06-05T08:31:44.000Z</time></trkpt><trkpt lon="5.740848" lat="51.361861"><ele>22.2</ele><time>2022-06-05T08:31:45.000Z</time></trkpt><trkpt lon="5.740859" lat="51.361793"><ele>22.2</ele><time>2022-06-05T08:31:46.000Z</time></trkpt><trkpt lon="5.740876" lat="51.361724"><ele>22.4</ele><time>2022-06-05T08:31:47.000Z</time></trkpt><trkpt lon="5.740891" lat="51.36166"><ele>22.4</ele><time>2022-06-05T08:31:48.000Z</time></trkpt><trkpt lon="5.740906" lat="51.361587"><ele>22.4</ele><time>2022-06-05T08:31:49.000Z</time></trkpt><trkpt lon="5.74092" lat="51.361517"><ele>22.6</ele><time>2022-06-05T08:31:50.000Z</time></trkpt><trkpt lon="5.740934" lat="51.361449"><ele>22.6</ele><time>2022-06-05T08:31:51.000Z</time></trkpt><trkpt lon="5.740944" lat="51.361392"><ele>22.6</ele><time>2022-06-05T08:31:52.000Z</time></trkpt><trkpt lon="5.740958" lat="51.361323"><ele>22.6</ele><time>2022-06-05T08:31:53.000Z</time></trkpt><trkpt lon="5.740973" lat="51.36125"><ele>22.6</ele><time>2022-06-05T08:31:54.000Z</time></trkpt><trkpt lon="5.740987" lat="51.361177"><ele>22.4</ele><time>2022-06-05T08:31:55.000Z</time></trkpt><trkpt lon="5.741" lat="51.361106"><ele>22.4</ele><time>2022-06-05T08:31:56.000Z</time></trkpt><trkpt lon="5.741013" lat="51.361037"><ele>22.2</ele><time>2022-06-05T08:31:57.000Z</time></trkpt><trkpt lon="5.741027" lat="51.360967"><ele>22.2</ele><time>2022-06-05T08:31:58.000Z</time></trkpt><trkpt lon="5.741043" lat="51.360896"><ele>22.2</ele><time>2022-06-05T08:31:59.000Z</time></trkpt><trkpt lon="5.741056" lat="51.360827"><ele>22</ele><time>2022-06-05T08:32:00.000Z</time></trkpt><trkpt lon="5.741068" lat="51.360754"><ele>22</ele><time>2022-06-05T08:32:01.000Z</time></trkpt><trkpt lon="5.741079" lat="51.360686"><ele>22</ele><time>2022-06-05T08:32:02.000Z</time></trkpt><trkpt lon="5.741091" lat="51.360618"><ele>22</ele><time>2022-06-05T08:32:03.000Z</time></trkpt><trkpt lon="5.741106" lat="51.360546"><ele>22</ele><time>2022-06-05T08:32:04.000Z</time></trkpt><trkpt lon="5.741119" lat="51.360478"><ele>22.2</ele><time>2022-06-05T08:32:05.000Z</time></trkpt><trkpt lon="5.741134" lat="51.360405"><ele>22.2</ele><time>2022-06-05T08:32:06.000Z</time></trkpt><trkpt lon="5.741149" lat="51.360335"><ele>22.2</ele><time>2022-06-05T08:32:07.000Z</time></trkpt><trkpt lon="5.741164" lat="51.360267"><ele>22.4</ele><time>2022-06-05T08:32:08.000Z</time></trkpt><trkpt lon="5.741185" lat="51.360189"><ele>22.4</ele><time>2022-06-05T08:32:09.000Z</time></trkpt><trkpt lon="5.741199" lat="51.360118"><ele>22.4</ele><time>2022-06-05T08:32:10.000Z</time></trkpt><trkpt lon="5.741213" lat="51.360045"><ele>22.6</ele><time>2022-06-05T08:32:11.000Z</time></trkpt><trkpt lon="5.741223" lat="51.35997"><ele>22.6</ele><time>2022-06-05T08:32:12.000Z</time></trkpt><trkpt lon="5.741239" lat="51.359893"><ele>22.6</ele><time>2022-06-05T08:32:13.000Z</time></trkpt><trkpt lon="5.741256" lat="51.35982"><ele>22.6</ele><time>2022-06-05T08:32:14.000Z</time></trkpt><trkpt lon="5.74127" lat="51.359748"><ele>22.6</ele><time>2022-06-05T08:32:15.000Z</time></trkpt><trkpt lon="5.741282" lat="51.359678"><ele>22.6</ele><time>2022-06-05T08:32:16.000Z</time></trkpt><trkpt lon="5.741293" lat="51.359612"><ele>22.4</ele><time>2022-06-05T08:32:17.000Z</time></trkpt><trkpt lon="5.741304" lat="51.35954"><ele>22.4</ele><time>2022-06-05T08:32:18.000Z</time></trkpt><trkpt lon="5.74132" lat="51.359458"><ele>22.4</ele><time>2022-06-05T08:32:19.000Z</time></trkpt><trkpt lon="5.741331" lat="51.359385"><ele>22.4</ele><time>2022-06-05T08:32:20.000Z</time></trkpt><trkpt lon="5.74134" lat="51.359313"><ele>22.4</ele><time>2022-06-05T08:32:21.000Z</time></trkpt><trkpt lon="5.741351" lat="51.35924"><ele>22.4</ele><time>2022-06-05T08:32:22.000Z</time></trkpt><trkpt lon="5.741364" lat="51.359172"><ele>22.4</ele><time>2022-06-05T08:32:23.000Z</time></trkpt><trkpt lon="5.741375" lat="51.359098"><ele>22.2</ele><time>2022-06-05T08:32:24.000Z</time></trkpt><trkpt lon="5.741388" lat="51.35903"><ele>22</ele><time>2022-06-05T08:32:25.000Z</time></trkpt><trkpt lon="5.741405" lat="51.358961"><ele>22</ele><time>2022-06-05T08:32:26.000Z</time></trkpt><trkpt lon="5.741416" lat="51.358892"><ele>22</ele><time>2022-06-05T08:32:27.000Z</time></trkpt><trkpt lon="5.741429" lat="51.35882"><ele>22</ele><time>2022-06-05T08:32:28.000Z</time></trkpt><trkpt lon="5.741441" lat="51.358752"><ele>21.8</ele><time>2022-06-05T08:32:29.000Z</time></trkpt><trkpt lon="5.741451" lat="51.358683"><ele>21.8</ele><time>2022-06-05T08:32:30.000Z</time></trkpt><trkpt lon="5.741463" lat="51.358615"><ele>21.8</ele><time>2022-06-05T08:32:31.000Z</time></trkpt><trkpt lon="5.741475" lat="51.358545"><ele>21.8</ele><time>2022-06-05T08:32:32.000Z</time></trkpt><trkpt lon="5.741488" lat="51.358473"><ele>21.6</ele><time>2022-06-05T08:32:33.000Z</time></trkpt><trkpt lon="5.741501" lat="51.358405"><ele>21.6</ele><time>2022-06-05T08:32:34.000Z</time></trkpt><trkpt lon="5.741514" lat="51.358334"><ele>21.6</ele><time>2022-06-05T08:32:35.000Z</time></trkpt><trkpt lon="5.741525" lat="51.358264"><ele>21.4</ele><time>2022-06-05T08:32:36.000Z</time></trkpt><trkpt lon="5.741536" lat="51.358195"><ele>21.2</ele><time>2022-06-05T08:32:37.000Z</time></trkpt><trkpt lon="5.741546" lat="51.358124"><ele>21.4</ele><time>2022-06-05T08:32:38.000Z</time></trkpt><trkpt lon="5.741561" lat="51.358055"><ele>21.2</ele><time>2022-06-05T08:32:39.000Z</time></trkpt><trkpt lon="5.74157" lat="51.357981"><ele>21.2</ele><time>2022-06-05T08:32:40.000Z</time></trkpt><trkpt lon="5.741578" lat="51.357912"><ele>21.2</ele><time>2022-06-05T08:32:41.000Z</time></trkpt><trkpt lon="5.741588" lat="51.35784"><ele>21.4</ele><time>2022-06-05T08:32:42.000Z</time></trkpt><trkpt lon="5.741596" lat="51.357767"><ele>21.4</ele><time>2022-06-05T08:32:43.000Z</time></trkpt><trkpt lon="5.741606" lat="51.357699"><ele>21.2</ele><time>2022-06-05T08:32:44.000Z</time></trkpt><trkpt lon="5.741616" lat="51.357626"><ele>21.2</ele><time>2022-06-05T08:32:45.000Z</time></trkpt><trkpt lon="5.741629" lat="51.35756"><ele>21</ele><time>2022-06-05T08:32:46.000Z</time></trkpt><trkpt lon="5.741641" lat="51.357488"><ele>20.8</ele><time>2022-06-05T08:32:47.000Z</time></trkpt><trkpt lon="5.741653" lat="51.357416"><ele>20.8</ele><time>2022-06-05T08:32:48.000Z</time></trkpt><trkpt lon="5.741659" lat="51.357351"><ele>20.8</ele><time>2022-06-05T08:32:49.000Z</time></trkpt><trkpt lon="5.741667" lat="51.357275"><ele>21</ele><time>2022-06-05T08:32:50.000Z</time></trkpt><trkpt lon="5.741675" lat="51.357203"><ele>21.2</ele><time>2022-06-05T08:32:51.000Z</time></trkpt><trkpt lon="5.741683" lat="51.357147"><ele>21.4</ele><time>2022-06-05T08:32:52.000Z</time></trkpt><trkpt lon="5.741696" lat="51.357067"><ele>21.4</ele><time>2022-06-05T08:32:53.000Z</time></trkpt><trkpt lon="5.741707" lat="51.356997"><ele>21.2</ele><time>2022-06-05T08:32:54.000Z</time></trkpt><trkpt lon="5.741713" lat="51.356921"><ele>21.4</ele><time>2022-06-05T08:32:55.000Z</time></trkpt><trkpt lon="5.741723" lat="51.35685"><ele>21.4</ele><time>2022-06-05T08:32:56.000Z</time></trkpt><trkpt lon="5.741731" lat="51.356772"><ele>21.4</ele><time>2022-06-05T08:32:57.000Z</time></trkpt><trkpt lon="5.741744" lat="51.356702"><ele>21.4</ele><time>2022-06-05T08:32:58.000Z</time></trkpt><trkpt lon="5.741758" lat="51.356627"><ele>21.4</ele><time>2022-06-05T08:32:59.000Z</time></trkpt><trkpt lon="5.741771" lat="51.356551"><ele>21.4</ele><time>2022-06-05T08:33:00.000Z</time></trkpt><trkpt lon="5.741782" lat="51.35648"><ele>21.4</ele><time>2022-06-05T08:33:01.000Z</time></trkpt><trkpt lon="5.741799" lat="51.356406"><ele>21.4</ele><time>2022-06-05T08:33:02.000Z</time></trkpt><trkpt lon="5.741814" lat="51.356338"><ele>21.4</ele><time>2022-06-05T08:33:03.000Z</time></trkpt><trkpt lon="5.741828" lat="51.356265"><ele>21.4</ele><time>2022-06-05T08:33:04.000Z</time></trkpt><trkpt lon="5.741841" lat="51.356193"><ele>21.4</ele><time>2022-06-05T08:33:05.000Z</time></trkpt><trkpt lon="5.741858" lat="51.35612"><ele>21.4</ele><time>2022-06-05T08:33:06.000Z</time></trkpt><trkpt lon="5.741874" lat="51.356048"><ele>21.2</ele><time>2022-06-05T08:33:07.000Z</time></trkpt><trkpt lon="5.741891" lat="51.355977"><ele>21</ele><time>2022-06-05T08:33:08.000Z</time></trkpt><trkpt lon="5.741911" lat="51.355902"><ele>21</ele><time>2022-06-05T08:33:09.000Z</time></trkpt><trkpt lon="5.741926" lat="51.355833"><ele>20.6</ele><time>2022-06-05T08:33:10.000Z</time></trkpt><trkpt lon="5.741934" lat="51.355762"><ele>20.6</ele><time>2022-06-05T08:33:11.000Z</time></trkpt><trkpt lon="5.741937" lat="51.355693"><ele>20.8</ele><time>2022-06-05T08:33:12.000Z</time></trkpt><trkpt lon="5.74193" lat="51.355622"><ele>21</ele><time>2022-06-05T08:33:13.000Z</time></trkpt><trkpt lon="5.74192" lat="51.355551"><ele>21</ele><time>2022-06-05T08:33:14.000Z</time></trkpt><trkpt lon="5.741891" lat="51.355482"><ele>21</ele><time>2022-06-05T08:33:15.000Z</time></trkpt><trkpt lon="5.74186" lat="51.355412"><ele>21</ele><time>2022-06-05T08:33:16.000Z</time></trkpt><trkpt lon="5.74184" lat="51.355337"><ele>21.2</ele><time>2022-06-05T08:33:17.000Z</time></trkpt><trkpt lon="5.741834" lat="51.355267"><ele>21.2</ele><time>2022-06-05T08:33:18.000Z</time></trkpt><trkpt lon="5.741838" lat="51.355192"><ele>21.2</ele><time>2022-06-05T08:33:19.000Z</time></trkpt><trkpt lon="5.741851" lat="51.355113"><ele>21.2</ele><time>2022-06-05T08:33:20.000Z</time></trkpt><trkpt lon="5.741866" lat="51.355039"><ele>21.2</ele><time>2022-06-05T08:33:21.000Z</time></trkpt><trkpt lon="5.741885" lat="51.354967"><ele>21.2</ele><time>2022-06-05T08:33:22.000Z</time></trkpt><trkpt lon="5.741896" lat="51.354897"><ele>21.2</ele><time>2022-06-05T08:33:23.000Z</time></trkpt><trkpt lon="5.741909" lat="51.354825"><ele>21.2</ele><time>2022-06-05T08:33:24.000Z</time></trkpt><trkpt lon="5.741927" lat="51.354755"><ele>21.2</ele><time>2022-06-05T08:33:25.000Z</time></trkpt><trkpt lon="5.741944" lat="51.354683"><ele>21</ele><time>2022-06-05T08:33:26.000Z</time></trkpt><trkpt lon="5.741959" lat="51.35461"><ele>21</ele><time>2022-06-05T08:33:27.000Z</time></trkpt><trkpt lon="5.741977" lat="51.354543"><ele>21.2</ele><time>2022-06-05T08:33:28.000Z</time></trkpt><trkpt lon="5.741994" lat="51.35447"><ele>21.2</ele><time>2022-06-05T08:33:29.000Z</time></trkpt><trkpt lon="5.74201" lat="51.354399"><ele>21.4</ele><time>2022-06-05T08:33:30.000Z</time></trkpt><trkpt lon="5.742026" lat="51.354327"><ele>21.6</ele><time>2022-06-05T08:33:31.000Z</time></trkpt><trkpt lon="5.742044" lat="51.354259"><ele>21.6</ele><time>2022-06-05T08:33:32.000Z</time></trkpt><trkpt lon="5.742064" lat="51.35419"><ele>21.6</ele><time>2022-06-05T08:33:33.000Z</time></trkpt><trkpt lon="5.742086" lat="51.354118"><ele>21.6</ele><time>2022-06-05T08:33:34.000Z</time></trkpt><trkpt lon="5.742109" lat="51.354049"><ele>21.6</ele><time>2022-06-05T08:33:35.000Z</time></trkpt><trkpt lon="5.742134" lat="51.353976"><ele>21.6</ele><time>2022-06-05T08:33:36.000Z</time></trkpt><trkpt lon="5.742161" lat="51.353913"><ele>21.6</ele><time>2022-06-05T08:33:37.000Z</time></trkpt><trkpt lon="5.742188" lat="51.353843"><ele>21.6</ele><time>2022-06-05T08:33:38.000Z</time></trkpt><trkpt lon="5.742216" lat="51.353774"><ele>21.6</ele><time>2022-06-05T08:33:39.000Z</time></trkpt><trkpt lon="5.742244" lat="51.353702"><ele>21.6</ele><time>2022-06-05T08:33:40.000Z</time></trkpt><trkpt lon="5.742266" lat="51.353632"><ele>21.8</ele><time>2022-06-05T08:33:41.000Z</time></trkpt><trkpt lon="5.742289" lat="51.353562"><ele>21.8</ele><time>2022-06-05T08:33:42.000Z</time></trkpt><trkpt lon="5.742308" lat="51.353488"><ele>21.8</ele><time>2022-06-05T08:33:43.000Z</time></trkpt><trkpt lon="5.742323" lat="51.353415"><ele>21.6</ele><time>2022-06-05T08:33:44.000Z</time></trkpt><trkpt lon="5.742334" lat="51.353345"><ele>21.2</ele><time>2022-06-05T08:33:45.000Z</time></trkpt><trkpt lon="5.742346" lat="51.353273"><ele>21.2</ele><time>2022-06-05T08:33:46.000Z</time></trkpt><trkpt lon="5.742358" lat="51.353198"><ele>21.2</ele><time>2022-06-05T08:33:47.000Z</time></trkpt><trkpt lon="5.742371" lat="51.353129"><ele>21</ele><time>2022-06-05T08:33:48.000Z</time></trkpt><trkpt lon="5.742381" lat="51.353059"><ele>21</ele><time>2022-06-05T08:33:49.000Z</time></trkpt><trkpt lon="5.742391" lat="51.352988"><ele>20.8</ele><time>2022-06-05T08:33:50.000Z</time></trkpt><trkpt lon="5.7424" lat="51.352915"><ele>20.8</ele><time>2022-06-05T08:33:51.000Z</time></trkpt><trkpt lon="5.742408" lat="51.352846"><ele>20.8</ele><time>2022-06-05T08:33:52.000Z</time></trkpt><trkpt lon="5.742415" lat="51.352776"><ele>20.8</ele><time>2022-06-05T08:33:53.000Z</time></trkpt><trkpt lon="5.742418" lat="51.352705"><ele>20.8</ele><time>2022-06-05T08:33:54.000Z</time></trkpt><trkpt lon="5.742414" lat="51.352637"><ele>21</ele><time>2022-06-05T08:33:55.000Z</time></trkpt><trkpt lon="5.742401" lat="51.352565"><ele>21.2</ele><time>2022-06-05T08:33:56.000Z</time></trkpt><trkpt lon="5.742381" lat="51.352497"><ele>21.4</ele><time>2022-06-05T08:33:57.000Z</time></trkpt><trkpt lon="5.742358" lat="51.352428"><ele>21.4</ele><time>2022-06-05T08:33:58.000Z</time></trkpt><trkpt lon="5.742338" lat="51.352363"><ele>21.6</ele><time>2022-06-05T08:33:59.000Z</time></trkpt><trkpt lon="5.742321" lat="51.352301"><ele>21.8</ele><time>2022-06-05T08:34:00.000Z</time></trkpt><trkpt lon="5.742306" lat="51.352246"><ele>22</ele><time>2022-06-05T08:34:01.000Z</time></trkpt><trkpt lon="5.742294" lat="51.35219"><ele>22.2</ele><time>2022-06-05T08:34:02.000Z</time></trkpt><trkpt lon="5.742282" lat="51.35214"><ele>22.4</ele><time>2022-06-05T08:34:03.000Z</time></trkpt><trkpt lon="5.74227" lat="51.352087"><ele>22.6</ele><time>2022-06-05T08:34:04.000Z</time></trkpt><trkpt lon="5.742258" lat="51.352041"><ele>22.6</ele><time>2022-06-05T08:34:05.000Z</time></trkpt><trkpt lon="5.742249" lat="51.35199"><ele>22.8</ele><time>2022-06-05T08:34:06.000Z</time></trkpt><trkpt lon="5.742247" lat="51.351937"><ele>22.8</ele><time>2022-06-05T08:34:07.000Z</time></trkpt><trkpt lon="5.742253" lat="51.351878"><ele>23</ele><time>2022-06-05T08:34:08.000Z</time></trkpt><trkpt lon="5.742263" lat="51.351817"><ele>23</ele><time>2022-06-05T08:34:09.000Z</time></trkpt><trkpt lon="5.742279" lat="51.351754"><ele>23</ele><time>2022-06-05T08:34:10.000Z</time></trkpt><trkpt lon="5.7423" lat="51.351688"><ele>23</ele><time>2022-06-05T08:34:11.000Z</time></trkpt><trkpt lon="5.742325" lat="51.35162"><ele>22.6</ele><time>2022-06-05T08:34:12.000Z</time></trkpt><trkpt lon="5.742352" lat="51.351552"><ele>22.4</ele><time>2022-06-05T08:34:13.000Z</time></trkpt><trkpt lon="5.74238" lat="51.351481"><ele>22.2</ele><time>2022-06-05T08:34:14.000Z</time></trkpt><trkpt lon="5.74241" lat="51.351416"><ele>22</ele><time>2022-06-05T08:34:15.000Z</time></trkpt><trkpt lon="5.742439" lat="51.351349"><ele>22</ele><time>2022-06-05T08:34:16.000Z</time></trkpt><trkpt lon="5.742463" lat="51.351285"><ele>22.2</ele><time>2022-06-05T08:34:17.000Z</time></trkpt><trkpt lon="5.742489" lat="51.351217"><ele>22.2</ele><time>2022-06-05T08:34:18.000Z</time></trkpt><trkpt lon="5.742516" lat="51.351149"><ele>22.2</ele><time>2022-06-05T08:34:19.000Z</time></trkpt><trkpt lon="5.742539" lat="51.351085"><ele>22.2</ele><time>2022-06-05T08:34:20.000Z</time></trkpt><trkpt lon="5.742562" lat="51.351019"><ele>22.2</ele><time>2022-06-05T08:34:21.000Z</time></trkpt><trkpt lon="5.742585" lat="51.35095"><ele>22.2</ele><time>2022-06-05T08:34:22.000Z</time></trkpt><trkpt lon="5.742603" lat="51.350886"><ele>22.2</ele><time>2022-06-05T08:34:23.000Z</time></trkpt><trkpt lon="5.742619" lat="51.350822"><ele>22.2</ele><time>2022-06-05T08:34:24.000Z</time></trkpt><trkpt lon="5.742636" lat="51.350753"><ele>22.4</ele><time>2022-06-05T08:34:25.000Z</time></trkpt><trkpt lon="5.742653" lat="51.350687"><ele>22.6</ele><time>2022-06-05T08:34:26.000Z</time></trkpt><trkpt lon="5.742667" lat="51.35062"><ele>22.8</ele><time>2022-06-05T08:34:27.000Z</time></trkpt><trkpt lon="5.742679" lat="51.350555"><ele>23</ele><time>2022-06-05T08:34:28.000Z</time></trkpt><trkpt lon="5.742694" lat="51.35049"><ele>23</ele><time>2022-06-05T08:34:29.000Z</time></trkpt><trkpt lon="5.742706" lat="51.350421"><ele>22.8</ele><time>2022-06-05T08:34:30.000Z</time></trkpt><trkpt lon="5.74272" lat="51.350352"><ele>22.8</ele><time>2022-06-05T08:34:31.000Z</time></trkpt><trkpt lon="5.742734" lat="51.350288"><ele>22.8</ele><time>2022-06-05T08:34:32.000Z</time></trkpt><trkpt lon="5.742748" lat="51.350218"><ele>22.8</ele><time>2022-06-05T08:34:33.000Z</time></trkpt><trkpt lon="5.742761" lat="51.350151"><ele>22.8</ele><time>2022-06-05T08:34:34.000Z</time></trkpt><trkpt lon="5.742776" lat="51.350084"><ele>22.6</ele><time>2022-06-05T08:34:35.000Z</time></trkpt><trkpt lon="5.742785" lat="51.350017"><ele>22.6</ele><time>2022-06-05T08:34:36.000Z</time></trkpt><trkpt lon="5.742794" lat="51.349953"><ele>22.6</ele><time>2022-06-05T08:34:37.000Z</time></trkpt><trkpt lon="5.742806" lat="51.349883"><ele>22.6</ele><time>2022-06-05T08:34:38.000Z</time></trkpt><trkpt lon="5.742816" lat="51.349814"><ele>22.4</ele><time>2022-06-05T08:34:39.000Z</time></trkpt><trkpt lon="5.742826" lat="51.34975"><ele>22.4</ele><time>2022-06-05T08:34:40.000Z</time></trkpt><trkpt lon="5.742839" lat="51.349681"><ele>22.2</ele><time>2022-06-05T08:34:41.000Z</time></trkpt><trkpt lon="5.742853" lat="51.349612"><ele>22.2</ele><time>2022-06-05T08:34:42.000Z</time></trkpt><trkpt lon="5.742864" lat="51.349545"><ele>22.4</ele><time>2022-06-05T08:34:43.000Z</time></trkpt><trkpt lon="5.742875" lat="51.349475"><ele>22.4</ele><time>2022-06-05T08:34:44.000Z</time></trkpt><trkpt lon="5.742885" lat="51.349407"><ele>22.6</ele><time>2022-06-05T08:34:45.000Z</time></trkpt><trkpt lon="5.742896" lat="51.349343"><ele>22.4</ele><time>2022-06-05T08:34:46.000Z</time></trkpt><trkpt lon="5.742909" lat="51.349269"><ele>22.4</ele><time>2022-06-05T08:34:47.000Z</time></trkpt><trkpt lon="5.742921" lat="51.3492"><ele>22.4</ele><time>2022-06-05T08:34:48.000Z</time></trkpt><trkpt lon="5.742934" lat="51.349132"><ele>22.4</ele><time>2022-06-05T08:34:49.000Z</time></trkpt><trkpt lon="5.742948" lat="51.349067"><ele>22.6</ele><time>2022-06-05T08:34:50.000Z</time></trkpt><trkpt lon="5.742958" lat="51.349001"><ele>22.6</ele><time>2022-06-05T08:34:51.000Z</time></trkpt><trkpt lon="5.74297" lat="51.348932"><ele>22.4</ele><time>2022-06-05T08:34:52.000Z</time></trkpt><trkpt lon="5.742981" lat="51.348865"><ele>22.4</ele><time>2022-06-05T08:34:53.000Z</time></trkpt><trkpt lon="5.742993" lat="51.3488"><ele>22.4</ele><time>2022-06-05T08:34:54.000Z</time></trkpt><trkpt lon="5.743004" lat="51.348743"><ele>22.4</ele><time>2022-06-05T08:34:55.000Z</time></trkpt><trkpt lon="5.743016" lat="51.348679"><ele>22.4</ele><time>2022-06-05T08:34:56.000Z</time></trkpt><trkpt lon="5.743028" lat="51.348612"><ele>22.2</ele><time>2022-06-05T08:34:57.000Z</time></trkpt><trkpt lon="5.743037" lat="51.34855"><ele>22.2</ele><time>2022-06-05T08:34:58.000Z</time></trkpt><trkpt lon="5.743045" lat="51.348491"><ele>22.2</ele><time>2022-06-05T08:34:59.000Z</time></trkpt><trkpt lon="5.743056" lat="51.348419"><ele>22.2</ele><time>2022-06-05T08:35:00.000Z</time></trkpt><trkpt lon="5.743064" lat="51.348354"><ele>22.2</ele><time>2022-06-05T08:35:01.000Z</time></trkpt><trkpt lon="5.743071" lat="51.348297"><ele>22.4</ele><time>2022-06-05T08:35:02.000Z</time></trkpt><trkpt lon="5.743075" lat="51.348226"><ele>22.4</ele><time>2022-06-05T08:35:03.000Z</time></trkpt><trkpt lon="5.74308" lat="51.348162"><ele>22.4</ele><time>2022-06-05T08:35:04.000Z</time></trkpt><trkpt lon="5.743083" lat="51.348095"><ele>22.6</ele><time>2022-06-05T08:35:05.000Z</time></trkpt><trkpt lon="5.743087" lat="51.348028"><ele>22.8</ele><time>2022-06-05T08:35:06.000Z</time></trkpt><trkpt lon="5.743091" lat="51.347953"><ele>22.8</ele><time>2022-06-05T08:35:07.000Z</time></trkpt><trkpt lon="5.74309" lat="51.347883"><ele>22.8</ele><time>2022-06-05T08:35:08.000Z</time></trkpt><trkpt lon="5.743093" lat="51.347814"><ele>22.8</ele><time>2022-06-05T08:35:09.000Z</time></trkpt><trkpt lon="5.743103" lat="51.347739"><ele>22.8</ele><time>2022-06-05T08:35:10.000Z</time></trkpt><trkpt lon="5.743119" lat="51.347669"><ele>23</ele><time>2022-06-05T08:35:11.000Z</time></trkpt><trkpt lon="5.743136" lat="51.347598"><ele>23</ele><time>2022-06-05T08:35:12.000Z</time></trkpt><trkpt lon="5.743149" lat="51.347531"><ele>22.8</ele><time>2022-06-05T08:35:13.000Z</time></trkpt><trkpt lon="5.743162" lat="51.347462"><ele>22.8</ele><time>2022-06-05T08:35:14.000Z</time></trkpt><trkpt lon="5.743168" lat="51.347388"><ele>22.8</ele><time>2022-06-05T08:35:15.000Z</time></trkpt><trkpt lon="5.743179" lat="51.347319"><ele>22.8</ele><time>2022-06-05T08:35:16.000Z</time></trkpt><trkpt lon="5.743195" lat="51.347247"><ele>22.8</ele><time>2022-06-05T08:35:17.000Z</time></trkpt><trkpt lon="5.743209" lat="51.347177"><ele>22.8</ele><time>2022-06-05T08:35:18.000Z</time></trkpt><trkpt lon="5.743221" lat="51.347107"><ele>22.8</ele><time>2022-06-05T08:35:19.000Z</time></trkpt><trkpt lon="5.743235" lat="51.347037"><ele>22.8</ele><time>2022-06-05T08:35:20.000Z</time></trkpt><trkpt lon="5.743248" lat="51.346968"><ele>22.6</ele><time>2022-06-05T08:35:21.000Z</time></trkpt><trkpt lon="5.743258" lat="51.3469"><ele>22.6</ele><time>2022-06-05T08:35:22.000Z</time></trkpt><trkpt lon="5.743271" lat="51.346832"><ele>22.6</ele><time>2022-06-05T08:35:23.000Z</time></trkpt><trkpt lon="5.743284" lat="51.346764"><ele>22.4</ele><time>2022-06-05T08:35:24.000Z</time></trkpt><trkpt lon="5.743295" lat="51.346686"><ele>22.6</ele><time>2022-06-05T08:35:25.000Z</time></trkpt><trkpt lon="5.743303" lat="51.346618"><ele>22.4</ele><time>2022-06-05T08:35:26.000Z</time></trkpt><trkpt lon="5.743316" lat="51.346543"><ele>22.4</ele><time>2022-06-05T08:35:27.000Z</time></trkpt><trkpt lon="5.743332" lat="51.346476"><ele>22.4</ele><time>2022-06-05T08:35:28.000Z</time></trkpt><trkpt lon="5.743349" lat="51.346401"><ele>22.4</ele><time>2022-06-05T08:35:29.000Z</time></trkpt><trkpt lon="5.743365" lat="51.346332"><ele>22.4</ele><time>2022-06-05T08:35:30.000Z</time></trkpt><trkpt lon="5.743379" lat="51.346256"><ele>22.4</ele><time>2022-06-05T08:35:31.000Z</time></trkpt><trkpt lon="5.743393" lat="51.346186"><ele>22.2</ele><time>2022-06-05T08:35:32.000Z</time></trkpt><trkpt lon="5.743408" lat="51.346118"><ele>22.2</ele><time>2022-06-05T08:35:33.000Z</time></trkpt><trkpt lon="5.74342" lat="51.346049"><ele>22.2</ele><time>2022-06-05T08:35:34.000Z</time></trkpt><trkpt lon="5.743433" lat="51.345978"><ele>22.2</ele><time>2022-06-05T08:35:35.000Z</time></trkpt><trkpt lon="5.743444" lat="51.345909"><ele>22.2</ele><time>2022-06-05T08:35:36.000Z</time></trkpt><trkpt lon="5.743455" lat="51.345835"><ele>22.4</ele><time>2022-06-05T08:35:37.000Z</time></trkpt><trkpt lon="5.743468" lat="51.345763"><ele>22.2</ele><time>2022-06-05T08:35:38.000Z</time></trkpt><trkpt lon="5.743482" lat="51.345697"><ele>22.2</ele><time>2022-06-05T08:35:39.000Z</time></trkpt><trkpt lon="5.743498" lat="51.345623"><ele>22.4</ele><time>2022-06-05T08:35:40.000Z</time></trkpt><trkpt lon="5.743511" lat="51.345549"><ele>22.4</ele><time>2022-06-05T08:35:41.000Z</time></trkpt><trkpt lon="5.743525" lat="51.345477"><ele>22.4</ele><time>2022-06-05T08:35:42.000Z</time></trkpt><trkpt lon="5.743537" lat="51.345407"><ele>22.4</ele><time>2022-06-05T08:35:43.000Z</time></trkpt><trkpt lon="5.743555" lat="51.345335"><ele>22.4</ele><time>2022-06-05T08:35:44.000Z</time></trkpt><trkpt lon="5.743566" lat="51.345266"><ele>22.4</ele><time>2022-06-05T08:35:45.000Z</time></trkpt><trkpt lon="5.743578" lat="51.345193"><ele>22.2</ele><time>2022-06-05T08:35:46.000Z</time></trkpt><trkpt lon="5.743586" lat="51.345119"><ele>22.4</ele><time>2022-06-05T08:35:47.000Z</time></trkpt><trkpt lon="5.743599" lat="51.345045"><ele>22.4</ele><time>2022-06-05T08:35:48.000Z</time></trkpt><trkpt lon="5.743611" lat="51.344974"><ele>22.6</ele><time>2022-06-05T08:35:49.000Z</time></trkpt><trkpt lon="5.743625" lat="51.344904"><ele>22.4</ele><time>2022-06-05T08:35:50.000Z</time></trkpt><trkpt lon="5.743638" lat="51.344836"><ele>22.4</ele><time>2022-06-05T08:35:51.000Z</time></trkpt><trkpt lon="5.743653" lat="51.344764"><ele>22.4</ele><time>2022-06-05T08:35:52.000Z</time></trkpt><trkpt lon="5.743668" lat="51.344695"><ele>22.4</ele><time>2022-06-05T08:35:53.000Z</time></trkpt><trkpt lon="5.743677" lat="51.344638"><ele>22.6</ele><time>2022-06-05T08:35:54.000Z</time></trkpt><trkpt lon="5.743696" lat="51.344555"><ele>22.4</ele><time>2022-06-05T08:35:55.000Z</time></trkpt><trkpt lon="5.743711" lat="51.344482"><ele>22.6</ele><time>2022-06-05T08:35:56.000Z</time></trkpt><trkpt lon="5.743723" lat="51.344413"><ele>22.6</ele><time>2022-06-05T08:35:57.000Z</time></trkpt><trkpt lon="5.743734" lat="51.344344"><ele>22.6</ele><time>2022-06-05T08:35:58.000Z</time></trkpt><trkpt lon="5.743748" lat="51.344276"><ele>22.6</ele><time>2022-06-05T08:35:59.000Z</time></trkpt><trkpt lon="5.743758" lat="51.344203"><ele>22.6</ele><time>2022-06-05T08:36:00.000Z</time></trkpt><trkpt lon="5.743768" lat="51.344134"><ele>22.6</ele><time>2022-06-05T08:36:01.000Z</time></trkpt><trkpt lon="5.743781" lat="51.34407"><ele>22.8</ele><time>2022-06-05T08:36:02.000Z</time></trkpt><trkpt lon="5.743793" lat="51.344004"><ele>22.8</ele><time>2022-06-05T08:36:03.000Z</time></trkpt><trkpt lon="5.743804" lat="51.34394"><ele>22.8</ele><time>2022-06-05T08:36:04.000Z</time></trkpt><trkpt lon="5.743815" lat="51.343871"><ele>22.8</ele><time>2022-06-05T08:36:05.000Z</time></trkpt><trkpt lon="5.743825" lat="51.343799"><ele>22.6</ele><time>2022-06-05T08:36:06.000Z</time></trkpt><trkpt lon="5.743838" lat="51.343729"><ele>22.6</ele><time>2022-06-05T08:36:07.000Z</time></trkpt><trkpt lon="5.743855" lat="51.34366"><ele>22.6</ele><time>2022-06-05T08:36:08.000Z</time></trkpt><trkpt lon="5.743868" lat="51.34359"><ele>22.6</ele><time>2022-06-05T08:36:09.000Z</time></trkpt><trkpt lon="5.743875" lat="51.343524"><ele>22.6</ele><time>2022-06-05T08:36:10.000Z</time></trkpt><trkpt lon="5.743878" lat="51.343462"><ele>22.6</ele><time>2022-06-05T08:36:11.000Z</time></trkpt><trkpt lon="5.743888" lat="51.343392"><ele>22.6</ele><time>2022-06-05T08:36:12.000Z</time></trkpt><trkpt lon="5.743903" lat="51.343321"><ele>22.6</ele><time>2022-06-05T08:36:13.000Z</time></trkpt><trkpt lon="5.743919" lat="51.343255"><ele>22.6</ele><time>2022-06-05T08:36:14.000Z</time></trkpt><trkpt lon="5.743931" lat="51.343184"><ele>22.6</ele><time>2022-06-05T08:36:15.000Z</time></trkpt><trkpt lon="5.743943" lat="51.343113"><ele>22.6</ele><time>2022-06-05T08:36:16.000Z</time></trkpt><trkpt lon="5.743956" lat="51.343045"><ele>22.6</ele><time>2022-06-05T08:36:17.000Z</time></trkpt><trkpt lon="5.743966" lat="51.342974"><ele>22.6</ele><time>2022-06-05T08:36:18.000Z</time></trkpt><trkpt lon="5.743978" lat="51.342902"><ele>22.6</ele><time>2022-06-05T08:36:19.000Z</time></trkpt><trkpt lon="5.743989" lat="51.342834"><ele>22.6</ele><time>2022-06-05T08:36:20.000Z</time></trkpt><trkpt lon="5.744" lat="51.342761"><ele>22.6</ele><time>2022-06-05T08:36:21.000Z</time></trkpt><trkpt lon="5.744013" lat="51.34269"><ele>22.6</ele><time>2022-06-05T08:36:22.000Z</time></trkpt><trkpt lon="5.744028" lat="51.342616"><ele>22.6</ele><time>2022-06-05T08:36:23.000Z</time></trkpt><trkpt lon="5.744039" lat="51.342548"><ele>22.6</ele><time>2022-06-05T08:36:24.000Z</time></trkpt><trkpt lon="5.744057" lat="51.342471"><ele>22.4</ele><time>2022-06-05T08:36:25.000Z</time></trkpt><trkpt lon="5.744069" lat="51.3424"><ele>22.4</ele><time>2022-06-05T08:36:26.000Z</time></trkpt><trkpt lon="5.744087" lat="51.342327"><ele>22.4</ele><time>2022-06-05T08:36:27.000Z</time></trkpt><trkpt lon="5.744101" lat="51.342251"><ele>22.4</ele><time>2022-06-05T08:36:28.000Z</time></trkpt><trkpt lon="5.744116" lat="51.342177"><ele>22.6</ele><time>2022-06-05T08:36:29.000Z</time></trkpt><trkpt lon="5.744131" lat="51.342104"><ele>22.6</ele><time>2022-06-05T08:36:30.000Z</time></trkpt><trkpt lon="5.744146" lat="51.342033"><ele>22.6</ele><time>2022-06-05T08:36:31.000Z</time></trkpt><trkpt lon="5.744159" lat="51.341957"><ele>22.6</ele><time>2022-06-05T08:36:32.000Z</time></trkpt><trkpt lon="5.744173" lat="51.341887"><ele>22.6</ele><time>2022-06-05T08:36:33.000Z</time></trkpt><trkpt lon="5.744187" lat="51.341817"><ele>22.6</ele><time>2022-06-05T08:36:34.000Z</time></trkpt><trkpt lon="5.744196" lat="51.34175"><ele>22.6</ele><time>2022-06-05T08:36:35.000Z</time></trkpt><trkpt lon="5.744206" lat="51.34167"><ele>22.6</ele><time>2022-06-05T08:36:36.000Z</time></trkpt><trkpt lon="5.744219" lat="51.341602"><ele>22.4</ele><time>2022-06-05T08:36:37.000Z</time></trkpt><trkpt lon="5.744235" lat="51.341532"><ele>22.4</ele><time>2022-06-05T08:36:38.000Z</time></trkpt><trkpt lon="5.744248" lat="51.341464"><ele>22.4</ele><time>2022-06-05T08:36:39.000Z</time></trkpt><trkpt lon="5.744259" lat="51.341391"><ele>22.4</ele><time>2022-06-05T08:36:40.000Z</time></trkpt><trkpt lon="5.744271" lat="51.341319"><ele>22.4</ele><time>2022-06-05T08:36:41.000Z</time></trkpt><trkpt lon="5.744282" lat="51.341262"><ele>22.2</ele><time>2022-06-05T08:36:42.000Z</time></trkpt><trkpt lon="5.744295" lat="51.341175"><ele>22.2</ele><time>2022-06-05T08:36:43.000Z</time></trkpt><trkpt lon="5.744306" lat="51.341104"><ele>22.2</ele><time>2022-06-05T08:36:44.000Z</time></trkpt><trkpt lon="5.744317" lat="51.341038"><ele>22.2</ele><time>2022-06-05T08:36:45.000Z</time></trkpt><trkpt lon="5.744329" lat="51.340959"><ele>22.4</ele><time>2022-06-05T08:36:46.000Z</time></trkpt><trkpt lon="5.74434" lat="51.340884"><ele>22.4</ele><time>2022-06-05T08:36:47.000Z</time></trkpt><trkpt lon="5.744352" lat="51.340811"><ele>22.4</ele><time>2022-06-05T08:36:48.000Z</time></trkpt><trkpt lon="5.744363" lat="51.340735"><ele>22.4</ele><time>2022-06-05T08:36:49.000Z</time></trkpt><trkpt lon="5.744375" lat="51.340664"><ele>22.2</ele><time>2022-06-05T08:36:50.000Z</time></trkpt><trkpt lon="5.744388" lat="51.34059"><ele>22.2</ele><time>2022-06-05T08:36:51.000Z</time></trkpt><trkpt lon="5.744399" lat="51.340519"><ele>22.2</ele><time>2022-06-05T08:36:52.000Z</time></trkpt><trkpt lon="5.744411" lat="51.340447"><ele>22.2</ele><time>2022-06-05T08:36:53.000Z</time></trkpt><trkpt lon="5.744423" lat="51.340373"><ele>22.2</ele><time>2022-06-05T08:36:54.000Z</time></trkpt><trkpt lon="5.744434" lat="51.3403"><ele>22.2</ele><time>2022-06-05T08:36:55.000Z</time></trkpt><trkpt lon="5.744448" lat="51.340228"><ele>22.2</ele><time>2022-06-05T08:36:56.000Z</time></trkpt><trkpt lon="5.744461" lat="51.340159"><ele>22.2</ele><time>2022-06-05T08:36:57.000Z</time></trkpt><trkpt lon="5.744476" lat="51.340089"><ele>22.2</ele><time>2022-06-05T08:36:58.000Z</time></trkpt><trkpt lon="5.744491" lat="51.340015"><ele>22.2</ele><time>2022-06-05T08:36:59.000Z</time></trkpt><trkpt lon="5.744506" lat="51.339946"><ele>22.4</ele><time>2022-06-05T08:37:00.000Z</time></trkpt><trkpt lon="5.744523" lat="51.339872"><ele>22.4</ele><time>2022-06-05T08:37:01.000Z</time></trkpt><trkpt lon="5.744534" lat="51.339806"><ele>22.4</ele><time>2022-06-05T08:37:02.000Z</time></trkpt><trkpt lon="5.744543" lat="51.339732"><ele>22.4</ele><time>2022-06-05T08:37:03.000Z</time></trkpt><trkpt lon="5.744556" lat="51.339664"><ele>22.4</ele><time>2022-06-05T08:37:04.000Z</time></trkpt><trkpt lon="5.744565" lat="51.339591"><ele>22.4</ele><time>2022-06-05T08:37:05.000Z</time></trkpt><trkpt lon="5.744575" lat="51.339522"><ele>22.4</ele><time>2022-06-05T08:37:06.000Z</time></trkpt><trkpt lon="5.744588" lat="51.339453"><ele>22.6</ele><time>2022-06-05T08:37:07.000Z</time></trkpt><trkpt lon="5.744602" lat="51.339382"><ele>22.6</ele><time>2022-06-05T08:37:08.000Z</time></trkpt><trkpt lon="5.744611" lat="51.339316"><ele>22.6</ele><time>2022-06-05T08:37:09.000Z</time></trkpt><trkpt lon="5.744621" lat="51.339244"><ele>22.6</ele><time>2022-06-05T08:37:10.000Z</time></trkpt><trkpt lon="5.744623" lat="51.33918"><ele>22.6</ele><time>2022-06-05T08:37:11.000Z</time></trkpt><trkpt lon="5.744612" lat="51.339109"><ele>22.6</ele><time>2022-06-05T08:37:12.000Z</time></trkpt><trkpt lon="5.744582" lat="51.339032"><ele>22.6</ele><time>2022-06-05T08:37:13.000Z</time></trkpt><trkpt lon="5.744535" lat="51.338971"><ele>22.4</ele><time>2022-06-05T08:37:14.000Z</time></trkpt><trkpt lon="5.744467" lat="51.338916"><ele>22.4</ele><time>2022-06-05T08:37:15.000Z</time></trkpt><trkpt lon="5.744385" lat="51.338873"><ele>22.4</ele><time>2022-06-05T08:37:16.000Z</time></trkpt><trkpt lon="5.744281" lat="51.338846"><ele>22.2</ele><time>2022-06-05T08:37:17.000Z</time></trkpt><trkpt lon="5.744164" lat="51.33883"><ele>22</ele><time>2022-06-05T08:37:18.000Z</time></trkpt><trkpt lon="5.744041" lat="51.338814"><ele>22</ele><time>2022-06-05T08:37:19.000Z</time></trkpt><trkpt lon="5.743923" lat="51.338807"><ele>22</ele><time>2022-06-05T08:37:20.000Z</time></trkpt><trkpt lon="5.7438" lat="51.338799"><ele>22</ele><time>2022-06-05T08:37:21.000Z</time></trkpt><trkpt lon="5.74368" lat="51.338791"><ele>22</ele><time>2022-06-05T08:37:22.000Z</time></trkpt><trkpt lon="5.74356" lat="51.338784"><ele>22.2</ele><time>2022-06-05T08:37:23.000Z</time></trkpt><trkpt lon="5.743443" lat="51.338776"><ele>22.2</ele><time>2022-06-05T08:37:24.000Z</time></trkpt><trkpt lon="5.743326" lat="51.338768"><ele>22.2</ele><time>2022-06-05T08:37:25.000Z</time></trkpt><trkpt lon="5.74321" lat="51.338757"><ele>22.2</ele><time>2022-06-05T08:37:26.000Z</time></trkpt><trkpt lon="5.743095" lat="51.338746"><ele>22.2</ele><time>2022-06-05T08:37:27.000Z</time></trkpt><trkpt lon="5.742982" lat="51.338731"><ele>22.4</ele><time>2022-06-05T08:37:28.000Z</time></trkpt><trkpt lon="5.742874" lat="51.338701"><ele>22.4</ele><time>2022-06-05T08:37:29.000Z</time></trkpt><trkpt lon="5.742782" lat="51.338659"><ele>22.4</ele><time>2022-06-05T08:37:30.000Z</time></trkpt><trkpt lon="5.742699" lat="51.338606"><ele>22.4</ele><time>2022-06-05T08:37:31.000Z</time></trkpt><trkpt lon="5.742644" lat="51.338542"><ele>22.6</ele><time>2022-06-05T08:37:32.000Z</time></trkpt><trkpt lon="5.742615" lat="51.338474"><ele>22.6</ele><time>2022-06-05T08:37:33.000Z</time></trkpt><trkpt lon="5.742607" lat="51.338408"><ele>22.4</ele><time>2022-06-05T08:37:34.000Z</time></trkpt><trkpt lon="5.742616" lat="51.338334"><ele>22.6</ele><time>2022-06-05T08:37:35.000Z</time></trkpt><trkpt lon="5.742632" lat="51.338261"><ele>22.4</ele><time>2022-06-05T08:37:36.000Z</time></trkpt><trkpt lon="5.74265" lat="51.338192"><ele>22.4</ele><time>2022-06-05T08:37:37.000Z</time></trkpt><trkpt lon="5.742664" lat="51.338124"><ele>22.6</ele><time>2022-06-05T08:37:38.000Z</time></trkpt><trkpt lon="5.742681" lat="51.338054"><ele>22.4</ele><time>2022-06-05T08:37:39.000Z</time></trkpt><trkpt lon="5.742704" lat="51.337971"><ele>22</ele><time>2022-06-05T08:37:40.000Z</time></trkpt><trkpt lon="5.742721" lat="51.337901"><ele>22</ele><time>2022-06-05T08:37:41.000Z</time></trkpt><trkpt lon="5.742736" lat="51.33783"><ele>22</ele><time>2022-06-05T08:37:42.000Z</time></trkpt><trkpt lon="5.742749" lat="51.337763"><ele>22</ele><time>2022-06-05T08:37:43.000Z</time></trkpt><trkpt lon="5.742764" lat="51.337692"><ele>22.2</ele><time>2022-06-05T08:37:44.000Z</time></trkpt><trkpt lon="5.742778" lat="51.33762"><ele>22.2</ele><time>2022-06-05T08:37:45.000Z</time></trkpt><trkpt lon="5.742791" lat="51.337551"><ele>22.2</ele><time>2022-06-05T08:37:46.000Z</time></trkpt><trkpt lon="5.742804" lat="51.337482"><ele>22.4</ele><time>2022-06-05T08:37:47.000Z</time></trkpt><trkpt lon="5.742815" lat="51.337413"><ele>22.4</ele><time>2022-06-05T08:37:48.000Z</time></trkpt><trkpt lon="5.742825" lat="51.337348"><ele>22.4</ele><time>2022-06-05T08:37:49.000Z</time></trkpt><trkpt lon="5.742835" lat="51.337279"><ele>22.6</ele><time>2022-06-05T08:37:50.000Z</time></trkpt><trkpt lon="5.742845" lat="51.33721"><ele>22.6</ele><time>2022-06-05T08:37:51.000Z</time></trkpt><trkpt lon="5.742858" lat="51.337143"><ele>22.8</ele><time>2022-06-05T08:37:52.000Z</time></trkpt><trkpt lon="5.742871" lat="51.337071"><ele>23</ele><time>2022-06-05T08:37:53.000Z</time></trkpt><trkpt lon="5.742886" lat="51.337005"><ele>23</ele><time>2022-06-05T08:37:54.000Z</time></trkpt><trkpt lon="5.742902" lat="51.336937"><ele>23</ele><time>2022-06-05T08:37:55.000Z</time></trkpt><trkpt lon="5.742921" lat="51.336864"><ele>22.8</ele><time>2022-06-05T08:37:56.000Z</time></trkpt><trkpt lon="5.742938" lat="51.336796"><ele>22.8</ele><time>2022-06-05T08:37:57.000Z</time></trkpt><trkpt lon="5.742955" lat="51.336726"><ele>22.8</ele><time>2022-06-05T08:37:58.000Z</time></trkpt><trkpt lon="5.742969" lat="51.336658"><ele>22.8</ele><time>2022-06-05T08:37:59.000Z</time></trkpt><trkpt lon="5.742986" lat="51.33659"><ele>23</ele><time>2022-06-05T08:38:00.000Z</time></trkpt><trkpt lon="5.743002" lat="51.336521"><ele>23</ele><time>2022-06-05T08:38:01.000Z</time></trkpt><trkpt lon="5.743021" lat="51.336452"><ele>23.2</ele><time>2022-06-05T08:38:02.000Z</time></trkpt><trkpt lon="5.743035" lat="51.336392"><ele>23</ele><time>2022-06-05T08:38:03.000Z</time></trkpt><trkpt lon="5.743054" lat="51.336315"><ele>23.2</ele><time>2022-06-05T08:38:04.000Z</time></trkpt><trkpt lon="5.74307" lat="51.336245"><ele>23.2</ele><time>2022-06-05T08:38:05.000Z</time></trkpt><trkpt lon="5.743087" lat="51.336178"><ele>23</ele><time>2022-06-05T08:38:06.000Z</time></trkpt><trkpt lon="5.743105" lat="51.336112"><ele>23</ele><time>2022-06-05T08:38:07.000Z</time></trkpt><trkpt lon="5.743123" lat="51.33604"><ele>23</ele><time>2022-06-05T08:38:08.000Z</time></trkpt><trkpt lon="5.743141" lat="51.335972"><ele>23.2</ele><time>2022-06-05T08:38:09.000Z</time></trkpt><trkpt lon="5.743159" lat="51.335904"><ele>23.2</ele><time>2022-06-05T08:38:10.000Z</time></trkpt><trkpt lon="5.743176" lat="51.335835"><ele>23.2</ele><time>2022-06-05T08:38:11.000Z</time></trkpt><trkpt lon="5.743193" lat="51.335765"><ele>23</ele><time>2022-06-05T08:38:12.000Z</time></trkpt><trkpt lon="5.743211" lat="51.335696"><ele>23</ele><time>2022-06-05T08:38:13.000Z</time></trkpt><trkpt lon="5.743229" lat="51.335628"><ele>22.8</ele><time>2022-06-05T08:38:14.000Z</time></trkpt><trkpt lon="5.74325" lat="51.335561"><ele>22.8</ele><time>2022-06-05T08:38:15.000Z</time></trkpt><trkpt lon="5.74327" lat="51.33549"><ele>23</ele><time>2022-06-05T08:38:16.000Z</time></trkpt><trkpt lon="5.743289" lat="51.335418"><ele>23</ele><time>2022-06-05T08:38:17.000Z</time></trkpt><trkpt lon="5.743306" lat="51.335351"><ele>23</ele><time>2022-06-05T08:38:18.000Z</time></trkpt><trkpt lon="5.743324" lat="51.335277"><ele>23.2</ele><time>2022-06-05T08:38:19.000Z</time></trkpt><trkpt lon="5.743342" lat="51.335209"><ele>23.2</ele><time>2022-06-05T08:38:20.000Z</time></trkpt><trkpt lon="5.743361" lat="51.335135"><ele>23.2</ele><time>2022-06-05T08:38:21.000Z</time></trkpt><trkpt lon="5.743381" lat="51.335064"><ele>23.4</ele><time>2022-06-05T08:38:22.000Z</time></trkpt><trkpt lon="5.743398" lat="51.33499"><ele>23.4</ele><time>2022-06-05T08:38:23.000Z</time></trkpt><trkpt lon="5.743416" lat="51.334918"><ele>23.4</ele><time>2022-06-05T08:38:24.000Z</time></trkpt><trkpt lon="5.743434" lat="51.334851"><ele>23.4</ele><time>2022-06-05T08:38:25.000Z</time></trkpt><trkpt lon="5.743451" lat="51.334777"><ele>23.4</ele><time>2022-06-05T08:38:26.000Z</time></trkpt><trkpt lon="5.743469" lat="51.334704"><ele>23.2</ele><time>2022-06-05T08:38:27.000Z</time></trkpt><trkpt lon="5.743488" lat="51.334636"><ele>23</ele><time>2022-06-05T08:38:28.000Z</time></trkpt><trkpt lon="5.743506" lat="51.334564"><ele>22.6</ele><time>2022-06-05T08:38:29.000Z</time></trkpt><trkpt lon="5.743522" lat="51.334503"><ele>22.6</ele><time>2022-06-05T08:38:30.000Z</time></trkpt><trkpt lon="5.743539" lat="51.334429"><ele>22.6</ele><time>2022-06-05T08:38:31.000Z</time></trkpt><trkpt lon="5.743556" lat="51.334358"><ele>22.8</ele><time>2022-06-05T08:38:32.000Z</time></trkpt><trkpt lon="5.743571" lat="51.334288"><ele>23</ele><time>2022-06-05T08:38:33.000Z</time></trkpt><trkpt lon="5.743588" lat="51.334223"><ele>23</ele><time>2022-06-05T08:38:34.000Z</time></trkpt><trkpt lon="5.743603" lat="51.334155"><ele>23.2</ele><time>2022-06-05T08:38:35.000Z</time></trkpt><trkpt lon="5.743619" lat="51.334089"><ele>23</ele><time>2022-06-05T08:38:36.000Z</time></trkpt><trkpt lon="5.743634" lat="51.334019"><ele>23</ele><time>2022-06-05T08:38:37.000Z</time></trkpt><trkpt lon="5.743651" lat="51.333949"><ele>23</ele><time>2022-06-05T08:38:38.000Z</time></trkpt><trkpt lon="5.743668" lat="51.33388"><ele>23.2</ele><time>2022-06-05T08:38:39.000Z</time></trkpt><trkpt lon="5.743686" lat="51.333809"><ele>23.2</ele><time>2022-06-05T08:38:40.000Z</time></trkpt><trkpt lon="5.743703" lat="51.333742"><ele>23.2</ele><time>2022-06-05T08:38:41.000Z</time></trkpt><trkpt lon="5.743725" lat="51.333669"><ele>23</ele><time>2022-06-05T08:38:42.000Z</time></trkpt><trkpt lon="5.743744" lat="51.333598"><ele>23</ele><time>2022-06-05T08:38:43.000Z</time></trkpt><trkpt lon="5.743761" lat="51.333529"><ele>23.2</ele><time>2022-06-05T08:38:44.000Z</time></trkpt><trkpt lon="5.743778" lat="51.333457"><ele>23.2</ele><time>2022-06-05T08:38:45.000Z</time></trkpt><trkpt lon="5.743794" lat="51.333391"><ele>23.2</ele><time>2022-06-05T08:38:46.000Z</time></trkpt><trkpt lon="5.743814" lat="51.333316"><ele>23.2</ele><time>2022-06-05T08:38:47.000Z</time></trkpt><trkpt lon="5.743836" lat="51.333244"><ele>23.2</ele><time>2022-06-05T08:38:48.000Z</time></trkpt><trkpt lon="5.743857" lat="51.333175"><ele>23.2</ele><time>2022-06-05T08:38:49.000Z</time></trkpt><trkpt lon="5.743879" lat="51.333106"><ele>23.2</ele><time>2022-06-05T08:38:50.000Z</time></trkpt><trkpt lon="5.743899" lat="51.333034"><ele>23.2</ele><time>2022-06-05T08:38:51.000Z</time></trkpt><trkpt lon="5.743919" lat="51.332962"><ele>23.2</ele><time>2022-06-05T08:38:52.000Z</time></trkpt><trkpt lon="5.743941" lat="51.332889"><ele>23.2</ele><time>2022-06-05T08:38:53.000Z</time></trkpt><trkpt lon="5.743959" lat="51.332817"><ele>23</ele><time>2022-06-05T08:38:54.000Z</time></trkpt><trkpt lon="5.743976" lat="51.332744"><ele>23.2</ele><time>2022-06-05T08:38:55.000Z</time></trkpt><trkpt lon="5.743993" lat="51.332676"><ele>23.2</ele><time>2022-06-05T08:38:56.000Z</time></trkpt><trkpt lon="5.744014" lat="51.332604"><ele>23.2</ele><time>2022-06-05T08:38:57.000Z</time></trkpt><trkpt lon="5.744034" lat="51.332531"><ele>23.2</ele><time>2022-06-05T08:38:58.000Z</time></trkpt><trkpt lon="5.744051" lat="51.332461"><ele>23.4</ele><time>2022-06-05T08:38:59.000Z</time></trkpt><trkpt lon="5.744066" lat="51.332389"><ele>23.2</ele><time>2022-06-05T08:39:00.000Z</time></trkpt><trkpt lon="5.744084" lat="51.332316"><ele>23.2</ele><time>2022-06-05T08:39:01.000Z</time></trkpt><trkpt lon="5.744101" lat="51.332249"><ele>23.2</ele><time>2022-06-05T08:39:02.000Z</time></trkpt><trkpt lon="5.744116" lat="51.332175"><ele>23</ele><time>2022-06-05T08:39:03.000Z</time></trkpt><trkpt lon="5.744131" lat="51.332103"><ele>23</ele><time>2022-06-05T08:39:04.000Z</time></trkpt><trkpt lon="5.744144" lat="51.332035"><ele>23</ele><time>2022-06-05T08:39:05.000Z</time></trkpt><trkpt lon="5.744154" lat="51.331962"><ele>23</ele><time>2022-06-05T08:39:06.000Z</time></trkpt><trkpt lon="5.744166" lat="51.331889"><ele>23.2</ele><time>2022-06-05T08:39:07.000Z</time></trkpt><trkpt lon="5.744178" lat="51.331817"><ele>23.2</ele><time>2022-06-05T08:39:08.000Z</time></trkpt><trkpt lon="5.74419" lat="51.331749"><ele>23.2</ele><time>2022-06-05T08:39:09.000Z</time></trkpt><trkpt lon="5.7442" lat="51.331675"><ele>23.2</ele><time>2022-06-05T08:39:10.000Z</time></trkpt><trkpt lon="5.744209" lat="51.331603"><ele>23.4</ele><time>2022-06-05T08:39:11.000Z</time></trkpt><trkpt lon="5.744223" lat="51.331534"><ele>23.2</ele><time>2022-06-05T08:39:12.000Z</time></trkpt><trkpt lon="5.744233" lat="51.331462"><ele>23.2</ele><time>2022-06-05T08:39:13.000Z</time></trkpt><trkpt lon="5.744245" lat="51.331389"><ele>23</ele><time>2022-06-05T08:39:14.000Z</time></trkpt><trkpt lon="5.744258" lat="51.33132"><ele>22.8</ele><time>2022-06-05T08:39:15.000Z</time></trkpt><trkpt lon="5.744266" lat="51.331267"><ele>22.8</ele><time>2022-06-05T08:39:16.000Z</time></trkpt><trkpt lon="5.744276" lat="51.331189"><ele>22.8</ele><time>2022-06-05T08:39:17.000Z</time></trkpt><trkpt lon="5.744286" lat="51.33112"><ele>22.8</ele><time>2022-06-05T08:39:18.000Z</time></trkpt><trkpt lon="5.744296" lat="51.33105"><ele>22.8</ele><time>2022-06-05T08:39:19.000Z</time></trkpt><trkpt lon="5.744305" lat="51.330982"><ele>22.8</ele><time>2022-06-05T08:39:20.000Z</time></trkpt><trkpt lon="5.744316" lat="51.330925"><ele>23</ele><time>2022-06-05T08:39:21.000Z</time></trkpt><trkpt lon="5.744329" lat="51.330848"><ele>23.2</ele><time>2022-06-05T08:39:22.000Z</time></trkpt><trkpt lon="5.744334" lat="51.330794"><ele>23.2</ele><time>2022-06-05T08:39:23.000Z</time></trkpt><trkpt lon="5.744313" lat="51.33073"><ele>23.4</ele><time>2022-06-05T08:39:24.000Z</time></trkpt><trkpt lon="5.744264" lat="51.330688"><ele>23.4</ele><time>2022-06-05T08:39:25.000Z</time></trkpt><trkpt lon="5.744174" lat="51.330655"><ele>23.4</ele><time>2022-06-05T08:39:26.000Z</time></trkpt><trkpt lon="5.744072" lat="51.33064"><ele>23.4</ele><time>2022-06-05T08:39:27.000Z</time></trkpt><trkpt lon="5.743961" lat="51.330635"><ele>23.2</ele><time>2022-06-05T08:39:28.000Z</time></trkpt><trkpt lon="5.743844" lat="51.330628"><ele>23</ele><time>2022-06-05T08:39:29.000Z</time></trkpt><trkpt lon="5.743725" lat="51.33062"><ele>23.2</ele><time>2022-06-05T08:39:30.000Z</time></trkpt><trkpt lon="5.743607" lat="51.330609"><ele>23.2</ele><time>2022-06-05T08:39:31.000Z</time></trkpt><trkpt lon="5.743489" lat="51.330601"><ele>23.4</ele><time>2022-06-05T08:39:32.000Z</time></trkpt><trkpt lon="5.743371" lat="51.330593"><ele>23.2</ele><time>2022-06-05T08:39:33.000Z</time></trkpt><trkpt lon="5.743255" lat="51.330582"><ele>23.2</ele><time>2022-06-05T08:39:34.000Z</time></trkpt><trkpt lon="5.743136" lat="51.330571"><ele>23.2</ele><time>2022-06-05T08:39:35.000Z</time></trkpt><trkpt lon="5.743019" lat="51.330563"><ele>23</ele><time>2022-06-05T08:39:36.000Z</time></trkpt><trkpt lon="5.742901" lat="51.330555"><ele>23</ele><time>2022-06-05T08:39:37.000Z</time></trkpt><trkpt lon="5.742786" lat="51.330548"><ele>23</ele><time>2022-06-05T08:39:38.000Z</time></trkpt><trkpt lon="5.742665" lat="51.33054"><ele>23</ele><time>2022-06-05T08:39:39.000Z</time></trkpt><trkpt lon="5.742551" lat="51.330529"><ele>23</ele><time>2022-06-05T08:39:40.000Z</time></trkpt><trkpt lon="5.742431" lat="51.330525"><ele>23.2</ele><time>2022-06-05T08:39:41.000Z</time></trkpt><trkpt lon="5.742308" lat="51.330517"><ele>23.2</ele><time>2022-06-05T08:39:42.000Z</time></trkpt><trkpt lon="5.742191" lat="51.330506"><ele>23.2</ele><time>2022-06-05T08:39:43.000Z</time></trkpt><trkpt lon="5.742072" lat="51.330498"><ele>23.4</ele><time>2022-06-05T08:39:44.000Z</time></trkpt><trkpt lon="5.741956" lat="51.330491"><ele>23.2</ele><time>2022-06-05T08:39:45.000Z</time></trkpt><trkpt lon="5.741842" lat="51.33048"><ele>23.2</ele><time>2022-06-05T08:39:46.000Z</time></trkpt><trkpt lon="5.74172" lat="51.330468"><ele>23.2</ele><time>2022-06-05T08:39:47.000Z</time></trkpt><trkpt lon="5.741603" lat="51.33046"><ele>23.4</ele><time>2022-06-05T08:39:48.000Z</time></trkpt><trkpt lon="5.741483" lat="51.330449"><ele>23.6</ele><time>2022-06-05T08:39:49.000Z</time></trkpt><trkpt lon="5.741373" lat="51.330442"><ele>23.6</ele><time>2022-06-05T08:39:50.000Z</time></trkpt><trkpt lon="5.741267" lat="51.330435"><ele>23.6</ele><time>2022-06-05T08:39:51.000Z</time></trkpt><trkpt lon="5.74115" lat="51.330424"><ele>23.6</ele><time>2022-06-05T08:39:52.000Z</time></trkpt><trkpt lon="5.741013" lat="51.330411"><ele>23.6</ele><time>2022-06-05T08:39:53.000Z</time></trkpt><trkpt lon="5.740896" lat="51.330403"><ele>23.6</ele><time>2022-06-05T08:39:54.000Z</time></trkpt><trkpt lon="5.740778" lat="51.330395"><ele>23.6</ele><time>2022-06-05T08:39:55.000Z</time></trkpt><trkpt lon="5.740658" lat="51.330384"><ele>23.6</ele><time>2022-06-05T08:39:56.000Z</time></trkpt><trkpt lon="5.740543" lat="51.330376"><ele>23.4</ele><time>2022-06-05T08:39:57.000Z</time></trkpt><trkpt lon="5.740424" lat="51.330365"><ele>23.4</ele><time>2022-06-05T08:39:58.000Z</time></trkpt><trkpt lon="5.740305" lat="51.330357"><ele>23.4</ele><time>2022-06-05T08:39:59.000Z</time></trkpt><trkpt lon="5.740185" lat="51.330346"><ele>23.4</ele><time>2022-06-05T08:40:00.000Z</time></trkpt><trkpt lon="5.740068" lat="51.330338"><ele>23.4</ele><time>2022-06-05T08:40:01.000Z</time></trkpt><trkpt lon="5.739948" lat="51.33033"><ele>23.4</ele><time>2022-06-05T08:40:02.000Z</time></trkpt><trkpt lon="5.73983" lat="51.330323"><ele>23.4</ele><time>2022-06-05T08:40:03.000Z</time></trkpt><trkpt lon="5.739712" lat="51.330315"><ele>23.4</ele><time>2022-06-05T08:40:04.000Z</time></trkpt><trkpt lon="5.739597" lat="51.330307"><ele>23.6</ele><time>2022-06-05T08:40:05.000Z</time></trkpt><trkpt lon="5.739483" lat="51.330296"><ele>23.6</ele><time>2022-06-05T08:40:06.000Z</time></trkpt><trkpt lon="5.739363" lat="51.330288"><ele>23.6</ele><time>2022-06-05T08:40:07.000Z</time></trkpt><trkpt lon="5.739244" lat="51.330277"><ele>23.6</ele><time>2022-06-05T08:40:08.000Z</time></trkpt><trkpt lon="5.739124" lat="51.330266"><ele>23.6</ele><time>2022-06-05T08:40:09.000Z</time></trkpt><trkpt lon="5.739009" lat="51.330258"><ele>23.6</ele><time>2022-06-05T08:40:10.000Z</time></trkpt><trkpt lon="5.738888" lat="51.33025"><ele>23.8</ele><time>2022-06-05T08:40:11.000Z</time></trkpt><trkpt lon="5.738774" lat="51.330243"><ele>23.6</ele><time>2022-06-05T08:40:12.000Z</time></trkpt><trkpt lon="5.738659" lat="51.330231"><ele>23.6</ele><time>2022-06-05T08:40:13.000Z</time></trkpt><trkpt lon="5.738542" lat="51.330223"><ele>23.6</ele><time>2022-06-05T08:40:14.000Z</time></trkpt><trkpt lon="5.738421" lat="51.330212"><ele>23.6</ele><time>2022-06-05T08:40:15.000Z</time></trkpt><trkpt lon="5.738309" lat="51.330205"><ele>23.6</ele><time>2022-06-05T08:40:16.000Z</time></trkpt><trkpt lon="5.738176" lat="51.330193"><ele>23.6</ele><time>2022-06-05T08:40:17.000Z</time></trkpt><trkpt lon="5.738077" lat="51.330187"><ele>23.6</ele><time>2022-06-05T08:40:18.000Z</time></trkpt><trkpt lon="5.737943" lat="51.330178"><ele>23.6</ele><time>2022-06-05T08:40:19.000Z</time></trkpt><trkpt lon="5.737825" lat="51.33017"><ele>23.6</ele><time>2022-06-05T08:40:20.000Z</time></trkpt><trkpt lon="5.737709" lat="51.330159"><ele>23.6</ele><time>2022-06-05T08:40:21.000Z</time></trkpt><trkpt lon="5.737582" lat="51.330147"><ele>23.8</ele><time>2022-06-05T08:40:22.000Z</time></trkpt><trkpt lon="5.737463" lat="51.330139"><ele>23.6</ele><time>2022-06-05T08:40:23.000Z</time></trkpt><trkpt lon="5.737345" lat="51.330128"><ele>23.6</ele><time>2022-06-05T08:40:24.000Z</time></trkpt><trkpt lon="5.737226" lat="51.330117"><ele>23.6</ele><time>2022-06-05T08:40:25.000Z</time></trkpt><trkpt lon="5.737107" lat="51.330106"><ele>23.6</ele><time>2022-06-05T08:40:26.000Z</time></trkpt><trkpt lon="5.736983" lat="51.330098"><ele>23.6</ele><time>2022-06-05T08:40:27.000Z</time></trkpt><trkpt lon="5.736867" lat="51.330087"><ele>23.6</ele><time>2022-06-05T08:40:28.000Z</time></trkpt><trkpt lon="5.736748" lat="51.330075"><ele>23.6</ele><time>2022-06-05T08:40:29.000Z</time></trkpt><trkpt lon="5.73663" lat="51.330063"><ele>23.6</ele><time>2022-06-05T08:40:30.000Z</time></trkpt><trkpt lon="5.736517" lat="51.330052"><ele>23.6</ele><time>2022-06-05T08:40:31.000Z</time></trkpt><trkpt lon="5.736404" lat="51.330041"><ele>23.6</ele><time>2022-06-05T08:40:32.000Z</time></trkpt><trkpt lon="5.736284" lat="51.330033"><ele>23.4</ele><time>2022-06-05T08:40:33.000Z</time></trkpt><trkpt lon="5.736162" lat="51.330021"><ele>23.4</ele><time>2022-06-05T08:40:34.000Z</time></trkpt><trkpt lon="5.736042" lat="51.330014"><ele>23.4</ele><time>2022-06-05T08:40:35.000Z</time></trkpt><trkpt lon="5.735922" lat="51.330003"><ele>23.4</ele><time>2022-06-05T08:40:36.000Z</time></trkpt><trkpt lon="5.735802" lat="51.329991"><ele>23.4</ele><time>2022-06-05T08:40:37.000Z</time></trkpt><trkpt lon="5.735685" lat="51.329983"><ele>23.6</ele><time>2022-06-05T08:40:38.000Z</time></trkpt><trkpt lon="5.735568" lat="51.329975"><ele>23.6</ele><time>2022-06-05T08:40:39.000Z</time></trkpt><trkpt lon="5.735454" lat="51.329964"><ele>23.8</ele><time>2022-06-05T08:40:40.000Z</time></trkpt><trkpt lon="5.735344" lat="51.329956"><ele>23.6</ele><time>2022-06-05T08:40:41.000Z</time></trkpt><trkpt lon="5.73525" lat="51.329949"><ele>23.6</ele><time>2022-06-05T08:40:42.000Z</time></trkpt><trkpt lon="5.735149" lat="51.329938"><ele>23.6</ele><time>2022-06-05T08:40:43.000Z</time></trkpt><trkpt lon="5.735089" lat="51.329911"><ele>23.8</ele><time>2022-06-05T08:40:44.000Z</time></trkpt><trkpt lon="5.735052" lat="51.329863"><ele>23.8</ele><time>2022-06-05T08:40:45.000Z</time></trkpt><trkpt lon="5.735051" lat="51.329816"><ele>23.8</ele><time>2022-06-05T08:40:46.000Z</time></trkpt><trkpt lon="5.735065" lat="51.329747"><ele>23.8</ele><time>2022-06-05T08:40:47.000Z</time></trkpt><trkpt lon="5.735084" lat="51.329669"><ele>23.8</ele><time>2022-06-05T08:40:48.000Z</time></trkpt><trkpt lon="5.735101" lat="51.3296"><ele>23.6</ele><time>2022-06-05T08:40:49.000Z</time></trkpt><trkpt lon="5.735113" lat="51.329532"><ele>23.4</ele><time>2022-06-05T08:40:50.000Z</time></trkpt><trkpt lon="5.735125" lat="51.329462"><ele>23.2</ele><time>2022-06-05T08:40:51.000Z</time></trkpt><trkpt lon="5.735138" lat="51.32939"><ele>23.2</ele><time>2022-06-05T08:40:52.000Z</time></trkpt><trkpt lon="5.735152" lat="51.329324"><ele>23.2</ele><time>2022-06-05T08:40:53.000Z</time></trkpt><trkpt lon="5.735166" lat="51.329249"><ele>23.2</ele><time>2022-06-05T08:40:54.000Z</time></trkpt><trkpt lon="5.735176" lat="51.32918"><ele>23.2</ele><time>2022-06-05T08:40:55.000Z</time></trkpt><trkpt lon="5.735188" lat="51.329111"><ele>23.2</ele><time>2022-06-05T08:40:56.000Z</time></trkpt><trkpt lon="5.735201" lat="51.329045"><ele>23.2</ele><time>2022-06-05T08:40:57.000Z</time></trkpt><trkpt lon="5.735215" lat="51.328975"><ele>23.2</ele><time>2022-06-05T08:40:58.000Z</time></trkpt><trkpt lon="5.735228" lat="51.328902"><ele>23.2</ele><time>2022-06-05T08:40:59.000Z</time></trkpt><trkpt lon="5.735241" lat="51.328833"><ele>23.2</ele><time>2022-06-05T08:41:00.000Z</time></trkpt><trkpt lon="5.735254" lat="51.328762"><ele>23</ele><time>2022-06-05T08:41:01.000Z</time></trkpt><trkpt lon="5.735269" lat="51.328692"><ele>23</ele><time>2022-06-05T08:41:02.000Z</time></trkpt><trkpt lon="5.735284" lat="51.328621"><ele>23</ele><time>2022-06-05T08:41:03.000Z</time></trkpt><trkpt lon="5.735298" lat="51.328551"><ele>23</ele><time>2022-06-05T08:41:04.000Z</time></trkpt><trkpt lon="5.735308" lat="51.328478"><ele>23</ele><time>2022-06-05T08:41:05.000Z</time></trkpt><trkpt lon="5.735324" lat="51.32841"><ele>23</ele><time>2022-06-05T08:41:06.000Z</time></trkpt><trkpt lon="5.735338" lat="51.328341"><ele>23</ele><time>2022-06-05T08:41:07.000Z</time></trkpt><trkpt lon="5.735349" lat="51.328274"><ele>23</ele><time>2022-06-05T08:41:08.000Z</time></trkpt><trkpt lon="5.73536" lat="51.328202"><ele>23</ele><time>2022-06-05T08:41:09.000Z</time></trkpt><trkpt lon="5.735373" lat="51.328133"><ele>22.8</ele><time>2022-06-05T08:41:10.000Z</time></trkpt><trkpt lon="5.735385" lat="51.328062"><ele>22.8</ele><time>2022-06-05T08:41:11.000Z</time></trkpt><trkpt lon="5.735396" lat="51.327992"><ele>23</ele><time>2022-06-05T08:41:12.000Z</time></trkpt><trkpt lon="5.735413" lat="51.327922"><ele>22.8</ele><time>2022-06-05T08:41:13.000Z</time></trkpt><trkpt lon="5.735428" lat="51.327856"><ele>22.8</ele><time>2022-06-05T08:41:14.000Z</time></trkpt><trkpt lon="5.735446" lat="51.327781"><ele>22.8</ele><time>2022-06-05T08:41:15.000Z</time></trkpt><trkpt lon="5.735459" lat="51.327725"><ele>22.8</ele><time>2022-06-05T08:41:16.000Z</time></trkpt><trkpt lon="5.735475" lat="51.327652"><ele>23</ele><time>2022-06-05T08:41:17.000Z</time></trkpt><trkpt lon="5.735493" lat="51.327568"><ele>23.2</ele><time>2022-06-05T08:41:18.000Z</time></trkpt><trkpt lon="5.735509" lat="51.3275"><ele>23.2</ele><time>2022-06-05T08:41:19.000Z</time></trkpt><trkpt lon="5.735523" lat="51.327441"><ele>23.2</ele><time>2022-06-05T08:41:20.000Z</time></trkpt><trkpt lon="5.735536" lat="51.327375"><ele>23.2</ele><time>2022-06-05T08:41:21.000Z</time></trkpt><trkpt lon="5.73553" lat="51.32732"><ele>23.4</ele><time>2022-06-05T08:41:22.000Z</time></trkpt><trkpt lon="5.735498" lat="51.327265"><ele>23.4</ele><time>2022-06-05T08:41:23.000Z</time></trkpt><trkpt lon="5.735439" lat="51.327222"><ele>23.4</ele><time>2022-06-05T08:41:24.000Z</time></trkpt><trkpt lon="5.735345" lat="51.327188"><ele>23.4</ele><time>2022-06-05T08:41:25.000Z</time></trkpt><trkpt lon="5.735245" lat="51.327161"><ele>23.6</ele><time>2022-06-05T08:41:26.000Z</time></trkpt><trkpt lon="5.735137" lat="51.327141"><ele>23.6</ele><time>2022-06-05T08:41:27.000Z</time></trkpt><trkpt lon="5.735026" lat="51.327123"><ele>23.6</ele><time>2022-06-05T08:41:28.000Z</time></trkpt><trkpt lon="5.734918" lat="51.327104"><ele>23.6</ele><time>2022-06-05T08:41:29.000Z</time></trkpt><trkpt lon="5.734803" lat="51.327084"><ele>23.6</ele><time>2022-06-05T08:41:30.000Z</time></trkpt><trkpt lon="5.734694" lat="51.327062"><ele>23.6</ele><time>2022-06-05T08:41:31.000Z</time></trkpt><trkpt lon="5.734589" lat="51.327043"><ele>23.6</ele><time>2022-06-05T08:41:32.000Z</time></trkpt><trkpt lon="5.734475" lat="51.32702"><ele>23.6</ele><time>2022-06-05T08:41:33.000Z</time></trkpt><trkpt lon="5.734362" lat="51.327"><ele>23.6</ele><time>2022-06-05T08:41:34.000Z</time></trkpt><trkpt lon="5.734255" lat="51.326978"><ele>23.6</ele><time>2022-06-05T08:41:35.000Z</time></trkpt><trkpt lon="5.734147" lat="51.326955"><ele>23.6</ele><time>2022-06-05T08:41:36.000Z</time></trkpt><trkpt lon="5.734056" lat="51.326935"><ele>23.8</ele><time>2022-06-05T08:41:37.000Z</time></trkpt><trkpt lon="5.733931" lat="51.326909"><ele>23.8</ele><time>2022-06-05T08:41:38.000Z</time></trkpt><trkpt lon="5.733826" lat="51.326887"><ele>23.8</ele><time>2022-06-05T08:41:39.000Z</time></trkpt><trkpt lon="5.733713" lat="51.326868"><ele>23.8</ele><time>2022-06-05T08:41:40.000Z</time></trkpt><trkpt lon="5.733591" lat="51.326844"><ele>24</ele><time>2022-06-05T08:41:41.000Z</time></trkpt><trkpt lon="5.733477" lat="51.326821"><ele>24</ele><time>2022-06-05T08:41:42.000Z</time></trkpt><trkpt lon="5.733361" lat="51.326802"><ele>24</ele><time>2022-06-05T08:41:43.000Z</time></trkpt><trkpt lon="5.733247" lat="51.326779"><ele>23.8</ele><time>2022-06-05T08:41:44.000Z</time></trkpt><trkpt lon="5.733138" lat="51.326757"><ele>23.8</ele><time>2022-06-05T08:41:45.000Z</time></trkpt><trkpt lon="5.733025" lat="51.326737"><ele>23.8</ele><time>2022-06-05T08:41:46.000Z</time></trkpt><trkpt lon="5.732917" lat="51.326715"><ele>23.8</ele><time>2022-06-05T08:41:47.000Z</time></trkpt><trkpt lon="5.732808" lat="51.326695"><ele>23.8</ele><time>2022-06-05T08:41:48.000Z</time></trkpt><trkpt lon="5.732704" lat="51.326676"><ele>23.8</ele><time>2022-06-05T08:41:49.000Z</time></trkpt><trkpt lon="5.732606" lat="51.326661"><ele>23.8</ele><time>2022-06-05T08:41:50.000Z</time></trkpt><trkpt lon="5.732503" lat="51.326646"><ele>23.8</ele><time>2022-06-05T08:41:51.000Z</time></trkpt><trkpt lon="5.732413" lat="51.326623"><ele>23.8</ele><time>2022-06-05T08:41:52.000Z</time></trkpt><trkpt lon="5.732336" lat="51.3266"><ele>24</ele><time>2022-06-05T08:41:53.000Z</time></trkpt><trkpt lon="5.732289" lat="51.326563"><ele>24</ele><time>2022-06-05T08:41:54.000Z</time></trkpt><trkpt lon="5.732279" lat="51.326513"><ele>24</ele><time>2022-06-05T08:41:55.000Z</time></trkpt><trkpt lon="5.732288" lat="51.326456"><ele>24</ele><time>2022-06-05T08:41:56.000Z</time></trkpt><trkpt lon="5.732311" lat="51.326396"><ele>24</ele><time>2022-06-05T08:41:57.000Z</time></trkpt><trkpt lon="5.732335" lat="51.326332"><ele>23.8</ele><time>2022-06-05T08:41:58.000Z</time></trkpt><trkpt lon="5.732359" lat="51.326265"><ele>24</ele><time>2022-06-05T08:41:59.000Z</time></trkpt><trkpt lon="5.732379" lat="51.326193"><ele>24</ele><time>2022-06-05T08:42:00.000Z</time></trkpt><trkpt lon="5.732398" lat="51.326125"><ele>24</ele><time>2022-06-05T08:42:01.000Z</time></trkpt><trkpt lon="5.732413" lat="51.326067"><ele>24.2</ele><time>2022-06-05T08:42:02.000Z</time></trkpt><trkpt lon="5.732427" lat="51.326009"><ele>24.2</ele><time>2022-06-05T08:42:03.000Z</time></trkpt><trkpt lon="5.732449" lat="51.325923"><ele>24.2</ele><time>2022-06-05T08:42:04.000Z</time></trkpt><trkpt lon="5.732469" lat="51.325858"><ele>24.4</ele><time>2022-06-05T08:42:05.000Z</time></trkpt><trkpt lon="5.732484" lat="51.325793"><ele>24.4</ele><time>2022-06-05T08:42:06.000Z</time></trkpt><trkpt lon="5.732503" lat="51.325727"><ele>24.4</ele><time>2022-06-05T08:42:07.000Z</time></trkpt><trkpt lon="5.732523" lat="51.32566"><ele>24.2</ele><time>2022-06-05T08:42:08.000Z</time></trkpt><trkpt lon="5.732541" lat="51.325594"><ele>24.4</ele><time>2022-06-05T08:42:09.000Z</time></trkpt><trkpt lon="5.732559" lat="51.325535"><ele>24.4</ele><time>2022-06-05T08:42:10.000Z</time></trkpt><trkpt lon="5.732579" lat="51.32547"><ele>24.4</ele><time>2022-06-05T08:42:11.000Z</time></trkpt><trkpt lon="5.732599" lat="51.325404"><ele>24.2</ele><time>2022-06-05T08:42:12.000Z</time></trkpt><trkpt lon="5.732618" lat="51.325335"><ele>24.2</ele><time>2022-06-05T08:42:13.000Z</time></trkpt><trkpt lon="5.732638" lat="51.32527"><ele>24.2</ele><time>2022-06-05T08:42:14.000Z</time></trkpt><trkpt lon="5.732655" lat="51.325207"><ele>24.2</ele><time>2022-06-05T08:42:15.000Z</time></trkpt><trkpt lon="5.732677" lat="51.325142"><ele>24.2</ele><time>2022-06-05T08:42:16.000Z</time></trkpt><trkpt lon="5.732695" lat="51.325072"><ele>24.2</ele><time>2022-06-05T08:42:17.000Z</time></trkpt><trkpt lon="5.732709" lat="51.324999"><ele>24</ele><time>2022-06-05T08:42:18.000Z</time></trkpt><trkpt lon="5.732726" lat="51.324931"><ele>24</ele><time>2022-06-05T08:42:19.000Z</time></trkpt><trkpt lon="5.732741" lat="51.324861"><ele>24</ele><time>2022-06-05T08:42:20.000Z</time></trkpt><trkpt lon="5.732756" lat="51.324793"><ele>24.2</ele><time>2022-06-05T08:42:21.000Z</time></trkpt><trkpt lon="5.732772" lat="51.324726"><ele>24.2</ele><time>2022-06-05T08:42:22.000Z</time></trkpt><trkpt lon="5.732789" lat="51.324656"><ele>24.4</ele><time>2022-06-05T08:42:23.000Z</time></trkpt><trkpt lon="5.732806" lat="51.324589"><ele>24.2</ele><time>2022-06-05T08:42:24.000Z</time></trkpt><trkpt lon="5.732824" lat="51.324524"><ele>24</ele><time>2022-06-05T08:42:25.000Z</time></trkpt><trkpt lon="5.732839" lat="51.324456"><ele>24</ele><time>2022-06-05T08:42:26.000Z</time></trkpt><trkpt lon="5.732857" lat="51.324391"><ele>24</ele><time>2022-06-05T08:42:27.000Z</time></trkpt><trkpt lon="5.732873" lat="51.324325"><ele>24</ele><time>2022-06-05T08:42:28.000Z</time></trkpt><trkpt lon="5.732889" lat="51.324254"><ele>23.8</ele><time>2022-06-05T08:42:29.000Z</time></trkpt><trkpt lon="5.732909" lat="51.324187"><ele>23.8</ele><time>2022-06-05T08:42:30.000Z</time></trkpt><trkpt lon="5.732929" lat="51.324119"><ele>24</ele><time>2022-06-05T08:42:31.000Z</time></trkpt><trkpt lon="5.732944" lat="51.324064"><ele>24</ele><time>2022-06-05T08:42:32.000Z</time></trkpt><trkpt lon="5.732965" lat="51.323991"><ele>24</ele><time>2022-06-05T08:42:33.000Z</time></trkpt><trkpt lon="5.732984" lat="51.323914"><ele>24</ele><time>2022-06-05T08:42:34.000Z</time></trkpt><trkpt lon="5.733004" lat="51.323843"><ele>24</ele><time>2022-06-05T08:42:35.000Z</time></trkpt><trkpt lon="5.733024" lat="51.323774"><ele>24</ele><time>2022-06-05T08:42:36.000Z</time></trkpt><trkpt lon="5.733041" lat="51.323702"><ele>24</ele><time>2022-06-05T08:42:37.000Z</time></trkpt><trkpt lon="5.733061" lat="51.323637"><ele>24</ele><time>2022-06-05T08:42:38.000Z</time></trkpt><trkpt lon="5.733079" lat="51.323569"><ele>24</ele><time>2022-06-05T08:42:39.000Z</time></trkpt><trkpt lon="5.733095" lat="51.323504"><ele>23.8</ele><time>2022-06-05T08:42:40.000Z</time></trkpt><trkpt lon="5.733115" lat="51.323433"><ele>23.8</ele><time>2022-06-05T08:42:41.000Z</time></trkpt><trkpt lon="5.733134" lat="51.323363"><ele>23.8</ele><time>2022-06-05T08:42:42.000Z</time></trkpt><trkpt lon="5.733153" lat="51.323294"><ele>23.8</ele><time>2022-06-05T08:42:43.000Z</time></trkpt><trkpt lon="5.733171" lat="51.323226"><ele>23.8</ele><time>2022-06-05T08:42:44.000Z</time></trkpt><trkpt lon="5.733189" lat="51.323157"><ele>23.8</ele><time>2022-06-05T08:42:45.000Z</time></trkpt><trkpt lon="5.733209" lat="51.32309"><ele>23.8</ele><time>2022-06-05T08:42:46.000Z</time></trkpt><trkpt lon="5.733229" lat="51.323019"><ele>23.8</ele><time>2022-06-05T08:42:47.000Z</time></trkpt><trkpt lon="5.733248" lat="51.322951"><ele>23.8</ele><time>2022-06-05T08:42:48.000Z</time></trkpt><trkpt lon="5.733266" lat="51.322883"><ele>23.8</ele><time>2022-06-05T08:42:49.000Z</time></trkpt><trkpt lon="5.733286" lat="51.322814"><ele>23.6</ele><time>2022-06-05T08:42:50.000Z</time></trkpt><trkpt lon="5.733306" lat="51.322743"><ele>23.6</ele><time>2022-06-05T08:42:51.000Z</time></trkpt><trkpt lon="5.733326" lat="51.322672"><ele>23.6</ele><time>2022-06-05T08:42:52.000Z</time></trkpt><trkpt lon="5.733344" lat="51.322604"><ele>23.6</ele><time>2022-06-05T08:42:53.000Z</time></trkpt><trkpt lon="5.733364" lat="51.322535"><ele>23.6</ele><time>2022-06-05T08:42:54.000Z</time></trkpt><trkpt lon="5.733386" lat="51.322466"><ele>23.6</ele><time>2022-06-05T08:42:55.000Z</time></trkpt><trkpt lon="5.733404" lat="51.322398"><ele>23.6</ele><time>2022-06-05T08:42:56.000Z</time></trkpt><trkpt lon="5.733421" lat="51.322329"><ele>23.6</ele><time>2022-06-05T08:42:57.000Z</time></trkpt><trkpt lon="5.733441" lat="51.322261"><ele>23.4</ele><time>2022-06-05T08:42:58.000Z</time></trkpt><trkpt lon="5.733462" lat="51.32219"><ele>23.2</ele><time>2022-06-05T08:42:59.000Z</time></trkpt><trkpt lon="5.73348" lat="51.322124"><ele>23.4</ele><time>2022-06-05T08:43:00.000Z</time></trkpt><trkpt lon="5.733499" lat="51.322051"><ele>23.4</ele><time>2022-06-05T08:43:01.000Z</time></trkpt><trkpt lon="5.733521" lat="51.321986"><ele>23.4</ele><time>2022-06-05T08:43:02.000Z</time></trkpt><trkpt lon="5.733543" lat="51.321914"><ele>23.4</ele><time>2022-06-05T08:43:03.000Z</time></trkpt><trkpt lon="5.733562" lat="51.321846"><ele>23.4</ele><time>2022-06-05T08:43:04.000Z</time></trkpt><trkpt lon="5.733581" lat="51.321775"><ele>23.4</ele><time>2022-06-05T08:43:05.000Z</time></trkpt><trkpt lon="5.733601" lat="51.321707"><ele>23.6</ele><time>2022-06-05T08:43:06.000Z</time></trkpt><trkpt lon="5.733621" lat="51.321638"><ele>23.6</ele><time>2022-06-05T08:43:07.000Z</time></trkpt><trkpt lon="5.733641" lat="51.321571"><ele>23.6</ele><time>2022-06-05T08:43:08.000Z</time></trkpt><trkpt lon="5.733661" lat="51.321502"><ele>23.6</ele><time>2022-06-05T08:43:09.000Z</time></trkpt><trkpt lon="5.733678" lat="51.321437"><ele>23.6</ele><time>2022-06-05T08:43:10.000Z</time></trkpt><trkpt lon="5.733698" lat="51.321372"><ele>23.6</ele><time>2022-06-05T08:43:11.000Z</time></trkpt><trkpt lon="5.733716" lat="51.321307"><ele>23.6</ele><time>2022-06-05T08:43:12.000Z</time></trkpt><trkpt lon="5.733738" lat="51.321235"><ele>23.8</ele><time>2022-06-05T08:43:13.000Z</time></trkpt><trkpt lon="5.733755" lat="51.321169"><ele>23.8</ele><time>2022-06-05T08:43:14.000Z</time></trkpt><trkpt lon="5.733774" lat="51.321101"><ele>24</ele><time>2022-06-05T08:43:15.000Z</time></trkpt><trkpt lon="5.733794" lat="51.321038"><ele>24</ele><time>2022-06-05T08:43:16.000Z</time></trkpt><trkpt lon="5.733809" lat="51.320973"><ele>24</ele><time>2022-06-05T08:43:17.000Z</time></trkpt><trkpt lon="5.733828" lat="51.320899"><ele>24</ele><time>2022-06-05T08:43:18.000Z</time></trkpt><trkpt lon="5.733847" lat="51.320823"><ele>24</ele><time>2022-06-05T08:43:19.000Z</time></trkpt><trkpt lon="5.733866" lat="51.320753"><ele>23.8</ele><time>2022-06-05T08:43:20.000Z</time></trkpt><trkpt lon="5.733886" lat="51.320685"><ele>23.8</ele><time>2022-06-05T08:43:21.000Z</time></trkpt><trkpt lon="5.733906" lat="51.320612"><ele>23.8</ele><time>2022-06-05T08:43:22.000Z</time></trkpt><trkpt lon="5.733926" lat="51.320545"><ele>23.6</ele><time>2022-06-05T08:43:23.000Z</time></trkpt><trkpt lon="5.733942" lat="51.320481"><ele>23.6</ele><time>2022-06-05T08:43:24.000Z</time></trkpt><trkpt lon="5.73396" lat="51.320415"><ele>23.6</ele><time>2022-06-05T08:43:25.000Z</time></trkpt><trkpt lon="5.733983" lat="51.320334"><ele>23.8</ele><time>2022-06-05T08:43:26.000Z</time></trkpt><trkpt lon="5.734004" lat="51.320262"><ele>23.6</ele><time>2022-06-05T08:43:27.000Z</time></trkpt><trkpt lon="5.734023" lat="51.32019"><ele>23.6</ele><time>2022-06-05T08:43:28.000Z</time></trkpt><trkpt lon="5.734042" lat="51.320121"><ele>23.8</ele><time>2022-06-05T08:43:29.000Z</time></trkpt><trkpt lon="5.734063" lat="51.320048"><ele>23.8</ele><time>2022-06-05T08:43:30.000Z</time></trkpt><trkpt lon="5.734081" lat="51.319979"><ele>23.8</ele><time>2022-06-05T08:43:31.000Z</time></trkpt><trkpt lon="5.734098" lat="51.31991"><ele>23.8</ele><time>2022-06-05T08:43:32.000Z</time></trkpt><trkpt lon="5.734116" lat="51.319838"><ele>24</ele><time>2022-06-05T08:43:33.000Z</time></trkpt><trkpt lon="5.734136" lat="51.319769"><ele>24.2</ele><time>2022-06-05T08:43:34.000Z</time></trkpt><trkpt lon="5.734158" lat="51.3197"><ele>24.4</ele><time>2022-06-05T08:43:35.000Z</time></trkpt><trkpt lon="5.734176" lat="51.319632"><ele>24.4</ele><time>2022-06-05T08:43:36.000Z</time></trkpt><trkpt lon="5.734194" lat="51.319564"><ele>24.2</ele><time>2022-06-05T08:43:37.000Z</time></trkpt><trkpt lon="5.734213" lat="51.319495"><ele>24.2</ele><time>2022-06-05T08:43:38.000Z</time></trkpt><trkpt lon="5.734233" lat="51.319426"><ele>24.2</ele><time>2022-06-05T08:43:39.000Z</time></trkpt><trkpt lon="5.734253" lat="51.319361"><ele>24.2</ele><time>2022-06-05T08:43:40.000Z</time></trkpt><trkpt lon="5.734273" lat="51.319292"><ele>24.2</ele><time>2022-06-05T08:43:41.000Z</time></trkpt><trkpt lon="5.734296" lat="51.319225"><ele>24.2</ele><time>2022-06-05T08:43:42.000Z</time></trkpt><trkpt lon="5.734317" lat="51.319162"><ele>24.2</ele><time>2022-06-05T08:43:43.000Z</time></trkpt><trkpt lon="5.734341" lat="51.319094"><ele>24.2</ele><time>2022-06-05T08:43:44.000Z</time></trkpt><trkpt lon="5.734364" lat="51.319026"><ele>24.4</ele><time>2022-06-05T08:43:45.000Z</time></trkpt><trkpt lon="5.734384" lat="51.318961"><ele>24.4</ele><time>2022-06-05T08:43:46.000Z</time></trkpt><trkpt lon="5.734402" lat="51.318893"><ele>24.4</ele><time>2022-06-05T08:43:47.000Z</time></trkpt><trkpt lon="5.734423" lat="51.318827"><ele>24.6</ele><time>2022-06-05T08:43:48.000Z</time></trkpt><trkpt lon="5.734444" lat="51.318754"><ele>24.6</ele><time>2022-06-05T08:43:49.000Z</time></trkpt><trkpt lon="5.734465" lat="51.318689"><ele>24.8</ele><time>2022-06-05T08:43:50.000Z</time></trkpt><trkpt lon="5.734484" lat="51.318621"><ele>24.8</ele><time>2022-06-05T08:43:51.000Z</time></trkpt><trkpt lon="5.7345" lat="51.318561"><ele>24.8</ele><time>2022-06-05T08:43:52.000Z</time></trkpt><trkpt lon="5.734521" lat="51.318484"><ele>24.6</ele><time>2022-06-05T08:43:53.000Z</time></trkpt><trkpt lon="5.734542" lat="51.318413"><ele>24.6</ele><time>2022-06-05T08:43:54.000Z</time></trkpt><trkpt lon="5.734565" lat="51.31834"><ele>24.6</ele><time>2022-06-05T08:43:55.000Z</time></trkpt><trkpt lon="5.734587" lat="51.318273"><ele>24.6</ele><time>2022-06-05T08:43:56.000Z</time></trkpt><trkpt lon="5.734608" lat="51.318198"><ele>24.6</ele><time>2022-06-05T08:43:57.000Z</time></trkpt><trkpt lon="5.734624" lat="51.318131"><ele>24.6</ele><time>2022-06-05T08:43:58.000Z</time></trkpt><trkpt lon="5.734643" lat="51.318056"><ele>24.6</ele><time>2022-06-05T08:43:59.000Z</time></trkpt><trkpt lon="5.734661" lat="51.317988"><ele>24.6</ele><time>2022-06-05T08:44:00.000Z</time></trkpt><trkpt lon="5.734678" lat="51.317919"><ele>24.6</ele><time>2022-06-05T08:44:01.000Z</time></trkpt><trkpt lon="5.734696" lat="51.317851"><ele>24.6</ele><time>2022-06-05T08:44:02.000Z</time></trkpt><trkpt lon="5.734713" lat="51.317785"><ele>24.6</ele><time>2022-06-05T08:44:03.000Z</time></trkpt><trkpt lon="5.734736" lat="51.317724"><ele>24.6</ele><time>2022-06-05T08:44:04.000Z</time></trkpt><trkpt lon="5.734759" lat="51.317664"><ele>24.8</ele><time>2022-06-05T08:44:05.000Z</time></trkpt><trkpt lon="5.734777" lat="51.317604"><ele>24.8</ele><time>2022-06-05T08:44:06.000Z</time></trkpt><trkpt lon="5.734793" lat="51.317545"><ele>24.8</ele><time>2022-06-05T08:44:07.000Z</time></trkpt><trkpt lon="5.734808" lat="51.317488"><ele>25</ele><time>2022-06-05T08:44:08.000Z</time></trkpt><trkpt lon="5.734819" lat="51.317431"><ele>25</ele><time>2022-06-05T08:44:09.000Z</time></trkpt><trkpt lon="5.734836" lat="51.317374"><ele>24.8</ele><time>2022-06-05T08:44:10.000Z</time></trkpt><trkpt lon="5.734851" lat="51.31732"><ele>24.8</ele><time>2022-06-05T08:44:11.000Z</time></trkpt><trkpt lon="5.734868" lat="51.317259"><ele>24.6</ele><time>2022-06-05T08:44:12.000Z</time></trkpt><trkpt lon="5.734885" lat="51.317202"><ele>24.6</ele><time>2022-06-05T08:44:13.000Z</time></trkpt><trkpt lon="5.734904" lat="51.317137"><ele>24.8</ele><time>2022-06-05T08:44:14.000Z</time></trkpt><trkpt lon="5.734924" lat="51.317076"><ele>24.8</ele><time>2022-06-05T08:44:15.000Z</time></trkpt><trkpt lon="5.734941" lat="51.317015"><ele>24.8</ele><time>2022-06-05T08:44:16.000Z</time></trkpt><trkpt lon="5.734963" lat="51.316954"><ele>24.8</ele><time>2022-06-05T08:44:17.000Z</time></trkpt><trkpt lon="5.734982" lat="51.31689"><ele>24.8</ele><time>2022-06-05T08:44:18.000Z</time></trkpt><trkpt lon="5.735003" lat="51.316828"><ele>24.8</ele><time>2022-06-05T08:44:19.000Z</time></trkpt><trkpt lon="5.735023" lat="51.316767"><ele>24.8</ele><time>2022-06-05T08:44:20.000Z</time></trkpt><trkpt lon="5.735043" lat="51.316703"><ele>24.8</ele><time>2022-06-05T08:44:21.000Z</time></trkpt><trkpt lon="5.735063" lat="51.316634"><ele>24.8</ele><time>2022-06-05T08:44:22.000Z</time></trkpt><trkpt lon="5.735082" lat="51.316567"><ele>24.6</ele><time>2022-06-05T08:44:23.000Z</time></trkpt><trkpt lon="5.735101" lat="51.316496"><ele>24.6</ele><time>2022-06-05T08:44:24.000Z</time></trkpt><trkpt lon="5.735119" lat="51.316428"><ele>24.8</ele><time>2022-06-05T08:44:25.000Z</time></trkpt><trkpt lon="5.735135" lat="51.316359"><ele>24.6</ele><time>2022-06-05T08:44:26.000Z</time></trkpt><trkpt lon="5.735149" lat="51.316294"><ele>24.6</ele><time>2022-06-05T08:44:27.000Z</time></trkpt><trkpt lon="5.735166" lat="51.316225"><ele>24.6</ele><time>2022-06-05T08:44:28.000Z</time></trkpt><trkpt lon="5.735182" lat="51.316158"><ele>24.6</ele><time>2022-06-05T08:44:29.000Z</time></trkpt><trkpt lon="5.735198" lat="51.316088"><ele>24.4</ele><time>2022-06-05T08:44:30.000Z</time></trkpt><trkpt lon="5.735215" lat="51.316022"><ele>24.4</ele><time>2022-06-05T08:44:31.000Z</time></trkpt><trkpt lon="5.735231" lat="51.315955"><ele>24.6</ele><time>2022-06-05T08:44:32.000Z</time></trkpt><trkpt lon="5.735249" lat="51.315883"><ele>24.6</ele><time>2022-06-05T08:44:33.000Z</time></trkpt><trkpt lon="5.735269" lat="51.315817"><ele>24.6</ele><time>2022-06-05T08:44:34.000Z</time></trkpt><trkpt lon="5.735289" lat="51.315751"><ele>24.6</ele><time>2022-06-05T08:44:35.000Z</time></trkpt><trkpt lon="5.735306" lat="51.315681"><ele>24.6</ele><time>2022-06-05T08:44:36.000Z</time></trkpt><trkpt lon="5.735326" lat="51.315612"><ele>24.6</ele><time>2022-06-05T08:44:37.000Z</time></trkpt><trkpt lon="5.735348" lat="51.315542"><ele>24.6</ele><time>2022-06-05T08:44:38.000Z</time></trkpt><trkpt lon="5.735366" lat="51.31547"><ele>24.6</ele><time>2022-06-05T08:44:39.000Z</time></trkpt><trkpt lon="5.735383" lat="51.315402"><ele>24.6</ele><time>2022-06-05T08:44:40.000Z</time></trkpt><trkpt lon="5.735401" lat="51.315333"><ele>24.6</ele><time>2022-06-05T08:44:41.000Z</time></trkpt><trkpt lon="5.735416" lat="51.315265"><ele>24.6</ele><time>2022-06-05T08:44:42.000Z</time></trkpt><trkpt lon="5.735434" lat="51.315198"><ele>24.8</ele><time>2022-06-05T08:44:43.000Z</time></trkpt><trkpt lon="5.735449" lat="51.315124"><ele>24.8</ele><time>2022-06-05T08:44:44.000Z</time></trkpt><trkpt lon="5.735466" lat="51.315054"><ele>24.8</ele><time>2022-06-05T08:44:45.000Z</time></trkpt><trkpt lon="5.735484" lat="51.314986"><ele>24.8</ele><time>2022-06-05T08:44:46.000Z</time></trkpt><trkpt lon="5.735498" lat="51.314922"><ele>24.8</ele><time>2022-06-05T08:44:47.000Z</time></trkpt><trkpt lon="5.735514" lat="51.314851"><ele>24.8</ele><time>2022-06-05T08:44:48.000Z</time></trkpt><trkpt lon="5.735535" lat="51.31478"><ele>24.8</ele><time>2022-06-05T08:44:49.000Z</time></trkpt><trkpt lon="5.735552" lat="51.31471"><ele>24.8</ele><time>2022-06-05T08:44:50.000Z</time></trkpt><trkpt lon="5.735571" lat="51.314643"><ele>25</ele><time>2022-06-05T08:44:51.000Z</time></trkpt><trkpt lon="5.735591" lat="51.314574"><ele>25</ele><time>2022-06-05T08:44:52.000Z</time></trkpt><trkpt lon="5.735612" lat="51.314509"><ele>25</ele><time>2022-06-05T08:44:53.000Z</time></trkpt><trkpt lon="5.735631" lat="51.314437"><ele>25</ele><time>2022-06-05T08:44:54.000Z</time></trkpt><trkpt lon="5.735649" lat="51.314369"><ele>25</ele><time>2022-06-05T08:44:55.000Z</time></trkpt><trkpt lon="5.735666" lat="51.314303"><ele>25</ele><time>2022-06-05T08:44:56.000Z</time></trkpt><trkpt lon="5.735686" lat="51.314234"><ele>25</ele><time>2022-06-05T08:44:57.000Z</time></trkpt><trkpt lon="5.735704" lat="51.314169"><ele>25</ele><time>2022-06-05T08:44:58.000Z</time></trkpt><trkpt lon="5.735723" lat="51.314101"><ele>25</ele><time>2022-06-05T08:44:59.000Z</time></trkpt><trkpt lon="5.735741" lat="51.314035"><ele>25.2</ele><time>2022-06-05T08:45:00.000Z</time></trkpt><trkpt lon="5.73576" lat="51.313972"><ele>25.2</ele><time>2022-06-05T08:45:01.000Z</time></trkpt><trkpt lon="5.735782" lat="51.313898"><ele>25.2</ele><time>2022-06-05T08:45:02.000Z</time></trkpt><trkpt lon="5.735801" lat="51.313831"><ele>25</ele><time>2022-06-05T08:45:03.000Z</time></trkpt><trkpt lon="5.735819" lat="51.313766"><ele>25</ele><time>2022-06-05T08:45:04.000Z</time></trkpt><trkpt lon="5.735838" lat="51.313696"><ele>25.2</ele><time>2022-06-05T08:45:05.000Z</time></trkpt><trkpt lon="5.735858" lat="51.313628"><ele>25.2</ele><time>2022-06-05T08:45:06.000Z</time></trkpt><trkpt lon="5.735877" lat="51.31356"><ele>25.2</ele><time>2022-06-05T08:45:07.000Z</time></trkpt><trkpt lon="5.735894" lat="51.313495"><ele>25.2</ele><time>2022-06-05T08:45:08.000Z</time></trkpt><trkpt lon="5.735913" lat="51.313425"><ele>25.2</ele><time>2022-06-05T08:45:09.000Z</time></trkpt><trkpt lon="5.735929" lat="51.313361"><ele>25.2</ele><time>2022-06-05T08:45:10.000Z</time></trkpt><trkpt lon="5.735948" lat="51.313292"><ele>25.2</ele><time>2022-06-05T08:45:11.000Z</time></trkpt><trkpt lon="5.735966" lat="51.313224"><ele>25.2</ele><time>2022-06-05T08:45:12.000Z</time></trkpt><trkpt lon="5.735982" lat="51.313165"><ele>25.2</ele><time>2022-06-05T08:45:13.000Z</time></trkpt><trkpt lon="5.736004" lat="51.31309"><ele>25.2</ele><time>2022-06-05T08:45:14.000Z</time></trkpt><trkpt lon="5.736021" lat="51.313032"><ele>25.4</ele><time>2022-06-05T08:45:15.000Z</time></trkpt><trkpt lon="5.736041" lat="51.312957"><ele>25.4</ele><time>2022-06-05T08:45:16.000Z</time></trkpt><trkpt lon="5.736057" lat="51.312889"><ele>25.4</ele><time>2022-06-05T08:45:17.000Z</time></trkpt><trkpt lon="5.736076" lat="51.312819"><ele>25.4</ele><time>2022-06-05T08:45:18.000Z</time></trkpt><trkpt lon="5.736096" lat="51.312755"><ele>25.4</ele><time>2022-06-05T08:45:19.000Z</time></trkpt><trkpt lon="5.736114" lat="51.312686"><ele>25.4</ele><time>2022-06-05T08:45:20.000Z</time></trkpt><trkpt lon="5.736131" lat="51.312621"><ele>25.4</ele><time>2022-06-05T08:45:21.000Z</time></trkpt><trkpt lon="5.736151" lat="51.312556"><ele>25.2</ele><time>2022-06-05T08:45:22.000Z</time></trkpt><trkpt lon="5.736169" lat="51.312492"><ele>25.2</ele><time>2022-06-05T08:45:23.000Z</time></trkpt><trkpt lon="5.736187" lat="51.312432"><ele>25.2</ele><time>2022-06-05T08:45:24.000Z</time></trkpt><trkpt lon="5.736207" lat="51.312362"><ele>25.2</ele><time>2022-06-05T08:45:25.000Z</time></trkpt><trkpt lon="5.736224" lat="51.312295"><ele>25</ele><time>2022-06-05T08:45:26.000Z</time></trkpt><trkpt lon="5.73624" lat="51.312232"><ele>25</ele><time>2022-06-05T08:45:27.000Z</time></trkpt><trkpt lon="5.736261" lat="51.312161"><ele>24.8</ele><time>2022-06-05T08:45:28.000Z</time></trkpt><trkpt lon="5.736277" lat="51.312096"><ele>24.8</ele><time>2022-06-05T08:45:29.000Z</time></trkpt><trkpt lon="5.736294" lat="51.312031"><ele>24.6</ele><time>2022-06-05T08:45:30.000Z</time></trkpt><trkpt lon="5.736311" lat="51.311965"><ele>24.4</ele><time>2022-06-05T08:45:31.000Z</time></trkpt><trkpt lon="5.736324" lat="51.311902"><ele>24.4</ele><time>2022-06-05T08:45:32.000Z</time></trkpt><trkpt lon="5.73634" lat="51.311838"><ele>24.4</ele><time>2022-06-05T08:45:33.000Z</time></trkpt><trkpt lon="5.736359" lat="51.31177"><ele>24.6</ele><time>2022-06-05T08:45:34.000Z</time></trkpt><trkpt lon="5.736377" lat="51.311708"><ele>24.8</ele><time>2022-06-05T08:45:35.000Z</time></trkpt><trkpt lon="5.736395" lat="51.311642"><ele>25</ele><time>2022-06-05T08:45:36.000Z</time></trkpt><trkpt lon="5.736414" lat="51.311576"><ele>25</ele><time>2022-06-05T08:45:37.000Z</time></trkpt><trkpt lon="5.736433" lat="51.311507"><ele>25</ele><time>2022-06-05T08:45:38.000Z</time></trkpt><trkpt lon="5.736453" lat="51.311442"><ele>25</ele><time>2022-06-05T08:45:39.000Z</time></trkpt><trkpt lon="5.736473" lat="51.311374"><ele>24.8</ele><time>2022-06-05T08:45:40.000Z</time></trkpt><trkpt lon="5.736491" lat="51.311311"><ele>24.8</ele><time>2022-06-05T08:45:41.000Z</time></trkpt><trkpt lon="5.736515" lat="51.311245"><ele>24.8</ele><time>2022-06-05T08:45:42.000Z</time></trkpt><trkpt lon="5.736532" lat="51.311189"><ele>24.8</ele><time>2022-06-05T08:45:43.000Z</time></trkpt><trkpt lon="5.736551" lat="51.311118"><ele>24.8</ele><time>2022-06-05T08:45:44.000Z</time></trkpt><trkpt lon="5.736569" lat="51.311046"><ele>24.8</ele><time>2022-06-05T08:45:45.000Z</time></trkpt><trkpt lon="5.736588" lat="51.31098"><ele>24.8</ele><time>2022-06-05T08:45:46.000Z</time></trkpt><trkpt lon="5.736607" lat="51.310913"><ele>24.8</ele><time>2022-06-05T08:45:47.000Z</time></trkpt><trkpt lon="5.736624" lat="51.310852"><ele>25</ele><time>2022-06-05T08:45:48.000Z</time></trkpt><trkpt lon="5.736643" lat="51.310778"><ele>25</ele><time>2022-06-05T08:45:49.000Z</time></trkpt><trkpt lon="5.736663" lat="51.310714"><ele>25</ele><time>2022-06-05T08:45:50.000Z</time></trkpt><trkpt lon="5.736679" lat="51.310648"><ele>25</ele><time>2022-06-05T08:45:51.000Z</time></trkpt><trkpt lon="5.736697" lat="51.31058"><ele>25.2</ele><time>2022-06-05T08:45:52.000Z</time></trkpt><trkpt lon="5.736716" lat="51.310515"><ele>25.2</ele><time>2022-06-05T08:45:53.000Z</time></trkpt><trkpt lon="5.736734" lat="51.31045"><ele>25.2</ele><time>2022-06-05T08:45:54.000Z</time></trkpt><trkpt lon="5.736753" lat="51.310382"><ele>25.2</ele><time>2022-06-05T08:45:55.000Z</time></trkpt><trkpt lon="5.736773" lat="51.310313"><ele>25.2</ele><time>2022-06-05T08:45:56.000Z</time></trkpt><trkpt lon="5.736791" lat="51.310248"><ele>25.4</ele><time>2022-06-05T08:45:57.000Z</time></trkpt><trkpt lon="5.736808" lat="51.310186"><ele>25.4</ele><time>2022-06-05T08:45:58.000Z</time></trkpt><trkpt lon="5.736829" lat="51.310111"><ele>25.4</ele><time>2022-06-05T08:45:59.000Z</time></trkpt><trkpt lon="5.736848" lat="51.310046"><ele>25.6</ele><time>2022-06-05T08:46:00.000Z</time></trkpt><trkpt lon="5.736865" lat="51.309977"><ele>25.6</ele><time>2022-06-05T08:46:01.000Z</time></trkpt><trkpt lon="5.736881" lat="51.309909"><ele>25.6</ele><time>2022-06-05T08:46:02.000Z</time></trkpt><trkpt lon="5.736899" lat="51.30984"><ele>25.6</ele><time>2022-06-05T08:46:03.000Z</time></trkpt><trkpt lon="5.736918" lat="51.309771"><ele>25.6</ele><time>2022-06-05T08:46:04.000Z</time></trkpt><trkpt lon="5.736936" lat="51.309703"><ele>25.6</ele><time>2022-06-05T08:46:05.000Z</time></trkpt><trkpt lon="5.736952" lat="51.309638"><ele>25.6</ele><time>2022-06-05T08:46:06.000Z</time></trkpt><trkpt lon="5.736969" lat="51.309569"><ele>25.6</ele><time>2022-06-05T08:46:07.000Z</time></trkpt><trkpt lon="5.736987" lat="51.309502"><ele>25.6</ele><time>2022-06-05T08:46:08.000Z</time></trkpt><trkpt lon="5.737005" lat="51.309435"><ele>25.6</ele><time>2022-06-05T08:46:09.000Z</time></trkpt><trkpt lon="5.737027" lat="51.309364"><ele>25.6</ele><time>2022-06-05T08:46:10.000Z</time></trkpt><trkpt lon="5.737046" lat="51.309298"><ele>25.6</ele><time>2022-06-05T08:46:11.000Z</time></trkpt><trkpt lon="5.737066" lat="51.30923"><ele>25.6</ele><time>2022-06-05T08:46:12.000Z</time></trkpt><trkpt lon="5.737087" lat="51.309161"><ele>25.6</ele><time>2022-06-05T08:46:13.000Z</time></trkpt><trkpt lon="5.737107" lat="51.309096"><ele>25.6</ele><time>2022-06-05T08:46:14.000Z</time></trkpt><trkpt lon="5.737127" lat="51.309028"><ele>25.6</ele><time>2022-06-05T08:46:15.000Z</time></trkpt><trkpt lon="5.737153" lat="51.308962"><ele>25.4</ele><time>2022-06-05T08:46:16.000Z</time></trkpt><trkpt lon="5.737185" lat="51.308894"><ele>25.4</ele><time>2022-06-05T08:46:17.000Z</time></trkpt><trkpt lon="5.737225" lat="51.308829"><ele>25.2</ele><time>2022-06-05T08:46:18.000Z</time></trkpt><trkpt lon="5.737268" lat="51.308768"><ele>25.2</ele><time>2022-06-05T08:46:19.000Z</time></trkpt><trkpt lon="5.737312" lat="51.308703"><ele>25</ele><time>2022-06-05T08:46:20.000Z</time></trkpt><trkpt lon="5.737357" lat="51.308642"><ele>25</ele><time>2022-06-05T08:46:21.000Z</time></trkpt><trkpt lon="5.737402" lat="51.308582"><ele>25</ele><time>2022-06-05T08:46:22.000Z</time></trkpt><trkpt lon="5.737448" lat="51.30852"><ele>25</ele><time>2022-06-05T08:46:23.000Z</time></trkpt><trkpt lon="5.737493" lat="51.308459"><ele>25</ele><time>2022-06-05T08:46:24.000Z</time></trkpt><trkpt lon="5.737538" lat="51.308398"><ele>25.2</ele><time>2022-06-05T08:46:25.000Z</time></trkpt><trkpt lon="5.737582" lat="51.308342"><ele>25.2</ele><time>2022-06-05T08:46:26.000Z</time></trkpt><trkpt lon="5.737628" lat="51.30828"><ele>25.2</ele><time>2022-06-05T08:46:27.000Z</time></trkpt><trkpt lon="5.737673" lat="51.308223"><ele>25</ele><time>2022-06-05T08:46:28.000Z</time></trkpt><trkpt lon="5.737718" lat="51.308161"><ele>25</ele><time>2022-06-05T08:46:29.000Z</time></trkpt><trkpt lon="5.737763" lat="51.3081"><ele>25</ele><time>2022-06-05T08:46:30.000Z</time></trkpt><trkpt lon="5.73781" lat="51.308039"><ele>25</ele><time>2022-06-05T08:46:31.000Z</time></trkpt><trkpt lon="5.73786" lat="51.307982"><ele>25.2</ele><time>2022-06-05T08:46:32.000Z</time></trkpt><trkpt lon="5.737904" lat="51.307921"><ele>25.2</ele><time>2022-06-05T08:46:33.000Z</time></trkpt><trkpt lon="5.737951" lat="51.307856"><ele>25.2</ele><time>2022-06-05T08:46:34.000Z</time></trkpt><trkpt lon="5.737994" lat="51.307796"><ele>25.4</ele><time>2022-06-05T08:46:35.000Z</time></trkpt><trkpt lon="5.738038" lat="51.307734"><ele>25.4</ele><time>2022-06-05T08:46:36.000Z</time></trkpt><trkpt lon="5.738085" lat="51.307673"><ele>25.6</ele><time>2022-06-05T08:46:37.000Z</time></trkpt><trkpt lon="5.738131" lat="51.307609"><ele>25.6</ele><time>2022-06-05T08:46:38.000Z</time></trkpt><trkpt lon="5.738178" lat="51.307548"><ele>25.6</ele><time>2022-06-05T08:46:39.000Z</time></trkpt><trkpt lon="5.738226" lat="51.307483"><ele>25.6</ele><time>2022-06-05T08:46:40.000Z</time></trkpt><trkpt lon="5.738275" lat="51.307421"><ele>25.6</ele><time>2022-06-05T08:46:41.000Z</time></trkpt><trkpt lon="5.738321" lat="51.307361"><ele>25.4</ele><time>2022-06-05T08:46:42.000Z</time></trkpt><trkpt lon="5.738368" lat="51.307295"><ele>25.2</ele><time>2022-06-05T08:46:43.000Z</time></trkpt><trkpt lon="5.738413" lat="51.307234"><ele>25</ele><time>2022-06-05T08:46:44.000Z</time></trkpt><trkpt lon="5.738462" lat="51.307166"><ele>24.8</ele><time>2022-06-05T08:46:45.000Z</time></trkpt><trkpt lon="5.738508" lat="51.307104"><ele>25</ele><time>2022-06-05T08:46:46.000Z</time></trkpt><trkpt lon="5.738555" lat="51.307041"><ele>25</ele><time>2022-06-05T08:46:47.000Z</time></trkpt><trkpt lon="5.738599" lat="51.306982"><ele>25</ele><time>2022-06-05T08:46:48.000Z</time></trkpt><trkpt lon="5.73865" lat="51.306914"><ele>25.2</ele><time>2022-06-05T08:46:49.000Z</time></trkpt><trkpt lon="5.738695" lat="51.306855"><ele>25.4</ele><time>2022-06-05T08:46:50.000Z</time></trkpt><trkpt lon="5.738745" lat="51.306795"><ele>25.4</ele><time>2022-06-05T08:46:51.000Z</time></trkpt><trkpt lon="5.738791" lat="51.306735"><ele>25.6</ele><time>2022-06-05T08:46:52.000Z</time></trkpt><trkpt lon="5.738836" lat="51.306679"><ele>25.8</ele><time>2022-06-05T08:46:53.000Z</time></trkpt><trkpt lon="5.738885" lat="51.306617"><ele>25.8</ele><time>2022-06-05T08:46:54.000Z</time></trkpt><trkpt lon="5.73893" lat="51.306559"><ele>26</ele><time>2022-06-05T08:46:55.000Z</time></trkpt><trkpt lon="5.738976" lat="51.306499"><ele>25.8</ele><time>2022-06-05T08:46:56.000Z</time></trkpt><trkpt lon="5.739023" lat="51.306437"><ele>25.6</ele><time>2022-06-05T08:46:57.000Z</time></trkpt><trkpt lon="5.739067" lat="51.306376"><ele>25.6</ele><time>2022-06-05T08:46:58.000Z</time></trkpt><trkpt lon="5.739111" lat="51.306319"><ele>25.4</ele><time>2022-06-05T08:46:59.000Z</time></trkpt><trkpt lon="5.73916" lat="51.306258"><ele>25.4</ele><time>2022-06-05T08:47:00.000Z</time></trkpt><trkpt lon="5.739205" lat="51.3062"><ele>25.4</ele><time>2022-06-05T08:47:01.000Z</time></trkpt><trkpt lon="5.739249" lat="51.306136"><ele>25.4</ele><time>2022-06-05T08:47:02.000Z</time></trkpt><trkpt lon="5.739296" lat="51.306079"><ele>25.4</ele><time>2022-06-05T08:47:03.000Z</time></trkpt><trkpt lon="5.739343" lat="51.306017"><ele>25.4</ele><time>2022-06-05T08:47:04.000Z</time></trkpt><trkpt lon="5.739386" lat="51.305957"><ele>25.6</ele><time>2022-06-05T08:47:05.000Z</time></trkpt><trkpt lon="5.739429" lat="51.305898"><ele>25.6</ele><time>2022-06-05T08:47:06.000Z</time></trkpt><trkpt lon="5.739476" lat="51.305831"><ele>25.8</ele><time>2022-06-05T08:47:07.000Z</time></trkpt><trkpt lon="5.739525" lat="51.305773"><ele>25.6</ele><time>2022-06-05T08:47:08.000Z</time></trkpt><trkpt lon="5.73957" lat="51.305712"><ele>25.8</ele><time>2022-06-05T08:47:09.000Z</time></trkpt><trkpt lon="5.739612" lat="51.305652"><ele>25.6</ele><time>2022-06-05T08:47:10.000Z</time></trkpt><trkpt lon="5.739654" lat="51.305591"><ele>25.6</ele><time>2022-06-05T08:47:11.000Z</time></trkpt><trkpt lon="5.7397" lat="51.305529"><ele>25.6</ele><time>2022-06-05T08:47:12.000Z</time></trkpt><trkpt lon="5.739743" lat="51.305464"><ele>25.4</ele><time>2022-06-05T08:47:13.000Z</time></trkpt><trkpt lon="5.739787" lat="51.305404"><ele>25.4</ele><time>2022-06-05T08:47:14.000Z</time></trkpt><trkpt lon="5.73983" lat="51.305342"><ele>25.6</ele><time>2022-06-05T08:47:15.000Z</time></trkpt><trkpt lon="5.739875" lat="51.305285"><ele>25.6</ele><time>2022-06-05T08:47:16.000Z</time></trkpt><trkpt lon="5.73992" lat="51.305224"><ele>25.6</ele><time>2022-06-05T08:47:17.000Z</time></trkpt><trkpt lon="5.739963" lat="51.305163"><ele>25.6</ele><time>2022-06-05T08:47:18.000Z</time></trkpt><trkpt lon="5.74001" lat="51.305102"><ele>25.6</ele><time>2022-06-05T08:47:19.000Z</time></trkpt><trkpt lon="5.740053" lat="51.305041"><ele>25.6</ele><time>2022-06-05T08:47:20.000Z</time></trkpt><trkpt lon="5.740097" lat="51.30498"><ele>25.6</ele><time>2022-06-05T08:47:21.000Z</time></trkpt><trkpt lon="5.74014" lat="51.304918"><ele>25.6</ele><time>2022-06-05T08:47:22.000Z</time></trkpt><trkpt lon="5.740185" lat="51.304858"><ele>25.4</ele><time>2022-06-05T08:47:23.000Z</time></trkpt><trkpt lon="5.74023" lat="51.304797"><ele>25.2</ele><time>2022-06-05T08:47:24.000Z</time></trkpt><trkpt lon="5.740273" lat="51.304736"><ele>25.4</ele><time>2022-06-05T08:47:25.000Z</time></trkpt><trkpt lon="5.740319" lat="51.304676"><ele>25.4</ele><time>2022-06-05T08:47:26.000Z</time></trkpt><trkpt lon="5.740367" lat="51.304614"><ele>25.6</ele><time>2022-06-05T08:47:27.000Z</time></trkpt><trkpt lon="5.740413" lat="51.304553"><ele>25.6</ele><time>2022-06-05T08:47:28.000Z</time></trkpt><trkpt lon="5.74046" lat="51.304496"><ele>25.6</ele><time>2022-06-05T08:47:29.000Z</time></trkpt><trkpt lon="5.740508" lat="51.304435"><ele>25.4</ele><time>2022-06-05T08:47:30.000Z</time></trkpt><trkpt lon="5.740558" lat="51.304373"><ele>25.2</ele><time>2022-06-05T08:47:31.000Z</time></trkpt><trkpt lon="5.740608" lat="51.304316"><ele>25.4</ele><time>2022-06-05T08:47:32.000Z</time></trkpt><trkpt lon="5.740661" lat="51.304259"><ele>25.4</ele><time>2022-06-05T08:47:33.000Z</time></trkpt><trkpt lon="5.740714" lat="51.304202"><ele>25.4</ele><time>2022-06-05T08:47:34.000Z</time></trkpt><trkpt lon="5.740771" lat="51.304144"><ele>25.6</ele><time>2022-06-05T08:47:35.000Z</time></trkpt><trkpt lon="5.740828" lat="51.304087"><ele>25.4</ele><time>2022-06-05T08:47:36.000Z</time></trkpt><trkpt lon="5.740883" lat="51.304035"><ele>25.6</ele><time>2022-06-05T08:47:37.000Z</time></trkpt><trkpt lon="5.740943" lat="51.303976"><ele>25.6</ele><time>2022-06-05T08:47:38.000Z</time></trkpt><trkpt lon="5.741001" lat="51.303919"><ele>25.8</ele><time>2022-06-05T08:47:39.000Z</time></trkpt><trkpt lon="5.741059" lat="51.303866"><ele>25.8</ele><time>2022-06-05T08:47:40.000Z</time></trkpt><trkpt lon="5.741117" lat="51.303809"><ele>25.6</ele><time>2022-06-05T08:47:41.000Z</time></trkpt><trkpt lon="5.741176" lat="51.303752"><ele>25.6</ele><time>2022-06-05T08:47:42.000Z</time></trkpt><trkpt lon="5.741233" lat="51.303694"><ele>25.6</ele><time>2022-06-05T08:47:43.000Z</time></trkpt><trkpt lon="5.741288" lat="51.303641"><ele>25.6</ele><time>2022-06-05T08:47:44.000Z</time></trkpt><trkpt lon="5.741342" lat="51.303583"><ele>25.6</ele><time>2022-06-05T08:47:45.000Z</time></trkpt><trkpt lon="5.741392" lat="51.30353"><ele>25.4</ele><time>2022-06-05T08:47:46.000Z</time></trkpt><trkpt lon="5.741438" lat="51.303473"><ele>25.4</ele><time>2022-06-05T08:47:47.000Z</time></trkpt><trkpt lon="5.741484" lat="51.30342"><ele>25.4</ele><time>2022-06-05T08:47:48.000Z</time></trkpt><trkpt lon="5.741532" lat="51.303362"><ele>25.2</ele><time>2022-06-05T08:47:49.000Z</time></trkpt><trkpt lon="5.741577" lat="51.303306"><ele>25.4</ele><time>2022-06-05T08:47:50.000Z</time></trkpt><trkpt lon="5.74162" lat="51.303244"><ele>25.4</ele><time>2022-06-05T08:47:51.000Z</time></trkpt><trkpt lon="5.741659" lat="51.303183"><ele>25.6</ele><time>2022-06-05T08:47:52.000Z</time></trkpt><trkpt lon="5.741696" lat="51.303125"><ele>25.8</ele><time>2022-06-05T08:47:53.000Z</time></trkpt><trkpt lon="5.74173" lat="51.303069"><ele>25.8</ele><time>2022-06-05T08:47:54.000Z</time></trkpt><trkpt lon="5.741764" lat="51.303008"><ele>26</ele><time>2022-06-05T08:47:55.000Z</time></trkpt><trkpt lon="5.741784" lat="51.302939"><ele>26</ele><time>2022-06-05T08:47:56.000Z</time></trkpt><trkpt lon="5.741796" lat="51.30287"><ele>26</ele><time>2022-06-05T08:47:57.000Z</time></trkpt><trkpt lon="5.741798" lat="51.302802"><ele>26.2</ele><time>2022-06-05T08:47:58.000Z</time></trkpt><trkpt lon="5.741795" lat="51.302737"><ele>26.2</ele><time>2022-06-05T08:47:59.000Z</time></trkpt><trkpt lon="5.741789" lat="51.302668"><ele>26.2</ele><time>2022-06-05T08:48:00.000Z</time></trkpt><trkpt lon="5.741779" lat="51.3026"><ele>26.4</ele><time>2022-06-05T08:48:01.000Z</time></trkpt><trkpt lon="5.741769" lat="51.302534"><ele>26.2</ele><time>2022-06-05T08:48:02.000Z</time></trkpt><trkpt lon="5.741756" lat="51.302466"><ele>26.4</ele><time>2022-06-05T08:48:03.000Z</time></trkpt><trkpt lon="5.741744" lat="51.302399"><ele>26.4</ele><time>2022-06-05T08:48:04.000Z</time></trkpt><trkpt lon="5.741734" lat="51.302332"><ele>26.4</ele><time>2022-06-05T08:48:05.000Z</time></trkpt><trkpt lon="5.741724" lat="51.302264"><ele>26.6</ele><time>2022-06-05T08:48:06.000Z</time></trkpt><trkpt lon="5.741712" lat="51.3022"><ele>26.6</ele><time>2022-06-05T08:48:07.000Z</time></trkpt><trkpt lon="5.741702" lat="51.30213"><ele>26.4</ele><time>2022-06-05T08:48:08.000Z</time></trkpt><trkpt lon="5.741694" lat="51.302066"><ele>26.4</ele><time>2022-06-05T08:48:09.000Z</time></trkpt><trkpt lon="5.74169" lat="51.302001"><ele>26.4</ele><time>2022-06-05T08:48:10.000Z</time></trkpt><trkpt lon="5.741682" lat="51.301936"><ele>26.4</ele><time>2022-06-05T08:48:11.000Z</time></trkpt><trkpt lon="5.741669" lat="51.301871"><ele>26.4</ele><time>2022-06-05T08:48:12.000Z</time></trkpt><trkpt lon="5.741652" lat="51.301802"><ele>26.4</ele><time>2022-06-05T08:48:13.000Z</time></trkpt><trkpt lon="5.741634" lat="51.301738"><ele>26.2</ele><time>2022-06-05T08:48:14.000Z</time></trkpt><trkpt lon="5.741612" lat="51.30168"><ele>26.4</ele><time>2022-06-05T08:48:15.000Z</time></trkpt><trkpt lon="5.741589" lat="51.301619"><ele>26.2</ele><time>2022-06-05T08:48:16.000Z</time></trkpt><trkpt lon="5.741566" lat="51.301554"><ele>26.2</ele><time>2022-06-05T08:48:17.000Z</time></trkpt><trkpt lon="5.741543" lat="51.301493"><ele>26</ele><time>2022-06-05T08:48:18.000Z</time></trkpt><trkpt lon="5.741513" lat="51.301428"><ele>26</ele><time>2022-06-05T08:48:19.000Z</time></trkpt><trkpt lon="5.741478" lat="51.301367"><ele>26</ele><time>2022-06-05T08:48:20.000Z</time></trkpt><trkpt lon="5.741443" lat="51.301306"><ele>26</ele><time>2022-06-05T08:48:21.000Z</time></trkpt><trkpt lon="5.741411" lat="51.30125"><ele>26</ele><time>2022-06-05T08:48:22.000Z</time></trkpt><trkpt lon="5.741386" lat="51.301195"><ele>26.4</ele><time>2022-06-05T08:48:23.000Z</time></trkpt><trkpt lon="5.741381" lat="51.301144"><ele>26.4</ele><time>2022-06-05T08:48:24.000Z</time></trkpt><trkpt lon="5.741385" lat="51.30109"><ele>26.4</ele><time>2022-06-05T08:48:25.000Z</time></trkpt><trkpt lon="5.741379" lat="51.301035"><ele>26.6</ele><time>2022-06-05T08:48:26.000Z</time></trkpt><trkpt lon="5.741351" lat="51.300989"><ele>26.6</ele><time>2022-06-05T08:48:27.000Z</time></trkpt><trkpt lon="5.741295" lat="51.300954"><ele>26.6</ele><time>2022-06-05T08:48:28.000Z</time></trkpt><trkpt lon="5.741221" lat="51.30092"><ele>26.6</ele><time>2022-06-05T08:48:29.000Z</time></trkpt><trkpt lon="5.741136" lat="51.300886"><ele>26.6</ele><time>2022-06-05T08:48:30.000Z</time></trkpt><trkpt lon="5.741051" lat="51.300844"><ele>26.8</ele><time>2022-06-05T08:48:31.000Z</time></trkpt><trkpt lon="5.740971" lat="51.300798"><ele>26.8</ele><time>2022-06-05T08:48:32.000Z</time></trkpt><trkpt lon="5.740888" lat="51.300753"><ele>26.8</ele><time>2022-06-05T08:48:33.000Z</time></trkpt><trkpt lon="5.740806" lat="51.30071"><ele>26.8</ele><time>2022-06-05T08:48:34.000Z</time></trkpt><trkpt lon="5.740728" lat="51.300669"><ele>26.6</ele><time>2022-06-05T08:48:35.000Z</time></trkpt><trkpt lon="5.740653" lat="51.300634"><ele>26.6</ele><time>2022-06-05T08:48:36.000Z</time></trkpt><trkpt lon="5.740579" lat="51.300599"><ele>26.6</ele><time>2022-06-05T08:48:37.000Z</time></trkpt><trkpt lon="5.740497" lat="51.300562"><ele>26.8</ele><time>2022-06-05T08:48:38.000Z</time></trkpt><trkpt lon="5.740405" lat="51.30052"><ele>26.8</ele><time>2022-06-05T08:48:39.000Z</time></trkpt><trkpt lon="5.740312" lat="51.300478"><ele>26.8</ele><time>2022-06-05T08:48:40.000Z</time></trkpt><trkpt lon="5.740219" lat="51.300436"><ele>26.8</ele><time>2022-06-05T08:48:41.000Z</time></trkpt><trkpt lon="5.74013" lat="51.30039"><ele>26.8</ele><time>2022-06-05T08:48:42.000Z</time></trkpt><trkpt lon="5.740043" lat="51.300348"><ele>26.6</ele><time>2022-06-05T08:48:43.000Z</time></trkpt><trkpt lon="5.739951" lat="51.300306"><ele>26.6</ele><time>2022-06-05T08:48:44.000Z</time></trkpt><trkpt lon="5.739855" lat="51.300264"><ele>26.6</ele><time>2022-06-05T08:48:45.000Z</time></trkpt><trkpt lon="5.739762" lat="51.300222"><ele>26.8</ele><time>2022-06-05T08:48:46.000Z</time></trkpt><trkpt lon="5.739675" lat="51.300172"><ele>26.8</ele><time>2022-06-05T08:48:47.000Z</time></trkpt><trkpt lon="5.739597" lat="51.300127"><ele>26.8</ele><time>2022-06-05T08:48:48.000Z</time></trkpt><trkpt lon="5.739516" lat="51.300074"><ele>26.8</ele><time>2022-06-05T08:48:49.000Z</time></trkpt><trkpt lon="5.73944" lat="51.300021"><ele>26.8</ele><time>2022-06-05T08:48:50.000Z</time></trkpt><trkpt lon="5.739366" lat="51.299967"><ele>27</ele><time>2022-06-05T08:48:51.000Z</time></trkpt><trkpt lon="5.739296" lat="51.299914"><ele>27</ele><time>2022-06-05T08:48:52.000Z</time></trkpt><trkpt lon="5.739233" lat="51.299856"><ele>27.2</ele><time>2022-06-05T08:48:53.000Z</time></trkpt><trkpt lon="5.739176" lat="51.299797"><ele>27.2</ele><time>2022-06-05T08:48:54.000Z</time></trkpt><trkpt lon="5.739119" lat="51.299742"><ele>27.2</ele><time>2022-06-05T08:48:55.000Z</time></trkpt><trkpt lon="5.739061" lat="51.299681"><ele>27</ele><time>2022-06-05T08:48:56.000Z</time></trkpt><trkpt lon="5.73901" lat="51.29962"><ele>27.2</ele><time>2022-06-05T08:48:57.000Z</time></trkpt><trkpt lon="5.738967" lat="51.299559"><ele>27.2</ele><time>2022-06-05T08:48:58.000Z</time></trkpt><trkpt lon="5.738917" lat="51.299491"><ele>27</ele><time>2022-06-05T08:48:59.000Z</time></trkpt><trkpt lon="5.738873" lat="51.299427"><ele>27</ele><time>2022-06-05T08:49:00.000Z</time></trkpt><trkpt lon="5.73883" lat="51.299361"><ele>27</ele><time>2022-06-05T08:49:01.000Z</time></trkpt><trkpt lon="5.738788" lat="51.299296"><ele>27</ele><time>2022-06-05T08:49:02.000Z</time></trkpt><trkpt lon="5.738748" lat="51.299231"><ele>27.2</ele><time>2022-06-05T08:49:03.000Z</time></trkpt><trkpt lon="5.738708" lat="51.299174"><ele>27</ele><time>2022-06-05T08:49:04.000Z</time></trkpt><trkpt lon="5.73867" lat="51.299113"><ele>26.8</ele><time>2022-06-05T08:49:05.000Z</time></trkpt><trkpt lon="5.738625" lat="51.299056"><ele>26.8</ele><time>2022-06-05T08:49:06.000Z</time></trkpt><trkpt lon="5.738576" lat="51.298999"><ele>26.8</ele><time>2022-06-05T08:49:07.000Z</time></trkpt><trkpt lon="5.738518" lat="51.298942"><ele>26.8</ele><time>2022-06-05T08:49:08.000Z</time></trkpt><trkpt lon="5.738456" lat="51.298887"><ele>26.8</ele><time>2022-06-05T08:49:09.000Z</time></trkpt><trkpt lon="5.738387" lat="51.298835"><ele>26.8</ele><time>2022-06-05T08:49:10.000Z</time></trkpt><trkpt lon="5.73831" lat="51.298785"><ele>26.8</ele><time>2022-06-05T08:49:11.000Z</time></trkpt><trkpt lon="5.738225" lat="51.298735"><ele>26.8</ele><time>2022-06-05T08:49:12.000Z</time></trkpt><trkpt lon="5.738136" lat="51.298685"><ele>26.8</ele><time>2022-06-05T08:49:13.000Z</time></trkpt><trkpt lon="5.738048" lat="51.298639"><ele>26.8</ele><time>2022-06-05T08:49:14.000Z</time></trkpt><trkpt lon="5.737958" lat="51.298593"><ele>26.8</ele><time>2022-06-05T08:49:15.000Z</time></trkpt><trkpt lon="5.737868" lat="51.298551"><ele>26.8</ele><time>2022-06-05T08:49:16.000Z</time></trkpt><trkpt lon="5.737779" lat="51.298506"><ele>26.8</ele><time>2022-06-05T08:49:17.000Z</time></trkpt><trkpt lon="5.737689" lat="51.298464"><ele>26.8</ele><time>2022-06-05T08:49:18.000Z</time></trkpt><trkpt lon="5.737599" lat="51.298422"><ele>26.8</ele><time>2022-06-05T08:49:19.000Z</time></trkpt><trkpt lon="5.737506" lat="51.298383"><ele>26.8</ele><time>2022-06-05T08:49:20.000Z</time></trkpt><trkpt lon="5.737415" lat="51.298341"><ele>26.8</ele><time>2022-06-05T08:49:21.000Z</time></trkpt><trkpt lon="5.737323" lat="51.298292"><ele>26.8</ele><time>2022-06-05T08:49:22.000Z</time></trkpt><trkpt lon="5.737235" lat="51.29825"><ele>26.8</ele><time>2022-06-05T08:49:23.000Z</time></trkpt><trkpt lon="5.737146" lat="51.298204"><ele>26.8</ele><time>2022-06-05T08:49:24.000Z</time></trkpt><trkpt lon="5.737057" lat="51.298162"><ele>26.8</ele><time>2022-06-05T08:49:25.000Z</time></trkpt><trkpt lon="5.736971" lat="51.298121"><ele>26.8</ele><time>2022-06-05T08:49:26.000Z</time></trkpt><trkpt lon="5.736882" lat="51.298078"><ele>27</ele><time>2022-06-05T08:49:27.000Z</time></trkpt><trkpt lon="5.736792" lat="51.298033"><ele>27</ele><time>2022-06-05T08:49:28.000Z</time></trkpt><trkpt lon="5.736698" lat="51.297987"><ele>27</ele><time>2022-06-05T08:49:29.000Z</time></trkpt><trkpt lon="5.736607" lat="51.297945"><ele>27</ele><time>2022-06-05T08:49:30.000Z</time></trkpt><trkpt lon="5.736515" lat="51.297899"><ele>27</ele><time>2022-06-05T08:49:31.000Z</time></trkpt><trkpt lon="5.736425" lat="51.297857"><ele>27</ele><time>2022-06-05T08:49:32.000Z</time></trkpt><trkpt lon="5.736337" lat="51.297815"><ele>27</ele><time>2022-06-05T08:49:33.000Z</time></trkpt><trkpt lon="5.736249" lat="51.297773"><ele>27</ele><time>2022-06-05T08:49:34.000Z</time></trkpt><trkpt lon="5.736163" lat="51.297724"><ele>27</ele><time>2022-06-05T08:49:35.000Z</time></trkpt><trkpt lon="5.73608" lat="51.297678"><ele>27</ele><time>2022-06-05T08:49:36.000Z</time></trkpt><trkpt lon="5.736003" lat="51.297628"><ele>27</ele><time>2022-06-05T08:49:37.000Z</time></trkpt><trkpt lon="5.735936" lat="51.297571"><ele>27</ele><time>2022-06-05T08:49:38.000Z</time></trkpt><trkpt lon="5.735877" lat="51.29751"><ele>27.2</ele><time>2022-06-05T08:49:39.000Z</time></trkpt><trkpt lon="5.735824" lat="51.297451"><ele>27.2</ele><time>2022-06-05T08:49:40.000Z</time></trkpt><trkpt lon="5.735774" lat="51.297385"><ele>27</ele><time>2022-06-05T08:49:41.000Z</time></trkpt><trkpt lon="5.735723" lat="51.29732"><ele>27</ele><time>2022-06-05T08:49:42.000Z</time></trkpt><trkpt lon="5.735672" lat="51.297252"><ele>26.8</ele><time>2022-06-05T08:49:43.000Z</time></trkpt><trkpt lon="5.735616" lat="51.297187"><ele>26.8</ele><time>2022-06-05T08:49:44.000Z</time></trkpt><trkpt lon="5.735556" lat="51.297123"><ele>26.6</ele><time>2022-06-05T08:49:45.000Z</time></trkpt><trkpt lon="5.735495" lat="51.29706"><ele>26.6</ele><time>2022-06-05T08:49:46.000Z</time></trkpt><trkpt lon="5.735435" lat="51.297"><ele>26.6</ele><time>2022-06-05T08:49:47.000Z</time></trkpt><trkpt lon="5.735369" lat="51.296942"><ele>26.6</ele><time>2022-06-05T08:49:48.000Z</time></trkpt><trkpt lon="5.735307" lat="51.296881"><ele>26.6</ele><time>2022-06-05T08:49:49.000Z</time></trkpt><trkpt lon="5.735241" lat="51.296823"><ele>26.4</ele><time>2022-06-05T08:49:50.000Z</time></trkpt><trkpt lon="5.735174" lat="51.29677"><ele>26.4</ele><time>2022-06-05T08:49:51.000Z</time></trkpt><trkpt lon="5.735112" lat="51.296717"><ele>26.4</ele><time>2022-06-05T08:49:52.000Z</time></trkpt><trkpt lon="5.735044" lat="51.296663"><ele>26.6</ele><time>2022-06-05T08:49:53.000Z</time></trkpt><trkpt lon="5.734974" lat="51.29661"><ele>26.6</ele><time>2022-06-05T08:49:54.000Z</time></trkpt><trkpt lon="5.734906" lat="51.296553"><ele>26.6</ele><time>2022-06-05T08:49:55.000Z</time></trkpt><trkpt lon="5.734838" lat="51.296496"><ele>26.8</ele><time>2022-06-05T08:49:56.000Z</time></trkpt><trkpt lon="5.734771" lat="51.296442"><ele>26.8</ele><time>2022-06-05T08:49:57.000Z</time></trkpt><trkpt lon="5.734711" lat="51.296389"><ele>26.8</ele><time>2022-06-05T08:49:58.000Z</time></trkpt><trkpt lon="5.734651" lat="51.296335"><ele>26.8</ele><time>2022-06-05T08:49:59.000Z</time></trkpt><trkpt lon="5.734602" lat="51.296282"><ele>26.8</ele><time>2022-06-05T08:50:00.000Z</time></trkpt><trkpt lon="5.734566" lat="51.296228"><ele>26.8</ele><time>2022-06-05T08:50:01.000Z</time></trkpt><trkpt lon="5.734544" lat="51.296182"><ele>26.8</ele><time>2022-06-05T08:50:02.000Z</time></trkpt><trkpt lon="5.734529" lat="51.29614"><ele>27</ele><time>2022-06-05T08:50:03.000Z</time></trkpt><trkpt lon="5.734511" lat="51.29611"><ele>27</ele><time>2022-06-05T08:50:04.000Z</time></trkpt><trkpt lon="5.734483" lat="51.296079"><ele>27</ele><time>2022-06-05T08:50:05.000Z</time></trkpt><trkpt lon="5.734444" lat="51.296056"><ele>27</ele><time>2022-06-05T08:50:06.000Z</time></trkpt><trkpt lon="5.734394" lat="51.296037"><ele>27</ele><time>2022-06-05T08:50:07.000Z</time></trkpt><trkpt lon="5.734332" lat="51.296021"><ele>27</ele><time>2022-06-05T08:50:08.000Z</time></trkpt><trkpt lon="5.734266" lat="51.29601"><ele>27</ele><time>2022-06-05T08:50:09.000Z</time></trkpt><trkpt lon="5.734195" lat="51.295994"><ele>27</ele><time>2022-06-05T08:50:10.000Z</time></trkpt><trkpt lon="5.734123" lat="51.295976"><ele>27</ele><time>2022-06-05T08:50:11.000Z</time></trkpt><trkpt lon="5.734051" lat="51.295953"><ele>27</ele><time>2022-06-05T08:50:12.000Z</time></trkpt><trkpt lon="5.733978" lat="51.295926"><ele>27</ele><time>2022-06-05T08:50:13.000Z</time></trkpt><trkpt lon="5.733906" lat="51.295896"><ele>27</ele><time>2022-06-05T08:50:14.000Z</time></trkpt><trkpt lon="5.733849" lat="51.295851"><ele>27</ele><time>2022-06-05T08:50:15.000Z</time></trkpt><trkpt lon="5.733815" lat="51.295798"><ele>27</ele><time>2022-06-05T08:50:16.000Z</time></trkpt><trkpt lon="5.733812" lat="51.29573"><ele>27</ele><time>2022-06-05T08:50:17.000Z</time></trkpt><trkpt lon="5.733831" lat="51.295661"><ele>27</ele><time>2022-06-05T08:50:18.000Z</time></trkpt><trkpt lon="5.733857" lat="51.295592"><ele>27</ele><time>2022-06-05T08:50:19.000Z</time></trkpt><trkpt lon="5.733863" lat="51.295519"><ele>27</ele><time>2022-06-05T08:50:20.000Z</time></trkpt><trkpt lon="5.733844" lat="51.295451"><ele>27</ele><time>2022-06-05T08:50:21.000Z</time></trkpt><trkpt lon="5.733813" lat="51.295382"><ele>26.8</ele><time>2022-06-05T08:50:22.000Z</time></trkpt><trkpt lon="5.733778" lat="51.29531"><ele>26.8</ele><time>2022-06-05T08:50:23.000Z</time></trkpt><trkpt lon="5.733743" lat="51.295241"><ele>26.8</ele><time>2022-06-05T08:50:24.000Z</time></trkpt><trkpt lon="5.733713" lat="51.295172"><ele>26.8</ele><time>2022-06-05T08:50:25.000Z</time></trkpt><trkpt lon="5.73369" lat="51.295105"><ele>26.8</ele><time>2022-06-05T08:50:26.000Z</time></trkpt><trkpt lon="5.733671" lat="51.295043"><ele>27</ele><time>2022-06-05T08:50:27.000Z</time></trkpt><trkpt lon="5.733661" lat="51.294985"><ele>27</ele><time>2022-06-05T08:50:28.000Z</time></trkpt><trkpt lon="5.733654" lat="51.294932"><ele>27</ele><time>2022-06-05T08:50:29.000Z</time></trkpt><trkpt lon="5.73365" lat="51.294878"><ele>27</ele><time>2022-06-05T08:50:30.000Z</time></trkpt><trkpt lon="5.733652" lat="51.294824"><ele>27</ele><time>2022-06-05T08:50:31.000Z</time></trkpt><trkpt lon="5.733657" lat="51.294768"><ele>27.2</ele><time>2022-06-05T08:50:32.000Z</time></trkpt><trkpt lon="5.733661" lat="51.29471"><ele>27.2</ele><time>2022-06-05T08:50:33.000Z</time></trkpt><trkpt lon="5.733673" lat="51.294645"><ele>27.2</ele><time>2022-06-05T08:50:34.000Z</time></trkpt><trkpt lon="5.733688" lat="51.294585"><ele>27.2</ele><time>2022-06-05T08:50:35.000Z</time></trkpt><trkpt lon="5.733706" lat="51.294517"><ele>27</ele><time>2022-06-05T08:50:36.000Z</time></trkpt><trkpt lon="5.733728" lat="51.294448"><ele>27</ele><time>2022-06-05T08:50:37.000Z</time></trkpt><trkpt lon="5.733749" lat="51.294375"><ele>27</ele><time>2022-06-05T08:50:38.000Z</time></trkpt><trkpt lon="5.733772" lat="51.294303"><ele>27</ele><time>2022-06-05T08:50:39.000Z</time></trkpt><trkpt lon="5.733796" lat="51.294234"><ele>27</ele><time>2022-06-05T08:50:40.000Z</time></trkpt><trkpt lon="5.733819" lat="51.294162"><ele>27</ele><time>2022-06-05T08:50:41.000Z</time></trkpt><trkpt lon="5.733841" lat="51.294089"><ele>27</ele><time>2022-06-05T08:50:42.000Z</time></trkpt><trkpt lon="5.733866" lat="51.294024"><ele>27.2</ele><time>2022-06-05T08:50:43.000Z</time></trkpt><trkpt lon="5.733887" lat="51.293956"><ele>27.2</ele><time>2022-06-05T08:50:44.000Z</time></trkpt><trkpt lon="5.733909" lat="51.293883"><ele>27.2</ele><time>2022-06-05T08:50:45.000Z</time></trkpt><trkpt lon="5.733929" lat="51.293815"><ele>27.2</ele><time>2022-06-05T08:50:46.000Z</time></trkpt><trkpt lon="5.733947" lat="51.293747"><ele>27.2</ele><time>2022-06-05T08:50:47.000Z</time></trkpt><trkpt lon="5.733966" lat="51.293673"><ele>27.2</ele><time>2022-06-05T08:50:48.000Z</time></trkpt><trkpt lon="5.733981" lat="51.293601"><ele>27</ele><time>2022-06-05T08:50:49.000Z</time></trkpt><trkpt lon="5.733991" lat="51.293525"><ele>27</ele><time>2022-06-05T08:50:50.000Z</time></trkpt><trkpt lon="5.733997" lat="51.293452"><ele>27.2</ele><time>2022-06-05T08:50:51.000Z</time></trkpt><trkpt lon="5.733997" lat="51.293383"><ele>27.2</ele><time>2022-06-05T08:50:52.000Z</time></trkpt><trkpt lon="5.733992" lat="51.293311"><ele>27.2</ele><time>2022-06-05T08:50:53.000Z</time></trkpt><trkpt lon="5.733984" lat="51.293242"><ele>27.2</ele><time>2022-06-05T08:50:54.000Z</time></trkpt><trkpt lon="5.733971" lat="51.293174"><ele>27.2</ele><time>2022-06-05T08:50:55.000Z</time></trkpt><trkpt lon="5.733956" lat="51.293106"><ele>27.4</ele><time>2022-06-05T08:50:56.000Z</time></trkpt><trkpt lon="5.733939" lat="51.293037"><ele>27.2</ele><time>2022-06-05T08:50:57.000Z</time></trkpt><trkpt lon="5.733922" lat="51.292968"><ele>27.2</ele><time>2022-06-05T08:50:58.000Z</time></trkpt><trkpt lon="5.733918" lat="51.292914"><ele>27.2</ele><time>2022-06-05T08:50:59.000Z</time></trkpt><trkpt lon="5.733906" lat="51.292851"><ele>27.4</ele><time>2022-06-05T08:51:00.000Z</time></trkpt><trkpt lon="5.733892" lat="51.292777"><ele>27.4</ele><time>2022-06-05T08:51:01.000Z</time></trkpt><trkpt lon="5.733876" lat="51.292706"><ele>27.6</ele><time>2022-06-05T08:51:02.000Z</time></trkpt><trkpt lon="5.733861" lat="51.292637"><ele>27.6</ele><time>2022-06-05T08:51:03.000Z</time></trkpt><trkpt lon="5.733844" lat="51.292566"><ele>27.6</ele><time>2022-06-05T08:51:04.000Z</time></trkpt><trkpt lon="5.733826" lat="51.292495"><ele>27.6</ele><time>2022-06-05T08:51:05.000Z</time></trkpt><trkpt lon="5.733809" lat="51.292422"><ele>27.6</ele><time>2022-06-05T08:51:06.000Z</time></trkpt><trkpt lon="5.733791" lat="51.292353"><ele>27.4</ele><time>2022-06-05T08:51:07.000Z</time></trkpt><trkpt lon="5.733772" lat="51.292284"><ele>27.6</ele><time>2022-06-05T08:51:08.000Z</time></trkpt><trkpt lon="5.733756" lat="51.292216"><ele>27.6</ele><time>2022-06-05T08:51:09.000Z</time></trkpt><trkpt lon="5.733739" lat="51.292147"><ele>27.6</ele><time>2022-06-05T08:51:10.000Z</time></trkpt><trkpt lon="5.733722" lat="51.292079"><ele>27.8</ele><time>2022-06-05T08:51:11.000Z</time></trkpt><trkpt lon="5.733706" lat="51.292007"><ele>27.8</ele><time>2022-06-05T08:51:12.000Z</time></trkpt><trkpt lon="5.73369" lat="51.291937"><ele>27.8</ele><time>2022-06-05T08:51:13.000Z</time></trkpt><trkpt lon="5.733672" lat="51.291873"><ele>27.8</ele><time>2022-06-05T08:51:14.000Z</time></trkpt><trkpt lon="5.733657" lat="51.291808"><ele>28</ele><time>2022-06-05T08:51:15.000Z</time></trkpt><trkpt lon="5.733644" lat="51.291746"><ele>28</ele><time>2022-06-05T08:51:16.000Z</time></trkpt><trkpt lon="5.733634" lat="51.291686"><ele>28</ele><time>2022-06-05T08:51:17.000Z</time></trkpt><trkpt lon="5.733624" lat="51.291617"><ele>28</ele><time>2022-06-05T08:51:18.000Z</time></trkpt><trkpt lon="5.733615" lat="51.291548"><ele>28</ele><time>2022-06-05T08:51:19.000Z</time></trkpt><trkpt lon="5.73361" lat="51.291479"><ele>28.2</ele><time>2022-06-05T08:51:20.000Z</time></trkpt><trkpt lon="5.733607" lat="51.291412"><ele>28.2</ele><time>2022-06-05T08:51:21.000Z</time></trkpt><trkpt lon="5.733605" lat="51.291341"><ele>28.2</ele><time>2022-06-05T08:51:22.000Z</time></trkpt><trkpt lon="5.733608" lat="51.29127"><ele>28.2</ele><time>2022-06-05T08:51:23.000Z</time></trkpt><trkpt lon="5.733613" lat="51.291199"><ele>28.2</ele><time>2022-06-05T08:51:24.000Z</time></trkpt><trkpt lon="5.733625" lat="51.291129"><ele>28.2</ele><time>2022-06-05T08:51:25.000Z</time></trkpt><trkpt lon="5.733638" lat="51.291063"><ele>28.4</ele><time>2022-06-05T08:51:26.000Z</time></trkpt><trkpt lon="5.733651" lat="51.290996"><ele>28.6</ele><time>2022-06-05T08:51:27.000Z</time></trkpt><trkpt lon="5.733666" lat="51.290932"><ele>28.6</ele><time>2022-06-05T08:51:28.000Z</time></trkpt><trkpt lon="5.733682" lat="51.290867"><ele>28.6</ele><time>2022-06-05T08:51:29.000Z</time></trkpt><trkpt lon="5.733703" lat="51.290803"><ele>28.6</ele><time>2022-06-05T08:51:30.000Z</time></trkpt><trkpt lon="5.733723" lat="51.29074"><ele>28.6</ele><time>2022-06-05T08:51:31.000Z</time></trkpt><trkpt lon="5.733744" lat="51.290677"><ele>28.6</ele><time>2022-06-05T08:51:32.000Z</time></trkpt><trkpt lon="5.733754" lat="51.290608"><ele>28.6</ele><time>2022-06-05T08:51:33.000Z</time></trkpt><trkpt lon="5.733778" lat="51.29054"><ele>28.8</ele><time>2022-06-05T08:51:34.000Z</time></trkpt><trkpt lon="5.733806" lat="51.290472"><ele>28.8</ele><time>2022-06-05T08:51:35.000Z</time></trkpt><trkpt lon="5.733823" lat="51.290411"><ele>28.8</ele><time>2022-06-05T08:51:36.000Z</time></trkpt><trkpt lon="5.733833" lat="51.290346"><ele>28.6</ele><time>2022-06-05T08:51:37.000Z</time></trkpt><trkpt lon="5.733846" lat="51.290281"><ele>28.6</ele><time>2022-06-05T08:51:38.000Z</time></trkpt><trkpt lon="5.733864" lat="51.290217"><ele>28.6</ele><time>2022-06-05T08:51:39.000Z</time></trkpt><trkpt lon="5.733889" lat="51.290152"><ele>28.6</ele><time>2022-06-05T08:51:40.000Z</time></trkpt><trkpt lon="5.733916" lat="51.290087"><ele>28.6</ele><time>2022-06-05T08:51:41.000Z</time></trkpt><trkpt lon="5.73394" lat="51.290021"><ele>28.6</ele><time>2022-06-05T08:51:42.000Z</time></trkpt><trkpt lon="5.733964" lat="51.289961"><ele>28.6</ele><time>2022-06-05T08:51:43.000Z</time></trkpt><trkpt lon="5.733989" lat="51.2899"><ele>28.6</ele><time>2022-06-05T08:51:44.000Z</time></trkpt><trkpt lon="5.734016" lat="51.289835"><ele>28.6</ele><time>2022-06-05T08:51:45.000Z</time></trkpt><trkpt lon="5.734047" lat="51.289775"><ele>28.6</ele><time>2022-06-05T08:51:46.000Z</time></trkpt><trkpt lon="5.734078" lat="51.289711"><ele>28.6</ele><time>2022-06-05T08:51:47.000Z</time></trkpt><trkpt lon="5.734112" lat="51.289649"><ele>28.6</ele><time>2022-06-05T08:51:48.000Z</time></trkpt><trkpt lon="5.734145" lat="51.289587"><ele>28.6</ele><time>2022-06-05T08:51:49.000Z</time></trkpt><trkpt lon="5.734183" lat="51.289522"><ele>28.6</ele><time>2022-06-05T08:51:50.000Z</time></trkpt><trkpt lon="5.734218" lat="51.289462"><ele>28.6</ele><time>2022-06-05T08:51:51.000Z</time></trkpt><trkpt lon="5.734257" lat="51.2894"><ele>28.8</ele><time>2022-06-05T08:51:52.000Z</time></trkpt><trkpt lon="5.734299" lat="51.289339"><ele>28.8</ele><time>2022-06-05T08:51:53.000Z</time></trkpt><trkpt lon="5.734342" lat="51.289278"><ele>28.8</ele><time>2022-06-05T08:51:54.000Z</time></trkpt><trkpt lon="5.734382" lat="51.289218"><ele>28.8</ele><time>2022-06-05T08:51:55.000Z</time></trkpt><trkpt lon="5.734424" lat="51.289156"><ele>28.8</ele><time>2022-06-05T08:51:56.000Z</time></trkpt><trkpt lon="5.734464" lat="51.289095"><ele>28.8</ele><time>2022-06-05T08:51:57.000Z</time></trkpt><trkpt lon="5.734504" lat="51.289036"><ele>28.8</ele><time>2022-06-05T08:51:58.000Z</time></trkpt><trkpt lon="5.734545" lat="51.288977"><ele>28.8</ele><time>2022-06-05T08:51:59.000Z</time></trkpt><trkpt lon="5.734584" lat="51.288925"><ele>28.8</ele><time>2022-06-05T08:52:00.000Z</time></trkpt><trkpt lon="5.734624" lat="51.28887"><ele>28.8</ele><time>2022-06-05T08:52:01.000Z</time></trkpt><trkpt lon="5.734662" lat="51.28882"><ele>28.8</ele><time>2022-06-05T08:52:02.000Z</time></trkpt><trkpt lon="5.734697" lat="51.288774"><ele>28.6</ele><time>2022-06-05T08:52:03.000Z</time></trkpt><trkpt lon="5.734732" lat="51.288728"><ele>28.6</ele><time>2022-06-05T08:52:04.000Z</time></trkpt><trkpt lon="5.734767" lat="51.288686"><ele>28.6</ele><time>2022-06-05T08:52:05.000Z</time></trkpt><trkpt lon="5.734811" lat="51.288652"><ele>28.6</ele><time>2022-06-05T08:52:06.000Z</time></trkpt><trkpt lon="5.73487" lat="51.288632"><ele>28.8</ele><time>2022-06-05T08:52:07.000Z</time></trkpt><trkpt lon="5.734939" lat="51.288635"><ele>28.8</ele><time>2022-06-05T08:52:08.000Z</time></trkpt><trkpt lon="5.735016" lat="51.288654"><ele>28.8</ele><time>2022-06-05T08:52:09.000Z</time></trkpt><trkpt lon="5.7351" lat="51.288673"><ele>28.8</ele><time>2022-06-05T08:52:10.000Z</time></trkpt><trkpt lon="5.735193" lat="51.288688"><ele>28.8</ele><time>2022-06-05T08:52:11.000Z</time></trkpt><trkpt lon="5.735287" lat="51.288696"><ele>28.8</ele><time>2022-06-05T08:52:12.000Z</time></trkpt><trkpt lon="5.73538" lat="51.288696"><ele>28.8</ele><time>2022-06-05T08:52:13.000Z</time></trkpt><trkpt lon="5.735477" lat="51.288685"><ele>28.8</ele><time>2022-06-05T08:52:14.000Z</time></trkpt><trkpt lon="5.735567" lat="51.288674"><ele>28.8</ele><time>2022-06-05T08:52:15.000Z</time></trkpt><trkpt lon="5.735648" lat="51.288651"><ele>28.8</ele><time>2022-06-05T08:52:16.000Z</time></trkpt><trkpt lon="5.735725" lat="51.288622"><ele>28.8</ele><time>2022-06-05T08:52:17.000Z</time></trkpt><trkpt lon="5.735801" lat="51.288587"><ele>28.8</ele><time>2022-06-05T08:52:18.000Z</time></trkpt><trkpt lon="5.735863" lat="51.288549"><ele>28.8</ele><time>2022-06-05T08:52:19.000Z</time></trkpt><trkpt lon="5.735925" lat="51.288503"><ele>28.8</ele><time>2022-06-05T08:52:20.000Z</time></trkpt><trkpt lon="5.735989" lat="51.288458"><ele>28.8</ele><time>2022-06-05T08:52:21.000Z</time></trkpt><trkpt lon="5.736053" lat="51.288412"><ele>28.6</ele><time>2022-06-05T08:52:22.000Z</time></trkpt><trkpt lon="5.736117" lat="51.288358"><ele>28.6</ele><time>2022-06-05T08:52:23.000Z</time></trkpt><trkpt lon="5.736181" lat="51.28831"><ele>28.6</ele><time>2022-06-05T08:52:24.000Z</time></trkpt><trkpt lon="5.736251" lat="51.288257"><ele>28.8</ele><time>2022-06-05T08:52:25.000Z</time></trkpt><trkpt lon="5.736324" lat="51.288202"><ele>28.8</ele><time>2022-06-05T08:52:26.000Z</time></trkpt><trkpt lon="5.736391" lat="51.288156"><ele>28.8</ele><time>2022-06-05T08:52:27.000Z</time></trkpt><trkpt lon="5.736461" lat="51.288103"><ele>28.8</ele><time>2022-06-05T08:52:28.000Z</time></trkpt><trkpt lon="5.736531" lat="51.288053"><ele>28.8</ele><time>2022-06-05T08:52:29.000Z</time></trkpt><trkpt lon="5.7366" lat="51.288"><ele>28.8</ele><time>2022-06-05T08:52:30.000Z</time></trkpt><trkpt lon="5.736671" lat="51.28795"><ele>29</ele><time>2022-06-05T08:52:31.000Z</time></trkpt><trkpt lon="5.736749" lat="51.287897"><ele>29</ele><time>2022-06-05T08:52:32.000Z</time></trkpt><trkpt lon="5.73683" lat="51.28785"><ele>29.2</ele><time>2022-06-05T08:52:33.000Z</time></trkpt><trkpt lon="5.736906" lat="51.287801"><ele>29.2</ele><time>2022-06-05T08:52:34.000Z</time></trkpt><trkpt lon="5.736983" lat="51.287756"><ele>29.2</ele><time>2022-06-05T08:52:35.000Z</time></trkpt><trkpt lon="5.737057" lat="51.28771"><ele>29.2</ele><time>2022-06-05T08:52:36.000Z</time></trkpt><trkpt lon="5.737131" lat="51.287665"><ele>29.2</ele><time>2022-06-05T08:52:37.000Z</time></trkpt><trkpt lon="5.73721" lat="51.287618"><ele>29.2</ele><time>2022-06-05T08:52:38.000Z</time></trkpt><trkpt lon="5.737289" lat="51.287572"><ele>29.2</ele><time>2022-06-05T08:52:39.000Z</time></trkpt><trkpt lon="5.737368" lat="51.287526"><ele>29.2</ele><time>2022-06-05T08:52:40.000Z</time></trkpt><trkpt lon="5.737449" lat="51.287481"><ele>29.2</ele><time>2022-06-05T08:52:41.000Z</time></trkpt><trkpt lon="5.737531" lat="51.287435"><ele>29</ele><time>2022-06-05T08:52:42.000Z</time></trkpt><trkpt lon="5.737607" lat="51.287393"><ele>29</ele><time>2022-06-05T08:52:43.000Z</time></trkpt><trkpt lon="5.737689" lat="51.287347"><ele>29</ele><time>2022-06-05T08:52:44.000Z</time></trkpt><trkpt lon="5.73777" lat="51.287302"><ele>28.8</ele><time>2022-06-05T08:52:45.000Z</time></trkpt><trkpt lon="5.737848" lat="51.287256"><ele>28.8</ele><time>2022-06-05T08:52:46.000Z</time></trkpt><trkpt lon="5.737926" lat="51.28721"><ele>28.6</ele><time>2022-06-05T08:52:47.000Z</time></trkpt><trkpt lon="5.738004" lat="51.287164"><ele>28.4</ele><time>2022-06-05T08:52:48.000Z</time></trkpt><trkpt lon="5.738081" lat="51.287118"><ele>28.4</ele><time>2022-06-05T08:52:49.000Z</time></trkpt><trkpt lon="5.738155" lat="51.287074"><ele>28.2</ele><time>2022-06-05T08:52:50.000Z</time></trkpt><trkpt lon="5.738234" lat="51.287027"><ele>28.2</ele><time>2022-06-05T08:52:51.000Z</time></trkpt><trkpt lon="5.73831" lat="51.286986"><ele>28.2</ele><time>2022-06-05T08:52:52.000Z</time></trkpt><trkpt lon="5.73839" lat="51.286936"><ele>28.4</ele><time>2022-06-05T08:52:53.000Z</time></trkpt><trkpt lon="5.738472" lat="51.28689"><ele>28.6</ele><time>2022-06-05T08:52:54.000Z</time></trkpt><trkpt lon="5.738552" lat="51.286844"><ele>28.6</ele><time>2022-06-05T08:52:55.000Z</time></trkpt><trkpt lon="5.73863" lat="51.286798"><ele>28.6</ele><time>2022-06-05T08:52:56.000Z</time></trkpt><trkpt lon="5.738713" lat="51.286752"><ele>28.6</ele><time>2022-06-05T08:52:57.000Z</time></trkpt><trkpt lon="5.738797" lat="51.28671"><ele>28.8</ele><time>2022-06-05T08:52:58.000Z</time></trkpt><trkpt lon="5.738879" lat="51.286665"><ele>28.8</ele><time>2022-06-05T08:52:59.000Z</time></trkpt><trkpt lon="5.738959" lat="51.286619"><ele>28.8</ele><time>2022-06-05T08:53:00.000Z</time></trkpt><trkpt lon="5.739037" lat="51.286573"><ele>28.8</ele><time>2022-06-05T08:53:01.000Z</time></trkpt><trkpt lon="5.739115" lat="51.286527"><ele>28.8</ele><time>2022-06-05T08:53:02.000Z</time></trkpt><trkpt lon="5.739196" lat="51.286481"><ele>29</ele><time>2022-06-05T08:53:03.000Z</time></trkpt><trkpt lon="5.739275" lat="51.286432"><ele>29</ele><time>2022-06-05T08:53:04.000Z</time></trkpt><trkpt lon="5.739354" lat="51.286386"><ele>28.8</ele><time>2022-06-05T08:53:05.000Z</time></trkpt><trkpt lon="5.739431" lat="51.28634"><ele>28.8</ele><time>2022-06-05T08:53:06.000Z</time></trkpt><trkpt lon="5.739508" lat="51.286298"><ele>28.8</ele><time>2022-06-05T08:53:07.000Z</time></trkpt><trkpt lon="5.739581" lat="51.286253"><ele>28.8</ele><time>2022-06-05T08:53:08.000Z</time></trkpt><trkpt lon="5.73966" lat="51.286203"><ele>28.8</ele><time>2022-06-05T08:53:09.000Z</time></trkpt><trkpt lon="5.739737" lat="51.286157"><ele>28.8</ele><time>2022-06-05T08:53:10.000Z</time></trkpt><trkpt lon="5.739811" lat="51.286111"><ele>28.6</ele><time>2022-06-05T08:53:11.000Z</time></trkpt><trkpt lon="5.739884" lat="51.286066"><ele>28.6</ele><time>2022-06-05T08:53:12.000Z</time></trkpt><trkpt lon="5.739959" lat="51.28602"><ele>28.8</ele><time>2022-06-05T08:53:13.000Z</time></trkpt><trkpt lon="5.740034" lat="51.285974"><ele>28.8</ele><time>2022-06-05T08:53:14.000Z</time></trkpt><trkpt lon="5.740116" lat="51.285929"><ele>28.6</ele><time>2022-06-05T08:53:15.000Z</time></trkpt><trkpt lon="5.740196" lat="51.285886"><ele>28.8</ele><time>2022-06-05T08:53:16.000Z</time></trkpt><trkpt lon="5.740272" lat="51.285845"><ele>28.8</ele><time>2022-06-05T08:53:17.000Z</time></trkpt><trkpt lon="5.740349" lat="51.285802"><ele>28.8</ele><time>2022-06-05T08:53:18.000Z</time></trkpt><trkpt lon="5.740421" lat="51.28576"><ele>28.8</ele><time>2022-06-05T08:53:19.000Z</time></trkpt><trkpt lon="5.740497" lat="51.285725"><ele>28.8</ele><time>2022-06-05T08:53:20.000Z</time></trkpt><trkpt lon="5.740562" lat="51.285684"><ele>29</ele><time>2022-06-05T08:53:21.000Z</time></trkpt><trkpt lon="5.740619" lat="51.28565"><ele>29</ele><time>2022-06-05T08:53:22.000Z</time></trkpt><trkpt lon="5.740675" lat="51.285612"><ele>29</ele><time>2022-06-05T08:53:23.000Z</time></trkpt><trkpt lon="5.740723" lat="51.285574"><ele>29</ele><time>2022-06-05T08:53:24.000Z</time></trkpt><trkpt lon="5.740768" lat="51.285535"><ele>29</ele><time>2022-06-05T08:53:25.000Z</time></trkpt><trkpt lon="5.740807" lat="51.285505"><ele>29</ele><time>2022-06-05T08:53:26.000Z</time></trkpt><trkpt lon="5.740841" lat="51.285478"><ele>29</ele><time>2022-06-05T08:53:27.000Z</time></trkpt><trkpt lon="5.740867" lat="51.285466"><ele>29</ele><time>2022-06-05T08:53:28.000Z</time></trkpt><trkpt lon="5.740889" lat="51.285454"><ele>29</ele><time>2022-06-05T08:53:29.000Z</time></trkpt><trkpt lon="5.740911" lat="51.285454"><ele>29.2</ele><time>2022-06-05T08:53:34.000Z</time></trkpt><trkpt lon="5.740955" lat="51.28544"><ele>29.2</ele><time>2022-06-05T08:53:35.000Z</time></trkpt><trkpt lon="5.741003" lat="51.285439"><ele>29.2</ele><time>2022-06-05T08:53:36.000Z</time></trkpt><trkpt lon="5.741056" lat="51.285449"><ele>29.2</ele><time>2022-06-05T08:53:37.000Z</time></trkpt><trkpt lon="5.741117" lat="51.285468"><ele>29.2</ele><time>2022-06-05T08:53:38.000Z</time></trkpt><trkpt lon="5.741184" lat="51.285495"><ele>29.2</ele><time>2022-06-05T08:53:39.000Z</time></trkpt><trkpt lon="5.741253" lat="51.285518"><ele>29</ele><time>2022-06-05T08:53:40.000Z</time></trkpt><trkpt lon="5.741329" lat="51.285541"><ele>29</ele><time>2022-06-05T08:53:41.000Z</time></trkpt><trkpt lon="5.741411" lat="51.285567"><ele>29</ele><time>2022-06-05T08:53:42.000Z</time></trkpt><trkpt lon="5.741496" lat="51.28559"><ele>29</ele><time>2022-06-05T08:53:43.000Z</time></trkpt><trkpt lon="5.74159" lat="51.285621"><ele>29</ele><time>2022-06-05T08:53:44.000Z</time></trkpt><trkpt lon="5.741681" lat="51.285648"><ele>29</ele><time>2022-06-05T08:53:45.000Z</time></trkpt><trkpt lon="5.741771" lat="51.285674"><ele>29</ele><time>2022-06-05T08:53:46.000Z</time></trkpt><trkpt lon="5.741866" lat="51.285701"><ele>29</ele><time>2022-06-05T08:53:47.000Z</time></trkpt><trkpt lon="5.741958" lat="51.285731"><ele>29</ele><time>2022-06-05T08:53:48.000Z</time></trkpt><trkpt lon="5.742054" lat="51.285762"><ele>29</ele><time>2022-06-05T08:53:49.000Z</time></trkpt><trkpt lon="5.742143" lat="51.285792"><ele>29</ele><time>2022-06-05T08:53:50.000Z</time></trkpt><trkpt lon="5.742232" lat="51.285819"><ele>29</ele><time>2022-06-05T08:53:51.000Z</time></trkpt><trkpt lon="5.74232" lat="51.285849"><ele>29</ele><time>2022-06-05T08:53:52.000Z</time></trkpt><trkpt lon="5.742408" lat="51.285883"><ele>29</ele><time>2022-06-05T08:53:53.000Z</time></trkpt><trkpt lon="5.742502" lat="51.285914"><ele>29</ele><time>2022-06-05T08:53:54.000Z</time></trkpt><trkpt lon="5.742595" lat="51.285937"><ele>29</ele><time>2022-06-05T08:53:55.000Z</time></trkpt><trkpt lon="5.742685" lat="51.285964"><ele>29</ele><time>2022-06-05T08:53:56.000Z</time></trkpt><trkpt lon="5.74278" lat="51.285991"><ele>29</ele><time>2022-06-05T08:53:57.000Z</time></trkpt><trkpt lon="5.742875" lat="51.28601"><ele>29</ele><time>2022-06-05T08:53:58.000Z</time></trkpt><trkpt lon="5.742974" lat="51.286014"><ele>29</ele><time>2022-06-05T08:53:59.000Z</time></trkpt><trkpt lon="5.743065" lat="51.286008"><ele>29</ele><time>2022-06-05T08:54:00.000Z</time></trkpt><trkpt lon="5.743175" lat="51.285992"><ele>28.8</ele><time>2022-06-05T08:54:01.000Z</time></trkpt><trkpt lon="5.743284" lat="51.285992"><ele>28.8</ele><time>2022-06-05T08:54:02.000Z</time></trkpt><trkpt lon="5.743389" lat="51.285992"><ele>28.8</ele><time>2022-06-05T08:54:03.000Z</time></trkpt><trkpt lon="5.743497" lat="51.285992"><ele>28.8</ele><time>2022-06-05T08:54:04.000Z</time></trkpt><trkpt lon="5.743602" lat="51.285992"><ele>28.8</ele><time>2022-06-05T08:54:05.000Z</time></trkpt><trkpt lon="5.743709" lat="51.285992"><ele>28.8</ele><time>2022-06-05T08:54:06.000Z</time></trkpt><trkpt lon="5.743818" lat="51.285992"><ele>28.8</ele><time>2022-06-05T08:54:07.000Z</time></trkpt><trkpt lon="5.743922" lat="51.285988"><ele>28.8</ele><time>2022-06-05T08:54:08.000Z</time></trkpt><trkpt lon="5.744026" lat="51.285988"><ele>28.8</ele><time>2022-06-05T08:54:09.000Z</time></trkpt><trkpt lon="5.744124" lat="51.285988"><ele>28.8</ele><time>2022-06-05T08:54:10.000Z</time></trkpt><trkpt lon="5.744244" lat="51.285992"><ele>28.6</ele><time>2022-06-05T08:54:11.000Z</time></trkpt><trkpt lon="5.744354" lat="51.285995"><ele>28.8</ele><time>2022-06-05T08:54:12.000Z</time></trkpt><trkpt lon="5.744463" lat="51.285999"><ele>28.8</ele><time>2022-06-05T08:54:13.000Z</time></trkpt><trkpt lon="5.744569" lat="51.286003"><ele>28.8</ele><time>2022-06-05T08:54:14.000Z</time></trkpt><trkpt lon="5.744673" lat="51.286007"><ele>28.8</ele><time>2022-06-05T08:54:15.000Z</time></trkpt><trkpt lon="5.744787" lat="51.286007"><ele>28.8</ele><time>2022-06-05T08:54:16.000Z</time></trkpt><trkpt lon="5.744895" lat="51.286007"><ele>29</ele><time>2022-06-05T08:54:17.000Z</time></trkpt><trkpt lon="5.745002" lat="51.286011"><ele>29.2</ele><time>2022-06-05T08:54:18.000Z</time></trkpt><trkpt lon="5.745106" lat="51.286014"><ele>29.2</ele><time>2022-06-05T08:54:19.000Z</time></trkpt><trkpt lon="5.745209" lat="51.286018"><ele>29.2</ele><time>2022-06-05T08:54:20.000Z</time></trkpt><trkpt lon="5.745315" lat="51.286018"><ele>29</ele><time>2022-06-05T08:54:21.000Z</time></trkpt><trkpt lon="5.74542" lat="51.286022"><ele>29</ele><time>2022-06-05T08:54:22.000Z</time></trkpt><trkpt lon="5.745525" lat="51.28603"><ele>29.2</ele><time>2022-06-05T08:54:23.000Z</time></trkpt><trkpt lon="5.745633" lat="51.286034"><ele>29.2</ele><time>2022-06-05T08:54:24.000Z</time></trkpt><trkpt lon="5.745739" lat="51.286037"><ele>29.4</ele><time>2022-06-05T08:54:25.000Z</time></trkpt><trkpt lon="5.745842" lat="51.286045"><ele>29.2</ele><time>2022-06-05T08:54:26.000Z</time></trkpt><trkpt lon="5.745943" lat="51.286049"><ele>29.2</ele><time>2022-06-05T08:54:27.000Z</time></trkpt><trkpt lon="5.746044" lat="51.286056"><ele>29.2</ele><time>2022-06-05T08:54:28.000Z</time></trkpt><trkpt lon="5.746144" lat="51.286056"><ele>29.2</ele><time>2022-06-05T08:54:29.000Z</time></trkpt><trkpt lon="5.746247" lat="51.286064"><ele>29.2</ele><time>2022-06-05T08:54:30.000Z</time></trkpt><trkpt lon="5.746346" lat="51.286068"><ele>29.2</ele><time>2022-06-05T08:54:31.000Z</time></trkpt><trkpt lon="5.746445" lat="51.286072"><ele>29.2</ele><time>2022-06-05T08:54:32.000Z</time></trkpt><trkpt lon="5.746542" lat="51.286079"><ele>29.4</ele><time>2022-06-05T08:54:33.000Z</time></trkpt><trkpt lon="5.74662" lat="51.286082"><ele>29.4</ele><time>2022-06-05T08:54:34.000Z</time></trkpt><trkpt lon="5.746709" lat="51.286086"><ele>29.6</ele><time>2022-06-05T08:54:35.000Z</time></trkpt><trkpt lon="5.746823" lat="51.286097"><ele>29.8</ele><time>2022-06-05T08:54:36.000Z</time></trkpt><trkpt lon="5.746925" lat="51.286102"><ele>29.8</ele><time>2022-06-05T08:54:37.000Z</time></trkpt><trkpt lon="5.747021" lat="51.28611"><ele>29.6</ele><time>2022-06-05T08:54:38.000Z</time></trkpt><trkpt lon="5.747112" lat="51.286117"><ele>29.6</ele><time>2022-06-05T08:54:39.000Z</time></trkpt><trkpt lon="5.747202" lat="51.286121"><ele>29.6</ele><time>2022-06-05T08:54:40.000Z</time></trkpt><trkpt lon="5.747292" lat="51.286125"><ele>29.6</ele><time>2022-06-05T08:54:41.000Z</time></trkpt><trkpt lon="5.74738" lat="51.286129"><ele>29.6</ele><time>2022-06-05T08:54:42.000Z</time></trkpt><trkpt lon="5.747465" lat="51.286133"><ele>29.6</ele><time>2022-06-05T08:54:43.000Z</time></trkpt><trkpt lon="5.747544" lat="51.286137"><ele>29.6</ele><time>2022-06-05T08:54:44.000Z</time></trkpt><trkpt lon="5.747614" lat="51.286137"><ele>29.6</ele><time>2022-06-05T08:54:45.000Z</time></trkpt><trkpt lon="5.747674" lat="51.286137"><ele>29.6</ele><time>2022-06-05T08:54:46.000Z</time></trkpt><trkpt lon="5.747723" lat="51.286137"><ele>29.6</ele><time>2022-06-05T08:54:47.000Z</time></trkpt><trkpt lon="5.747761" lat="51.286129"><ele>29.6</ele><time>2022-06-05T08:54:48.000Z</time></trkpt><trkpt lon="5.747782" lat="51.286118"><ele>29.6</ele><time>2022-06-05T08:54:49.000Z</time></trkpt><trkpt lon="5.747791" lat="51.2861"><ele>29.6</ele><time>2022-06-05T08:54:50.000Z</time></trkpt><trkpt lon="5.747792" lat="51.286069"><ele>29.4</ele><time>2022-06-05T08:54:51.000Z</time></trkpt><trkpt lon="5.747798" lat="51.286032"><ele>29.2</ele><time>2022-06-05T08:54:52.000Z</time></trkpt><trkpt lon="5.747811" lat="51.285997"><ele>29.2</ele><time>2022-06-05T08:54:53.000Z</time></trkpt><trkpt lon="5.747839" lat="51.285966"><ele>29</ele><time>2022-06-05T08:54:54.000Z</time></trkpt><trkpt lon="5.747875" lat="51.285918"><ele>29</ele><time>2022-06-05T08:54:55.000Z</time></trkpt><trkpt lon="5.74791" lat="51.285871"><ele>29.2</ele><time>2022-06-05T08:54:56.000Z</time></trkpt><trkpt lon="5.747944" lat="51.285825"><ele>29.4</ele><time>2022-06-05T08:54:57.000Z</time></trkpt><trkpt lon="5.747993" lat="51.285761"><ele>29.4</ele><time>2022-06-05T08:54:58.000Z</time></trkpt><trkpt lon="5.748036" lat="51.285707"><ele>29.4</ele><time>2022-06-05T08:54:59.000Z</time></trkpt><trkpt lon="5.748075" lat="51.285654"><ele>29.4</ele><time>2022-06-05T08:55:00.000Z</time></trkpt><trkpt lon="5.74811" lat="51.285604"><ele>29.4</ele><time>2022-06-05T08:55:01.000Z</time></trkpt><trkpt lon="5.748147" lat="51.285551"><ele>29.4</ele><time>2022-06-05T08:55:02.000Z</time></trkpt><trkpt lon="5.748188" lat="51.285498"><ele>29.4</ele><time>2022-06-05T08:55:03.000Z</time></trkpt><trkpt lon="5.748224" lat="51.285446"><ele>29.4</ele><time>2022-06-05T08:55:04.000Z</time></trkpt><trkpt lon="5.748269" lat="51.285387"><ele>29.4</ele><time>2022-06-05T08:55:05.000Z</time></trkpt><trkpt lon="5.748317" lat="51.285326"><ele>29.4</ele><time>2022-06-05T08:55:06.000Z</time></trkpt><trkpt lon="5.748368" lat="51.285265"><ele>29.2</ele><time>2022-06-05T08:55:07.000Z</time></trkpt><trkpt lon="5.748423" lat="51.285204"><ele>29</ele><time>2022-06-05T08:55:08.000Z</time></trkpt><trkpt lon="5.748478" lat="51.28515"><ele>29</ele><time>2022-06-05T08:55:09.000Z</time></trkpt><trkpt lon="5.748535" lat="51.285101"><ele>28.8</ele><time>2022-06-05T08:55:10.000Z</time></trkpt><trkpt lon="5.748584" lat="51.285048"><ele>28.8</ele><time>2022-06-05T08:55:11.000Z</time></trkpt><trkpt lon="5.748647" lat="51.284998"><ele>28.8</ele><time>2022-06-05T08:55:12.000Z</time></trkpt><trkpt lon="5.748706" lat="51.284948"><ele>28.8</ele><time>2022-06-05T08:55:13.000Z</time></trkpt><trkpt lon="5.748779" lat="51.284898"><ele>28.6</ele><time>2022-06-05T08:55:14.000Z</time></trkpt><trkpt lon="5.748851" lat="51.284849"><ele>28.4</ele><time>2022-06-05T08:55:15.000Z</time></trkpt><trkpt lon="5.748923" lat="51.284796"><ele>28.2</ele><time>2022-06-05T08:55:16.000Z</time></trkpt><trkpt lon="5.748994" lat="51.284742"><ele>28.2</ele><time>2022-06-05T08:55:17.000Z</time></trkpt><trkpt lon="5.749056" lat="51.2847"><ele>28.2</ele><time>2022-06-05T08:55:18.000Z</time></trkpt><trkpt lon="5.749122" lat="51.284647"><ele>28.2</ele><time>2022-06-05T08:55:19.000Z</time></trkpt><trkpt lon="5.749187" lat="51.284597"><ele>28.2</ele><time>2022-06-05T08:55:20.000Z</time></trkpt><trkpt lon="5.749251" lat="51.284548"><ele>28.2</ele><time>2022-06-05T08:55:21.000Z</time></trkpt><trkpt lon="5.749316" lat="51.284495"><ele>28.2</ele><time>2022-06-05T08:55:22.000Z</time></trkpt><trkpt lon="5.749382" lat="51.284445"><ele>28.2</ele><time>2022-06-05T08:55:23.000Z</time></trkpt><trkpt lon="5.749448" lat="51.284395"><ele>28.2</ele><time>2022-06-05T08:55:24.000Z</time></trkpt><trkpt lon="5.749503" lat="51.284349"><ele>28.4</ele><time>2022-06-05T08:55:25.000Z</time></trkpt><trkpt lon="5.749546" lat="51.284304"><ele>28.4</ele><time>2022-06-05T08:55:26.000Z</time></trkpt><trkpt lon="5.749569" lat="51.284244"><ele>28.6</ele><time>2022-06-05T08:55:27.000Z</time></trkpt><trkpt lon="5.749586" lat="51.284185"><ele>28.6</ele><time>2022-06-05T08:55:28.000Z</time></trkpt><trkpt lon="5.749599" lat="51.284129"><ele>28.6</ele><time>2022-06-05T08:55:29.000Z</time></trkpt><trkpt lon="5.749612" lat="51.284059"><ele>28.6</ele><time>2022-06-05T08:55:30.000Z</time></trkpt><trkpt lon="5.749633" lat="51.283988"><ele>28.6</ele><time>2022-06-05T08:55:31.000Z</time></trkpt><trkpt lon="5.749646" lat="51.283919"><ele>28.4</ele><time>2022-06-05T08:55:32.000Z</time></trkpt><trkpt lon="5.749661" lat="51.283854"><ele>28.2</ele><time>2022-06-05T08:55:33.000Z</time></trkpt><trkpt lon="5.749676" lat="51.283794"><ele>28.2</ele><time>2022-06-05T08:55:34.000Z</time></trkpt><trkpt lon="5.749696" lat="51.283728"><ele>28.2</ele><time>2022-06-05T08:55:35.000Z</time></trkpt><trkpt lon="5.749721" lat="51.283667"><ele>28.4</ele><time>2022-06-05T08:55:36.000Z</time></trkpt><trkpt lon="5.749754" lat="51.283602"><ele>28.4</ele><time>2022-06-05T08:55:37.000Z</time></trkpt><trkpt lon="5.749793" lat="51.283545"><ele>28.4</ele><time>2022-06-05T08:55:38.000Z</time></trkpt><trkpt lon="5.74984" lat="51.283484"><ele>28.4</ele><time>2022-06-05T08:55:39.000Z</time></trkpt><trkpt lon="5.749885" lat="51.28343"><ele>28.4</ele><time>2022-06-05T08:55:40.000Z</time></trkpt><trkpt lon="5.749932" lat="51.283377"><ele>28.4</ele><time>2022-06-05T08:55:41.000Z</time></trkpt><trkpt lon="5.749978" lat="51.283327"><ele>28.4</ele><time>2022-06-05T08:55:42.000Z</time></trkpt><trkpt lon="5.750022" lat="51.283273"><ele>28.4</ele><time>2022-06-05T08:55:43.000Z</time></trkpt><trkpt lon="5.750073" lat="51.283224"><ele>28.4</ele><time>2022-06-05T08:55:44.000Z</time></trkpt><trkpt lon="5.750122" lat="51.283178"><ele>28.6</ele><time>2022-06-05T08:55:45.000Z</time></trkpt><trkpt lon="5.750166" lat="51.283132"><ele>28.6</ele><time>2022-06-05T08:55:46.000Z</time></trkpt><trkpt lon="5.750195" lat="51.283094"><ele>28.6</ele><time>2022-06-05T08:55:47.000Z</time></trkpt><trkpt lon="5.750218" lat="51.283054"><ele>28.6</ele><time>2022-06-05T08:55:48.000Z</time></trkpt><trkpt lon="5.750233" lat="51.283007"><ele>28.6</ele><time>2022-06-05T08:55:49.000Z</time></trkpt><trkpt lon="5.750227" lat="51.282964"><ele>28.6</ele><time>2022-06-05T08:55:50.000Z</time></trkpt><trkpt lon="5.750204" lat="51.282919"><ele>28.6</ele><time>2022-06-05T08:55:51.000Z</time></trkpt><trkpt lon="5.75016" lat="51.282888"><ele>28.8</ele><time>2022-06-05T08:55:52.000Z</time></trkpt><trkpt lon="5.750112" lat="51.282864"><ele>28.6</ele><time>2022-06-05T08:55:53.000Z</time></trkpt><trkpt lon="5.750061" lat="51.282853"><ele>28.6</ele><time>2022-06-05T08:55:54.000Z</time></trkpt><trkpt lon="5.750004" lat="51.282848"><ele>28.6</ele><time>2022-06-05T08:55:55.000Z</time></trkpt><trkpt lon="5.749918" lat="51.282852"><ele>28.4</ele><time>2022-06-05T08:55:56.000Z</time></trkpt><trkpt lon="5.749824" lat="51.282852"><ele>28.4</ele><time>2022-06-05T08:55:57.000Z</time></trkpt><trkpt lon="5.749727" lat="51.282845"><ele>28.4</ele><time>2022-06-05T08:55:58.000Z</time></trkpt><trkpt lon="5.749614" lat="51.282834"><ele>28.4</ele><time>2022-06-05T08:55:59.000Z</time></trkpt><trkpt lon="5.749497" lat="51.282826"><ele>28.2</ele><time>2022-06-05T08:56:00.000Z</time></trkpt><trkpt lon="5.749372" lat="51.282822"><ele>28</ele><time>2022-06-05T08:56:01.000Z</time></trkpt><trkpt lon="5.749256" lat="51.282811"><ele>28</ele><time>2022-06-05T08:56:02.000Z</time></trkpt><trkpt lon="5.749144" lat="51.282799"><ele>28</ele><time>2022-06-05T08:56:03.000Z</time></trkpt><trkpt lon="5.749041" lat="51.282788"><ele>28</ele><time>2022-06-05T08:56:04.000Z</time></trkpt><trkpt lon="5.748954" lat="51.282774"><ele>28</ele><time>2022-06-05T08:56:05.000Z</time></trkpt><trkpt lon="5.748863" lat="51.282757"><ele>28</ele><time>2022-06-05T08:56:06.000Z</time></trkpt><trkpt lon="5.748793" lat="51.282739"><ele>28.2</ele><time>2022-06-05T08:56:07.000Z</time></trkpt><trkpt lon="5.748734" lat="51.282708"><ele>28.2</ele><time>2022-06-05T08:56:08.000Z</time></trkpt><trkpt lon="5.748688" lat="51.282678"><ele>28.4</ele><time>2022-06-05T08:56:09.000Z</time></trkpt><trkpt lon="5.748652" lat="51.282644"><ele>28.2</ele><time>2022-06-05T08:56:10.000Z</time></trkpt><trkpt lon="5.748623" lat="51.282602"><ele>28.2</ele><time>2022-06-05T08:56:11.000Z</time></trkpt><trkpt lon="5.748606" lat="51.282553"><ele>28.2</ele><time>2022-06-05T08:56:12.000Z</time></trkpt><trkpt lon="5.748598" lat="51.282499"><ele>28</ele><time>2022-06-05T08:56:13.000Z</time></trkpt><trkpt lon="5.748603" lat="51.282442"><ele>27.8</ele><time>2022-06-05T08:56:14.000Z</time></trkpt><trkpt lon="5.748617" lat="51.282389"><ele>27.8</ele><time>2022-06-05T08:56:15.000Z</time></trkpt><trkpt lon="5.748631" lat="51.282328"><ele>27.8</ele><time>2022-06-05T08:56:16.000Z</time></trkpt><trkpt lon="5.748647" lat="51.282267"><ele>27.6</ele><time>2022-06-05T08:56:17.000Z</time></trkpt><trkpt lon="5.748664" lat="51.282204"><ele>27.6</ele><time>2022-06-05T08:56:18.000Z</time></trkpt><trkpt lon="5.748683" lat="51.282137"><ele>27.6</ele><time>2022-06-05T08:56:19.000Z</time></trkpt><trkpt lon="5.748701" lat="51.282072"><ele>27.6</ele><time>2022-06-05T08:56:20.000Z</time></trkpt><trkpt lon="5.748719" lat="51.282011"><ele>27.8</ele><time>2022-06-05T08:56:21.000Z</time></trkpt><trkpt lon="5.748736" lat="51.281947"><ele>27.8</ele><time>2022-06-05T08:56:22.000Z</time></trkpt><trkpt lon="5.748756" lat="51.281882"><ele>28</ele><time>2022-06-05T08:56:23.000Z</time></trkpt><trkpt lon="5.748774" lat="51.281821"><ele>28</ele><time>2022-06-05T08:56:24.000Z</time></trkpt><trkpt lon="5.748791" lat="51.281756"><ele>28</ele><time>2022-06-05T08:56:25.000Z</time></trkpt><trkpt lon="5.748811" lat="51.281691"><ele>28</ele><time>2022-06-05T08:56:26.000Z</time></trkpt><trkpt lon="5.748831" lat="51.281627"><ele>28.2</ele><time>2022-06-05T08:56:27.000Z</time></trkpt><trkpt lon="5.748849" lat="51.281561"><ele>28.2</ele><time>2022-06-05T08:56:28.000Z</time></trkpt><trkpt lon="5.748866" lat="51.2815"><ele>28.2</ele><time>2022-06-05T08:56:29.000Z</time></trkpt><trkpt lon="5.748888" lat="51.281435"><ele>28.2</ele><time>2022-06-05T08:56:30.000Z</time></trkpt><trkpt lon="5.748908" lat="51.281371"><ele>28.2</ele><time>2022-06-05T08:56:31.000Z</time></trkpt><trkpt lon="5.748931" lat="51.281306"><ele>28.2</ele><time>2022-06-05T08:56:32.000Z</time></trkpt><trkpt lon="5.748956" lat="51.281236"><ele>28.2</ele><time>2022-06-05T08:56:33.000Z</time></trkpt><trkpt lon="5.748982" lat="51.281165"><ele>28.2</ele><time>2022-06-05T08:56:34.000Z</time></trkpt><trkpt lon="5.749006" lat="51.281092"><ele>28.2</ele><time>2022-06-05T08:56:35.000Z</time></trkpt><trkpt lon="5.749027" lat="51.28102"><ele>28.4</ele><time>2022-06-05T08:56:36.000Z</time></trkpt><trkpt lon="5.749051" lat="51.280951"><ele>28.4</ele><time>2022-06-05T08:56:37.000Z</time></trkpt><trkpt lon="5.749073" lat="51.280882"><ele>28.4</ele><time>2022-06-05T08:56:38.000Z</time></trkpt><trkpt lon="5.749094" lat="51.280814"><ele>28.4</ele><time>2022-06-05T08:56:39.000Z</time></trkpt><trkpt lon="5.749118" lat="51.280745"><ele>28.4</ele><time>2022-06-05T08:56:40.000Z</time></trkpt><trkpt lon="5.749139" lat="51.28068"><ele>28.4</ele><time>2022-06-05T08:56:41.000Z</time></trkpt><trkpt lon="5.749159" lat="51.280611"><ele>28.2</ele><time>2022-06-05T08:56:42.000Z</time></trkpt><trkpt lon="5.749178" lat="51.28055"><ele>28.2</ele><time>2022-06-05T08:56:43.000Z</time></trkpt><trkpt lon="5.749196" lat="51.280486"><ele>28.2</ele><time>2022-06-05T08:56:44.000Z</time></trkpt><trkpt lon="5.749215" lat="51.280422"><ele>28.2</ele><time>2022-06-05T08:56:45.000Z</time></trkpt><trkpt lon="5.749236" lat="51.28036"><ele>28.2</ele><time>2022-06-05T08:56:46.000Z</time></trkpt><trkpt lon="5.749258" lat="51.280295"><ele>28.2</ele><time>2022-06-05T08:56:47.000Z</time></trkpt><trkpt lon="5.749273" lat="51.280233"><ele>28.2</ele><time>2022-06-05T08:56:48.000Z</time></trkpt><trkpt lon="5.749283" lat="51.280169"><ele>28.2</ele><time>2022-06-05T08:56:49.000Z</time></trkpt><trkpt lon="5.749288" lat="51.280112"><ele>28.4</ele><time>2022-06-05T08:56:50.000Z</time></trkpt><trkpt lon="5.749292" lat="51.28005"><ele>28.4</ele><time>2022-06-05T08:56:51.000Z</time></trkpt><trkpt lon="5.749295" lat="51.27999"><ele>28.4</ele><time>2022-06-05T08:56:52.000Z</time></trkpt><trkpt lon="5.749298" lat="51.279932"><ele>28.4</ele><time>2022-06-05T08:56:53.000Z</time></trkpt><trkpt lon="5.749298" lat="51.279871"><ele>28.6</ele><time>2022-06-05T08:56:54.000Z</time></trkpt><trkpt lon="5.749304" lat="51.279814"><ele>28.6</ele><time>2022-06-05T08:56:55.000Z</time></trkpt><trkpt lon="5.749318" lat="51.279757"><ele>28.6</ele><time>2022-06-05T08:56:56.000Z</time></trkpt><trkpt lon="5.749334" lat="51.279703"><ele>28.8</ele><time>2022-06-05T08:56:57.000Z</time></trkpt><trkpt lon="5.749349" lat="51.27965"><ele>28.6</ele><time>2022-06-05T08:56:58.000Z</time></trkpt><trkpt lon="5.74936" lat="51.2796"><ele>28.6</ele><time>2022-06-05T08:56:59.000Z</time></trkpt><trkpt lon="5.749365" lat="51.27955"><ele>28.4</ele><time>2022-06-05T08:57:00.000Z</time></trkpt><trkpt lon="5.749358" lat="51.279508"><ele>28.4</ele><time>2022-06-05T08:57:01.000Z</time></trkpt><trkpt lon="5.749341" lat="51.27947"><ele>28.4</ele><time>2022-06-05T08:57:02.000Z</time></trkpt><trkpt lon="5.749316" lat="51.279439"><ele>28.4</ele><time>2022-06-05T08:57:03.000Z</time></trkpt><trkpt lon="5.749294" lat="51.279416"><ele>28.6</ele><time>2022-06-05T08:57:04.000Z</time></trkpt><trkpt lon="5.749287" lat="51.279397"><ele>28.6</ele><time>2022-06-05T08:57:05.000Z</time></trkpt><trkpt lon="5.749287" lat="51.279385"><ele>28.6</ele><time>2022-06-05T08:57:06.000Z</time></trkpt><trkpt lon="5.749287" lat="51.279377"><ele>28.8</ele><time>2022-06-05T08:57:32.000Z</time></trkpt><trkpt lon="5.749287" lat="51.279377"><ele>28.8</ele><time>2022-06-05T08:57:33.000Z</time></trkpt><trkpt lon="5.749307" lat="51.279355"><ele>28.8</ele><time>2022-06-05T08:57:34.000Z</time></trkpt><trkpt lon="5.749324" lat="51.279336"><ele>28.8</ele><time>2022-06-05T08:57:35.000Z</time></trkpt><trkpt lon="5.749343" lat="51.279309"><ele>28.8</ele><time>2022-06-05T08:57:36.000Z</time></trkpt><trkpt lon="5.749363" lat="51.279275"><ele>28.8</ele><time>2022-06-05T08:57:37.000Z</time></trkpt><trkpt lon="5.749387" lat="51.279238"><ele>28.8</ele><time>2022-06-05T08:57:38.000Z</time></trkpt><trkpt lon="5.74942" lat="51.279193"><ele>28.8</ele><time>2022-06-05T08:57:39.000Z</time></trkpt><trkpt lon="5.749465" lat="51.279154"><ele>28.6</ele><time>2022-06-05T08:57:40.000Z</time></trkpt><trkpt lon="5.749532" lat="51.279115"><ele>28.4</ele><time>2022-06-05T08:57:41.000Z</time></trkpt><trkpt lon="5.749603" lat="51.279073"><ele>28.2</ele><time>2022-06-05T08:57:42.000Z</time></trkpt><trkpt lon="5.749664" lat="51.279021"><ele>28.2</ele><time>2022-06-05T08:57:43.000Z</time></trkpt><trkpt lon="5.749722" lat="51.27896"><ele>28</ele><time>2022-06-05T08:57:44.000Z</time></trkpt><trkpt lon="5.749778" lat="51.278902"><ele>27.8</ele><time>2022-06-05T08:57:45.000Z</time></trkpt><trkpt lon="5.749828" lat="51.278838"><ele>27.8</ele><time>2022-06-05T08:57:46.000Z</time></trkpt><trkpt lon="5.749873" lat="51.27877"><ele>27.8</ele><time>2022-06-05T08:57:47.000Z</time></trkpt><trkpt lon="5.749911" lat="51.278705"><ele>27.8</ele><time>2022-06-05T08:57:48.000Z</time></trkpt><trkpt lon="5.749947" lat="51.27864"><ele>27.8</ele><time>2022-06-05T08:57:49.000Z</time></trkpt><trkpt lon="5.749982" lat="51.278575"><ele>27.8</ele><time>2022-06-05T08:57:50.000Z</time></trkpt><trkpt lon="5.75001" lat="51.278509"><ele>28</ele><time>2022-06-05T08:57:51.000Z</time></trkpt><trkpt lon="5.750036" lat="51.278441"><ele>28</ele><time>2022-06-05T08:57:52.000Z</time></trkpt><trkpt lon="5.750059" lat="51.278376"><ele>28</ele><time>2022-06-05T08:57:53.000Z</time></trkpt><trkpt lon="5.750078" lat="51.278308"><ele>28.2</ele><time>2022-06-05T08:57:54.000Z</time></trkpt><trkpt lon="5.750093" lat="51.278239"><ele>28.2</ele><time>2022-06-05T08:57:55.000Z</time></trkpt><trkpt lon="5.750101" lat="51.27817"><ele>28.2</ele><time>2022-06-05T08:57:56.000Z</time></trkpt><trkpt lon="5.750108" lat="51.278098"><ele>28.2</ele><time>2022-06-05T08:57:57.000Z</time></trkpt><trkpt lon="5.750111" lat="51.27803"><ele>28.2</ele><time>2022-06-05T08:57:58.000Z</time></trkpt><trkpt lon="5.750112" lat="51.277961"><ele>28.4</ele><time>2022-06-05T08:57:59.000Z</time></trkpt><trkpt lon="5.750105" lat="51.277892"><ele>28.4</ele><time>2022-06-05T08:58:00.000Z</time></trkpt><trkpt lon="5.750092" lat="51.277819"><ele>28.4</ele><time>2022-06-05T08:58:01.000Z</time></trkpt><trkpt lon="5.750077" lat="51.27775"><ele>28.4</ele><time>2022-06-05T08:58:02.000Z</time></trkpt><trkpt lon="5.750057" lat="51.277678"><ele>28.4</ele><time>2022-06-05T08:58:03.000Z</time></trkpt><trkpt lon="5.750036" lat="51.277606"><ele>28.4</ele><time>2022-06-05T08:58:04.000Z</time></trkpt><trkpt lon="5.750008" lat="51.277537"><ele>28.4</ele><time>2022-06-05T08:58:05.000Z</time></trkpt><trkpt lon="5.749975" lat="51.277465"><ele>28.2</ele><time>2022-06-05T08:58:06.000Z</time></trkpt><trkpt lon="5.749939" lat="51.277395"><ele>28.2</ele><time>2022-06-05T08:58:07.000Z</time></trkpt><trkpt lon="5.749903" lat="51.277331"><ele>28.2</ele><time>2022-06-05T08:58:08.000Z</time></trkpt><trkpt lon="5.749863" lat="51.277266"><ele>28.2</ele><time>2022-06-05T08:58:09.000Z</time></trkpt><trkpt lon="5.749822" lat="51.277201"><ele>28.2</ele><time>2022-06-05T08:58:10.000Z</time></trkpt><trkpt lon="5.749775" lat="51.27714"><ele>28.4</ele><time>2022-06-05T08:58:11.000Z</time></trkpt><trkpt lon="5.749728" lat="51.277078"><ele>28.4</ele><time>2022-06-05T08:58:12.000Z</time></trkpt><trkpt lon="5.749682" lat="51.277018"><ele>28.4</ele><time>2022-06-05T08:58:13.000Z</time></trkpt><trkpt lon="5.749635" lat="51.27696"><ele>28.2</ele><time>2022-06-05T08:58:14.000Z</time></trkpt><trkpt lon="5.74958" lat="51.276896"><ele>28.2</ele><time>2022-06-05T08:58:15.000Z</time></trkpt><trkpt lon="5.749527" lat="51.276835"><ele>28.2</ele><time>2022-06-05T08:58:16.000Z</time></trkpt><trkpt lon="5.749472" lat="51.276777"><ele>28.2</ele><time>2022-06-05T08:58:17.000Z</time></trkpt><trkpt lon="5.749415" lat="51.276718"><ele>28.4</ele><time>2022-06-05T08:58:18.000Z</time></trkpt><trkpt lon="5.749357" lat="51.276659"><ele>28.6</ele><time>2022-06-05T08:58:19.000Z</time></trkpt><trkpt lon="5.749298" lat="51.276598"><ele>28.8</ele><time>2022-06-05T08:58:20.000Z</time></trkpt><trkpt lon="5.74924" lat="51.27654"><ele>28.8</ele><time>2022-06-05T08:58:21.000Z</time></trkpt><trkpt lon="5.749178" lat="51.276483"><ele>28.8</ele><time>2022-06-05T08:58:22.000Z</time></trkpt><trkpt lon="5.749119" lat="51.276422"><ele>28.8</ele><time>2022-06-05T08:58:23.000Z</time></trkpt><trkpt lon="5.74906" lat="51.276361"><ele>28.8</ele><time>2022-06-05T08:58:24.000Z</time></trkpt><trkpt lon="5.749002" lat="51.276303"><ele>28.8</ele><time>2022-06-05T08:58:25.000Z</time></trkpt><trkpt lon="5.748939" lat="51.27624"><ele>28.8</ele><time>2022-06-05T08:58:26.000Z</time></trkpt><trkpt lon="5.748875" lat="51.276178"><ele>28.8</ele><time>2022-06-05T08:58:27.000Z</time></trkpt><trkpt lon="5.748812" lat="51.276117"><ele>28.8</ele><time>2022-06-05T08:58:28.000Z</time></trkpt><trkpt lon="5.748752" lat="51.276056"><ele>28.6</ele><time>2022-06-05T08:58:29.000Z</time></trkpt><trkpt lon="5.748694" lat="51.275995"><ele>28.8</ele><time>2022-06-05T08:58:30.000Z</time></trkpt><trkpt lon="5.748635" lat="51.275934"><ele>28.8</ele><time>2022-06-05T08:58:31.000Z</time></trkpt><trkpt lon="5.748577" lat="51.27587"><ele>28.6</ele><time>2022-06-05T08:58:32.000Z</time></trkpt><trkpt lon="5.748522" lat="51.275806"><ele>28.6</ele><time>2022-06-05T08:58:33.000Z</time></trkpt><trkpt lon="5.748475" lat="51.275737"><ele>28.6</ele><time>2022-06-05T08:58:34.000Z</time></trkpt><trkpt lon="5.74843" lat="51.275672"><ele>28.6</ele><time>2022-06-05T08:58:35.000Z</time></trkpt><trkpt lon="5.748388" lat="51.275602"><ele>28.6</ele><time>2022-06-05T08:58:36.000Z</time></trkpt><trkpt lon="5.74835" lat="51.275535"><ele>28.4</ele><time>2022-06-05T08:58:37.000Z</time></trkpt><trkpt lon="5.748319" lat="51.275466"><ele>28.4</ele><time>2022-06-05T08:58:38.000Z</time></trkpt><trkpt lon="5.748305" lat="51.275397"><ele>28.4</ele><time>2022-06-05T08:58:39.000Z</time></trkpt><trkpt lon="5.7483" lat="51.275326"><ele>28.6</ele><time>2022-06-05T08:58:40.000Z</time></trkpt><trkpt lon="5.748308" lat="51.275256"><ele>28.6</ele><time>2022-06-05T08:58:41.000Z</time></trkpt><trkpt lon="5.748316" lat="51.275187"><ele>28.6</ele><time>2022-06-05T08:58:42.000Z</time></trkpt><trkpt lon="5.748325" lat="51.275115"><ele>28.6</ele><time>2022-06-05T08:58:43.000Z</time></trkpt><trkpt lon="5.74833" lat="51.275046"><ele>28.6</ele><time>2022-06-05T08:58:44.000Z</time></trkpt><trkpt lon="5.748338" lat="51.274974"><ele>28.8</ele><time>2022-06-05T08:58:45.000Z</time></trkpt><trkpt lon="5.748351" lat="51.274902"><ele>28.8</ele><time>2022-06-05T08:58:46.000Z</time></trkpt><trkpt lon="5.748368" lat="51.274832"><ele>28.6</ele><time>2022-06-05T08:58:47.000Z</time></trkpt><trkpt lon="5.748396" lat="51.274761"><ele>28.6</ele><time>2022-06-05T08:58:48.000Z</time></trkpt><trkpt lon="5.748434" lat="51.274694"><ele>28.8</ele><time>2022-06-05T08:58:49.000Z</time></trkpt><trkpt lon="5.748473" lat="51.27463"><ele>28.8</ele><time>2022-06-05T08:58:50.000Z</time></trkpt><trkpt lon="5.748512" lat="51.274565"><ele>28.8</ele><time>2022-06-05T08:58:51.000Z</time></trkpt><trkpt lon="5.748555" lat="51.274504"><ele>29</ele><time>2022-06-05T08:58:52.000Z</time></trkpt><trkpt lon="5.748596" lat="51.274443"><ele>29</ele><time>2022-06-05T08:58:53.000Z</time></trkpt><trkpt lon="5.748637" lat="51.274386"><ele>29</ele><time>2022-06-05T08:58:54.000Z</time></trkpt><trkpt lon="5.748674" lat="51.274324"><ele>29</ele><time>2022-06-05T08:58:55.000Z</time></trkpt><trkpt lon="5.74871" lat="51.274267"><ele>29.2</ele><time>2022-06-05T08:58:56.000Z</time></trkpt><trkpt lon="5.74875" lat="51.27421"><ele>29.2</ele><time>2022-06-05T08:58:57.000Z</time></trkpt><trkpt lon="5.74879" lat="51.274153"><ele>29.2</ele><time>2022-06-05T08:58:58.000Z</time></trkpt><trkpt lon="5.74883" lat="51.274092"><ele>29.2</ele><time>2022-06-05T08:58:59.000Z</time></trkpt><trkpt lon="5.748866" lat="51.274037"><ele>29.4</ele><time>2022-06-05T08:59:00.000Z</time></trkpt><trkpt lon="5.748907" lat="51.273981"><ele>29.4</ele><time>2022-06-05T08:59:01.000Z</time></trkpt><trkpt lon="5.748945" lat="51.273932"><ele>29.6</ele><time>2022-06-05T08:59:02.000Z</time></trkpt><trkpt lon="5.74898" lat="51.273882"><ele>29.6</ele><time>2022-06-05T08:59:03.000Z</time></trkpt><trkpt lon="5.749012" lat="51.273829"><ele>29.6</ele><time>2022-06-05T08:59:04.000Z</time></trkpt><trkpt lon="5.749042" lat="51.273782"><ele>29.8</ele><time>2022-06-05T08:59:05.000Z</time></trkpt><trkpt lon="5.74907" lat="51.273741"><ele>29.8</ele><time>2022-06-05T08:59:06.000Z</time></trkpt><trkpt lon="5.7491" lat="51.273702"><ele>29.8</ele><time>2022-06-05T08:59:07.000Z</time></trkpt><trkpt lon="5.749129" lat="51.273671"><ele>30</ele><time>2022-06-05T08:59:08.000Z</time></trkpt><trkpt lon="5.749158" lat="51.273656"><ele>30.2</ele><time>2022-06-05T08:59:09.000Z</time></trkpt><trkpt lon="5.749195" lat="51.273648"><ele>30.2</ele><time>2022-06-05T08:59:10.000Z</time></trkpt><trkpt lon="5.749237" lat="51.273655"><ele>30.2</ele><time>2022-06-05T08:59:11.000Z</time></trkpt><trkpt lon="5.749287" lat="51.27367"><ele>30.2</ele><time>2022-06-05T08:59:12.000Z</time></trkpt><trkpt lon="5.749347" lat="51.273685"><ele>30.2</ele><time>2022-06-05T08:59:13.000Z</time></trkpt><trkpt lon="5.74942" lat="51.2737"><ele>30.2</ele><time>2022-06-05T08:59:14.000Z</time></trkpt><trkpt lon="5.7495" lat="51.273715"><ele>30.2</ele><time>2022-06-05T08:59:15.000Z</time></trkpt><trkpt lon="5.749582" lat="51.273734"><ele>30.2</ele><time>2022-06-05T08:59:16.000Z</time></trkpt><trkpt lon="5.749665" lat="51.273761"><ele>30</ele><time>2022-06-05T08:59:17.000Z</time></trkpt><trkpt lon="5.74974" lat="51.273787"><ele>30</ele><time>2022-06-05T08:59:18.000Z</time></trkpt><trkpt lon="5.749817" lat="51.273814"><ele>30</ele><time>2022-06-05T08:59:19.000Z</time></trkpt><trkpt lon="5.749889" lat="51.273841"><ele>30</ele><time>2022-06-05T08:59:20.000Z</time></trkpt><trkpt lon="5.749962" lat="51.273867"><ele>30</ele><time>2022-06-05T08:59:21.000Z</time></trkpt><trkpt lon="5.750034" lat="51.273898"><ele>30</ele><time>2022-06-05T08:59:22.000Z</time></trkpt><trkpt lon="5.750109" lat="51.273921"><ele>30</ele><time>2022-06-05T08:59:23.000Z</time></trkpt><trkpt lon="5.750177" lat="51.273946"><ele>30</ele><time>2022-06-05T08:59:24.000Z</time></trkpt><trkpt lon="5.750247" lat="51.273971"><ele>30</ele><time>2022-06-05T08:59:25.000Z</time></trkpt><trkpt lon="5.750311" lat="51.273994"><ele>30</ele><time>2022-06-05T08:59:26.000Z</time></trkpt><trkpt lon="5.750375" lat="51.274013"><ele>30</ele><time>2022-06-05T08:59:27.000Z</time></trkpt><trkpt lon="5.750436" lat="51.274025"><ele>30</ele><time>2022-06-05T08:59:28.000Z</time></trkpt><trkpt lon="5.750491" lat="51.274018"><ele>30.2</ele><time>2022-06-05T08:59:29.000Z</time></trkpt><trkpt lon="5.750539" lat="51.274003"><ele>30.2</ele><time>2022-06-05T08:59:30.000Z</time></trkpt><trkpt lon="5.750584" lat="51.273972"><ele>30.2</ele><time>2022-06-05T08:59:31.000Z</time></trkpt><trkpt lon="5.750627" lat="51.273939"><ele>30.2</ele><time>2022-06-05T08:59:32.000Z</time></trkpt><trkpt lon="5.750673" lat="51.273901"><ele>30.2</ele><time>2022-06-05T08:59:33.000Z</time></trkpt><trkpt lon="5.750714" lat="51.273856"><ele>30.2</ele><time>2022-06-05T08:59:34.000Z</time></trkpt><trkpt lon="5.750749" lat="51.273802"><ele>30.2</ele><time>2022-06-05T08:59:35.000Z</time></trkpt><trkpt lon="5.750782" lat="51.273749"><ele>30.2</ele><time>2022-06-05T08:59:36.000Z</time></trkpt><trkpt lon="5.750812" lat="51.273699"><ele>30.2</ele><time>2022-06-05T08:59:37.000Z</time></trkpt><trkpt lon="5.750842" lat="51.273647"><ele>30</ele><time>2022-06-05T08:59:38.000Z</time></trkpt><trkpt lon="5.750882" lat="51.273585"><ele>30</ele><time>2022-06-05T08:59:39.000Z</time></trkpt><trkpt lon="5.750915" lat="51.273534"><ele>30</ele><time>2022-06-05T08:59:40.000Z</time></trkpt><trkpt lon="5.750949" lat="51.273478"><ele>30</ele><time>2022-06-05T08:59:41.000Z</time></trkpt><trkpt lon="5.750982" lat="51.273425"><ele>30</ele><time>2022-06-05T08:59:42.000Z</time></trkpt><trkpt lon="5.751011" lat="51.273375"><ele>30.2</ele><time>2022-06-05T08:59:43.000Z</time></trkpt><trkpt lon="5.751041" lat="51.273321"><ele>30.2</ele><time>2022-06-05T08:59:44.000Z</time></trkpt><trkpt lon="5.751075" lat="51.273268"><ele>30.4</ele><time>2022-06-05T08:59:45.000Z</time></trkpt><trkpt lon="5.751109" lat="51.273218"><ele>30.4</ele><time>2022-06-05T08:59:46.000Z</time></trkpt><trkpt lon="5.75114" lat="51.273172"><ele>30.6</ele><time>2022-06-05T08:59:47.000Z</time></trkpt><trkpt lon="5.751173" lat="51.273127"><ele>30.6</ele><time>2022-06-05T08:59:48.000Z</time></trkpt><trkpt lon="5.751202" lat="51.273081"><ele>30.6</ele><time>2022-06-05T08:59:49.000Z</time></trkpt><trkpt lon="5.751218" lat="51.273035"><ele>30.6</ele><time>2022-06-05T08:59:50.000Z</time></trkpt><trkpt lon="5.751217" lat="51.272982"><ele>30.6</ele><time>2022-06-05T08:59:51.000Z</time></trkpt><trkpt lon="5.751189" lat="51.272943"><ele>30.6</ele><time>2022-06-05T08:59:52.000Z</time></trkpt><trkpt lon="5.751142" lat="51.272912"><ele>30.8</ele><time>2022-06-05T08:59:53.000Z</time></trkpt><trkpt lon="5.751073" lat="51.272889"><ele>30.8</ele><time>2022-06-05T08:59:54.000Z</time></trkpt><trkpt lon="5.750996" lat="51.27287"><ele>30.6</ele><time>2022-06-05T08:59:55.000Z</time></trkpt><trkpt lon="5.750915" lat="51.272854"><ele>30.6</ele><time>2022-06-05T08:59:56.000Z</time></trkpt><trkpt lon="5.75082" lat="51.272835"><ele>30.6</ele><time>2022-06-05T08:59:57.000Z</time></trkpt><trkpt lon="5.75073" lat="51.272816"><ele>30.4</ele><time>2022-06-05T08:59:58.000Z</time></trkpt><trkpt lon="5.750647" lat="51.2728"><ele>30.4</ele><time>2022-06-05T08:59:59.000Z</time></trkpt><trkpt lon="5.750539" lat="51.272772"><ele>30.4</ele><time>2022-06-05T09:00:00.000Z</time></trkpt><trkpt lon="5.750441" lat="51.272744"><ele>30.2</ele><time>2022-06-05T09:00:01.000Z</time></trkpt><trkpt lon="5.750344" lat="51.272718"><ele>30.2</ele><time>2022-06-05T09:00:02.000Z</time></trkpt><trkpt lon="5.750245" lat="51.272691"><ele>30.2</ele><time>2022-06-05T09:00:03.000Z</time></trkpt><trkpt lon="5.750146" lat="51.272668"><ele>30.4</ele><time>2022-06-05T09:00:04.000Z</time></trkpt><trkpt lon="5.750046" lat="51.272645"><ele>30.4</ele><time>2022-06-05T09:00:05.000Z</time></trkpt><trkpt lon="5.74996" lat="51.272619"><ele>30.6</ele><time>2022-06-05T09:00:06.000Z</time></trkpt><trkpt lon="5.749886" lat="51.272595"><ele>30.6</ele><time>2022-06-05T09:00:07.000Z</time></trkpt><trkpt lon="5.749823" lat="51.272565"><ele>30.6</ele><time>2022-06-05T09:00:08.000Z</time></trkpt><trkpt lon="5.749773" lat="51.272538"><ele>30.6</ele><time>2022-06-05T09:00:09.000Z</time></trkpt><trkpt lon="5.749744" lat="51.272505"><ele>30.4</ele><time>2022-06-05T09:00:10.000Z</time></trkpt><trkpt lon="5.749747" lat="51.272463"><ele>30.2</ele><time>2022-06-05T09:00:11.000Z</time></trkpt><trkpt lon="5.749772" lat="51.272406"><ele>30</ele><time>2022-06-05T09:00:12.000Z</time></trkpt><trkpt lon="5.749813" lat="51.272339"><ele>29.8</ele><time>2022-06-05T09:00:13.000Z</time></trkpt><trkpt lon="5.749852" lat="51.272262"><ele>29.6</ele><time>2022-06-05T09:00:14.000Z</time></trkpt><trkpt lon="5.749897" lat="51.272181"><ele>29.4</ele><time>2022-06-05T09:00:15.000Z</time></trkpt><trkpt lon="5.749948" lat="51.272098"><ele>29.2</ele><time>2022-06-05T09:00:16.000Z</time></trkpt><trkpt lon="5.749995" lat="51.272014"><ele>29</ele><time>2022-06-05T09:00:17.000Z</time></trkpt><trkpt lon="5.750038" lat="51.271937"><ele>29</ele><time>2022-06-05T09:00:18.000Z</time></trkpt><trkpt lon="5.750083" lat="51.27185"><ele>29</ele><time>2022-06-05T09:00:19.000Z</time></trkpt><trkpt lon="5.750121" lat="51.271774"><ele>28.8</ele><time>2022-06-05T09:00:20.000Z</time></trkpt><trkpt lon="5.750164" lat="51.271689"><ele>28.8</ele><time>2022-06-05T09:00:21.000Z</time></trkpt><trkpt lon="5.750202" lat="51.271616"><ele>28.6</ele><time>2022-06-05T09:00:22.000Z</time></trkpt><trkpt lon="5.750238" lat="51.271545"><ele>28.6</ele><time>2022-06-05T09:00:23.000Z</time></trkpt><trkpt lon="5.750272" lat="51.271476"><ele>28.6</ele><time>2022-06-05T09:00:24.000Z</time></trkpt><trkpt lon="5.750307" lat="51.271407"><ele>28.6</ele><time>2022-06-05T09:00:25.000Z</time></trkpt><trkpt lon="5.75034" lat="51.271339"><ele>28.6</ele><time>2022-06-05T09:00:26.000Z</time></trkpt><trkpt lon="5.750375" lat="51.271267"><ele>28.6</ele><time>2022-06-05T09:00:27.000Z</time></trkpt><trkpt lon="5.75041" lat="51.271197"><ele>28.6</ele><time>2022-06-05T09:00:28.000Z</time></trkpt><trkpt lon="5.750447" lat="51.271128"><ele>28.6</ele><time>2022-06-05T09:00:29.000Z</time></trkpt><trkpt lon="5.750482" lat="51.271061"><ele>28.4</ele><time>2022-06-05T09:00:30.000Z</time></trkpt><trkpt lon="5.750517" lat="51.270991"><ele>28.6</ele><time>2022-06-05T09:00:31.000Z</time></trkpt><trkpt lon="5.750554" lat="51.270922"><ele>28.6</ele><time>2022-06-05T09:00:32.000Z</time></trkpt><trkpt lon="5.750591" lat="51.270849"><ele>28.4</ele><time>2022-06-05T09:00:33.000Z</time></trkpt><trkpt lon="5.750625" lat="51.270781"><ele>28.4</ele><time>2022-06-05T09:00:34.000Z</time></trkpt><trkpt lon="5.750657" lat="51.270709"><ele>28.4</ele><time>2022-06-05T09:00:35.000Z</time></trkpt><trkpt lon="5.750688" lat="51.270636"><ele>28.2</ele><time>2022-06-05T09:00:36.000Z</time></trkpt><trkpt lon="5.750717" lat="51.270564"><ele>28</ele><time>2022-06-05T09:00:37.000Z</time></trkpt><trkpt lon="5.750747" lat="51.270492"><ele>28</ele><time>2022-06-05T09:00:38.000Z</time></trkpt><trkpt lon="5.750772" lat="51.270419"><ele>28</ele><time>2022-06-05T09:00:39.000Z</time></trkpt><trkpt lon="5.750793" lat="51.270343"><ele>28</ele><time>2022-06-05T09:00:40.000Z</time></trkpt><trkpt lon="5.750813" lat="51.270274"><ele>28</ele><time>2022-06-05T09:00:41.000Z</time></trkpt><trkpt lon="5.75083" lat="51.270202"><ele>28</ele><time>2022-06-05T09:00:42.000Z</time></trkpt><trkpt lon="5.750838" lat="51.270133"><ele>28.2</ele><time>2022-06-05T09:00:43.000Z</time></trkpt><trkpt lon="5.750837" lat="51.27006"><ele>28.2</ele><time>2022-06-05T09:00:44.000Z</time></trkpt><trkpt lon="5.750835" lat="51.269991"><ele>28.2</ele><time>2022-06-05T09:00:45.000Z</time></trkpt><trkpt lon="5.750835" lat="51.269919"><ele>28.4</ele><time>2022-06-05T09:00:46.000Z</time></trkpt><trkpt lon="5.75084" lat="51.26985"><ele>28.4</ele><time>2022-06-05T09:00:47.000Z</time></trkpt><trkpt lon="5.750844" lat="51.269796"><ele>28.4</ele><time>2022-06-05T09:00:48.000Z</time></trkpt><trkpt lon="5.750848" lat="51.269712"><ele>28.4</ele><time>2022-06-05T09:00:49.000Z</time></trkpt><trkpt lon="5.750851" lat="51.269647"><ele>28.4</ele><time>2022-06-05T09:00:50.000Z</time></trkpt><trkpt lon="5.750857" lat="51.269575"><ele>28.4</ele><time>2022-06-05T09:00:51.000Z</time></trkpt><trkpt lon="5.750858" lat="51.269511"><ele>28.4</ele><time>2022-06-05T09:00:52.000Z</time></trkpt><trkpt lon="5.750863" lat="51.269446"><ele>28.2</ele><time>2022-06-05T09:00:53.000Z</time></trkpt><trkpt lon="5.750868" lat="51.269385"><ele>28.2</ele><time>2022-06-05T09:00:54.000Z</time></trkpt><trkpt lon="5.750873" lat="51.269324"><ele>28.2</ele><time>2022-06-05T09:00:55.000Z</time></trkpt><trkpt lon="5.750877" lat="51.26926"><ele>28.4</ele><time>2022-06-05T09:00:56.000Z</time></trkpt><trkpt lon="5.750864" lat="51.269202"><ele>28.4</ele><time>2022-06-05T09:00:57.000Z</time></trkpt><trkpt lon="5.750829" lat="51.269144"><ele>28.4</ele><time>2022-06-05T09:00:58.000Z</time></trkpt><trkpt lon="5.750769" lat="51.269102"><ele>28.4</ele><time>2022-06-05T09:00:59.000Z</time></trkpt><trkpt lon="5.750689" lat="51.269067"><ele>28.4</ele><time>2022-06-05T09:01:00.000Z</time></trkpt><trkpt lon="5.750603" lat="51.269029"><ele>28.4</ele><time>2022-06-05T09:01:01.000Z</time></trkpt><trkpt lon="5.750514" lat="51.268988"><ele>28.4</ele><time>2022-06-05T09:01:02.000Z</time></trkpt><trkpt lon="5.750428" lat="51.268943"><ele>28.4</ele><time>2022-06-05T09:01:03.000Z</time></trkpt><trkpt lon="5.750345" lat="51.268896"><ele>28.4</ele><time>2022-06-05T09:01:04.000Z</time></trkpt><trkpt lon="5.750264" lat="51.26885"><ele>28.4</ele><time>2022-06-05T09:01:05.000Z</time></trkpt><trkpt lon="5.750178" lat="51.268801"><ele>28.4</ele><time>2022-06-05T09:01:06.000Z</time></trkpt><trkpt lon="5.750092" lat="51.268747"><ele>28.2</ele><time>2022-06-05T09:01:07.000Z</time></trkpt><trkpt lon="5.750005" lat="51.268694"><ele>28.2</ele><time>2022-06-05T09:01:08.000Z</time></trkpt><trkpt lon="5.749919" lat="51.268645"><ele>28.2</ele><time>2022-06-05T09:01:09.000Z</time></trkpt><trkpt lon="5.749832" lat="51.268592"><ele>28.2</ele><time>2022-06-05T09:01:10.000Z</time></trkpt><trkpt lon="5.749743" lat="51.268541"><ele>28.2</ele><time>2022-06-05T09:01:11.000Z</time></trkpt><trkpt lon="5.749662" lat="51.26849"><ele>28.2</ele><time>2022-06-05T09:01:12.000Z</time></trkpt><trkpt lon="5.749577" lat="51.268431"><ele>28.2</ele><time>2022-06-05T09:01:13.000Z</time></trkpt><trkpt lon="5.749489" lat="51.268373"><ele>28.2</ele><time>2022-06-05T09:01:14.000Z</time></trkpt><trkpt lon="5.749405" lat="51.268316"><ele>28</ele><time>2022-06-05T09:01:15.000Z</time></trkpt><trkpt lon="5.749325" lat="51.268256"><ele>28</ele><time>2022-06-05T09:01:16.000Z</time></trkpt><trkpt lon="5.749251" lat="51.268198"><ele>28</ele><time>2022-06-05T09:01:17.000Z</time></trkpt><trkpt lon="5.749187" lat="51.268133"><ele>28</ele><time>2022-06-05T09:01:18.000Z</time></trkpt><trkpt lon="5.749125" lat="51.268064"><ele>28</ele><time>2022-06-05T09:01:19.000Z</time></trkpt><trkpt lon="5.749073" lat="51.267997"><ele>28</ele><time>2022-06-05T09:01:20.000Z</time></trkpt><trkpt lon="5.749024" lat="51.267928"><ele>28.2</ele><time>2022-06-05T09:01:21.000Z</time></trkpt><trkpt lon="5.748975" lat="51.267859"><ele>28.2</ele><time>2022-06-05T09:01:22.000Z</time></trkpt><trkpt lon="5.748928" lat="51.26779"><ele>28.2</ele><time>2022-06-05T09:01:23.000Z</time></trkpt><trkpt lon="5.748883" lat="51.267722"><ele>28.2</ele><time>2022-06-05T09:01:24.000Z</time></trkpt><trkpt lon="5.748837" lat="51.267654"><ele>28.2</ele><time>2022-06-05T09:01:25.000Z</time></trkpt><trkpt lon="5.748793" lat="51.267588"><ele>28.2</ele><time>2022-06-05T09:01:26.000Z</time></trkpt><trkpt lon="5.748753" lat="51.26752"><ele>28.2</ele><time>2022-06-05T09:01:27.000Z</time></trkpt><trkpt lon="5.748712" lat="51.267451"><ele>28.2</ele><time>2022-06-05T09:01:28.000Z</time></trkpt><trkpt lon="5.74867" lat="51.267383"><ele>28.2</ele><time>2022-06-05T09:01:29.000Z</time></trkpt><trkpt lon="5.748634" lat="51.267316"><ele>28.2</ele><time>2022-06-05T09:01:30.000Z</time></trkpt><trkpt lon="5.748597" lat="51.267245"><ele>28.2</ele><time>2022-06-05T09:01:31.000Z</time></trkpt><trkpt lon="5.748561" lat="51.267173"><ele>28.2</ele><time>2022-06-05T09:01:32.000Z</time></trkpt><trkpt lon="5.748527" lat="51.267104"><ele>28.2</ele><time>2022-06-05T09:01:33.000Z</time></trkpt><trkpt lon="5.748485" lat="51.26704"><ele>28.2</ele><time>2022-06-05T09:01:34.000Z</time></trkpt><trkpt lon="5.74844" lat="51.266978"><ele>28.2</ele><time>2022-06-05T09:01:35.000Z</time></trkpt><trkpt lon="5.748391" lat="51.266917"><ele>28.2</ele><time>2022-06-05T09:01:36.000Z</time></trkpt><trkpt lon="5.748339" lat="51.266858"><ele>28.2</ele><time>2022-06-05T09:01:37.000Z</time></trkpt><trkpt lon="5.748281" lat="51.266798"><ele>28.2</ele><time>2022-06-05T09:01:38.000Z</time></trkpt><trkpt lon="5.748218" lat="51.266738"><ele>28.2</ele><time>2022-06-05T09:01:39.000Z</time></trkpt><trkpt lon="5.74815" lat="51.266684"><ele>28.4</ele><time>2022-06-05T09:01:40.000Z</time></trkpt><trkpt lon="5.748082" lat="51.26663"><ele>28.2</ele><time>2022-06-05T09:01:41.000Z</time></trkpt><trkpt lon="5.748003" lat="51.26657"><ele>28.2</ele><time>2022-06-05T09:01:42.000Z</time></trkpt><trkpt lon="5.747923" lat="51.266516"><ele>28.2</ele><time>2022-06-05T09:01:43.000Z</time></trkpt><trkpt lon="5.747843" lat="51.266459"><ele>28.2</ele><time>2022-06-05T09:01:44.000Z</time></trkpt><trkpt lon="5.747768" lat="51.266402"><ele>28.2</ele><time>2022-06-05T09:01:45.000Z</time></trkpt><trkpt lon="5.747703" lat="51.266341"><ele>28</ele><time>2022-06-05T09:01:46.000Z</time></trkpt><trkpt lon="5.747649" lat="51.26628"><ele>28.2</ele><time>2022-06-05T09:01:47.000Z</time></trkpt><trkpt lon="5.747612" lat="51.266227"><ele>28.2</ele><time>2022-06-05T09:01:48.000Z</time></trkpt><trkpt lon="5.747585" lat="51.266157"><ele>28.2</ele><time>2022-06-05T09:01:49.000Z</time></trkpt><trkpt lon="5.747562" lat="51.266078"><ele>28.2</ele><time>2022-06-05T09:01:50.000Z</time></trkpt><trkpt lon="5.747565" lat="51.266006"><ele>28.2</ele><time>2022-06-05T09:01:51.000Z</time></trkpt><trkpt lon="5.747573" lat="51.265933"><ele>28.2</ele><time>2022-06-05T09:01:52.000Z</time></trkpt><trkpt lon="5.747583" lat="51.265862"><ele>28</ele><time>2022-06-05T09:01:53.000Z</time></trkpt><trkpt lon="5.747596" lat="51.265788"><ele>28</ele><time>2022-06-05T09:01:54.000Z</time></trkpt><trkpt lon="5.747609" lat="51.265728"><ele>28</ele><time>2022-06-05T09:01:55.000Z</time></trkpt><trkpt lon="5.747629" lat="51.265648"><ele>28</ele><time>2022-06-05T09:01:56.000Z</time></trkpt><trkpt lon="5.747647" lat="51.265579"><ele>28</ele><time>2022-06-05T09:01:57.000Z</time></trkpt><trkpt lon="5.747663" lat="51.265509"><ele>28</ele><time>2022-06-05T09:01:58.000Z</time></trkpt><trkpt lon="5.747679" lat="51.265441"><ele>28</ele><time>2022-06-05T09:01:59.000Z</time></trkpt><trkpt lon="5.747691" lat="51.265369"><ele>28.2</ele><time>2022-06-05T09:02:00.000Z</time></trkpt><trkpt lon="5.7477" lat="51.265295"><ele>28.2</ele><time>2022-06-05T09:02:01.000Z</time></trkpt><trkpt lon="5.747708" lat="51.265224"><ele>28.2</ele><time>2022-06-05T09:02:02.000Z</time></trkpt><trkpt lon="5.747717" lat="51.26515"><ele>28.2</ele><time>2022-06-05T09:02:03.000Z</time></trkpt><trkpt lon="5.747723" lat="51.265079"><ele>28.2</ele><time>2022-06-05T09:02:04.000Z</time></trkpt><trkpt lon="5.747728" lat="51.265005"><ele>28.2</ele><time>2022-06-05T09:02:05.000Z</time></trkpt><trkpt lon="5.747733" lat="51.264934"><ele>28.2</ele><time>2022-06-05T09:02:06.000Z</time></trkpt><trkpt lon="5.747738" lat="51.264861"><ele>28.2</ele><time>2022-06-05T09:02:07.000Z</time></trkpt><trkpt lon="5.747745" lat="51.264789"><ele>28.2</ele><time>2022-06-05T09:02:08.000Z</time></trkpt><trkpt lon="5.74775" lat="51.264719"><ele>28.2</ele><time>2022-06-05T09:02:09.000Z</time></trkpt><trkpt lon="5.747755" lat="51.264647"><ele>28.2</ele><time>2022-06-05T09:02:10.000Z</time></trkpt><trkpt lon="5.74776" lat="51.264578"><ele>28.2</ele><time>2022-06-05T09:02:11.000Z</time></trkpt><trkpt lon="5.747763" lat="51.26451"><ele>28.4</ele><time>2022-06-05T09:02:12.000Z</time></trkpt><trkpt lon="5.747766" lat="51.264438"><ele>28.4</ele><time>2022-06-05T09:02:13.000Z</time></trkpt><trkpt lon="5.74777" lat="51.264372"><ele>28.4</ele><time>2022-06-05T09:02:14.000Z</time></trkpt><trkpt lon="5.74777" lat="51.2643"><ele>28.4</ele><time>2022-06-05T09:02:15.000Z</time></trkpt><trkpt lon="5.74777" lat="51.264231"><ele>28.4</ele><time>2022-06-05T09:02:16.000Z</time></trkpt><trkpt lon="5.747772" lat="51.264164"><ele>28.4</ele><time>2022-06-05T09:02:17.000Z</time></trkpt><trkpt lon="5.747774" lat="51.264105"><ele>28.4</ele><time>2022-06-05T09:02:18.000Z</time></trkpt><trkpt lon="5.747782" lat="51.264025"><ele>28.4</ele><time>2022-06-05T09:02:19.000Z</time></trkpt><trkpt lon="5.747786" lat="51.263956"><ele>28.2</ele><time>2022-06-05T09:02:20.000Z</time></trkpt><trkpt lon="5.74779" lat="51.263884"><ele>28.4</ele><time>2022-06-05T09:02:21.000Z</time></trkpt><trkpt lon="5.747796" lat="51.263811"><ele>28.2</ele><time>2022-06-05T09:02:22.000Z</time></trkpt><trkpt lon="5.747801" lat="51.263749"><ele>28.2</ele><time>2022-06-05T09:02:23.000Z</time></trkpt><trkpt lon="5.747806" lat="51.263673"><ele>28.2</ele><time>2022-06-05T09:02:24.000Z</time></trkpt><trkpt lon="5.747812" lat="51.263599"><ele>28.2</ele><time>2022-06-05T09:02:25.000Z</time></trkpt><trkpt lon="5.74782" lat="51.263526"><ele>28.2</ele><time>2022-06-05T09:02:26.000Z</time></trkpt><trkpt lon="5.747825" lat="51.263454"><ele>28.2</ele><time>2022-06-05T09:02:27.000Z</time></trkpt><trkpt lon="5.747828" lat="51.263385"><ele>28.2</ele><time>2022-06-05T09:02:28.000Z</time></trkpt><trkpt lon="5.747833" lat="51.263316"><ele>28.4</ele><time>2022-06-05T09:02:29.000Z</time></trkpt><trkpt lon="5.747838" lat="51.263244"><ele>28.4</ele><time>2022-06-05T09:02:30.000Z</time></trkpt><trkpt lon="5.747841" lat="51.263179"><ele>28.4</ele><time>2022-06-05T09:02:31.000Z</time></trkpt><trkpt lon="5.747845" lat="51.263105"><ele>28.4</ele><time>2022-06-05T09:02:32.000Z</time></trkpt><trkpt lon="5.747847" lat="51.263037"><ele>28.4</ele><time>2022-06-05T09:02:33.000Z</time></trkpt><trkpt lon="5.74785" lat="51.262965"><ele>28.4</ele><time>2022-06-05T09:02:34.000Z</time></trkpt><trkpt lon="5.747853" lat="51.262892"><ele>28.4</ele><time>2022-06-05T09:02:35.000Z</time></trkpt><trkpt lon="5.747856" lat="51.262823"><ele>28.4</ele><time>2022-06-05T09:02:36.000Z</time></trkpt><trkpt lon="5.747862" lat="51.262756"><ele>28.4</ele><time>2022-06-05T09:02:37.000Z</time></trkpt><trkpt lon="5.747868" lat="51.262687"><ele>28.4</ele><time>2022-06-05T09:02:38.000Z</time></trkpt><trkpt lon="5.747885" lat="51.262625"><ele>28.4</ele><time>2022-06-05T09:02:39.000Z</time></trkpt><trkpt lon="5.74792" lat="51.26256"><ele>28.2</ele><time>2022-06-05T09:02:40.000Z</time></trkpt><trkpt lon="5.747968" lat="51.262505"><ele>28.2</ele><time>2022-06-05T09:02:41.000Z</time></trkpt><trkpt lon="5.748035" lat="51.262446"><ele>28</ele><time>2022-06-05T09:02:42.000Z</time></trkpt><trkpt lon="5.748113" lat="51.262397"><ele>28.2</ele><time>2022-06-05T09:02:43.000Z</time></trkpt><trkpt lon="5.748197" lat="51.26235"><ele>28</ele><time>2022-06-05T09:02:44.000Z</time></trkpt><trkpt lon="5.74828" lat="51.262308"><ele>28.2</ele><time>2022-06-05T09:02:45.000Z</time></trkpt><trkpt lon="5.748367" lat="51.262266"><ele>28.2</ele><time>2022-06-05T09:02:46.000Z</time></trkpt><trkpt lon="5.748453" lat="51.262224"><ele>28.2</ele><time>2022-06-05T09:02:47.000Z</time></trkpt><trkpt lon="5.748539" lat="51.262178"><ele>28.2</ele><time>2022-06-05T09:02:48.000Z</time></trkpt><trkpt lon="5.748621" lat="51.262139"><ele>28.2</ele><time>2022-06-05T09:02:49.000Z</time></trkpt><trkpt lon="5.748705" lat="51.262102"><ele>28.4</ele><time>2022-06-05T09:02:50.000Z</time></trkpt><trkpt lon="5.748794" lat="51.26206"><ele>28.4</ele><time>2022-06-05T09:02:51.000Z</time></trkpt><trkpt lon="5.748887" lat="51.262021"><ele>28.4</ele><time>2022-06-05T09:02:52.000Z</time></trkpt><trkpt lon="5.748985" lat="51.261988"><ele>28.2</ele><time>2022-06-05T09:02:53.000Z</time></trkpt><trkpt lon="5.749088" lat="51.26196"><ele>28.2</ele><time>2022-06-05T09:02:54.000Z</time></trkpt><trkpt lon="5.749195" lat="51.261941"><ele>28.2</ele><time>2022-06-05T09:02:55.000Z</time></trkpt><trkpt lon="5.749303" lat="51.261922"><ele>28.2</ele><time>2022-06-05T09:02:56.000Z</time></trkpt><trkpt lon="5.749405" lat="51.261903"><ele>28.2</ele><time>2022-06-05T09:02:57.000Z</time></trkpt><trkpt lon="5.749511" lat="51.261891"><ele>28.2</ele><time>2022-06-05T09:02:58.000Z</time></trkpt><trkpt lon="5.74961" lat="51.261876"><ele>28.2</ele><time>2022-06-05T09:02:59.000Z</time></trkpt><trkpt lon="5.749716" lat="51.26186"><ele>28</ele><time>2022-06-05T09:03:00.000Z</time></trkpt><trkpt lon="5.749818" lat="51.261839"><ele>28</ele><time>2022-06-05T09:03:01.000Z</time></trkpt><trkpt lon="5.749922" lat="51.26182"><ele>28</ele><time>2022-06-05T09:03:02.000Z</time></trkpt><trkpt lon="5.750031" lat="51.261796"><ele>28.2</ele><time>2022-06-05T09:03:03.000Z</time></trkpt><trkpt lon="5.750137" lat="51.261769"><ele>28.2</ele><time>2022-06-05T09:03:04.000Z</time></trkpt><trkpt lon="5.75024" lat="51.261743"><ele>28.2</ele><time>2022-06-05T09:03:05.000Z</time></trkpt><trkpt lon="5.750348" lat="51.261712"><ele>28.2</ele><time>2022-06-05T09:03:06.000Z</time></trkpt><trkpt lon="5.750455" lat="51.261682"><ele>28.2</ele><time>2022-06-05T09:03:07.000Z</time></trkpt><trkpt lon="5.75056" lat="51.261652"><ele>28</ele><time>2022-06-05T09:03:08.000Z</time></trkpt><trkpt lon="5.750659" lat="51.261619"><ele>28</ele><time>2022-06-05T09:03:09.000Z</time></trkpt><trkpt lon="5.750764" lat="51.261584"><ele>28</ele><time>2022-06-05T09:03:10.000Z</time></trkpt><trkpt lon="5.750866" lat="51.261545"><ele>28</ele><time>2022-06-05T09:03:11.000Z</time></trkpt><trkpt lon="5.750965" lat="51.261511"><ele>28</ele><time>2022-06-05T09:03:12.000Z</time></trkpt><trkpt lon="5.751062" lat="51.261476"><ele>28</ele><time>2022-06-05T09:03:13.000Z</time></trkpt><trkpt lon="5.75116" lat="51.261442"><ele>28</ele><time>2022-06-05T09:03:14.000Z</time></trkpt><trkpt lon="5.751256" lat="51.261408"><ele>28</ele><time>2022-06-05T09:03:15.000Z</time></trkpt><trkpt lon="5.751356" lat="51.261373"><ele>28</ele><time>2022-06-05T09:03:16.000Z</time></trkpt><trkpt lon="5.751447" lat="51.26134"><ele>28</ele><time>2022-06-05T09:03:17.000Z</time></trkpt><trkpt lon="5.751547" lat="51.261308"><ele>27.8</ele><time>2022-06-05T09:03:18.000Z</time></trkpt><trkpt lon="5.751641" lat="51.261274"><ele>27.8</ele><time>2022-06-05T09:03:19.000Z</time></trkpt><trkpt lon="5.75174" lat="51.261239"><ele>27.8</ele><time>2022-06-05T09:03:20.000Z</time></trkpt><trkpt lon="5.751832" lat="51.261205"><ele>27.6</ele><time>2022-06-05T09:03:21.000Z</time></trkpt><trkpt lon="5.751929" lat="51.261175"><ele>27.8</ele><time>2022-06-05T09:03:22.000Z</time></trkpt><trkpt lon="5.752023" lat="51.261138"><ele>27.8</ele><time>2022-06-05T09:03:23.000Z</time></trkpt><trkpt lon="5.752123" lat="51.261099"><ele>27.6</ele><time>2022-06-05T09:03:24.000Z</time></trkpt><trkpt lon="5.752217" lat="51.261065"><ele>27.8</ele><time>2022-06-05T09:03:25.000Z</time></trkpt><trkpt lon="5.752316" lat="51.26103"><ele>27.8</ele><time>2022-06-05T09:03:26.000Z</time></trkpt><trkpt lon="5.752412" lat="51.260993"><ele>27.8</ele><time>2022-06-05T09:03:27.000Z</time></trkpt><trkpt lon="5.752514" lat="51.260957"><ele>27.8</ele><time>2022-06-05T09:03:28.000Z</time></trkpt><trkpt lon="5.75261" lat="51.260923"><ele>27.8</ele><time>2022-06-05T09:03:29.000Z</time></trkpt><trkpt lon="5.752709" lat="51.260885"><ele>27.8</ele><time>2022-06-05T09:03:30.000Z</time></trkpt><trkpt lon="5.752807" lat="51.260855"><ele>27.8</ele><time>2022-06-05T09:03:31.000Z</time></trkpt><trkpt lon="5.752908" lat="51.26082"><ele>27.8</ele><time>2022-06-05T09:03:32.000Z</time></trkpt><trkpt lon="5.753005" lat="51.260786"><ele>27.8</ele><time>2022-06-05T09:03:33.000Z</time></trkpt><trkpt lon="5.753111" lat="51.260755"><ele>27.6</ele><time>2022-06-05T09:03:34.000Z</time></trkpt><trkpt lon="5.753215" lat="51.260725"><ele>27.6</ele><time>2022-06-05T09:03:35.000Z</time></trkpt><trkpt lon="5.753325" lat="51.260705"><ele>27.6</ele><time>2022-06-05T09:03:36.000Z</time></trkpt><trkpt lon="5.753435" lat="51.260686"><ele>27.4</ele><time>2022-06-05T09:03:37.000Z</time></trkpt><trkpt lon="5.753549" lat="51.260674"><ele>27.4</ele><time>2022-06-05T09:03:38.000Z</time></trkpt><trkpt lon="5.753658" lat="51.26067"><ele>27.4</ele><time>2022-06-05T09:03:39.000Z</time></trkpt><trkpt lon="5.753776" lat="51.260666"><ele>27.2</ele><time>2022-06-05T09:03:40.000Z</time></trkpt><trkpt lon="5.753888" lat="51.260662"><ele>27.2</ele><time>2022-06-05T09:03:41.000Z</time></trkpt><trkpt lon="5.75401" lat="51.260655"><ele>27.2</ele><time>2022-06-05T09:03:42.000Z</time></trkpt><trkpt lon="5.754122" lat="51.260647"><ele>27.2</ele><time>2022-06-05T09:03:43.000Z</time></trkpt><trkpt lon="5.754236" lat="51.260643"><ele>27</ele><time>2022-06-05T09:03:44.000Z</time></trkpt><trkpt lon="5.754351" lat="51.260636"><ele>27</ele><time>2022-06-05T09:03:45.000Z</time></trkpt><trkpt lon="5.754469" lat="51.260632"><ele>27</ele><time>2022-06-05T09:03:46.000Z</time></trkpt><trkpt lon="5.754582" lat="51.260628"><ele>27</ele><time>2022-06-05T09:03:47.000Z</time></trkpt><trkpt lon="5.754698" lat="51.260621"><ele>27</ele><time>2022-06-05T09:03:48.000Z</time></trkpt><trkpt lon="5.754809" lat="51.260617"><ele>27</ele><time>2022-06-05T09:03:49.000Z</time></trkpt><trkpt lon="5.75493" lat="51.260613"><ele>27.2</ele><time>2022-06-05T09:03:50.000Z</time></trkpt><trkpt lon="5.755043" lat="51.260605"><ele>27.4</ele><time>2022-06-05T09:03:51.000Z</time></trkpt><trkpt lon="5.755158" lat="51.260601"><ele>27.4</ele><time>2022-06-05T09:03:52.000Z</time></trkpt><trkpt lon="5.755259" lat="51.260594"><ele>27.2</ele><time>2022-06-05T09:03:53.000Z</time></trkpt><trkpt lon="5.755372" lat="51.260586"><ele>27.4</ele><time>2022-06-05T09:03:54.000Z</time></trkpt><trkpt lon="5.755475" lat="51.260586"><ele>27.4</ele><time>2022-06-05T09:03:55.000Z</time></trkpt><trkpt lon="5.75559" lat="51.260582"><ele>27.4</ele><time>2022-06-05T09:03:56.000Z</time></trkpt><trkpt lon="5.7557" lat="51.260578"><ele>27.4</ele><time>2022-06-05T09:03:57.000Z</time></trkpt><trkpt lon="5.755812" lat="51.260571"><ele>27.4</ele><time>2022-06-05T09:03:58.000Z</time></trkpt><trkpt lon="5.755917" lat="51.260567"><ele>27.4</ele><time>2022-06-05T09:03:59.000Z</time></trkpt><trkpt lon="5.756032" lat="51.260563"><ele>27.2</ele><time>2022-06-05T09:04:00.000Z</time></trkpt><trkpt lon="5.75614" lat="51.260559"><ele>27.2</ele><time>2022-06-05T09:04:01.000Z</time></trkpt><trkpt lon="5.756256" lat="51.260555"><ele>27.2</ele><time>2022-06-05T09:04:02.000Z</time></trkpt><trkpt lon="5.756365" lat="51.260552"><ele>27.2</ele><time>2022-06-05T09:04:03.000Z</time></trkpt><trkpt lon="5.756476" lat="51.260551"><ele>27.2</ele><time>2022-06-05T09:04:04.000Z</time></trkpt><trkpt lon="5.756582" lat="51.260555"><ele>27.2</ele><time>2022-06-05T09:04:05.000Z</time></trkpt><trkpt lon="5.756693" lat="51.260566"><ele>27.2</ele><time>2022-06-05T09:04:06.000Z</time></trkpt><trkpt lon="5.756791" lat="51.26058"><ele>27</ele><time>2022-06-05T09:04:07.000Z</time></trkpt><trkpt lon="5.756899" lat="51.260604"><ele>27</ele><time>2022-06-05T09:04:08.000Z</time></trkpt><trkpt lon="5.756993" lat="51.260628"><ele>27.2</ele><time>2022-06-05T09:04:09.000Z</time></trkpt><trkpt lon="5.757099" lat="51.260657"><ele>27.2</ele><time>2022-06-05T09:04:10.000Z</time></trkpt><trkpt lon="5.757196" lat="51.260683"><ele>27.4</ele><time>2022-06-05T09:04:11.000Z</time></trkpt><trkpt lon="5.757294" lat="51.260711"><ele>27.4</ele><time>2022-06-05T09:04:12.000Z</time></trkpt><trkpt lon="5.757387" lat="51.260737"><ele>27.4</ele><time>2022-06-05T09:04:13.000Z</time></trkpt><trkpt lon="5.757476" lat="51.260761"><ele>27.4</ele><time>2022-06-05T09:04:14.000Z</time></trkpt><trkpt lon="5.757557" lat="51.260786"><ele>27.4</ele><time>2022-06-05T09:04:15.000Z</time></trkpt><trkpt lon="5.757636" lat="51.26081"><ele>27.4</ele><time>2022-06-05T09:04:16.000Z</time></trkpt><trkpt lon="5.757708" lat="51.260828"><ele>27.6</ele><time>2022-06-05T09:04:17.000Z</time></trkpt><trkpt lon="5.757771" lat="51.260842"><ele>27.6</ele><time>2022-06-05T09:04:18.000Z</time></trkpt><trkpt lon="5.75783" lat="51.260834"><ele>27.8</ele><time>2022-06-05T09:04:19.000Z</time></trkpt><trkpt lon="5.757888" lat="51.260819"><ele>27.8</ele><time>2022-06-05T09:04:20.000Z</time></trkpt><trkpt lon="5.757898" lat="51.260782"><ele>28</ele><time>2022-06-05T09:04:21.000Z</time></trkpt><trkpt lon="5.757875" lat="51.260741"><ele>28.2</ele><time>2022-06-05T09:04:22.000Z</time></trkpt><trkpt lon="5.757826" lat="51.260707"><ele>28.4</ele><time>2022-06-05T09:04:23.000Z</time></trkpt><trkpt lon="5.757761" lat="51.260671"><ele>28.6</ele><time>2022-06-05T09:04:24.000Z</time></trkpt><trkpt lon="5.757694" lat="51.260638"><ele>28.6</ele><time>2022-06-05T09:04:25.000Z</time></trkpt><trkpt lon="5.75762" lat="51.260599"><ele>28.8</ele><time>2022-06-05T09:04:26.000Z</time></trkpt><trkpt lon="5.757547" lat="51.260562"><ele>29</ele><time>2022-06-05T09:04:27.000Z</time></trkpt><trkpt lon="5.75747" lat="51.260523"><ele>29.2</ele><time>2022-06-05T09:04:28.000Z</time></trkpt><trkpt lon="5.757401" lat="51.260483"><ele>29.4</ele><time>2022-06-05T09:04:29.000Z</time></trkpt><trkpt lon="5.757326" lat="51.260439"><ele>29.4</ele><time>2022-06-05T09:04:30.000Z</time></trkpt><trkpt lon="5.757255" lat="51.260402"><ele>29.6</ele><time>2022-06-05T09:04:31.000Z</time></trkpt><trkpt lon="5.757182" lat="51.260359"><ele>29.6</ele><time>2022-06-05T09:04:32.000Z</time></trkpt><trkpt lon="5.757114" lat="51.260319"><ele>29.8</ele><time>2022-06-05T09:04:33.000Z</time></trkpt><trkpt lon="5.757039" lat="51.260272"><ele>30</ele><time>2022-06-05T09:04:34.000Z</time></trkpt><trkpt lon="5.756974" lat="51.260233"><ele>30</ele><time>2022-06-05T09:04:35.000Z</time></trkpt><trkpt lon="5.756896" lat="51.260183"><ele>30.2</ele><time>2022-06-05T09:04:36.000Z</time></trkpt><trkpt lon="5.756831" lat="51.260143"><ele>30.4</ele><time>2022-06-05T09:04:37.000Z</time></trkpt><trkpt lon="5.756758" lat="51.260099"><ele>30.6</ele><time>2022-06-05T09:04:38.000Z</time></trkpt><trkpt lon="5.756691" lat="51.260059"><ele>30.8</ele><time>2022-06-05T09:04:39.000Z</time></trkpt><trkpt lon="5.75662" lat="51.260016"><ele>30.8</ele><time>2022-06-05T09:04:40.000Z</time></trkpt><trkpt lon="5.756552" lat="51.259975"><ele>31</ele><time>2022-06-05T09:04:41.000Z</time></trkpt><trkpt lon="5.75648" lat="51.259932"><ele>31.2</ele><time>2022-06-05T09:04:42.000Z</time></trkpt><trkpt lon="5.756414" lat="51.259893"><ele>31.4</ele><time>2022-06-05T09:04:43.000Z</time></trkpt><trkpt lon="5.756337" lat="51.259844"><ele>31.6</ele><time>2022-06-05T09:04:44.000Z</time></trkpt><trkpt lon="5.756268" lat="51.259803"><ele>31.6</ele><time>2022-06-05T09:04:45.000Z</time></trkpt><trkpt lon="5.756195" lat="51.259759"><ele>31.8</ele><time>2022-06-05T09:04:46.000Z</time></trkpt><trkpt lon="5.756126" lat="51.25972"><ele>32</ele><time>2022-06-05T09:04:47.000Z</time></trkpt><trkpt lon="5.756051" lat="51.259677"><ele>32</ele><time>2022-06-05T09:04:48.000Z</time></trkpt><trkpt lon="5.755978" lat="51.259638"><ele>32.2</ele><time>2022-06-05T09:04:49.000Z</time></trkpt><trkpt lon="5.755903" lat="51.259596"><ele>32.2</ele><time>2022-06-05T09:04:50.000Z</time></trkpt><trkpt lon="5.755831" lat="51.259555"><ele>32.4</ele><time>2022-06-05T09:04:51.000Z</time></trkpt><trkpt lon="5.755753" lat="51.259515"><ele>32.6</ele><time>2022-06-05T09:04:52.000Z</time></trkpt><trkpt lon="5.755686" lat="51.259478"><ele>32.6</ele><time>2022-06-05T09:04:53.000Z</time></trkpt><trkpt lon="5.755604" lat="51.259433"><ele>32.8</ele><time>2022-06-05T09:04:54.000Z</time></trkpt><trkpt lon="5.755541" lat="51.259401"><ele>32.8</ele><time>2022-06-05T09:04:55.000Z</time></trkpt><trkpt lon="5.755449" lat="51.259353"><ele>33</ele><time>2022-06-05T09:04:56.000Z</time></trkpt><trkpt lon="5.755371" lat="51.259315"><ele>33</ele><time>2022-06-05T09:04:57.000Z</time></trkpt><trkpt lon="5.755287" lat="51.259275"><ele>33</ele><time>2022-06-05T09:04:58.000Z</time></trkpt><trkpt lon="5.755209" lat="51.259235"><ele>33.2</ele><time>2022-06-05T09:04:59.000Z</time></trkpt><trkpt lon="5.755125" lat="51.259192"><ele>33.2</ele><time>2022-06-05T09:05:00.000Z</time></trkpt><trkpt lon="5.755046" lat="51.259152"><ele>33.2</ele><time>2022-06-05T09:05:01.000Z</time></trkpt><trkpt lon="5.754959" lat="51.259108"><ele>33.2</ele><time>2022-06-05T09:05:02.000Z</time></trkpt><trkpt lon="5.754883" lat="51.259072"><ele>33.4</ele><time>2022-06-05T09:05:03.000Z</time></trkpt><trkpt lon="5.754794" lat="51.259028"><ele>33.4</ele><time>2022-06-05T09:05:04.000Z</time></trkpt><trkpt lon="5.754716" lat="51.258988"><ele>33.2</ele><time>2022-06-05T09:05:05.000Z</time></trkpt><trkpt lon="5.754625" lat="51.258944"><ele>33.2</ele><time>2022-06-05T09:05:06.000Z</time></trkpt><trkpt lon="5.754542" lat="51.258907"><ele>33</ele><time>2022-06-05T09:05:07.000Z</time></trkpt><trkpt lon="5.754449" lat="51.258867"><ele>33</ele><time>2022-06-05T09:05:08.000Z</time></trkpt><trkpt lon="5.754354" lat="51.258834"><ele>33</ele><time>2022-06-05T09:05:09.000Z</time></trkpt><trkpt lon="5.754249" lat="51.258803"><ele>32.8</ele><time>2022-06-05T09:05:10.000Z</time></trkpt><trkpt lon="5.754142" lat="51.25878"><ele>32.6</ele><time>2022-06-05T09:05:11.000Z</time></trkpt><trkpt lon="5.754026" lat="51.258763"><ele>32.6</ele><time>2022-06-05T09:05:12.000Z</time></trkpt><trkpt lon="5.753912" lat="51.258759"><ele>32.4</ele><time>2022-06-05T09:05:13.000Z</time></trkpt><trkpt lon="5.753795" lat="51.258769"><ele>32.4</ele><time>2022-06-05T09:05:14.000Z</time></trkpt><trkpt lon="5.753684" lat="51.258784"><ele>32.2</ele><time>2022-06-05T09:05:15.000Z</time></trkpt><trkpt lon="5.75357" lat="51.258811"><ele>32</ele><time>2022-06-05T09:05:16.000Z</time></trkpt><trkpt lon="5.753472" lat="51.258839"><ele>32</ele><time>2022-06-05T09:05:17.000Z</time></trkpt><trkpt lon="5.753364" lat="51.258877"><ele>31.8</ele><time>2022-06-05T09:05:18.000Z</time></trkpt><trkpt lon="5.753263" lat="51.258914"><ele>31.8</ele><time>2022-06-05T09:05:19.000Z</time></trkpt><trkpt lon="5.753153" lat="51.258959"><ele>31.6</ele><time>2022-06-05T09:05:20.000Z</time></trkpt><trkpt lon="5.753054" lat="51.258999"><ele>31.4</ele><time>2022-06-05T09:05:21.000Z</time></trkpt><trkpt lon="5.752947" lat="51.259039"><ele>31.4</ele><time>2022-06-05T09:05:22.000Z</time></trkpt><trkpt lon="5.752848" lat="51.259078"><ele>31.2</ele><time>2022-06-05T09:05:23.000Z</time></trkpt><trkpt lon="5.75274" lat="51.259122"><ele>31</ele><time>2022-06-05T09:05:24.000Z</time></trkpt><trkpt lon="5.752642" lat="51.259158"><ele>30.8</ele><time>2022-06-05T09:05:25.000Z</time></trkpt><trkpt lon="5.752532" lat="51.259202"><ele>30.6</ele><time>2022-06-05T09:05:26.000Z</time></trkpt><trkpt lon="5.75243" lat="51.259243"><ele>30.6</ele><time>2022-06-05T09:05:27.000Z</time></trkpt><trkpt lon="5.752324" lat="51.259283"><ele>30.4</ele><time>2022-06-05T09:05:28.000Z</time></trkpt><trkpt lon="5.752227" lat="51.259323"><ele>30.2</ele><time>2022-06-05T09:05:29.000Z</time></trkpt><trkpt lon="5.752124" lat="51.259362"><ele>30.2</ele><time>2022-06-05T09:05:30.000Z</time></trkpt><trkpt lon="5.752023" lat="51.259403"><ele>30</ele><time>2022-06-05T09:05:31.000Z</time></trkpt><trkpt lon="5.751913" lat="51.259443"><ele>29.8</ele><time>2022-06-05T09:05:32.000Z</time></trkpt><trkpt lon="5.751808" lat="51.259483"><ele>29.6</ele><time>2022-06-05T09:05:33.000Z</time></trkpt><trkpt lon="5.751694" lat="51.259519"><ele>29.6</ele><time>2022-06-05T09:05:34.000Z</time></trkpt><trkpt lon="5.751579" lat="51.259555"><ele>29.4</ele><time>2022-06-05T09:05:35.000Z</time></trkpt><trkpt lon="5.751461" lat="51.259589"><ele>29.4</ele><time>2022-06-05T09:05:36.000Z</time></trkpt><trkpt lon="5.751344" lat="51.259623"><ele>29.2</ele><time>2022-06-05T09:05:37.000Z</time></trkpt><trkpt lon="5.751227" lat="51.259654"><ele>29.2</ele><time>2022-06-05T09:05:38.000Z</time></trkpt><trkpt lon="5.751109" lat="51.259681"><ele>29.2</ele><time>2022-06-05T09:05:39.000Z</time></trkpt><trkpt lon="5.750993" lat="51.259707"><ele>29</ele><time>2022-06-05T09:05:40.000Z</time></trkpt><trkpt lon="5.750874" lat="51.259731"><ele>29</ele><time>2022-06-05T09:05:41.000Z</time></trkpt><trkpt lon="5.750754" lat="51.259753"><ele>29</ele><time>2022-06-05T09:05:42.000Z</time></trkpt><trkpt lon="5.750627" lat="51.259776"><ele>28.8</ele><time>2022-06-05T09:05:43.000Z</time></trkpt><trkpt lon="5.7505" lat="51.259799"><ele>28.6</ele><time>2022-06-05T09:05:44.000Z</time></trkpt><trkpt lon="5.750374" lat="51.259815"><ele>28.2</ele><time>2022-06-05T09:05:45.000Z</time></trkpt><trkpt lon="5.750251" lat="51.259837"><ele>28</ele><time>2022-06-05T09:05:46.000Z</time></trkpt><trkpt lon="5.750127" lat="51.259853"><ele>27.8</ele><time>2022-06-05T09:05:47.000Z</time></trkpt><trkpt lon="5.750003" lat="51.259864"><ele>27.8</ele><time>2022-06-05T09:05:48.000Z</time></trkpt><trkpt lon="5.749878" lat="51.259868"><ele>27.6</ele><time>2022-06-05T09:05:49.000Z</time></trkpt><trkpt lon="5.74976" lat="51.259875"><ele>27.6</ele><time>2022-06-05T09:05:50.000Z</time></trkpt><trkpt lon="5.749628" lat="51.25988"><ele>27.4</ele><time>2022-06-05T09:05:51.000Z</time></trkpt><trkpt lon="5.749504" lat="51.259887"><ele>27.6</ele><time>2022-06-05T09:05:52.000Z</time></trkpt><trkpt lon="5.74938" lat="51.259891"><ele>27.6</ele><time>2022-06-05T09:05:53.000Z</time></trkpt><trkpt lon="5.749263" lat="51.259895"><ele>27.6</ele><time>2022-06-05T09:05:54.000Z</time></trkpt><trkpt lon="5.749146" lat="51.259903"><ele>27.6</ele><time>2022-06-05T09:05:55.000Z</time></trkpt><trkpt lon="5.749027" lat="51.259907"><ele>27.4</ele><time>2022-06-05T09:05:56.000Z</time></trkpt><trkpt lon="5.748903" lat="51.259914"><ele>27.4</ele><time>2022-06-05T09:05:57.000Z</time></trkpt><trkpt lon="5.748776" lat="51.259918"><ele>27.4</ele><time>2022-06-05T09:05:58.000Z</time></trkpt><trkpt lon="5.748651" lat="51.259926"><ele>27.4</ele><time>2022-06-05T09:05:59.000Z</time></trkpt><trkpt lon="5.74853" lat="51.25993"><ele>27.4</ele><time>2022-06-05T09:06:00.000Z</time></trkpt><trkpt lon="5.748408" lat="51.259937"><ele>27.6</ele><time>2022-06-05T09:06:01.000Z</time></trkpt><trkpt lon="5.748289" lat="51.259945"><ele>27.6</ele><time>2022-06-05T09:06:02.000Z</time></trkpt><trkpt lon="5.748167" lat="51.259949"><ele>27.8</ele><time>2022-06-05T09:06:03.000Z</time></trkpt><trkpt lon="5.748051" lat="51.259952"><ele>27.8</ele><time>2022-06-05T09:06:04.000Z</time></trkpt><trkpt lon="5.747926" lat="51.259963"><ele>27.6</ele><time>2022-06-05T09:06:05.000Z</time></trkpt><trkpt lon="5.7478" lat="51.259971"><ele>27.6</ele><time>2022-06-05T09:06:06.000Z</time></trkpt><trkpt lon="5.747673" lat="51.259979"><ele>27.6</ele><time>2022-06-05T09:06:07.000Z</time></trkpt><trkpt lon="5.747549" lat="51.259986"><ele>27.6</ele><time>2022-06-05T09:06:08.000Z</time></trkpt><trkpt lon="5.747422" lat="51.259991"><ele>27.6</ele><time>2022-06-05T09:06:09.000Z</time></trkpt><trkpt lon="5.747295" lat="51.259998"><ele>27.8</ele><time>2022-06-05T09:06:10.000Z</time></trkpt><trkpt lon="5.747169" lat="51.260006"><ele>27.8</ele><time>2022-06-05T09:06:11.000Z</time></trkpt><trkpt lon="5.747042" lat="51.26001"><ele>27.6</ele><time>2022-06-05T09:06:12.000Z</time></trkpt><trkpt lon="5.746919" lat="51.26002"><ele>27.4</ele><time>2022-06-05T09:06:13.000Z</time></trkpt><trkpt lon="5.746788" lat="51.260029"><ele>27.4</ele><time>2022-06-05T09:06:14.000Z</time></trkpt><trkpt lon="5.746668" lat="51.260033"><ele>27.4</ele><time>2022-06-05T09:06:15.000Z</time></trkpt><trkpt lon="5.746548" lat="51.260036"><ele>27.4</ele><time>2022-06-05T09:06:16.000Z</time></trkpt><trkpt lon="5.746427" lat="51.26004"><ele>27.4</ele><time>2022-06-05T09:06:17.000Z</time></trkpt><trkpt lon="5.746305" lat="51.26004"><ele>27.4</ele><time>2022-06-05T09:06:18.000Z</time></trkpt><trkpt lon="5.746183" lat="51.26004"><ele>27.4</ele><time>2022-06-05T09:06:19.000Z</time></trkpt><trkpt lon="5.746056" lat="51.26004"><ele>27.4</ele><time>2022-06-05T09:06:20.000Z</time></trkpt><trkpt lon="5.745932" lat="51.260037"><ele>27.4</ele><time>2022-06-05T09:06:21.000Z</time></trkpt><trkpt lon="5.745806" lat="51.260036"><ele>27.2</ele><time>2022-06-05T09:06:22.000Z</time></trkpt><trkpt lon="5.745682" lat="51.260033"><ele>27.4</ele><time>2022-06-05T09:06:23.000Z</time></trkpt><trkpt lon="5.745559" lat="51.260036"><ele>27.4</ele><time>2022-06-05T09:06:24.000Z</time></trkpt><trkpt lon="5.745433" lat="51.260036"><ele>27.4</ele><time>2022-06-05T09:06:25.000Z</time></trkpt><trkpt lon="5.745306" lat="51.260036"><ele>27.2</ele><time>2022-06-05T09:06:26.000Z</time></trkpt><trkpt lon="5.745179" lat="51.260036"><ele>27.2</ele><time>2022-06-05T09:06:27.000Z</time></trkpt><trkpt lon="5.745052" lat="51.260036"><ele>27</ele><time>2022-06-05T09:06:28.000Z</time></trkpt><trkpt lon="5.744928" lat="51.260036"><ele>27.2</ele><time>2022-06-05T09:06:29.000Z</time></trkpt><trkpt lon="5.744799" lat="51.260036"><ele>27.2</ele><time>2022-06-05T09:06:30.000Z</time></trkpt><trkpt lon="5.744674" lat="51.260036"><ele>27.4</ele><time>2022-06-05T09:06:31.000Z</time></trkpt><trkpt lon="5.744551" lat="51.260036"><ele>27.4</ele><time>2022-06-05T09:06:32.000Z</time></trkpt><trkpt lon="5.744431" lat="51.26004"><ele>27.4</ele><time>2022-06-05T09:06:33.000Z</time></trkpt><trkpt lon="5.744317" lat="51.26004"><ele>27.4</ele><time>2022-06-05T09:06:34.000Z</time></trkpt><trkpt lon="5.744205" lat="51.260044"><ele>27.6</ele><time>2022-06-05T09:06:35.000Z</time></trkpt><trkpt lon="5.744099" lat="51.260044"><ele>27.6</ele><time>2022-06-05T09:06:36.000Z</time></trkpt><trkpt lon="5.744" lat="51.260048"><ele>27.6</ele><time>2022-06-05T09:06:37.000Z</time></trkpt><trkpt lon="5.743897" lat="51.260048"><ele>27.4</ele><time>2022-06-05T09:06:38.000Z</time></trkpt><trkpt lon="5.743805" lat="51.260052"><ele>27.6</ele><time>2022-06-05T09:06:39.000Z</time></trkpt><trkpt lon="5.743717" lat="51.260048"><ele>27.6</ele><time>2022-06-05T09:06:40.000Z</time></trkpt><trkpt lon="5.743637" lat="51.260033"><ele>27.8</ele><time>2022-06-05T09:06:41.000Z</time></trkpt><trkpt lon="5.743568" lat="51.259996"><ele>27.8</ele><time>2022-06-05T09:06:42.000Z</time></trkpt><trkpt lon="5.743534" lat="51.25994"><ele>28</ele><time>2022-06-05T09:06:43.000Z</time></trkpt><trkpt lon="5.743532" lat="51.259879"><ele>28</ele><time>2022-06-05T09:06:44.000Z</time></trkpt><trkpt lon="5.743546" lat="51.25981"><ele>28</ele><time>2022-06-05T09:06:45.000Z</time></trkpt><trkpt lon="5.743568" lat="51.259741"><ele>27.8</ele><time>2022-06-05T09:06:46.000Z</time></trkpt><trkpt lon="5.743594" lat="51.25967"><ele>27.8</ele><time>2022-06-05T09:06:47.000Z</time></trkpt><trkpt lon="5.743624" lat="51.259597"><ele>27.8</ele><time>2022-06-05T09:06:48.000Z</time></trkpt><trkpt lon="5.743653" lat="51.259526"><ele>28</ele><time>2022-06-05T09:06:49.000Z</time></trkpt><trkpt lon="5.743683" lat="51.259456"><ele>28</ele><time>2022-06-05T09:06:50.000Z</time></trkpt><trkpt lon="5.743714" lat="51.259386"><ele>27.8</ele><time>2022-06-05T09:06:51.000Z</time></trkpt><trkpt lon="5.743739" lat="51.259321"><ele>27.8</ele><time>2022-06-05T09:06:52.000Z</time></trkpt><trkpt lon="5.743767" lat="51.259249"><ele>27.6</ele><time>2022-06-05T09:06:53.000Z</time></trkpt><trkpt lon="5.743797" lat="51.259181"><ele>27.4</ele><time>2022-06-05T09:06:54.000Z</time></trkpt><trkpt lon="5.743826" lat="51.259112"><ele>27.4</ele><time>2022-06-05T09:06:55.000Z</time></trkpt><trkpt lon="5.743854" lat="51.259043"><ele>27.2</ele><time>2022-06-05T09:06:56.000Z</time></trkpt><trkpt lon="5.743885" lat="51.258975"><ele>26.8</ele><time>2022-06-05T09:06:57.000Z</time></trkpt><trkpt lon="5.743914" lat="51.258906"><ele>26.8</ele><time>2022-06-05T09:06:58.000Z</time></trkpt><trkpt lon="5.743944" lat="51.258838"><ele>26.8</ele><time>2022-06-05T09:06:59.000Z</time></trkpt><trkpt lon="5.743972" lat="51.25877"><ele>26.8</ele><time>2022-06-05T09:07:00.000Z</time></trkpt><trkpt lon="5.744001" lat="51.258696"><ele>27</ele><time>2022-06-05T09:07:01.000Z</time></trkpt><trkpt lon="5.744025" lat="51.258628"><ele>27</ele><time>2022-06-05T09:07:02.000Z</time></trkpt><trkpt lon="5.744052" lat="51.258559"><ele>27</ele><time>2022-06-05T09:07:03.000Z</time></trkpt><trkpt lon="5.74408" lat="51.258492"><ele>27</ele><time>2022-06-05T09:07:04.000Z</time></trkpt><trkpt lon="5.744106" lat="51.258425"><ele>27</ele><time>2022-06-05T09:07:05.000Z</time></trkpt><trkpt lon="5.744134" lat="51.258353"><ele>27</ele><time>2022-06-05T09:07:06.000Z</time></trkpt><trkpt lon="5.744161" lat="51.258284"><ele>26.8</ele><time>2022-06-05T09:07:07.000Z</time></trkpt><trkpt lon="5.744189" lat="51.258219"><ele>27</ele><time>2022-06-05T09:07:08.000Z</time></trkpt><trkpt lon="5.744218" lat="51.258151"><ele>27</ele><time>2022-06-05T09:07:09.000Z</time></trkpt><trkpt lon="5.744248" lat="51.258079"><ele>27</ele><time>2022-06-05T09:07:10.000Z</time></trkpt><trkpt lon="5.744277" lat="51.25801"><ele>27.2</ele><time>2022-06-05T09:07:11.000Z</time></trkpt><trkpt lon="5.744305" lat="51.257941"><ele>27.2</ele><time>2022-06-05T09:07:12.000Z</time></trkpt><trkpt lon="5.744334" lat="51.257876"><ele>27</ele><time>2022-06-05T09:07:13.000Z</time></trkpt><trkpt lon="5.744361" lat="51.257804"><ele>26.8</ele><time>2022-06-05T09:07:14.000Z</time></trkpt><trkpt lon="5.744387" lat="51.257739"><ele>26.8</ele><time>2022-06-05T09:07:15.000Z</time></trkpt><trkpt lon="5.744416" lat="51.25767"><ele>26.8</ele><time>2022-06-05T09:07:16.000Z</time></trkpt><trkpt lon="5.744442" lat="51.257601"><ele>26.8</ele><time>2022-06-05T09:07:17.000Z</time></trkpt><trkpt lon="5.744469" lat="51.257533"><ele>27</ele><time>2022-06-05T09:07:18.000Z</time></trkpt><trkpt lon="5.744498" lat="51.257466"><ele>26.8</ele><time>2022-06-05T09:07:19.000Z</time></trkpt><trkpt lon="5.744529" lat="51.257397"><ele>27</ele><time>2022-06-05T09:07:20.000Z</time></trkpt><trkpt lon="5.744554" lat="51.25733"><ele>27</ele><time>2022-06-05T09:07:21.000Z</time></trkpt><trkpt lon="5.744579" lat="51.257258"><ele>27</ele><time>2022-06-05T09:07:22.000Z</time></trkpt><trkpt lon="5.744604" lat="51.257189"><ele>27</ele><time>2022-06-05T09:07:23.000Z</time></trkpt><trkpt lon="5.744629" lat="51.257122"><ele>27.2</ele><time>2022-06-05T09:07:24.000Z</time></trkpt><trkpt lon="5.744657" lat="51.257052"><ele>27.4</ele><time>2022-06-05T09:07:25.000Z</time></trkpt><trkpt lon="5.744684" lat="51.256987"><ele>27.2</ele><time>2022-06-05T09:07:26.000Z</time></trkpt><trkpt lon="5.744709" lat="51.25692"><ele>27.2</ele><time>2022-06-05T09:07:27.000Z</time></trkpt><trkpt lon="5.744734" lat="51.256846"><ele>27.2</ele><time>2022-06-05T09:07:28.000Z</time></trkpt><trkpt lon="5.74476" lat="51.256778"><ele>27.4</ele><time>2022-06-05T09:07:29.000Z</time></trkpt><trkpt lon="5.744789" lat="51.256709"><ele>27.4</ele><time>2022-06-05T09:07:30.000Z</time></trkpt><trkpt lon="5.744816" lat="51.25664"><ele>27.6</ele><time>2022-06-05T09:07:31.000Z</time></trkpt><trkpt lon="5.744846" lat="51.256567"><ele>27.6</ele><time>2022-06-05T09:07:32.000Z</time></trkpt><trkpt lon="5.744879" lat="51.256492"><ele>27.6</ele><time>2022-06-05T09:07:33.000Z</time></trkpt><trkpt lon="5.744912" lat="51.256423"><ele>27.4</ele><time>2022-06-05T09:07:34.000Z</time></trkpt><trkpt lon="5.744939" lat="51.25635"><ele>27.2</ele><time>2022-06-05T09:07:35.000Z</time></trkpt><trkpt lon="5.744966" lat="51.256277"><ele>27</ele><time>2022-06-05T09:07:36.000Z</time></trkpt><trkpt lon="5.744992" lat="51.256209"><ele>27</ele><time>2022-06-05T09:07:37.000Z</time></trkpt><trkpt lon="5.745021" lat="51.256136"><ele>27</ele><time>2022-06-05T09:07:38.000Z</time></trkpt><trkpt lon="5.745046" lat="51.256072"><ele>27</ele><time>2022-06-05T09:07:39.000Z</time></trkpt><trkpt lon="5.745076" lat="51.255999"><ele>27</ele><time>2022-06-05T09:07:40.000Z</time></trkpt><trkpt lon="5.745107" lat="51.25593"><ele>27</ele><time>2022-06-05T09:07:41.000Z</time></trkpt><trkpt lon="5.745136" lat="51.255854"><ele>27</ele><time>2022-06-05T09:07:42.000Z</time></trkpt><trkpt lon="5.745161" lat="51.255786"><ele>26.8</ele><time>2022-06-05T09:07:43.000Z</time></trkpt><trkpt lon="5.745184" lat="51.255713"><ele>27</ele><time>2022-06-05T09:07:44.000Z</time></trkpt><trkpt lon="5.745204" lat="51.255641"><ele>26.8</ele><time>2022-06-05T09:07:45.000Z</time></trkpt><trkpt lon="5.745226" lat="51.255572"><ele>26.8</ele><time>2022-06-05T09:07:46.000Z</time></trkpt><trkpt lon="5.745241" lat="51.255504"><ele>26.8</ele><time>2022-06-05T09:07:47.000Z</time></trkpt><trkpt lon="5.745259" lat="51.255431"><ele>26.8</ele><time>2022-06-05T09:07:48.000Z</time></trkpt><trkpt lon="5.745275" lat="51.255365"><ele>26.6</ele><time>2022-06-05T09:07:49.000Z</time></trkpt><trkpt lon="5.745291" lat="51.25529"><ele>26.4</ele><time>2022-06-05T09:07:50.000Z</time></trkpt><trkpt lon="5.745308" lat="51.255217"><ele>26.4</ele><time>2022-06-05T09:07:51.000Z</time></trkpt><trkpt lon="5.745323" lat="51.255144"><ele>26.4</ele><time>2022-06-05T09:07:52.000Z</time></trkpt><trkpt lon="5.745336" lat="51.255075"><ele>26.4</ele><time>2022-06-05T09:07:53.000Z</time></trkpt><trkpt lon="5.745348" lat="51.255003"><ele>26.6</ele><time>2022-06-05T09:07:54.000Z</time></trkpt><trkpt lon="5.745359" lat="51.254931"><ele>26.6</ele><time>2022-06-05T09:07:55.000Z</time></trkpt><trkpt lon="5.745374" lat="51.254863"><ele>26.6</ele><time>2022-06-05T09:07:56.000Z</time></trkpt><trkpt lon="5.745388" lat="51.254792"><ele>26.8</ele><time>2022-06-05T09:07:57.000Z</time></trkpt><trkpt lon="5.745401" lat="51.254721"><ele>26.8</ele><time>2022-06-05T09:07:58.000Z</time></trkpt><trkpt lon="5.745416" lat="51.254652"><ele>26.6</ele><time>2022-06-05T09:07:59.000Z</time></trkpt><trkpt lon="5.745432" lat="51.254582"><ele>26.8</ele><time>2022-06-05T09:08:00.000Z</time></trkpt><trkpt lon="5.745451" lat="51.254508"><ele>26.8</ele><time>2022-06-05T09:08:01.000Z</time></trkpt><trkpt lon="5.745475" lat="51.25444"><ele>26.8</ele><time>2022-06-05T09:08:02.000Z</time></trkpt><trkpt lon="5.745499" lat="51.254371"><ele>26.8</ele><time>2022-06-05T09:08:03.000Z</time></trkpt><trkpt lon="5.745526" lat="51.254298"><ele>26.8</ele><time>2022-06-05T09:08:04.000Z</time></trkpt><trkpt lon="5.745549" lat="51.254226"><ele>26.8</ele><time>2022-06-05T09:08:05.000Z</time></trkpt><trkpt lon="5.745572" lat="51.254158"><ele>26.8</ele><time>2022-06-05T09:08:06.000Z</time></trkpt><trkpt lon="5.745596" lat="51.254085"><ele>26.6</ele><time>2022-06-05T09:08:07.000Z</time></trkpt><trkpt lon="5.745619" lat="51.254012"><ele>26.6</ele><time>2022-06-05T09:08:08.000Z</time></trkpt><trkpt lon="5.745645" lat="51.25394"><ele>26.6</ele><time>2022-06-05T09:08:09.000Z</time></trkpt><trkpt lon="5.745674" lat="51.253871"><ele>26.4</ele><time>2022-06-05T09:08:10.000Z</time></trkpt><trkpt lon="5.745702" lat="51.253798"><ele>26.6</ele><time>2022-06-05T09:08:11.000Z</time></trkpt><trkpt lon="5.745728" lat="51.253733"><ele>26.4</ele><time>2022-06-05T09:08:12.000Z</time></trkpt><trkpt lon="5.745754" lat="51.253664"><ele>26.4</ele><time>2022-06-05T09:08:13.000Z</time></trkpt><trkpt lon="5.745776" lat="51.2536"><ele>26.4</ele><time>2022-06-05T09:08:14.000Z</time></trkpt><trkpt lon="5.745798" lat="51.253534"><ele>26.4</ele><time>2022-06-05T09:08:15.000Z</time></trkpt><trkpt lon="5.745817" lat="51.25347"><ele>26.4</ele><time>2022-06-05T09:08:16.000Z</time></trkpt><trkpt lon="5.745839" lat="51.253405"><ele>26.6</ele><time>2022-06-05T09:08:17.000Z</time></trkpt><trkpt lon="5.745863" lat="51.253333"><ele>26.6</ele><time>2022-06-05T09:08:18.000Z</time></trkpt><trkpt lon="5.745886" lat="51.253261"><ele>26.6</ele><time>2022-06-05T09:08:19.000Z</time></trkpt><trkpt lon="5.745911" lat="51.253191"><ele>26.4</ele><time>2022-06-05T09:08:20.000Z</time></trkpt><trkpt lon="5.745934" lat="51.253119"><ele>26.2</ele><time>2022-06-05T09:08:21.000Z</time></trkpt><trkpt lon="5.745957" lat="51.25305"><ele>26.2</ele><time>2022-06-05T09:08:22.000Z</time></trkpt><trkpt lon="5.745982" lat="51.252975"><ele>26.2</ele><time>2022-06-05T09:08:23.000Z</time></trkpt><trkpt lon="5.746007" lat="51.252906"><ele>26</ele><time>2022-06-05T09:08:24.000Z</time></trkpt><trkpt lon="5.746029" lat="51.252833"><ele>26</ele><time>2022-06-05T09:08:25.000Z</time></trkpt><trkpt lon="5.746048" lat="51.252761"><ele>26</ele><time>2022-06-05T09:08:26.000Z</time></trkpt><trkpt lon="5.746061" lat="51.252684"><ele>26.2</ele><time>2022-06-05T09:08:27.000Z</time></trkpt><trkpt lon="5.74607" lat="51.252615"><ele>26.2</ele><time>2022-06-05T09:08:28.000Z</time></trkpt><trkpt lon="5.746075" lat="51.252539"><ele>26.2</ele><time>2022-06-05T09:08:29.000Z</time></trkpt><trkpt lon="5.74608" lat="51.252471"><ele>26.4</ele><time>2022-06-05T09:08:30.000Z</time></trkpt><trkpt lon="5.746082" lat="51.252395"><ele>26.4</ele><time>2022-06-05T09:08:31.000Z</time></trkpt><trkpt lon="5.746085" lat="51.252327"><ele>26.6</ele><time>2022-06-05T09:08:32.000Z</time></trkpt><trkpt lon="5.746087" lat="51.252253"><ele>26.6</ele><time>2022-06-05T09:08:33.000Z</time></trkpt><trkpt lon="5.74609" lat="51.252181"><ele>26.6</ele><time>2022-06-05T09:08:34.000Z</time></trkpt><trkpt lon="5.746096" lat="51.252109"><ele>26.6</ele><time>2022-06-05T09:08:35.000Z</time></trkpt><trkpt lon="5.746106" lat="51.252039"><ele>26.6</ele><time>2022-06-05T09:08:36.000Z</time></trkpt><trkpt lon="5.746112" lat="51.25197"><ele>26.6</ele><time>2022-06-05T09:08:37.000Z</time></trkpt><trkpt lon="5.746118" lat="51.251902"><ele>26.6</ele><time>2022-06-05T09:08:38.000Z</time></trkpt><trkpt lon="5.746125" lat="51.25183"><ele>26.6</ele><time>2022-06-05T09:08:39.000Z</time></trkpt><trkpt lon="5.746128" lat="51.251758"><ele>26.6</ele><time>2022-06-05T09:08:40.000Z</time></trkpt><trkpt lon="5.746133" lat="51.251688"><ele>26.6</ele><time>2022-06-05T09:08:41.000Z</time></trkpt><trkpt lon="5.746135" lat="51.25162"><ele>26.6</ele><time>2022-06-05T09:08:42.000Z</time></trkpt><trkpt lon="5.746137" lat="51.251549"><ele>26.8</ele><time>2022-06-05T09:08:43.000Z</time></trkpt><trkpt lon="5.746137" lat="51.251483"><ele>26.8</ele><time>2022-06-05T09:08:44.000Z</time></trkpt><trkpt lon="5.74614" lat="51.251415"><ele>26.8</ele><time>2022-06-05T09:08:45.000Z</time></trkpt><trkpt lon="5.746145" lat="51.251342"><ele>27</ele><time>2022-06-05T09:08:46.000Z</time></trkpt><trkpt lon="5.746147" lat="51.251269"><ele>27.2</ele><time>2022-06-05T09:08:47.000Z</time></trkpt><trkpt lon="5.746148" lat="51.251201"><ele>27.2</ele><time>2022-06-05T09:08:48.000Z</time></trkpt><trkpt lon="5.746153" lat="51.25113"><ele>27.4</ele><time>2022-06-05T09:08:49.000Z</time></trkpt><trkpt lon="5.746157" lat="51.251059"><ele>27.4</ele><time>2022-06-05T09:08:50.000Z</time></trkpt><trkpt lon="5.746161" lat="51.250986"><ele>27.4</ele><time>2022-06-05T09:08:51.000Z</time></trkpt><trkpt lon="5.746168" lat="51.250914"><ele>27.4</ele><time>2022-06-05T09:08:52.000Z</time></trkpt><trkpt lon="5.746177" lat="51.250844"><ele>27.4</ele><time>2022-06-05T09:08:53.000Z</time></trkpt><trkpt lon="5.746186" lat="51.250773"><ele>27.4</ele><time>2022-06-05T09:08:54.000Z</time></trkpt><trkpt lon="5.746196" lat="51.250704"><ele>27.4</ele><time>2022-06-05T09:08:55.000Z</time></trkpt><trkpt lon="5.74621" lat="51.250636"><ele>27.4</ele><time>2022-06-05T09:08:56.000Z</time></trkpt><trkpt lon="5.746224" lat="51.25056"><ele>27.4</ele><time>2022-06-05T09:08:57.000Z</time></trkpt><trkpt lon="5.746236" lat="51.250483"><ele>27.4</ele><time>2022-06-05T09:08:58.000Z</time></trkpt><trkpt lon="5.746245" lat="51.250407"><ele>27.2</ele><time>2022-06-05T09:08:59.000Z</time></trkpt><trkpt lon="5.746253" lat="51.250337"><ele>27.2</ele><time>2022-06-05T09:09:00.000Z</time></trkpt><trkpt lon="5.746258" lat="51.250258"><ele>27.4</ele><time>2022-06-05T09:09:01.000Z</time></trkpt><trkpt lon="5.746263" lat="51.250185"><ele>27.4</ele><time>2022-06-05T09:09:02.000Z</time></trkpt><trkpt lon="5.746264" lat="51.250109"><ele>27.4</ele><time>2022-06-05T09:09:03.000Z</time></trkpt><trkpt lon="5.74626" lat="51.250037"><ele>27.6</ele><time>2022-06-05T09:09:04.000Z</time></trkpt><trkpt lon="5.746255" lat="51.249965"><ele>27.6</ele><time>2022-06-05T09:09:05.000Z</time></trkpt><trkpt lon="5.746249" lat="51.249893"><ele>27.6</ele><time>2022-06-05T09:09:06.000Z</time></trkpt><trkpt lon="5.746242" lat="51.24982"><ele>27.8</ele><time>2022-06-05T09:09:07.000Z</time></trkpt><trkpt lon="5.746229" lat="51.249744"><ele>27.8</ele><time>2022-06-05T09:09:08.000Z</time></trkpt><trkpt lon="5.746214" lat="51.249672"><ele>27.8</ele><time>2022-06-05T09:09:09.000Z</time></trkpt><trkpt lon="5.746198" lat="51.249599"><ele>27.8</ele><time>2022-06-05T09:09:10.000Z</time></trkpt><trkpt lon="5.746182" lat="51.249526"><ele>28</ele><time>2022-06-05T09:09:11.000Z</time></trkpt><trkpt lon="5.746169" lat="51.24945"><ele>27.8</ele><time>2022-06-05T09:09:12.000Z</time></trkpt><trkpt lon="5.746158" lat="51.249382"><ele>27.8</ele><time>2022-06-05T09:09:13.000Z</time></trkpt><trkpt lon="5.746145" lat="51.249301"><ele>27.6</ele><time>2022-06-05T09:09:14.000Z</time></trkpt><trkpt lon="5.746133" lat="51.24923"><ele>27.6</ele><time>2022-06-05T09:09:15.000Z</time></trkpt><trkpt lon="5.746119" lat="51.249156"><ele>27.6</ele><time>2022-06-05T09:09:16.000Z</time></trkpt><trkpt lon="5.746104" lat="51.249084"><ele>27.6</ele><time>2022-06-05T09:09:17.000Z</time></trkpt><trkpt lon="5.746089" lat="51.249015"><ele>27.6</ele><time>2022-06-05T09:09:18.000Z</time></trkpt><trkpt lon="5.746075" lat="51.248948"><ele>27.4</ele><time>2022-06-05T09:09:19.000Z</time></trkpt><trkpt lon="5.746059" lat="51.24887"><ele>27.4</ele><time>2022-06-05T09:09:20.000Z</time></trkpt><trkpt lon="5.746042" lat="51.248797"><ele>27.4</ele><time>2022-06-05T09:09:21.000Z</time></trkpt><trkpt lon="5.746026" lat="51.248721"><ele>27.4</ele><time>2022-06-05T09:09:22.000Z</time></trkpt><trkpt lon="5.74601" lat="51.248648"><ele>27.4</ele><time>2022-06-05T09:09:23.000Z</time></trkpt><trkpt lon="5.745994" lat="51.248573"><ele>27.4</ele><time>2022-06-05T09:09:24.000Z</time></trkpt><trkpt lon="5.745979" lat="51.248497"><ele>27.2</ele><time>2022-06-05T09:09:25.000Z</time></trkpt><trkpt lon="5.745964" lat="51.248424"><ele>27</ele><time>2022-06-05T09:09:26.000Z</time></trkpt><trkpt lon="5.745946" lat="51.248347"><ele>27</ele><time>2022-06-05T09:09:27.000Z</time></trkpt><trkpt lon="5.745926" lat="51.248274"><ele>27</ele><time>2022-06-05T09:09:28.000Z</time></trkpt><trkpt lon="5.745908" lat="51.248203"><ele>26.8</ele><time>2022-06-05T09:09:29.000Z</time></trkpt><trkpt lon="5.745886" lat="51.24813"><ele>26.6</ele><time>2022-06-05T09:09:30.000Z</time></trkpt><trkpt lon="5.745859" lat="51.248061"><ele>26.4</ele><time>2022-06-05T09:09:31.000Z</time></trkpt><trkpt lon="5.745831" lat="51.247996"><ele>26.4</ele><time>2022-06-05T09:09:32.000Z</time></trkpt><trkpt lon="5.745796" lat="51.247938"><ele>26.4</ele><time>2022-06-05T09:09:33.000Z</time></trkpt><trkpt lon="5.74576" lat="51.247885"><ele>26.6</ele><time>2022-06-05T09:09:34.000Z</time></trkpt><trkpt lon="5.745717" lat="51.247831"><ele>26.8</ele><time>2022-06-05T09:09:35.000Z</time></trkpt><trkpt lon="5.745668" lat="51.247786"><ele>27</ele><time>2022-06-05T09:09:36.000Z</time></trkpt><trkpt lon="5.745625" lat="51.247739"><ele>27.2</ele><time>2022-06-05T09:09:37.000Z</time></trkpt><trkpt lon="5.745588" lat="51.24769"><ele>27.2</ele><time>2022-06-05T09:09:38.000Z</time></trkpt><trkpt lon="5.745559" lat="51.247644"><ele>27.4</ele><time>2022-06-05T09:09:39.000Z</time></trkpt><trkpt lon="5.745535" lat="51.2476"><ele>27.4</ele><time>2022-06-05T09:09:40.000Z</time></trkpt><trkpt lon="5.745511" lat="51.247564"><ele>27.4</ele><time>2022-06-05T09:09:41.000Z</time></trkpt><trkpt lon="5.745491" lat="51.247533"><ele>27.6</ele><time>2022-06-05T09:09:42.000Z</time></trkpt><trkpt lon="5.745474" lat="51.247506"><ele>27.6</ele><time>2022-06-05T09:09:43.000Z</time></trkpt><trkpt lon="5.745465" lat="51.247483"><ele>27.6</ele><time>2022-06-05T09:09:44.000Z</time></trkpt><trkpt lon="5.745463" lat="51.247464"><ele>27.6</ele><time>2022-06-05T09:09:45.000Z</time></trkpt><trkpt lon="5.74547" lat="51.247452"><ele>27.6</ele><time>2022-06-05T09:09:46.000Z</time></trkpt><trkpt lon="5.745473" lat="51.247441"><ele>27.6</ele><time>2022-06-05T09:09:47.000Z</time></trkpt><trkpt lon="5.745468" lat="51.247429"><ele>27.8</ele><time>2022-06-05T09:09:48.000Z</time></trkpt><trkpt lon="5.745451" lat="51.247418"><ele>27.8</ele><time>2022-06-05T09:09:49.000Z</time></trkpt><trkpt lon="5.745424" lat="51.247406"><ele>27.8</ele><time>2022-06-05T09:09:50.000Z</time></trkpt><trkpt lon="5.74539" lat="51.247399"><ele>27.8</ele><time>2022-06-05T09:09:51.000Z</time></trkpt><trkpt lon="5.745344" lat="51.247395"><ele>27.8</ele><time>2022-06-05T09:09:52.000Z</time></trkpt><trkpt lon="5.745286" lat="51.247395"><ele>27.8</ele><time>2022-06-05T09:09:53.000Z</time></trkpt><trkpt lon="5.745219" lat="51.247398"><ele>27.8</ele><time>2022-06-05T09:09:54.000Z</time></trkpt><trkpt lon="5.745145" lat="51.247406"><ele>27.8</ele><time>2022-06-05T09:09:55.000Z</time></trkpt><trkpt lon="5.745065" lat="51.24741"><ele>27.8</ele><time>2022-06-05T09:09:56.000Z</time></trkpt><trkpt lon="5.74498" lat="51.247417"><ele>27.8</ele><time>2022-06-05T09:09:57.000Z</time></trkpt><trkpt lon="5.744897" lat="51.247417"><ele>27.8</ele><time>2022-06-05T09:09:58.000Z</time></trkpt><trkpt lon="5.74482" lat="51.247406"><ele>27.8</ele><time>2022-06-05T09:09:59.000Z</time></trkpt><trkpt lon="5.74475" lat="51.247384"><ele>27.8</ele><time>2022-06-05T09:10:00.000Z</time></trkpt><trkpt lon="5.744684" lat="51.24735"><ele>27.8</ele><time>2022-06-05T09:10:01.000Z</time></trkpt><trkpt lon="5.744617" lat="51.247308"><ele>27.8</ele><time>2022-06-05T09:10:02.000Z</time></trkpt><trkpt lon="5.744545" lat="51.247267"><ele>27.8</ele><time>2022-06-05T09:10:03.000Z</time></trkpt><trkpt lon="5.744465" lat="51.247229"><ele>27.8</ele><time>2022-06-05T09:10:04.000Z</time></trkpt><trkpt lon="5.744378" lat="51.247193"><ele>27.6</ele><time>2022-06-05T09:10:05.000Z</time></trkpt><trkpt lon="5.744296" lat="51.247159"><ele>27.6</ele><time>2022-06-05T09:10:06.000Z</time></trkpt><trkpt lon="5.744213" lat="51.247129"><ele>27.4</ele><time>2022-06-05T09:10:07.000Z</time></trkpt><trkpt lon="5.744129" lat="51.247094"><ele>27.4</ele><time>2022-06-05T09:10:08.000Z</time></trkpt><trkpt lon="5.744047" lat="51.247067"><ele>27.4</ele><time>2022-06-05T09:10:09.000Z</time></trkpt><trkpt lon="5.743963" lat="51.247037"><ele>27.4</ele><time>2022-06-05T09:10:10.000Z</time></trkpt><trkpt lon="5.743883" lat="51.24701"><ele>27.4</ele><time>2022-06-05T09:10:11.000Z</time></trkpt><trkpt lon="5.743806" lat="51.246983"><ele>27.4</ele><time>2022-06-05T09:10:12.000Z</time></trkpt><trkpt lon="5.743732" lat="51.246957"><ele>27.4</ele><time>2022-06-05T09:10:13.000Z</time></trkpt><trkpt lon="5.743662" lat="51.246928"><ele>27.4</ele><time>2022-06-05T09:10:14.000Z</time></trkpt><trkpt lon="5.743581" lat="51.246896"><ele>27.4</ele><time>2022-06-05T09:10:15.000Z</time></trkpt><trkpt lon="5.743498" lat="51.246869"><ele>27.2</ele><time>2022-06-05T09:10:16.000Z</time></trkpt><trkpt lon="5.743413" lat="51.246835"><ele>27.2</ele><time>2022-06-05T09:10:17.000Z</time></trkpt><trkpt lon="5.743318" lat="51.246804"><ele>27.2</ele><time>2022-06-05T09:10:18.000Z</time></trkpt><trkpt lon="5.743224" lat="51.246767"><ele>27.4</ele><time>2022-06-05T09:10:19.000Z</time></trkpt><trkpt lon="5.743127" lat="51.246732"><ele>27.2</ele><time>2022-06-05T09:10:20.000Z</time></trkpt><trkpt lon="5.743033" lat="51.246698"><ele>27.2</ele><time>2022-06-05T09:10:21.000Z</time></trkpt><trkpt lon="5.742935" lat="51.24666"><ele>27.2</ele><time>2022-06-05T09:10:22.000Z</time></trkpt><trkpt lon="5.742845" lat="51.246623"><ele>27.2</ele><time>2022-06-05T09:10:23.000Z</time></trkpt><trkpt lon="5.742747" lat="51.246584"><ele>27.2</ele><time>2022-06-05T09:10:24.000Z</time></trkpt><trkpt lon="5.742654" lat="51.246542"><ele>27.2</ele><time>2022-06-05T09:10:25.000Z</time></trkpt><trkpt lon="5.74256" lat="51.2465"><ele>27.2</ele><time>2022-06-05T09:10:26.000Z</time></trkpt><trkpt lon="5.742469" lat="51.246461"><ele>27.2</ele><time>2022-06-05T09:10:27.000Z</time></trkpt><trkpt lon="5.742384" lat="51.246423"><ele>27.2</ele><time>2022-06-05T09:10:28.000Z</time></trkpt><trkpt lon="5.742294" lat="51.246389"><ele>27.2</ele><time>2022-06-05T09:10:29.000Z</time></trkpt><trkpt lon="5.742193" lat="51.246369"><ele>27.2</ele><time>2022-06-05T09:10:30.000Z</time></trkpt><trkpt lon="5.742085" lat="51.246368"><ele>27.2</ele><time>2022-06-05T09:10:31.000Z</time></trkpt><trkpt lon="5.741971" lat="51.246376"><ele>27.2</ele><time>2022-06-05T09:10:32.000Z</time></trkpt><trkpt lon="5.741853" lat="51.246383"><ele>27.2</ele><time>2022-06-05T09:10:33.000Z</time></trkpt><trkpt lon="5.741733" lat="51.246391"><ele>27.2</ele><time>2022-06-05T09:10:34.000Z</time></trkpt><trkpt lon="5.74161" lat="51.246399"><ele>27.2</ele><time>2022-06-05T09:10:35.000Z</time></trkpt><trkpt lon="5.741488" lat="51.24641"><ele>27</ele><time>2022-06-05T09:10:36.000Z</time></trkpt><trkpt lon="5.741373" lat="51.246421"><ele>27.2</ele><time>2022-06-05T09:10:37.000Z</time></trkpt><trkpt lon="5.741247" lat="51.246429"><ele>27.2</ele><time>2022-06-05T09:10:38.000Z</time></trkpt><trkpt lon="5.741131" lat="51.246437"><ele>27.2</ele><time>2022-06-05T09:10:39.000Z</time></trkpt><trkpt lon="5.741026" lat="51.246444"><ele>27.2</ele><time>2022-06-05T09:10:40.000Z</time></trkpt><trkpt lon="5.740907" lat="51.246452"><ele>27.2</ele><time>2022-06-05T09:10:41.000Z</time></trkpt><trkpt lon="5.740798" lat="51.24646"><ele>27.2</ele><time>2022-06-05T09:10:42.000Z</time></trkpt><trkpt lon="5.740686" lat="51.246467"><ele>27.2</ele><time>2022-06-05T09:10:43.000Z</time></trkpt><trkpt lon="5.740573" lat="51.246475"><ele>27.2</ele><time>2022-06-05T09:10:44.000Z</time></trkpt><trkpt lon="5.740458" lat="51.246482"><ele>27.2</ele><time>2022-06-05T09:10:45.000Z</time></trkpt><trkpt lon="5.740345" lat="51.24649"><ele>27.2</ele><time>2022-06-05T09:10:46.000Z</time></trkpt><trkpt lon="5.740233" lat="51.246498"><ele>27.2</ele><time>2022-06-05T09:10:47.000Z</time></trkpt><trkpt lon="5.740123" lat="51.246505"><ele>27.2</ele><time>2022-06-05T09:10:48.000Z</time></trkpt><trkpt lon="5.740019" lat="51.246513"><ele>27.2</ele><time>2022-06-05T09:10:49.000Z</time></trkpt><trkpt lon="5.739922" lat="51.246521"><ele>27.2</ele><time>2022-06-05T09:10:50.000Z</time></trkpt><trkpt lon="5.739839" lat="51.246528"><ele>27.4</ele><time>2022-06-05T09:10:51.000Z</time></trkpt><trkpt lon="5.739774" lat="51.246543"><ele>27.4</ele><time>2022-06-05T09:10:52.000Z</time></trkpt><trkpt lon="5.739722" lat="51.246566"><ele>27.6</ele><time>2022-06-05T09:10:53.000Z</time></trkpt><trkpt lon="5.739685" lat="51.2466"><ele>27.6</ele><time>2022-06-05T09:10:54.000Z</time></trkpt><trkpt lon="5.739661" lat="51.246641"><ele>27.6</ele><time>2022-06-05T09:10:55.000Z</time></trkpt><trkpt lon="5.739655" lat="51.246691"><ele>27.4</ele><time>2022-06-05T09:10:56.000Z</time></trkpt><trkpt lon="5.739665" lat="51.246748"><ele>27.4</ele><time>2022-06-05T09:10:57.000Z</time></trkpt><trkpt lon="5.739682" lat="51.246807"><ele>27.4</ele><time>2022-06-05T09:10:58.000Z</time></trkpt><trkpt lon="5.739701" lat="51.24687"><ele>27.2</ele><time>2022-06-05T09:10:59.000Z</time></trkpt><trkpt lon="5.739718" lat="51.246931"><ele>27.2</ele><time>2022-06-05T09:11:00.000Z</time></trkpt><trkpt lon="5.739736" lat="51.246992"><ele>27.4</ele><time>2022-06-05T09:11:01.000Z</time></trkpt><trkpt lon="5.739738" lat="51.247049"><ele>27.4</ele><time>2022-06-05T09:11:02.000Z</time></trkpt><trkpt lon="5.739706" lat="51.247103"><ele>27.4</ele><time>2022-06-05T09:11:03.000Z</time></trkpt><trkpt lon="5.73964" lat="51.247127"><ele>27.4</ele><time>2022-06-05T09:11:04.000Z</time></trkpt><trkpt lon="5.739559" lat="51.247135"><ele>27.6</ele><time>2022-06-05T09:11:05.000Z</time></trkpt><trkpt lon="5.739476" lat="51.247135"><ele>27.6</ele><time>2022-06-05T09:11:06.000Z</time></trkpt><trkpt lon="5.739392" lat="51.247135"><ele>27.6</ele><time>2022-06-05T09:11:07.000Z</time></trkpt><trkpt lon="5.739306" lat="51.247135"><ele>27.6</ele><time>2022-06-05T09:11:08.000Z</time></trkpt><trkpt lon="5.739223" lat="51.247135"><ele>27.8</ele><time>2022-06-05T09:11:09.000Z</time></trkpt><trkpt lon="5.739145" lat="51.247139"><ele>27.8</ele><time>2022-06-05T09:11:10.000Z</time></trkpt><trkpt lon="5.739069" lat="51.247135"><ele>27.8</ele><time>2022-06-05T09:11:11.000Z</time></trkpt><trkpt lon="5.738998" lat="51.24712"><ele>27.8</ele><time>2022-06-05T09:11:12.000Z</time></trkpt><trkpt lon="5.738933" lat="51.247098"><ele>28</ele><time>2022-06-05T09:11:13.000Z</time></trkpt><trkpt lon="5.738882" lat="51.24706"><ele>28</ele><time>2022-06-05T09:11:14.000Z</time></trkpt><trkpt lon="5.738845" lat="51.247007"><ele>28</ele><time>2022-06-05T09:11:15.000Z</time></trkpt><trkpt lon="5.738827" lat="51.246943"><ele>27.8</ele><time>2022-06-05T09:11:16.000Z</time></trkpt><trkpt lon="5.73882" lat="51.246878"><ele>27.8</ele><time>2022-06-05T09:11:17.000Z</time></trkpt><trkpt lon="5.738818" lat="51.246814"><ele>27.8</ele><time>2022-06-05T09:11:18.000Z</time></trkpt><trkpt lon="5.738817" lat="51.246753"><ele>27.6</ele><time>2022-06-05T09:11:19.000Z</time></trkpt><trkpt lon="5.738817" lat="51.246687"><ele>27.6</ele><time>2022-06-05T09:11:20.000Z</time></trkpt><trkpt lon="5.738817" lat="51.246626"><ele>27.8</ele><time>2022-06-05T09:11:21.000Z</time></trkpt><trkpt lon="5.738825" lat="51.246565"><ele>27.8</ele><time>2022-06-05T09:11:22.000Z</time></trkpt><trkpt lon="5.738836" lat="51.2465"><ele>28</ele><time>2022-06-05T09:11:23.000Z</time></trkpt><trkpt lon="5.738854" lat="51.24644"><ele>28</ele><time>2022-06-05T09:11:24.000Z</time></trkpt><trkpt lon="5.738874" lat="51.246375"><ele>28</ele><time>2022-06-05T09:11:25.000Z</time></trkpt><trkpt lon="5.738899" lat="51.246314"><ele>28</ele><time>2022-06-05T09:11:26.000Z</time></trkpt><trkpt lon="5.73892" lat="51.24625"><ele>28</ele><time>2022-06-05T09:11:27.000Z</time></trkpt><trkpt lon="5.738941" lat="51.246181"><ele>27.8</ele><time>2022-06-05T09:11:28.000Z</time></trkpt><trkpt lon="5.738956" lat="51.246115"><ele>27.8</ele><time>2022-06-05T09:11:29.000Z</time></trkpt><trkpt lon="5.738968" lat="51.246046"><ele>27.6</ele><time>2022-06-05T09:11:30.000Z</time></trkpt><trkpt lon="5.73897" lat="51.245979"><ele>27.6</ele><time>2022-06-05T09:11:31.000Z</time></trkpt><trkpt lon="5.738963" lat="51.24591"><ele>27.6</ele><time>2022-06-05T09:11:32.000Z</time></trkpt><trkpt lon="5.738954" lat="51.245841"><ele>27.4</ele><time>2022-06-05T09:11:33.000Z</time></trkpt><trkpt lon="5.738937" lat="51.245772"><ele>27.4</ele><time>2022-06-05T09:11:34.000Z</time></trkpt><trkpt lon="5.738919" lat="51.245703"><ele>27.2</ele><time>2022-06-05T09:11:35.000Z</time></trkpt><trkpt lon="5.738899" lat="51.245632"><ele>27.2</ele><time>2022-06-05T09:11:36.000Z</time></trkpt><trkpt lon="5.738878" lat="51.245562"><ele>27.2</ele><time>2022-06-05T09:11:37.000Z</time></trkpt><trkpt lon="5.738858" lat="51.245494"><ele>27</ele><time>2022-06-05T09:11:38.000Z</time></trkpt><trkpt lon="5.738838" lat="51.245426"><ele>27</ele><time>2022-06-05T09:11:39.000Z</time></trkpt><trkpt lon="5.738819" lat="51.245353"><ele>26.8</ele><time>2022-06-05T09:11:40.000Z</time></trkpt><trkpt lon="5.738806" lat="51.245285"><ele>26.8</ele><time>2022-06-05T09:11:41.000Z</time></trkpt><trkpt lon="5.738798" lat="51.245212"><ele>26.8</ele><time>2022-06-05T09:11:42.000Z</time></trkpt><trkpt lon="5.738798" lat="51.245139"><ele>26.8</ele><time>2022-06-05T09:11:43.000Z</time></trkpt><trkpt lon="5.738804" lat="51.245067"><ele>26.8</ele><time>2022-06-05T09:11:44.000Z</time></trkpt><trkpt lon="5.738819" lat="51.244994"><ele>26.8</ele><time>2022-06-05T09:11:45.000Z</time></trkpt><trkpt lon="5.738841" lat="51.244926"><ele>27</ele><time>2022-06-05T09:11:46.000Z</time></trkpt><trkpt lon="5.738869" lat="51.244853"><ele>27</ele><time>2022-06-05T09:11:47.000Z</time></trkpt><trkpt lon="5.738889" lat="51.244784"><ele>27</ele><time>2022-06-05T09:11:48.000Z</time></trkpt><trkpt lon="5.738906" lat="51.244716"><ele>27</ele><time>2022-06-05T09:11:49.000Z</time></trkpt><trkpt lon="5.738921" lat="51.244643"><ele>26.8</ele><time>2022-06-05T09:11:50.000Z</time></trkpt><trkpt lon="5.738934" lat="51.244572"><ele>26.8</ele><time>2022-06-05T09:11:51.000Z</time></trkpt><trkpt lon="5.738948" lat="51.244498"><ele>26.8</ele><time>2022-06-05T09:11:52.000Z</time></trkpt><trkpt lon="5.738963" lat="51.244425"><ele>26.8</ele><time>2022-06-05T09:11:53.000Z</time></trkpt><trkpt lon="5.738975" lat="51.244353"><ele>27</ele><time>2022-06-05T09:11:54.000Z</time></trkpt><trkpt lon="5.738991" lat="51.24428"><ele>27</ele><time>2022-06-05T09:11:55.000Z</time></trkpt><trkpt lon="5.739008" lat="51.244208"><ele>27</ele><time>2022-06-05T09:11:56.000Z</time></trkpt><trkpt lon="5.739026" lat="51.244136"><ele>27.2</ele><time>2022-06-05T09:11:57.000Z</time></trkpt><trkpt lon="5.739045" lat="51.244066"><ele>27.2</ele><time>2022-06-05T09:11:58.000Z</time></trkpt><trkpt lon="5.739063" lat="51.24399"><ele>26.8</ele><time>2022-06-05T09:11:59.000Z</time></trkpt><trkpt lon="5.73908" lat="51.243917"><ele>26.8</ele><time>2022-06-05T09:12:00.000Z</time></trkpt><trkpt lon="5.739096" lat="51.243846"><ele>27</ele><time>2022-06-05T09:12:01.000Z</time></trkpt><trkpt lon="5.739114" lat="51.243774"><ele>27</ele><time>2022-06-05T09:12:02.000Z</time></trkpt><trkpt lon="5.739134" lat="51.2437"><ele>26.8</ele><time>2022-06-05T09:12:03.000Z</time></trkpt><trkpt lon="5.739156" lat="51.243629"><ele>26.8</ele><time>2022-06-05T09:12:04.000Z</time></trkpt><trkpt lon="5.739179" lat="51.243556"><ele>26.8</ele><time>2022-06-05T09:12:05.000Z</time></trkpt><trkpt lon="5.739203" lat="51.243487"><ele>26.8</ele><time>2022-06-05T09:12:06.000Z</time></trkpt><trkpt lon="5.739227" lat="51.243415"><ele>26.8</ele><time>2022-06-05T09:12:07.000Z</time></trkpt><trkpt lon="5.739254" lat="51.243346"><ele>26.8</ele><time>2022-06-05T09:12:08.000Z</time></trkpt><trkpt lon="5.739283" lat="51.243277"><ele>27</ele><time>2022-06-05T09:12:09.000Z</time></trkpt><trkpt lon="5.739311" lat="51.243205"><ele>26.8</ele><time>2022-06-05T09:12:10.000Z</time></trkpt><trkpt lon="5.739337" lat="51.243141"><ele>26.8</ele><time>2022-06-05T09:12:11.000Z</time></trkpt><trkpt lon="5.739364" lat="51.243071"><ele>26.8</ele><time>2022-06-05T09:12:12.000Z</time></trkpt><trkpt lon="5.739388" lat="51.243002"><ele>26.8</ele><time>2022-06-05T09:12:13.000Z</time></trkpt><trkpt lon="5.739414" lat="51.242938"><ele>26.6</ele><time>2022-06-05T09:12:14.000Z</time></trkpt><trkpt lon="5.739441" lat="51.242865"><ele>26.4</ele><time>2022-06-05T09:12:15.000Z</time></trkpt><trkpt lon="5.739469" lat="51.242797"><ele>26.4</ele><time>2022-06-05T09:12:16.000Z</time></trkpt><trkpt lon="5.739497" lat="51.242725"><ele>26.2</ele><time>2022-06-05T09:12:17.000Z</time></trkpt><trkpt lon="5.739528" lat="51.242656"><ele>26.2</ele><time>2022-06-05T09:12:18.000Z</time></trkpt><trkpt lon="5.73956" lat="51.242588"><ele>26.2</ele><time>2022-06-05T09:12:19.000Z</time></trkpt><trkpt lon="5.739594" lat="51.242515"><ele>26.2</ele><time>2022-06-05T09:12:20.000Z</time></trkpt><trkpt lon="5.739632" lat="51.242446"><ele>26.2</ele><time>2022-06-05T09:12:21.000Z</time></trkpt><trkpt lon="5.739677" lat="51.242377"><ele>26.2</ele><time>2022-06-05T09:12:22.000Z</time></trkpt><trkpt lon="5.739726" lat="51.242309"><ele>26.2</ele><time>2022-06-05T09:12:23.000Z</time></trkpt><trkpt lon="5.739778" lat="51.242243"><ele>26.2</ele><time>2022-06-05T09:12:24.000Z</time></trkpt><trkpt lon="5.739825" lat="51.242175"><ele>26.2</ele><time>2022-06-05T09:12:25.000Z</time></trkpt><trkpt lon="5.73987" lat="51.242109"><ele>26</ele><time>2022-06-05T09:12:26.000Z</time></trkpt><trkpt lon="5.739918" lat="51.242045"><ele>26.2</ele><time>2022-06-05T09:12:27.000Z</time></trkpt><trkpt lon="5.739967" lat="51.24198"><ele>26.2</ele><time>2022-06-05T09:12:28.000Z</time></trkpt><trkpt lon="5.740015" lat="51.241915"><ele>26</ele><time>2022-06-05T09:12:29.000Z</time></trkpt><trkpt lon="5.740058" lat="51.241854"><ele>26.2</ele><time>2022-06-05T09:12:30.000Z</time></trkpt><trkpt lon="5.740104" lat="51.241789"><ele>26</ele><time>2022-06-05T09:12:31.000Z</time></trkpt><trkpt lon="5.740155" lat="51.241721"><ele>26</ele><time>2022-06-05T09:12:32.000Z</time></trkpt><trkpt lon="5.740205" lat="51.241655"><ele>26.2</ele><time>2022-06-05T09:12:33.000Z</time></trkpt><trkpt lon="5.740258" lat="51.241591"><ele>26</ele><time>2022-06-05T09:12:34.000Z</time></trkpt><trkpt lon="5.740312" lat="51.241526"><ele>26</ele><time>2022-06-05T09:12:35.000Z</time></trkpt><trkpt lon="5.740367" lat="51.241462"><ele>25.8</ele><time>2022-06-05T09:12:36.000Z</time></trkpt><trkpt lon="5.740428" lat="51.241396"><ele>25.6</ele><time>2022-06-05T09:12:37.000Z</time></trkpt><trkpt lon="5.740487" lat="51.241328"><ele>25.6</ele><time>2022-06-05T09:12:38.000Z</time></trkpt><trkpt lon="5.740549" lat="51.241259"><ele>25.4</ele><time>2022-06-05T09:12:39.000Z</time></trkpt><trkpt lon="5.740615" lat="51.241194"><ele>25.2</ele><time>2022-06-05T09:12:40.000Z</time></trkpt><trkpt lon="5.740676" lat="51.241126"><ele>25.2</ele><time>2022-06-05T09:12:41.000Z</time></trkpt><trkpt lon="5.740738" lat="51.24106"><ele>25</ele><time>2022-06-05T09:12:42.000Z</time></trkpt><trkpt lon="5.740799" lat="51.241"><ele>25.2</ele><time>2022-06-05T09:12:43.000Z</time></trkpt><trkpt lon="5.740867" lat="51.240931"><ele>25.4</ele><time>2022-06-05T09:12:44.000Z</time></trkpt><trkpt lon="5.740931" lat="51.240866"><ele>25.6</ele><time>2022-06-05T09:12:45.000Z</time></trkpt><trkpt lon="5.740999" lat="51.240801"><ele>25.6</ele><time>2022-06-05T09:12:46.000Z</time></trkpt><trkpt lon="5.741066" lat="51.240737"><ele>25.6</ele><time>2022-06-05T09:12:47.000Z</time></trkpt><trkpt lon="5.741135" lat="51.240673"><ele>25.6</ele><time>2022-06-05T09:12:48.000Z</time></trkpt><trkpt lon="5.741202" lat="51.240606"><ele>25.6</ele><time>2022-06-05T09:12:49.000Z</time></trkpt><trkpt lon="5.741271" lat="51.240534"><ele>25.6</ele><time>2022-06-05T09:12:50.000Z</time></trkpt><trkpt lon="5.741339" lat="51.240466"><ele>25.4</ele><time>2022-06-05T09:12:51.000Z</time></trkpt><trkpt lon="5.741407" lat="51.240401"><ele>25.6</ele><time>2022-06-05T09:12:52.000Z</time></trkpt><trkpt lon="5.741479" lat="51.240336"><ele>25.6</ele><time>2022-06-05T09:12:53.000Z</time></trkpt><trkpt lon="5.741557" lat="51.240267"><ele>25.6</ele><time>2022-06-05T09:12:54.000Z</time></trkpt><trkpt lon="5.741638" lat="51.240209"><ele>25.6</ele><time>2022-06-05T09:12:55.000Z</time></trkpt><trkpt lon="5.741722" lat="51.240156"><ele>25.6</ele><time>2022-06-05T09:12:56.000Z</time></trkpt><trkpt lon="5.741812" lat="51.240106"><ele>25.4</ele><time>2022-06-05T09:12:57.000Z</time></trkpt><trkpt lon="5.741901" lat="51.240061"><ele>25.4</ele><time>2022-06-05T09:12:58.000Z</time></trkpt><trkpt lon="5.741986" lat="51.240019"><ele>25.4</ele><time>2022-06-05T09:12:59.000Z</time></trkpt><trkpt lon="5.742072" lat="51.239976"><ele>25.2</ele><time>2022-06-05T09:13:00.000Z</time></trkpt><trkpt lon="5.742155" lat="51.239935"><ele>25</ele><time>2022-06-05T09:13:01.000Z</time></trkpt><trkpt lon="5.742243" lat="51.239893"><ele>24.8</ele><time>2022-06-05T09:13:02.000Z</time></trkpt><trkpt lon="5.742327" lat="51.239851"><ele>24.6</ele><time>2022-06-05T09:13:03.000Z</time></trkpt><trkpt lon="5.742406" lat="51.239809"><ele>24.4</ele><time>2022-06-05T09:13:04.000Z</time></trkpt><trkpt lon="5.742486" lat="51.239774"><ele>24.2</ele><time>2022-06-05T09:13:05.000Z</time></trkpt><trkpt lon="5.742562" lat="51.23974"><ele>24</ele><time>2022-06-05T09:13:06.000Z</time></trkpt><trkpt lon="5.742644" lat="51.239702"><ele>24</ele><time>2022-06-05T09:13:07.000Z</time></trkpt><trkpt lon="5.742723" lat="51.239668"><ele>24</ele><time>2022-06-05T09:13:08.000Z</time></trkpt><trkpt lon="5.742803" lat="51.239633"><ele>24</ele><time>2022-06-05T09:13:09.000Z</time></trkpt><trkpt lon="5.74288" lat="51.239606"><ele>24</ele><time>2022-06-05T09:13:10.000Z</time></trkpt><trkpt lon="5.742954" lat="51.239579"><ele>24</ele><time>2022-06-05T09:13:11.000Z</time></trkpt><trkpt lon="5.743025" lat="51.239553"><ele>24</ele><time>2022-06-05T09:13:12.000Z</time></trkpt><trkpt lon="5.743088" lat="51.239538"><ele>24</ele><time>2022-06-05T09:13:13.000Z</time></trkpt><trkpt lon="5.743161" lat="51.239514"><ele>24.2</ele><time>2022-06-05T09:13:14.000Z</time></trkpt><trkpt lon="5.743219" lat="51.239488"><ele>24.4</ele><time>2022-06-05T09:13:15.000Z</time></trkpt><trkpt lon="5.743271" lat="51.23945"><ele>24.6</ele><time>2022-06-05T09:13:16.000Z</time></trkpt><trkpt lon="5.743289" lat="51.239397"><ele>24.8</ele><time>2022-06-05T09:13:17.000Z</time></trkpt><trkpt lon="5.743308" lat="51.23933"><ele>24.8</ele><time>2022-06-05T09:13:18.000Z</time></trkpt><trkpt lon="5.743275" lat="51.239277"><ele>25</ele><time>2022-06-05T09:13:19.000Z</time></trkpt><trkpt lon="5.743209" lat="51.2392"><ele>25</ele><time>2022-06-05T09:13:20.000Z</time></trkpt><trkpt lon="5.743141" lat="51.239134"><ele>25</ele><time>2022-06-05T09:13:21.000Z</time></trkpt><trkpt lon="5.743069" lat="51.239066"><ele>25</ele><time>2022-06-05T09:13:22.000Z</time></trkpt><trkpt lon="5.742994" lat="51.239005"><ele>25</ele><time>2022-06-05T09:13:23.000Z</time></trkpt><trkpt lon="5.742916" lat="51.238943"><ele>25</ele><time>2022-06-05T09:13:24.000Z</time></trkpt><trkpt lon="5.742841" lat="51.238883"><ele>25</ele><time>2022-06-05T09:13:25.000Z</time></trkpt><trkpt lon="5.742767" lat="51.238821"><ele>25</ele><time>2022-06-05T09:13:26.000Z</time></trkpt><trkpt lon="5.742693" lat="51.238757"><ele>25</ele><time>2022-06-05T09:13:27.000Z</time></trkpt><trkpt lon="5.742616" lat="51.238696"><ele>25</ele><time>2022-06-05T09:13:28.000Z</time></trkpt><trkpt lon="5.742538" lat="51.238635"><ele>25</ele><time>2022-06-05T09:13:29.000Z</time></trkpt><trkpt lon="5.742462" lat="51.238573"><ele>25</ele><time>2022-06-05T09:13:30.000Z</time></trkpt><trkpt lon="5.742391" lat="51.238512"><ele>25</ele><time>2022-06-05T09:13:31.000Z</time></trkpt><trkpt lon="5.742319" lat="51.238455"><ele>25</ele><time>2022-06-05T09:13:32.000Z</time></trkpt><trkpt lon="5.742248" lat="51.238398"><ele>25.2</ele><time>2022-06-05T09:13:33.000Z</time></trkpt><trkpt lon="5.742175" lat="51.238341"><ele>25.2</ele><time>2022-06-05T09:13:34.000Z</time></trkpt><trkpt lon="5.742101" lat="51.238283"><ele>25.2</ele><time>2022-06-05T09:13:35.000Z</time></trkpt><trkpt lon="5.742033" lat="51.238227"><ele>25.2</ele><time>2022-06-05T09:13:36.000Z</time></trkpt><trkpt lon="5.741967" lat="51.23817"><ele>25.2</ele><time>2022-06-05T09:13:37.000Z</time></trkpt><trkpt lon="5.741896" lat="51.238115"><ele>25.4</ele><time>2022-06-05T09:13:38.000Z</time></trkpt><trkpt lon="5.741828" lat="51.238058"><ele>25.4</ele><time>2022-06-05T09:13:39.000Z</time></trkpt><trkpt lon="5.741761" lat="51.238005"><ele>25.4</ele><time>2022-06-05T09:13:40.000Z</time></trkpt><trkpt lon="5.741694" lat="51.237947"><ele>25.4</ele><time>2022-06-05T09:13:41.000Z</time></trkpt><trkpt lon="5.741629" lat="51.23789"><ele>25.4</ele><time>2022-06-05T09:13:42.000Z</time></trkpt><trkpt lon="5.741559" lat="51.237833"><ele>25.4</ele><time>2022-06-05T09:13:43.000Z</time></trkpt><trkpt lon="5.741493" lat="51.23778"><ele>25.4</ele><time>2022-06-05T09:13:44.000Z</time></trkpt><trkpt lon="5.741426" lat="51.237727"><ele>25.6</ele><time>2022-06-05T09:13:45.000Z</time></trkpt><trkpt lon="5.741357" lat="51.237669"><ele>25.6</ele><time>2022-06-05T09:13:46.000Z</time></trkpt><trkpt lon="5.741292" lat="51.237616"><ele>25.8</ele><time>2022-06-05T09:13:47.000Z</time></trkpt><trkpt lon="5.741234" lat="51.237559"><ele>25.8</ele><time>2022-06-05T09:13:48.000Z</time></trkpt><trkpt lon="5.74119" lat="51.237501"><ele>26</ele><time>2022-06-05T09:13:49.000Z</time></trkpt><trkpt lon="5.741166" lat="51.237441"><ele>26</ele><time>2022-06-05T09:13:50.000Z</time></trkpt><trkpt lon="5.741172" lat="51.237375"><ele>26</ele><time>2022-06-05T09:13:51.000Z</time></trkpt><trkpt lon="5.741207" lat="51.237311"><ele>25.8</ele><time>2022-06-05T09:13:52.000Z</time></trkpt><trkpt lon="5.741253" lat="51.237242"><ele>25.4</ele><time>2022-06-05T09:13:53.000Z</time></trkpt><trkpt lon="5.741303" lat="51.237178"><ele>25.2</ele><time>2022-06-05T09:13:54.000Z</time></trkpt><trkpt lon="5.74135" lat="51.237113"><ele>25</ele><time>2022-06-05T09:13:55.000Z</time></trkpt><trkpt lon="5.741396" lat="51.237048"><ele>24.8</ele><time>2022-06-05T09:13:56.000Z</time></trkpt><trkpt lon="5.741444" lat="51.236984"><ele>24.6</ele><time>2022-06-05T09:13:57.000Z</time></trkpt><trkpt lon="5.741493" lat="51.236918"><ele>24.8</ele><time>2022-06-05T09:13:58.000Z</time></trkpt><trkpt lon="5.741542" lat="51.236857"><ele>24.8</ele><time>2022-06-05T09:13:59.000Z</time></trkpt><trkpt lon="5.741587" lat="51.236792"><ele>24.8</ele><time>2022-06-05T09:14:00.000Z</time></trkpt><trkpt lon="5.741628" lat="51.236727"><ele>25</ele><time>2022-06-05T09:14:01.000Z</time></trkpt><trkpt lon="5.741659" lat="51.236668"><ele>25</ele><time>2022-06-05T09:14:02.000Z</time></trkpt><trkpt lon="5.741694" lat="51.23659"><ele>25.2</ele><time>2022-06-05T09:14:03.000Z</time></trkpt><trkpt lon="5.741716" lat="51.236518"><ele>25.2</ele><time>2022-06-05T09:14:04.000Z</time></trkpt><trkpt lon="5.74173" lat="51.236449"><ele>25.2</ele><time>2022-06-05T09:14:05.000Z</time></trkpt><trkpt lon="5.741735" lat="51.236378"><ele>25.4</ele><time>2022-06-05T09:14:06.000Z</time></trkpt><trkpt lon="5.741737" lat="51.236305"><ele>25.4</ele><time>2022-06-05T09:14:07.000Z</time></trkpt><trkpt lon="5.741727" lat="51.236233"><ele>25.4</ele><time>2022-06-05T09:14:08.000Z</time></trkpt><trkpt lon="5.741712" lat="51.23616"><ele>25.4</ele><time>2022-06-05T09:14:09.000Z</time></trkpt><trkpt lon="5.741691" lat="51.236087"><ele>25.4</ele><time>2022-06-05T09:14:10.000Z</time></trkpt><trkpt lon="5.741666" lat="51.236014"><ele>25.4</ele><time>2022-06-05T09:14:11.000Z</time></trkpt><trkpt lon="5.741641" lat="51.235945"><ele>25.4</ele><time>2022-06-05T09:14:12.000Z</time></trkpt><trkpt lon="5.741613" lat="51.235874"><ele>25.2</ele><time>2022-06-05T09:14:13.000Z</time></trkpt><trkpt lon="5.741583" lat="51.235804"><ele>25</ele><time>2022-06-05T09:14:14.000Z</time></trkpt><trkpt lon="5.741553" lat="51.235732"><ele>25</ele><time>2022-06-05T09:14:15.000Z</time></trkpt><trkpt lon="5.741528" lat="51.235663"><ele>25</ele><time>2022-06-05T09:14:16.000Z</time></trkpt><trkpt lon="5.741499" lat="51.235594"><ele>25</ele><time>2022-06-05T09:14:17.000Z</time></trkpt><trkpt lon="5.741473" lat="51.235523"><ele>25</ele><time>2022-06-05T09:14:18.000Z</time></trkpt><trkpt lon="5.741451" lat="51.235465"><ele>25.2</ele><time>2022-06-05T09:14:19.000Z</time></trkpt><trkpt lon="5.741423" lat="51.23539"><ele>25.2</ele><time>2022-06-05T09:14:20.000Z</time></trkpt><trkpt lon="5.741389" lat="51.235305"><ele>25.4</ele><time>2022-06-05T09:14:21.000Z</time></trkpt><trkpt lon="5.741364" lat="51.235232"><ele>25.4</ele><time>2022-06-05T09:14:22.000Z</time></trkpt><trkpt lon="5.741339" lat="51.23516"><ele>25.4</ele><time>2022-06-05T09:14:23.000Z</time></trkpt><trkpt lon="5.741314" lat="51.235091"><ele>25.4</ele><time>2022-06-05T09:14:24.000Z</time></trkpt><trkpt lon="5.741289" lat="51.235018"><ele>25.4</ele><time>2022-06-05T09:14:25.000Z</time></trkpt><trkpt lon="5.741264" lat="51.23495"><ele>25.4</ele><time>2022-06-05T09:14:26.000Z</time></trkpt><trkpt lon="5.741239" lat="51.234881"><ele>25.4</ele><time>2022-06-05T09:14:27.000Z</time></trkpt><trkpt lon="5.741217" lat="51.234811"><ele>25.4</ele><time>2022-06-05T09:14:28.000Z</time></trkpt><trkpt lon="5.741193" lat="51.23474"><ele>25.6</ele><time>2022-06-05T09:14:29.000Z</time></trkpt><trkpt lon="5.741171" lat="51.234671"><ele>25.6</ele><time>2022-06-05T09:14:30.000Z</time></trkpt><trkpt lon="5.741146" lat="51.234603"><ele>25.6</ele><time>2022-06-05T09:14:31.000Z</time></trkpt><trkpt lon="5.741123" lat="51.234534"><ele>25.6</ele><time>2022-06-05T09:14:32.000Z</time></trkpt><trkpt lon="5.741099" lat="51.234465"><ele>25.6</ele><time>2022-06-05T09:14:33.000Z</time></trkpt><trkpt lon="5.741076" lat="51.234397"><ele>25.6</ele><time>2022-06-05T09:14:34.000Z</time></trkpt><trkpt lon="5.741054" lat="51.234328"><ele>25.6</ele><time>2022-06-05T09:14:35.000Z</time></trkpt><trkpt lon="5.741031" lat="51.23426"><ele>25.4</ele><time>2022-06-05T09:14:36.000Z</time></trkpt><trkpt lon="5.741009" lat="51.234194"><ele>25.4</ele><time>2022-06-05T09:14:37.000Z</time></trkpt><trkpt lon="5.740991" lat="51.234126"><ele>25.4</ele><time>2022-06-05T09:14:38.000Z</time></trkpt><trkpt lon="5.740975" lat="51.234057"><ele>25.4</ele><time>2022-06-05T09:14:39.000Z</time></trkpt><trkpt lon="5.74097" lat="51.233984"><ele>25.2</ele><time>2022-06-05T09:14:40.000Z</time></trkpt><trkpt lon="5.740972" lat="51.233916"><ele>25.2</ele><time>2022-06-05T09:14:41.000Z</time></trkpt><trkpt lon="5.740983" lat="51.233844"><ele>25</ele><time>2022-06-05T09:14:42.000Z</time></trkpt><trkpt lon="5.741003" lat="51.233771"><ele>25</ele><time>2022-06-05T09:14:43.000Z</time></trkpt><trkpt lon="5.741024" lat="51.2337"><ele>25</ele><time>2022-06-05T09:14:44.000Z</time></trkpt><trkpt lon="5.741047" lat="51.233631"><ele>25</ele><time>2022-06-05T09:14:45.000Z</time></trkpt><trkpt lon="5.741068" lat="51.233559"><ele>25</ele><time>2022-06-05T09:14:46.000Z</time></trkpt><trkpt lon="5.741092" lat="51.233489"><ele>25</ele><time>2022-06-05T09:14:47.000Z</time></trkpt><trkpt lon="5.741116" lat="51.233421"><ele>25.2</ele><time>2022-06-05T09:14:48.000Z</time></trkpt><trkpt lon="5.741138" lat="51.233348"><ele>25</ele><time>2022-06-05T09:14:49.000Z</time></trkpt><trkpt lon="5.741159" lat="51.233276"><ele>25</ele><time>2022-06-05T09:14:50.000Z</time></trkpt><trkpt lon="5.741184" lat="51.233206"><ele>25</ele><time>2022-06-05T09:14:51.000Z</time></trkpt><trkpt lon="5.741208" lat="51.233134"><ele>25</ele><time>2022-06-05T09:14:52.000Z</time></trkpt><trkpt lon="5.741224" lat="51.233062"><ele>25.2</ele><time>2022-06-05T09:14:53.000Z</time></trkpt><trkpt lon="5.74123" lat="51.232993"><ele>25.2</ele><time>2022-06-05T09:14:54.000Z</time></trkpt><trkpt lon="5.741216" lat="51.232924"><ele>25.4</ele><time>2022-06-05T09:14:55.000Z</time></trkpt><trkpt lon="5.741184" lat="51.232855"><ele>25.6</ele><time>2022-06-05T09:14:56.000Z</time></trkpt><trkpt lon="5.741145" lat="51.232787"><ele>25.6</ele><time>2022-06-05T09:14:57.000Z</time></trkpt><trkpt lon="5.741102" lat="51.232719"><ele>25.6</ele><time>2022-06-05T09:14:58.000Z</time></trkpt><trkpt lon="5.74106" lat="51.232653"><ele>25.6</ele><time>2022-06-05T09:14:59.000Z</time></trkpt><trkpt lon="5.74102" lat="51.232587"><ele>25.6</ele><time>2022-06-05T09:15:00.000Z</time></trkpt><trkpt lon="5.740976" lat="51.232515"><ele>25.6</ele><time>2022-06-05T09:15:01.000Z</time></trkpt><trkpt lon="5.740938" lat="51.232452"><ele>25.8</ele><time>2022-06-05T09:15:02.000Z</time></trkpt><trkpt lon="5.740895" lat="51.232383"><ele>25.8</ele><time>2022-06-05T09:15:03.000Z</time></trkpt><trkpt lon="5.740855" lat="51.232314"><ele>25.8</ele><time>2022-06-05T09:15:04.000Z</time></trkpt><trkpt lon="5.740814" lat="51.232246"><ele>26</ele><time>2022-06-05T09:15:05.000Z</time></trkpt><trkpt lon="5.740771" lat="51.232176"><ele>26</ele><time>2022-06-05T09:15:06.000Z</time></trkpt><trkpt lon="5.740728" lat="51.232112"><ele>26</ele><time>2022-06-05T09:15:07.000Z</time></trkpt><trkpt lon="5.740687" lat="51.232043"><ele>26</ele><time>2022-06-05T09:15:08.000Z</time></trkpt><trkpt lon="5.740646" lat="51.231974"><ele>25.8</ele><time>2022-06-05T09:15:09.000Z</time></trkpt><trkpt lon="5.740603" lat="51.231906"><ele>26</ele><time>2022-06-05T09:15:10.000Z</time></trkpt><trkpt lon="5.740562" lat="51.231837"><ele>26.2</ele><time>2022-06-05T09:15:11.000Z</time></trkpt><trkpt lon="5.74052" lat="51.231772"><ele>26</ele><time>2022-06-05T09:15:12.000Z</time></trkpt><trkpt lon="5.740478" lat="51.231704"><ele>26.2</ele><time>2022-06-05T09:15:13.000Z</time></trkpt><trkpt lon="5.740435" lat="51.231635"><ele>26.2</ele><time>2022-06-05T09:15:14.000Z</time></trkpt><trkpt lon="5.740393" lat="51.231566"><ele>26</ele><time>2022-06-05T09:15:15.000Z</time></trkpt><trkpt lon="5.740351" lat="51.231497"><ele>26</ele><time>2022-06-05T09:15:16.000Z</time></trkpt><trkpt lon="5.74031" lat="51.231429"><ele>26</ele><time>2022-06-05T09:15:17.000Z</time></trkpt><trkpt lon="5.740265" lat="51.23136"><ele>26.2</ele><time>2022-06-05T09:15:18.000Z</time></trkpt><trkpt lon="5.740222" lat="51.231295"><ele>26.2</ele><time>2022-06-05T09:15:19.000Z</time></trkpt><trkpt lon="5.74018" lat="51.231227"><ele>26.2</ele><time>2022-06-05T09:15:20.000Z</time></trkpt><trkpt lon="5.74014" lat="51.231161"><ele>26.2</ele><time>2022-06-05T09:15:21.000Z</time></trkpt><trkpt lon="5.740101" lat="51.231093"><ele>26.2</ele><time>2022-06-05T09:15:22.000Z</time></trkpt><trkpt lon="5.740061" lat="51.231028"><ele>26.4</ele><time>2022-06-05T09:15:23.000Z</time></trkpt><trkpt lon="5.74002" lat="51.230963"><ele>26.4</ele><time>2022-06-05T09:15:24.000Z</time></trkpt><trkpt lon="5.739979" lat="51.230899"><ele>26.4</ele><time>2022-06-05T09:15:25.000Z</time></trkpt><trkpt lon="5.739938" lat="51.230834"><ele>26.4</ele><time>2022-06-05T09:15:26.000Z</time></trkpt><trkpt lon="5.739896" lat="51.230769"><ele>26.6</ele><time>2022-06-05T09:15:27.000Z</time></trkpt><trkpt lon="5.739856" lat="51.230702"><ele>26.6</ele><time>2022-06-05T09:15:28.000Z</time></trkpt><trkpt lon="5.739811" lat="51.230635"><ele>26.6</ele><time>2022-06-05T09:15:29.000Z</time></trkpt><trkpt lon="5.739768" lat="51.230566"><ele>26.8</ele><time>2022-06-05T09:15:30.000Z</time></trkpt><trkpt lon="5.739725" lat="51.230502"><ele>26.8</ele><time>2022-06-05T09:15:31.000Z</time></trkpt><trkpt lon="5.739686" lat="51.230437"><ele>26.8</ele><time>2022-06-05T09:15:32.000Z</time></trkpt><trkpt lon="5.739648" lat="51.230372"><ele>26.8</ele><time>2022-06-05T09:15:33.000Z</time></trkpt><trkpt lon="5.739606" lat="51.230303"><ele>26.8</ele><time>2022-06-05T09:15:34.000Z</time></trkpt><trkpt lon="5.739568" lat="51.230239"><ele>27</ele><time>2022-06-05T09:15:35.000Z</time></trkpt><trkpt lon="5.739528" lat="51.23017"><ele>27</ele><time>2022-06-05T09:15:36.000Z</time></trkpt><trkpt lon="5.739489" lat="51.230105"><ele>27</ele><time>2022-06-05T09:15:37.000Z</time></trkpt><trkpt lon="5.73945" lat="51.230036"><ele>27</ele><time>2022-06-05T09:15:38.000Z</time></trkpt><trkpt lon="5.739407" lat="51.229968"><ele>27</ele><time>2022-06-05T09:15:39.000Z</time></trkpt><trkpt lon="5.739369" lat="51.229902"><ele>27</ele><time>2022-06-05T09:15:40.000Z</time></trkpt><trkpt lon="5.739328" lat="51.22983"><ele>26.8</ele><time>2022-06-05T09:15:41.000Z</time></trkpt><trkpt lon="5.739289" lat="51.229762"><ele>26.8</ele><time>2022-06-05T09:15:42.000Z</time></trkpt><trkpt lon="5.73925" lat="51.229693"><ele>26.6</ele><time>2022-06-05T09:15:43.000Z</time></trkpt><trkpt lon="5.73921" lat="51.229625"><ele>26.6</ele><time>2022-06-05T09:15:44.000Z</time></trkpt><trkpt lon="5.73917" lat="51.229556"><ele>26.8</ele><time>2022-06-05T09:15:45.000Z</time></trkpt><trkpt lon="5.739131" lat="51.229487"><ele>26.8</ele><time>2022-06-05T09:15:46.000Z</time></trkpt><trkpt lon="5.73909" lat="51.229418"><ele>26.8</ele><time>2022-06-05T09:15:47.000Z</time></trkpt><trkpt lon="5.739051" lat="51.229351"><ele>26.8</ele><time>2022-06-05T09:15:48.000Z</time></trkpt><trkpt lon="5.739007" lat="51.229281"><ele>27</ele><time>2022-06-05T09:15:49.000Z</time></trkpt><trkpt lon="5.73896" lat="51.229213"><ele>27</ele><time>2022-06-05T09:15:50.000Z</time></trkpt><trkpt lon="5.738912" lat="51.229148"><ele>27.2</ele><time>2022-06-05T09:15:51.000Z</time></trkpt><trkpt lon="5.73886" lat="51.229079"><ele>27.2</ele><time>2022-06-05T09:15:52.000Z</time></trkpt><trkpt lon="5.738806" lat="51.229015"><ele>27.2</ele><time>2022-06-05T09:15:53.000Z</time></trkpt><trkpt lon="5.738751" lat="51.228945"><ele>27.4</ele><time>2022-06-05T09:15:54.000Z</time></trkpt><trkpt lon="5.738694" lat="51.22888"><ele>27.4</ele><time>2022-06-05T09:15:55.000Z</time></trkpt><trkpt lon="5.738639" lat="51.228816"><ele>27.4</ele><time>2022-06-05T09:15:56.000Z</time></trkpt><trkpt lon="5.738584" lat="51.228748"><ele>27.4</ele><time>2022-06-05T09:15:57.000Z</time></trkpt><trkpt lon="5.73853" lat="51.228683"><ele>27.4</ele><time>2022-06-05T09:15:58.000Z</time></trkpt><trkpt lon="5.738472" lat="51.228613"><ele>27.6</ele><time>2022-06-05T09:15:59.000Z</time></trkpt><trkpt lon="5.738417" lat="51.228549"><ele>27.6</ele><time>2022-06-05T09:16:00.000Z</time></trkpt><trkpt lon="5.73836" lat="51.228483"><ele>27.6</ele><time>2022-06-05T09:16:01.000Z</time></trkpt><trkpt lon="5.738306" lat="51.228416"><ele>27.4</ele><time>2022-06-05T09:16:02.000Z</time></trkpt><trkpt lon="5.73825" lat="51.22835"><ele>27.4</ele><time>2022-06-05T09:16:03.000Z</time></trkpt><trkpt lon="5.738197" lat="51.228282"><ele>27.2</ele><time>2022-06-05T09:16:04.000Z</time></trkpt><trkpt lon="5.738143" lat="51.228217"><ele>27.2</ele><time>2022-06-05T09:16:05.000Z</time></trkpt><trkpt lon="5.738088" lat="51.228148"><ele>27.2</ele><time>2022-06-05T09:16:06.000Z</time></trkpt><trkpt lon="5.738037" lat="51.228079"><ele>27.2</ele><time>2022-06-05T09:16:07.000Z</time></trkpt><trkpt lon="5.737983" lat="51.228014"><ele>27.2</ele><time>2022-06-05T09:16:08.000Z</time></trkpt><trkpt lon="5.73793" lat="51.227949"><ele>27.2</ele><time>2022-06-05T09:16:09.000Z</time></trkpt><trkpt lon="5.737879" lat="51.227889"><ele>27.2</ele><time>2022-06-05T09:16:10.000Z</time></trkpt><trkpt lon="5.737823" lat="51.227821"><ele>27.4</ele><time>2022-06-05T09:16:11.000Z</time></trkpt><trkpt lon="5.737769" lat="51.227757"><ele>27.4</ele><time>2022-06-05T09:16:12.000Z</time></trkpt><trkpt lon="5.737714" lat="51.227691"><ele>27.4</ele><time>2022-06-05T09:16:13.000Z</time></trkpt><trkpt lon="5.737661" lat="51.227627"><ele>27.4</ele><time>2022-06-05T09:16:14.000Z</time></trkpt><trkpt lon="5.737605" lat="51.227561"><ele>27.4</ele><time>2022-06-05T09:16:15.000Z</time></trkpt><trkpt lon="5.73755" lat="51.227496"><ele>27.2</ele><time>2022-06-05T09:16:16.000Z</time></trkpt><trkpt lon="5.737496" lat="51.227435"><ele>27.2</ele><time>2022-06-05T09:16:17.000Z</time></trkpt><trkpt lon="5.737444" lat="51.227375"><ele>27.4</ele><time>2022-06-05T09:16:18.000Z</time></trkpt><trkpt lon="5.737383" lat="51.22731"><ele>27.4</ele><time>2022-06-05T09:16:19.000Z</time></trkpt><trkpt lon="5.737327" lat="51.227244"><ele>27.6</ele><time>2022-06-05T09:16:20.000Z</time></trkpt><trkpt lon="5.73727" lat="51.227179"><ele>27.4</ele><time>2022-06-05T09:16:21.000Z</time></trkpt><trkpt lon="5.737215" lat="51.227114"><ele>27.4</ele><time>2022-06-05T09:16:22.000Z</time></trkpt><trkpt lon="5.737161" lat="51.22705"><ele>27.4</ele><time>2022-06-05T09:16:23.000Z</time></trkpt><trkpt lon="5.737104" lat="51.226988"><ele>27.4</ele><time>2022-06-05T09:16:24.000Z</time></trkpt><trkpt lon="5.737047" lat="51.226927"><ele>27.4</ele><time>2022-06-05T09:16:25.000Z</time></trkpt><trkpt lon="5.736992" lat="51.226864"><ele>27.4</ele><time>2022-06-05T09:16:26.000Z</time></trkpt><trkpt lon="5.736935" lat="51.226799"><ele>27.4</ele><time>2022-06-05T09:16:27.000Z</time></trkpt><trkpt lon="5.736876" lat="51.226737"><ele>27.4</ele><time>2022-06-05T09:16:28.000Z</time></trkpt><trkpt lon="5.736819" lat="51.226672"><ele>27.4</ele><time>2022-06-05T09:16:29.000Z</time></trkpt><trkpt lon="5.736762" lat="51.226606"><ele>27.6</ele><time>2022-06-05T09:16:30.000Z</time></trkpt><trkpt lon="5.736705" lat="51.226541"><ele>27.6</ele><time>2022-06-05T09:16:31.000Z</time></trkpt><trkpt lon="5.736647" lat="51.226477"><ele>27.6</ele><time>2022-06-05T09:16:32.000Z</time></trkpt><trkpt lon="5.736591" lat="51.226413"><ele>27.6</ele><time>2022-06-05T09:16:33.000Z</time></trkpt><trkpt lon="5.736534" lat="51.226348"><ele>27.6</ele><time>2022-06-05T09:16:34.000Z</time></trkpt><trkpt lon="5.736475" lat="51.226279"><ele>27.6</ele><time>2022-06-05T09:16:35.000Z</time></trkpt><trkpt lon="5.736418" lat="51.226214"><ele>27.6</ele><time>2022-06-05T09:16:36.000Z</time></trkpt><trkpt lon="5.736361" lat="51.22615"><ele>27.8</ele><time>2022-06-05T09:16:37.000Z</time></trkpt><trkpt lon="5.736302" lat="51.226081"><ele>27.6</ele><time>2022-06-05T09:16:38.000Z</time></trkpt><trkpt lon="5.736245" lat="51.226016"><ele>27.6</ele><time>2022-06-05T09:16:39.000Z</time></trkpt><trkpt lon="5.736185" lat="51.225947"><ele>27.6</ele><time>2022-06-05T09:16:40.000Z</time></trkpt><trkpt lon="5.736127" lat="51.225878"><ele>27.4</ele><time>2022-06-05T09:16:41.000Z</time></trkpt><trkpt lon="5.73607" lat="51.225813"><ele>27.4</ele><time>2022-06-05T09:16:42.000Z</time></trkpt><trkpt lon="5.736012" lat="51.225745"><ele>27.4</ele><time>2022-06-05T09:16:43.000Z</time></trkpt><trkpt lon="5.735957" lat="51.22568"><ele>27.2</ele><time>2022-06-05T09:16:44.000Z</time></trkpt><trkpt lon="5.7359" lat="51.225611"><ele>27.2</ele><time>2022-06-05T09:16:45.000Z</time></trkpt><trkpt lon="5.735842" lat="51.225546"><ele>27.2</ele><time>2022-06-05T09:16:46.000Z</time></trkpt><trkpt lon="5.735782" lat="51.225478"><ele>27</ele><time>2022-06-05T09:16:47.000Z</time></trkpt><trkpt lon="5.735735" lat="51.225426"><ele>27</ele><time>2022-06-05T09:16:48.000Z</time></trkpt><trkpt lon="5.735668" lat="51.225347"><ele>27</ele><time>2022-06-05T09:16:49.000Z</time></trkpt><trkpt lon="5.73561" lat="51.225281"><ele>27</ele><time>2022-06-05T09:16:50.000Z</time></trkpt><trkpt lon="5.73555" lat="51.22521"><ele>26.8</ele><time>2022-06-05T09:16:51.000Z</time></trkpt><trkpt lon="5.735496" lat="51.225146"><ele>26.8</ele><time>2022-06-05T09:16:52.000Z</time></trkpt><trkpt lon="5.73544" lat="51.225084"><ele>26.8</ele><time>2022-06-05T09:16:53.000Z</time></trkpt><trkpt lon="5.73538" lat="51.225017"><ele>26.8</ele><time>2022-06-05T09:16:54.000Z</time></trkpt><trkpt lon="5.73532" lat="51.224951"><ele>26.6</ele><time>2022-06-05T09:16:55.000Z</time></trkpt><trkpt lon="5.735264" lat="51.224886"><ele>26.6</ele><time>2022-06-05T09:16:56.000Z</time></trkpt><trkpt lon="5.735206" lat="51.224822"><ele>26.6</ele><time>2022-06-05T09:16:57.000Z</time></trkpt><trkpt lon="5.735147" lat="51.224757"><ele>26.6</ele><time>2022-06-05T09:16:58.000Z</time></trkpt><trkpt lon="5.73509" lat="51.224695"><ele>26.6</ele><time>2022-06-05T09:16:59.000Z</time></trkpt><trkpt lon="5.735035" lat="51.224633"><ele>26.6</ele><time>2022-06-05T09:17:00.000Z</time></trkpt><trkpt lon="5.734979" lat="51.22457"><ele>26.6</ele><time>2022-06-05T09:17:01.000Z</time></trkpt><trkpt lon="5.734922" lat="51.224509"><ele>26.6</ele><time>2022-06-05T09:17:02.000Z</time></trkpt><trkpt lon="5.734862" lat="51.224447"><ele>26.6</ele><time>2022-06-05T09:17:03.000Z</time></trkpt><trkpt lon="5.734801" lat="51.224387"><ele>26.6</ele><time>2022-06-05T09:17:04.000Z</time></trkpt><trkpt lon="5.734739" lat="51.224329"><ele>26.6</ele><time>2022-06-05T09:17:05.000Z</time></trkpt><trkpt lon="5.734677" lat="51.224277"><ele>26.8</ele><time>2022-06-05T09:17:06.000Z</time></trkpt><trkpt lon="5.734611" lat="51.224222"><ele>26.8</ele><time>2022-06-05T09:17:07.000Z</time></trkpt><trkpt lon="5.734544" lat="51.224176"><ele>26.8</ele><time>2022-06-05T09:17:08.000Z</time></trkpt><trkpt lon="5.734485" lat="51.224126"><ele>27</ele><time>2022-06-05T09:17:09.000Z</time></trkpt><trkpt lon="5.734442" lat="51.22407"><ele>27</ele><time>2022-06-05T09:17:10.000Z</time></trkpt><trkpt lon="5.734424" lat="51.224009"><ele>27</ele><time>2022-06-05T09:17:11.000Z</time></trkpt><trkpt lon="5.734439" lat="51.223944"><ele>27</ele><time>2022-06-05T09:17:12.000Z</time></trkpt><trkpt lon="5.73447" lat="51.223882"><ele>26.8</ele><time>2022-06-05T09:17:13.000Z</time></trkpt><trkpt lon="5.734513" lat="51.223815"><ele>26.8</ele><time>2022-06-05T09:17:14.000Z</time></trkpt><trkpt lon="5.734559" lat="51.22375"><ele>26.8</ele><time>2022-06-05T09:17:15.000Z</time></trkpt><trkpt lon="5.734608" lat="51.223685"><ele>26.8</ele><time>2022-06-05T09:17:16.000Z</time></trkpt><trkpt lon="5.734654" lat="51.223624"><ele>26.8</ele><time>2022-06-05T09:17:17.000Z</time></trkpt><trkpt lon="5.734705" lat="51.223556"><ele>26.8</ele><time>2022-06-05T09:17:18.000Z</time></trkpt><trkpt lon="5.734751" lat="51.223487"><ele>26.8</ele><time>2022-06-05T09:17:19.000Z</time></trkpt><trkpt lon="5.734799" lat="51.223423"><ele>26.8</ele><time>2022-06-05T09:17:20.000Z</time></trkpt><trkpt lon="5.734847" lat="51.223356"><ele>26.8</ele><time>2022-06-05T09:17:21.000Z</time></trkpt><trkpt lon="5.734893" lat="51.223292"><ele>26.8</ele><time>2022-06-05T09:17:22.000Z</time></trkpt><trkpt lon="5.734941" lat="51.223228"><ele>26.8</ele><time>2022-06-05T09:17:23.000Z</time></trkpt><trkpt lon="5.734988" lat="51.223162"><ele>26.8</ele><time>2022-06-05T09:17:24.000Z</time></trkpt><trkpt lon="5.735035" lat="51.223098"><ele>26.8</ele><time>2022-06-05T09:17:25.000Z</time></trkpt><trkpt lon="5.735083" lat="51.223033"><ele>26.8</ele><time>2022-06-05T09:17:26.000Z</time></trkpt><trkpt lon="5.735129" lat="51.222969"><ele>26.8</ele><time>2022-06-05T09:17:27.000Z</time></trkpt><trkpt lon="5.735172" lat="51.222908"><ele>26.8</ele><time>2022-06-05T09:17:28.000Z</time></trkpt><trkpt lon="5.73522" lat="51.222838"><ele>27</ele><time>2022-06-05T09:17:29.000Z</time></trkpt><trkpt lon="5.735268" lat="51.222774"><ele>27</ele><time>2022-06-05T09:17:30.000Z</time></trkpt><trkpt lon="5.735317" lat="51.222713"><ele>27</ele><time>2022-06-05T09:17:31.000Z</time></trkpt><trkpt lon="5.735365" lat="51.222648"><ele>27</ele><time>2022-06-05T09:17:32.000Z</time></trkpt><trkpt lon="5.73541" lat="51.222586"><ele>27.2</ele><time>2022-06-05T09:17:33.000Z</time></trkpt><trkpt lon="5.735449" lat="51.222526"><ele>27</ele><time>2022-06-05T09:17:34.000Z</time></trkpt><trkpt lon="5.735491" lat="51.222464"><ele>27</ele><time>2022-06-05T09:17:35.000Z</time></trkpt><trkpt lon="5.735535" lat="51.222399"><ele>27</ele><time>2022-06-05T09:17:36.000Z</time></trkpt><trkpt lon="5.73558" lat="51.222334"><ele>27</ele><time>2022-06-05T09:17:37.000Z</time></trkpt><trkpt lon="5.735624" lat="51.222275"><ele>27.2</ele><time>2022-06-05T09:17:38.000Z</time></trkpt><trkpt lon="5.735667" lat="51.222208"><ele>27.2</ele><time>2022-06-05T09:17:39.000Z</time></trkpt><trkpt lon="5.735708" lat="51.22215"><ele>27.2</ele><time>2022-06-05T09:17:40.000Z</time></trkpt><trkpt lon="5.735759" lat="51.222082"><ele>27.2</ele><time>2022-06-05T09:17:41.000Z</time></trkpt><trkpt lon="5.735806" lat="51.222022"><ele>27.2</ele><time>2022-06-05T09:17:42.000Z</time></trkpt><trkpt lon="5.735854" lat="51.221958"><ele>27.2</ele><time>2022-06-05T09:17:43.000Z</time></trkpt><trkpt lon="5.735903" lat="51.221892"><ele>27</ele><time>2022-06-05T09:17:44.000Z</time></trkpt><trkpt lon="5.735952" lat="51.22183"><ele>27</ele><time>2022-06-05T09:17:45.000Z</time></trkpt><trkpt lon="5.735998" lat="51.221766"><ele>27</ele><time>2022-06-05T09:17:46.000Z</time></trkpt><trkpt lon="5.736046" lat="51.221705"><ele>27</ele><time>2022-06-05T09:17:47.000Z</time></trkpt><trkpt lon="5.736095" lat="51.221645"><ele>27</ele><time>2022-06-05T09:17:48.000Z</time></trkpt><trkpt lon="5.736148" lat="51.221579"><ele>27</ele><time>2022-06-05T09:17:49.000Z</time></trkpt><trkpt lon="5.736197" lat="51.221514"><ele>27.2</ele><time>2022-06-05T09:17:50.000Z</time></trkpt><trkpt lon="5.73625" lat="51.221449"><ele>27.2</ele><time>2022-06-05T09:17:51.000Z</time></trkpt><trkpt lon="5.736306" lat="51.221388"><ele>27.4</ele><time>2022-06-05T09:17:52.000Z</time></trkpt><trkpt lon="5.736362" lat="51.221328"><ele>27.4</ele><time>2022-06-05T09:17:53.000Z</time></trkpt><trkpt lon="5.736418" lat="51.221262"><ele>27.4</ele><time>2022-06-05T09:17:54.000Z</time></trkpt><trkpt lon="5.736478" lat="51.221201"><ele>27.4</ele><time>2022-06-05T09:17:55.000Z</time></trkpt><trkpt lon="5.736541" lat="51.221144"><ele>27.4</ele><time>2022-06-05T09:17:56.000Z</time></trkpt><trkpt lon="5.736608" lat="51.221083"><ele>27.4</ele><time>2022-06-05T09:17:57.000Z</time></trkpt><trkpt lon="5.736675" lat="51.221022"><ele>27.4</ele><time>2022-06-05T09:17:58.000Z</time></trkpt><trkpt lon="5.736745" lat="51.220961"><ele>27.2</ele><time>2022-06-05T09:17:59.000Z</time></trkpt><trkpt lon="5.736809" lat="51.220907"><ele>27.2</ele><time>2022-06-05T09:18:00.000Z</time></trkpt><trkpt lon="5.736881" lat="51.220846"><ele>27.2</ele><time>2022-06-05T09:18:01.000Z</time></trkpt><trkpt lon="5.736949" lat="51.22079"><ele>27.4</ele><time>2022-06-05T09:18:02.000Z</time></trkpt><trkpt lon="5.737019" lat="51.220732"><ele>27.2</ele><time>2022-06-05T09:18:03.000Z</time></trkpt><trkpt lon="5.737088" lat="51.220674"><ele>27.2</ele><time>2022-06-05T09:18:04.000Z</time></trkpt><trkpt lon="5.737156" lat="51.220614"><ele>27.2</ele><time>2022-06-05T09:18:05.000Z</time></trkpt><trkpt lon="5.737214" lat="51.220567"><ele>27.4</ele><time>2022-06-05T09:18:06.000Z</time></trkpt><trkpt lon="5.737286" lat="51.220507"><ele>27.4</ele><time>2022-06-05T09:18:07.000Z</time></trkpt><trkpt lon="5.737356" lat="51.220446"><ele>27.4</ele><time>2022-06-05T09:18:08.000Z</time></trkpt><trkpt lon="5.737418" lat="51.220389"><ele>27.4</ele><time>2022-06-05T09:18:09.000Z</time></trkpt><trkpt lon="5.737482" lat="51.220334"><ele>27.4</ele><time>2022-06-05T09:18:10.000Z</time></trkpt><trkpt lon="5.737553" lat="51.220278"><ele>27.4</ele><time>2022-06-05T09:18:11.000Z</time></trkpt><trkpt lon="5.737618" lat="51.220222"><ele>27.4</ele><time>2022-06-05T09:18:12.000Z</time></trkpt><trkpt lon="5.737687" lat="51.220168"><ele>27.4</ele><time>2022-06-05T09:18:13.000Z</time></trkpt><trkpt lon="5.737754" lat="51.220114"><ele>27.4</ele><time>2022-06-05T09:18:14.000Z</time></trkpt><trkpt lon="5.737816" lat="51.220064"><ele>27.4</ele><time>2022-06-05T09:18:15.000Z</time></trkpt><trkpt lon="5.737875" lat="51.220012"><ele>27.4</ele><time>2022-06-05T09:18:16.000Z</time></trkpt><trkpt lon="5.737943" lat="51.219957"><ele>27.4</ele><time>2022-06-05T09:18:17.000Z</time></trkpt><trkpt lon="5.738003" lat="51.219902"><ele>27.4</ele><time>2022-06-05T09:18:18.000Z</time></trkpt><trkpt lon="5.738064" lat="51.219847"><ele>27.4</ele><time>2022-06-05T09:18:19.000Z</time></trkpt><trkpt lon="5.738119" lat="51.219793"><ele>27.4</ele><time>2022-06-05T09:18:20.000Z</time></trkpt><trkpt lon="5.73818" lat="51.219732"><ele>27.4</ele><time>2022-06-05T09:18:21.000Z</time></trkpt><trkpt lon="5.73824" lat="51.219676"><ele>27.2</ele><time>2022-06-05T09:18:22.000Z</time></trkpt><trkpt lon="5.738304" lat="51.219622"><ele>27.2</ele><time>2022-06-05T09:18:23.000Z</time></trkpt><trkpt lon="5.738371" lat="51.219565"><ele>27</ele><time>2022-06-05T09:18:24.000Z</time></trkpt><trkpt lon="5.73844" lat="51.219509"><ele>27.2</ele><time>2022-06-05T09:18:25.000Z</time></trkpt><trkpt lon="5.738514" lat="51.219454"><ele>27.2</ele><time>2022-06-05T09:18:26.000Z</time></trkpt><trkpt lon="5.73858" lat="51.219396"><ele>27.2</ele><time>2022-06-05T09:18:27.000Z</time></trkpt><trkpt lon="5.738649" lat="51.219337"><ele>27.2</ele><time>2022-06-05T09:18:28.000Z</time></trkpt><trkpt lon="5.738716" lat="51.219281"><ele>27.4</ele><time>2022-06-05T09:18:29.000Z</time></trkpt><trkpt lon="5.738787" lat="51.219221"><ele>27.2</ele><time>2022-06-05T09:18:30.000Z</time></trkpt><trkpt lon="5.738859" lat="51.219161"><ele>27.2</ele><time>2022-06-05T09:18:31.000Z</time></trkpt><trkpt lon="5.738929" lat="51.219107"><ele>27</ele><time>2022-06-05T09:18:32.000Z</time></trkpt><trkpt lon="5.738996" lat="51.21905"><ele>27</ele><time>2022-06-05T09:18:33.000Z</time></trkpt><trkpt lon="5.739064" lat="51.218989"><ele>27</ele><time>2022-06-05T09:18:34.000Z</time></trkpt><trkpt lon="5.739121" lat="51.21894"><ele>26.8</ele><time>2022-06-05T09:18:35.000Z</time></trkpt><trkpt lon="5.7392" lat="51.218871"><ele>26.8</ele><time>2022-06-05T09:18:36.000Z</time></trkpt><trkpt lon="5.739269" lat="51.218816"><ele>26.6</ele><time>2022-06-05T09:18:37.000Z</time></trkpt><trkpt lon="5.739342" lat="51.218756"><ele>26.4</ele><time>2022-06-05T09:18:38.000Z</time></trkpt><trkpt lon="5.739411" lat="51.218698"><ele>26.6</ele><time>2022-06-05T09:18:39.000Z</time></trkpt><trkpt lon="5.739478" lat="51.218642"><ele>26.6</ele><time>2022-06-05T09:18:40.000Z</time></trkpt><trkpt lon="5.739547" lat="51.218585"><ele>26.6</ele><time>2022-06-05T09:18:41.000Z</time></trkpt><trkpt lon="5.739614" lat="51.218528"><ele>26.6</ele><time>2022-06-05T09:18:42.000Z</time></trkpt><trkpt lon="5.739683" lat="51.218473"><ele>26.6</ele><time>2022-06-05T09:18:43.000Z</time></trkpt><trkpt lon="5.739749" lat="51.218421"><ele>26.6</ele><time>2022-06-05T09:18:44.000Z</time></trkpt><trkpt lon="5.739816" lat="51.218367"><ele>26.6</ele><time>2022-06-05T09:18:45.000Z</time></trkpt><trkpt lon="5.739875" lat="51.218313"><ele>26.4</ele><time>2022-06-05T09:18:46.000Z</time></trkpt><trkpt lon="5.739919" lat="51.218265"><ele>26.4</ele><time>2022-06-05T09:18:47.000Z</time></trkpt><trkpt lon="5.739949" lat="51.218206"><ele>26.4</ele><time>2022-06-05T09:18:48.000Z</time></trkpt><trkpt lon="5.739952" lat="51.218151"><ele>26.4</ele><time>2022-06-05T09:18:49.000Z</time></trkpt><trkpt lon="5.739934" lat="51.218096"><ele>26.4</ele><time>2022-06-05T09:18:50.000Z</time></trkpt><trkpt lon="5.739899" lat="51.218037"><ele>26.4</ele><time>2022-06-05T09:18:51.000Z</time></trkpt><trkpt lon="5.739855" lat="51.217971"><ele>26.4</ele><time>2022-06-05T09:18:52.000Z</time></trkpt><trkpt lon="5.73981" lat="51.217909"><ele>26.4</ele><time>2022-06-05T09:18:53.000Z</time></trkpt><trkpt lon="5.739764" lat="51.217852"><ele>26.4</ele><time>2022-06-05T09:18:54.000Z</time></trkpt><trkpt lon="5.739721" lat="51.217792"><ele>26.4</ele><time>2022-06-05T09:18:55.000Z</time></trkpt><trkpt lon="5.739676" lat="51.217726"><ele>26.2</ele><time>2022-06-05T09:18:56.000Z</time></trkpt><trkpt lon="5.739632" lat="51.217665"><ele>26.4</ele><time>2022-06-05T09:18:57.000Z</time></trkpt><trkpt lon="5.739583" lat="51.217598"><ele>26.6</ele><time>2022-06-05T09:18:58.000Z</time></trkpt><trkpt lon="5.73954" lat="51.217529"><ele>26.6</ele><time>2022-06-05T09:18:59.000Z</time></trkpt><trkpt lon="5.739501" lat="51.217464"><ele>26.6</ele><time>2022-06-05T09:19:00.000Z</time></trkpt><trkpt lon="5.739458" lat="51.217394"><ele>26.8</ele><time>2022-06-05T09:19:01.000Z</time></trkpt><trkpt lon="5.73942" lat="51.217326"><ele>26.8</ele><time>2022-06-05T09:19:02.000Z</time></trkpt><trkpt lon="5.739381" lat="51.217261"><ele>26.8</ele><time>2022-06-05T09:19:03.000Z</time></trkpt><trkpt lon="5.739343" lat="51.217188"><ele>27</ele><time>2022-06-05T09:19:04.000Z</time></trkpt><trkpt lon="5.739308" lat="51.21712"><ele>27</ele><time>2022-06-05T09:19:05.000Z</time></trkpt><trkpt lon="5.739275" lat="51.217051"><ele>27</ele><time>2022-06-05T09:19:06.000Z</time></trkpt><trkpt lon="5.739239" lat="51.216984"><ele>27</ele><time>2022-06-05T09:19:07.000Z</time></trkpt><trkpt lon="5.739202" lat="51.216915"><ele>27</ele><time>2022-06-05T09:19:08.000Z</time></trkpt><trkpt lon="5.739167" lat="51.216848"><ele>27</ele><time>2022-06-05T09:19:09.000Z</time></trkpt><trkpt lon="5.739133" lat="51.21678"><ele>26.8</ele><time>2022-06-05T09:19:10.000Z</time></trkpt><trkpt lon="5.739098" lat="51.216711"><ele>27</ele><time>2022-06-05T09:19:11.000Z</time></trkpt><trkpt lon="5.73906" lat="51.21664"><ele>27</ele><time>2022-06-05T09:19:12.000Z</time></trkpt><trkpt lon="5.739022" lat="51.216576"><ele>27</ele><time>2022-06-05T09:19:13.000Z</time></trkpt><trkpt lon="5.738984" lat="51.216502"><ele>27</ele><time>2022-06-05T09:19:14.000Z</time></trkpt><trkpt lon="5.738947" lat="51.216433"><ele>27</ele><time>2022-06-05T09:19:15.000Z</time></trkpt><trkpt lon="5.738916" lat="51.216361"><ele>27</ele><time>2022-06-05T09:19:16.000Z</time></trkpt><trkpt lon="5.738881" lat="51.216298"><ele>27</ele><time>2022-06-05T09:19:17.000Z</time></trkpt><trkpt lon="5.738842" lat="51.216227"><ele>27</ele><time>2022-06-05T09:19:18.000Z</time></trkpt><trkpt lon="5.738804" lat="51.21616"><ele>27</ele><time>2022-06-05T09:19:19.000Z</time></trkpt><trkpt lon="5.738765" lat="51.216094"><ele>27</ele><time>2022-06-05T09:19:20.000Z</time></trkpt><trkpt lon="5.738728" lat="51.216024"><ele>27</ele><time>2022-06-05T09:19:21.000Z</time></trkpt><trkpt lon="5.738691" lat="51.215956"><ele>27</ele><time>2022-06-05T09:19:22.000Z</time></trkpt><trkpt lon="5.738663" lat="51.215894"><ele>27.2</ele><time>2022-06-05T09:19:23.000Z</time></trkpt><trkpt lon="5.738631" lat="51.215819"><ele>27.2</ele><time>2022-06-05T09:19:24.000Z</time></trkpt><trkpt lon="5.738606" lat="51.215746"><ele>27.2</ele><time>2022-06-05T09:19:25.000Z</time></trkpt><trkpt lon="5.738585" lat="51.215677"><ele>27.2</ele><time>2022-06-05T09:19:26.000Z</time></trkpt><trkpt lon="5.738566" lat="51.215602"><ele>27.2</ele><time>2022-06-05T09:19:27.000Z</time></trkpt><trkpt lon="5.738548" lat="51.215529"><ele>27.2</ele><time>2022-06-05T09:19:28.000Z</time></trkpt><trkpt lon="5.738532" lat="51.215461"><ele>27.2</ele><time>2022-06-05T09:19:29.000Z</time></trkpt><trkpt lon="5.738519" lat="51.215392"><ele>27.2</ele><time>2022-06-05T09:19:30.000Z</time></trkpt><trkpt lon="5.738504" lat="51.215326"><ele>27.2</ele><time>2022-06-05T09:19:31.000Z</time></trkpt><trkpt lon="5.738487" lat="51.215254"><ele>27.4</ele><time>2022-06-05T09:19:32.000Z</time></trkpt><trkpt lon="5.738469" lat="51.215186"><ele>27.2</ele><time>2022-06-05T09:19:33.000Z</time></trkpt><trkpt lon="5.738452" lat="51.215117"><ele>27.2</ele><time>2022-06-05T09:19:34.000Z</time></trkpt><trkpt lon="5.738436" lat="51.215051"><ele>27.4</ele><time>2022-06-05T09:19:35.000Z</time></trkpt><trkpt lon="5.738422" lat="51.21498"><ele>27.4</ele><time>2022-06-05T09:19:36.000Z</time></trkpt><trkpt lon="5.738408" lat="51.21491"><ele>27.4</ele><time>2022-06-05T09:19:37.000Z</time></trkpt><trkpt lon="5.738391" lat="51.214839"><ele>27.4</ele><time>2022-06-05T09:19:38.000Z</time></trkpt><trkpt lon="5.738372" lat="51.214766"><ele>27.4</ele><time>2022-06-05T09:19:39.000Z</time></trkpt><trkpt lon="5.738349" lat="51.214698"><ele>27.4</ele><time>2022-06-05T09:19:40.000Z</time></trkpt><trkpt lon="5.738326" lat="51.214626"><ele>27.4</ele><time>2022-06-05T09:19:41.000Z</time></trkpt><trkpt lon="5.738308" lat="51.214556"><ele>27.2</ele><time>2022-06-05T09:19:42.000Z</time></trkpt><trkpt lon="5.738286" lat="51.214488"><ele>27.2</ele><time>2022-06-05T09:19:43.000Z</time></trkpt><trkpt lon="5.738254" lat="51.214419"><ele>27.4</ele><time>2022-06-05T09:19:44.000Z</time></trkpt><trkpt lon="5.738213" lat="51.21435"><ele>27.4</ele><time>2022-06-05T09:19:45.000Z</time></trkpt><trkpt lon="5.738159" lat="51.214289"><ele>27.4</ele><time>2022-06-05T09:19:46.000Z</time></trkpt><trkpt lon="5.738094" lat="51.214229"><ele>27.2</ele><time>2022-06-05T09:19:47.000Z</time></trkpt><trkpt lon="5.738026" lat="51.214179"><ele>27.2</ele><time>2022-06-05T09:19:48.000Z</time></trkpt><trkpt lon="5.737944" lat="51.214128"><ele>27.2</ele><time>2022-06-05T09:19:49.000Z</time></trkpt><trkpt lon="5.737864" lat="51.214083"><ele>27.2</ele><time>2022-06-05T09:19:50.000Z</time></trkpt><trkpt lon="5.737779" lat="51.214037"><ele>27.2</ele><time>2022-06-05T09:19:51.000Z</time></trkpt><trkpt lon="5.737698" lat="51.214001"><ele>27.4</ele><time>2022-06-05T09:19:52.000Z</time></trkpt><trkpt lon="5.737607" lat="51.213957"><ele>27.4</ele><time>2022-06-05T09:19:53.000Z</time></trkpt><trkpt lon="5.737522" lat="51.213919"><ele>27.4</ele><time>2022-06-05T09:19:54.000Z</time></trkpt><trkpt lon="5.737432" lat="51.213876"><ele>27.4</ele><time>2022-06-05T09:19:55.000Z</time></trkpt><trkpt lon="5.737346" lat="51.213835"><ele>27.6</ele><time>2022-06-05T09:19:56.000Z</time></trkpt><trkpt lon="5.737261" lat="51.213792"><ele>27.6</ele><time>2022-06-05T09:19:57.000Z</time></trkpt><trkpt lon="5.737184" lat="51.213754"><ele>27.6</ele><time>2022-06-05T09:19:58.000Z</time></trkpt><trkpt lon="5.737107" lat="51.213709"><ele>27.6</ele><time>2022-06-05T09:19:59.000Z</time></trkpt><trkpt lon="5.737032" lat="51.213667"><ele>27.6</ele><time>2022-06-05T09:20:00.000Z</time></trkpt><trkpt lon="5.736958" lat="51.213618"><ele>27.6</ele><time>2022-06-05T09:20:01.000Z</time></trkpt><trkpt lon="5.736886" lat="51.213565"><ele>27.6</ele><time>2022-06-05T09:20:02.000Z</time></trkpt><trkpt lon="5.736819" lat="51.213514"><ele>27.6</ele><time>2022-06-05T09:20:03.000Z</time></trkpt><trkpt lon="5.736762" lat="51.213461"><ele>27.6</ele><time>2022-06-05T09:20:04.000Z</time></trkpt><trkpt lon="5.736706" lat="51.213408"><ele>27.6</ele><time>2022-06-05T09:20:05.000Z</time></trkpt><trkpt lon="5.736652" lat="51.21335"><ele>27.8</ele><time>2022-06-05T09:20:06.000Z</time></trkpt><trkpt lon="5.736592" lat="51.213293"><ele>27.6</ele><time>2022-06-05T09:20:07.000Z</time></trkpt><trkpt lon="5.736531" lat="51.213235"><ele>27.6</ele><time>2022-06-05T09:20:08.000Z</time></trkpt><trkpt lon="5.736483" lat="51.213185"><ele>27.4</ele><time>2022-06-05T09:20:09.000Z</time></trkpt><trkpt lon="5.736429" lat="51.213118"><ele>27.4</ele><time>2022-06-05T09:20:10.000Z</time></trkpt><trkpt lon="5.736376" lat="51.21306"><ele>27.4</ele><time>2022-06-05T09:20:11.000Z</time></trkpt><trkpt lon="5.736333" lat="51.213003"><ele>27.4</ele><time>2022-06-05T09:20:12.000Z</time></trkpt><trkpt lon="5.736303" lat="51.212954"><ele>27.6</ele><time>2022-06-05T09:20:13.000Z</time></trkpt><trkpt lon="5.736284" lat="51.212911"><ele>27.6</ele><time>2022-06-05T09:20:14.000Z</time></trkpt><trkpt lon="5.736275" lat="51.212869"><ele>27.6</ele><time>2022-06-05T09:20:15.000Z</time></trkpt><trkpt lon="5.736285" lat="51.212834"><ele>27.6</ele><time>2022-06-05T09:20:16.000Z</time></trkpt><trkpt lon="5.73631" lat="51.21279"><ele>27.6</ele><time>2022-06-05T09:20:17.000Z</time></trkpt><trkpt lon="5.736335" lat="51.212753"><ele>27.4</ele><time>2022-06-05T09:20:18.000Z</time></trkpt><trkpt lon="5.736362" lat="51.212702"><ele>27.2</ele><time>2022-06-05T09:20:19.000Z</time></trkpt><trkpt lon="5.736381" lat="51.212645"><ele>27.2</ele><time>2022-06-05T09:20:20.000Z</time></trkpt><trkpt lon="5.736398" lat="51.21258"><ele>27.2</ele><time>2022-06-05T09:20:21.000Z</time></trkpt><trkpt lon="5.736413" lat="51.212515"><ele>27</ele><time>2022-06-05T09:20:22.000Z</time></trkpt><trkpt lon="5.736428" lat="51.212446"><ele>27</ele><time>2022-06-05T09:20:23.000Z</time></trkpt><trkpt lon="5.73644" lat="51.212381"><ele>26.8</ele><time>2022-06-05T09:20:24.000Z</time></trkpt><trkpt lon="5.736453" lat="51.212321"><ele>26.8</ele><time>2022-06-05T09:20:25.000Z</time></trkpt><trkpt lon="5.736461" lat="51.212256"><ele>26.8</ele><time>2022-06-05T09:20:26.000Z</time></trkpt><trkpt lon="5.736471" lat="51.212194"><ele>27</ele><time>2022-06-05T09:20:27.000Z</time></trkpt><trkpt lon="5.73647" lat="51.212134"><ele>27</ele><time>2022-06-05T09:20:28.000Z</time></trkpt><trkpt lon="5.736449" lat="51.212069"><ele>27.2</ele><time>2022-06-05T09:20:29.000Z</time></trkpt><trkpt lon="5.736412" lat="51.212008"><ele>27.2</ele><time>2022-06-05T09:20:30.000Z</time></trkpt><trkpt lon="5.736371" lat="51.211946"><ele>27.2</ele><time>2022-06-05T09:20:31.000Z</time></trkpt><trkpt lon="5.73633" lat="51.211886"><ele>27.2</ele><time>2022-06-05T09:20:32.000Z</time></trkpt><trkpt lon="5.736285" lat="51.211825"><ele>27.2</ele><time>2022-06-05T09:20:33.000Z</time></trkpt><trkpt lon="5.736237" lat="51.21176"><ele>27.2</ele><time>2022-06-05T09:20:34.000Z</time></trkpt><trkpt lon="5.736188" lat="51.211695"><ele>27</ele><time>2022-06-05T09:20:35.000Z</time></trkpt><trkpt lon="5.736141" lat="51.211634"><ele>27.2</ele><time>2022-06-05T09:20:36.000Z</time></trkpt><trkpt lon="5.73609" lat="51.211569"><ele>27.2</ele><time>2022-06-05T09:20:37.000Z</time></trkpt><trkpt lon="5.736037" lat="51.211508"><ele>27</ele><time>2022-06-05T09:20:38.000Z</time></trkpt><trkpt lon="5.735986" lat="51.211452"><ele>27</ele><time>2022-06-05T09:20:39.000Z</time></trkpt><trkpt lon="5.735932" lat="51.211394"><ele>27</ele><time>2022-06-05T09:20:40.000Z</time></trkpt><trkpt lon="5.73588" lat="51.211335"><ele>27</ele><time>2022-06-05T09:20:41.000Z</time></trkpt><trkpt lon="5.735819" lat="51.211276"><ele>27</ele><time>2022-06-05T09:20:42.000Z</time></trkpt><trkpt lon="5.735762" lat="51.21122"><ele>27</ele><time>2022-06-05T09:20:43.000Z</time></trkpt><trkpt lon="5.735701" lat="51.211158"><ele>27.2</ele><time>2022-06-05T09:20:44.000Z</time></trkpt><trkpt lon="5.73564" lat="51.2111"><ele>27.2</ele><time>2022-06-05T09:20:45.000Z</time></trkpt><trkpt lon="5.735584" lat="51.211044"><ele>27.4</ele><time>2022-06-05T09:20:46.000Z</time></trkpt><trkpt lon="5.735525" lat="51.210987"><ele>27.4</ele><time>2022-06-05T09:20:47.000Z</time></trkpt><trkpt lon="5.735467" lat="51.210924"><ele>27.4</ele><time>2022-06-05T09:20:48.000Z</time></trkpt><trkpt lon="5.735416" lat="51.210861"><ele>27.4</ele><time>2022-06-05T09:20:49.000Z</time></trkpt><trkpt lon="5.735368" lat="51.210797"><ele>27.4</ele><time>2022-06-05T09:20:50.000Z</time></trkpt><trkpt lon="5.735318" lat="51.210733"><ele>27.4</ele><time>2022-06-05T09:20:51.000Z</time></trkpt><trkpt lon="5.735275" lat="51.210669"><ele>27.2</ele><time>2022-06-05T09:20:52.000Z</time></trkpt><trkpt lon="5.73523" lat="51.210611"><ele>27.2</ele><time>2022-06-05T09:20:53.000Z</time></trkpt><trkpt lon="5.735183" lat="51.21055"><ele>27.2</ele><time>2022-06-05T09:20:54.000Z</time></trkpt><trkpt lon="5.735139" lat="51.210494"><ele>27.2</ele><time>2022-06-05T09:20:55.000Z</time></trkpt><trkpt lon="5.735093" lat="51.210433"><ele>27.2</ele><time>2022-06-05T09:20:56.000Z</time></trkpt><trkpt lon="5.735046" lat="51.21037"><ele>27.2</ele><time>2022-06-05T09:20:57.000Z</time></trkpt><trkpt lon="5.734993" lat="51.210303"><ele>27.2</ele><time>2022-06-05T09:20:58.000Z</time></trkpt><trkpt lon="5.734942" lat="51.210238"><ele>27.4</ele><time>2022-06-05T09:20:59.000Z</time></trkpt><trkpt lon="5.73489" lat="51.210169"><ele>27.4</ele><time>2022-06-05T09:21:00.000Z</time></trkpt><trkpt lon="5.734841" lat="51.210107"><ele>27.4</ele><time>2022-06-05T09:21:01.000Z</time></trkpt><trkpt lon="5.734787" lat="51.21004"><ele>27.6</ele><time>2022-06-05T09:21:02.000Z</time></trkpt><trkpt lon="5.734734" lat="51.209972"><ele>27.6</ele><time>2022-06-05T09:21:03.000Z</time></trkpt><trkpt lon="5.734679" lat="51.209905"><ele>27.6</ele><time>2022-06-05T09:21:04.000Z</time></trkpt><trkpt lon="5.734621" lat="51.209834"><ele>27.6</ele><time>2022-06-05T09:21:05.000Z</time></trkpt><trkpt lon="5.734565" lat="51.209765"><ele>27.6</ele><time>2022-06-05T09:21:06.000Z</time></trkpt><trkpt lon="5.734511" lat="51.209698"><ele>27.6</ele><time>2022-06-05T09:21:07.000Z</time></trkpt><trkpt lon="5.734456" lat="51.209629"><ele>27.6</ele><time>2022-06-05T09:21:08.000Z</time></trkpt><trkpt lon="5.734405" lat="51.209567"><ele>27.6</ele><time>2022-06-05T09:21:09.000Z</time></trkpt><trkpt lon="5.73435" lat="51.209498"><ele>27.6</ele><time>2022-06-05T09:21:10.000Z</time></trkpt><trkpt lon="5.7343" lat="51.209434"><ele>27.6</ele><time>2022-06-05T09:21:11.000Z</time></trkpt><trkpt lon="5.734246" lat="51.209373"><ele>27.6</ele><time>2022-06-05T09:21:12.000Z</time></trkpt><trkpt lon="5.734195" lat="51.209311"><ele>27.6</ele><time>2022-06-05T09:21:13.000Z</time></trkpt><trkpt lon="5.734149" lat="51.209262"><ele>27.8</ele><time>2022-06-05T09:21:14.000Z</time></trkpt><trkpt lon="5.734098" lat="51.209205"><ele>27.8</ele><time>2022-06-05T09:21:15.000Z</time></trkpt><trkpt lon="5.734047" lat="51.209158"><ele>27.8</ele><time>2022-06-05T09:21:16.000Z</time></trkpt><trkpt lon="5.734012" lat="51.209109"><ele>27.8</ele><time>2022-06-05T09:21:17.000Z</time></trkpt><trkpt lon="5.733998" lat="51.20906"><ele>27.8</ele><time>2022-06-05T09:21:18.000Z</time></trkpt><trkpt lon="5.734018" lat="51.209009"><ele>27.6</ele><time>2022-06-05T09:21:19.000Z</time></trkpt><trkpt lon="5.734062" lat="51.208961"><ele>27.6</ele><time>2022-06-05T09:21:20.000Z</time></trkpt><trkpt lon="5.734115" lat="51.208906"><ele>27.6</ele><time>2022-06-05T09:21:21.000Z</time></trkpt><trkpt lon="5.734157" lat="51.208851"><ele>27.4</ele><time>2022-06-05T09:21:22.000Z</time></trkpt><trkpt lon="5.734181" lat="51.208792"><ele>27.6</ele><time>2022-06-05T09:21:23.000Z</time></trkpt><trkpt lon="5.734183" lat="51.208729"><ele>27.6</ele><time>2022-06-05T09:21:24.000Z</time></trkpt><trkpt lon="5.734171" lat="51.208659"><ele>27.4</ele><time>2022-06-05T09:21:25.000Z</time></trkpt><trkpt lon="5.734152" lat="51.208579"><ele>27.4</ele><time>2022-06-05T09:21:26.000Z</time></trkpt><trkpt lon="5.734134" lat="51.208495"><ele>27.4</ele><time>2022-06-05T09:21:27.000Z</time></trkpt><trkpt lon="5.734116" lat="51.20842"><ele>27.4</ele><time>2022-06-05T09:21:28.000Z</time></trkpt><trkpt lon="5.734097" lat="51.208344"><ele>27.4</ele><time>2022-06-05T09:21:29.000Z</time></trkpt><trkpt lon="5.734077" lat="51.208262"><ele>27.6</ele><time>2022-06-05T09:21:30.000Z</time></trkpt><trkpt lon="5.734059" lat="51.208188"><ele>27.4</ele><time>2022-06-05T09:21:31.000Z</time></trkpt><trkpt lon="5.734041" lat="51.208118"><ele>27.4</ele><time>2022-06-05T09:21:32.000Z</time></trkpt><trkpt lon="5.734023" lat="51.208046"><ele>27.4</ele><time>2022-06-05T09:21:33.000Z</time></trkpt><trkpt lon="5.734007" lat="51.207972"><ele>27.6</ele><time>2022-06-05T09:21:34.000Z</time></trkpt><trkpt lon="5.733991" lat="51.207904"><ele>27.6</ele><time>2022-06-05T09:21:35.000Z</time></trkpt><trkpt lon="5.733973" lat="51.207836"><ele>27.4</ele><time>2022-06-05T09:21:36.000Z</time></trkpt><trkpt lon="5.733958" lat="51.207777"><ele>27.2</ele><time>2022-06-05T09:21:37.000Z</time></trkpt><trkpt lon="5.733935" lat="51.207699"><ele>27.2</ele><time>2022-06-05T09:21:38.000Z</time></trkpt><trkpt lon="5.733911" lat="51.207628"><ele>27.2</ele><time>2022-06-05T09:21:39.000Z</time></trkpt><trkpt lon="5.733893" lat="51.207567"><ele>27.2</ele><time>2022-06-05T09:21:40.000Z</time></trkpt><trkpt lon="5.733874" lat="51.207492"><ele>27.2</ele><time>2022-06-05T09:21:41.000Z</time></trkpt><trkpt lon="5.733853" lat="51.207425"><ele>27.4</ele><time>2022-06-05T09:21:42.000Z</time></trkpt><trkpt lon="5.733833" lat="51.207356"><ele>27.4</ele><time>2022-06-05T09:21:43.000Z</time></trkpt><trkpt lon="5.733813" lat="51.207285"><ele>27.4</ele><time>2022-06-05T09:21:44.000Z</time></trkpt><trkpt lon="5.733791" lat="51.207214"><ele>27.4</ele><time>2022-06-05T09:21:45.000Z</time></trkpt><trkpt lon="5.733766" lat="51.207145"><ele>27.4</ele><time>2022-06-05T09:21:46.000Z</time></trkpt><trkpt lon="5.733736" lat="51.207076"><ele>27.4</ele><time>2022-06-05T09:21:47.000Z</time></trkpt><trkpt lon="5.733698" lat="51.207011"><ele>27.4</ele><time>2022-06-05T09:21:48.000Z</time></trkpt><trkpt lon="5.733656" lat="51.206942"><ele>27.4</ele><time>2022-06-05T09:21:49.000Z</time></trkpt><trkpt lon="5.733612" lat="51.20688"><ele>27.6</ele><time>2022-06-05T09:21:50.000Z</time></trkpt><trkpt lon="5.733558" lat="51.206817"><ele>27.4</ele><time>2022-06-05T09:21:51.000Z</time></trkpt><trkpt lon="5.733502" lat="51.206755"><ele>27.4</ele><time>2022-06-05T09:21:52.000Z</time></trkpt><trkpt lon="5.733446" lat="51.206695"><ele>27.4</ele><time>2022-06-05T09:21:53.000Z</time></trkpt><trkpt lon="5.733388" lat="51.206637"><ele>27.4</ele><time>2022-06-05T09:21:54.000Z</time></trkpt><trkpt lon="5.733335" lat="51.206583"><ele>27.4</ele><time>2022-06-05T09:21:55.000Z</time></trkpt><trkpt lon="5.733276" lat="51.206519"><ele>27.4</ele><time>2022-06-05T09:21:56.000Z</time></trkpt><trkpt lon="5.73322" lat="51.206459"><ele>27.4</ele><time>2022-06-05T09:21:57.000Z</time></trkpt><trkpt lon="5.73316" lat="51.206394"><ele>27.4</ele><time>2022-06-05T09:21:58.000Z</time></trkpt><trkpt lon="5.733095" lat="51.206328"><ele>27.4</ele><time>2022-06-05T09:21:59.000Z</time></trkpt><trkpt lon="5.733032" lat="51.206267"><ele>27.4</ele><time>2022-06-05T09:22:00.000Z</time></trkpt><trkpt lon="5.732969" lat="51.206207"><ele>27.6</ele><time>2022-06-05T09:22:01.000Z</time></trkpt><trkpt lon="5.732903" lat="51.206146"><ele>27.8</ele><time>2022-06-05T09:22:02.000Z</time></trkpt><trkpt lon="5.732842" lat="51.206084"><ele>27.8</ele><time>2022-06-05T09:22:03.000Z</time></trkpt><trkpt lon="5.732788" lat="51.206027"><ele>27.8</ele><time>2022-06-05T09:22:04.000Z</time></trkpt><trkpt lon="5.732715" lat="51.205959"><ele>27.8</ele><time>2022-06-05T09:22:05.000Z</time></trkpt><trkpt lon="5.732655" lat="51.205907"><ele>27.8</ele><time>2022-06-05T09:22:06.000Z</time></trkpt><trkpt lon="5.732582" lat="51.205836"><ele>27.8</ele><time>2022-06-05T09:22:07.000Z</time></trkpt><trkpt lon="5.732519" lat="51.205776"><ele>27.8</ele><time>2022-06-05T09:22:08.000Z</time></trkpt><trkpt lon="5.732451" lat="51.205714"><ele>27.8</ele><time>2022-06-05T09:22:09.000Z</time></trkpt><trkpt lon="5.732385" lat="51.205652"><ele>27.8</ele><time>2022-06-05T09:22:10.000Z</time></trkpt><trkpt lon="5.73232" lat="51.205592"><ele>27.8</ele><time>2022-06-05T09:22:11.000Z</time></trkpt><trkpt lon="5.732252" lat="51.205528"><ele>27.8</ele><time>2022-06-05T09:22:12.000Z</time></trkpt><trkpt lon="5.732186" lat="51.205466"><ele>27.8</ele><time>2022-06-05T09:22:13.000Z</time></trkpt><trkpt lon="5.73212" lat="51.205404"><ele>27.8</ele><time>2022-06-05T09:22:14.000Z</time></trkpt><trkpt lon="5.732048" lat="51.205344"><ele>27.8</ele><time>2022-06-05T09:22:15.000Z</time></trkpt><trkpt lon="5.731977" lat="51.205284"><ele>27.8</ele><time>2022-06-05T09:22:16.000Z</time></trkpt><trkpt lon="5.731905" lat="51.205226"><ele>27.8</ele><time>2022-06-05T09:22:17.000Z</time></trkpt><trkpt lon="5.731835" lat="51.20517"><ele>27.8</ele><time>2022-06-05T09:22:18.000Z</time></trkpt><trkpt lon="5.731765" lat="51.205108"><ele>27.8</ele><time>2022-06-05T09:22:19.000Z</time></trkpt><trkpt lon="5.731694" lat="51.205055"><ele>27.8</ele><time>2022-06-05T09:22:20.000Z</time></trkpt><trkpt lon="5.73162" lat="51.205"><ele>27.8</ele><time>2022-06-05T09:22:21.000Z</time></trkpt><trkpt lon="5.731548" lat="51.204947"><ele>27.8</ele><time>2022-06-05T09:22:22.000Z</time></trkpt><trkpt lon="5.731478" lat="51.204894"><ele>27.8</ele><time>2022-06-05T09:22:23.000Z</time></trkpt><trkpt lon="5.731403" lat="51.20484"><ele>27.8</ele><time>2022-06-05T09:22:24.000Z</time></trkpt><trkpt lon="5.731331" lat="51.204786"><ele>27.8</ele><time>2022-06-05T09:22:25.000Z</time></trkpt><trkpt lon="5.731258" lat="51.204733"><ele>27.8</ele><time>2022-06-05T09:22:26.000Z</time></trkpt><trkpt lon="5.731184" lat="51.204683"><ele>27.8</ele><time>2022-06-05T09:22:27.000Z</time></trkpt><trkpt lon="5.731114" lat="51.204634"><ele>27.8</ele><time>2022-06-05T09:22:28.000Z</time></trkpt><trkpt lon="5.73104" lat="51.204581"><ele>27.8</ele><time>2022-06-05T09:22:29.000Z</time></trkpt><trkpt lon="5.730968" lat="51.204527"><ele>27.6</ele><time>2022-06-05T09:22:30.000Z</time></trkpt><trkpt lon="5.730894" lat="51.204477"><ele>27.4</ele><time>2022-06-05T09:22:31.000Z</time></trkpt><trkpt lon="5.730835" lat="51.204445"><ele>27.4</ele><time>2022-06-05T09:22:32.000Z</time></trkpt><trkpt lon="5.730745" lat="51.204405"><ele>27.4</ele><time>2022-06-05T09:22:33.000Z</time></trkpt><trkpt lon="5.730625" lat="51.204367"><ele>27.4</ele><time>2022-06-05T09:22:34.000Z</time></trkpt><trkpt lon="5.730508" lat="51.204347"><ele>27.2</ele><time>2022-06-05T09:22:35.000Z</time></trkpt><trkpt lon="5.730378" lat="51.204335"><ele>27.2</ele><time>2022-06-05T09:22:36.000Z</time></trkpt><trkpt lon="5.730249" lat="51.204327"><ele>27.2</ele><time>2022-06-05T09:22:37.000Z</time></trkpt><trkpt lon="5.730121" lat="51.204316"><ele>27.2</ele><time>2022-06-05T09:22:38.000Z</time></trkpt><trkpt lon="5.729997" lat="51.204308"><ele>27.2</ele><time>2022-06-05T09:22:39.000Z</time></trkpt><trkpt lon="5.729877" lat="51.2043"><ele>27.2</ele><time>2022-06-05T09:22:40.000Z</time></trkpt><trkpt lon="5.729763" lat="51.20429"><ele>27.2</ele><time>2022-06-05T09:22:41.000Z</time></trkpt><trkpt lon="5.729635" lat="51.204278"><ele>27.2</ele><time>2022-06-05T09:22:42.000Z</time></trkpt><trkpt lon="5.729517" lat="51.20427"><ele>27.2</ele><time>2022-06-05T09:22:43.000Z</time></trkpt><trkpt lon="5.729397" lat="51.204262"><ele>27.2</ele><time>2022-06-05T09:22:44.000Z</time></trkpt><trkpt lon="5.729271" lat="51.204254"><ele>27.2</ele><time>2022-06-05T09:22:45.000Z</time></trkpt><trkpt lon="5.729151" lat="51.204247"><ele>27.4</ele><time>2022-06-05T09:22:46.000Z</time></trkpt><trkpt lon="5.729031" lat="51.204239"><ele>27.4</ele><time>2022-06-05T09:22:47.000Z</time></trkpt><trkpt lon="5.728909" lat="51.204232"><ele>27.4</ele><time>2022-06-05T09:22:48.000Z</time></trkpt><trkpt lon="5.728791" lat="51.204224"><ele>27.4</ele><time>2022-06-05T09:22:49.000Z</time></trkpt><trkpt lon="5.728678" lat="51.204216"><ele>27.6</ele><time>2022-06-05T09:22:50.000Z</time></trkpt><trkpt lon="5.728563" lat="51.204209"><ele>27.6</ele><time>2022-06-05T09:22:51.000Z</time></trkpt><trkpt lon="5.728443" lat="51.204198"><ele>27.6</ele><time>2022-06-05T09:22:52.000Z</time></trkpt><trkpt lon="5.728324" lat="51.20419"><ele>27.6</ele><time>2022-06-05T09:22:53.000Z</time></trkpt><trkpt lon="5.728208" lat="51.204178"><ele>27.6</ele><time>2022-06-05T09:22:54.000Z</time></trkpt><trkpt lon="5.728093" lat="51.204167"><ele>27.6</ele><time>2022-06-05T09:22:55.000Z</time></trkpt><trkpt lon="5.72799" lat="51.204148"><ele>27.8</ele><time>2022-06-05T09:22:56.000Z</time></trkpt><trkpt lon="5.727868" lat="51.204118"><ele>27.8</ele><time>2022-06-05T09:22:57.000Z</time></trkpt><trkpt lon="5.727764" lat="51.204088"><ele>27.8</ele><time>2022-06-05T09:22:58.000Z</time></trkpt><trkpt lon="5.727681" lat="51.204051"><ele>27.6</ele><time>2022-06-05T09:22:59.000Z</time></trkpt><trkpt lon="5.727582" lat="51.204001"><ele>27.6</ele><time>2022-06-05T09:23:00.000Z</time></trkpt><trkpt lon="5.727495" lat="51.203955"><ele>27.6</ele><time>2022-06-05T09:23:01.000Z</time></trkpt><trkpt lon="5.727412" lat="51.203906"><ele>27.8</ele><time>2022-06-05T09:23:02.000Z</time></trkpt><trkpt lon="5.727332" lat="51.203853"><ele>27.8</ele><time>2022-06-05T09:23:03.000Z</time></trkpt><trkpt lon="5.727251" lat="51.203803"><ele>27.8</ele><time>2022-06-05T09:23:04.000Z</time></trkpt><trkpt lon="5.727168" lat="51.203752"><ele>27.8</ele><time>2022-06-05T09:23:05.000Z</time></trkpt><trkpt lon="5.727086" lat="51.203703"><ele>27.8</ele><time>2022-06-05T09:23:06.000Z</time></trkpt><trkpt lon="5.727004" lat="51.203649"><ele>27.8</ele><time>2022-06-05T09:23:07.000Z</time></trkpt><trkpt lon="5.726923" lat="51.2036"><ele>28</ele><time>2022-06-05T09:23:08.000Z</time></trkpt><trkpt lon="5.726843" lat="51.20355"><ele>28</ele><time>2022-06-05T09:23:09.000Z</time></trkpt><trkpt lon="5.726764" lat="51.203498"><ele>28</ele><time>2022-06-05T09:23:10.000Z</time></trkpt><trkpt lon="5.726687" lat="51.203449"><ele>28</ele><time>2022-06-05T09:23:11.000Z</time></trkpt><trkpt lon="5.726608" lat="51.203399"><ele>28</ele><time>2022-06-05T09:23:12.000Z</time></trkpt><trkpt lon="5.72653" lat="51.20335"><ele>28</ele><time>2022-06-05T09:23:13.000Z</time></trkpt><trkpt lon="5.72645" lat="51.203301"><ele>28</ele><time>2022-06-05T09:23:14.000Z</time></trkpt><trkpt lon="5.726366" lat="51.203245"><ele>28</ele><time>2022-06-05T09:23:15.000Z</time></trkpt><trkpt lon="5.72629" lat="51.203193"><ele>28</ele><time>2022-06-05T09:23:16.000Z</time></trkpt><trkpt lon="5.726214" lat="51.203144"><ele>28</ele><time>2022-06-05T09:23:17.000Z</time></trkpt><trkpt lon="5.726135" lat="51.203097"><ele>28</ele><time>2022-06-05T09:23:18.000Z</time></trkpt><trkpt lon="5.726057" lat="51.203047"><ele>28</ele><time>2022-06-05T09:23:19.000Z</time></trkpt><trkpt lon="5.725981" lat="51.202998"><ele>28</ele><time>2022-06-05T09:23:20.000Z</time></trkpt><trkpt lon="5.725909" lat="51.202953"><ele>28</ele><time>2022-06-05T09:23:21.000Z</time></trkpt><trkpt lon="5.725827" lat="51.2029"><ele>28.2</ele><time>2022-06-05T09:23:22.000Z</time></trkpt><trkpt lon="5.725743" lat="51.202845"><ele>28.2</ele><time>2022-06-05T09:23:23.000Z</time></trkpt><trkpt lon="5.725682" lat="51.202807"><ele>28.2</ele><time>2022-06-05T09:23:24.000Z</time></trkpt><trkpt lon="5.725595" lat="51.202745"><ele>28.2</ele><time>2022-06-05T09:23:25.000Z</time></trkpt><trkpt lon="5.725534" lat="51.202698"><ele>28.2</ele><time>2022-06-05T09:23:26.000Z</time></trkpt><trkpt lon="5.725464" lat="51.202629"><ele>28.2</ele><time>2022-06-05T09:23:27.000Z</time></trkpt><trkpt lon="5.725417" lat="51.202563"><ele>28.2</ele><time>2022-06-05T09:23:28.000Z</time></trkpt><trkpt lon="5.725389" lat="51.202498"><ele>28.4</ele><time>2022-06-05T09:23:29.000Z</time></trkpt><trkpt lon="5.725382" lat="51.202429"><ele>28.4</ele><time>2022-06-05T09:23:30.000Z</time></trkpt><trkpt lon="5.725385" lat="51.202361"><ele>28.4</ele><time>2022-06-05T09:23:31.000Z</time></trkpt><trkpt lon="5.725393" lat="51.202293"><ele>28.4</ele><time>2022-06-05T09:23:32.000Z</time></trkpt><trkpt lon="5.725403" lat="51.202226"><ele>28.4</ele><time>2022-06-05T09:23:33.000Z</time></trkpt><trkpt lon="5.725413" lat="51.202158"><ele>28.4</ele><time>2022-06-05T09:23:34.000Z</time></trkpt><trkpt lon="5.725426" lat="51.20209"><ele>28.4</ele><time>2022-06-05T09:23:35.000Z</time></trkpt><trkpt lon="5.725436" lat="51.202021"><ele>28.6</ele><time>2022-06-05T09:23:36.000Z</time></trkpt><trkpt lon="5.725441" lat="51.201953"><ele>28.6</ele><time>2022-06-05T09:23:37.000Z</time></trkpt><trkpt lon="5.72545" lat="51.201884"><ele>28.6</ele><time>2022-06-05T09:23:38.000Z</time></trkpt><trkpt lon="5.725458" lat="51.201816"><ele>28.6</ele><time>2022-06-05T09:23:39.000Z</time></trkpt><trkpt lon="5.725463" lat="51.201745"><ele>28.6</ele><time>2022-06-05T09:23:40.000Z</time></trkpt><trkpt lon="5.725466" lat="51.201676"><ele>28.6</ele><time>2022-06-05T09:23:41.000Z</time></trkpt><trkpt lon="5.725465" lat="51.201604"><ele>28.6</ele><time>2022-06-05T09:23:42.000Z</time></trkpt><trkpt lon="5.725462" lat="51.201529"><ele>28.6</ele><time>2022-06-05T09:23:43.000Z</time></trkpt><trkpt lon="5.725455" lat="51.20146"><ele>28.4</ele><time>2022-06-05T09:23:44.000Z</time></trkpt><trkpt lon="5.725447" lat="51.201392"><ele>28.4</ele><time>2022-06-05T09:23:45.000Z</time></trkpt><trkpt lon="5.725437" lat="51.201323"><ele>28.4</ele><time>2022-06-05T09:23:46.000Z</time></trkpt><trkpt lon="5.725424" lat="51.201251"><ele>28.4</ele><time>2022-06-05T09:23:47.000Z</time></trkpt><trkpt lon="5.725408" lat="51.201184"><ele>28.4</ele><time>2022-06-05T09:23:48.000Z</time></trkpt><trkpt lon="5.725382" lat="51.201111"><ele>28.4</ele><time>2022-06-05T09:23:49.000Z</time></trkpt><trkpt lon="5.725349" lat="51.201043"><ele>28.4</ele><time>2022-06-05T09:23:50.000Z</time></trkpt><trkpt lon="5.725312" lat="51.200978"><ele>28.4</ele><time>2022-06-05T09:23:51.000Z</time></trkpt><trkpt lon="5.725281" lat="51.200917"><ele>28.4</ele><time>2022-06-05T09:23:52.000Z</time></trkpt><trkpt lon="5.72524" lat="51.200843"><ele>28.6</ele><time>2022-06-05T09:23:53.000Z</time></trkpt><trkpt lon="5.725205" lat="51.200777"><ele>28.6</ele><time>2022-06-05T09:23:54.000Z</time></trkpt><trkpt lon="5.72517" lat="51.200711"><ele>28.6</ele><time>2022-06-05T09:23:55.000Z</time></trkpt><trkpt lon="5.725136" lat="51.200644"><ele>28.6</ele><time>2022-06-05T09:23:56.000Z</time></trkpt><trkpt lon="5.7251" lat="51.20058"><ele>28.6</ele><time>2022-06-05T09:23:57.000Z</time></trkpt><trkpt lon="5.725063" lat="51.200515"><ele>28.6</ele><time>2022-06-05T09:23:58.000Z</time></trkpt><trkpt lon="5.725028" lat="51.200448"><ele>28.6</ele><time>2022-06-05T09:23:59.000Z</time></trkpt><trkpt lon="5.72499" lat="51.200381"><ele>28.6</ele><time>2022-06-05T09:24:00.000Z</time></trkpt><trkpt lon="5.724955" lat="51.200317"><ele>28.6</ele><time>2022-06-05T09:24:01.000Z</time></trkpt><trkpt lon="5.724922" lat="51.200249"><ele>28.8</ele><time>2022-06-05T09:24:02.000Z</time></trkpt><trkpt lon="5.724885" lat="51.200183"><ele>28.8</ele><time>2022-06-05T09:24:03.000Z</time></trkpt><trkpt lon="5.72485" lat="51.200118"><ele>28.6</ele><time>2022-06-05T09:24:04.000Z</time></trkpt><trkpt lon="5.724819" lat="51.200058"><ele>28.8</ele><time>2022-06-05T09:24:05.000Z</time></trkpt><trkpt lon="5.724789" lat="51.199988"><ele>28.8</ele><time>2022-06-05T09:24:06.000Z</time></trkpt><trkpt lon="5.724764" lat="51.199923"><ele>28.6</ele><time>2022-06-05T09:24:07.000Z</time></trkpt><trkpt lon="5.724743" lat="51.199856"><ele>28.8</ele><time>2022-06-05T09:24:08.000Z</time></trkpt><trkpt lon="5.724724" lat="51.199785"><ele>28.8</ele><time>2022-06-05T09:24:09.000Z</time></trkpt><trkpt lon="5.724706" lat="51.199721"><ele>28.8</ele><time>2022-06-05T09:24:10.000Z</time></trkpt><trkpt lon="5.724687" lat="51.199651"><ele>28.8</ele><time>2022-06-05T09:24:11.000Z</time></trkpt><trkpt lon="5.724667" lat="51.19958"><ele>28.8</ele><time>2022-06-05T09:24:12.000Z</time></trkpt><trkpt lon="5.724651" lat="51.19952"><ele>28.8</ele><time>2022-06-05T09:24:13.000Z</time></trkpt><trkpt lon="5.724631" lat="51.199445"><ele>28.8</ele><time>2022-06-05T09:24:14.000Z</time></trkpt><trkpt lon="5.724617" lat="51.199378"><ele>28.8</ele><time>2022-06-05T09:24:15.000Z</time></trkpt><trkpt lon="5.724607" lat="51.199321"><ele>28.8</ele><time>2022-06-05T09:24:16.000Z</time></trkpt><trkpt lon="5.724596" lat="51.199255"><ele>28.8</ele><time>2022-06-05T09:24:17.000Z</time></trkpt><trkpt lon="5.72458" lat="51.199179"><ele>28.6</ele><time>2022-06-05T09:24:18.000Z</time></trkpt><trkpt lon="5.72457" lat="51.199127"><ele>28.6</ele><time>2022-06-05T09:24:19.000Z</time></trkpt><trkpt lon="5.724558" lat="51.199061"><ele>28.8</ele><time>2022-06-05T09:24:20.000Z</time></trkpt><trkpt lon="5.724543" lat="51.19899"><ele>28.8</ele><time>2022-06-05T09:24:21.000Z</time></trkpt><trkpt lon="5.724528" lat="51.198921"><ele>28.6</ele><time>2022-06-05T09:24:22.000Z</time></trkpt><trkpt lon="5.724514" lat="51.198851"><ele>28.4</ele><time>2022-06-05T09:24:23.000Z</time></trkpt><trkpt lon="5.724502" lat="51.198784"><ele>28.4</ele><time>2022-06-05T09:24:24.000Z</time></trkpt><trkpt lon="5.724489" lat="51.198714"><ele>28.4</ele><time>2022-06-05T09:24:25.000Z</time></trkpt><trkpt lon="5.724477" lat="51.198642"><ele>28.4</ele><time>2022-06-05T09:24:26.000Z</time></trkpt><trkpt lon="5.724467" lat="51.198569"><ele>28.2</ele><time>2022-06-05T09:24:27.000Z</time></trkpt><trkpt lon="5.724457" lat="51.198501"><ele>28.2</ele><time>2022-06-05T09:24:28.000Z</time></trkpt><trkpt lon="5.724445" lat="51.198432"><ele>28</ele><time>2022-06-05T09:24:29.000Z</time></trkpt><trkpt lon="5.724434" lat="51.198365"><ele>28</ele><time>2022-06-05T09:24:30.000Z</time></trkpt><trkpt lon="5.724418" lat="51.198299"><ele>28</ele><time>2022-06-05T09:24:31.000Z</time></trkpt><trkpt lon="5.724399" lat="51.198237"><ele>28</ele><time>2022-06-05T09:24:32.000Z</time></trkpt><trkpt lon="5.724383" lat="51.198181"><ele>28.2</ele><time>2022-06-05T09:24:33.000Z</time></trkpt><trkpt lon="5.724367" lat="51.198126"><ele>28.2</ele><time>2022-06-05T09:24:34.000Z</time></trkpt><trkpt lon="5.724348" lat="51.19807"><ele>28.2</ele><time>2022-06-05T09:24:35.000Z</time></trkpt><trkpt lon="5.724326" lat="51.198016"><ele>28.4</ele><time>2022-06-05T09:24:36.000Z</time></trkpt><trkpt lon="5.724308" lat="51.197964"><ele>28.6</ele><time>2022-06-05T09:24:37.000Z</time></trkpt><trkpt lon="5.724291" lat="51.197908"><ele>28.6</ele><time>2022-06-05T09:24:38.000Z</time></trkpt><trkpt lon="5.724276" lat="51.197848"><ele>28.8</ele><time>2022-06-05T09:24:39.000Z</time></trkpt><trkpt lon="5.724261" lat="51.197787"><ele>28.8</ele><time>2022-06-05T09:24:40.000Z</time></trkpt><trkpt lon="5.724249" lat="51.197727"><ele>28.8</ele><time>2022-06-05T09:24:41.000Z</time></trkpt><trkpt lon="5.724239" lat="51.197663"><ele>28.8</ele><time>2022-06-05T09:24:42.000Z</time></trkpt><trkpt lon="5.724231" lat="51.197606"><ele>28.8</ele><time>2022-06-05T09:24:43.000Z</time></trkpt><trkpt lon="5.724225" lat="51.197542"><ele>29</ele><time>2022-06-05T09:24:44.000Z</time></trkpt><trkpt lon="5.72422" lat="51.197483"><ele>29</ele><time>2022-06-05T09:24:45.000Z</time></trkpt><trkpt lon="5.724215" lat="51.197424"><ele>29</ele><time>2022-06-05T09:24:46.000Z</time></trkpt><trkpt lon="5.72421" lat="51.197367"><ele>29</ele><time>2022-06-05T09:24:47.000Z</time></trkpt><trkpt lon="5.724204" lat="51.197311"><ele>29.2</ele><time>2022-06-05T09:24:48.000Z</time></trkpt><trkpt lon="5.724195" lat="51.197263"><ele>29.2</ele><time>2022-06-05T09:24:49.000Z</time></trkpt><trkpt lon="5.724184" lat="51.19723"><ele>29.2</ele><time>2022-06-05T09:24:50.000Z</time></trkpt><trkpt lon="5.724156" lat="51.197185"><ele>29.2</ele><time>2022-06-05T09:24:51.000Z</time></trkpt><trkpt lon="5.724114" lat="51.197149"><ele>29.2</ele><time>2022-06-05T09:24:52.000Z</time></trkpt><trkpt lon="5.724059" lat="51.197119"><ele>29.2</ele><time>2022-06-05T09:24:53.000Z</time></trkpt><trkpt lon="5.723995" lat="51.197087"><ele>29.4</ele><time>2022-06-05T09:24:54.000Z</time></trkpt><trkpt lon="5.723935" lat="51.197057"><ele>29.4</ele><time>2022-06-05T09:24:55.000Z</time></trkpt><trkpt lon="5.723875" lat="51.197031"><ele>29.4</ele><time>2022-06-05T09:24:56.000Z</time></trkpt><trkpt lon="5.723813" lat="51.197"><ele>29.4</ele><time>2022-06-05T09:24:57.000Z</time></trkpt><trkpt lon="5.723759" lat="51.196973"><ele>29.4</ele><time>2022-06-05T09:24:58.000Z</time></trkpt><trkpt lon="5.723708" lat="51.196947"><ele>29.4</ele><time>2022-06-05T09:24:59.000Z</time></trkpt><trkpt lon="5.723654" lat="51.19692"><ele>29.4</ele><time>2022-06-05T09:25:00.000Z</time></trkpt><trkpt lon="5.723604" lat="51.196896"><ele>29.4</ele><time>2022-06-05T09:25:01.000Z</time></trkpt><trkpt lon="5.723553" lat="51.196878"><ele>29.6</ele><time>2022-06-05T09:25:02.000Z</time></trkpt><trkpt lon="5.723492" lat="51.196873"><ele>29.6</ele><time>2022-06-05T09:25:03.000Z</time></trkpt><trkpt lon="5.723433" lat="51.196884"><ele>29.6</ele><time>2022-06-05T09:25:04.000Z</time></trkpt><trkpt lon="5.723366" lat="51.19691"><ele>29.6</ele><time>2022-06-05T09:25:05.000Z</time></trkpt><trkpt lon="5.723301" lat="51.196947"><ele>29.4</ele><time>2022-06-05T09:25:06.000Z</time></trkpt><trkpt lon="5.72323" lat="51.196993"><ele>29.4</ele><time>2022-06-05T09:25:07.000Z</time></trkpt><trkpt lon="5.723148" lat="51.197035"><ele>29.4</ele><time>2022-06-05T09:25:08.000Z</time></trkpt><trkpt lon="5.723064" lat="51.197081"><ele>29.4</ele><time>2022-06-05T09:25:09.000Z</time></trkpt><trkpt lon="5.722978" lat="51.197127"><ele>29.2</ele><time>2022-06-05T09:25:10.000Z</time></trkpt><trkpt lon="5.722894" lat="51.197172"><ele>29.2</ele><time>2022-06-05T09:25:11.000Z</time></trkpt><trkpt lon="5.722811" lat="51.197217"><ele>29.2</ele><time>2022-06-05T09:25:12.000Z</time></trkpt><trkpt lon="5.722726" lat="51.197264"><ele>29.2</ele><time>2022-06-05T09:25:13.000Z</time></trkpt><trkpt lon="5.722644" lat="51.19731"><ele>29</ele><time>2022-06-05T09:25:14.000Z</time></trkpt><trkpt lon="5.722568" lat="51.197352"><ele>29</ele><time>2022-06-05T09:25:15.000Z</time></trkpt><trkpt lon="5.722491" lat="51.19739"><ele>29</ele><time>2022-06-05T09:25:16.000Z</time></trkpt><trkpt lon="5.722421" lat="51.197431"><ele>29</ele><time>2022-06-05T09:25:17.000Z</time></trkpt><trkpt lon="5.722353" lat="51.19747"><ele>29</ele><time>2022-06-05T09:25:18.000Z</time></trkpt><trkpt lon="5.722287" lat="51.197505"><ele>29</ele><time>2022-06-05T09:25:19.000Z</time></trkpt><trkpt lon="5.722224" lat="51.197536"><ele>29</ele><time>2022-06-05T09:25:20.000Z</time></trkpt><trkpt lon="5.722165" lat="51.197566"><ele>29.2</ele><time>2022-06-05T09:25:21.000Z</time></trkpt><trkpt lon="5.722115" lat="51.197596"><ele>29.2</ele><time>2022-06-05T09:25:22.000Z</time></trkpt><trkpt lon="5.72207" lat="51.197634"><ele>29.2</ele><time>2022-06-05T09:25:23.000Z</time></trkpt><trkpt lon="5.722029" lat="51.197672"><ele>29.4</ele><time>2022-06-05T09:25:24.000Z</time></trkpt><trkpt lon="5.721982" lat="51.197707"><ele>29.4</ele><time>2022-06-05T09:25:25.000Z</time></trkpt><trkpt lon="5.72192" lat="51.197726"><ele>29.4</ele><time>2022-06-05T09:25:26.000Z</time></trkpt><trkpt lon="5.721851" lat="51.197731"><ele>29.6</ele><time>2022-06-05T09:25:27.000Z</time></trkpt><trkpt lon="5.721785" lat="51.197724"><ele>29.6</ele><time>2022-06-05T09:25:28.000Z</time></trkpt><trkpt lon="5.721729" lat="51.197698"><ele>29.6</ele><time>2022-06-05T09:25:29.000Z</time></trkpt><trkpt lon="5.721685" lat="51.19766"><ele>29.6</ele><time>2022-06-05T09:25:30.000Z</time></trkpt><trkpt lon="5.721662" lat="51.197619"><ele>29.6</ele><time>2022-06-05T09:25:31.000Z</time></trkpt><trkpt lon="5.721658" lat="51.197573"><ele>29.6</ele><time>2022-06-05T09:25:32.000Z</time></trkpt><trkpt lon="5.72166" lat="51.197522"><ele>29.4</ele><time>2022-06-05T09:25:33.000Z</time></trkpt><trkpt lon="5.721649" lat="51.197467"><ele>29.2</ele><time>2022-06-05T09:25:34.000Z</time></trkpt><trkpt lon="5.721628" lat="51.197409"><ele>29.4</ele><time>2022-06-05T09:25:35.000Z</time></trkpt><trkpt lon="5.721611" lat="51.197356"><ele>29.4</ele><time>2022-06-05T09:25:36.000Z</time></trkpt><trkpt lon="5.721593" lat="51.19729"><ele>29.4</ele><time>2022-06-05T09:25:37.000Z</time></trkpt><trkpt lon="5.721579" lat="51.197215"><ele>29.4</ele><time>2022-06-05T09:25:38.000Z</time></trkpt><trkpt lon="5.721567" lat="51.19715"><ele>29.4</ele><time>2022-06-05T09:25:39.000Z</time></trkpt><trkpt lon="5.721554" lat="51.197081"><ele>29.4</ele><time>2022-06-05T09:25:40.000Z</time></trkpt><trkpt lon="5.721538" lat="51.19702"><ele>29.4</ele><time>2022-06-05T09:25:41.000Z</time></trkpt><trkpt lon="5.721519" lat="51.196952"><ele>29.4</ele><time>2022-06-05T09:25:42.000Z</time></trkpt><trkpt lon="5.721496" lat="51.196887"><ele>29.4</ele><time>2022-06-05T09:25:43.000Z</time></trkpt><trkpt lon="5.721476" lat="51.196822"><ele>29.4</ele><time>2022-06-05T09:25:44.000Z</time></trkpt><trkpt lon="5.72146" lat="51.196753"><ele>29.6</ele><time>2022-06-05T09:25:45.000Z</time></trkpt><trkpt lon="5.721446" lat="51.196684"><ele>29.6</ele><time>2022-06-05T09:25:46.000Z</time></trkpt><trkpt lon="5.721435" lat="51.196616"><ele>29.6</ele><time>2022-06-05T09:25:47.000Z</time></trkpt><trkpt lon="5.721433" lat="51.196551"><ele>29.6</ele><time>2022-06-05T09:25:48.000Z</time></trkpt><trkpt lon="5.721436" lat="51.196484"><ele>29.6</ele><time>2022-06-05T09:25:49.000Z</time></trkpt><trkpt lon="5.721448" lat="51.19641"><ele>29.4</ele><time>2022-06-05T09:25:50.000Z</time></trkpt><trkpt lon="5.721465" lat="51.196338"><ele>29</ele><time>2022-06-05T09:25:51.000Z</time></trkpt><trkpt lon="5.721494" lat="51.196259"><ele>29</ele><time>2022-06-05T09:25:52.000Z</time></trkpt><trkpt lon="5.721524" lat="51.196185"><ele>29.2</ele><time>2022-06-05T09:25:53.000Z</time></trkpt><trkpt lon="5.721565" lat="51.196106"><ele>29</ele><time>2022-06-05T09:25:54.000Z</time></trkpt><trkpt lon="5.721602" lat="51.196038"><ele>29</ele><time>2022-06-05T09:25:55.000Z</time></trkpt><trkpt lon="5.721642" lat="51.195966"><ele>29.2</ele><time>2022-06-05T09:25:56.000Z</time></trkpt><trkpt lon="5.721683" lat="51.195902"><ele>29.2</ele><time>2022-06-05T09:25:57.000Z</time></trkpt><trkpt lon="5.721732" lat="51.195833"><ele>29.4</ele><time>2022-06-05T09:25:58.000Z</time></trkpt><trkpt lon="5.721778" lat="51.195775"><ele>29.4</ele><time>2022-06-05T09:25:59.000Z</time></trkpt><trkpt lon="5.721833" lat="51.195704"><ele>29.4</ele><time>2022-06-05T09:26:00.000Z</time></trkpt><trkpt lon="5.721877" lat="51.195646"><ele>29.6</ele><time>2022-06-05T09:26:01.000Z</time></trkpt><trkpt lon="5.721923" lat="51.195589"><ele>29.6</ele><time>2022-06-05T09:26:02.000Z</time></trkpt><trkpt lon="5.721985" lat="51.195506"><ele>29.4</ele><time>2022-06-05T09:26:03.000Z</time></trkpt><trkpt lon="5.722033" lat="51.195434"><ele>29.6</ele><time>2022-06-05T09:26:04.000Z</time></trkpt><trkpt lon="5.722085" lat="51.195364"><ele>29.6</ele><time>2022-06-05T09:26:05.000Z</time></trkpt><trkpt lon="5.722139" lat="51.195296"><ele>29.6</ele><time>2022-06-05T09:26:06.000Z</time></trkpt><trkpt lon="5.722193" lat="51.195231"><ele>29.6</ele><time>2022-06-05T09:26:07.000Z</time></trkpt><trkpt lon="5.722242" lat="51.195162"><ele>29.6</ele><time>2022-06-05T09:26:08.000Z</time></trkpt><trkpt lon="5.722286" lat="51.195098"><ele>29.6</ele><time>2022-06-05T09:26:09.000Z</time></trkpt><trkpt lon="5.722333" lat="51.195036"><ele>29.6</ele><time>2022-06-05T09:26:10.000Z</time></trkpt><trkpt lon="5.722381" lat="51.194976"><ele>29.6</ele><time>2022-06-05T09:26:11.000Z</time></trkpt><trkpt lon="5.722426" lat="51.194911"><ele>29.6</ele><time>2022-06-05T09:26:12.000Z</time></trkpt><trkpt lon="5.722468" lat="51.194849"><ele>29.6</ele><time>2022-06-05T09:26:13.000Z</time></trkpt><trkpt lon="5.72251" lat="51.194792"><ele>29.8</ele><time>2022-06-05T09:26:14.000Z</time></trkpt><trkpt lon="5.722555" lat="51.194732"><ele>29.8</ele><time>2022-06-05T09:26:15.000Z</time></trkpt><trkpt lon="5.722598" lat="51.19467"><ele>29.8</ele><time>2022-06-05T09:26:16.000Z</time></trkpt><trkpt lon="5.722641" lat="51.19461"><ele>29.8</ele><time>2022-06-05T09:26:17.000Z</time></trkpt><trkpt lon="5.722687" lat="51.194544"><ele>29.8</ele><time>2022-06-05T09:26:18.000Z</time></trkpt><trkpt lon="5.722734" lat="51.194485"><ele>29.8</ele><time>2022-06-05T09:26:19.000Z</time></trkpt><trkpt lon="5.722788" lat="51.194422"><ele>29.8</ele><time>2022-06-05T09:26:20.000Z</time></trkpt><trkpt lon="5.722838" lat="51.194377"><ele>30</ele><time>2022-06-05T09:26:21.000Z</time></trkpt><trkpt lon="5.722905" lat="51.194319"><ele>29.8</ele><time>2022-06-05T09:26:22.000Z</time></trkpt><trkpt lon="5.722975" lat="51.194258"><ele>29.8</ele><time>2022-06-05T09:26:23.000Z</time></trkpt><trkpt lon="5.723045" lat="51.194204"><ele>29.8</ele><time>2022-06-05T09:26:24.000Z</time></trkpt><trkpt lon="5.723114" lat="51.194156"><ele>29.8</ele><time>2022-06-05T09:26:25.000Z</time></trkpt><trkpt lon="5.723183" lat="51.194107"><ele>29.8</ele><time>2022-06-05T09:26:26.000Z</time></trkpt><trkpt lon="5.723259" lat="51.194052"><ele>29.8</ele><time>2022-06-05T09:26:27.000Z</time></trkpt><trkpt lon="5.723332" lat="51.194006"><ele>29.8</ele><time>2022-06-05T09:26:28.000Z</time></trkpt><trkpt lon="5.723405" lat="51.193956"><ele>29.8</ele><time>2022-06-05T09:26:29.000Z</time></trkpt><trkpt lon="5.723474" lat="51.193911"><ele>29.8</ele><time>2022-06-05T09:26:30.000Z</time></trkpt><trkpt lon="5.723557" lat="51.193863"><ele>29.8</ele><time>2022-06-05T09:26:31.000Z</time></trkpt><trkpt lon="5.723636" lat="51.193815"><ele>29.8</ele><time>2022-06-05T09:26:32.000Z</time></trkpt><trkpt lon="5.723714" lat="51.193766"><ele>29.8</ele><time>2022-06-05T09:26:33.000Z</time></trkpt><trkpt lon="5.723794" lat="51.193723"><ele>29.8</ele><time>2022-06-05T09:26:34.000Z</time></trkpt><trkpt lon="5.723876" lat="51.193678"><ele>29.8</ele><time>2022-06-05T09:26:35.000Z</time></trkpt><trkpt lon="5.723957" lat="51.193637"><ele>29.8</ele><time>2022-06-05T09:26:36.000Z</time></trkpt><trkpt lon="5.724044" lat="51.193594"><ele>30</ele><time>2022-06-05T09:26:37.000Z</time></trkpt><trkpt lon="5.724131" lat="51.193552"><ele>30</ele><time>2022-06-05T09:26:38.000Z</time></trkpt><trkpt lon="5.724215" lat="51.19351"><ele>30</ele><time>2022-06-05T09:26:39.000Z</time></trkpt><trkpt lon="5.724293" lat="51.193464"><ele>30</ele><time>2022-06-05T09:26:40.000Z</time></trkpt><trkpt lon="5.724368" lat="51.193419"><ele>29.8</ele><time>2022-06-05T09:26:41.000Z</time></trkpt><trkpt lon="5.724435" lat="51.193366"><ele>29.8</ele><time>2022-06-05T09:26:42.000Z</time></trkpt><trkpt lon="5.724489" lat="51.193305"><ele>29.8</ele><time>2022-06-05T09:26:43.000Z</time></trkpt><trkpt lon="5.724528" lat="51.193245"><ele>29.8</ele><time>2022-06-05T09:26:44.000Z</time></trkpt><trkpt lon="5.72455" lat="51.19318"><ele>29.6</ele><time>2022-06-05T09:26:45.000Z</time></trkpt><trkpt lon="5.724558" lat="51.19311"><ele>29.4</ele><time>2022-06-05T09:26:46.000Z</time></trkpt><trkpt lon="5.724555" lat="51.193043"><ele>29.8</ele><time>2022-06-05T09:26:47.000Z</time></trkpt><trkpt lon="5.724549" lat="51.192973"><ele>30</ele><time>2022-06-05T09:26:48.000Z</time></trkpt><trkpt lon="5.724541" lat="51.1929"><ele>29.8</ele><time>2022-06-05T09:26:49.000Z</time></trkpt><trkpt lon="5.724529" lat="51.192828"><ele>30</ele><time>2022-06-05T09:26:50.000Z</time></trkpt><trkpt lon="5.724514" lat="51.19276"><ele>30</ele><time>2022-06-05T09:26:51.000Z</time></trkpt><trkpt lon="5.724501" lat="51.192683"><ele>30</ele><time>2022-06-05T09:26:52.000Z</time></trkpt><trkpt lon="5.724487" lat="51.19261"><ele>30</ele><time>2022-06-05T09:26:53.000Z</time></trkpt><trkpt lon="5.724474" lat="51.192538"><ele>30</ele><time>2022-06-05T09:26:54.000Z</time></trkpt><trkpt lon="5.724461" lat="51.19247"><ele>30</ele><time>2022-06-05T09:26:55.000Z</time></trkpt><trkpt lon="5.724447" lat="51.192396"><ele>30</ele><time>2022-06-05T09:26:56.000Z</time></trkpt><trkpt lon="5.72444" lat="51.192325"><ele>30</ele><time>2022-06-05T09:26:57.000Z</time></trkpt><trkpt lon="5.724434" lat="51.192252"><ele>30</ele><time>2022-06-05T09:26:58.000Z</time></trkpt><trkpt lon="5.724428" lat="51.192181"><ele>30</ele><time>2022-06-05T09:26:59.000Z</time></trkpt><trkpt lon="5.724425" lat="51.192111"><ele>30</ele><time>2022-06-05T09:27:00.000Z</time></trkpt><trkpt lon="5.72443" lat="51.192035"><ele>30</ele><time>2022-06-05T09:27:01.000Z</time></trkpt><trkpt lon="5.724436" lat="51.191963"><ele>30</ele><time>2022-06-05T09:27:02.000Z</time></trkpt><trkpt lon="5.724448" lat="51.191891"><ele>30</ele><time>2022-06-05T09:27:03.000Z</time></trkpt><trkpt lon="5.724464" lat="51.191819"><ele>30</ele><time>2022-06-05T09:27:04.000Z</time></trkpt><trkpt lon="5.724486" lat="51.191745"><ele>30</ele><time>2022-06-05T09:27:05.000Z</time></trkpt><trkpt lon="5.724504" lat="51.191673"><ele>30</ele><time>2022-06-05T09:27:06.000Z</time></trkpt><trkpt lon="5.724523" lat="51.191596"><ele>30</ele><time>2022-06-05T09:27:07.000Z</time></trkpt><trkpt lon="5.724544" lat="51.191524"><ele>29.8</ele><time>2022-06-05T09:27:08.000Z</time></trkpt><trkpt lon="5.724567" lat="51.191452"><ele>29.8</ele><time>2022-06-05T09:27:09.000Z</time></trkpt><trkpt lon="5.724592" lat="51.191379"><ele>29.8</ele><time>2022-06-05T09:27:10.000Z</time></trkpt><trkpt lon="5.724622" lat="51.191307"><ele>29.8</ele><time>2022-06-05T09:27:11.000Z</time></trkpt><trkpt lon="5.724656" lat="51.19124"><ele>30</ele><time>2022-06-05T09:27:12.000Z</time></trkpt><trkpt lon="5.724692" lat="51.191165"><ele>30</ele><time>2022-06-05T09:27:13.000Z</time></trkpt><trkpt lon="5.724728" lat="51.191093"><ele>30</ele><time>2022-06-05T09:27:14.000Z</time></trkpt><trkpt lon="5.724763" lat="51.191018"><ele>30</ele><time>2022-06-05T09:27:15.000Z</time></trkpt><trkpt lon="5.7248" lat="51.190944"><ele>30</ele><time>2022-06-05T09:27:16.000Z</time></trkpt><trkpt lon="5.724833" lat="51.190872"><ele>30</ele><time>2022-06-05T09:27:17.000Z</time></trkpt><trkpt lon="5.724872" lat="51.190803"><ele>30</ele><time>2022-06-05T09:27:18.000Z</time></trkpt><trkpt lon="5.72491" lat="51.19073"><ele>30</ele><time>2022-06-05T09:27:19.000Z</time></trkpt><trkpt lon="5.724947" lat="51.190661"><ele>30</ele><time>2022-06-05T09:27:20.000Z</time></trkpt><trkpt lon="5.724984" lat="51.190589"><ele>29.8</ele><time>2022-06-05T09:27:21.000Z</time></trkpt><trkpt lon="5.725022" lat="51.190517"><ele>29.8</ele><time>2022-06-05T09:27:22.000Z</time></trkpt><trkpt lon="5.725062" lat="51.190444"><ele>29.8</ele><time>2022-06-05T09:27:23.000Z</time></trkpt><trkpt lon="5.7251" lat="51.190371"><ele>29.8</ele><time>2022-06-05T09:27:24.000Z</time></trkpt><trkpt lon="5.725139" lat="51.190303"><ele>29.8</ele><time>2022-06-05T09:27:25.000Z</time></trkpt><trkpt lon="5.725177" lat="51.190234"><ele>29.8</ele><time>2022-06-05T09:27:26.000Z</time></trkpt><trkpt lon="5.725212" lat="51.190166"><ele>29.8</ele><time>2022-06-05T09:27:27.000Z</time></trkpt><trkpt lon="5.725234" lat="51.190093"><ele>29.8</ele><time>2022-06-05T09:27:28.000Z</time></trkpt><trkpt lon="5.725246" lat="51.190021"><ele>29.8</ele><time>2022-06-05T09:27:29.000Z</time></trkpt><trkpt lon="5.725253" lat="51.189944"><ele>29.8</ele><time>2022-06-05T09:27:30.000Z</time></trkpt><trkpt lon="5.725268" lat="51.189869"><ele>29.8</ele><time>2022-06-05T09:27:31.000Z</time></trkpt><trkpt lon="5.72529" lat="51.189794"><ele>29.8</ele><time>2022-06-05T09:27:32.000Z</time></trkpt><trkpt lon="5.72532" lat="51.18972"><ele>29.8</ele><time>2022-06-05T09:27:33.000Z</time></trkpt><trkpt lon="5.725352" lat="51.189644"><ele>29.8</ele><time>2022-06-05T09:27:34.000Z</time></trkpt><trkpt lon="5.725382" lat="51.189567"><ele>29.6</ele><time>2022-06-05T09:27:35.000Z</time></trkpt><trkpt lon="5.725417" lat="51.189494"><ele>29.6</ele><time>2022-06-05T09:27:36.000Z</time></trkpt><trkpt lon="5.725453" lat="51.189415"><ele>29.6</ele><time>2022-06-05T09:27:37.000Z</time></trkpt><trkpt lon="5.725486" lat="51.189335"><ele>29.6</ele><time>2022-06-05T09:27:38.000Z</time></trkpt><trkpt lon="5.725518" lat="51.189255"><ele>29.4</ele><time>2022-06-05T09:27:39.000Z</time></trkpt><trkpt lon="5.725552" lat="51.189174"><ele>29.4</ele><time>2022-06-05T09:27:40.000Z</time></trkpt><trkpt lon="5.725585" lat="51.189098"><ele>29.4</ele><time>2022-06-05T09:27:41.000Z</time></trkpt><trkpt lon="5.725616" lat="51.189024"><ele>29.4</ele><time>2022-06-05T09:27:42.000Z</time></trkpt><trkpt lon="5.725647" lat="51.188946"><ele>29.6</ele><time>2022-06-05T09:27:43.000Z</time></trkpt><trkpt lon="5.725672" lat="51.188869"><ele>29.6</ele><time>2022-06-05T09:27:44.000Z</time></trkpt><trkpt lon="5.725691" lat="51.188794"><ele>29.6</ele><time>2022-06-05T09:27:45.000Z</time></trkpt><trkpt lon="5.725704" lat="51.188717"><ele>29.4</ele><time>2022-06-05T09:27:46.000Z</time></trkpt><trkpt lon="5.725718" lat="51.188636"><ele>29.4</ele><time>2022-06-05T09:27:47.000Z</time></trkpt><trkpt lon="5.725731" lat="51.18856"><ele>29.4</ele><time>2022-06-05T09:27:48.000Z</time></trkpt><trkpt lon="5.725744" lat="51.188481"><ele>29.4</ele><time>2022-06-05T09:27:49.000Z</time></trkpt><trkpt lon="5.725756" lat="51.188409"><ele>29.4</ele><time>2022-06-05T09:27:50.000Z</time></trkpt><trkpt lon="5.725768" lat="51.188333"><ele>29.4</ele><time>2022-06-05T09:27:51.000Z</time></trkpt><trkpt lon="5.725778" lat="51.188255"><ele>29.4</ele><time>2022-06-05T09:27:52.000Z</time></trkpt><trkpt lon="5.725788" lat="51.188181"><ele>29.2</ele><time>2022-06-05T09:27:53.000Z</time></trkpt><trkpt lon="5.72579" lat="51.18811"><ele>29.2</ele><time>2022-06-05T09:27:54.000Z</time></trkpt><trkpt lon="5.725787" lat="51.188034"><ele>29</ele><time>2022-06-05T09:27:55.000Z</time></trkpt><trkpt lon="5.725778" lat="51.187961"><ele>29</ele><time>2022-06-05T09:27:56.000Z</time></trkpt><trkpt lon="5.725767" lat="51.18789"><ele>29</ele><time>2022-06-05T09:27:57.000Z</time></trkpt><trkpt lon="5.725753" lat="51.18782"><ele>29.2</ele><time>2022-06-05T09:27:58.000Z</time></trkpt><trkpt lon="5.725736" lat="51.187753"><ele>29.2</ele><time>2022-06-05T09:27:59.000Z</time></trkpt><trkpt lon="5.725718" lat="51.187683"><ele>29.2</ele><time>2022-06-05T09:28:00.000Z</time></trkpt><trkpt lon="5.725699" lat="51.187618"><ele>29.4</ele><time>2022-06-05T09:28:01.000Z</time></trkpt><trkpt lon="5.725681" lat="51.187557"><ele>29.4</ele><time>2022-06-05T09:28:02.000Z</time></trkpt><trkpt lon="5.725664" lat="51.1875"><ele>29.4</ele><time>2022-06-05T09:28:03.000Z</time></trkpt><trkpt lon="5.725649" lat="51.187438"><ele>29.4</ele><time>2022-06-05T09:28:04.000Z</time></trkpt><trkpt lon="5.725634" lat="51.187381"><ele>29.4</ele><time>2022-06-05T09:28:05.000Z</time></trkpt><trkpt lon="5.725616" lat="51.187316"><ele>29.4</ele><time>2022-06-05T09:28:06.000Z</time></trkpt><trkpt lon="5.725596" lat="51.187248"><ele>29.4</ele><time>2022-06-05T09:28:07.000Z</time></trkpt><trkpt lon="5.725573" lat="51.187179"><ele>29.4</ele><time>2022-06-05T09:28:08.000Z</time></trkpt><trkpt lon="5.725551" lat="51.18711"><ele>29.4</ele><time>2022-06-05T09:28:09.000Z</time></trkpt><trkpt lon="5.725526" lat="51.187042"><ele>29.4</ele><time>2022-06-05T09:28:10.000Z</time></trkpt><trkpt lon="5.725503" lat="51.18697"><ele>29.4</ele><time>2022-06-05T09:28:11.000Z</time></trkpt><trkpt lon="5.725481" lat="51.186893"><ele>29.4</ele><time>2022-06-05T09:28:12.000Z</time></trkpt><trkpt lon="5.72546" lat="51.186818"><ele>29.4</ele><time>2022-06-05T09:28:13.000Z</time></trkpt><trkpt lon="5.725435" lat="51.186745"><ele>29.4</ele><time>2022-06-05T09:28:14.000Z</time></trkpt><trkpt lon="5.725411" lat="51.186667"><ele>29.4</ele><time>2022-06-05T09:28:15.000Z</time></trkpt><trkpt lon="5.725389" lat="51.186592"><ele>29.4</ele><time>2022-06-05T09:28:16.000Z</time></trkpt><trkpt lon="5.725368" lat="51.186516"><ele>29.4</ele><time>2022-06-05T09:28:17.000Z</time></trkpt><trkpt lon="5.725346" lat="51.186447"><ele>29.2</ele><time>2022-06-05T09:28:18.000Z</time></trkpt><trkpt lon="5.725325" lat="51.186372"><ele>29.2</ele><time>2022-06-05T09:28:19.000Z</time></trkpt><trkpt lon="5.725303" lat="51.186302"><ele>29.2</ele><time>2022-06-05T09:28:20.000Z</time></trkpt><trkpt lon="5.725283" lat="51.186227"><ele>29.2</ele><time>2022-06-05T09:28:21.000Z</time></trkpt><trkpt lon="5.725263" lat="51.186156"><ele>29.2</ele><time>2022-06-05T09:28:22.000Z</time></trkpt><trkpt lon="5.725242" lat="51.186087"><ele>29.2</ele><time>2022-06-05T09:28:23.000Z</time></trkpt><trkpt lon="5.725224" lat="51.186015"><ele>29.4</ele><time>2022-06-05T09:28:24.000Z</time></trkpt><trkpt lon="5.725206" lat="51.185947"><ele>29.4</ele><time>2022-06-05T09:28:25.000Z</time></trkpt><trkpt lon="5.725189" lat="51.185879"><ele>29.4</ele><time>2022-06-05T09:28:26.000Z</time></trkpt><trkpt lon="5.725178" lat="51.185815"><ele>29.2</ele><time>2022-06-05T09:28:27.000Z</time></trkpt><trkpt lon="5.725172" lat="51.185745"><ele>29.4</ele><time>2022-06-05T09:28:28.000Z</time></trkpt><trkpt lon="5.725172" lat="51.185676"><ele>29.4</ele><time>2022-06-05T09:28:29.000Z</time></trkpt><trkpt lon="5.72517" lat="51.185607"><ele>29.4</ele><time>2022-06-05T09:28:30.000Z</time></trkpt><trkpt lon="5.725167" lat="51.185535"><ele>29.4</ele><time>2022-06-05T09:28:31.000Z</time></trkpt><trkpt lon="5.725165" lat="51.185467"><ele>29.4</ele><time>2022-06-05T09:28:32.000Z</time></trkpt><trkpt lon="5.725164" lat="51.185399"><ele>29.4</ele><time>2022-06-05T09:28:33.000Z</time></trkpt><trkpt lon="5.725165" lat="51.185326"><ele>29.4</ele><time>2022-06-05T09:28:34.000Z</time></trkpt><trkpt lon="5.725167" lat="51.185258"><ele>29.4</ele><time>2022-06-05T09:28:35.000Z</time></trkpt><trkpt lon="5.725171" lat="51.185184"><ele>29.4</ele><time>2022-06-05T09:28:36.000Z</time></trkpt><trkpt lon="5.725178" lat="51.185116"><ele>29.4</ele><time>2022-06-05T09:28:37.000Z</time></trkpt><trkpt lon="5.72519" lat="51.185047"><ele>29.4</ele><time>2022-06-05T09:28:38.000Z</time></trkpt><trkpt lon="5.725201" lat="51.184975"><ele>29.2</ele><time>2022-06-05T09:28:39.000Z</time></trkpt><trkpt lon="5.725216" lat="51.1849"><ele>29</ele><time>2022-06-05T09:28:40.000Z</time></trkpt><trkpt lon="5.725234" lat="51.184833"><ele>28.8</ele><time>2022-06-05T09:28:41.000Z</time></trkpt><trkpt lon="5.725254" lat="51.184765"><ele>28.8</ele><time>2022-06-05T09:28:42.000Z</time></trkpt><trkpt lon="5.725272" lat="51.184695"><ele>29</ele><time>2022-06-05T09:28:43.000Z</time></trkpt><trkpt lon="5.725294" lat="51.184627"><ele>29</ele><time>2022-06-05T09:28:44.000Z</time></trkpt><trkpt lon="5.725312" lat="51.184559"><ele>29.2</ele><time>2022-06-05T09:28:45.000Z</time></trkpt><trkpt lon="5.725339" lat="51.18449"><ele>29</ele><time>2022-06-05T09:28:46.000Z</time></trkpt><trkpt lon="5.725364" lat="51.18442"><ele>29</ele><time>2022-06-05T09:28:47.000Z</time></trkpt><trkpt lon="5.725392" lat="51.184352"><ele>29</ele><time>2022-06-05T09:28:48.000Z</time></trkpt><trkpt lon="5.725419" lat="51.184287"><ele>29</ele><time>2022-06-05T09:28:49.000Z</time></trkpt><trkpt lon="5.725445" lat="51.184215"><ele>29</ele><time>2022-06-05T09:28:50.000Z</time></trkpt><trkpt lon="5.725472" lat="51.184149"><ele>29.2</ele><time>2022-06-05T09:28:51.000Z</time></trkpt><trkpt lon="5.725499" lat="51.184077"><ele>29.2</ele><time>2022-06-05T09:28:52.000Z</time></trkpt><trkpt lon="5.725527" lat="51.184005"><ele>29.4</ele><time>2022-06-05T09:28:53.000Z</time></trkpt><trkpt lon="5.725559" lat="51.183929"><ele>29.4</ele><time>2022-06-05T09:28:54.000Z</time></trkpt><trkpt lon="5.725586" lat="51.183856"><ele>29.2</ele><time>2022-06-05T09:28:55.000Z</time></trkpt><trkpt lon="5.725615" lat="51.183773"><ele>29.2</ele><time>2022-06-05T09:28:56.000Z</time></trkpt><trkpt lon="5.725642" lat="51.183697"><ele>29</ele><time>2022-06-05T09:28:57.000Z</time></trkpt><trkpt lon="5.72567" lat="51.183621"><ele>28.8</ele><time>2022-06-05T09:28:58.000Z</time></trkpt><trkpt lon="5.725697" lat="51.183552"><ele>28.8</ele><time>2022-06-05T09:28:59.000Z</time></trkpt><trkpt lon="5.725724" lat="51.183483"><ele>28.6</ele><time>2022-06-05T09:29:00.000Z</time></trkpt><trkpt lon="5.72575" lat="51.183415"><ele>28.4</ele><time>2022-06-05T09:29:01.000Z</time></trkpt><trkpt lon="5.725777" lat="51.183342"><ele>28.4</ele><time>2022-06-05T09:29:02.000Z</time></trkpt><trkpt lon="5.725808" lat="51.183277"><ele>28.2</ele><time>2022-06-05T09:29:03.000Z</time></trkpt><trkpt lon="5.725834" lat="51.183208"><ele>28.4</ele><time>2022-06-05T09:29:04.000Z</time></trkpt><trkpt lon="5.725856" lat="51.183139"><ele>28.4</ele><time>2022-06-05T09:29:05.000Z</time></trkpt><trkpt lon="5.725879" lat="51.183071"><ele>28.4</ele><time>2022-06-05T09:29:06.000Z</time></trkpt><trkpt lon="5.725903" lat="51.183004"><ele>28.6</ele><time>2022-06-05T09:29:07.000Z</time></trkpt><trkpt lon="5.725924" lat="51.182937"><ele>28.6</ele><time>2022-06-05T09:29:08.000Z</time></trkpt><trkpt lon="5.725949" lat="51.182872"><ele>28.6</ele><time>2022-06-05T09:29:09.000Z</time></trkpt><trkpt lon="5.725972" lat="51.182805"><ele>28.6</ele><time>2022-06-05T09:29:10.000Z</time></trkpt><trkpt lon="5.725997" lat="51.182735"><ele>28.6</ele><time>2022-06-05T09:29:11.000Z</time></trkpt><trkpt lon="5.726023" lat="51.182671"><ele>28.6</ele><time>2022-06-05T09:29:12.000Z</time></trkpt><trkpt lon="5.72605" lat="51.182602"><ele>28.6</ele><time>2022-06-05T09:29:13.000Z</time></trkpt><trkpt lon="5.726077" lat="51.182533"><ele>28.8</ele><time>2022-06-05T09:29:14.000Z</time></trkpt><trkpt lon="5.726102" lat="51.182465"><ele>28.8</ele><time>2022-06-05T09:29:15.000Z</time></trkpt><trkpt lon="5.726128" lat="51.182396"><ele>29</ele><time>2022-06-05T09:29:16.000Z</time></trkpt><trkpt lon="5.726151" lat="51.182334"><ele>29</ele><time>2022-06-05T09:29:17.000Z</time></trkpt><trkpt lon="5.726176" lat="51.182262"><ele>29</ele><time>2022-06-05T09:29:18.000Z</time></trkpt><trkpt lon="5.7262" lat="51.182193"><ele>29</ele><time>2022-06-05T09:29:19.000Z</time></trkpt><trkpt lon="5.726226" lat="51.182129"><ele>29</ele><time>2022-06-05T09:29:20.000Z</time></trkpt><trkpt lon="5.726246" lat="51.182061"><ele>29</ele><time>2022-06-05T09:29:21.000Z</time></trkpt><trkpt lon="5.726266" lat="51.181995"><ele>28.8</ele><time>2022-06-05T09:29:22.000Z</time></trkpt><trkpt lon="5.726291" lat="51.181926"><ele>28.8</ele><time>2022-06-05T09:29:23.000Z</time></trkpt><trkpt lon="5.726315" lat="51.181857"><ele>28.8</ele><time>2022-06-05T09:29:24.000Z</time></trkpt><trkpt lon="5.72634" lat="51.181789"><ele>28.6</ele><time>2022-06-05T09:29:25.000Z</time></trkpt><trkpt lon="5.726365" lat="51.181717"><ele>28.6</ele><time>2022-06-05T09:29:26.000Z</time></trkpt><trkpt lon="5.726389" lat="51.181651"><ele>28.8</ele><time>2022-06-05T09:29:27.000Z</time></trkpt><trkpt lon="5.726414" lat="51.181587"><ele>28.8</ele><time>2022-06-05T09:29:28.000Z</time></trkpt><trkpt lon="5.726437" lat="51.181518"><ele>28.8</ele><time>2022-06-05T09:29:29.000Z</time></trkpt><trkpt lon="5.726462" lat="51.18145"><ele>28.8</ele><time>2022-06-05T09:29:30.000Z</time></trkpt><trkpt lon="5.726485" lat="51.181381"><ele>28.8</ele><time>2022-06-05T09:29:31.000Z</time></trkpt><trkpt lon="5.72651" lat="51.181314"><ele>28.8</ele><time>2022-06-05T09:29:32.000Z</time></trkpt><trkpt lon="5.726536" lat="51.181243"><ele>28.8</ele><time>2022-06-05T09:29:33.000Z</time></trkpt><trkpt lon="5.726564" lat="51.181175"><ele>29</ele><time>2022-06-05T09:29:34.000Z</time></trkpt><trkpt lon="5.726592" lat="51.181102"><ele>28.8</ele><time>2022-06-05T09:29:35.000Z</time></trkpt><trkpt lon="5.726617" lat="51.181034"><ele>28.8</ele><time>2022-06-05T09:29:36.000Z</time></trkpt><trkpt lon="5.726645" lat="51.180966"><ele>28.8</ele><time>2022-06-05T09:29:37.000Z</time></trkpt><trkpt lon="5.726675" lat="51.180893"><ele>28.8</ele><time>2022-06-05T09:29:38.000Z</time></trkpt><trkpt lon="5.726704" lat="51.180823"><ele>28.6</ele><time>2022-06-05T09:29:39.000Z</time></trkpt><trkpt lon="5.726729" lat="51.180751"><ele>28.4</ele><time>2022-06-05T09:29:40.000Z</time></trkpt><trkpt lon="5.726757" lat="51.180683"><ele>28.4</ele><time>2022-06-05T09:29:41.000Z</time></trkpt><trkpt lon="5.726787" lat="51.18061"><ele>28.4</ele><time>2022-06-05T09:29:42.000Z</time></trkpt><trkpt lon="5.726812" lat="51.180539"><ele>28.6</ele><time>2022-06-05T09:29:43.000Z</time></trkpt><trkpt lon="5.72684" lat="51.18047"><ele>28.8</ele><time>2022-06-05T09:29:44.000Z</time></trkpt><trkpt lon="5.726867" lat="51.180396"><ele>28.8</ele><time>2022-06-05T09:29:45.000Z</time></trkpt><trkpt lon="5.726895" lat="51.180328"><ele>28.8</ele><time>2022-06-05T09:29:46.000Z</time></trkpt><trkpt lon="5.726924" lat="51.180255"><ele>28.8</ele><time>2022-06-05T09:29:47.000Z</time></trkpt><trkpt lon="5.726949" lat="51.180187"><ele>28.8</ele><time>2022-06-05T09:29:48.000Z</time></trkpt><trkpt lon="5.726975" lat="51.180118"><ele>28.8</ele><time>2022-06-05T09:29:49.000Z</time></trkpt><trkpt lon="5.727002" lat="51.18005"><ele>29</ele><time>2022-06-05T09:29:50.000Z</time></trkpt><trkpt lon="5.727029" lat="51.179976"><ele>29</ele><time>2022-06-05T09:29:51.000Z</time></trkpt><trkpt lon="5.727057" lat="51.179908"><ele>29</ele><time>2022-06-05T09:29:52.000Z</time></trkpt><trkpt lon="5.727084" lat="51.179835"><ele>28.8</ele><time>2022-06-05T09:29:53.000Z</time></trkpt><trkpt lon="5.727109" lat="51.179764"><ele>28.8</ele><time>2022-06-05T09:29:54.000Z</time></trkpt><trkpt lon="5.727134" lat="51.179697"><ele>28.6</ele><time>2022-06-05T09:29:55.000Z</time></trkpt><trkpt lon="5.727161" lat="51.179628"><ele>28.4</ele><time>2022-06-05T09:29:56.000Z</time></trkpt><trkpt lon="5.727189" lat="51.179554"><ele>28.4</ele><time>2022-06-05T09:29:57.000Z</time></trkpt><trkpt lon="5.727216" lat="51.179486"><ele>28.4</ele><time>2022-06-05T09:29:58.000Z</time></trkpt><trkpt lon="5.727243" lat="51.179416"><ele>28.4</ele><time>2022-06-05T09:29:59.000Z</time></trkpt><trkpt lon="5.727269" lat="51.179346"><ele>28.2</ele><time>2022-06-05T09:30:00.000Z</time></trkpt><trkpt lon="5.727296" lat="51.179274"><ele>28.2</ele><time>2022-06-05T09:30:01.000Z</time></trkpt><trkpt lon="5.727321" lat="51.179206"><ele>28.2</ele><time>2022-06-05T09:30:02.000Z</time></trkpt><trkpt lon="5.727347" lat="51.179135"><ele>28.2</ele><time>2022-06-05T09:30:03.000Z</time></trkpt><trkpt lon="5.727372" lat="51.179066"><ele>28.2</ele><time>2022-06-05T09:30:04.000Z</time></trkpt><trkpt lon="5.727395" lat="51.178994"><ele>28.2</ele><time>2022-06-05T09:30:05.000Z</time></trkpt><trkpt lon="5.727422" lat="51.178924"><ele>28.2</ele><time>2022-06-05T09:30:06.000Z</time></trkpt><trkpt lon="5.727448" lat="51.178853"><ele>28.4</ele><time>2022-06-05T09:30:07.000Z</time></trkpt><trkpt lon="5.727475" lat="51.178785"><ele>28.4</ele><time>2022-06-05T09:30:08.000Z</time></trkpt><trkpt lon="5.727504" lat="51.178711"><ele>28.6</ele><time>2022-06-05T09:30:09.000Z</time></trkpt><trkpt lon="5.727533" lat="51.178643"><ele>28.8</ele><time>2022-06-05T09:30:10.000Z</time></trkpt><trkpt lon="5.727563" lat="51.17857"><ele>28.8</ele><time>2022-06-05T09:30:11.000Z</time></trkpt><trkpt lon="5.727591" lat="51.178498"><ele>28.6</ele><time>2022-06-05T09:30:12.000Z</time></trkpt><trkpt lon="5.72762" lat="51.178425"><ele>28.6</ele><time>2022-06-05T09:30:13.000Z</time></trkpt><trkpt lon="5.727646" lat="51.178354"><ele>28.4</ele><time>2022-06-05T09:30:14.000Z</time></trkpt><trkpt lon="5.727672" lat="51.178284"><ele>28.2</ele><time>2022-06-05T09:30:15.000Z</time></trkpt><trkpt lon="5.727698" lat="51.178213"><ele>28.4</ele><time>2022-06-05T09:30:16.000Z</time></trkpt><trkpt lon="5.727725" lat="51.178139"><ele>28.6</ele><time>2022-06-05T09:30:17.000Z</time></trkpt><trkpt lon="5.727752" lat="51.178066"><ele>28.6</ele><time>2022-06-05T09:30:18.000Z</time></trkpt><trkpt lon="5.72778" lat="51.177995"><ele>28.4</ele><time>2022-06-05T09:30:19.000Z</time></trkpt><trkpt lon="5.727808" lat="51.177925"><ele>28.4</ele><time>2022-06-05T09:30:20.000Z</time></trkpt><trkpt lon="5.727837" lat="51.177848"><ele>28.4</ele><time>2022-06-05T09:30:21.000Z</time></trkpt><trkpt lon="5.727865" lat="51.177779"><ele>28.4</ele><time>2022-06-05T09:30:22.000Z</time></trkpt><trkpt lon="5.727892" lat="51.177707"><ele>28.4</ele><time>2022-06-05T09:30:23.000Z</time></trkpt><trkpt lon="5.72792" lat="51.177639"><ele>28.4</ele><time>2022-06-05T09:30:24.000Z</time></trkpt><trkpt lon="5.727946" lat="51.177568"><ele>28.6</ele><time>2022-06-05T09:30:25.000Z</time></trkpt><trkpt lon="5.727973" lat="51.177498"><ele>28.8</ele><time>2022-06-05T09:30:26.000Z</time></trkpt><trkpt lon="5.728005" lat="51.17743"><ele>28.8</ele><time>2022-06-05T09:30:27.000Z</time></trkpt><trkpt lon="5.728038" lat="51.177362"><ele>28.8</ele><time>2022-06-05T09:30:28.000Z</time></trkpt><trkpt lon="5.728075" lat="51.177294"><ele>28.8</ele><time>2022-06-05T09:30:29.000Z</time></trkpt><trkpt lon="5.728117" lat="51.177228"><ele>28.8</ele><time>2022-06-05T09:30:30.000Z</time></trkpt><trkpt lon="5.728162" lat="51.177162"><ele>28.8</ele><time>2022-06-05T09:30:31.000Z</time></trkpt><trkpt lon="5.728213" lat="51.177098"><ele>28.8</ele><time>2022-06-05T09:30:32.000Z</time></trkpt><trkpt lon="5.72827" lat="51.177036"><ele>28.8</ele><time>2022-06-05T09:30:33.000Z</time></trkpt><trkpt lon="5.72833" lat="51.176975"><ele>28.8</ele><time>2022-06-05T09:30:34.000Z</time></trkpt><trkpt lon="5.728393" lat="51.176918"><ele>29</ele><time>2022-06-05T09:30:35.000Z</time></trkpt><trkpt lon="5.728464" lat="51.176861"><ele>29.2</ele><time>2022-06-05T09:30:36.000Z</time></trkpt><trkpt lon="5.728535" lat="51.176807"><ele>29.2</ele><time>2022-06-05T09:30:37.000Z</time></trkpt><trkpt lon="5.728612" lat="51.176757"><ele>28.8</ele><time>2022-06-05T09:30:38.000Z</time></trkpt><trkpt lon="5.728688" lat="51.176705"><ele>28.8</ele><time>2022-06-05T09:30:39.000Z</time></trkpt><trkpt lon="5.728765" lat="51.176655"><ele>28.8</ele><time>2022-06-05T09:30:40.000Z</time></trkpt><trkpt lon="5.728844" lat="51.176605"><ele>28.6</ele><time>2022-06-05T09:30:41.000Z</time></trkpt><trkpt lon="5.728928" lat="51.176551"><ele>28.6</ele><time>2022-06-05T09:30:42.000Z</time></trkpt><trkpt lon="5.729006" lat="51.176503"><ele>28.6</ele><time>2022-06-05T09:30:43.000Z</time></trkpt><trkpt lon="5.729084" lat="51.176453"><ele>28.6</ele><time>2022-06-05T09:30:44.000Z</time></trkpt><trkpt lon="5.729173" lat="51.176395"><ele>28.6</ele><time>2022-06-05T09:30:45.000Z</time></trkpt><trkpt lon="5.729253" lat="51.176345"><ele>28.4</ele><time>2022-06-05T09:30:46.000Z</time></trkpt><trkpt lon="5.729334" lat="51.176293"><ele>28.2</ele><time>2022-06-05T09:30:47.000Z</time></trkpt><trkpt lon="5.729414" lat="51.176243"><ele>28.6</ele><time>2022-06-05T09:30:48.000Z</time></trkpt><trkpt lon="5.729495" lat="51.176192"><ele>28.8</ele><time>2022-06-05T09:30:49.000Z</time></trkpt><trkpt lon="5.729575" lat="51.176143"><ele>28.8</ele><time>2022-06-05T09:30:50.000Z</time></trkpt><trkpt lon="5.729656" lat="51.17609"><ele>28.8</ele><time>2022-06-05T09:30:51.000Z</time></trkpt><trkpt lon="5.729737" lat="51.17604"><ele>28.6</ele><time>2022-06-05T09:30:52.000Z</time></trkpt><trkpt lon="5.729817" lat="51.175987"><ele>28.8</ele><time>2022-06-05T09:30:53.000Z</time></trkpt><trkpt lon="5.729897" lat="51.175937"><ele>28.8</ele><time>2022-06-05T09:30:54.000Z</time></trkpt><trkpt lon="5.729973" lat="51.175889"><ele>29</ele><time>2022-06-05T09:30:55.000Z</time></trkpt><trkpt lon="5.730055" lat="51.175838"><ele>29</ele><time>2022-06-05T09:30:56.000Z</time></trkpt><trkpt lon="5.730134" lat="51.175789"><ele>29</ele><time>2022-06-05T09:30:57.000Z</time></trkpt><trkpt lon="5.730215" lat="51.175735"><ele>29</ele><time>2022-06-05T09:30:58.000Z</time></trkpt><trkpt lon="5.730292" lat="51.175686"><ele>29</ele><time>2022-06-05T09:30:59.000Z</time></trkpt><trkpt lon="5.730373" lat="51.175636"><ele>29</ele><time>2022-06-05T09:31:00.000Z</time></trkpt><trkpt lon="5.730454" lat="51.175583"><ele>29</ele><time>2022-06-05T09:31:01.000Z</time></trkpt><trkpt lon="5.730534" lat="51.175534"><ele>29</ele><time>2022-06-05T09:31:02.000Z</time></trkpt><trkpt lon="5.730616" lat="51.175483"><ele>29</ele><time>2022-06-05T09:31:03.000Z</time></trkpt><trkpt lon="5.730698" lat="51.175434"><ele>28.8</ele><time>2022-06-05T09:31:04.000Z</time></trkpt><trkpt lon="5.730776" lat="51.175382"><ele>28.8</ele><time>2022-06-05T09:31:05.000Z</time></trkpt><trkpt lon="5.73086" lat="51.175331"><ele>28.8</ele><time>2022-06-05T09:31:06.000Z</time></trkpt><trkpt lon="5.730942" lat="51.175277"><ele>28.8</ele><time>2022-06-05T09:31:07.000Z</time></trkpt><trkpt lon="5.731024" lat="51.175227"><ele>28.6</ele><time>2022-06-05T09:31:08.000Z</time></trkpt><trkpt lon="5.731101" lat="51.175179"><ele>28.6</ele><time>2022-06-05T09:31:09.000Z</time></trkpt><trkpt lon="5.731182" lat="51.175129"><ele>28.6</ele><time>2022-06-05T09:31:10.000Z</time></trkpt><trkpt lon="5.731263" lat="51.175076"><ele>28.4</ele><time>2022-06-05T09:31:11.000Z</time></trkpt><trkpt lon="5.731342" lat="51.17503"><ele>28.6</ele><time>2022-06-05T09:31:12.000Z</time></trkpt><trkpt lon="5.73142" lat="51.174982"><ele>28.8</ele><time>2022-06-05T09:31:13.000Z</time></trkpt><trkpt lon="5.731504" lat="51.174927"><ele>28.6</ele><time>2022-06-05T09:31:14.000Z</time></trkpt><trkpt lon="5.731582" lat="51.174878"><ele>28.6</ele><time>2022-06-05T09:31:15.000Z</time></trkpt><trkpt lon="5.731663" lat="51.174825"><ele>28.8</ele><time>2022-06-05T09:31:16.000Z</time></trkpt><trkpt lon="5.731746" lat="51.174774"><ele>28.8</ele><time>2022-06-05T09:31:17.000Z</time></trkpt><trkpt lon="5.731826" lat="51.174724"><ele>28.6</ele><time>2022-06-05T09:31:18.000Z</time></trkpt><trkpt lon="5.731907" lat="51.174674"><ele>28.8</ele><time>2022-06-05T09:31:19.000Z</time></trkpt><trkpt lon="5.731986" lat="51.174621"><ele>29</ele><time>2022-06-05T09:31:20.000Z</time></trkpt><trkpt lon="5.732066" lat="51.174572"><ele>29.2</ele><time>2022-06-05T09:31:21.000Z</time></trkpt><trkpt lon="5.732145" lat="51.174518"><ele>29.2</ele><time>2022-06-05T09:31:22.000Z</time></trkpt><trkpt lon="5.732227" lat="51.174468"><ele>29.2</ele><time>2022-06-05T09:31:23.000Z</time></trkpt><trkpt lon="5.732308" lat="51.174414"><ele>29.4</ele><time>2022-06-05T09:31:24.000Z</time></trkpt><trkpt lon="5.732387" lat="51.174365"><ele>29.4</ele><time>2022-06-05T09:31:25.000Z</time></trkpt><trkpt lon="5.732468" lat="51.174316"><ele>29.4</ele><time>2022-06-05T09:31:26.000Z</time></trkpt><trkpt lon="5.732552" lat="51.174263"><ele>29.4</ele><time>2022-06-05T09:31:27.000Z</time></trkpt><trkpt lon="5.732636" lat="51.174213"><ele>29.2</ele><time>2022-06-05T09:31:28.000Z</time></trkpt><trkpt lon="5.732717" lat="51.174165"><ele>29.2</ele><time>2022-06-05T09:31:29.000Z</time></trkpt><trkpt lon="5.7328" lat="51.174111"><ele>29.2</ele><time>2022-06-05T09:31:30.000Z</time></trkpt><trkpt lon="5.732881" lat="51.174058"><ele>29.2</ele><time>2022-06-05T09:31:31.000Z</time></trkpt><trkpt lon="5.732962" lat="51.174009"><ele>29.2</ele><time>2022-06-05T09:31:32.000Z</time></trkpt><trkpt lon="5.733045" lat="51.173954"><ele>29.2</ele><time>2022-06-05T09:31:33.000Z</time></trkpt><trkpt lon="5.733127" lat="51.173905"><ele>29.4</ele><time>2022-06-05T09:31:34.000Z</time></trkpt><trkpt lon="5.73321" lat="51.17385"><ele>29.6</ele><time>2022-06-05T09:31:35.000Z</time></trkpt><trkpt lon="5.733291" lat="51.173801"><ele>29.6</ele><time>2022-06-05T09:31:36.000Z</time></trkpt><trkpt lon="5.733373" lat="51.173748"><ele>29.6</ele><time>2022-06-05T09:31:37.000Z</time></trkpt><trkpt lon="5.733453" lat="51.173698"><ele>29.6</ele><time>2022-06-05T09:31:38.000Z</time></trkpt><trkpt lon="5.733534" lat="51.173649"><ele>29.8</ele><time>2022-06-05T09:31:39.000Z</time></trkpt><trkpt lon="5.733615" lat="51.173597"><ele>29.8</ele><time>2022-06-05T09:31:40.000Z</time></trkpt><trkpt lon="5.733704" lat="51.173543"><ele>29.8</ele><time>2022-06-05T09:31:41.000Z</time></trkpt><trkpt lon="5.733784" lat="51.173495"><ele>29.8</ele><time>2022-06-05T09:31:42.000Z</time></trkpt><trkpt lon="5.733876" lat="51.173442"><ele>29.8</ele><time>2022-06-05T09:31:43.000Z</time></trkpt><trkpt lon="5.733959" lat="51.173389"><ele>29.8</ele><time>2022-06-05T09:31:44.000Z</time></trkpt><trkpt lon="5.734044" lat="51.173336"><ele>30</ele><time>2022-06-05T09:31:45.000Z</time></trkpt><trkpt lon="5.734125" lat="51.173286"><ele>30</ele><time>2022-06-05T09:31:46.000Z</time></trkpt><trkpt lon="5.734203" lat="51.173234"><ele>30.2</ele><time>2022-06-05T09:31:47.000Z</time></trkpt><trkpt lon="5.734283" lat="51.173179"><ele>30.2</ele><time>2022-06-05T09:31:48.000Z</time></trkpt><trkpt lon="5.73436" lat="51.173126"><ele>30.2</ele><time>2022-06-05T09:31:49.000Z</time></trkpt><trkpt lon="5.734439" lat="51.173073"><ele>30.2</ele><time>2022-06-05T09:31:50.000Z</time></trkpt><trkpt lon="5.734512" lat="51.173023"><ele>30.2</ele><time>2022-06-05T09:31:51.000Z</time></trkpt><trkpt lon="5.734593" lat="51.172968"><ele>30.2</ele><time>2022-06-05T09:31:52.000Z</time></trkpt><trkpt lon="5.734676" lat="51.172912"><ele>30.2</ele><time>2022-06-05T09:31:53.000Z</time></trkpt><trkpt lon="5.734753" lat="51.172859"><ele>30.2</ele><time>2022-06-05T09:31:54.000Z</time></trkpt><trkpt lon="5.734829" lat="51.172807"><ele>30.2</ele><time>2022-06-05T09:31:55.000Z</time></trkpt><trkpt lon="5.734911" lat="51.172757"><ele>30.2</ele><time>2022-06-05T09:31:56.000Z</time></trkpt><trkpt lon="5.734994" lat="51.172703"><ele>30.2</ele><time>2022-06-05T09:31:57.000Z</time></trkpt><trkpt lon="5.735076" lat="51.172653"><ele>30.2</ele><time>2022-06-05T09:31:58.000Z</time></trkpt><trkpt lon="5.735158" lat="51.172601"><ele>30.2</ele><time>2022-06-05T09:31:59.000Z</time></trkpt><trkpt lon="5.73524" lat="51.172551"><ele>30.2</ele><time>2022-06-05T09:32:00.000Z</time></trkpt><trkpt lon="5.735321" lat="51.172497"><ele>30.2</ele><time>2022-06-05T09:32:01.000Z</time></trkpt><trkpt lon="5.735396" lat="51.172446"><ele>30.2</ele><time>2022-06-05T09:32:02.000Z</time></trkpt><trkpt lon="5.735478" lat="51.172394"><ele>30.4</ele><time>2022-06-05T09:32:03.000Z</time></trkpt><trkpt lon="5.735557" lat="51.172341"><ele>30.4</ele><time>2022-06-05T09:32:04.000Z</time></trkpt><trkpt lon="5.735631" lat="51.172284"><ele>30.4</ele><time>2022-06-05T09:32:05.000Z</time></trkpt><trkpt lon="5.7357" lat="51.172223"><ele>30.4</ele><time>2022-06-05T09:32:06.000Z</time></trkpt><trkpt lon="5.735765" lat="51.172164"><ele>30.4</ele><time>2022-06-05T09:32:07.000Z</time></trkpt><trkpt lon="5.735827" lat="51.172106"><ele>30.4</ele><time>2022-06-05T09:32:08.000Z</time></trkpt><trkpt lon="5.735889" lat="51.172043"><ele>30.4</ele><time>2022-06-05T09:32:09.000Z</time></trkpt><trkpt lon="5.735946" lat="51.171984"><ele>30.2</ele><time>2022-06-05T09:32:10.000Z</time></trkpt><trkpt lon="5.736004" lat="51.171916"><ele>30.2</ele><time>2022-06-05T09:32:11.000Z</time></trkpt><trkpt lon="5.736057" lat="51.171856"><ele>30.2</ele><time>2022-06-05T09:32:12.000Z</time></trkpt><trkpt lon="5.736107" lat="51.171793"><ele>30.4</ele><time>2022-06-05T09:32:13.000Z</time></trkpt><trkpt lon="5.736154" lat="51.171728"><ele>30.4</ele><time>2022-06-05T09:32:14.000Z</time></trkpt><trkpt lon="5.736202" lat="51.171662"><ele>30.2</ele><time>2022-06-05T09:32:15.000Z</time></trkpt><trkpt lon="5.736243" lat="51.171591"><ele>30.2</ele><time>2022-06-05T09:32:16.000Z</time></trkpt><trkpt lon="5.736284" lat="51.171525"><ele>30.4</ele><time>2022-06-05T09:32:17.000Z</time></trkpt><trkpt lon="5.736323" lat="51.171457"><ele>30.4</ele><time>2022-06-05T09:32:18.000Z</time></trkpt><trkpt lon="5.736364" lat="51.171388"><ele>30.4</ele><time>2022-06-05T09:32:19.000Z</time></trkpt><trkpt lon="5.736405" lat="51.17132"><ele>30.2</ele><time>2022-06-05T09:32:20.000Z</time></trkpt><trkpt lon="5.736442" lat="51.171251"><ele>30.2</ele><time>2022-06-05T09:32:21.000Z</time></trkpt><trkpt lon="5.736482" lat="51.171181"><ele>30.2</ele><time>2022-06-05T09:32:22.000Z</time></trkpt><trkpt lon="5.736522" lat="51.171109"><ele>30.2</ele><time>2022-06-05T09:32:23.000Z</time></trkpt><trkpt lon="5.736561" lat="51.171036"><ele>30.2</ele><time>2022-06-05T09:32:24.000Z</time></trkpt><trkpt lon="5.736602" lat="51.170969"><ele>30.2</ele><time>2022-06-05T09:32:25.000Z</time></trkpt><trkpt lon="5.736642" lat="51.1709"><ele>30.2</ele><time>2022-06-05T09:32:26.000Z</time></trkpt><trkpt lon="5.73668" lat="51.170831"><ele>30.4</ele><time>2022-06-05T09:32:27.000Z</time></trkpt><trkpt lon="5.736717" lat="51.170763"><ele>30.4</ele><time>2022-06-05T09:32:28.000Z</time></trkpt><trkpt lon="5.736752" lat="51.170698"><ele>30.2</ele><time>2022-06-05T09:32:29.000Z</time></trkpt><trkpt lon="5.736789" lat="51.170632"><ele>30.2</ele><time>2022-06-05T09:32:30.000Z</time></trkpt><trkpt lon="5.736827" lat="51.170564"><ele>30.2</ele><time>2022-06-05T09:32:31.000Z</time></trkpt><trkpt lon="5.736867" lat="51.170498"><ele>30</ele><time>2022-06-05T09:32:32.000Z</time></trkpt><trkpt lon="5.736909" lat="51.170427"><ele>29.8</ele><time>2022-06-05T09:32:33.000Z</time></trkpt><trkpt lon="5.736947" lat="51.170362"><ele>29.8</ele><time>2022-06-05T09:32:34.000Z</time></trkpt><trkpt lon="5.736984" lat="51.170293"><ele>29.8</ele><time>2022-06-05T09:32:35.000Z</time></trkpt><trkpt lon="5.73702" lat="51.170226"><ele>29.8</ele><time>2022-06-05T09:32:36.000Z</time></trkpt><trkpt lon="5.737057" lat="51.170158"><ele>29.8</ele><time>2022-06-05T09:32:37.000Z</time></trkpt><trkpt lon="5.737098" lat="51.170086"><ele>29.8</ele><time>2022-06-05T09:32:38.000Z</time></trkpt><trkpt lon="5.737134" lat="51.170019"><ele>30</ele><time>2022-06-05T09:32:39.000Z</time></trkpt><trkpt lon="5.73717" lat="51.169951"><ele>30</ele><time>2022-06-05T09:32:40.000Z</time></trkpt><trkpt lon="5.73721" lat="51.169885"><ele>30</ele><time>2022-06-05T09:32:41.000Z</time></trkpt><trkpt lon="5.737249" lat="51.169819"><ele>30</ele><time>2022-06-05T09:32:42.000Z</time></trkpt><trkpt lon="5.737288" lat="51.16975"><ele>30</ele><time>2022-06-05T09:32:43.000Z</time></trkpt><trkpt lon="5.737328" lat="51.169673"><ele>29.8</ele><time>2022-06-05T09:32:44.000Z</time></trkpt><trkpt lon="5.737365" lat="51.169604"><ele>29.6</ele><time>2022-06-05T09:32:45.000Z</time></trkpt><trkpt lon="5.737402" lat="51.169535"><ele>29.6</ele><time>2022-06-05T09:32:46.000Z</time></trkpt><trkpt lon="5.737442" lat="51.169467"><ele>29.6</ele><time>2022-06-05T09:32:47.000Z</time></trkpt><trkpt lon="5.737483" lat="51.169394"><ele>29.6</ele><time>2022-06-05T09:32:48.000Z</time></trkpt><trkpt lon="5.737523" lat="51.169326"><ele>29.6</ele><time>2022-06-05T09:32:49.000Z</time></trkpt><trkpt lon="5.737564" lat="51.169253"><ele>29.6</ele><time>2022-06-05T09:32:50.000Z</time></trkpt><trkpt lon="5.737598" lat="51.169189"><ele>29.6</ele><time>2022-06-05T09:32:51.000Z</time></trkpt><trkpt lon="5.737643" lat="51.169112"><ele>29.4</ele><time>2022-06-05T09:32:52.000Z</time></trkpt><trkpt lon="5.737688" lat="51.16904"><ele>29.2</ele><time>2022-06-05T09:32:53.000Z</time></trkpt><trkpt lon="5.737733" lat="51.168967"><ele>29</ele><time>2022-06-05T09:32:54.000Z</time></trkpt><trkpt lon="5.737772" lat="51.168895"><ele>29.2</ele><time>2022-06-05T09:32:55.000Z</time></trkpt><trkpt lon="5.737812" lat="51.168826"><ele>29.2</ele><time>2022-06-05T09:32:56.000Z</time></trkpt><trkpt lon="5.737852" lat="51.168761"><ele>29.2</ele><time>2022-06-05T09:32:57.000Z</time></trkpt><trkpt lon="5.737888" lat="51.168693"><ele>29.2</ele><time>2022-06-05T09:32:58.000Z</time></trkpt><trkpt lon="5.737927" lat="51.168624"><ele>29</ele><time>2022-06-05T09:32:59.000Z</time></trkpt><trkpt lon="5.737965" lat="51.168552"><ele>29</ele><time>2022-06-05T09:33:00.000Z</time></trkpt><trkpt lon="5.738004" lat="51.168484"><ele>28.8</ele><time>2022-06-05T09:33:01.000Z</time></trkpt><trkpt lon="5.738045" lat="51.168406"><ele>28.8</ele><time>2022-06-05T09:33:02.000Z</time></trkpt><trkpt lon="5.738085" lat="51.168337"><ele>28.4</ele><time>2022-06-05T09:33:03.000Z</time></trkpt><trkpt lon="5.738125" lat="51.168265"><ele>28.4</ele><time>2022-06-05T09:33:04.000Z</time></trkpt><trkpt lon="5.738164" lat="51.168195"><ele>28.4</ele><time>2022-06-05T09:33:05.000Z</time></trkpt><trkpt lon="5.738206" lat="51.168117"><ele>28.4</ele><time>2022-06-05T09:33:06.000Z</time></trkpt><trkpt lon="5.738247" lat="51.168044"><ele>28.4</ele><time>2022-06-05T09:33:07.000Z</time></trkpt><trkpt lon="5.738287" lat="51.167972"><ele>28.4</ele><time>2022-06-05T09:33:08.000Z</time></trkpt><trkpt lon="5.738327" lat="51.167903"><ele>28.6</ele><time>2022-06-05T09:33:09.000Z</time></trkpt><trkpt lon="5.738366" lat="51.167829"><ele>28.4</ele><time>2022-06-05T09:33:10.000Z</time></trkpt><trkpt lon="5.738408" lat="51.167755"><ele>28.2</ele><time>2022-06-05T09:33:11.000Z</time></trkpt><trkpt lon="5.73845" lat="51.167678"><ele>28.2</ele><time>2022-06-05T09:33:12.000Z</time></trkpt><trkpt lon="5.738491" lat="51.167606"><ele>28</ele><time>2022-06-05T09:33:13.000Z</time></trkpt><trkpt lon="5.738532" lat="51.167529"><ele>27.8</ele><time>2022-06-05T09:33:14.000Z</time></trkpt><trkpt lon="5.738577" lat="51.167453"><ele>27.6</ele><time>2022-06-05T09:33:15.000Z</time></trkpt><trkpt lon="5.738621" lat="51.167376"><ele>27.8</ele><time>2022-06-05T09:33:16.000Z</time></trkpt><trkpt lon="5.738667" lat="51.167301"><ele>27.4</ele><time>2022-06-05T09:33:17.000Z</time></trkpt><trkpt lon="5.738715" lat="51.167224"><ele>27.2</ele><time>2022-06-05T09:33:18.000Z</time></trkpt><trkpt lon="5.738757" lat="51.167152"><ele>27</ele><time>2022-06-05T09:33:19.000Z</time></trkpt><trkpt lon="5.738798" lat="51.167083"><ele>26.8</ele><time>2022-06-05T09:33:20.000Z</time></trkpt><trkpt lon="5.738838" lat="51.167017"><ele>26.6</ele><time>2022-06-05T09:33:21.000Z</time></trkpt><trkpt lon="5.738881" lat="51.166942"><ele>26.8</ele><time>2022-06-05T09:33:22.000Z</time></trkpt><trkpt lon="5.738923" lat="51.166874"><ele>26.8</ele><time>2022-06-05T09:33:23.000Z</time></trkpt><trkpt lon="5.738967" lat="51.166804"><ele>26.8</ele><time>2022-06-05T09:33:24.000Z</time></trkpt><trkpt lon="5.73901" lat="51.166739"><ele>26.8</ele><time>2022-06-05T09:33:25.000Z</time></trkpt><trkpt lon="5.739053" lat="51.166671"><ele>26.6</ele><time>2022-06-05T09:33:26.000Z</time></trkpt><trkpt lon="5.739095" lat="51.166598"><ele>26.6</ele><time>2022-06-05T09:33:27.000Z</time></trkpt><trkpt lon="5.73914" lat="51.16653"><ele>26.6</ele><time>2022-06-05T09:33:28.000Z</time></trkpt><trkpt lon="5.739181" lat="51.166455"><ele>26.8</ele><time>2022-06-05T09:33:29.000Z</time></trkpt><trkpt lon="5.739222" lat="51.166381"><ele>26.8</ele><time>2022-06-05T09:33:30.000Z</time></trkpt><trkpt lon="5.739258" lat="51.166309"><ele>26.8</ele><time>2022-06-05T09:33:31.000Z</time></trkpt><trkpt lon="5.739298" lat="51.166228"><ele>26.8</ele><time>2022-06-05T09:33:32.000Z</time></trkpt><trkpt lon="5.739334" lat="51.166161"><ele>27</ele><time>2022-06-05T09:33:33.000Z</time></trkpt><trkpt lon="5.739375" lat="51.166087"><ele>27</ele><time>2022-06-05T09:33:34.000Z</time></trkpt><trkpt lon="5.739415" lat="51.166014"><ele>27</ele><time>2022-06-05T09:33:35.000Z</time></trkpt><trkpt lon="5.739452" lat="51.165946"><ele>27</ele><time>2022-06-05T09:33:36.000Z</time></trkpt><trkpt lon="5.739489" lat="51.165881"><ele>27</ele><time>2022-06-05T09:33:37.000Z</time></trkpt><trkpt lon="5.739525" lat="51.165816"><ele>27</ele><time>2022-06-05T09:33:38.000Z</time></trkpt><trkpt lon="5.73956" lat="51.165747"><ele>27.2</ele><time>2022-06-05T09:33:39.000Z</time></trkpt><trkpt lon="5.739599" lat="51.165679"><ele>27.2</ele><time>2022-06-05T09:33:40.000Z</time></trkpt><trkpt lon="5.73964" lat="51.165614"><ele>27.4</ele><time>2022-06-05T09:33:41.000Z</time></trkpt><trkpt lon="5.739678" lat="51.165545"><ele>27.4</ele><time>2022-06-05T09:33:42.000Z</time></trkpt><trkpt lon="5.739718" lat="51.165478"><ele>27.4</ele><time>2022-06-05T09:33:43.000Z</time></trkpt><trkpt lon="5.739762" lat="51.165411"><ele>27.2</ele><time>2022-06-05T09:33:44.000Z</time></trkpt><trkpt lon="5.739804" lat="51.165343"><ele>27.2</ele><time>2022-06-05T09:33:45.000Z</time></trkpt><trkpt lon="5.739843" lat="51.165275"><ele>27.4</ele><time>2022-06-05T09:33:46.000Z</time></trkpt><trkpt lon="5.739882" lat="51.165208"><ele>27.4</ele><time>2022-06-05T09:33:47.000Z</time></trkpt><trkpt lon="5.739925" lat="51.165137"><ele>27.4</ele><time>2022-06-05T09:33:48.000Z</time></trkpt><trkpt lon="5.739965" lat="51.165068"><ele>27.4</ele><time>2022-06-05T09:33:49.000Z</time></trkpt><trkpt lon="5.740003" lat="51.165"><ele>27.6</ele><time>2022-06-05T09:33:50.000Z</time></trkpt><trkpt lon="5.740036" lat="51.164939"><ele>27.6</ele><time>2022-06-05T09:33:51.000Z</time></trkpt><trkpt lon="5.740075" lat="51.164863"><ele>27.8</ele><time>2022-06-05T09:33:52.000Z</time></trkpt><trkpt lon="5.740114" lat="51.164797"><ele>27.8</ele><time>2022-06-05T09:33:53.000Z</time></trkpt><trkpt lon="5.740154" lat="51.164729"><ele>27.6</ele><time>2022-06-05T09:33:54.000Z</time></trkpt><trkpt lon="5.740193" lat="51.16466"><ele>27.6</ele><time>2022-06-05T09:33:55.000Z</time></trkpt><trkpt lon="5.740232" lat="51.164588"><ele>27.6</ele><time>2022-06-05T09:33:56.000Z</time></trkpt><trkpt lon="5.74027" lat="51.164519"><ele>27.4</ele><time>2022-06-05T09:33:57.000Z</time></trkpt><trkpt lon="5.740307" lat="51.16445"><ele>27.4</ele><time>2022-06-05T09:33:58.000Z</time></trkpt><trkpt lon="5.740345" lat="51.164382"><ele>27.2</ele><time>2022-06-05T09:33:59.000Z</time></trkpt><trkpt lon="5.740382" lat="51.164313"><ele>27.2</ele><time>2022-06-05T09:34:00.000Z</time></trkpt><trkpt lon="5.740418" lat="51.164245"><ele>27.2</ele><time>2022-06-05T09:34:01.000Z</time></trkpt><trkpt lon="5.740457" lat="51.164176"><ele>27.2</ele><time>2022-06-05T09:34:02.000Z</time></trkpt><trkpt lon="5.740494" lat="51.164103"><ele>27</ele><time>2022-06-05T09:34:03.000Z</time></trkpt><trkpt lon="5.740532" lat="51.164035"><ele>27</ele><time>2022-06-05T09:34:04.000Z</time></trkpt><trkpt lon="5.740567" lat="51.16397"><ele>27.2</ele><time>2022-06-05T09:34:05.000Z</time></trkpt><trkpt lon="5.740607" lat="51.163901"><ele>27.2</ele><time>2022-06-05T09:34:06.000Z</time></trkpt><trkpt lon="5.740645" lat="51.163836"><ele>27.2</ele><time>2022-06-05T09:34:07.000Z</time></trkpt><trkpt lon="5.740682" lat="51.163771"><ele>27.2</ele><time>2022-06-05T09:34:08.000Z</time></trkpt><trkpt lon="5.74072" lat="51.163702"><ele>27.4</ele><time>2022-06-05T09:34:09.000Z</time></trkpt><trkpt lon="5.740758" lat="51.163634"><ele>27.4</ele><time>2022-06-05T09:34:10.000Z</time></trkpt><trkpt lon="5.740795" lat="51.16357"><ele>27.2</ele><time>2022-06-05T09:34:11.000Z</time></trkpt><trkpt lon="5.740832" lat="51.163504"><ele>27</ele><time>2022-06-05T09:34:12.000Z</time></trkpt><trkpt lon="5.74087" lat="51.163436"><ele>27.2</ele><time>2022-06-05T09:34:13.000Z</time></trkpt><trkpt lon="5.740907" lat="51.163363"><ele>27.4</ele><time>2022-06-05T09:34:14.000Z</time></trkpt><trkpt lon="5.740945" lat="51.163298"><ele>27.2</ele><time>2022-06-05T09:34:15.000Z</time></trkpt><trkpt lon="5.740983" lat="51.16323"><ele>27.2</ele><time>2022-06-05T09:34:16.000Z</time></trkpt><trkpt lon="5.741022" lat="51.163161"><ele>27.4</ele><time>2022-06-05T09:34:17.000Z</time></trkpt><trkpt lon="5.741062" lat="51.163089"><ele>27.4</ele><time>2022-06-05T09:34:18.000Z</time></trkpt><trkpt lon="5.7411" lat="51.163016"><ele>27.4</ele><time>2022-06-05T09:34:19.000Z</time></trkpt><trkpt lon="5.741138" lat="51.162948"><ele>27.6</ele><time>2022-06-05T09:34:20.000Z</time></trkpt><trkpt lon="5.741179" lat="51.162881"><ele>27.6</ele><time>2022-06-05T09:34:21.000Z</time></trkpt><trkpt lon="5.741223" lat="51.162806"><ele>27.6</ele><time>2022-06-05T09:34:22.000Z</time></trkpt><trkpt lon="5.741266" lat="51.162738"><ele>27.4</ele><time>2022-06-05T09:34:23.000Z</time></trkpt><trkpt lon="5.74131" lat="51.162668"><ele>27.2</ele><time>2022-06-05T09:34:24.000Z</time></trkpt><trkpt lon="5.741353" lat="51.1626"><ele>27.2</ele><time>2022-06-05T09:34:25.000Z</time></trkpt><trkpt lon="5.741394" lat="51.16253"><ele>27.2</ele><time>2022-06-05T09:34:26.000Z</time></trkpt><trkpt lon="5.741435" lat="51.162459"><ele>27.2</ele><time>2022-06-05T09:34:27.000Z</time></trkpt><trkpt lon="5.741475" lat="51.162391"><ele>27</ele><time>2022-06-05T09:34:28.000Z</time></trkpt><trkpt lon="5.741516" lat="51.162323"><ele>27</ele><time>2022-06-05T09:34:29.000Z</time></trkpt><trkpt lon="5.741558" lat="51.162253"><ele>27</ele><time>2022-06-05T09:34:30.000Z</time></trkpt><trkpt lon="5.741594" lat="51.162194"><ele>27</ele><time>2022-06-05T09:34:31.000Z</time></trkpt><trkpt lon="5.74164" lat="51.16212"><ele>27.2</ele><time>2022-06-05T09:34:32.000Z</time></trkpt><trkpt lon="5.741678" lat="51.162052"><ele>27.4</ele><time>2022-06-05T09:34:33.000Z</time></trkpt><trkpt lon="5.741715" lat="51.161986"><ele>27.4</ele><time>2022-06-05T09:34:34.000Z</time></trkpt><trkpt lon="5.741754" lat="51.161914"><ele>27.4</ele><time>2022-06-05T09:34:35.000Z</time></trkpt><trkpt lon="5.741791" lat="51.161846"><ele>27.4</ele><time>2022-06-05T09:34:36.000Z</time></trkpt><trkpt lon="5.741827" lat="51.161776"><ele>27.4</ele><time>2022-06-05T09:34:37.000Z</time></trkpt><trkpt lon="5.74186" lat="51.161708"><ele>27.2</ele><time>2022-06-05T09:34:38.000Z</time></trkpt><trkpt lon="5.741892" lat="51.161639"><ele>27.2</ele><time>2022-06-05T09:34:39.000Z</time></trkpt><trkpt lon="5.741923" lat="51.161571"><ele>27.2</ele><time>2022-06-05T09:34:40.000Z</time></trkpt><trkpt lon="5.741952" lat="51.161502"><ele>27.2</ele><time>2022-06-05T09:34:41.000Z</time></trkpt><trkpt lon="5.741982" lat="51.161433"><ele>27.2</ele><time>2022-06-05T09:34:42.000Z</time></trkpt><trkpt lon="5.742009" lat="51.161361"><ele>27.2</ele><time>2022-06-05T09:34:43.000Z</time></trkpt><trkpt lon="5.742037" lat="51.161289"><ele>27.2</ele><time>2022-06-05T09:34:44.000Z</time></trkpt><trkpt lon="5.742054" lat="51.161215"><ele>27</ele><time>2022-06-05T09:34:45.000Z</time></trkpt><trkpt lon="5.742058" lat="51.16114"><ele>27</ele><time>2022-06-05T09:34:46.000Z</time></trkpt><trkpt lon="5.74206" lat="51.161063"><ele>27</ele><time>2022-06-05T09:34:47.000Z</time></trkpt><trkpt lon="5.742062" lat="51.160991"><ele>27.2</ele><time>2022-06-05T09:34:48.000Z</time></trkpt><trkpt lon="5.742062" lat="51.160919"><ele>27.2</ele><time>2022-06-05T09:34:49.000Z</time></trkpt><trkpt lon="5.742062" lat="51.160847"><ele>27</ele><time>2022-06-05T09:34:50.000Z</time></trkpt><trkpt lon="5.74206" lat="51.160773"><ele>27.2</ele><time>2022-06-05T09:34:51.000Z</time></trkpt><trkpt lon="5.742058" lat="51.160701"><ele>27.4</ele><time>2022-06-05T09:34:52.000Z</time></trkpt><trkpt lon="5.742057" lat="51.160629"><ele>27.4</ele><time>2022-06-05T09:34:53.000Z</time></trkpt><trkpt lon="5.742055" lat="51.160556"><ele>27.4</ele><time>2022-06-05T09:34:54.000Z</time></trkpt><trkpt lon="5.742054" lat="51.16048"><ele>27.2</ele><time>2022-06-05T09:34:55.000Z</time></trkpt><trkpt lon="5.742054" lat="51.160407"><ele>27.2</ele><time>2022-06-05T09:34:56.000Z</time></trkpt><trkpt lon="5.742052" lat="51.160335"><ele>26.8</ele><time>2022-06-05T09:34:57.000Z</time></trkpt><trkpt lon="5.74205" lat="51.160256"><ele>26.8</ele><time>2022-06-05T09:34:58.000Z</time></trkpt><trkpt lon="5.742047" lat="51.160182"><ele>26.8</ele><time>2022-06-05T09:34:59.000Z</time></trkpt><trkpt lon="5.742045" lat="51.16011"><ele>26.8</ele><time>2022-06-05T09:35:00.000Z</time></trkpt><trkpt lon="5.742042" lat="51.160035"><ele>27</ele><time>2022-06-05T09:35:01.000Z</time></trkpt><trkpt lon="5.742045" lat="51.159961"><ele>27.4</ele><time>2022-06-05T09:35:02.000Z</time></trkpt><trkpt lon="5.742047" lat="51.159888"><ele>27.2</ele><time>2022-06-05T09:35:03.000Z</time></trkpt><trkpt lon="5.742047" lat="51.159812"><ele>27.2</ele><time>2022-06-05T09:35:04.000Z</time></trkpt><trkpt lon="5.742047" lat="51.159739"><ele>27.2</ele><time>2022-06-05T09:35:05.000Z</time></trkpt><trkpt lon="5.742045" lat="51.159663"><ele>27.4</ele><time>2022-06-05T09:35:06.000Z</time></trkpt><trkpt lon="5.74204" lat="51.159591"><ele>27.4</ele><time>2022-06-05T09:35:07.000Z</time></trkpt><trkpt lon="5.742035" lat="51.159518"><ele>27.6</ele><time>2022-06-05T09:35:08.000Z</time></trkpt><trkpt lon="5.742032" lat="51.159445"><ele>27.6</ele><time>2022-06-05T09:35:09.000Z</time></trkpt><trkpt lon="5.742028" lat="51.159374"><ele>27.4</ele><time>2022-06-05T09:35:10.000Z</time></trkpt><trkpt lon="5.742025" lat="51.159301"><ele>27.2</ele><time>2022-06-05T09:35:11.000Z</time></trkpt><trkpt lon="5.742027" lat="51.159225"><ele>27.2</ele><time>2022-06-05T09:35:12.000Z</time></trkpt><trkpt lon="5.742028" lat="51.159149"><ele>27</ele><time>2022-06-05T09:35:13.000Z</time></trkpt><trkpt lon="5.742028" lat="51.159079"><ele>27</ele><time>2022-06-05T09:35:14.000Z</time></trkpt><trkpt lon="5.742027" lat="51.159008"><ele>26.8</ele><time>2022-06-05T09:35:15.000Z</time></trkpt><trkpt lon="5.742024" lat="51.158935"><ele>26.8</ele><time>2022-06-05T09:35:16.000Z</time></trkpt><trkpt lon="5.74202" lat="51.158866"><ele>27</ele><time>2022-06-05T09:35:17.000Z</time></trkpt><trkpt lon="5.74202" lat="51.158794"><ele>27</ele><time>2022-06-05T09:35:18.000Z</time></trkpt><trkpt lon="5.742017" lat="51.158722"><ele>27</ele><time>2022-06-05T09:35:19.000Z</time></trkpt><trkpt lon="5.742015" lat="51.158655"><ele>27</ele><time>2022-06-05T09:35:20.000Z</time></trkpt><trkpt lon="5.742014" lat="51.158584"><ele>27.2</ele><time>2022-06-05T09:35:21.000Z</time></trkpt><trkpt lon="5.742012" lat="51.158511"><ele>27.2</ele><time>2022-06-05T09:35:22.000Z</time></trkpt><trkpt lon="5.742008" lat="51.158446"><ele>27.2</ele><time>2022-06-05T09:35:23.000Z</time></trkpt><trkpt lon="5.742004" lat="51.158378"><ele>27.2</ele><time>2022-06-05T09:35:24.000Z</time></trkpt><trkpt lon="5.741997" lat="51.158309"><ele>27</ele><time>2022-06-05T09:35:25.000Z</time></trkpt><trkpt lon="5.741994" lat="51.158244"><ele>26.8</ele><time>2022-06-05T09:35:26.000Z</time></trkpt><trkpt lon="5.741992" lat="51.158172"><ele>27</ele><time>2022-06-05T09:35:27.000Z</time></trkpt><trkpt lon="5.74199" lat="51.158103"><ele>27.2</ele><time>2022-06-05T09:35:28.000Z</time></trkpt><trkpt lon="5.74199" lat="51.158035"><ele>27.4</ele><time>2022-06-05T09:35:29.000Z</time></trkpt><trkpt lon="5.741988" lat="51.157965"><ele>27.4</ele><time>2022-06-05T09:35:30.000Z</time></trkpt><trkpt lon="5.74198" lat="51.157897"><ele>27.6</ele><time>2022-06-05T09:35:31.000Z</time></trkpt><trkpt lon="5.741975" lat="51.157828"><ele>27.6</ele><time>2022-06-05T09:35:32.000Z</time></trkpt><trkpt lon="5.741973" lat="51.157759"><ele>27.6</ele><time>2022-06-05T09:35:33.000Z</time></trkpt><trkpt lon="5.74197" lat="51.157691"><ele>27.4</ele><time>2022-06-05T09:35:34.000Z</time></trkpt><trkpt lon="5.741965" lat="51.157622"><ele>27.4</ele><time>2022-06-05T09:35:35.000Z</time></trkpt><trkpt lon="5.74196" lat="51.15755"><ele>27.4</ele><time>2022-06-05T09:35:36.000Z</time></trkpt><trkpt lon="5.74196" lat="51.157483"><ele>27.4</ele><time>2022-06-05T09:35:37.000Z</time></trkpt><trkpt lon="5.741961" lat="51.157413"><ele>27.4</ele><time>2022-06-05T09:35:38.000Z</time></trkpt><trkpt lon="5.741961" lat="51.157341"><ele>27.2</ele><time>2022-06-05T09:35:39.000Z</time></trkpt><trkpt lon="5.741958" lat="51.157271"><ele>27.4</ele><time>2022-06-05T09:35:40.000Z</time></trkpt><trkpt lon="5.741957" lat="51.157203"><ele>27.2</ele><time>2022-06-05T09:35:41.000Z</time></trkpt><trkpt lon="5.741957" lat="51.15713"><ele>27.4</ele><time>2022-06-05T09:35:42.000Z</time></trkpt><trkpt lon="5.741958" lat="51.157062"><ele>27.4</ele><time>2022-06-05T09:35:43.000Z</time></trkpt><trkpt lon="5.741955" lat="51.156994"><ele>27.6</ele><time>2022-06-05T09:35:44.000Z</time></trkpt><trkpt lon="5.741955" lat="51.156927"><ele>27.6</ele><time>2022-06-05T09:35:45.000Z</time></trkpt><trkpt lon="5.741953" lat="51.156859"><ele>27.8</ele><time>2022-06-05T09:35:46.000Z</time></trkpt><trkpt lon="5.741952" lat="51.156785"><ele>27.8</ele><time>2022-06-05T09:35:47.000Z</time></trkpt><trkpt lon="5.741948" lat="51.156711"><ele>27.8</ele><time>2022-06-05T09:35:48.000Z</time></trkpt><trkpt lon="5.741945" lat="51.156639"><ele>27.8</ele><time>2022-06-05T09:35:49.000Z</time></trkpt><trkpt lon="5.741948" lat="51.156565"><ele>28</ele><time>2022-06-05T09:35:50.000Z</time></trkpt><trkpt lon="5.74195" lat="51.156489"><ele>28</ele><time>2022-06-05T09:35:51.000Z</time></trkpt><trkpt lon="5.741951" lat="51.156413"><ele>28</ele><time>2022-06-05T09:35:52.000Z</time></trkpt><trkpt lon="5.74195" lat="51.156337"><ele>28.2</ele><time>2022-06-05T09:35:53.000Z</time></trkpt><trkpt lon="5.741951" lat="51.156261"><ele>28.2</ele><time>2022-06-05T09:35:54.000Z</time></trkpt><trkpt lon="5.741955" lat="51.156188"><ele>28.2</ele><time>2022-06-05T09:35:55.000Z</time></trkpt><trkpt lon="5.741957" lat="51.156108"><ele>28.2</ele><time>2022-06-05T09:35:56.000Z</time></trkpt><trkpt lon="5.741957" lat="51.156032"><ele>28</ele><time>2022-06-05T09:35:57.000Z</time></trkpt><trkpt lon="5.74196" lat="51.155955"><ele>28</ele><time>2022-06-05T09:35:58.000Z</time></trkpt><trkpt lon="5.74196" lat="51.155879"><ele>28</ele><time>2022-06-05T09:35:59.000Z</time></trkpt><trkpt lon="5.741963" lat="51.155803"><ele>28.2</ele><time>2022-06-05T09:36:00.000Z</time></trkpt><trkpt lon="5.741965" lat="51.155727"><ele>28.2</ele><time>2022-06-05T09:36:01.000Z</time></trkpt><trkpt lon="5.741967" lat="51.15565"><ele>28.2</ele><time>2022-06-05T09:36:02.000Z</time></trkpt><trkpt lon="5.741968" lat="51.155574"><ele>28.2</ele><time>2022-06-05T09:36:03.000Z</time></trkpt><trkpt lon="5.74197" lat="51.155502"><ele>28.2</ele><time>2022-06-05T09:36:04.000Z</time></trkpt><trkpt lon="5.741971" lat="51.15543"><ele>28.2</ele><time>2022-06-05T09:36:05.000Z</time></trkpt><trkpt lon="5.741964" lat="51.155357"><ele>28.2</ele><time>2022-06-05T09:36:06.000Z</time></trkpt><trkpt lon="5.741946" lat="51.155292"><ele>28.4</ele><time>2022-06-05T09:36:07.000Z</time></trkpt><trkpt lon="5.741923" lat="51.155223"><ele>28.4</ele><time>2022-06-05T09:36:08.000Z</time></trkpt><trkpt lon="5.741903" lat="51.15515"><ele>28.4</ele><time>2022-06-05T09:36:09.000Z</time></trkpt><trkpt lon="5.74189" lat="51.155078"><ele>28.4</ele><time>2022-06-05T09:36:10.000Z</time></trkpt><trkpt lon="5.741885" lat="51.155006"><ele>28.4</ele><time>2022-06-05T09:36:11.000Z</time></trkpt><trkpt lon="5.741887" lat="51.154933"><ele>28.6</ele><time>2022-06-05T09:36:12.000Z</time></trkpt><trkpt lon="5.741898" lat="51.154869"><ele>28.6</ele><time>2022-06-05T09:36:13.000Z</time></trkpt><trkpt lon="5.741922" lat="51.154803"><ele>28.6</ele><time>2022-06-05T09:36:14.000Z</time></trkpt><trkpt lon="5.741943" lat="51.154738"><ele>28.4</ele><time>2022-06-05T09:36:15.000Z</time></trkpt><trkpt lon="5.741946" lat="51.154675"><ele>28.6</ele><time>2022-06-05T09:36:16.000Z</time></trkpt><trkpt lon="5.741945" lat="51.154605"><ele>28.6</ele><time>2022-06-05T09:36:17.000Z</time></trkpt><trkpt lon="5.741945" lat="51.154536"><ele>28.4</ele><time>2022-06-05T09:36:18.000Z</time></trkpt><trkpt lon="5.741948" lat="51.154468"><ele>28.4</ele><time>2022-06-05T09:36:19.000Z</time></trkpt><trkpt lon="5.74195" lat="51.154399"><ele>28.2</ele><time>2022-06-05T09:36:20.000Z</time></trkpt><trkpt lon="5.74195" lat="51.15433"><ele>28.4</ele><time>2022-06-05T09:36:21.000Z</time></trkpt><trkpt lon="5.741948" lat="51.154261"><ele>28.4</ele><time>2022-06-05T09:36:22.000Z</time></trkpt><trkpt lon="5.741945" lat="51.154192"><ele>28.4</ele><time>2022-06-05T09:36:23.000Z</time></trkpt><trkpt lon="5.74194" lat="51.15413"><ele>28.4</ele><time>2022-06-05T09:36:24.000Z</time></trkpt><trkpt lon="5.741938" lat="51.15406"><ele>28.2</ele><time>2022-06-05T09:36:25.000Z</time></trkpt><trkpt lon="5.741937" lat="51.153988"><ele>28.4</ele><time>2022-06-05T09:36:26.000Z</time></trkpt><trkpt lon="5.741935" lat="51.153918"><ele>28.4</ele><time>2022-06-05T09:36:27.000Z</time></trkpt><trkpt lon="5.741932" lat="51.15385"><ele>28.2</ele><time>2022-06-05T09:36:28.000Z</time></trkpt><trkpt lon="5.74193" lat="51.153781"><ele>28</ele><time>2022-06-05T09:36:29.000Z</time></trkpt><trkpt lon="5.741928" lat="51.153712"><ele>28</ele><time>2022-06-05T09:36:30.000Z</time></trkpt><trkpt lon="5.741927" lat="51.153644"><ele>28</ele><time>2022-06-05T09:36:31.000Z</time></trkpt><trkpt lon="5.741925" lat="51.153575"><ele>28</ele><time>2022-06-05T09:36:32.000Z</time></trkpt><trkpt lon="5.74192" lat="51.15351"><ele>28</ele><time>2022-06-05T09:36:33.000Z</time></trkpt><trkpt lon="5.741919" lat="51.153441"><ele>28</ele><time>2022-06-05T09:36:34.000Z</time></trkpt><trkpt lon="5.741917" lat="51.153373"><ele>28</ele><time>2022-06-05T09:36:35.000Z</time></trkpt><trkpt lon="5.741918" lat="51.1533"><ele>27.8</ele><time>2022-06-05T09:36:36.000Z</time></trkpt><trkpt lon="5.741919" lat="51.153232"><ele>27.8</ele><time>2022-06-05T09:36:37.000Z</time></trkpt><trkpt lon="5.741917" lat="51.153163"><ele>28</ele><time>2022-06-05T09:36:38.000Z</time></trkpt><trkpt lon="5.741917" lat="51.153091"><ele>28</ele><time>2022-06-05T09:36:39.000Z</time></trkpt><trkpt lon="5.741918" lat="51.153022"><ele>28</ele><time>2022-06-05T09:36:40.000Z</time></trkpt><trkpt lon="5.74192" lat="51.152953"><ele>28</ele><time>2022-06-05T09:36:41.000Z</time></trkpt><trkpt lon="5.741922" lat="51.152885"><ele>27.8</ele><time>2022-06-05T09:36:42.000Z</time></trkpt><trkpt lon="5.74192" lat="51.152812"><ele>28</ele><time>2022-06-05T09:36:43.000Z</time></trkpt><trkpt lon="5.741919" lat="51.152744"><ele>28</ele><time>2022-06-05T09:36:44.000Z</time></trkpt><trkpt lon="5.741919" lat="51.152675"><ele>28.2</ele><time>2022-06-05T09:36:45.000Z</time></trkpt><trkpt lon="5.741919" lat="51.152606"><ele>28.4</ele><time>2022-06-05T09:36:46.000Z</time></trkpt><trkpt lon="5.741919" lat="51.152537"><ele>28.4</ele><time>2022-06-05T09:36:47.000Z</time></trkpt><trkpt lon="5.741919" lat="51.152469"><ele>28.6</ele><time>2022-06-05T09:36:48.000Z</time></trkpt><trkpt lon="5.741915" lat="51.152406"><ele>28.8</ele><time>2022-06-05T09:36:49.000Z</time></trkpt><trkpt lon="5.741912" lat="51.152336"><ele>28.8</ele><time>2022-06-05T09:36:50.000Z</time></trkpt><trkpt lon="5.74191" lat="51.152268"><ele>28.8</ele><time>2022-06-05T09:36:51.000Z</time></trkpt><trkpt lon="5.741909" lat="51.152198"><ele>29</ele><time>2022-06-05T09:36:52.000Z</time></trkpt><trkpt lon="5.74191" lat="51.152132"><ele>29</ele><time>2022-06-05T09:36:53.000Z</time></trkpt><trkpt lon="5.741909" lat="51.152064"><ele>29</ele><time>2022-06-05T09:36:54.000Z</time></trkpt><trkpt lon="5.74191" lat="51.151995"><ele>29.2</ele><time>2022-06-05T09:36:55.000Z</time></trkpt><trkpt lon="5.741912" lat="51.151927"><ele>29</ele><time>2022-06-05T09:36:56.000Z</time></trkpt><trkpt lon="5.741913" lat="51.151854"><ele>29</ele><time>2022-06-05T09:36:57.000Z</time></trkpt><trkpt lon="5.741917" lat="51.151786"><ele>29</ele><time>2022-06-05T09:36:58.000Z</time></trkpt><trkpt lon="5.741917" lat="51.151717"><ele>29</ele><time>2022-06-05T09:36:59.000Z</time></trkpt><trkpt lon="5.741917" lat="51.151648"><ele>29</ele><time>2022-06-05T09:37:00.000Z</time></trkpt><trkpt lon="5.741915" lat="51.15158"><ele>29.2</ele><time>2022-06-05T09:37:01.000Z</time></trkpt><trkpt lon="5.74191" lat="51.151511"><ele>29</ele><time>2022-06-05T09:37:02.000Z</time></trkpt><trkpt lon="5.741899" lat="51.151446"><ele>29.2</ele><time>2022-06-05T09:37:03.000Z</time></trkpt><trkpt lon="5.741892" lat="51.151388"><ele>29.2</ele><time>2022-06-05T09:37:04.000Z</time></trkpt><trkpt lon="5.741884" lat="51.151313"><ele>29.2</ele><time>2022-06-05T09:37:05.000Z</time></trkpt><trkpt lon="5.741877" lat="51.151248"><ele>29.2</ele><time>2022-06-05T09:37:06.000Z</time></trkpt><trkpt lon="5.741869" lat="51.151179"><ele>29.2</ele><time>2022-06-05T09:37:07.000Z</time></trkpt><trkpt lon="5.741873" lat="51.151107"><ele>29.2</ele><time>2022-06-05T09:37:08.000Z</time></trkpt><trkpt lon="5.741878" lat="51.151035"><ele>29.2</ele><time>2022-06-05T09:37:09.000Z</time></trkpt><trkpt lon="5.74188" lat="51.150966"><ele>29.4</ele><time>2022-06-05T09:37:10.000Z</time></trkpt><trkpt lon="5.74188" lat="51.150899"><ele>29.2</ele><time>2022-06-05T09:37:11.000Z</time></trkpt><trkpt lon="5.741882" lat="51.150825"><ele>29</ele><time>2022-06-05T09:37:12.000Z</time></trkpt><trkpt lon="5.741879" lat="51.150757"><ele>29</ele><time>2022-06-05T09:37:13.000Z</time></trkpt><trkpt lon="5.741875" lat="51.150687"><ele>29</ele><time>2022-06-05T09:37:14.000Z</time></trkpt><trkpt lon="5.741875" lat="51.150618"><ele>29.2</ele><time>2022-06-05T09:37:15.000Z</time></trkpt><trkpt lon="5.741875" lat="51.15055"><ele>29.2</ele><time>2022-06-05T09:37:16.000Z</time></trkpt><trkpt lon="5.741873" lat="51.150481"><ele>29.4</ele><time>2022-06-05T09:37:17.000Z</time></trkpt><trkpt lon="5.741873" lat="51.150416"><ele>29.4</ele><time>2022-06-05T09:37:18.000Z</time></trkpt><trkpt lon="5.741875" lat="51.150344"><ele>29.4</ele><time>2022-06-05T09:37:19.000Z</time></trkpt><trkpt lon="5.741873" lat="51.150275"><ele>29.6</ele><time>2022-06-05T09:37:20.000Z</time></trkpt><trkpt lon="5.74187" lat="51.15021"><ele>29.6</ele><time>2022-06-05T09:37:21.000Z</time></trkpt><trkpt lon="5.741869" lat="51.150149"><ele>29.6</ele><time>2022-06-05T09:37:22.000Z</time></trkpt><trkpt lon="5.74187" lat="51.15008"><ele>29.8</ele><time>2022-06-05T09:37:23.000Z</time></trkpt><trkpt lon="5.741867" lat="51.15002"><ele>29.6</ele><time>2022-06-05T09:37:24.000Z</time></trkpt><trkpt lon="5.741865" lat="51.149947"><ele>29.6</ele><time>2022-06-05T09:37:25.000Z</time></trkpt><trkpt lon="5.741862" lat="51.149875"><ele>29.8</ele><time>2022-06-05T09:37:26.000Z</time></trkpt><trkpt lon="5.741859" lat="51.149805"><ele>29.8</ele><time>2022-06-05T09:37:27.000Z</time></trkpt><trkpt lon="5.741858" lat="51.149737"><ele>29.8</ele><time>2022-06-05T09:37:28.000Z</time></trkpt><trkpt lon="5.741853" lat="51.149669"><ele>29.8</ele><time>2022-06-05T09:37:29.000Z</time></trkpt><trkpt lon="5.741852" lat="51.1496"><ele>29.8</ele><time>2022-06-05T09:37:30.000Z</time></trkpt><trkpt lon="5.74185" lat="51.149531"><ele>30</ele><time>2022-06-05T09:37:31.000Z</time></trkpt><trkpt lon="5.741849" lat="51.149469"><ele>29.8</ele><time>2022-06-05T09:37:32.000Z</time></trkpt><trkpt lon="5.741847" lat="51.149391"><ele>29.8</ele><time>2022-06-05T09:37:33.000Z</time></trkpt><trkpt lon="5.741848" lat="51.149317"><ele>29.6</ele><time>2022-06-05T09:37:34.000Z</time></trkpt><trkpt lon="5.741847" lat="51.149241"><ele>29.6</ele><time>2022-06-05T09:37:35.000Z</time></trkpt><trkpt lon="5.741847" lat="51.149166"><ele>29.4</ele><time>2022-06-05T09:37:36.000Z</time></trkpt><trkpt lon="5.741843" lat="51.14909"><ele>29.4</ele><time>2022-06-05T09:37:37.000Z</time></trkpt><trkpt lon="5.74184" lat="51.149015"><ele>29.4</ele><time>2022-06-05T09:37:38.000Z</time></trkpt><trkpt lon="5.741839" lat="51.148937"><ele>29.4</ele><time>2022-06-05T09:37:39.000Z</time></trkpt><trkpt lon="5.741838" lat="51.14886"><ele>29.4</ele><time>2022-06-05T09:37:40.000Z</time></trkpt><trkpt lon="5.741838" lat="51.148787"><ele>29.6</ele><time>2022-06-05T09:37:41.000Z</time></trkpt><trkpt lon="5.741838" lat="51.148715"><ele>29.6</ele><time>2022-06-05T09:37:42.000Z</time></trkpt><trkpt lon="5.74184" lat="51.148643"><ele>29.6</ele><time>2022-06-05T09:37:43.000Z</time></trkpt><trkpt lon="5.741837" lat="51.148577"><ele>29.6</ele><time>2022-06-05T09:37:44.000Z</time></trkpt><trkpt lon="5.741837" lat="51.148509"><ele>29.8</ele><time>2022-06-05T09:37:45.000Z</time></trkpt><trkpt lon="5.741835" lat="51.148447"><ele>29.8</ele><time>2022-06-05T09:37:46.000Z</time></trkpt><trkpt lon="5.74183" lat="51.14839"><ele>29.8</ele><time>2022-06-05T09:37:47.000Z</time></trkpt><trkpt lon="5.741811" lat="51.14834"><ele>29.8</ele><time>2022-06-05T09:37:48.000Z</time></trkpt><trkpt lon="5.741772" lat="51.148302"><ele>30</ele><time>2022-06-05T09:37:49.000Z</time></trkpt><trkpt lon="5.741713" lat="51.148271"><ele>30</ele><time>2022-06-05T09:37:50.000Z</time></trkpt><trkpt lon="5.74164" lat="51.148233"><ele>30</ele><time>2022-06-05T09:37:51.000Z</time></trkpt><trkpt lon="5.741565" lat="51.148195"><ele>30</ele><time>2022-06-05T09:37:52.000Z</time></trkpt></trkseg></trk></gpx>